<?xml version='1.0' encoding='UTF-8'?><gpx version="1.1" creator="JPX - https://github.com/jenetics/jpx" xmlns="http://www.topografix.com/GPX/1/1"><trk><trkseg><trkpt lat="48.58637131517144" lon="-2.5153488654862897"><ele>86.0</ele><time>2026-04-05T06:46:19.027Z</time></trkpt><trkpt lat="48.586295463541525" lon="-2.5152819197770886"><ele>86.0</ele><time>2026-04-05T06:46:22.025Z</time></trkpt><trkpt lat="48.58624393306449" lon="-2.515216555272618"><ele>86.0</ele><time>2026-04-05T06:46:24.019Z</time></trkpt><trkpt lat="48.5861695146107" lon="-2.5151362478097203"><ele>86.0</ele><time>2026-04-05T06:46:27.02Z</time></trkpt><trkpt lat="48.5861087786746" lon="-2.5150872111502034"><ele>86.0</ele><time>2026-04-05T06:46:29.026Z</time></trkpt><trkpt lat="48.58604455077745" lon="-2.5150544865000617"><ele>86.0</ele><time>2026-04-05T06:46:31.023Z</time></trkpt><trkpt lat="48.58598098148583" lon="-2.51502038077652"><ele>86.4</ele><time>2026-04-05T06:46:33.021Z</time></trkpt><trkpt lat="48.58590746129018" lon="-2.514926496947573"><ele>86.8</ele><time>2026-04-05T06:46:36.028Z</time></trkpt><trkpt lat="48.58586575187549" lon="-2.5147587223529366"><ele>87.2</ele><time>2026-04-05T06:46:38.021Z</time></trkpt><trkpt lat="48.58590994587243" lon="-2.5146516176893896"><ele>87.60000000000001</ele><time>2026-04-05T06:46:40.022Z</time></trkpt><trkpt lat="48.585915648549964" lon="-2.5145084780743714"><ele>88.0</ele><time>2026-04-05T06:46:42.021Z</time></trkpt><trkpt lat="48.585906155064976" lon="-2.5143954864791547"><ele>88.16666666666666</ele><time>2026-04-05T06:46:43.025Z</time></trkpt><trkpt lat="48.585932128854914" lon="-2.5142800421074694"><ele>88.33333333333333</ele><time>2026-04-05T06:46:45.02Z</time></trkpt><trkpt lat="48.58593389339223" lon="-2.514147715880104"><ele>88.5</ele><time>2026-04-05T06:46:47.025Z</time></trkpt><trkpt lat="48.58593831414109" lon="-2.514023141276682"><ele>88.66666666666667</ele><time>2026-04-05T06:46:49.028Z</time></trkpt><trkpt lat="48.58594245129886" lon="-2.513897142062033"><ele>88.83333333333334</ele><time>2026-04-05T06:46:51.025Z</time></trkpt><trkpt lat="48.58594784531959" lon="-2.513770888612129"><ele>89.0</ele><time>2026-04-05T06:46:53.018Z</time></trkpt><trkpt lat="48.58596051788313" lon="-2.5136516723978026"><ele>89.5</ele><time>2026-04-05T06:46:55.024Z</time></trkpt><trkpt lat="48.58597661532824" lon="-2.5135386638339323"><ele>90.0</ele><time>2026-04-05T06:46:57.022Z</time></trkpt><trkpt lat="48.58598229312142" lon="-2.513414572709025"><ele>90.5</ele><time>2026-04-05T06:46:59.024Z</time></trkpt><trkpt lat="48.58599511387744" lon="-2.5133005684139684"><ele>91.0</ele><time>2026-04-05T06:47:01.02Z</time></trkpt><trkpt lat="48.58601548324877" lon="-2.5131862361627237"><ele>91.5</ele><time>2026-04-05T06:47:03.021Z</time></trkpt><trkpt lat="48.586036528131764" lon="-2.5130709696198115"><ele>92.0</ele><time>2026-04-05T06:47:05.024Z</time></trkpt><trkpt lat="48.58605426797746" lon="-2.5129509786465225"><ele>92.16666666666667</ele><time>2026-04-05T06:47:07.023Z</time></trkpt><trkpt lat="48.58607434364028" lon="-2.5128281921115607"><ele>92.33333333333334</ele><time>2026-04-05T06:47:09.023Z</time></trkpt><trkpt lat="48.58609268986903" lon="-2.5126976491401223"><ele>92.5</ele><time>2026-04-05T06:47:11.025Z</time></trkpt><trkpt lat="48.586122855118006" lon="-2.5125629042696236"><ele>92.66666666666667</ele><time>2026-04-05T06:47:13.025Z</time></trkpt><trkpt lat="48.58616347407389" lon="-2.5124365233527137"><ele>92.83333333333333</ele><time>2026-04-05T06:47:15.022Z</time></trkpt><trkpt lat="48.5862066138427" lon="-2.512321235712343"><ele>93.0</ele><time>2026-04-05T06:47:17.028Z</time></trkpt><trkpt lat="48.58624304350628" lon="-2.512217563026852"><ele>92.33333333333333</ele><time>2026-04-05T06:47:19.027Z</time></trkpt><trkpt lat="48.586277776430975" lon="-2.512109853381487"><ele>91.66666666666667</ele><time>2026-04-05T06:47:21.027Z</time></trkpt><trkpt lat="48.586312672161995" lon="-2.5119970422136273"><ele>91.0</ele><time>2026-04-05T06:47:23.026Z</time></trkpt><trkpt lat="48.58634848406001" lon="-2.5118771667105175"><ele>90.33333333333334</ele><time>2026-04-05T06:47:25.026Z</time></trkpt><trkpt lat="48.58638297774742" lon="-2.5117626287722823"><ele>89.66666666666667</ele><time>2026-04-05T06:47:27.026Z</time></trkpt><trkpt lat="48.58641583248388" lon="-2.5116483303461354"><ele>89.0</ele><time>2026-04-05T06:47:29.026Z</time></trkpt><trkpt lat="48.58644150137471" lon="-2.5115324793728666"><ele>89.0</ele><time>2026-04-05T06:47:31.028Z</time></trkpt><trkpt lat="48.58647047660026" lon="-2.5114219163984934"><ele>89.0</ele><time>2026-04-05T06:47:33.024Z</time></trkpt><trkpt lat="48.58650186767354" lon="-2.511291334729515"><ele>89.0</ele><time>2026-04-05T06:47:35.018Z</time></trkpt><trkpt lat="48.58654236175723" lon="-2.511153315641491"><ele>89.0</ele><time>2026-04-05T06:47:37.024Z</time></trkpt><trkpt lat="48.586583878990325" lon="-2.510993399447819"><ele>89.0</ele><time>2026-04-05T06:47:39.024Z</time></trkpt><trkpt lat="48.58660669741205" lon="-2.5108467968403816"><ele>89.0</ele><time>2026-04-05T06:47:41.022Z</time></trkpt><trkpt lat="48.58660857726861" lon="-2.5107146763244543"><ele>89.0</ele><time>2026-04-05T06:47:43.023Z</time></trkpt><trkpt lat="48.58659019130653" lon="-2.5105845750226066"><ele>89.0</ele><time>2026-04-05T06:47:45.026Z</time></trkpt><trkpt lat="48.58658865829858" lon="-2.510429569359714"><ele>89.0</ele><time>2026-04-05T06:47:47.026Z</time></trkpt><trkpt lat="48.58662062034573" lon="-2.5102822329965218"><ele>89.0</ele><time>2026-04-05T06:47:49.016Z</time></trkpt><trkpt lat="48.58665100209028" lon="-2.5101225283883832"><ele>89.0</ele><time>2026-04-05T06:47:50.997Z</time></trkpt><trkpt lat="48.586667796597595" lon="-2.509972002062667"><ele>89.0</ele><time>2026-04-05T06:47:52.997Z</time></trkpt><trkpt lat="48.586684624147715" lon="-2.5098314913669246"><ele>89.0</ele><time>2026-04-05T06:47:54.998Z</time></trkpt><trkpt lat="48.58669094288392" lon="-2.5097066535044585"><ele>89.0</ele><time>2026-04-05T06:47:56.998Z</time></trkpt><trkpt lat="48.586718944217644" lon="-2.509577360837272"><ele>89.0</ele><time>2026-04-05T06:47:59.998Z</time></trkpt><trkpt lat="48.58684689445122" lon="-2.5095921971605617"><ele>89.0</ele><time>2026-04-05T06:48:02.999Z</time></trkpt><trkpt lat="48.586919668058506" lon="-2.5096915396101074"><ele>89.0</ele><time>2026-04-05T06:48:04.999Z</time></trkpt><trkpt lat="48.58699184593535" lon="-2.509793063794131"><ele>89.0</ele><time>2026-04-05T06:48:06.999Z</time></trkpt><trkpt lat="48.58708121272371" lon="-2.509875386833208"><ele>89.0</ele><time>2026-04-05T06:48:08.999Z</time></trkpt><trkpt lat="48.58716834890643" lon="-2.5099477155477823"><ele>89.0</ele><time>2026-04-05T06:48:10.999Z</time></trkpt><trkpt lat="48.58726286699201" lon="-2.5100033484369657"><ele>88.5</ele><time>2026-04-05T06:48:12.999Z</time></trkpt><trkpt lat="48.587366889558666" lon="-2.5100773473342888"><ele>88.0</ele><time>2026-04-05T06:48:14.999Z</time></trkpt><trkpt lat="48.58748168728387" lon="-2.510114147445004"><ele>87.5</ele><time>2026-04-05T06:48:16.999Z</time></trkpt><trkpt lat="48.58759060481968" lon="-2.5101097409099893"><ele>87.0</ele><time>2026-04-05T06:48:18.999Z</time></trkpt><trkpt lat="48.58770790945307" lon="-2.5101065356246726"><ele>87.0</ele><time>2026-04-05T06:48:20.999Z</time></trkpt><trkpt lat="48.587823098189446" lon="-2.5100792176775246"><ele>87.0</ele><time>2026-04-05T06:48:23Z</time></trkpt><trkpt lat="48.58793822317827" lon="-2.51004008555416"><ele>87.0</ele><time>2026-04-05T06:48:25Z</time></trkpt><trkpt lat="48.58804397678393" lon="-2.509980442841623"><ele>87.0</ele><time>2026-04-05T06:48:27Z</time></trkpt><trkpt lat="48.588138016522464" lon="-2.509905813887887"><ele>86.8</ele><time>2026-04-05T06:48:29Z</time></trkpt><trkpt lat="48.588237511527616" lon="-2.5098324580167963"><ele>86.6</ele><time>2026-04-05T06:48:31Z</time></trkpt><trkpt lat="48.588288277445876" lon="-2.5097631392658832"><ele>86.39999999999999</ele><time>2026-04-05T06:48:32Z</time></trkpt><trkpt lat="48.58837964579662" lon="-2.5096436713755925"><ele>86.19999999999999</ele><time>2026-04-05T06:48:34Z</time></trkpt><trkpt lat="48.58848008402585" lon="-2.5095399121153603"><ele>86.0</ele><time>2026-04-05T06:48:36Z</time></trkpt><trkpt lat="48.58857172780417" lon="-2.509438243162927"><ele>86.6</ele><time>2026-04-05T06:48:38Z</time></trkpt><trkpt lat="48.588621910925674" lon="-2.5093791910060914"><ele>87.19999999999999</ele><time>2026-04-05T06:48:39Z</time></trkpt><trkpt lat="48.588702563893314" lon="-2.50926409665558"><ele>87.80000000000001</ele><time>2026-04-05T06:48:41Z</time></trkpt><trkpt lat="48.58877977704111" lon="-2.509148786609013"><ele>88.4</ele><time>2026-04-05T06:48:43Z</time></trkpt><trkpt lat="48.5888653529133" lon="-2.5090505914858094"><ele>89.0</ele><time>2026-04-05T06:48:45Z</time></trkpt><trkpt lat="48.588950641440405" lon="-2.5089588399554605"><ele>89.0</ele><time>2026-04-05T06:48:47Z</time></trkpt><trkpt lat="48.58904249837385" lon="-2.5088857153004605"><ele>89.0</ele><time>2026-04-05T06:48:49Z</time></trkpt><trkpt lat="48.589131061481496" lon="-2.5088371126572233"><ele>89.0</ele><time>2026-04-05T06:48:51Z</time></trkpt><trkpt lat="48.5892248173618" lon="-2.5088147880481086"><ele>89.0</ele><time>2026-04-05T06:48:53Z</time></trkpt><trkpt lat="48.58932470097922" lon="-2.508782055971596"><ele>89.0</ele><time>2026-04-05T06:48:55Z</time></trkpt><trkpt lat="48.58941579774616" lon="-2.5087584183624885"><ele>89.2</ele><time>2026-04-05T06:48:57Z</time></trkpt><trkpt lat="48.58951205232298" lon="-2.5087293847921965"><ele>89.4</ele><time>2026-04-05T06:48:59Z</time></trkpt><trkpt lat="48.58961595048522" lon="-2.5087210455904327"><ele>89.6</ele><time>2026-04-05T06:49:01Z</time></trkpt><trkpt lat="48.58973048383197" lon="-2.5087206726960547"><ele>89.8</ele><time>2026-04-05T06:49:03Z</time></trkpt><trkpt lat="48.58980900493636" lon="-2.5086937771708864"><ele>90.0</ele><time>2026-04-05T06:49:05Z</time></trkpt><trkpt lat="48.5898855560381" lon="-2.5087065808985605"><ele>90.0</ele><time>2026-04-05T06:49:06Z</time></trkpt><trkpt lat="48.58998660468365" lon="-2.5087004341208456"><ele>90.0</ele><time>2026-04-05T06:49:08Z</time></trkpt><trkpt lat="48.59009393971184" lon="-2.508698343616869"><ele>90.0</ele><time>2026-04-05T06:49:10Z</time></trkpt><trkpt lat="48.590202985796104" lon="-2.5086911347766603"><ele>90.0</ele><time>2026-04-05T06:49:12Z</time></trkpt><trkpt lat="48.59032517896178" lon="-2.508655915748812"><ele>90.0</ele><time>2026-04-05T06:49:14Z</time></trkpt><trkpt lat="48.590446829759685" lon="-2.5086234315708005"><ele>89.42857142857143</ele><time>2026-04-05T06:49:15.999Z</time></trkpt><trkpt lat="48.590509622692885" lon="-2.508596051698573"><ele>88.85714285714286</ele><time>2026-04-05T06:49:16.999Z</time></trkpt><trkpt lat="48.59057280543961" lon="-2.5085511918248757"><ele>88.28571428571429</ele><time>2026-04-05T06:49:17.999Z</time></trkpt><trkpt lat="48.590636266816354" lon="-2.508497946408349"><ele>87.71428571428572</ele><time>2026-04-05T06:49:18.999Z</time></trkpt><trkpt lat="48.59069920479887" lon="-2.508446813488795"><ele>87.14285714285714</ele><time>2026-04-05T06:49:19.999Z</time></trkpt><trkpt lat="48.59076620062884" lon="-2.508401089370544"><ele>86.57142857142858</ele><time>2026-04-05T06:49:20.999Z</time></trkpt><trkpt lat="48.59083316897354" lon="-2.5083601931670847"><ele>86.0</ele><time>2026-04-05T06:49:21.999Z</time></trkpt><trkpt lat="48.59090128062493" lon="-2.508314783335268"><ele>86.0</ele><time>2026-04-05T06:49:22.999Z</time></trkpt><trkpt lat="48.59095623708518" lon="-2.508261600193844"><ele>86.0</ele><time>2026-04-05T06:49:23.999Z</time></trkpt><trkpt lat="48.591020167312635" lon="-2.50822516095104"><ele>86.0</ele><time>2026-04-05T06:49:24.999Z</time></trkpt><trkpt lat="48.5910866942474" lon="-2.508190494109769"><ele>86.0</ele><time>2026-04-05T06:49:25.999Z</time></trkpt><trkpt lat="48.591152022082795" lon="-2.5081522193557904"><ele>86.0</ele><time>2026-04-05T06:49:26.999Z</time></trkpt><trkpt lat="48.59126159096919" lon="-2.508072346050038"><ele>86.0</ele><time>2026-04-05T06:49:28.999Z</time></trkpt><trkpt lat="48.591362541392556" lon="-2.5079880640704904"><ele>86.4</ele><time>2026-04-05T06:49:30.999Z</time></trkpt><trkpt lat="48.59145421184442" lon="-2.5078886663628257"><ele>86.8</ele><time>2026-04-05T06:49:32.999Z</time></trkpt><trkpt lat="48.591533368428884" lon="-2.507784848535669"><ele>87.2</ele><time>2026-04-05T06:49:34.999Z</time></trkpt><trkpt lat="48.59162321313134" lon="-2.507678536819357"><ele>87.60000000000001</ele><time>2026-04-05T06:49:36.999Z</time></trkpt><trkpt lat="48.59167989134827" lon="-2.5075482263631264"><ele>88.0</ele><time>2026-04-05T06:49:38.999Z</time></trkpt><trkpt lat="48.59175476903828" lon="-2.507420965722766"><ele>88.0</ele><time>2026-04-05T06:49:40.999Z</time></trkpt><trkpt lat="48.59182541685416" lon="-2.5072948738843386"><ele>88.0</ele><time>2026-04-05T06:49:42.999Z</time></trkpt><trkpt lat="48.59189940622164" lon="-2.507174496911649"><ele>88.0</ele><time>2026-04-05T06:49:44.999Z</time></trkpt><trkpt lat="48.59197597379568" lon="-2.5070599732793397"><ele>88.0</ele><time>2026-04-05T06:49:46.999Z</time></trkpt><trkpt lat="48.59206580858305" lon="-2.506936549565985"><ele>88.0</ele><time>2026-04-05T06:49:48.999Z</time></trkpt><trkpt lat="48.59216011258934" lon="-2.5068069546171197"><ele>87.85714285714286</ele><time>2026-04-05T06:49:50.999Z</time></trkpt><trkpt lat="48.592229077639935" lon="-2.506758928341646"><ele>87.71428571428571</ele><time>2026-04-05T06:49:51.999Z</time></trkpt><trkpt lat="48.59228303879256" lon="-2.5067060927725375"><ele>87.57142857142857</ele><time>2026-04-05T06:49:52.999Z</time></trkpt><trkpt lat="48.59234257304359" lon="-2.506657761880273"><ele>87.42857142857143</ele><time>2026-04-05T06:49:53.999Z</time></trkpt><trkpt lat="48.59241184052737" lon="-2.5066365262988377"><ele>87.28571428571429</ele><time>2026-04-05T06:49:54.999Z</time></trkpt><trkpt lat="48.592486860306" lon="-2.5066353901996"><ele>87.14285714285714</ele><time>2026-04-05T06:49:55.999Z</time></trkpt><trkpt lat="48.59256330046007" lon="-2.506635792141236"><ele>87.0</ele><time>2026-04-05T06:49:57Z</time></trkpt><trkpt lat="48.59263935927928" lon="-2.506634439036869"><ele>87.0</ele><time>2026-04-05T06:49:58Z</time></trkpt><trkpt lat="48.592719359715936" lon="-2.5066325804511163"><ele>87.0</ele><time>2026-04-05T06:49:59Z</time></trkpt><trkpt lat="48.59280143973858" lon="-2.5066267092797694"><ele>87.0</ele><time>2026-04-05T06:50:00Z</time></trkpt><trkpt lat="48.592872147795305" lon="-2.5066042573267957"><ele>87.0</ele><time>2026-04-05T06:50:01Z</time></trkpt><trkpt lat="48.59293563166391" lon="-2.506557816092612"><ele>87.0</ele><time>2026-04-05T06:50:02Z</time></trkpt><trkpt lat="48.59298901222511" lon="-2.5064955045408728"><ele>87.0</ele><time>2026-04-05T06:50:03Z</time></trkpt><trkpt lat="48.59304811573495" lon="-2.5063656688236864"><ele>86.19999999999999</ele><time>2026-04-05T06:50:05Z</time></trkpt><trkpt lat="48.59309244222016" lon="-2.506265098714426"><ele>85.4</ele><time>2026-04-05T06:50:07Z</time></trkpt><trkpt lat="48.593116571946865" lon="-2.506137148503884"><ele>84.6</ele><time>2026-04-05T06:50:09Z</time></trkpt><trkpt lat="48.59316064425934" lon="-2.5060240644639005"><ele>83.80000000000001</ele><time>2026-04-05T06:50:11Z</time></trkpt><trkpt lat="48.593203118395664" lon="-2.505879275170386"><ele>83.0</ele><time>2026-04-05T06:50:13Z</time></trkpt><trkpt lat="48.593252681007115" lon="-2.505724297540196"><ele>83.0</ele><time>2026-04-05T06:50:15Z</time></trkpt><trkpt lat="48.59330674371697" lon="-2.5055622825950428"><ele>83.0</ele><time>2026-04-05T06:50:17Z</time></trkpt><trkpt lat="48.59335568711734" lon="-2.5053884291745785"><ele>83.0</ele><time>2026-04-05T06:50:19Z</time></trkpt><trkpt lat="48.59338388147116" lon="-2.505299837489924"><ele>83.0</ele><time>2026-04-05T06:50:20Z</time></trkpt><trkpt lat="48.593440313741574" lon="-2.505127458958035"><ele>83.0</ele><time>2026-04-05T06:50:22Z</time></trkpt><trkpt lat="48.593461076565745" lon="-2.5050335117902818"><ele>83.14285714285714</ele><time>2026-04-05T06:50:23Z</time></trkpt><trkpt lat="48.593478721912646" lon="-2.504937331613356"><ele>83.28571428571429</ele><time>2026-04-05T06:50:24Z</time></trkpt><trkpt lat="48.59349349714672" lon="-2.504836258278913"><ele>83.42857142857143</ele><time>2026-04-05T06:50:25Z</time></trkpt><trkpt lat="48.59350129847732" lon="-2.504728599630786"><ele>83.57142857142857</ele><time>2026-04-05T06:50:26Z</time></trkpt><trkpt lat="48.593505127214755" lon="-2.5046201251323454"><ele>83.71428571428572</ele><time>2026-04-05T06:50:27Z</time></trkpt><trkpt lat="48.593502212459256" lon="-2.504515887274104"><ele>83.85714285714286</ele><time>2026-04-05T06:50:28Z</time></trkpt><trkpt lat="48.593494496693324" lon="-2.5044130849138893"><ele>84.0</ele><time>2026-04-05T06:50:29Z</time></trkpt><trkpt lat="48.59348719322251" lon="-2.504315664455288"><ele>84.0</ele><time>2026-04-05T06:50:30Z</time></trkpt><trkpt lat="48.59345959119759" lon="-2.504147655195241"><ele>84.0</ele><time>2026-04-05T06:50:32Z</time></trkpt><trkpt lat="48.593441078307166" lon="-2.5040522654384083"><ele>84.0</ele><time>2026-04-05T06:50:40Z</time></trkpt><trkpt lat="48.59342914905329" lon="-2.5039379305182337"><ele>84.0</ele><time>2026-04-05T06:50:44Z</time></trkpt><trkpt lat="48.59341281844737" lon="-2.5038173445730627"><ele>84.0</ele><time>2026-04-05T06:50:47Z</time></trkpt><trkpt lat="48.593403352094015" lon="-2.503681794892742"><ele>84.0</ele><time>2026-04-05T06:50:50Z</time></trkpt><trkpt lat="48.59341885281343" lon="-2.503545373913085"><ele>84.33333333333333</ele><time>2026-04-05T06:50:53Z</time></trkpt><trkpt lat="48.593450630224886" lon="-2.5034373533855576"><ele>84.66666666666667</ele><time>2026-04-05T06:50:56Z</time></trkpt><trkpt lat="48.59349222368591" lon="-2.503330655087116"><ele>85.0</ele><time>2026-04-05T06:50:59Z</time></trkpt><trkpt lat="48.5935256830172" lon="-2.5032216655027857"><ele>85.33333333333334</ele><time>2026-04-05T06:51:01Z</time></trkpt><trkpt lat="48.59357977125148" lon="-2.503103745597731"><ele>85.66666666666667</ele><time>2026-04-05T06:51:02.999Z</time></trkpt><trkpt lat="48.5936210549115" lon="-2.502965141604841"><ele>86.0</ele><time>2026-04-05T06:51:04.999Z</time></trkpt><trkpt lat="48.593665506847096" lon="-2.502888199512331"><ele>85.19999999999999</ele><time>2026-04-05T06:51:05.999Z</time></trkpt><trkpt lat="48.593740246067775" lon="-2.5027259659016057"><ele>84.39999999999999</ele><time>2026-04-05T06:51:06.999Z</time></trkpt><trkpt lat="48.59379534403621" lon="-2.5025947038816625"><ele>83.6</ele><time>2026-04-05T06:51:08.999Z</time></trkpt><trkpt lat="48.59384550092687" lon="-2.5024529575091203"><ele>82.8</ele><time>2026-04-05T06:51:10.999Z</time></trkpt><trkpt lat="48.59390290651176" lon="-2.5023346547101193"><ele>82.0</ele><time>2026-04-05T06:51:12.999Z</time></trkpt><trkpt lat="48.59396648995432" lon="-2.5022157064336237"><ele>82.0</ele><time>2026-04-05T06:51:14.999Z</time></trkpt><trkpt lat="48.59402552991709" lon="-2.5020871434089487"><ele>82.0</ele><time>2026-04-05T06:51:16.999Z</time></trkpt><trkpt lat="48.59407298644854" lon="-2.501959051194038"><ele>82.0</ele><time>2026-04-05T06:51:18.999Z</time></trkpt><trkpt lat="48.594126988023156" lon="-2.5019024966406964"><ele>82.0</ele><time>2026-04-05T06:51:19.999Z</time></trkpt><trkpt lat="48.59419748215312" lon="-2.5017684002155067"><ele>82.0</ele><time>2026-04-05T06:51:21.999Z</time></trkpt><trkpt lat="48.59426985122898" lon="-2.501629703842869"><ele>82.6</ele><time>2026-04-05T06:51:23.999Z</time></trkpt><trkpt lat="48.59434612111169" lon="-2.5014902370962946"><ele>83.19999999999999</ele><time>2026-04-05T06:51:25.999Z</time></trkpt><trkpt lat="48.59441625484795" lon="-2.5013689178661656"><ele>83.8</ele><time>2026-04-05T06:51:27.999Z</time></trkpt><trkpt lat="48.59436938798044" lon="-2.501274626191051"><ele>84.4</ele><time>2026-04-05T06:51:28.999Z</time></trkpt><trkpt lat="48.59437316737029" lon="-2.50117897883256"><ele>85.0</ele><time>2026-04-05T06:51:29.999Z</time></trkpt><trkpt lat="48.59439165088181" lon="-2.5010141770798517"><ele>85.2</ele><time>2026-04-05T06:51:31.999Z</time></trkpt><trkpt lat="48.59441992107191" lon="-2.500896087217114"><ele>85.4</ele><time>2026-04-05T06:51:33.999Z</time></trkpt><trkpt lat="48.594481003853375" lon="-2.500780902732394"><ele>85.6</ele><time>2026-04-05T06:51:35.999Z</time></trkpt><trkpt lat="48.59455041663653" lon="-2.500659228169473"><ele>85.8</ele><time>2026-04-05T06:51:37.999Z</time></trkpt><trkpt lat="48.5946414804283" lon="-2.500550800149938"><ele>86.0</ele><time>2026-04-05T06:51:39.999Z</time></trkpt><trkpt lat="48.5947466261661" lon="-2.5004499964394435"><ele>85.5</ele><time>2026-04-05T06:51:41.999Z</time></trkpt><trkpt lat="48.59485338752352" lon="-2.5003629862754404"><ele>85.0</ele><time>2026-04-05T06:51:43.999Z</time></trkpt><trkpt lat="48.59490898985326" lon="-2.500316436936885"><ele>84.5</ele><time>2026-04-05T06:51:44.999Z</time></trkpt><trkpt lat="48.59502474776203" lon="-2.500240404861266"><ele>84.0</ele><time>2026-04-05T06:51:46.999Z</time></trkpt><trkpt lat="48.595090749285156" lon="-2.500211523563505"><ele>83.5</ele><time>2026-04-05T06:51:47.999Z</time></trkpt><trkpt lat="48.595150742726304" lon="-2.5001716921962642"><ele>83.0</ele><time>2026-04-05T06:51:48.999Z</time></trkpt><trkpt lat="48.59520985270011" lon="-2.500128834915606"><ele>82.0</ele><time>2026-04-05T06:51:49.999Z</time></trkpt><trkpt lat="48.59533781973828" lon="-2.500034604103098"><ele>81.0</ele><time>2026-04-05T06:51:51.999Z</time></trkpt><trkpt lat="48.59544614382516" lon="-2.499965242050095"><ele>80.0</ele><time>2026-04-05T06:51:53.999Z</time></trkpt><trkpt lat="48.59550875870381" lon="-2.4999197442997962"><ele>79.0</ele><time>2026-04-05T06:51:54.999Z</time></trkpt><trkpt lat="48.595564137567415" lon="-2.499872281872315"><ele>78.0</ele><time>2026-04-05T06:51:55.999Z</time></trkpt><trkpt lat="48.595618711267264" lon="-2.4998143382652818"><ele>78.0</ele><time>2026-04-05T06:51:56.999Z</time></trkpt><trkpt lat="48.59567548047002" lon="-2.4997649866766345"><ele>78.0</ele><time>2026-04-05T06:51:57.999Z</time></trkpt><trkpt lat="48.595734287504094" lon="-2.4997168970527857"><ele>78.0</ele><time>2026-04-05T06:51:58.999Z</time></trkpt><trkpt lat="48.595789290900946" lon="-2.4996597841453"><ele>78.0</ele><time>2026-04-05T06:51:59.999Z</time></trkpt><trkpt lat="48.595844135782905" lon="-2.499599560101257"><ele>78.0</ele><time>2026-04-05T06:52:00.999Z</time></trkpt><trkpt lat="48.59590203000776" lon="-2.4995384636607465"><ele>78.0</ele><time>2026-04-05T06:52:01.999Z</time></trkpt><trkpt lat="48.595957333956875" lon="-2.4994735925741938"><ele>78.0</ele><time>2026-04-05T06:52:03Z</time></trkpt><trkpt lat="48.59601424944731" lon="-2.49940412858827"><ele>77.83333333333333</ele><time>2026-04-05T06:52:04Z</time></trkpt><trkpt lat="48.59607155433824" lon="-2.4993315818207242"><ele>77.66666666666667</ele><time>2026-04-05T06:52:05Z</time></trkpt><trkpt lat="48.59612790045477" lon="-2.499262249576636"><ele>77.5</ele><time>2026-04-05T06:52:06Z</time></trkpt><trkpt lat="48.5962029581576" lon="-2.4992009006780562"><ele>77.33333333333334</ele><time>2026-04-05T06:52:07Z</time></trkpt><trkpt lat="48.596242106771015" lon="-2.4991181750717724"><ele>77.16666666666667</ele><time>2026-04-05T06:52:08Z</time></trkpt><trkpt lat="48.596295857873685" lon="-2.499031096841121"><ele>77.0</ele><time>2026-04-05T06:52:09Z</time></trkpt><trkpt lat="48.5963527423659" lon="-2.4989673178836593"><ele>77.0</ele><time>2026-04-05T06:52:10Z</time></trkpt><trkpt lat="48.59638775867616" lon="-2.4988792814815497"><ele>77.0</ele><time>2026-04-05T06:52:11Z</time></trkpt><trkpt lat="48.59644776188603" lon="-2.498808276701203"><ele>77.0</ele><time>2026-04-05T06:52:12Z</time></trkpt><trkpt lat="48.596493563629835" lon="-2.4987214290381723"><ele>77.0</ele><time>2026-04-05T06:52:13Z</time></trkpt><trkpt lat="48.596535090431374" lon="-2.4986293932949826"><ele>77.0</ele><time>2026-04-05T06:52:14Z</time></trkpt><trkpt lat="48.596577603075886" lon="-2.498544518533863"><ele>77.0</ele><time>2026-04-05T06:52:15Z</time></trkpt><trkpt lat="48.59661850766455" lon="-2.498467097381182"><ele>77.0</ele><time>2026-04-05T06:52:16Z</time></trkpt><trkpt lat="48.59666510731238" lon="-2.498388274805026"><ele>76.66666666666667</ele><time>2026-04-05T06:52:17Z</time></trkpt><trkpt lat="48.596713342867325" lon="-2.4983047199575386"><ele>76.33333333333334</ele><time>2026-04-05T06:52:18Z</time></trkpt><trkpt lat="48.596761415181014" lon="-2.498216397938283"><ele>76.0</ele><time>2026-04-05T06:52:19Z</time></trkpt><trkpt lat="48.59680787184725" lon="-2.498124551780731"><ele>75.66666666666667</ele><time>2026-04-05T06:52:20Z</time></trkpt><trkpt lat="48.596857361657115" lon="-2.4979956715321476"><ele>75.33333333333333</ele><time>2026-04-05T06:52:21Z</time></trkpt><trkpt lat="48.5969026838465" lon="-2.4979102216879587"><ele>75.0</ele><time>2026-04-05T06:52:22Z</time></trkpt><trkpt lat="48.59694827119018" lon="-2.497823715859487"><ele>74.83333333333333</ele><time>2026-04-05T06:52:23Z</time></trkpt><trkpt lat="48.59699583502352" lon="-2.4977332128186363"><ele>74.66666666666667</ele><time>2026-04-05T06:52:24Z</time></trkpt><trkpt lat="48.59704501518748" lon="-2.4976396343179124"><ele>74.5</ele><time>2026-04-05T06:52:25Z</time></trkpt><trkpt lat="48.59709290115024" lon="-2.497548518181655"><ele>74.33333333333334</ele><time>2026-04-05T06:52:26Z</time></trkpt><trkpt lat="48.597142088391074" lon="-2.497454261239701"><ele>74.16666666666667</ele><time>2026-04-05T06:52:27Z</time></trkpt><trkpt lat="48.59720059205277" lon="-2.497379921343703"><ele>74.0</ele><time>2026-04-05T06:52:28Z</time></trkpt><trkpt lat="48.59723419416491" lon="-2.497274292698533"><ele>73.42857142857143</ele><time>2026-04-05T06:52:29Z</time></trkpt><trkpt lat="48.59728101606358" lon="-2.497182805958584"><ele>72.85714285714286</ele><time>2026-04-05T06:52:30Z</time></trkpt><trkpt lat="48.59733753483964" lon="-2.497106312482796"><ele>72.28571428571428</ele><time>2026-04-05T06:52:31Z</time></trkpt><trkpt lat="48.597383594195826" lon="-2.4970184265735877"><ele>71.71428571428572</ele><time>2026-04-05T06:52:32Z</time></trkpt><trkpt lat="48.597428615649406" lon="-2.4969288921241186"><ele>71.14285714285714</ele><time>2026-04-05T06:52:33Z</time></trkpt><trkpt lat="48.59746976060602" lon="-2.496841133057492"><ele>70.57142857142857</ele><time>2026-04-05T06:52:34Z</time></trkpt><trkpt lat="48.59751273319665" lon="-2.4967471111527257"><ele>70.0</ele><time>2026-04-05T06:52:35Z</time></trkpt><trkpt lat="48.59755484894466" lon="-2.49666298245487"><ele>70.0</ele><time>2026-04-05T06:52:36Z</time></trkpt><trkpt lat="48.59759915153836" lon="-2.4965742218250035"><ele>70.0</ele><time>2026-04-05T06:52:37Z</time></trkpt><trkpt lat="48.59764470296706" lon="-2.4964884546768022"><ele>70.0</ele><time>2026-04-05T06:52:38Z</time></trkpt><trkpt lat="48.5976869603917" lon="-2.4964073018905584"><ele>70.0</ele><time>2026-04-05T06:52:39Z</time></trkpt><trkpt lat="48.597724868193076" lon="-2.4963270432236637"><ele>70.0</ele><time>2026-04-05T06:52:40Z</time></trkpt><trkpt lat="48.597766544834926" lon="-2.496249705300562"><ele>70.0</ele><time>2026-04-05T06:52:41Z</time></trkpt><trkpt lat="48.59780497580186" lon="-2.496169937449659"><ele>70.0</ele><time>2026-04-05T06:52:42Z</time></trkpt><trkpt lat="48.597846626136416" lon="-2.4960904950007805"><ele>70.0</ele><time>2026-04-05T06:52:43Z</time></trkpt><trkpt lat="48.59788712080358" lon="-2.4960110705894913"><ele>70.0</ele><time>2026-04-05T06:52:44Z</time></trkpt><trkpt lat="48.5979296626141" lon="-2.4959294471307767"><ele>70.0</ele><time>2026-04-05T06:52:45Z</time></trkpt><trkpt lat="48.59796936650933" lon="-2.4958551720009807"><ele>70.0</ele><time>2026-04-05T06:52:46Z</time></trkpt><trkpt lat="48.59801058183109" lon="-2.4957825279720147"><ele>70.0</ele><time>2026-04-05T06:52:47Z</time></trkpt><trkpt lat="48.598085260782845" lon="-2.4956334872525443"><ele>70.0</ele><time>2026-04-05T06:52:49Z</time></trkpt><trkpt lat="48.59815576959297" lon="-2.4954787842155937"><ele>70.25</ele><time>2026-04-05T06:52:51Z</time></trkpt><trkpt lat="48.59822022099612" lon="-2.4953293507833254"><ele>70.5</ele><time>2026-04-05T06:52:53Z</time></trkpt><trkpt lat="48.59827216368311" lon="-2.4951774476966153"><ele>70.75</ele><time>2026-04-05T06:52:55Z</time></trkpt><trkpt lat="48.59831065966237" lon="-2.49500818928016"><ele>71.0</ele><time>2026-04-05T06:52:57Z</time></trkpt><trkpt lat="48.59833707213069" lon="-2.494830933904402"><ele>71.0</ele><time>2026-04-05T06:52:59Z</time></trkpt><trkpt lat="48.59834858085275" lon="-2.4947372988672694"><ele>71.0</ele><time>2026-04-05T06:53:00Z</time></trkpt><trkpt lat="48.59837346977938" lon="-2.494555315499618"><ele>71.0</ele><time>2026-04-05T06:53:02Z</time></trkpt><trkpt lat="48.59840975867338" lon="-2.494377349588022"><ele>71.0</ele><time>2026-04-05T06:53:04Z</time></trkpt><trkpt lat="48.598459456822354" lon="-2.494200060712533"><ele>71.0</ele><time>2026-04-05T06:53:06Z</time></trkpt><trkpt lat="48.59848977096241" lon="-2.4941117060984768"><ele>71.14285714285714</ele><time>2026-04-05T06:53:07Z</time></trkpt><trkpt lat="48.598525992557136" lon="-2.494026750735192"><ele>71.28571428571428</ele><time>2026-04-05T06:53:08Z</time></trkpt><trkpt lat="48.598564681869696" lon="-2.4939436760782985"><ele>71.42857142857143</ele><time>2026-04-05T06:53:09Z</time></trkpt><trkpt lat="48.59860472595519" lon="-2.4938626123977636"><ele>71.57142857142857</ele><time>2026-04-05T06:53:10Z</time></trkpt><trkpt lat="48.598644946176016" lon="-2.4937781286634535"><ele>71.71428571428572</ele><time>2026-04-05T06:53:11Z</time></trkpt><trkpt lat="48.5986881020037" lon="-2.4936895300228334"><ele>71.85714285714286</ele><time>2026-04-05T06:53:12Z</time></trkpt><trkpt lat="48.598731226094465" lon="-2.493608509364756"><ele>72.0</ele><time>2026-04-05T06:53:13Z</time></trkpt><trkpt lat="48.598774950725364" lon="-2.493525858480216"><ele>71.28571428571429</ele><time>2026-04-05T06:53:14Z</time></trkpt><trkpt lat="48.59881683033187" lon="-2.4934476979028832"><ele>70.57142857142857</ele><time>2026-04-05T06:53:15Z</time></trkpt><trkpt lat="48.598866523467365" lon="-2.4933716825355634"><ele>69.85714285714286</ele><time>2026-04-05T06:53:16Z</time></trkpt><trkpt lat="48.59891990677619" lon="-2.4932979693194772"><ele>69.14285714285714</ele><time>2026-04-05T06:53:17Z</time></trkpt><trkpt lat="48.59897275397815" lon="-2.4932247589300416"><ele>68.42857142857143</ele><time>2026-04-05T06:53:18Z</time></trkpt><trkpt lat="48.59902620455534" lon="-2.4931544605023923"><ele>67.71428571428572</ele><time>2026-04-05T06:53:18.999Z</time></trkpt><trkpt lat="48.599083866552824" lon="-2.4930878389587408"><ele>67.0</ele><time>2026-04-05T06:53:19.999Z</time></trkpt><trkpt lat="48.59914291983807" lon="-2.4930200770077904"><ele>67.0</ele><time>2026-04-05T06:53:20.999Z</time></trkpt><trkpt lat="48.599196918010335" lon="-2.492946078565528"><ele>67.0</ele><time>2026-04-05T06:53:21.999Z</time></trkpt><trkpt lat="48.59924936496914" lon="-2.492868735903651"><ele>67.0</ele><time>2026-04-05T06:53:22.999Z</time></trkpt><trkpt lat="48.59930291940733" lon="-2.492789504116649"><ele>67.0</ele><time>2026-04-05T06:53:23.999Z</time></trkpt><trkpt lat="48.5993542781398" lon="-2.4927077254156993"><ele>67.0</ele><time>2026-04-05T06:53:24.999Z</time></trkpt><trkpt lat="48.59940439913761" lon="-2.4926190280656537"><ele>67.0</ele><time>2026-04-05T06:53:25.999Z</time></trkpt><trkpt lat="48.59945037481683" lon="-2.492530518310757"><ele>67.0</ele><time>2026-04-05T06:53:26.999Z</time></trkpt><trkpt lat="48.599495202683975" lon="-2.492438541180467"><ele>66.5</ele><time>2026-04-05T06:53:27.999Z</time></trkpt><trkpt lat="48.59953856075595" lon="-2.492344461197756"><ele>66.0</ele><time>2026-04-05T06:53:28.999Z</time></trkpt><trkpt lat="48.599582314265554" lon="-2.492252476540288"><ele>65.5</ele><time>2026-04-05T06:53:29.999Z</time></trkpt><trkpt lat="48.59962017607337" lon="-2.4921678487264005"><ele>65.0</ele><time>2026-04-05T06:53:30.999Z</time></trkpt><trkpt lat="48.59965925010131" lon="-2.4920817003328453"><ele>64.5</ele><time>2026-04-05T06:53:31.999Z</time></trkpt><trkpt lat="48.59972202519173" lon="-2.4919488586005643"><ele>64.0</ele><time>2026-04-05T06:53:33.999Z</time></trkpt><trkpt lat="48.59975255663985" lon="-2.491858346308217"><ele>63.99999999999999</ele><time>2026-04-05T06:53:35.999Z</time></trkpt><trkpt lat="48.59979412187696" lon="-2.4917442794660327"><ele>64.0</ele><time>2026-04-05T06:54:12Z</time></trkpt><trkpt lat="48.599868781641014" lon="-2.4916893879463142"><ele>64.0</ele><time>2026-04-05T06:54:14Z</time></trkpt><trkpt lat="48.59995160057894" lon="-2.491617649740939"><ele>64.0</ele><time>2026-04-05T06:54:16Z</time></trkpt><trkpt lat="48.6000411590191" lon="-2.49151588786989"><ele>63.99999999999999</ele><time>2026-04-05T06:54:18Z</time></trkpt><trkpt lat="48.600088706390686" lon="-2.491450620435386"><ele>64.0</ele><time>2026-04-05T06:54:19Z</time></trkpt><trkpt lat="48.60013462301171" lon="-2.4913732111965334"><ele>64.0</ele><time>2026-04-05T06:54:20Z</time></trkpt><trkpt lat="48.60018464432071" lon="-2.4912993876387755"><ele>63.99999999999999</ele><time>2026-04-05T06:54:21Z</time></trkpt><trkpt lat="48.600238304829176" lon="-2.4912308358616255"><ele>64.0</ele><time>2026-04-05T06:54:22Z</time></trkpt><trkpt lat="48.600292052926726" lon="-2.49115820695439"><ele>64.0</ele><time>2026-04-05T06:54:23Z</time></trkpt><trkpt lat="48.600342422461445" lon="-2.4910806161862453"><ele>63.99999999999999</ele><time>2026-04-05T06:54:24Z</time></trkpt><trkpt lat="48.600391055563435" lon="-2.4909968136665124"><ele>64.0</ele><time>2026-04-05T06:54:25Z</time></trkpt><trkpt lat="48.600439748591654" lon="-2.4909115142948655"><ele>64.0</ele><time>2026-04-05T06:54:26Z</time></trkpt><trkpt lat="48.60048921481682" lon="-2.490828185101684"><ele>63.42857142857142</ele><time>2026-04-05T06:54:27Z</time></trkpt><trkpt lat="48.600537192660006" lon="-2.4907480061763447"><ele>62.85714285714285</ele><time>2026-04-05T06:54:28Z</time></trkpt><trkpt lat="48.60058834947524" lon="-2.4906656273000713"><ele>62.285714285714285</ele><time>2026-04-05T06:54:29Z</time></trkpt><trkpt lat="48.60063785822162" lon="-2.49058199119245"><ele>61.71428571428571</ele><time>2026-04-05T06:54:30Z</time></trkpt><trkpt lat="48.600688806615736" lon="-2.4904997625719583"><ele>61.14285714285714</ele><time>2026-04-05T06:54:31Z</time></trkpt><trkpt lat="48.60073780753823" lon="-2.490413179179764"><ele>60.57142857142857</ele><time>2026-04-05T06:54:32Z</time></trkpt><trkpt lat="48.600783374804806" lon="-2.490326201309932"><ele>60.0</ele><time>2026-04-05T06:54:33Z</time></trkpt><trkpt lat="48.600827683764734" lon="-2.490239104340679"><ele>60.0</ele><time>2026-04-05T06:54:34Z</time></trkpt><trkpt lat="48.60087047465422" lon="-2.490154476962727"><ele>60.0</ele><time>2026-04-05T06:54:35Z</time></trkpt><trkpt lat="48.600908817156906" lon="-2.490063174942379"><ele>60.0</ele><time>2026-04-05T06:54:36Z</time></trkpt><trkpt lat="48.600944193600675" lon="-2.4899753770948796"><ele>60.0</ele><time>2026-04-05T06:54:37Z</time></trkpt><trkpt lat="48.60098162128308" lon="-2.489878172434823"><ele>60.0</ele><time>2026-04-05T06:54:38Z</time></trkpt><trkpt lat="48.60101562807035" lon="-2.4897834340883707"><ele>60.0</ele><time>2026-04-05T06:54:39Z</time></trkpt><trkpt lat="48.60104776477242" lon="-2.48968752754721"><ele>60.0</ele><time>2026-04-05T06:54:40Z</time></trkpt><trkpt lat="48.60107950456709" lon="-2.4895883907151855"><ele>60.42857142857143</ele><time>2026-04-05T06:54:41Z</time></trkpt><trkpt lat="48.60111374613093" lon="-2.489495764554041"><ele>60.857142857142854</ele><time>2026-04-05T06:54:42Z</time></trkpt><trkpt lat="48.6011460727456" lon="-2.489397716263527"><ele>61.285714285714285</ele><time>2026-04-05T06:54:43Z</time></trkpt><trkpt lat="48.60117728333604" lon="-2.4893033836872864"><ele>61.714285714285715</ele><time>2026-04-05T06:54:44Z</time></trkpt><trkpt lat="48.601210421503616" lon="-2.4892055491880885"><ele>62.14285714285714</ele><time>2026-04-05T06:54:45Z</time></trkpt><trkpt lat="48.601246675327104" lon="-2.489110986278083"><ele>62.57142857142857</ele><time>2026-04-05T06:54:46Z</time></trkpt><trkpt lat="48.60127390117154" lon="-2.489013407572028"><ele>63.0</ele><time>2026-04-05T06:54:47Z</time></trkpt><trkpt lat="48.60129754291432" lon="-2.488915652911961"><ele>62.2</ele><time>2026-04-05T06:54:48Z</time></trkpt><trkpt lat="48.601322600447936" lon="-2.488818896440672"><ele>61.4</ele><time>2026-04-05T06:54:49Z</time></trkpt><trkpt lat="48.60134418481655" lon="-2.488725599895391"><ele>60.60000000000001</ele><time>2026-04-05T06:54:50Z</time></trkpt><trkpt lat="48.60136340933586" lon="-2.4886299705738217"><ele>59.800000000000004</ele><time>2026-04-05T06:54:51Z</time></trkpt><trkpt lat="48.60141534270883" lon="-2.4884613073100144"><ele>59.0</ele><time>2026-04-05T06:54:53Z</time></trkpt><trkpt lat="48.601480989208355" lon="-2.4882944268199494"><ele>59.00000000000001</ele><time>2026-04-05T06:54:55Z</time></trkpt><trkpt lat="48.60153662269932" lon="-2.4881209489824325"><ele>59.0</ele><time>2026-04-05T06:54:57Z</time></trkpt><trkpt lat="48.60156894549049" lon="-2.4880339409301797"><ele>59.0</ele><time>2026-04-05T06:54:58Z</time></trkpt><trkpt lat="48.601601858861216" lon="-2.487948655647975"><ele>59.0</ele><time>2026-04-05T06:54:59Z</time></trkpt><trkpt lat="48.601638778012926" lon="-2.4878602610528255"><ele>59.00000000000001</ele><time>2026-04-05T06:55:00Z</time></trkpt><trkpt lat="48.601674010128036" lon="-2.4877698275176607"><ele>59.0</ele><time>2026-04-05T06:55:01Z</time></trkpt><trkpt lat="48.60170696813264" lon="-2.487679661510493"><ele>59.14285714285714</ele><time>2026-04-05T06:55:02Z</time></trkpt><trkpt lat="48.60174240895526" lon="-2.4875897063813897"><ele>59.28571428571429</ele><time>2026-04-05T06:55:03Z</time></trkpt><trkpt lat="48.601780479156574" lon="-2.4875043922542264"><ele>59.42857142857143</ele><time>2026-04-05T06:55:04Z</time></trkpt><trkpt lat="48.60182166546612" lon="-2.487423533009639"><ele>59.57142857142857</ele><time>2026-04-05T06:55:05Z</time></trkpt><trkpt lat="48.60186229651013" lon="-2.48733827928036"><ele>59.71428571428571</ele><time>2026-04-05T06:55:06Z</time></trkpt><trkpt lat="48.60189165593942" lon="-2.4872427950108817"><ele>59.85714285714286</ele><time>2026-04-05T06:55:07Z</time></trkpt><trkpt lat="48.60193796026768" lon="-2.4871676789661654"><ele>60.0</ele><time>2026-04-05T06:55:08Z</time></trkpt><trkpt lat="48.601976177868096" lon="-2.487082509432276"><ele>60.0</ele><time>2026-04-05T06:55:09Z</time></trkpt><trkpt lat="48.60201611214976" lon="-2.486996004676458"><ele>60.0</ele><time>2026-04-05T06:55:10Z</time></trkpt><trkpt lat="48.60205401467268" lon="-2.4869133861657113"><ele>60.0</ele><time>2026-04-05T06:55:11Z</time></trkpt><trkpt lat="48.60209212886614" lon="-2.4868298244896523"><ele>60.0</ele><time>2026-04-05T06:55:12Z</time></trkpt><trkpt lat="48.60213009313214" lon="-2.486746962867494"><ele>60.0</ele><time>2026-04-05T06:55:13Z</time></trkpt><trkpt lat="48.60216940565188" lon="-2.486666613181675"><ele>60.0</ele><time>2026-04-05T06:55:14Z</time></trkpt><trkpt lat="48.602246587363595" lon="-2.4865082631816824"><ele>60.0</ele><time>2026-04-05T06:55:16Z</time></trkpt><trkpt lat="48.60228809269828" lon="-2.48643226878613"><ele>60.0</ele><time>2026-04-05T06:55:17Z</time></trkpt><trkpt lat="48.60232677129916" lon="-2.4863536925111323"><ele>60.0</ele><time>2026-04-05T06:55:18Z</time></trkpt><trkpt lat="48.602364740007104" lon="-2.4862765745740365"><ele>60.0</ele><time>2026-04-05T06:55:19Z</time></trkpt><trkpt lat="48.60240253514848" lon="-2.486199672459545"><ele>60.0</ele><time>2026-04-05T06:55:19.999Z</time></trkpt><trkpt lat="48.60247517547089" lon="-2.4860447747768366"><ele>60.0</ele><time>2026-04-05T06:55:21.999Z</time></trkpt><trkpt lat="48.60254568779801" lon="-2.4858905436651884"><ele>59.75</ele><time>2026-04-05T06:55:23.999Z</time></trkpt><trkpt lat="48.602618728450146" lon="-2.485745246689167"><ele>59.5</ele><time>2026-04-05T06:55:25.999Z</time></trkpt><trkpt lat="48.60267708614681" lon="-2.485592884435835"><ele>59.25</ele><time>2026-04-05T06:55:27.999Z</time></trkpt><trkpt lat="48.60274262795805" lon="-2.4854476694543357"><ele>59.0</ele><time>2026-04-05T06:55:29.999Z</time></trkpt><trkpt lat="48.60280984010012" lon="-2.4853014086124463"><ele>59.5</ele><time>2026-04-05T06:55:31.999Z</time></trkpt><trkpt lat="48.60287720302127" lon="-2.485159922587226"><ele>60.0</ele><time>2026-04-05T06:55:33.999Z</time></trkpt><trkpt lat="48.60295076402572" lon="-2.4850230828893913"><ele>60.5</ele><time>2026-04-05T06:55:35.999Z</time></trkpt><trkpt lat="48.60302347212399" lon="-2.484884897954316"><ele>61.0</ele><time>2026-04-05T06:55:37.999Z</time></trkpt><trkpt lat="48.60309881938065" lon="-2.4847526177753285"><ele>61.0</ele><time>2026-04-05T06:55:39.999Z</time></trkpt><trkpt lat="48.60317402142236" lon="-2.484624879764104"><ele>61.0</ele><time>2026-04-05T06:55:41.999Z</time></trkpt><trkpt lat="48.603250760626246" lon="-2.484492800519384"><ele>61.0</ele><time>2026-04-05T06:55:43.999Z</time></trkpt><trkpt lat="48.60332774912031" lon="-2.484367591361928"><ele>61.0</ele><time>2026-04-05T06:55:45.999Z</time></trkpt><trkpt lat="48.6034108698739" lon="-2.4842326309284424"><ele>61.0</ele><time>2026-04-05T06:55:47.999Z</time></trkpt><trkpt lat="48.603486197062466" lon="-2.484101873518123"><ele>61.0</ele><time>2026-04-05T06:55:49.999Z</time></trkpt><trkpt lat="48.603560371050975" lon="-2.483962843665477"><ele>61.0</ele><time>2026-04-05T06:55:51.999Z</time></trkpt><trkpt lat="48.60363600829528" lon="-2.483825746278667"><ele>61.0</ele><time>2026-04-05T06:55:53.999Z</time></trkpt><trkpt lat="48.603710191110544" lon="-2.4836689662512486"><ele>60.99999999999999</ele><time>2026-04-05T06:55:55.999Z</time></trkpt><trkpt lat="48.603751047681214" lon="-2.483594316042079"><ele>61.0</ele><time>2026-04-05T06:55:56.999Z</time></trkpt><trkpt lat="48.60383210767537" lon="-2.483440349793233"><ele>61.0</ele><time>2026-04-05T06:55:58.999Z</time></trkpt><trkpt lat="48.603876309651966" lon="-2.4833573165067526"><ele>61.0</ele><time>2026-04-05T06:55:59.999Z</time></trkpt><trkpt lat="48.603917450074725" lon="-2.4832793455464035"><ele>60.99999999999999</ele><time>2026-04-05T06:56:00.999Z</time></trkpt><trkpt lat="48.60396151922483" lon="-2.4831992156448455"><ele>61.0</ele><time>2026-04-05T06:56:01.999Z</time></trkpt><trkpt lat="48.604006741078" lon="-2.4831174556077964"><ele>60.99999999999999</ele><time>2026-04-05T06:56:02.999Z</time></trkpt><trkpt lat="48.604051387599675" lon="-2.4830335606777614"><ele>61.0</ele><time>2026-04-05T06:56:03.999Z</time></trkpt><trkpt lat="48.60409017776288" lon="-2.482948502970554"><ele>60.99999999999999</ele><time>2026-04-05T06:56:04.999Z</time></trkpt><trkpt lat="48.60413194582912" lon="-2.4828602519503704"><ele>60.99999999999999</ele><time>2026-04-05T06:56:05.999Z</time></trkpt><trkpt lat="48.60417178803068" lon="-2.4827699654806743"><ele>61.0</ele><time>2026-04-05T06:56:06.999Z</time></trkpt><trkpt lat="48.60421285121724" lon="-2.482687121318894"><ele>60.99999999999999</ele><time>2026-04-05T06:56:07.999Z</time></trkpt><trkpt lat="48.60425694740752" lon="-2.482607600877981"><ele>60.99999999999999</ele><time>2026-04-05T06:56:08.999Z</time></trkpt><trkpt lat="48.604299041056954" lon="-2.482524363801441"><ele>60.99999999999999</ele><time>2026-04-05T06:56:09.999Z</time></trkpt><trkpt lat="48.60434303750708" lon="-2.4824402297863157"><ele>61.0</ele><time>2026-04-05T06:56:10.999Z</time></trkpt><trkpt lat="48.60438878511802" lon="-2.482347805268611"><ele>60.99999999999999</ele><time>2026-04-05T06:56:11.999Z</time></trkpt><trkpt lat="48.604432080769804" lon="-2.482265831003557"><ele>60.99999999999999</ele><time>2026-04-05T06:56:12.999Z</time></trkpt><trkpt lat="48.60448064049483" lon="-2.4821735479209353"><ele>61.0</ele><time>2026-04-05T06:56:13.999Z</time></trkpt><trkpt lat="48.604527924254675" lon="-2.4820842094109796"><ele>60.99999999999999</ele><time>2026-04-05T06:56:15Z</time></trkpt><trkpt lat="48.60457082291976" lon="-2.4819978109692693"><ele>60.99999999999999</ele><time>2026-04-05T06:56:16Z</time></trkpt><trkpt lat="48.604622021974144" lon="-2.481914465946974"><ele>60.666666666666664</ele><time>2026-04-05T06:56:17Z</time></trkpt><trkpt lat="48.60467150093517" lon="-2.4818281083647142"><ele>60.33333333333333</ele><time>2026-04-05T06:56:18Z</time></trkpt><trkpt lat="48.60471686235016" lon="-2.48173617336545"><ele>60.0</ele><time>2026-04-05T06:56:19Z</time></trkpt><trkpt lat="48.60476288524789" lon="-2.481648059121041"><ele>59.66666666666667</ele><time>2026-04-05T06:56:20Z</time></trkpt><trkpt lat="48.60481399430367" lon="-2.481566836671558"><ele>59.333333333333336</ele><time>2026-04-05T06:56:21Z</time></trkpt><trkpt lat="48.6048700876414" lon="-2.4814866950100973"><ele>59.0</ele><time>2026-04-05T06:56:22Z</time></trkpt><trkpt lat="48.604925873212615" lon="-2.4814092191167574"><ele>59.00000000000001</ele><time>2026-04-05T06:56:23Z</time></trkpt><trkpt lat="48.60498232314155" lon="-2.481331199396535"><ele>59.0</ele><time>2026-04-05T06:56:24Z</time></trkpt><trkpt lat="48.6050402175848" lon="-2.4812539111804623"><ele>59.0</ele><time>2026-04-05T06:56:25Z</time></trkpt><trkpt lat="48.60509750607574" lon="-2.4811764550789244"><ele>59.0</ele><time>2026-04-05T06:56:26Z</time></trkpt><trkpt lat="48.605154717324666" lon="-2.4810966022967706"><ele>59.00000000000001</ele><time>2026-04-05T06:56:27Z</time></trkpt><trkpt lat="48.60521246006129" lon="-2.4810154102229243"><ele>59.0</ele><time>2026-04-05T06:56:28Z</time></trkpt><trkpt lat="48.605265253519555" lon="-2.4809307152874425"><ele>59.0</ele><time>2026-04-05T06:56:29Z</time></trkpt><trkpt lat="48.60531534724724" lon="-2.4808423062707554"><ele>59.0</ele><time>2026-04-05T06:56:30Z</time></trkpt><trkpt lat="48.60536455174261" lon="-2.4807588496551296"><ele>59.0</ele><time>2026-04-05T06:56:31Z</time></trkpt><trkpt lat="48.605409330112046" lon="-2.480675046295862"><ele>59.0</ele><time>2026-04-05T06:56:32Z</time></trkpt><trkpt lat="48.60544432341425" lon="-2.48058516296246"><ele>59.0</ele><time>2026-04-05T06:56:33Z</time></trkpt><trkpt lat="48.60548212543261" lon="-2.4804971754065095"><ele>59.0</ele><time>2026-04-05T06:56:34Z</time></trkpt><trkpt lat="48.60552052489081" lon="-2.4804136931657212"><ele>59.0</ele><time>2026-04-05T06:56:35Z</time></trkpt><trkpt lat="48.60556156982404" lon="-2.480335380256881"><ele>59.00000000000001</ele><time>2026-04-05T06:56:36Z</time></trkpt><trkpt lat="48.6056492866725" lon="-2.480192664215289"><ele>59.0</ele><time>2026-04-05T06:56:38Z</time></trkpt><trkpt lat="48.60570852119298" lon="-2.480144085099303"><ele>59.0</ele><time>2026-04-05T06:56:39Z</time></trkpt><trkpt lat="48.60576971225142" lon="-2.4801097090605904"><ele>59.0</ele><time>2026-04-05T06:56:40Z</time></trkpt><trkpt lat="48.60588365031584" lon="-2.4800414766888177"><ele>59.00000000000001</ele><time>2026-04-05T06:56:42Z</time></trkpt><trkpt lat="48.60594502481217" lon="-2.4800081750615117"><ele>59.0</ele><time>2026-04-05T06:56:43Z</time></trkpt><trkpt lat="48.60606485886099" lon="-2.479961152952079"><ele>59.00000000000001</ele><time>2026-04-05T06:56:45Z</time></trkpt><trkpt lat="48.60612876203084" lon="-2.4799475869719667"><ele>59.0</ele><time>2026-04-05T06:56:46Z</time></trkpt><trkpt lat="48.60624586686782" lon="-2.4799015523749333"><ele>59.0</ele><time>2026-04-05T06:56:48Z</time></trkpt><trkpt lat="48.606309582526116" lon="-2.479881029524655"><ele>59.0</ele><time>2026-04-05T06:56:49Z</time></trkpt><trkpt lat="48.60643462640578" lon="-2.479855627051196"><ele>59.00000000000001</ele><time>2026-04-05T06:56:51Z</time></trkpt><trkpt lat="48.606499418536664" lon="-2.479839939076673"><ele>59.0</ele><time>2026-04-05T06:56:52Z</time></trkpt><trkpt lat="48.606560543138635" lon="-2.479815827340096"><ele>59.400000000000006</ele><time>2026-04-05T06:56:53Z</time></trkpt><trkpt lat="48.60662482296814" lon="-2.4797983743455663"><ele>59.800000000000004</ele><time>2026-04-05T06:56:54Z</time></trkpt><trkpt lat="48.60674319451149" lon="-2.4797649330134295"><ele>60.199999999999996</ele><time>2026-04-05T06:56:56Z</time></trkpt><trkpt lat="48.60686195873358" lon="-2.479735145663636"><ele>60.599999999999994</ele><time>2026-04-05T06:56:58Z</time></trkpt><trkpt lat="48.60697459528639" lon="-2.4796942887628646"><ele>61.0</ele><time>2026-04-05T06:57:00Z</time></trkpt><trkpt lat="48.60708411245328" lon="-2.4796599825090357"><ele>61.25</ele><time>2026-04-05T06:57:02Z</time></trkpt><trkpt lat="48.60719916981951" lon="-2.4796241726751664"><ele>61.5</ele><time>2026-04-05T06:57:04Z</time></trkpt><trkpt lat="48.60732001890005" lon="-2.4796214827772967"><ele>61.75</ele><time>2026-04-05T06:57:06Z</time></trkpt><trkpt lat="48.60743520174339" lon="-2.4796330225126217"><ele>62.0</ele><time>2026-04-05T06:57:08Z</time></trkpt><trkpt lat="48.607547773108486" lon="-2.479664955309511"><ele>62.00000000000001</ele><time>2026-04-05T06:57:10Z</time></trkpt><trkpt lat="48.607646073495935" lon="-2.479706434518028"><ele>62.0</ele><time>2026-04-05T06:57:12Z</time></trkpt><trkpt lat="48.607739568364565" lon="-2.4797537299544796"><ele>62.0</ele><time>2026-04-05T06:57:14Z</time></trkpt><trkpt lat="48.60780240054611" lon="-2.4797959218649237"><ele>62.0</ele><time>2026-04-05T06:57:16Z</time></trkpt><trkpt lat="48.60789184611714" lon="-2.4798626893734546"><ele>62.00000000000001</ele><time>2026-04-05T06:57:18Z</time></trkpt><trkpt lat="48.607951833384675" lon="-2.479935145410795"><ele>62.0</ele><time>2026-04-05T06:57:20Z</time></trkpt><trkpt lat="48.60801736659104" lon="-2.480027402636322"><ele>62.5</ele><time>2026-04-05T06:57:22Z</time></trkpt><trkpt lat="48.60817643089692" lon="-2.480209269706806"><ele>63.0</ele><time>2026-04-05T06:57:24.999Z</time></trkpt><trkpt lat="48.60825157676975" lon="-2.480297308644948"><ele>63.5</ele><time>2026-04-05T06:57:26.999Z</time></trkpt><trkpt lat="48.60832843032885" lon="-2.480382969055874"><ele>64.0</ele><time>2026-04-05T06:57:28.999Z</time></trkpt><trkpt lat="48.60840287484916" lon="-2.4804500316632416"><ele>64.2</ele><time>2026-04-05T06:57:30.999Z</time></trkpt><trkpt lat="48.60848513332891" lon="-2.4805172016373067"><ele>64.4</ele><time>2026-04-05T06:57:32.999Z</time></trkpt><trkpt lat="48.60857843570274" lon="-2.480585234847674"><ele>64.6</ele><time>2026-04-05T06:57:34.999Z</time></trkpt><trkpt lat="48.608682606629145" lon="-2.4806619194669635"><ele>64.8</ele><time>2026-04-05T06:57:36.999Z</time></trkpt><trkpt lat="48.60877793544046" lon="-2.480740760701812"><ele>65.0</ele><time>2026-04-05T06:57:38.999Z</time></trkpt><trkpt lat="48.60883918965906" lon="-2.4807846432311322"><ele>64.66666666666667</ele><time>2026-04-05T06:57:39.999Z</time></trkpt><trkpt lat="48.60889725893453" lon="-2.4808268994056912"><ele>64.33333333333334</ele><time>2026-04-05T06:57:40.999Z</time></trkpt><trkpt lat="48.608962687530635" lon="-2.4808778522600377"><ele>64.0</ele><time>2026-04-05T06:57:41.999Z</time></trkpt><trkpt lat="48.60902926304099" lon="-2.4809312347174757"><ele>63.66666666666667</ele><time>2026-04-05T06:57:42.999Z</time></trkpt><trkpt lat="48.60910035974051" lon="-2.4809871065136586"><ele>63.333333333333336</ele><time>2026-04-05T06:57:43.999Z</time></trkpt><trkpt lat="48.609178721315345" lon="-2.481031056906499"><ele>63.0</ele><time>2026-04-05T06:57:44.999Z</time></trkpt><trkpt lat="48.609260237484705" lon="-2.481060076437527"><ele>63.0</ele><time>2026-04-05T06:57:45.999Z</time></trkpt><trkpt lat="48.60934318816177" lon="-2.481081545018201"><ele>63.0</ele><time>2026-04-05T06:57:46.999Z</time></trkpt><trkpt lat="48.60942385024819" lon="-2.4810825956279667"><ele>63.0</ele><time>2026-04-05T06:57:47.999Z</time></trkpt><trkpt lat="48.60950002161466" lon="-2.481079409626075"><ele>63.0</ele><time>2026-04-05T06:57:48.999Z</time></trkpt><trkpt lat="48.60958163000479" lon="-2.481082616470787"><ele>63.0</ele><time>2026-04-05T06:57:49.999Z</time></trkpt><trkpt lat="48.60966815634452" lon="-2.4810965961897318"><ele>63.0</ele><time>2026-04-05T06:57:50.999Z</time></trkpt><trkpt lat="48.60975726320953" lon="-2.4811187416804548"><ele>61.599999999999994</ele><time>2026-04-05T06:57:51.999Z</time></trkpt><trkpt lat="48.60985723709945" lon="-2.4811497036634607"><ele>60.199999999999996</ele><time>2026-04-05T06:57:52.999Z</time></trkpt><trkpt lat="48.60995695024355" lon="-2.4812027147511464"><ele>58.8</ele><time>2026-04-05T06:57:53.999Z</time></trkpt><trkpt lat="48.610055814580704" lon="-2.481284324375907"><ele>57.4</ele><time>2026-04-05T06:57:54.999Z</time></trkpt><trkpt lat="48.61014878636922" lon="-2.4813773261822503"><ele>56.0</ele><time>2026-04-05T06:57:55.999Z</time></trkpt><trkpt lat="48.61024089705754" lon="-2.481462918195972"><ele>54.4</ele><time>2026-04-05T06:57:56.999Z</time></trkpt><trkpt lat="48.61033750165332" lon="-2.4815486189676452"><ele>52.8</ele><time>2026-04-05T06:57:57.999Z</time></trkpt><trkpt lat="48.61043598712885" lon="-2.481631015439505"><ele>51.199999999999996</ele><time>2026-04-05T06:57:58.999Z</time></trkpt><trkpt lat="48.61053583398675" lon="-2.4817055873862794"><ele>49.599999999999994</ele><time>2026-04-05T06:57:59.999Z</time></trkpt><trkpt lat="48.61063759585321" lon="-2.4817786683509184"><ele>48.0</ele><time>2026-04-05T06:58:00.999Z</time></trkpt><trkpt lat="48.61073956137614" lon="-2.4818539712689693"><ele>48.0</ele><time>2026-04-05T06:58:01.999Z</time></trkpt><trkpt lat="48.6108430465636" lon="-2.4819131966769907"><ele>48.0</ele><time>2026-04-05T06:58:02.999Z</time></trkpt><trkpt lat="48.610948901284544" lon="-2.4819780348388214"><ele>48.0</ele><time>2026-04-05T06:58:03.999Z</time></trkpt><trkpt lat="48.61105710907393" lon="-2.482033134830284"><ele>48.0</ele><time>2026-04-05T06:58:04.999Z</time></trkpt><trkpt lat="48.61116762533717" lon="-2.4820825074100665"><ele>47.4</ele><time>2026-04-05T06:58:05.999Z</time></trkpt><trkpt lat="48.6112728797615" lon="-2.4821310632684974"><ele>46.8</ele><time>2026-04-05T06:58:06.999Z</time></trkpt><trkpt lat="48.611366474902916" lon="-2.482175502686236"><ele>46.2</ele><time>2026-04-05T06:58:07.999Z</time></trkpt><trkpt lat="48.61145624176202" lon="-2.482212702759659"><ele>45.6</ele><time>2026-04-05T06:58:08.999Z</time></trkpt><trkpt lat="48.611536999634744" lon="-2.482271795156076"><ele>45.0</ele><time>2026-04-05T06:58:09.999Z</time></trkpt><trkpt lat="48.611615146334884" lon="-2.482325603340321"><ele>45.0</ele><time>2026-04-05T06:58:10.999Z</time></trkpt><trkpt lat="48.611681854565376" lon="-2.482386390602564"><ele>45.0</ele><time>2026-04-05T06:58:11.999Z</time></trkpt><trkpt lat="48.61174550860789" lon="-2.4824438747584145"><ele>45.0</ele><time>2026-04-05T06:58:12.999Z</time></trkpt><trkpt lat="48.611839835234434" lon="-2.4825585494917184"><ele>45.0</ele><time>2026-04-05T06:58:14.999Z</time></trkpt><trkpt lat="48.61191790483832" lon="-2.4825677399275574"><ele>45.0</ele><time>2026-04-05T06:58:16.999Z</time></trkpt><trkpt lat="48.61198538386479" lon="-2.482473486355126"><ele>45.0</ele><time>2026-04-05T06:58:18.999Z</time></trkpt><trkpt lat="48.61202472740704" lon="-2.482338805625444"><ele>44.833333333333336</ele><time>2026-04-05T06:58:21Z</time></trkpt><trkpt lat="48.61207922910494" lon="-2.482181184721574"><ele>44.666666666666664</ele><time>2026-04-05T06:58:23Z</time></trkpt><trkpt lat="48.61212111579643" lon="-2.482107665683965"><ele>44.5</ele><time>2026-04-05T06:58:24Z</time></trkpt><trkpt lat="48.61217514658683" lon="-2.482051419529724"><ele>44.33333333333333</ele><time>2026-04-05T06:58:25Z</time></trkpt><trkpt lat="48.61227795711576" lon="-2.4819861863584634"><ele>44.166666666666664</ele><time>2026-04-05T06:58:27Z</time></trkpt><trkpt lat="48.612343207914634" lon="-2.4819635824079884"><ele>44.0</ele><time>2026-04-05T06:58:28Z</time></trkpt><trkpt lat="48.61244802150851" lon="-2.481947093792895"><ele>43.75</ele><time>2026-04-05T06:58:30Z</time></trkpt><trkpt lat="48.61256659031462" lon="-2.4819517188983715"><ele>43.5</ele><time>2026-04-05T06:58:32Z</time></trkpt><trkpt lat="48.612683812770655" lon="-2.4819552292193623"><ele>43.25</ele><time>2026-04-05T06:58:34Z</time></trkpt><trkpt lat="48.61279902148463" lon="-2.481965131868708"><ele>43.0</ele><time>2026-04-05T06:58:36Z</time></trkpt><trkpt lat="48.61291286869608" lon="-2.481954277599566"><ele>42.66666666666667</ele><time>2026-04-05T06:58:38Z</time></trkpt><trkpt lat="48.61302688491983" lon="-2.481904275942302"><ele>42.333333333333336</ele><time>2026-04-05T06:58:40Z</time></trkpt><trkpt lat="48.613071898474416" lon="-2.4818254103749293"><ele>42.0</ele><time>2026-04-05T06:58:41Z</time></trkpt><trkpt lat="48.613125792918744" lon="-2.481655788562591"><ele>41.666666666666664</ele><time>2026-04-05T06:58:43Z</time></trkpt><trkpt lat="48.61316399827695" lon="-2.481575495444984"><ele>41.33333333333333</ele><time>2026-04-05T06:58:44Z</time></trkpt><trkpt lat="48.61319082729559" lon="-2.4814772374304512"><ele>41.0</ele><time>2026-04-05T06:58:45Z</time></trkpt><trkpt lat="48.61320799966548" lon="-2.4813751195548868"><ele>41.0</ele><time>2026-04-05T06:58:46Z</time></trkpt><trkpt lat="48.61322818742876" lon="-2.4812749489522887"><ele>41.0</ele><time>2026-04-05T06:58:47Z</time></trkpt><trkpt lat="48.613251758544685" lon="-2.4811839301149203"><ele>41.0</ele><time>2026-04-05T06:58:48Z</time></trkpt><trkpt lat="48.61331556450816" lon="-2.481003933443969"><ele>41.0</ele><time>2026-04-05T06:58:50Z</time></trkpt><trkpt lat="48.6133669557242" lon="-2.4809180434039724"><ele>41.0</ele><time>2026-04-05T06:58:51Z</time></trkpt><trkpt lat="48.61342509479668" lon="-2.480836551304018"><ele>41.0</ele><time>2026-04-05T06:58:52Z</time></trkpt><trkpt lat="48.61349267402152" lon="-2.480760573036682"><ele>40.5</ele><time>2026-04-05T06:58:53Z</time></trkpt><trkpt lat="48.61356879308113" lon="-2.4806905577396954"><ele>40.0</ele><time>2026-04-05T06:58:54Z</time></trkpt><trkpt lat="48.61364411363034" lon="-2.4806105350959253"><ele>39.5</ele><time>2026-04-05T06:58:55Z</time></trkpt><trkpt lat="48.61371348837528" lon="-2.480533002167426"><ele>39.0</ele><time>2026-04-05T06:58:56Z</time></trkpt><trkpt lat="48.61377435586391" lon="-2.480463755893956"><ele>38.5</ele><time>2026-04-05T06:58:57Z</time></trkpt><trkpt lat="48.61383215478281" lon="-2.4804037770209333"><ele>38.0</ele><time>2026-04-05T06:58:58Z</time></trkpt><trkpt lat="48.613891607431626" lon="-2.48034677853498"><ele>36.5</ele><time>2026-04-05T06:58:59Z</time></trkpt><trkpt lat="48.61395993094988" lon="-2.480294092768685"><ele>35.0</ele><time>2026-04-05T06:59:00Z</time></trkpt><trkpt lat="48.61403124422561" lon="-2.480253676402833"><ele>33.5</ele><time>2026-04-05T06:59:01Z</time></trkpt><trkpt lat="48.61411266554936" lon="-2.480212928256297"><ele>32.0</ele><time>2026-04-05T06:59:02Z</time></trkpt><trkpt lat="48.6141901334715" lon="-2.4801642156539567"><ele>30.499999999999996</ele><time>2026-04-05T06:59:03Z</time></trkpt><trkpt lat="48.61426842828802" lon="-2.4801061308768433"><ele>29.0</ele><time>2026-04-05T06:59:04Z</time></trkpt><trkpt lat="48.614336851276704" lon="-2.480049271202862"><ele>28.999999999999996</ele><time>2026-04-05T06:59:05Z</time></trkpt><trkpt lat="48.61440239170249" lon="-2.480002373088821"><ele>29.0</ele><time>2026-04-05T06:59:06Z</time></trkpt><trkpt lat="48.61446067409269" lon="-2.479962323246032"><ele>29.0</ele><time>2026-04-05T06:59:07Z</time></trkpt><trkpt lat="48.61453184946788" lon="-2.479943332011891"><ele>29.0</ele><time>2026-04-05T06:59:08Z</time></trkpt><trkpt lat="48.61461403200451" lon="-2.479950740933574"><ele>28.999999999999996</ele><time>2026-04-05T06:59:09Z</time></trkpt><trkpt lat="48.61469806224748" lon="-2.479963069080585"><ele>29.0</ele><time>2026-04-05T06:59:10Z</time></trkpt><trkpt lat="48.614789713567994" lon="-2.4799814584179254"><ele>27.499999999999996</ele><time>2026-04-05T06:59:11Z</time></trkpt><trkpt lat="48.61487628770851" lon="-2.4800123836487704"><ele>26.0</ele><time>2026-04-05T06:59:12Z</time></trkpt><trkpt lat="48.614966894569974" lon="-2.480050642216102"><ele>24.5</ele><time>2026-04-05T06:59:13Z</time></trkpt><trkpt lat="48.61505927399916" lon="-2.480084142646938"><ele>23.0</ele><time>2026-04-05T06:59:14Z</time></trkpt><trkpt lat="48.615145735500434" lon="-2.4801123929294673"><ele>21.5</ele><time>2026-04-05T06:59:15Z</time></trkpt><trkpt lat="48.615226119158464" lon="-2.480137903187857"><ele>20.0</ele><time>2026-04-05T06:59:16Z</time></trkpt><trkpt lat="48.61530539803313" lon="-2.480163227003564"><ele>19.333333333333336</ele><time>2026-04-05T06:59:17Z</time></trkpt><trkpt lat="48.615387703532704" lon="-2.480195723638523"><ele>18.666666666666668</ele><time>2026-04-05T06:59:18Z</time></trkpt><trkpt lat="48.61547660669664" lon="-2.4802149618590232"><ele>18.0</ele><time>2026-04-05T06:59:19Z</time></trkpt><trkpt lat="48.615565718474684" lon="-2.4802094788145292"><ele>17.333333333333332</ele><time>2026-04-05T06:59:20Z</time></trkpt><trkpt lat="48.61565629037462" lon="-2.4801844366827632"><ele>16.666666666666664</ele><time>2026-04-05T06:59:21Z</time></trkpt><trkpt lat="48.615741394781004" lon="-2.4801368057364983"><ele>16.0</ele><time>2026-04-05T06:59:22Z</time></trkpt><trkpt lat="48.61581807387407" lon="-2.480091461584142"><ele>16.0</ele><time>2026-04-05T06:59:23Z</time></trkpt><trkpt lat="48.615893329411634" lon="-2.4800260189434105"><ele>15.999999999999998</ele><time>2026-04-05T06:59:24Z</time></trkpt><trkpt lat="48.61595755251223" lon="-2.47995442844378"><ele>16.0</ele><time>2026-04-05T06:59:25Z</time></trkpt><trkpt lat="48.616010848062224" lon="-2.4798725749904373"><ele>16.0</ele><time>2026-04-05T06:59:26Z</time></trkpt><trkpt lat="48.61606270531317" lon="-2.4797956405735464"><ele>15.999999999999998</ele><time>2026-04-05T06:59:27Z</time></trkpt><trkpt lat="48.616111536785226" lon="-2.4797228474052733"><ele>16.0</ele><time>2026-04-05T06:59:28Z</time></trkpt><trkpt lat="48.61615519810975" lon="-2.4796522252151765"><ele>16.0</ele><time>2026-04-05T06:59:29Z</time></trkpt><trkpt lat="48.61623266820374" lon="-2.4795144129295044"><ele>15.833333333333332</ele><time>2026-04-05T06:59:30.999Z</time></trkpt><trkpt lat="48.616316616731865" lon="-2.47938106774097"><ele>15.666666666666666</ele><time>2026-04-05T06:59:32.999Z</time></trkpt><trkpt lat="48.61636135730954" lon="-2.4793078721360002"><ele>15.5</ele><time>2026-04-05T06:59:33.999Z</time></trkpt><trkpt lat="48.61640943249861" lon="-2.4792363644047515"><ele>15.333333333333332</ele><time>2026-04-05T06:59:34.999Z</time></trkpt><trkpt lat="48.61645694633299" lon="-2.479157452943936"><ele>15.166666666666666</ele><time>2026-04-05T06:59:35.999Z</time></trkpt><trkpt lat="48.61650316693677" lon="-2.4790757273973556"><ele>15.0</ele><time>2026-04-05T06:59:36.999Z</time></trkpt><trkpt lat="48.61654985139932" lon="-2.4789937219512317"><ele>15.0</ele><time>2026-04-05T06:59:37.999Z</time></trkpt><trkpt lat="48.61660010844219" lon="-2.4789168752467674"><ele>15.0</ele><time>2026-04-05T06:59:38.999Z</time></trkpt><trkpt lat="48.61663788308393" lon="-2.4788115110136104"><ele>15.0</ele><time>2026-04-05T06:59:39.999Z</time></trkpt><trkpt lat="48.61668380848232" lon="-2.4787384815778126"><ele>15.0</ele><time>2026-04-05T06:59:40.999Z</time></trkpt><trkpt lat="48.616737795060146" lon="-2.478669096979018"><ele>15.0</ele><time>2026-04-05T06:59:41.999Z</time></trkpt><trkpt lat="48.616789064185994" lon="-2.478594769681675"><ele>15.0</ele><time>2026-04-05T06:59:42.999Z</time></trkpt><trkpt lat="48.61683634320195" lon="-2.478523172590368"><ele>15.0</ele><time>2026-04-05T06:59:43.999Z</time></trkpt><trkpt lat="48.61688313340233" lon="-2.4784469198270416"><ele>14.5</ele><time>2026-04-05T06:59:44.999Z</time></trkpt><trkpt lat="48.61692852151216" lon="-2.4783733622373423"><ele>14.0</ele><time>2026-04-05T06:59:45.999Z</time></trkpt><trkpt lat="48.61697495255934" lon="-2.4783041700550488"><ele>13.5</ele><time>2026-04-05T06:59:46.999Z</time></trkpt><trkpt lat="48.61702559353997" lon="-2.478243684638237"><ele>13.0</ele><time>2026-04-05T06:59:47.999Z</time></trkpt><trkpt lat="48.61709947813489" lon="-2.4781103554174053"><ele>12.5</ele><time>2026-04-05T06:59:49.999Z</time></trkpt><trkpt lat="48.617173144860956" lon="-2.4779787454609665"><ele>12.0</ele><time>2026-04-05T06:59:51.999Z</time></trkpt><trkpt lat="48.61724789788171" lon="-2.477851067656222"><ele>13.2</ele><time>2026-04-05T06:59:53.999Z</time></trkpt><trkpt lat="48.61733033272372" lon="-2.4777409253245115"><ele>14.399999999999999</ele><time>2026-04-05T06:59:55.999Z</time></trkpt><trkpt lat="48.61739425075087" lon="-2.4776409997367645"><ele>15.600000000000001</ele><time>2026-04-05T06:59:57.999Z</time></trkpt><trkpt lat="48.61746760577702" lon="-2.4775231513474836"><ele>16.8</ele><time>2026-04-05T06:59:59.999Z</time></trkpt><trkpt lat="48.61753622299905" lon="-2.4774175562545313"><ele>18.0</ele><time>2026-04-05T07:00:01.999Z</time></trkpt><trkpt lat="48.61759349459743" lon="-2.477311303650501"><ele>18.0</ele><time>2026-04-05T07:00:03.999Z</time></trkpt><trkpt lat="48.61763798639886" lon="-2.477222926759622"><ele>18.0</ele><time>2026-04-05T07:00:06.999Z</time></trkpt><trkpt lat="48.61769830762337" lon="-2.4771340138177314"><ele>18.0</ele><time>2026-04-05T07:00:07.999Z</time></trkpt><trkpt lat="48.61773719861334" lon="-2.4770393736290774"><ele>18.0</ele><time>2026-04-05T07:00:10.999Z</time></trkpt><trkpt lat="48.61779029472904" lon="-2.4769492260248116"><ele>18.0</ele><time>2026-04-05T07:00:11.999Z</time></trkpt><trkpt lat="48.61783297049054" lon="-2.47681600712086"><ele>18.0</ele><time>2026-04-05T07:00:15.999Z</time></trkpt><trkpt lat="48.617931228870056" lon="-2.476584968390171"><ele>17.833333333333332</ele><time>2026-04-05T07:00:20.999Z</time></trkpt><trkpt lat="48.61797125863545" lon="-2.4765001667987883"><ele>17.666666666666668</ele><time>2026-04-05T07:00:21.999Z</time></trkpt><trkpt lat="48.617953400196214" lon="-2.47633154803746"><ele>17.5</ele><time>2026-04-05T07:00:22.999Z</time></trkpt><trkpt lat="48.61796824684748" lon="-2.476224144536848"><ele>17.333333333333336</ele><time>2026-04-05T07:00:23.999Z</time></trkpt><trkpt lat="48.617973658144834" lon="-2.476101148540197"><ele>17.166666666666668</ele><time>2026-04-05T07:00:24.999Z</time></trkpt><trkpt lat="48.61799669552462" lon="-2.4760034247802936"><ele>17.0</ele><time>2026-04-05T07:00:25.999Z</time></trkpt><trkpt lat="48.618017536564665" lon="-2.475907388746812"><ele>17.0</ele><time>2026-04-05T07:00:27Z</time></trkpt><trkpt lat="48.61805350605296" lon="-2.475746090370702"><ele>17.0</ele><time>2026-04-05T07:00:29Z</time></trkpt><trkpt lat="48.61808371794471" lon="-2.4755944621896617"><ele>17.0</ele><time>2026-04-05T07:00:31Z</time></trkpt><trkpt lat="48.6181084641834" lon="-2.47544726605964"><ele>17.0</ele><time>2026-04-05T07:00:33Z</time></trkpt><trkpt lat="48.61812102186245" lon="-2.475321072980537"><ele>17.0</ele><time>2026-04-05T07:00:35Z</time></trkpt><trkpt lat="48.6181470355632" lon="-2.4751747526368906"><ele>17.0</ele><time>2026-04-05T07:00:37Z</time></trkpt><trkpt lat="48.618157328195224" lon="-2.475011063225022"><ele>17.0</ele><time>2026-04-05T07:00:39Z</time></trkpt><trkpt lat="48.618165401953995" lon="-2.474840652294013"><ele>17.0</ele><time>2026-04-05T07:00:41Z</time></trkpt><trkpt lat="48.61818312935771" lon="-2.4746764007283333"><ele>17.0</ele><time>2026-04-05T07:00:43Z</time></trkpt><trkpt lat="48.61819273412346" lon="-2.4745183486416047"><ele>17.0</ele><time>2026-04-05T07:00:45Z</time></trkpt><trkpt lat="48.618220526595124" lon="-2.4744321774556535"><ele>17.0</ele><time>2026-04-05T07:00:46Z</time></trkpt><trkpt lat="48.618248690165274" lon="-2.4743405252877864"><ele>17.0</ele><time>2026-04-05T07:00:47Z</time></trkpt><trkpt lat="48.61829406895169" lon="-2.4742595191295282"><ele>17.0</ele><time>2026-04-05T07:00:48Z</time></trkpt><trkpt lat="48.61834739513151" lon="-2.474186081148418"><ele>17.0</ele><time>2026-04-05T07:00:49Z</time></trkpt><trkpt lat="48.618408232689916" lon="-2.474109881896077"><ele>17.0</ele><time>2026-04-05T07:00:50Z</time></trkpt><trkpt lat="48.61847404961911" lon="-2.474027165059008"><ele>17.0</ele><time>2026-04-05T07:00:51Z</time></trkpt><trkpt lat="48.61853426810519" lon="-2.4739472277124244"><ele>17.0</ele><time>2026-04-05T07:00:52Z</time></trkpt><trkpt lat="48.61858435299329" lon="-2.473874610041602"><ele>17.0</ele><time>2026-04-05T07:00:53Z</time></trkpt><trkpt lat="48.61866339124293" lon="-2.473760823693123"><ele>17.0</ele><time>2026-04-05T07:00:55Z</time></trkpt><trkpt lat="48.618693250365055" lon="-2.473675123403728"><ele>17.0</ele><time>2026-04-05T07:00:57Z</time></trkpt><trkpt lat="48.61865851431538" lon="-2.473529186440095"><ele>17.0</ele><time>2026-04-05T07:01:00Z</time></trkpt><trkpt lat="48.6186020615994" lon="-2.473453068768498"><ele>17.0</ele><time>2026-04-05T07:01:04Z</time></trkpt><trkpt lat="48.61855685139065" lon="-2.4733544518764696"><ele>17.166666666666668</ele><time>2026-04-05T07:01:07Z</time></trkpt><trkpt lat="48.61849787225121" lon="-2.473249852363417"><ele>17.333333333333336</ele><time>2026-04-05T07:01:10Z</time></trkpt><trkpt lat="48.618466723660035" lon="-2.47314999562113"><ele>17.5</ele><time>2026-04-05T07:01:13Z</time></trkpt><trkpt lat="48.61841565240318" lon="-2.4730925071746457"><ele>17.666666666666668</ele><time>2026-04-05T07:01:17Z</time></trkpt><trkpt lat="48.618390827908975" lon="-2.472965395426717"><ele>17.833333333333332</ele><time>2026-04-05T07:01:31Z</time></trkpt><trkpt lat="48.61830817674781" lon="-2.4729293261138223"><ele>18.0</ele><time>2026-04-05T07:01:34Z</time></trkpt><trkpt lat="48.618316744724915" lon="-2.4728129218260486"><ele>18.333333333333332</ele><time>2026-04-05T07:01:38Z</time></trkpt><trkpt lat="48.618387541832426" lon="-2.472738113275758"><ele>18.666666666666668</ele><time>2026-04-05T07:01:39.999Z</time></trkpt><trkpt lat="48.618449392273355" lon="-2.472666057321132"><ele>19.0</ele><time>2026-04-05T07:01:41.999Z</time></trkpt><trkpt lat="48.618510833574355" lon="-2.472604316028141"><ele>19.333333333333336</ele><time>2026-04-05T07:01:43.999Z</time></trkpt><trkpt lat="48.61858330225227" lon="-2.4725482269886605"><ele>19.666666666666668</ele><time>2026-04-05T07:01:45.999Z</time></trkpt><trkpt lat="48.61864230608549" lon="-2.472483223957556"><ele>20.0</ele><time>2026-04-05T07:01:47.999Z</time></trkpt><trkpt lat="48.61871019973801" lon="-2.472406029433726"><ele>20.0</ele><time>2026-04-05T07:01:49.999Z</time></trkpt><trkpt lat="48.61877499987749" lon="-2.472325127659208"><ele>20.0</ele><time>2026-04-05T07:01:51.999Z</time></trkpt><trkpt lat="48.61882360483789" lon="-2.4722545970607412"><ele>20.0</ele><time>2026-04-05T07:01:53.999Z</time></trkpt><trkpt lat="48.61887983220829" lon="-2.4721876647397676"><ele>20.0</ele><time>2026-04-05T07:01:55.999Z</time></trkpt><trkpt lat="48.61894465891238" lon="-2.4721117710349425"><ele>20.0</ele><time>2026-04-05T07:01:58.999Z</time></trkpt><trkpt lat="48.61900094355354" lon="-2.4720625203774227"><ele>20.0</ele><time>2026-04-05T07:02:00.999Z</time></trkpt><trkpt lat="48.6190754053973" lon="-2.4719948962236487"><ele>21.2</ele><time>2026-04-05T07:02:02.999Z</time></trkpt><trkpt lat="48.61914626629137" lon="-2.4719223666196135"><ele>22.4</ele><time>2026-04-05T07:02:04.999Z</time></trkpt><trkpt lat="48.61922390269789" lon="-2.471882952129111"><ele>23.6</ele><time>2026-04-05T07:02:07.999Z</time></trkpt><trkpt lat="48.619276552414156" lon="-2.471764836289956"><ele>24.8</ele><time>2026-04-05T07:02:09.999Z</time></trkpt><trkpt lat="48.619366436244384" lon="-2.471676107688243"><ele>26.0</ele><time>2026-04-05T07:02:11.999Z</time></trkpt><trkpt lat="48.61944943112234" lon="-2.4715693044109184"><ele>24.833333333333332</ele><time>2026-04-05T07:02:13.999Z</time></trkpt><trkpt lat="48.6195182520577" lon="-2.471475307764152"><ele>23.666666666666664</ele><time>2026-04-05T07:02:15.999Z</time></trkpt><trkpt lat="48.619582099275036" lon="-2.47138948472104"><ele>22.5</ele><time>2026-04-05T07:02:17.999Z</time></trkpt><trkpt lat="48.619647802335095" lon="-2.4712879533948824"><ele>21.333333333333332</ele><time>2026-04-05T07:02:19.999Z</time></trkpt><trkpt lat="48.61969883359494" lon="-2.4712304179241342"><ele>20.166666666666664</ele><time>2026-04-05T07:02:20.999Z</time></trkpt><trkpt lat="48.619760494922005" lon="-2.4711474434603895"><ele>19.0</ele><time>2026-04-05T07:02:22.999Z</time></trkpt><trkpt lat="48.619809991137416" lon="-2.4710713261532367"><ele>19.0</ele><time>2026-04-05T07:02:26.999Z</time></trkpt><trkpt lat="48.61986467692318" lon="-2.471001631377283"><ele>19.0</ele><time>2026-04-05T07:02:30.999Z</time></trkpt><trkpt lat="48.61991958854113" lon="-2.4709060667781686"><ele>19.0</ele><time>2026-04-05T07:02:34Z</time></trkpt><trkpt lat="48.6199693262644" lon="-2.4708403418719405"><ele>19.0</ele><time>2026-04-05T07:02:36Z</time></trkpt><trkpt lat="48.62003999801685" lon="-2.470731429176768"><ele>19.0</ele><time>2026-04-05T07:02:39Z</time></trkpt><trkpt lat="48.62011032152529" lon="-2.470659803748408"><ele>19.0</ele><time>2026-04-05T07:02:41Z</time></trkpt><trkpt lat="48.62016366567596" lon="-2.470571327698341"><ele>19.0</ele><time>2026-04-05T07:02:43Z</time></trkpt><trkpt lat="48.620206019396626" lon="-2.47046051803871"><ele>19.0</ele><time>2026-04-05T07:02:45Z</time></trkpt><trkpt lat="48.620285991522906" lon="-2.470392658135197"><ele>19.0</ele><time>2026-04-05T07:02:47Z</time></trkpt><trkpt lat="48.62032942502026" lon="-2.4703067987441827"><ele>19.0</ele><time>2026-04-05T07:02:49Z</time></trkpt><trkpt lat="48.62037787744237" lon="-2.470218117982112"><ele>19.0</ele><time>2026-04-05T07:02:51Z</time></trkpt><trkpt lat="48.62042531106762" lon="-2.4701320356358916"><ele>19.0</ele><time>2026-04-05T07:02:53Z</time></trkpt><trkpt lat="48.62047609372418" lon="-2.470051105076964"><ele>20.5</ele><time>2026-04-05T07:02:55Z</time></trkpt><trkpt lat="48.62052174800283" lon="-2.469980701114829"><ele>22.0</ele><time>2026-04-05T07:02:57Z</time></trkpt><trkpt lat="48.620553642893206" lon="-2.469890515340499"><ele>23.5</ele><time>2026-04-05T07:03:06Z</time></trkpt><trkpt lat="48.62060147134019" lon="-2.4698168049184646"><ele>25.0</ele><time>2026-04-05T07:03:10Z</time></trkpt><trkpt lat="48.62067076082265" lon="-2.469724355523754"><ele>26.500000000000004</ele><time>2026-04-05T07:03:12Z</time></trkpt><trkpt lat="48.6207466624849" lon="-2.469640302443892"><ele>28.0</ele><time>2026-04-05T07:03:15Z</time></trkpt><trkpt lat="48.620811944842266" lon="-2.469592732984667"><ele>28.599999999999998</ele><time>2026-04-05T07:03:17Z</time></trkpt><trkpt lat="48.620881281230815" lon="-2.4695493591229454"><ele>29.199999999999996</ele><time>2026-04-05T07:03:19Z</time></trkpt><trkpt lat="48.62095806863161" lon="-2.469480275006177"><ele>29.8</ele><time>2026-04-05T07:03:22Z</time></trkpt><trkpt lat="48.621061383767724" lon="-2.4693772029384347"><ele>30.4</ele><time>2026-04-05T07:03:26Z</time></trkpt><trkpt lat="48.621137838193654" lon="-2.4692980750676714"><ele>31.0</ele><time>2026-04-05T07:03:29Z</time></trkpt><trkpt lat="48.62120615579455" lon="-2.469241918575333"><ele>32.16666666666667</ele><time>2026-04-05T07:03:31Z</time></trkpt><trkpt lat="48.621290888741676" lon="-2.4691956144350264"><ele>33.333333333333336</ele><time>2026-04-05T07:03:34Z</time></trkpt><trkpt lat="48.621346579388124" lon="-2.469146047251717"><ele>34.5</ele><time>2026-04-05T07:03:36Z</time></trkpt><trkpt lat="48.621388326258" lon="-2.4690522644961344"><ele>35.666666666666664</ele><time>2026-04-05T07:03:38Z</time></trkpt><trkpt lat="48.62145337891939" lon="-2.4690325134890183"><ele>36.83333333333333</ele><time>2026-04-05T07:03:40Z</time></trkpt><trkpt lat="48.62151647362381" lon="-2.46896926774077"><ele>38.0</ele><time>2026-04-05T07:03:42.999Z</time></trkpt><trkpt lat="48.62158420343517" lon="-2.4688881244286964"><ele>38.0</ele><time>2026-04-05T07:03:44.999Z</time></trkpt><trkpt lat="48.62168751531379" lon="-2.4687878975121387"><ele>38.0</ele><time>2026-04-05T07:03:47.999Z</time></trkpt><trkpt lat="48.621750070619036" lon="-2.468752720185022"><ele>38.0</ele><time>2026-04-05T07:03:48.999Z</time></trkpt><trkpt lat="48.621814237574156" lon="-2.4686959646478015"><ele>38.0</ele><time>2026-04-05T07:03:49.999Z</time></trkpt><trkpt lat="48.62191242890564" lon="-2.4686656903017283"><ele>38.0</ele><time>2026-04-05T07:03:51.999Z</time></trkpt><trkpt lat="48.6219861707267" lon="-2.4686764139774993"><ele>38.0</ele><time>2026-04-05T07:03:52.999Z</time></trkpt><trkpt lat="48.62205657684295" lon="-2.4686376500945646"><ele>38.0</ele><time>2026-04-05T07:03:55.999Z</time></trkpt><trkpt lat="48.62211345525095" lon="-2.468570619480359"><ele>38.0</ele><time>2026-04-05T07:03:57.999Z</time></trkpt><trkpt lat="48.62218223358006" lon="-2.468528323340128"><ele>38.0</ele><time>2026-04-05T07:03:59.999Z</time></trkpt><trkpt lat="48.622249989549374" lon="-2.4684576267821257"><ele>38.0</ele><time>2026-04-05T07:04:01.999Z</time></trkpt><trkpt lat="48.62232427880343" lon="-2.46837491603279"><ele>38.0</ele><time>2026-04-05T07:04:04.999Z</time></trkpt><trkpt lat="48.62237743391358" lon="-2.468320752119722"><ele>38.0</ele><time>2026-04-05T07:04:06.999Z</time></trkpt><trkpt lat="48.62245268620106" lon="-2.4682500128251483"><ele>38.0</ele><time>2026-04-05T07:04:09.999Z</time></trkpt><trkpt lat="48.62252908411111" lon="-2.4681695382326545"><ele>38.0</ele><time>2026-04-05T07:04:12.999Z</time></trkpt><trkpt lat="48.622586994063234" lon="-2.4680827190919925"><ele>38.0</ele><time>2026-04-05T07:04:14.999Z</time></trkpt><trkpt lat="48.622664036516234" lon="-2.4680192609053546"><ele>38.0</ele><time>2026-04-05T07:04:17.999Z</time></trkpt><trkpt lat="48.62272209422536" lon="-2.4679290152304745"><ele>38.0</ele><time>2026-04-05T07:04:18.999Z</time></trkpt><trkpt lat="48.6227698383589" lon="-2.4678411241902163"><ele>38.0</ele><time>2026-04-05T07:04:21.999Z</time></trkpt><trkpt lat="48.62281149242911" lon="-2.4676971971857418"><ele>38.8</ele><time>2026-04-05T07:04:23.999Z</time></trkpt><trkpt lat="48.62287969671646" lon="-2.4675958182080278"><ele>39.599999999999994</ele><time>2026-04-05T07:04:25.999Z</time></trkpt><trkpt lat="48.62290270221632" lon="-2.4675007668861464"><ele>40.400000000000006</ele><time>2026-04-05T07:04:27.999Z</time></trkpt><trkpt lat="48.62296062305547" lon="-2.4673212259053705"><ele>41.2</ele><time>2026-04-05T07:04:29.999Z</time></trkpt><trkpt lat="48.6230011958295" lon="-2.4672009731843993"><ele>42.0</ele><time>2026-04-05T07:04:31.999Z</time></trkpt><trkpt lat="48.62307274806419" lon="-2.467063021762418"><ele>42.0</ele><time>2026-04-05T07:04:32.999Z</time></trkpt><trkpt lat="48.623159762603514" lon="-2.466901839027207"><ele>42.0</ele><time>2026-04-05T07:04:34.999Z</time></trkpt><trkpt lat="48.62327277137179" lon="-2.4667745230008142"><ele>42.0</ele><time>2026-04-05T07:04:36.999Z</time></trkpt><trkpt lat="48.62333360056674" lon="-2.4667492145845378"><ele>42.0</ele><time>2026-04-05T07:04:37.999Z</time></trkpt><trkpt lat="48.62343412459459" lon="-2.4666574276519015"><ele>42.0</ele><time>2026-04-05T07:04:39Z</time></trkpt><trkpt lat="48.6235209258542" lon="-2.466518548165168"><ele>42.0</ele><time>2026-04-05T07:04:41Z</time></trkpt><trkpt lat="48.62358944632777" lon="-2.4663977112748405"><ele>42.0</ele><time>2026-04-05T07:04:43Z</time></trkpt><trkpt lat="48.623650792856296" lon="-2.4662867304572575"><ele>42.0</ele><time>2026-04-05T07:04:45Z</time></trkpt><trkpt lat="48.62371609380983" lon="-2.4661791673515583"><ele>42.0</ele><time>2026-04-05T07:04:47Z</time></trkpt><trkpt lat="48.62375518365005" lon="-2.4661043868787735"><ele>42.333333333333336</ele><time>2026-04-05T07:04:48Z</time></trkpt><trkpt lat="48.623816098159445" lon="-2.4660240614591897"><ele>42.666666666666664</ele><time>2026-04-05T07:04:51Z</time></trkpt><trkpt lat="48.62387135820306" lon="-2.465954750357795"><ele>43.0</ele><time>2026-04-05T07:04:53Z</time></trkpt><trkpt lat="48.623942699122466" lon="-2.465872877333736"><ele>43.33333333333333</ele><time>2026-04-05T07:04:56Z</time></trkpt><trkpt lat="48.62402156480679" lon="-2.4657826729155423"><ele>43.666666666666664</ele><time>2026-04-05T07:04:59Z</time></trkpt><trkpt lat="48.62407359118008" lon="-2.465709245265058"><ele>44.0</ele><time>2026-04-05T07:05:01Z</time></trkpt><trkpt lat="48.62412502608561" lon="-2.465632086790406"><ele>44.0</ele><time>2026-04-05T07:05:03Z</time></trkpt><trkpt lat="48.62417868787208" lon="-2.4655475434549468"><ele>44.0</ele><time>2026-04-05T07:05:05Z</time></trkpt><trkpt lat="48.62427024937327" lon="-2.46557152411819"><ele>44.0</ele><time>2026-04-05T07:05:07Z</time></trkpt><trkpt lat="48.624339209088234" lon="-2.465438568127554"><ele>44.0</ele><time>2026-04-05T07:05:09Z</time></trkpt><trkpt lat="48.624412477538264" lon="-2.4653476561774097"><ele>44.0</ele><time>2026-04-05T07:05:11Z</time></trkpt><trkpt lat="48.62449590084614" lon="-2.4653003012696715"><ele>45.0</ele><time>2026-04-05T07:05:13Z</time></trkpt><trkpt lat="48.62457846816001" lon="-2.465238589021919"><ele>46.0</ele><time>2026-04-05T07:05:15Z</time></trkpt><trkpt lat="48.6246555973371" lon="-2.465160476991718"><ele>47.0</ele><time>2026-04-05T07:05:19Z</time></trkpt><trkpt lat="48.62472227228364" lon="-2.465110605372895"><ele>48.0</ele><time>2026-04-05T07:05:21Z</time></trkpt><trkpt lat="48.62487882723502" lon="-2.4649809908886047"><ele>49.0</ele><time>2026-04-05T07:05:23Z</time></trkpt><trkpt lat="48.62495597020552" lon="-2.464921279436919"><ele>48.99999999999999</ele><time>2026-04-05T07:05:25Z</time></trkpt><trkpt lat="48.62502784793854" lon="-2.464851827023926"><ele>49.0</ele><time>2026-04-05T07:05:27Z</time></trkpt><trkpt lat="48.62510352199375" lon="-2.4647948253682177"><ele>49.0</ele><time>2026-04-05T07:05:29Z</time></trkpt><trkpt lat="48.62517933381431" lon="-2.4647328483610917"><ele>49.0</ele><time>2026-04-05T07:05:31Z</time></trkpt><trkpt lat="48.62525426150246" lon="-2.4646727406943976"><ele>48.99999999999999</ele><time>2026-04-05T07:05:33Z</time></trkpt><trkpt lat="48.625328136362484" lon="-2.464608782195162"><ele>49.0</ele><time>2026-04-05T07:05:35Z</time></trkpt><trkpt lat="48.62540452130746" lon="-2.464540473649953"><ele>48.99999999999999</ele><time>2026-04-05T07:05:37Z</time></trkpt><trkpt lat="48.6254778646541" lon="-2.4644701120317385"><ele>49.0</ele><time>2026-04-05T07:05:39Z</time></trkpt><trkpt lat="48.625540212609735" lon="-2.4644057735919245"><ele>49.0</ele><time>2026-04-05T07:05:41Z</time></trkpt><trkpt lat="48.625601463870865" lon="-2.4643645730718027"><ele>49.0</ele><time>2026-04-05T07:05:43Z</time></trkpt><trkpt lat="48.6256708112582" lon="-2.464281524390652"><ele>48.99999999999999</ele><time>2026-04-05T07:05:45Z</time></trkpt><trkpt lat="48.62574445302528" lon="-2.4642146924124493"><ele>49.0</ele><time>2026-04-05T07:05:46Z</time></trkpt><trkpt lat="48.62585486790132" lon="-2.46416708921717"><ele>49.0</ele><time>2026-04-05T07:05:48Z</time></trkpt><trkpt lat="48.62596024600463" lon="-2.4640870910916486"><ele>49.0</ele><time>2026-04-05T07:05:49.999Z</time></trkpt><trkpt lat="48.62605604382361" lon="-2.46399111909831"><ele>49.0</ele><time>2026-04-05T07:05:51.999Z</time></trkpt><trkpt lat="48.62615264544428" lon="-2.4638874595609486"><ele>49.0</ele><time>2026-04-05T07:05:53.999Z</time></trkpt><trkpt lat="48.62621801881241" lon="-2.4638514550778314"><ele>49.0</ele><time>2026-04-05T07:05:54.999Z</time></trkpt><trkpt lat="48.6262628972244" lon="-2.4637711523949353"><ele>48.57142857142857</ele><time>2026-04-05T07:05:55.999Z</time></trkpt><trkpt lat="48.62632478663618" lon="-2.4637269039284715"><ele>48.14285714285714</ele><time>2026-04-05T07:05:56.999Z</time></trkpt><trkpt lat="48.62637882025389" lon="-2.4636540915236544"><ele>47.714285714285715</ele><time>2026-04-05T07:05:57.999Z</time></trkpt><trkpt lat="48.62643298834153" lon="-2.4635873378028967"><ele>47.285714285714285</ele><time>2026-04-05T07:05:58.999Z</time></trkpt><trkpt lat="48.62648432016175" lon="-2.4635122861272665"><ele>46.857142857142854</ele><time>2026-04-05T07:05:59.999Z</time></trkpt><trkpt lat="48.62652610773408" lon="-2.463424902498847"><ele>46.42857142857143</ele><time>2026-04-05T07:06:00.999Z</time></trkpt><trkpt lat="48.62657820725928" lon="-2.463357697614443"><ele>46.0</ele><time>2026-04-05T07:06:01.999Z</time></trkpt><trkpt lat="48.626620831023864" lon="-2.463260600983725"><ele>46.0</ele><time>2026-04-05T07:06:02.999Z</time></trkpt><trkpt lat="48.62666169210744" lon="-2.463167885203164"><ele>46.0</ele><time>2026-04-05T07:06:03.999Z</time></trkpt><trkpt lat="48.62670128247289" lon="-2.4630795516809005"><ele>46.0</ele><time>2026-04-05T07:06:04.999Z</time></trkpt><trkpt lat="48.62674525360366" lon="-2.4629833923530637"><ele>46.0</ele><time>2026-04-05T07:06:05.999Z</time></trkpt><trkpt lat="48.626789836216645" lon="-2.4628861409998097"><ele>46.0</ele><time>2026-04-05T07:06:06.999Z</time></trkpt><trkpt lat="48.62682858158034" lon="-2.4627887225064766"><ele>46.0</ele><time>2026-04-05T07:06:07.999Z</time></trkpt><trkpt lat="48.62687205534832" lon="-2.462690677466377"><ele>46.333333333333336</ele><time>2026-04-05T07:06:08.999Z</time></trkpt><trkpt lat="48.62691668121717" lon="-2.4625859788726516"><ele>46.66666666666667</ele><time>2026-04-05T07:06:09.999Z</time></trkpt><trkpt lat="48.62695679542185" lon="-2.4624890747875687"><ele>47.0</ele><time>2026-04-05T07:06:10.999Z</time></trkpt><trkpt lat="48.626990871673755" lon="-2.4623690096087274"><ele>47.333333333333336</ele><time>2026-04-05T07:06:11.999Z</time></trkpt><trkpt lat="48.62702782162628" lon="-2.462260019505412"><ele>47.666666666666664</ele><time>2026-04-05T07:06:12.999Z</time></trkpt><trkpt lat="48.627061694470626" lon="-2.4621517626666116"><ele>48.0</ele><time>2026-04-05T07:06:13.999Z</time></trkpt><trkpt lat="48.62710029387092" lon="-2.4620412956216353"><ele>46.0</ele><time>2026-04-05T07:06:14.999Z</time></trkpt><trkpt lat="48.62714221401691" lon="-2.4619247929684605"><ele>44.0</ele><time>2026-04-05T07:06:15.999Z</time></trkpt><trkpt lat="48.627176212026775" lon="-2.461814838115048"><ele>42.0</ele><time>2026-04-05T07:06:16.999Z</time></trkpt><trkpt lat="48.627218599990805" lon="-2.461702202740302"><ele>40.0</ele><time>2026-04-05T07:06:17.999Z</time></trkpt><trkpt lat="48.62726571730911" lon="-2.4615814250895904"><ele>38.0</ele><time>2026-04-05T07:06:18.999Z</time></trkpt><trkpt lat="48.62730762890962" lon="-2.4614687212311877"><ele>36.0</ele><time>2026-04-05T07:06:19.999Z</time></trkpt><trkpt lat="48.62735053208237" lon="-2.4613524204438204"><ele>36.166666666666664</ele><time>2026-04-05T07:06:20.999Z</time></trkpt><trkpt lat="48.62739039351234" lon="-2.461239316902392"><ele>36.333333333333336</ele><time>2026-04-05T07:06:21.999Z</time></trkpt><trkpt lat="48.62742743818161" lon="-2.4611277267755938"><ele>36.5</ele><time>2026-04-05T07:06:22.999Z</time></trkpt><trkpt lat="48.62746947032883" lon="-2.4610207541659643"><ele>36.66666666666667</ele><time>2026-04-05T07:06:23.999Z</time></trkpt><trkpt lat="48.62751246458831" lon="-2.4609005131375126"><ele>36.833333333333336</ele><time>2026-04-05T07:06:24.999Z</time></trkpt><trkpt lat="48.62755472926655" lon="-2.4607887489020848"><ele>37.0</ele><time>2026-04-05T07:06:25.999Z</time></trkpt><trkpt lat="48.627601475940914" lon="-2.460673240322751"><ele>37.0</ele><time>2026-04-05T07:06:26.999Z</time></trkpt><trkpt lat="48.627642685684386" lon="-2.4605537633349854"><ele>37.0</ele><time>2026-04-05T07:06:27.999Z</time></trkpt><trkpt lat="48.62767978055818" lon="-2.460445332107805"><ele>37.0</ele><time>2026-04-05T07:06:28.999Z</time></trkpt><trkpt lat="48.62771687580139" lon="-2.4603373569291613"><ele>37.0</ele><time>2026-04-05T07:06:29.999Z</time></trkpt><trkpt lat="48.627755724845244" lon="-2.4602320760934466"><ele>37.0</ele><time>2026-04-05T07:06:30.999Z</time></trkpt><trkpt lat="48.627789509412864" lon="-2.4601315949399756"><ele>37.0</ele><time>2026-04-05T07:06:31.999Z</time></trkpt><trkpt lat="48.62782175642398" lon="-2.460043149703273"><ele>36.333333333333336</ele><time>2026-04-05T07:06:32.999Z</time></trkpt><trkpt lat="48.62785332996598" lon="-2.45994860820491"><ele>35.66666666666667</ele><time>2026-04-05T07:06:33.999Z</time></trkpt><trkpt lat="48.627896305378236" lon="-2.4598031843738535"><ele>35.0</ele><time>2026-04-05T07:06:35.999Z</time></trkpt><trkpt lat="48.62791699507522" lon="-2.4597128915575555"><ele>34.333333333333336</ele><time>2026-04-05T07:06:37.999Z</time></trkpt><trkpt lat="48.62794528182713" lon="-2.4596263030546535"><ele>33.666666666666664</ele><time>2026-04-05T07:06:39.999Z</time></trkpt><trkpt lat="48.62798243882975" lon="-2.4595415480072678"><ele>33.0</ele><time>2026-04-05T07:06:42.999Z</time></trkpt><trkpt lat="48.628069403949574" lon="-2.4594780660520166"><ele>33.0</ele><time>2026-04-05T07:06:46Z</time></trkpt><trkpt lat="48.628140323419274" lon="-2.459389060123197"><ele>33.0</ele><time>2026-04-05T07:06:49Z</time></trkpt><trkpt lat="48.628183852179895" lon="-2.459297816563875"><ele>33.0</ele><time>2026-04-05T07:06:51Z</time></trkpt><trkpt lat="48.628238768544534" lon="-2.459204680507748"><ele>33.0</ele><time>2026-04-05T07:06:53Z</time></trkpt><trkpt lat="48.628284234884006" lon="-2.459107811659796"><ele>33.0</ele><time>2026-04-05T07:06:55Z</time></trkpt><trkpt lat="48.62834355818293" lon="-2.4590280936274422"><ele>33.0</ele><time>2026-04-05T07:06:57Z</time></trkpt><trkpt lat="48.62839440364608" lon="-2.4589289075517318"><ele>33.0</ele><time>2026-04-05T07:06:59Z</time></trkpt><trkpt lat="48.62845623537477" lon="-2.4588607792366464"><ele>33.0</ele><time>2026-04-05T07:07:01Z</time></trkpt><trkpt lat="48.62853186385996" lon="-2.45878106098196"><ele>33.0</ele><time>2026-04-05T07:07:03Z</time></trkpt><trkpt lat="48.628575888178865" lon="-2.4586356386273502"><ele>33.0</ele><time>2026-04-05T07:07:05Z</time></trkpt><trkpt lat="48.628621932320634" lon="-2.4585191641347244"><ele>33.0</ele><time>2026-04-05T07:07:07Z</time></trkpt><trkpt lat="48.628628813344804" lon="-2.4583833965609454"><ele>32.8</ele><time>2026-04-05T07:07:09Z</time></trkpt><trkpt lat="48.628671153733535" lon="-2.4582578621025304"><ele>32.599999999999994</ele><time>2026-04-05T07:07:11Z</time></trkpt><trkpt lat="48.62873471742297" lon="-2.4581445920598988"><ele>32.400000000000006</ele><time>2026-04-05T07:07:13Z</time></trkpt><trkpt lat="48.628803325479254" lon="-2.4581058922687555"><ele>32.2</ele><time>2026-04-05T07:07:14Z</time></trkpt><trkpt lat="48.62877872998782" lon="-2.457949333270253"><ele>32.0</ele><time>2026-04-05T07:07:16Z</time></trkpt><trkpt lat="48.6288370225394" lon="-2.4578342957557937"><ele>32.0</ele><time>2026-04-05T07:07:18Z</time></trkpt><trkpt lat="48.628877566279705" lon="-2.457705850953182"><ele>32.0</ele><time>2026-04-05T07:07:20Z</time></trkpt><trkpt lat="48.628908969951155" lon="-2.457562902323571"><ele>32.0</ele><time>2026-04-05T07:07:22Z</time></trkpt><trkpt lat="48.628942006289336" lon="-2.457415297841657"><ele>32.0</ele><time>2026-04-05T07:07:24Z</time></trkpt><trkpt lat="48.628977075599494" lon="-2.4572935449991435"><ele>32.0</ele><time>2026-04-05T07:07:26Z</time></trkpt><trkpt lat="48.629024445914304" lon="-2.4571827549471954"><ele>33.0</ele><time>2026-04-05T07:07:28Z</time></trkpt><trkpt lat="48.62910667211038" lon="-2.457093207565803"><ele>34.0</ele><time>2026-04-05T07:07:30Z</time></trkpt><trkpt lat="48.629175865533085" lon="-2.4570124132347373"><ele>35.0</ele><time>2026-04-05T07:07:33Z</time></trkpt><trkpt lat="48.629268490414105" lon="-2.4567585213608987"><ele>36.0</ele><time>2026-04-05T07:07:39Z</time></trkpt><trkpt lat="48.629375471492025" lon="-2.4567274292974277"><ele>36.0</ele><time>2026-04-05T07:07:42Z</time></trkpt><trkpt lat="48.629309854722386" lon="-2.4564766716225814"><ele>36.0</ele><time>2026-04-05T07:07:44Z</time></trkpt><trkpt lat="48.62933967102063" lon="-2.456357005990072"><ele>36.0</ele><time>2026-04-05T07:07:46Z</time></trkpt><trkpt lat="48.62935791969352" lon="-2.456236988590016"><ele>36.0</ele><time>2026-04-05T07:07:48Z</time></trkpt><trkpt lat="48.62937375618001" lon="-2.4561260795709368"><ele>36.0</ele><time>2026-04-05T07:07:50Z</time></trkpt><trkpt lat="48.629389979016125" lon="-2.4560148816825276"><ele>36.666666666666664</ele><time>2026-04-05T07:07:52Z</time></trkpt><trkpt lat="48.62939710243735" lon="-2.4558993312856376"><ele>37.333333333333336</ele><time>2026-04-05T07:07:54Z</time></trkpt><trkpt lat="48.62941600991267" lon="-2.4557719064636405"><ele>38.0</ele><time>2026-04-05T07:07:56.999Z</time></trkpt><trkpt lat="48.629417330612846" lon="-2.4556404563898035"><ele>38.66666666666667</ele><time>2026-04-05T07:07:59.999Z</time></trkpt><trkpt lat="48.629430697821334" lon="-2.455543566486146"><ele>39.333333333333336</ele><time>2026-04-05T07:08:01.999Z</time></trkpt><trkpt lat="48.62944062345827" lon="-2.455427360534821"><ele>40.0</ele><time>2026-04-05T07:08:03.999Z</time></trkpt><trkpt lat="48.62945272350126" lon="-2.4553014499876467"><ele>40.0</ele><time>2026-04-05T07:08:05.999Z</time></trkpt><trkpt lat="48.629470524949895" lon="-2.4551825172036845"><ele>40.0</ele><time>2026-04-05T07:08:07.999Z</time></trkpt><trkpt lat="48.629469946182105" lon="-2.4550763638317736"><ele>40.0</ele><time>2026-04-05T07:08:09.999Z</time></trkpt><trkpt lat="48.629470800692054" lon="-2.454970082381159"><ele>40.0</ele><time>2026-04-05T07:08:11.999Z</time></trkpt><trkpt lat="48.62948405457199" lon="-2.4548604374363245"><ele>40.0</ele><time>2026-04-05T07:08:13.999Z</time></trkpt><trkpt lat="48.62950866589927" lon="-2.4547436900900874"><ele>40.0</ele><time>2026-04-05T07:08:15.999Z</time></trkpt><trkpt lat="48.62954493364947" lon="-2.4546313244431683"><ele>38.4</ele><time>2026-04-05T07:08:17.999Z</time></trkpt><trkpt lat="48.62955247554605" lon="-2.4544652679635472"><ele>36.8</ele><time>2026-04-05T07:08:19.999Z</time></trkpt><trkpt lat="48.62956437211815" lon="-2.4543089609493354"><ele>35.2</ele><time>2026-04-05T07:08:21.999Z</time></trkpt><trkpt lat="48.62957031577625" lon="-2.454158095215181"><ele>33.6</ele><time>2026-04-05T07:08:23.999Z</time></trkpt><trkpt lat="48.62959441165493" lon="-2.4540021314111367"><ele>32.0</ele><time>2026-04-05T07:08:25.999Z</time></trkpt><trkpt lat="48.62960930153519" lon="-2.4538469270598444"><ele>32.4</ele><time>2026-04-05T07:08:27.999Z</time></trkpt><trkpt lat="48.62962896130009" lon="-2.4536833569400778"><ele>32.800000000000004</ele><time>2026-04-05T07:08:29.999Z</time></trkpt><trkpt lat="48.629648550679995" lon="-2.4535195373451857"><ele>33.2</ele><time>2026-04-05T07:08:31.999Z</time></trkpt><trkpt lat="48.62966601818552" lon="-2.45336530938023"><ele>33.6</ele><time>2026-04-05T07:08:33.999Z</time></trkpt><trkpt lat="48.62968378898532" lon="-2.4532658603442004"><ele>34.0</ele><time>2026-04-05T07:08:34.999Z</time></trkpt><trkpt lat="48.629700883947095" lon="-2.4530966970676737"><ele>34.2</ele><time>2026-04-05T07:08:36.999Z</time></trkpt><trkpt lat="48.629713589473745" lon="-2.452927504754598"><ele>34.4</ele><time>2026-04-05T07:08:38.999Z</time></trkpt><trkpt lat="48.62973177282732" lon="-2.4527597428090537"><ele>34.6</ele><time>2026-04-05T07:08:40.999Z</time></trkpt><trkpt lat="48.629754771442116" lon="-2.4525756554399667"><ele>34.8</ele><time>2026-04-05T07:08:42.999Z</time></trkpt><trkpt lat="48.62976768055553" lon="-2.452465643258696"><ele>35.0</ele><time>2026-04-05T07:08:43.999Z</time></trkpt><trkpt lat="48.629786675964425" lon="-2.4522981897599596"><ele>35.2</ele><time>2026-04-05T07:08:45.999Z</time></trkpt><trkpt lat="48.629795290598246" lon="-2.452111256978065"><ele>35.4</ele><time>2026-04-05T07:08:47.999Z</time></trkpt><trkpt lat="48.629817771939095" lon="-2.4519203785332593"><ele>35.6</ele><time>2026-04-05T07:08:49.999Z</time></trkpt><trkpt lat="48.6298414150565" lon="-2.451740229570897"><ele>35.8</ele><time>2026-04-05T07:08:52Z</time></trkpt><trkpt lat="48.62986977292787" lon="-2.451647059992224"><ele>36.0</ele><time>2026-04-05T07:08:53Z</time></trkpt><trkpt lat="48.6298818657869" lon="-2.4515502221473406"><ele>36.0</ele><time>2026-04-05T07:08:54Z</time></trkpt><trkpt lat="48.62989000822078" lon="-2.4514507308572764"><ele>36.0</ele><time>2026-04-05T07:08:55Z</time></trkpt><trkpt lat="48.629899413081226" lon="-2.4512726830446145"><ele>36.0</ele><time>2026-04-05T07:08:57Z</time></trkpt><trkpt lat="48.629935538563494" lon="-2.451090655524575"><ele>36.0</ele><time>2026-04-05T07:08:59Z</time></trkpt><trkpt lat="48.629930892993634" lon="-2.4509944413065496"><ele>36.0</ele><time>2026-04-05T07:09:00Z</time></trkpt><trkpt lat="48.629963364756605" lon="-2.450826722099146"><ele>36.0</ele><time>2026-04-05T07:09:02Z</time></trkpt><trkpt lat="48.62997748152847" lon="-2.4507303152732396"><ele>36.0</ele><time>2026-04-05T07:09:03Z</time></trkpt><trkpt lat="48.629986846064284" lon="-2.450547076486572"><ele>36.0</ele><time>2026-04-05T07:09:05Z</time></trkpt><trkpt lat="48.63000674667269" lon="-2.4503715548434895"><ele>36.0</ele><time>2026-04-05T07:09:07Z</time></trkpt><trkpt lat="48.6300276536292" lon="-2.4501942104549572"><ele>36.0</ele><time>2026-04-05T07:09:09Z</time></trkpt><trkpt lat="48.63005709770674" lon="-2.4500219883675576"><ele>36.0</ele><time>2026-04-05T07:09:11Z</time></trkpt><trkpt lat="48.63008582608878" lon="-2.4498704954444177"><ele>36.0</ele><time>2026-04-05T07:09:13Z</time></trkpt><trkpt lat="48.63011222806892" lon="-2.449706783599053"><ele>36.0</ele><time>2026-04-05T07:09:15Z</time></trkpt><trkpt lat="48.63016172776365" lon="-2.449553773506059"><ele>36.0</ele><time>2026-04-05T07:09:17Z</time></trkpt><trkpt lat="48.6302147412053" lon="-2.4494204491713076"><ele>36.0</ele><time>2026-04-05T07:09:19Z</time></trkpt><trkpt lat="48.63026427807432" lon="-2.4492898378534216"><ele>36.75</ele><time>2026-04-05T07:09:21Z</time></trkpt><trkpt lat="48.63031700702678" lon="-2.4491470727754048"><ele>37.5</ele><time>2026-04-05T07:09:23Z</time></trkpt><trkpt lat="48.63036424842585" lon="-2.4489987363050107"><ele>38.25</ele><time>2026-04-05T07:09:27Z</time></trkpt><trkpt lat="48.63039716248325" lon="-2.4489137668723444"><ele>39.0</ele><time>2026-04-05T07:09:30Z</time></trkpt><trkpt lat="48.63050493324756" lon="-2.4485213937427805"><ele>39.0</ele><time>2026-04-05T07:09:31Z</time></trkpt><trkpt lat="48.63055311486751" lon="-2.448363721228673"><ele>39.0</ele><time>2026-04-05T07:09:33Z</time></trkpt><trkpt lat="48.630600894427445" lon="-2.448199069531852"><ele>39.0</ele><time>2026-04-05T07:09:35Z</time></trkpt><trkpt lat="48.63063693637241" lon="-2.448040856055092"><ele>39.0</ele><time>2026-04-05T07:09:37Z</time></trkpt><trkpt lat="48.630667957477705" lon="-2.4478734208085156"><ele>39.5</ele><time>2026-04-05T07:09:39Z</time></trkpt><trkpt lat="48.63069822004774" lon="-2.447708613694697"><ele>40.0</ele><time>2026-04-05T07:09:41Z</time></trkpt><trkpt lat="48.630722938793745" lon="-2.4475394136605915"><ele>40.5</ele><time>2026-04-05T07:09:43Z</time></trkpt><trkpt lat="48.63074801901872" lon="-2.447376703915193"><ele>41.0</ele><time>2026-04-05T07:09:45Z</time></trkpt><trkpt lat="48.63078309337099" lon="-2.447213011399042"><ele>41.0</ele><time>2026-04-05T07:09:47Z</time></trkpt><trkpt lat="48.63080730401639" lon="-2.4470450520347904"><ele>41.0</ele><time>2026-04-05T07:09:49Z</time></trkpt><trkpt lat="48.63082665670342" lon="-2.446878717525606"><ele>41.0</ele><time>2026-04-05T07:09:51Z</time></trkpt><trkpt lat="48.63081766727938" lon="-2.4467041556374323"><ele>41.0</ele><time>2026-04-05T07:09:53Z</time></trkpt><trkpt lat="48.630837967373225" lon="-2.4465312430561816"><ele>41.0</ele><time>2026-04-05T07:09:55Z</time></trkpt><trkpt lat="48.63087067078205" lon="-2.4463615909268057"><ele>41.0</ele><time>2026-04-05T07:09:57Z</time></trkpt><trkpt lat="48.63088749025088" lon="-2.4461884563172522"><ele>41.0</ele><time>2026-04-05T07:09:59Z</time></trkpt><trkpt lat="48.63091148898914" lon="-2.446018682265085"><ele>41.0</ele><time>2026-04-05T07:10:01Z</time></trkpt><trkpt lat="48.63092741975638" lon="-2.445851543059942"><ele>41.599999999999994</ele><time>2026-04-05T07:10:03Z</time></trkpt><trkpt lat="48.63094979989526" lon="-2.44569927135354"><ele>42.2</ele><time>2026-04-05T07:10:05Z</time></trkpt><trkpt lat="48.63097102983801" lon="-2.4455417167531808"><ele>42.8</ele><time>2026-04-05T07:10:06.999Z</time></trkpt><trkpt lat="48.630977920246266" lon="-2.4453835145364997"><ele>43.400000000000006</ele><time>2026-04-05T07:10:08.999Z</time></trkpt><trkpt lat="48.630990457992915" lon="-2.445279795340526"><ele>44.0</ele><time>2026-04-05T07:10:10.999Z</time></trkpt><trkpt lat="48.6310028542851" lon="-2.445177243361412"><ele>44.5</ele><time>2026-04-05T07:10:12.999Z</time></trkpt><trkpt lat="48.63105800949028" lon="-2.4447976759891317"><ele>45.0</ele><time>2026-04-05T07:10:16.999Z</time></trkpt><trkpt lat="48.63107631833749" lon="-2.444662610178096"><ele>45.5</ele><time>2026-04-05T07:10:18.999Z</time></trkpt><trkpt lat="48.631093324921565" lon="-2.4445256768977934"><ele>46.0</ele><time>2026-04-05T07:10:20.999Z</time></trkpt><trkpt lat="48.63111029769493" lon="-2.4443811076505977"><ele>46.4</ele><time>2026-04-05T07:10:22.999Z</time></trkpt><trkpt lat="48.63111457981642" lon="-2.4442499570158196"><ele>46.8</ele><time>2026-04-05T07:10:24.999Z</time></trkpt><trkpt lat="48.63113766171176" lon="-2.4441125433720674"><ele>47.199999999999996</ele><time>2026-04-05T07:10:26.999Z</time></trkpt><trkpt lat="48.631157670428045" lon="-2.4439740044941933"><ele>47.599999999999994</ele><time>2026-04-05T07:10:28.999Z</time></trkpt><trkpt lat="48.631165801568756" lon="-2.443840793035781"><ele>48.0</ele><time>2026-04-05T07:10:30.999Z</time></trkpt><trkpt lat="48.631187994854656" lon="-2.4436998490453647"><ele>48.2</ele><time>2026-04-05T07:10:32.999Z</time></trkpt><trkpt lat="48.6312196731581" lon="-2.443577173927287"><ele>48.4</ele><time>2026-04-05T07:10:34.999Z</time></trkpt><trkpt lat="48.63122114615324" lon="-2.4434289822001842"><ele>48.6</ele><time>2026-04-05T07:10:36.999Z</time></trkpt><trkpt lat="48.63125073038629" lon="-2.443307517042796"><ele>48.800000000000004</ele><time>2026-04-05T07:10:38.999Z</time></trkpt><trkpt lat="48.63127385518106" lon="-2.4431346841349497"><ele>49.0</ele><time>2026-04-05T07:10:41.999Z</time></trkpt><trkpt lat="48.631275664982454" lon="-2.442996540696512"><ele>49.0</ele><time>2026-04-05T07:10:43.999Z</time></trkpt><trkpt lat="48.631295018687865" lon="-2.4428370055687596"><ele>49.0</ele><time>2026-04-05T07:10:45.999Z</time></trkpt><trkpt lat="48.63134085687224" lon="-2.4425557404650395"><ele>49.0</ele><time>2026-04-05T07:10:48.999Z</time></trkpt><trkpt lat="48.63134910878447" lon="-2.442397922885985"><ele>49.0</ele><time>2026-04-05T07:10:50.999Z</time></trkpt><trkpt lat="48.63136551168731" lon="-2.4422408356731475"><ele>49.400000000000006</ele><time>2026-04-05T07:10:52.999Z</time></trkpt><trkpt lat="48.63138848797213" lon="-2.4420812977281106"><ele>49.8</ele><time>2026-04-05T07:10:54.999Z</time></trkpt><trkpt lat="48.631406853880826" lon="-2.441930441272098"><ele>50.2</ele><time>2026-04-05T07:10:57Z</time></trkpt><trkpt lat="48.63141787703908" lon="-2.4417724150409796"><ele>50.599999999999994</ele><time>2026-04-05T07:10:59Z</time></trkpt><trkpt lat="48.63144652479484" lon="-2.44161845301975"><ele>51.0</ele><time>2026-04-05T07:11:01Z</time></trkpt><trkpt lat="48.63145696731536" lon="-2.441459485625456"><ele>51.0</ele><time>2026-04-05T07:11:03Z</time></trkpt><trkpt lat="48.63147668229505" lon="-2.441304385423919"><ele>51.0</ele><time>2026-04-05T07:11:05Z</time></trkpt><trkpt lat="48.63151045467426" lon="-2.4411581738376147"><ele>51.0</ele><time>2026-04-05T07:11:07Z</time></trkpt><trkpt lat="48.63152676035999" lon="-2.440997988446605"><ele>51.0</ele><time>2026-04-05T07:11:09Z</time></trkpt><trkpt lat="48.631548148639574" lon="-2.4408481298355187"><ele>51.0</ele><time>2026-04-05T07:11:11Z</time></trkpt><trkpt lat="48.6315668509602" lon="-2.440692520665567"><ele>51.4</ele><time>2026-04-05T07:11:13Z</time></trkpt><trkpt lat="48.631579342287715" lon="-2.440589081152927"><ele>51.8</ele><time>2026-04-05T07:11:15Z</time></trkpt><trkpt lat="48.631585035302244" lon="-2.44043407713688"><ele>52.199999999999996</ele><time>2026-04-05T07:11:17Z</time></trkpt><trkpt lat="48.63160993245671" lon="-2.440224379529329"><ele>52.599999999999994</ele><time>2026-04-05T07:11:19Z</time></trkpt><trkpt lat="48.63164303825122" lon="-2.4400736460622126"><ele>53.0</ele><time>2026-04-05T07:11:21Z</time></trkpt><trkpt lat="48.63165423016401" lon="-2.4399275087906367"><ele>53.0</ele><time>2026-04-05T07:11:23Z</time></trkpt><trkpt lat="48.6316690258593" lon="-2.439783917818185"><ele>53.0</ele><time>2026-04-05T07:11:25Z</time></trkpt><trkpt lat="48.63168942677017" lon="-2.43963680528463"><ele>53.0</ele><time>2026-04-05T07:11:27Z</time></trkpt><trkpt lat="48.63170427655493" lon="-2.4394884577065916"><ele>53.0</ele><time>2026-04-05T07:11:29Z</time></trkpt><trkpt lat="48.63171999944272" lon="-2.439335784836175"><ele>53.0</ele><time>2026-04-05T07:11:31Z</time></trkpt><trkpt lat="48.63177768006225" lon="-2.439289856142299"><ele>53.25</ele><time>2026-04-05T07:11:32Z</time></trkpt><trkpt lat="48.63175391255976" lon="-2.439097340162928"><ele>53.5</ele><time>2026-04-05T07:11:34Z</time></trkpt><trkpt lat="48.63178086147402" lon="-2.438927960802453"><ele>53.75</ele><time>2026-04-05T07:11:36Z</time></trkpt><trkpt lat="48.6318073269083" lon="-2.438760130238516"><ele>54.0</ele><time>2026-04-05T07:11:38Z</time></trkpt><trkpt lat="48.631823774844506" lon="-2.4385865009103704"><ele>54.25</ele><time>2026-04-05T07:11:40Z</time></trkpt><trkpt lat="48.63184381189013" lon="-2.438419036414128"><ele>54.5</ele><time>2026-04-05T07:11:42Z</time></trkpt><trkpt lat="48.63186579908555" lon="-2.4382414886358736"><ele>54.75</ele><time>2026-04-05T07:11:44Z</time></trkpt><trkpt lat="48.631891044363584" lon="-2.4380699992311174"><ele>55.0</ele><time>2026-04-05T07:11:46Z</time></trkpt><trkpt lat="48.631917186412984" lon="-2.4378859074985537"><ele>55.0</ele><time>2026-04-05T07:11:48Z</time></trkpt><trkpt lat="48.63194195653328" lon="-2.4377028191481473"><ele>55.0</ele><time>2026-04-05T07:11:50Z</time></trkpt><trkpt lat="48.63196248982624" lon="-2.4375216703808262"><ele>55.0</ele><time>2026-04-05T07:11:52Z</time></trkpt><trkpt lat="48.63198121310336" lon="-2.4373423255201843"><ele>55.0</ele><time>2026-04-05T07:11:54Z</time></trkpt><trkpt lat="48.632003805592504" lon="-2.437161366956573"><ele>54.49999999999999</ele><time>2026-04-05T07:11:56Z</time></trkpt><trkpt lat="48.632009007917894" lon="-2.437064774609364"><ele>54.0</ele><time>2026-04-05T07:11:57Z</time></trkpt><trkpt lat="48.632021504606094" lon="-2.4369706722256526"><ele>53.5</ele><time>2026-04-05T07:11:58Z</time></trkpt><trkpt lat="48.63204810943829" lon="-2.436790466683631"><ele>53.0</ele><time>2026-04-05T07:12:00Z</time></trkpt><trkpt lat="48.6320609810022" lon="-2.4366946695642384"><ele>52.49999999999999</ele><time>2026-04-05T07:12:01Z</time></trkpt><trkpt lat="48.63208922524679" lon="-2.4365149246011413"><ele>52.0</ele><time>2026-04-05T07:12:03Z</time></trkpt><trkpt lat="48.632116493970244" lon="-2.436365185208124"><ele>51.6</ele><time>2026-04-05T07:12:05Z</time></trkpt><trkpt lat="48.63212828256078" lon="-2.4361717680392503"><ele>51.2</ele><time>2026-04-05T07:12:07Z</time></trkpt><trkpt lat="48.63213515637059" lon="-2.436073831068505"><ele>50.8</ele><time>2026-04-05T07:12:08Z</time></trkpt><trkpt lat="48.63215079298642" lon="-2.4358851922319715"><ele>50.4</ele><time>2026-04-05T07:12:10Z</time></trkpt><trkpt lat="48.632174601788535" lon="-2.4357040250455246"><ele>50.0</ele><time>2026-04-05T07:12:12Z</time></trkpt><trkpt lat="48.63219604100655" lon="-2.435520716077349"><ele>50.0</ele><time>2026-04-05T07:12:13.999Z</time></trkpt><trkpt lat="48.63220882452124" lon="-2.435341115165171"><ele>50.0</ele><time>2026-04-05T07:12:15.999Z</time></trkpt><trkpt lat="48.63224718066434" lon="-2.435163229019418"><ele>50.0</ele><time>2026-04-05T07:12:17.999Z</time></trkpt><trkpt lat="48.63226558835741" lon="-2.434984070270148"><ele>50.0</ele><time>2026-04-05T07:12:19.999Z</time></trkpt><trkpt lat="48.63228580239108" lon="-2.434889857735442"><ele>50.0</ele><time>2026-04-05T07:12:20.999Z</time></trkpt><trkpt lat="48.63230252714613" lon="-2.434718794560236"><ele>49.8</ele><time>2026-04-05T07:12:22.999Z</time></trkpt><trkpt lat="48.63232389412942" lon="-2.434535218837363"><ele>49.6</ele><time>2026-04-05T07:12:24.999Z</time></trkpt><trkpt lat="48.63236463054401" lon="-2.434389911754523"><ele>49.400000000000006</ele><time>2026-04-05T07:12:26.999Z</time></trkpt><trkpt lat="48.632370324014765" lon="-2.4342404272592444"><ele>49.2</ele><time>2026-04-05T07:12:28.999Z</time></trkpt><trkpt lat="48.632396921723" lon="-2.434099762191207"><ele>49.0</ele><time>2026-04-05T07:12:30.999Z</time></trkpt><trkpt lat="48.63241634119485" lon="-2.433969207490336"><ele>48.99999999999999</ele><time>2026-04-05T07:12:32.999Z</time></trkpt><trkpt lat="48.63243829480013" lon="-2.433848938415249"><ele>49.0</ele><time>2026-04-05T07:12:34.999Z</time></trkpt><trkpt lat="48.63244383955237" lon="-2.433687186487517"><ele>49.0</ele><time>2026-04-05T07:12:36.999Z</time></trkpt><trkpt lat="48.632436660008054" lon="-2.433580466825484"><ele>49.0</ele><time>2026-04-05T07:12:38.999Z</time></trkpt><trkpt lat="48.632446854303815" lon="-2.4334588899771705"><ele>48.99999999999999</ele><time>2026-04-05T07:12:42.999Z</time></trkpt><trkpt lat="48.632468866891905" lon="-2.4333652972090483"><ele>49.0</ele><time>2026-04-05T07:12:44.999Z</time></trkpt><trkpt lat="48.632505587056514" lon="-2.4332738951973774"><ele>48.83333333333333</ele><time>2026-04-05T07:12:46.999Z</time></trkpt><trkpt lat="48.63253345550902" lon="-2.4331594849046105"><ele>48.666666666666664</ele><time>2026-04-05T07:12:48.999Z</time></trkpt><trkpt lat="48.63256930197199" lon="-2.4330464500975575"><ele>48.5</ele><time>2026-04-05T07:12:50.999Z</time></trkpt><trkpt lat="48.63259290850782" lon="-2.4329467949378003"><ele>48.33333333333333</ele><time>2026-04-05T07:12:52.999Z</time></trkpt><trkpt lat="48.63263149128506" lon="-2.4328226862806743"><ele>48.166666666666664</ele><time>2026-04-05T07:12:55.999Z</time></trkpt><trkpt lat="48.632669825088705" lon="-2.4327330770855617"><ele>48.0</ele><time>2026-04-05T07:12:57.999Z</time></trkpt><trkpt lat="48.63273408985129" lon="-2.4326429459369225"><ele>47.599999999999994</ele><time>2026-04-05T07:12:59.999Z</time></trkpt><trkpt lat="48.632796036075746" lon="-2.432529604751079"><ele>47.199999999999996</ele><time>2026-04-05T07:13:01.999Z</time></trkpt><trkpt lat="48.632867898956974" lon="-2.4324197863017907"><ele>46.8</ele><time>2026-04-05T07:13:04Z</time></trkpt><trkpt lat="48.632946685757126" lon="-2.432326145154337"><ele>46.4</ele><time>2026-04-05T07:13:06Z</time></trkpt><trkpt lat="48.633013297577854" lon="-2.4321869562858525"><ele>46.0</ele><time>2026-04-05T07:13:08Z</time></trkpt><trkpt lat="48.63310713415456" lon="-2.432059575975301"><ele>46.0</ele><time>2026-04-05T07:13:10Z</time></trkpt><trkpt lat="48.6331384809893" lon="-2.431965668636871"><ele>46.0</ele><time>2026-04-05T07:13:11Z</time></trkpt><trkpt lat="48.63322651457582" lon="-2.4318089233241893"><ele>46.0</ele><time>2026-04-05T07:13:13Z</time></trkpt><trkpt lat="48.63326331392189" lon="-2.4317206234394564"><ele>46.0</ele><time>2026-04-05T07:13:14Z</time></trkpt><trkpt lat="48.633295007119415" lon="-2.431636850750336"><ele>46.0</ele><time>2026-04-05T07:13:15Z</time></trkpt><trkpt lat="48.63335939712557" lon="-2.4314566391659302"><ele>46.0</ele><time>2026-04-05T07:13:17Z</time></trkpt><trkpt lat="48.633390379326904" lon="-2.431361079686682"><ele>46.0</ele><time>2026-04-05T07:13:18Z</time></trkpt><trkpt lat="48.63343049639221" lon="-2.4312719599821198"><ele>46.0</ele><time>2026-04-05T07:13:19Z</time></trkpt><trkpt lat="48.633441491697724" lon="-2.4311743932387255"><ele>46.0</ele><time>2026-04-05T07:13:20Z</time></trkpt><trkpt lat="48.63345542716649" lon="-2.431074360496556"><ele>46.0</ele><time>2026-04-05T07:13:21Z</time></trkpt><trkpt lat="48.633469297930326" lon="-2.43097891366692"><ele>46.0</ele><time>2026-04-05T07:13:22Z</time></trkpt><trkpt lat="48.63346463837704" lon="-2.4308671672521722"><ele>46.0</ele><time>2026-04-05T07:13:23Z</time></trkpt><trkpt lat="48.63347242155497" lon="-2.4306774607844135"><ele>46.16666666666667</ele><time>2026-04-05T07:13:25Z</time></trkpt><trkpt lat="48.6334702981979" lon="-2.4305739725852287"><ele>46.333333333333336</ele><time>2026-04-05T07:13:26Z</time></trkpt><trkpt lat="48.63346274791992" lon="-2.430470367337528"><ele>46.5</ele><time>2026-04-05T07:13:27Z</time></trkpt><trkpt lat="48.6334379052805" lon="-2.430367233738637"><ele>46.666666666666664</ele><time>2026-04-05T07:13:28Z</time></trkpt><trkpt lat="48.63340662356229" lon="-2.4301756139370223"><ele>46.83333333333333</ele><time>2026-04-05T07:13:30Z</time></trkpt><trkpt lat="48.6333907955975" lon="-2.4300786578935742"><ele>47.0</ele><time>2026-04-05T07:13:31Z</time></trkpt><trkpt lat="48.633375225400336" lon="-2.4299832808410873"><ele>46.666666666666664</ele><time>2026-04-05T07:13:32Z</time></trkpt><trkpt lat="48.63338013813342" lon="-2.429881474827643"><ele>46.33333333333333</ele><time>2026-04-05T07:13:33Z</time></trkpt><trkpt lat="48.63335406611166" lon="-2.429778223992487"><ele>46.0</ele><time>2026-04-05T07:13:34Z</time></trkpt><trkpt lat="48.63332691073201" lon="-2.42967265597866"><ele>45.666666666666664</ele><time>2026-04-05T07:13:35Z</time></trkpt><trkpt lat="48.63332229869913" lon="-2.429568130977419"><ele>45.333333333333336</ele><time>2026-04-05T07:13:36Z</time></trkpt><trkpt lat="48.63327656459671" lon="-2.4293786857715127"><ele>45.0</ele><time>2026-04-05T07:13:38Z</time></trkpt><trkpt lat="48.633263337228215" lon="-2.4292367904202883"><ele>44.857142857142854</ele><time>2026-04-05T07:13:39Z</time></trkpt><trkpt lat="48.63326671089227" lon="-2.4291261498807573"><ele>44.714285714285715</ele><time>2026-04-05T07:13:40Z</time></trkpt><trkpt lat="48.633262990482415" lon="-2.4290164427880874"><ele>44.57142857142857</ele><time>2026-04-05T07:13:41Z</time></trkpt><trkpt lat="48.633243255740155" lon="-2.4289166042958916"><ele>44.42857142857143</ele><time>2026-04-05T07:13:42Z</time></trkpt><trkpt lat="48.63323385731393" lon="-2.428810912556912"><ele>44.285714285714285</ele><time>2026-04-05T07:13:43Z</time></trkpt><trkpt lat="48.63323500836991" lon="-2.428687561151604"><ele>44.142857142857146</ele><time>2026-04-05T07:13:44Z</time></trkpt><trkpt lat="48.63323031807819" lon="-2.428585709213383"><ele>44.0</ele><time>2026-04-05T07:13:45Z</time></trkpt><trkpt lat="48.633230279703916" lon="-2.428483709480924"><ele>43.42857142857143</ele><time>2026-04-05T07:13:46Z</time></trkpt><trkpt lat="48.63322744849129" lon="-2.4283696380078448"><ele>42.857142857142854</ele><time>2026-04-05T07:13:47Z</time></trkpt><trkpt lat="48.6332354795201" lon="-2.428266219329919"><ele>42.285714285714285</ele><time>2026-04-05T07:13:48Z</time></trkpt><trkpt lat="48.63324187412473" lon="-2.4281450281853942"><ele>41.714285714285715</ele><time>2026-04-05T07:13:49Z</time></trkpt><trkpt lat="48.633242979735094" lon="-2.4280449614943036"><ele>41.142857142857146</ele><time>2026-04-05T07:13:50Z</time></trkpt><trkpt lat="48.63325372075576" lon="-2.427934820030788"><ele>40.57142857142857</ele><time>2026-04-05T07:13:51Z</time></trkpt><trkpt lat="48.633272724152796" lon="-2.4278288803137875"><ele>40.0</ele><time>2026-04-05T07:13:52Z</time></trkpt><trkpt lat="48.63328666227464" lon="-2.4277303058301523"><ele>39.714285714285715</ele><time>2026-04-05T07:13:53Z</time></trkpt><trkpt lat="48.633294738841784" lon="-2.427616987654385"><ele>39.42857142857143</ele><time>2026-04-05T07:13:54Z</time></trkpt><trkpt lat="48.63330787208922" lon="-2.427503842484467"><ele>39.14285714285714</ele><time>2026-04-05T07:13:55Z</time></trkpt><trkpt lat="48.633317546330126" lon="-2.427395581307648"><ele>38.85714285714286</ele><time>2026-04-05T07:13:56Z</time></trkpt><trkpt lat="48.633315047985484" lon="-2.427277824839344"><ele>38.57142857142858</ele><time>2026-04-05T07:13:57Z</time></trkpt><trkpt lat="48.633317308106946" lon="-2.427179604185076"><ele>38.285714285714285</ele><time>2026-04-05T07:13:58Z</time></trkpt><trkpt lat="48.633313261668555" lon="-2.4270658717217652"><ele>38.0</ele><time>2026-04-05T07:13:59Z</time></trkpt><trkpt lat="48.633279882419046" lon="-2.4268637295116777"><ele>37.714285714285715</ele><time>2026-04-05T07:14:01Z</time></trkpt><trkpt lat="48.63327072157773" lon="-2.4267584191518226"><ele>37.42857142857143</ele><time>2026-04-05T07:14:02Z</time></trkpt><trkpt lat="48.633217876692306" lon="-2.4266350434193"><ele>37.142857142857146</ele><time>2026-04-05T07:14:03Z</time></trkpt><trkpt lat="48.633196312828936" lon="-2.426539864929253"><ele>36.85714285714286</ele><time>2026-04-05T07:14:04Z</time></trkpt><trkpt lat="48.633161955231046" lon="-2.4264479954861846"><ele>36.57142857142857</ele><time>2026-04-05T07:14:05Z</time></trkpt><trkpt lat="48.633125950242764" lon="-2.4263504634720485"><ele>36.28571428571429</ele><time>2026-04-05T07:14:06Z</time></trkpt><trkpt lat="48.6330834796722" lon="-2.426264706566198"><ele>36.0</ele><time>2026-04-05T07:14:07Z</time></trkpt><trkpt lat="48.6330548953163" lon="-2.42617186105254"><ele>35.833333333333336</ele><time>2026-04-05T07:14:08Z</time></trkpt><trkpt lat="48.63301915757186" lon="-2.4260726044924974"><ele>35.666666666666664</ele><time>2026-04-05T07:14:09Z</time></trkpt><trkpt lat="48.6329811174822" lon="-2.425983995642369"><ele>35.5</ele><time>2026-04-05T07:14:10Z</time></trkpt><trkpt lat="48.63293433611885" lon="-2.4258985293822612"><ele>35.33333333333333</ele><time>2026-04-05T07:14:11Z</time></trkpt><trkpt lat="48.63285046231396" lon="-2.425759929471946"><ele>35.166666666666664</ele><time>2026-04-05T07:14:13Z</time></trkpt><trkpt lat="48.63281092009317" lon="-2.4256652972840067"><ele>35.0</ele><time>2026-04-05T07:14:14Z</time></trkpt><trkpt lat="48.63276785341483" lon="-2.425579008503073"><ele>35.666666666666664</ele><time>2026-04-05T07:14:15Z</time></trkpt><trkpt lat="48.6327266120043" lon="-2.42549850232056"><ele>36.33333333333333</ele><time>2026-04-05T07:14:16Z</time></trkpt><trkpt lat="48.63270232570662" lon="-2.425399099048856"><ele>37.0</ele><time>2026-04-05T07:14:17Z</time></trkpt><trkpt lat="48.63264650696621" lon="-2.4252238337222773"><ele>37.666666666666664</ele><time>2026-04-05T07:14:19Z</time></trkpt><trkpt lat="48.63261737115869" lon="-2.425133165517512"><ele>38.333333333333336</ele><time>2026-04-05T07:14:20Z</time></trkpt><trkpt lat="48.632612315462794" lon="-2.4250331989123133"><ele>39.0</ele><time>2026-04-05T07:14:21Z</time></trkpt><trkpt lat="48.63262320421207" lon="-2.4249057997938603"><ele>39.0</ele><time>2026-04-05T07:14:22Z</time></trkpt><trkpt lat="48.63262137094639" lon="-2.424693561923996"><ele>39.0</ele><time>2026-04-05T07:14:23.999Z</time></trkpt><trkpt lat="48.632621571873784" lon="-2.4245200080967306"><ele>39.0</ele><time>2026-04-05T07:14:25.999Z</time></trkpt><trkpt lat="48.632619431417154" lon="-2.424341022009314"><ele>39.0</ele><time>2026-04-05T07:14:27.999Z</time></trkpt><trkpt lat="48.63263599250093" lon="-2.424239491294035"><ele>39.0</ele><time>2026-04-05T07:14:28.999Z</time></trkpt><trkpt lat="48.6326507844631" lon="-2.4241369747289467"><ele>39.166666666666664</ele><time>2026-04-05T07:14:29.999Z</time></trkpt><trkpt lat="48.632701753490025" lon="-2.4240144768701937"><ele>39.333333333333336</ele><time>2026-04-05T07:14:30.999Z</time></trkpt><trkpt lat="48.632735073493926" lon="-2.4238837418575914"><ele>39.5</ele><time>2026-04-05T07:14:31.999Z</time></trkpt><trkpt lat="48.63276438603843" lon="-2.4237843515682362"><ele>39.66666666666667</ele><time>2026-04-05T07:14:33.999Z</time></trkpt><trkpt lat="48.632803873737494" lon="-2.4236966827137887"><ele>39.833333333333336</ele><time>2026-04-05T07:14:34.999Z</time></trkpt><trkpt lat="48.63284535560412" lon="-2.4236056363899827"><ele>40.0</ele><time>2026-04-05T07:14:35.999Z</time></trkpt><trkpt lat="48.63288786706715" lon="-2.4234543825793318"><ele>39.0</ele><time>2026-04-05T07:14:37.999Z</time></trkpt><trkpt lat="48.63295992725141" lon="-2.423377006369768"><ele>38.0</ele><time>2026-04-05T07:14:38.999Z</time></trkpt><trkpt lat="48.63302373719604" lon="-2.4233190980707495"><ele>37.0</ele><time>2026-04-05T07:14:39.999Z</time></trkpt><trkpt lat="48.63308629964953" lon="-2.423244531536495"><ele>36.0</ele><time>2026-04-05T07:14:40.999Z</time></trkpt><trkpt lat="48.633161949381" lon="-2.4231733214315647"><ele>35.0</ele><time>2026-04-05T07:14:41.999Z</time></trkpt><trkpt lat="48.63322783533642" lon="-2.4230725072648043"><ele>34.0</ele><time>2026-04-05T07:14:42.999Z</time></trkpt><trkpt lat="48.63327953351606" lon="-2.422978372715596"><ele>33.99999999999999</ele><time>2026-04-05T07:14:43.999Z</time></trkpt><trkpt lat="48.63332323446834" lon="-2.4228840297626153"><ele>34.0</ele><time>2026-04-05T07:14:44.999Z</time></trkpt><trkpt lat="48.633380421196385" lon="-2.422807555814867"><ele>34.0</ele><time>2026-04-05T07:14:45.999Z</time></trkpt><trkpt lat="48.633432093898385" lon="-2.4227213653205677"><ele>34.0</ele><time>2026-04-05T07:14:46.999Z</time></trkpt><trkpt lat="48.63346894163" lon="-2.422632991734799"><ele>34.0</ele><time>2026-04-05T07:14:47.999Z</time></trkpt><trkpt lat="48.633498057999596" lon="-2.422540836770423"><ele>33.99999999999999</ele><time>2026-04-05T07:14:48.999Z</time></trkpt><trkpt lat="48.6335331121435" lon="-2.422436543934254"><ele>34.0</ele><time>2026-04-05T07:14:49.999Z</time></trkpt><trkpt lat="48.63356380913743" lon="-2.4223324013628225"><ele>33.99999999999999</ele><time>2026-04-05T07:14:50.999Z</time></trkpt><trkpt lat="48.63359463060588" lon="-2.422238782435373"><ele>34.0</ele><time>2026-04-05T07:14:51.999Z</time></trkpt><trkpt lat="48.63362820487258" lon="-2.422149260176409"><ele>34.0</ele><time>2026-04-05T07:14:52.999Z</time></trkpt><trkpt lat="48.63364687779229" lon="-2.4220418043058665"><ele>34.0</ele><time>2026-04-05T07:14:53.999Z</time></trkpt><trkpt lat="48.633650047423224" lon="-2.4219339723009656"><ele>34.0</ele><time>2026-04-05T07:14:54.999Z</time></trkpt><trkpt lat="48.6336626262365" lon="-2.4218153529920854"><ele>33.99999999999999</ele><time>2026-04-05T07:14:55.999Z</time></trkpt><trkpt lat="48.63368263291591" lon="-2.4217084941128624"><ele>34.0</ele><time>2026-04-05T07:14:56.999Z</time></trkpt><trkpt lat="48.633687483777955" lon="-2.421603129383889"><ele>31.4</ele><time>2026-04-05T07:14:57.999Z</time></trkpt><trkpt lat="48.63368576993486" lon="-2.4213846452884837"><ele>28.799999999999997</ele><time>2026-04-05T07:14:59.999Z</time></trkpt><trkpt lat="48.63369452852826" lon="-2.4212576124519054"><ele>26.200000000000003</ele><time>2026-04-05T07:15:00.999Z</time></trkpt><trkpt lat="48.63368413873859" lon="-2.421076187214024"><ele>23.6</ele><time>2026-04-05T07:15:02.999Z</time></trkpt><trkpt lat="48.63366914904146" lon="-2.4209828019716815"><ele>21.0</ele><time>2026-04-05T07:15:03.999Z</time></trkpt><trkpt lat="48.63363069962403" lon="-2.4208114616820375"><ele>20.8</ele><time>2026-04-05T07:15:05.999Z</time></trkpt><trkpt lat="48.6335979272508" lon="-2.420634486596375"><ele>20.6</ele><time>2026-04-05T07:15:07.999Z</time></trkpt><trkpt lat="48.63353139873494" lon="-2.4204753354249395"><ele>20.4</ele><time>2026-04-05T07:15:10Z</time></trkpt><trkpt lat="48.63350267370943" lon="-2.420390147216806"><ele>20.2</ele><time>2026-04-05T07:15:11Z</time></trkpt><trkpt lat="48.633440088782436" lon="-2.4202299790189006"><ele>20.0</ele><time>2026-04-05T07:15:13Z</time></trkpt><trkpt lat="48.633389905344536" lon="-2.420059764188574"><ele>18.57142857142857</ele><time>2026-04-05T07:15:15Z</time></trkpt><trkpt lat="48.63336335864709" lon="-2.419961308391324"><ele>17.142857142857142</ele><time>2026-04-05T07:15:16Z</time></trkpt><trkpt lat="48.63333177532257" lon="-2.419861021502971"><ele>15.714285714285715</ele><time>2026-04-05T07:15:17Z</time></trkpt><trkpt lat="48.633302806146176" lon="-2.419757206582077"><ele>14.285714285714285</ele><time>2026-04-05T07:15:18Z</time></trkpt><trkpt lat="48.63327259129299" lon="-2.4196588298356527"><ele>12.857142857142858</ele><time>2026-04-05T07:15:19Z</time></trkpt><trkpt lat="48.63324297589879" lon="-2.419554080709098"><ele>11.428571428571429</ele><time>2026-04-05T07:15:20Z</time></trkpt><trkpt lat="48.633212580894494" lon="-2.419453837518258"><ele>10.0</ele><time>2026-04-05T07:15:21Z</time></trkpt><trkpt lat="48.63318384847444" lon="-2.419356242335354"><ele>9.285714285714285</ele><time>2026-04-05T07:15:22Z</time></trkpt><trkpt lat="48.63315502315249" lon="-2.419256542810977"><ele>8.571428571428571</ele><time>2026-04-05T07:15:23Z</time></trkpt><trkpt lat="48.63312273312885" lon="-2.4191617780345656"><ele>7.857142857142858</ele><time>2026-04-05T07:15:24Z</time></trkpt><trkpt lat="48.63309206820308" lon="-2.4190666306838047"><ele>7.142857142857142</ele><time>2026-04-05T07:15:25Z</time></trkpt><trkpt lat="48.63306532071044" lon="-2.4189694920801315"><ele>6.428571428571429</ele><time>2026-04-05T07:15:26Z</time></trkpt><trkpt lat="48.63303591278739" lon="-2.4188733665411606"><ele>5.714285714285714</ele><time>2026-04-05T07:15:27Z</time></trkpt><trkpt lat="48.63300840353341" lon="-2.4187753046409086"><ele>5.0</ele><time>2026-04-05T07:15:28Z</time></trkpt><trkpt lat="48.632977113804905" lon="-2.418684366709258"><ele>4.857142857142857</ele><time>2026-04-05T07:15:29Z</time></trkpt><trkpt lat="48.632948706431804" lon="-2.4185896637352866"><ele>4.714285714285714</ele><time>2026-04-05T07:15:30Z</time></trkpt><trkpt lat="48.632924430903" lon="-2.418491562145713"><ele>4.571428571428571</ele><time>2026-04-05T07:15:31Z</time></trkpt><trkpt lat="48.63289723850818" lon="-2.418398793994306"><ele>4.428571428571429</ele><time>2026-04-05T07:15:32Z</time></trkpt><trkpt lat="48.632869554405545" lon="-2.418308275999716"><ele>4.285714285714286</ele><time>2026-04-05T07:15:33Z</time></trkpt><trkpt lat="48.63284294050247" lon="-2.4182140339933134"><ele>4.142857142857142</ele><time>2026-04-05T07:15:34Z</time></trkpt><trkpt lat="48.63281721348369" lon="-2.418117285905404"><ele>4.0</ele><time>2026-04-05T07:15:35Z</time></trkpt><trkpt lat="48.63278612025524" lon="-2.418023300031691"><ele>4.4</ele><time>2026-04-05T07:15:36Z</time></trkpt><trkpt lat="48.63273199774087" lon="-2.4178507310509634"><ele>4.800000000000001</ele><time>2026-04-05T07:15:38Z</time></trkpt><trkpt lat="48.63270116830595" lon="-2.4177668323365946"><ele>5.199999999999999</ele><time>2026-04-05T07:15:39Z</time></trkpt><trkpt lat="48.6326494066826" lon="-2.417604981480064"><ele>5.6</ele><time>2026-04-05T07:15:41Z</time></trkpt><trkpt lat="48.632600395146504" lon="-2.417452496160757"><ele>6.0</ele><time>2026-04-05T07:15:43Z</time></trkpt><trkpt lat="48.6325524427085" lon="-2.4173097845854334"><ele>6.0</ele><time>2026-04-05T07:15:45Z</time></trkpt><trkpt lat="48.632507613236235" lon="-2.417186693989817"><ele>6.0</ele><time>2026-04-05T07:15:47Z</time></trkpt><trkpt lat="48.63246813956678" lon="-2.4170650914756013"><ele>6.0</ele><time>2026-04-05T07:15:49Z</time></trkpt><trkpt lat="48.63242597883005" lon="-2.416913652187713"><ele>6.0</ele><time>2026-04-05T07:15:51Z</time></trkpt><trkpt lat="48.6323808866193" lon="-2.416750047841196"><ele>6.0</ele><time>2026-04-05T07:15:53Z</time></trkpt><trkpt lat="48.6323342329721" lon="-2.416580061086773"><ele>6.166666666666667</ele><time>2026-04-05T07:15:55Z</time></trkpt><trkpt lat="48.632279977931894" lon="-2.4164527989509494"><ele>6.333333333333334</ele><time>2026-04-05T07:15:57Z</time></trkpt><trkpt lat="48.63223595529847" lon="-2.416363280266677"><ele>6.5</ele><time>2026-04-05T07:15:59Z</time></trkpt><trkpt lat="48.63218026283138" lon="-2.4162432055820795"><ele>6.666666666666667</ele><time>2026-04-05T07:16:01Z</time></trkpt><trkpt lat="48.63216587183938" lon="-2.416107858149533"><ele>6.833333333333334</ele><time>2026-04-05T07:16:04Z</time></trkpt><trkpt lat="48.632168066815055" lon="-2.415989216766213"><ele>7.0</ele><time>2026-04-05T07:16:07Z</time></trkpt><trkpt lat="48.63213827912" lon="-2.415848781780938"><ele>7.0</ele><time>2026-04-05T07:16:09Z</time></trkpt><trkpt lat="48.63211879236181" lon="-2.4156377605097927"><ele>7.0</ele><time>2026-04-05T07:16:11Z</time></trkpt><trkpt lat="48.63206141466247" lon="-2.415303512208347"><ele>7.0</ele><time>2026-04-05T07:16:14Z</time></trkpt><trkpt lat="48.63203710308417" lon="-2.415136029118734"><ele>7.199999999999999</ele><time>2026-04-05T07:16:16Z</time></trkpt><trkpt lat="48.63202145928111" lon="-2.4149770596123097"><ele>7.3999999999999995</ele><time>2026-04-05T07:16:18Z</time></trkpt><trkpt lat="48.63199955223522" lon="-2.414839056348621"><ele>7.6000000000000005</ele><time>2026-04-05T07:16:20Z</time></trkpt><trkpt lat="48.631978431662404" lon="-2.4146730958591216"><ele>7.800000000000001</ele><time>2026-04-05T07:16:22Z</time></trkpt><trkpt lat="48.63195522666097" lon="-2.4144994222609677"><ele>8.0</ele><time>2026-04-05T07:16:24Z</time></trkpt><trkpt lat="48.63194113470843" lon="-2.4143529613960797"><ele>8.0</ele><time>2026-04-05T07:16:26Z</time></trkpt><trkpt lat="48.63192361674953" lon="-2.4142387303116712"><ele>8.0</ele><time>2026-04-05T07:16:27.999Z</time></trkpt><trkpt lat="48.63205514144379" lon="-2.4141822767181074"><ele>8.0</ele><time>2026-04-05T07:16:30.999Z</time></trkpt><trkpt lat="48.63201684162556" lon="-2.414105764748787"><ele>8.0</ele><time>2026-04-05T07:16:31.999Z</time></trkpt><trkpt lat="48.63190732759703" lon="-2.41401166281964"><ele>8.0</ele><time>2026-04-05T07:16:33.999Z</time></trkpt><trkpt lat="48.631899768947825" lon="-2.413885295041263"><ele>8.200000000000001</ele><time>2026-04-05T07:16:35.999Z</time></trkpt><trkpt lat="48.63189471391657" lon="-2.4137493629014"><ele>8.4</ele><time>2026-04-05T07:16:37.999Z</time></trkpt><trkpt lat="48.631891229532876" lon="-2.4136165013434705"><ele>8.600000000000001</ele><time>2026-04-05T07:16:39.999Z</time></trkpt><trkpt lat="48.63197663812469" lon="-2.4134904968619533"><ele>8.8</ele><time>2026-04-05T07:16:41.999Z</time></trkpt><trkpt lat="48.63201634130103" lon="-2.4133806601559744"><ele>9.0</ele><time>2026-04-05T07:16:43.999Z</time></trkpt><trkpt lat="48.632034605743094" lon="-2.4132594770610805"><ele>8.8</ele><time>2026-04-05T07:16:45.999Z</time></trkpt><trkpt lat="48.63205991971044" lon="-2.413130927848968"><ele>8.600000000000001</ele><time>2026-04-05T07:16:47.999Z</time></trkpt><trkpt lat="48.63210446068955" lon="-2.4130099992549274"><ele>8.4</ele><time>2026-04-05T07:16:49.999Z</time></trkpt><trkpt lat="48.63214619172401" lon="-2.4128913286534712"><ele>8.200000000000001</ele><time>2026-04-05T07:16:51.999Z</time></trkpt><trkpt lat="48.632167237259026" lon="-2.4127515733563953"><ele>8.0</ele><time>2026-04-05T07:16:53.999Z</time></trkpt><trkpt lat="48.63216232664407" lon="-2.412619744401852"><ele>7.999999999999999</ele><time>2026-04-05T07:16:55.999Z</time></trkpt><trkpt lat="48.632167630597976" lon="-2.412502852538403"><ele>8.0</ele><time>2026-04-05T07:16:57.999Z</time></trkpt><trkpt lat="48.63220704163444" lon="-2.4123847047927245"><ele>8.0</ele><time>2026-04-05T07:16:59.999Z</time></trkpt><trkpt lat="48.63227144616108" lon="-2.4122801241528533"><ele>8.0</ele><time>2026-04-05T07:17:01.999Z</time></trkpt><trkpt lat="48.63233019770353" lon="-2.4121772089454936"><ele>7.999999999999999</ele><time>2026-04-05T07:17:03.999Z</time></trkpt><trkpt lat="48.63239786565558" lon="-2.4120870941225863"><ele>8.0</ele><time>2026-04-05T07:17:05.999Z</time></trkpt><trkpt lat="48.63248134842487" lon="-2.4119907324894845"><ele>7.6000000000000005</ele><time>2026-04-05T07:17:07.999Z</time></trkpt><trkpt lat="48.63255685427227" lon="-2.411864338101193"><ele>7.200000000000001</ele><time>2026-04-05T07:17:09.999Z</time></trkpt><trkpt lat="48.632651566389505" lon="-2.4117682433926144"><ele>6.8</ele><time>2026-04-05T07:17:11.999Z</time></trkpt><trkpt lat="48.63273155762404" lon="-2.4116840724593507"><ele>6.4</ele><time>2026-04-05T07:17:13.999Z</time></trkpt><trkpt lat="48.632800878323394" lon="-2.4116096794414217"><ele>6.0</ele><time>2026-04-05T07:17:16Z</time></trkpt><trkpt lat="48.63286627790304" lon="-2.4115430834795117"><ele>6.0</ele><time>2026-04-05T07:17:18Z</time></trkpt><trkpt lat="48.632957274390286" lon="-2.411483562627549"><ele>6.0</ele><time>2026-04-05T07:17:21Z</time></trkpt><trkpt lat="48.63308777403399" lon="-2.411688901270406"><ele>6.0</ele><time>2026-04-05T07:17:22Z</time></trkpt><trkpt lat="48.633154073022" lon="-2.411679012078128"><ele>6.0</ele><time>2026-04-05T07:17:23Z</time></trkpt><trkpt lat="48.633281673829714" lon="-2.4116479887321303"><ele>6.0</ele><time>2026-04-05T07:17:25Z</time></trkpt><trkpt lat="48.6333476638484" lon="-2.4116280660044866"><ele>6.0</ele><time>2026-04-05T07:17:26Z</time></trkpt><trkpt lat="48.633458610865" lon="-2.4115661419246184"><ele>6.0</ele><time>2026-04-05T07:17:28Z</time></trkpt><trkpt lat="48.633517952429976" lon="-2.4115337415317075"><ele>6.0</ele><time>2026-04-05T07:17:29Z</time></trkpt><trkpt lat="48.63358041993041" lon="-2.4115008045340476"><ele>6.0</ele><time>2026-04-05T07:17:30Z</time></trkpt><trkpt lat="48.63369533859407" lon="-2.411465581069031"><ele>6.0</ele><time>2026-04-05T07:17:32Z</time></trkpt><trkpt lat="48.63381176500908" lon="-2.411477579342286"><ele>6.0</ele><time>2026-04-05T07:17:34Z</time></trkpt><trkpt lat="48.63392183019776" lon="-2.4115232565253897"><ele>6.0</ele><time>2026-04-05T07:17:36Z</time></trkpt><trkpt lat="48.634014497595075" lon="-2.4114640281391324"><ele>6.0</ele><time>2026-04-05T07:17:38Z</time></trkpt><trkpt lat="48.63409692224634" lon="-2.411327990851377"><ele>6.0</ele><time>2026-04-05T07:17:40Z</time></trkpt><trkpt lat="48.63419379169348" lon="-2.4112105337693164"><ele>6.0</ele><time>2026-04-05T07:17:42Z</time></trkpt><trkpt lat="48.634284542174356" lon="-2.4110840189029052"><ele>6.0</ele><time>2026-04-05T07:17:44Z</time></trkpt><trkpt lat="48.634377337177554" lon="-2.4109637569899114"><ele>6.0</ele><time>2026-04-05T07:17:46Z</time></trkpt><trkpt lat="48.6344541712297" lon="-2.4108645602344057"><ele>6.0</ele><time>2026-04-05T07:17:48Z</time></trkpt><trkpt lat="48.634453017943414" lon="-2.410740400499296"><ele>6.0</ele><time>2026-04-05T07:17:50Z</time></trkpt><trkpt lat="48.63441005234416" lon="-2.4106331425916037"><ele>6.0</ele><time>2026-04-05T07:17:52Z</time></trkpt><trkpt lat="48.634486624254706" lon="-2.410515381236023"><ele>6.0</ele><time>2026-04-05T07:17:55Z</time></trkpt><trkpt lat="48.63454861812318" lon="-2.4104788287691443"><ele>6.0</ele><time>2026-04-05T07:17:58Z</time></trkpt><trkpt lat="48.63460826382358" lon="-2.4104471675370935"><ele>6.0</ele><time>2026-04-05T07:18:00Z</time></trkpt><trkpt lat="48.634679932546085" lon="-2.4103791479893197"><ele>6.0</ele><time>2026-04-05T07:18:02Z</time></trkpt><trkpt lat="48.634760291381966" lon="-2.410304796624821"><ele>6.0</ele><time>2026-04-05T07:18:04Z</time></trkpt><trkpt lat="48.6348255143452" lon="-2.410190995272996"><ele>6.0</ele><time>2026-04-05T07:18:06Z</time></trkpt><trkpt lat="48.63475670396066" lon="-2.409809180077756"><ele>6.0</ele><time>2026-04-05T07:18:08Z</time></trkpt><trkpt lat="48.634913671791125" lon="-2.410028643375879"><ele>6.0</ele><time>2026-04-05T07:18:09Z</time></trkpt><trkpt lat="48.6349654688159" lon="-2.40992250389082"><ele>6.0</ele><time>2026-04-05T07:18:13Z</time></trkpt><trkpt lat="48.63503328735567" lon="-2.4098086521025204"><ele>6.0</ele><time>2026-04-05T07:18:14Z</time></trkpt><trkpt lat="48.6350228259692" lon="-2.409515255270868"><ele>6.0</ele><time>2026-04-05T07:18:16Z</time></trkpt><trkpt lat="48.63510595355613" lon="-2.409423442977721"><ele>6.0</ele><time>2026-04-05T07:18:18Z</time></trkpt><trkpt lat="48.6351936028456" lon="-2.4093261187003465"><ele>6.0</ele><time>2026-04-05T07:18:20Z</time></trkpt><trkpt lat="48.635274312052765" lon="-2.4092363041443248"><ele>6.0</ele><time>2026-04-05T07:18:22Z</time></trkpt><trkpt lat="48.63534813468377" lon="-2.40915415311606"><ele>6.0</ele><time>2026-04-05T07:18:24Z</time></trkpt><trkpt lat="48.635417689575554" lon="-2.4090767468227607"><ele>6.0</ele><time>2026-04-05T07:18:26Z</time></trkpt><trkpt lat="48.635490051203945" lon="-2.4089992964698483"><ele>6.0</ele><time>2026-04-05T07:18:28Z</time></trkpt><trkpt lat="48.635577692296614" lon="-2.408903827523875"><ele>6.0</ele><time>2026-04-05T07:18:29.999Z</time></trkpt><trkpt lat="48.63563891813894" lon="-2.408868611933787"><ele>6.0</ele><time>2026-04-05T07:18:32.999Z</time></trkpt><trkpt lat="48.63570270472843" lon="-2.408769782370863"><ele>6.0</ele><time>2026-04-05T07:18:34.999Z</time></trkpt><trkpt lat="48.63577846756934" lon="-2.4086880791161818"><ele>6.0</ele><time>2026-04-05T07:18:35.999Z</time></trkpt><trkpt lat="48.63583290394281" lon="-2.4086283906263"><ele>6.0</ele><time>2026-04-05T07:18:36.999Z</time></trkpt><trkpt lat="48.63591104235193" lon="-2.408542710555857"><ele>6.75</ele><time>2026-04-05T07:18:39.999Z</time></trkpt><trkpt lat="48.63604639710144" lon="-2.4087531171190744"><ele>7.5</ele><time>2026-04-05T07:18:40.999Z</time></trkpt><trkpt lat="48.63613866217859" lon="-2.4088579653778615"><ele>8.25</ele><time>2026-04-05T07:18:42.999Z</time></trkpt><trkpt lat="48.6361958724673" lon="-2.408913537629581"><ele>9.0</ele><time>2026-04-05T07:18:43.999Z</time></trkpt><trkpt lat="48.63629913141466" lon="-2.4089955944687795"><ele>9.0</ele><time>2026-04-05T07:18:45.999Z</time></trkpt><trkpt lat="48.63640618552751" lon="-2.4090706239463766"><ele>9.0</ele><time>2026-04-05T07:18:47.999Z</time></trkpt><trkpt lat="48.636492420572736" lon="-2.409140749012345"><ele>9.0</ele><time>2026-04-05T07:18:49.999Z</time></trkpt><trkpt lat="48.63658536891557" lon="-2.409203155778905"><ele>9.0</ele><time>2026-04-05T07:18:51.999Z</time></trkpt><trkpt lat="48.63667655813547" lon="-2.4092261175836813"><ele>9.0</ele><time>2026-04-05T07:18:53.999Z</time></trkpt><trkpt lat="48.63676519204952" lon="-2.409149457971666"><ele>9.0</ele><time>2026-04-05T07:18:56.999Z</time></trkpt><trkpt lat="48.63692889319848" lon="-2.4089819672293444"><ele>9.0</ele><time>2026-04-05T07:18:59.999Z</time></trkpt><trkpt lat="48.6370079042047" lon="-2.408882619022325"><ele>9.0</ele><time>2026-04-05T07:19:01.999Z</time></trkpt><trkpt lat="48.63707181266948" lon="-2.4087710513689595"><ele>9.0</ele><time>2026-04-05T07:19:03.999Z</time></trkpt><trkpt lat="48.63712784450481" lon="-2.4087208085882805"><ele>9.4</ele><time>2026-04-05T07:19:04.999Z</time></trkpt><trkpt lat="48.63720617940408" lon="-2.4086125836333907"><ele>9.8</ele><time>2026-04-05T07:19:06.999Z</time></trkpt><trkpt lat="48.63728996304057" lon="-2.408505527325251"><ele>10.200000000000001</ele><time>2026-04-05T07:19:08.999Z</time></trkpt><trkpt lat="48.63736823561103" lon="-2.408407423979223"><ele>10.600000000000001</ele><time>2026-04-05T07:19:10.999Z</time></trkpt><trkpt lat="48.63744675891107" lon="-2.4082947577878415"><ele>11.0</ele><time>2026-04-05T07:19:12.999Z</time></trkpt><trkpt lat="48.6375248650679" lon="-2.40819184133835"><ele>11.0</ele><time>2026-04-05T07:19:14.999Z</time></trkpt><trkpt lat="48.63760739141081" lon="-2.408077946943769"><ele>11.0</ele><time>2026-04-05T07:19:16.999Z</time></trkpt><trkpt lat="48.6376883612693" lon="-2.4079773543947818"><ele>11.0</ele><time>2026-04-05T07:19:18.999Z</time></trkpt><trkpt lat="48.63776299076658" lon="-2.407865677724239"><ele>11.0</ele><time>2026-04-05T07:19:21Z</time></trkpt><trkpt lat="48.63782687924339" lon="-2.407760754081857"><ele>11.0</ele><time>2026-04-05T07:19:23Z</time></trkpt><trkpt lat="48.637886654692764" lon="-2.4077149898947243"><ele>11.600000000000001</ele><time>2026-04-05T07:19:26Z</time></trkpt><trkpt lat="48.63795276352744" lon="-2.4076291148936346"><ele>12.2</ele><time>2026-04-05T07:19:28Z</time></trkpt><trkpt lat="48.63807887405352" lon="-2.4074481424995793"><ele>12.799999999999999</ele><time>2026-04-05T07:19:30Z</time></trkpt><trkpt lat="48.638153546659794" lon="-2.4073722904815216"><ele>13.399999999999999</ele><time>2026-04-05T07:19:32Z</time></trkpt><trkpt lat="48.63820958393119" lon="-2.4072965894344227"><ele>14.0</ele><time>2026-04-05T07:19:34Z</time></trkpt><trkpt lat="48.63825353401948" lon="-2.4072273421073036"><ele>14.0</ele><time>2026-04-05T07:19:36Z</time></trkpt><trkpt lat="48.638307720215614" lon="-2.407174776005121"><ele>13.999999999999998</ele><time>2026-04-05T07:19:38Z</time></trkpt><trkpt lat="48.63822151738357" lon="-2.4071495486344157"><ele>13.999999999999998</ele><time>2026-04-05T07:19:47Z</time></trkpt><trkpt lat="48.638131751368206" lon="-2.4071067032228024"><ele>14.0</ele><time>2026-04-05T07:19:49Z</time></trkpt><trkpt lat="48.6380442097419" lon="-2.407038018038702"><ele>14.0</ele><time>2026-04-05T07:19:51Z</time></trkpt><trkpt lat="48.63793967260508" lon="-2.4069742933087106"><ele>14.166666666666668</ele><time>2026-04-05T07:19:53Z</time></trkpt><trkpt lat="48.63784494349842" lon="-2.406919098245112"><ele>14.333333333333334</ele><time>2026-04-05T07:19:55Z</time></trkpt><trkpt lat="48.63775892862247" lon="-2.4068625044628673"><ele>14.5</ele><time>2026-04-05T07:19:57Z</time></trkpt><trkpt lat="48.63768037277895" lon="-2.4068003475984434"><ele>14.666666666666668</ele><time>2026-04-05T07:19:59Z</time></trkpt><trkpt lat="48.63760657255041" lon="-2.4067522940064374"><ele>14.833333333333334</ele><time>2026-04-05T07:20:01Z</time></trkpt><trkpt lat="48.63753539454507" lon="-2.4067169030761835"><ele>15.0</ele><time>2026-04-05T07:20:03Z</time></trkpt><trkpt lat="48.637513490336815" lon="-2.406573840102098"><ele>14.833333333333334</ele><time>2026-04-05T07:20:05Z</time></trkpt><trkpt lat="48.63750318078724" lon="-2.40644390701866"><ele>14.666666666666668</ele><time>2026-04-05T07:20:07Z</time></trkpt><trkpt lat="48.63748972057423" lon="-2.4063299625536514"><ele>14.5</ele><time>2026-04-05T07:20:09Z</time></trkpt><trkpt lat="48.63751054328315" lon="-2.4062279982175876"><ele>14.333333333333334</ele><time>2026-04-05T07:20:11Z</time></trkpt><trkpt lat="48.63753250209222" lon="-2.4060985342763086"><ele>14.166666666666668</ele><time>2026-04-05T07:21:05.999Z</time></trkpt><trkpt lat="48.637554993302864" lon="-2.40600091645603"><ele>14.0</ele><time>2026-04-05T07:21:07.999Z</time></trkpt><trkpt lat="48.63757726449442" lon="-2.405884016556815"><ele>14.000000000000002</ele><time>2026-04-05T07:21:09.999Z</time></trkpt><trkpt lat="48.63759901309352" lon="-2.405769755469643"><ele>14.0</ele><time>2026-04-05T07:21:11.999Z</time></trkpt><trkpt lat="48.637624264579955" lon="-2.405643984489776"><ele>14.0</ele><time>2026-04-05T07:21:13.999Z</time></trkpt><trkpt lat="48.63765433056411" lon="-2.4055136049121875"><ele>14.0</ele><time>2026-04-05T07:21:15.999Z</time></trkpt><trkpt lat="48.63767290098761" lon="-2.4053782217700825"><ele>14.000000000000002</ele><time>2026-04-05T07:21:17.999Z</time></trkpt><trkpt lat="48.63769667366143" lon="-2.405241065288267"><ele>14.0</ele><time>2026-04-05T07:21:19.999Z</time></trkpt><trkpt lat="48.637721714157" lon="-2.4050989834954652"><ele>14.75</ele><time>2026-04-05T07:21:21.999Z</time></trkpt><trkpt lat="48.63774832536595" lon="-2.4049711699547554"><ele>15.5</ele><time>2026-04-05T07:21:23.999Z</time></trkpt><trkpt lat="48.63776798784934" lon="-2.4048444470009764"><ele>16.25</ele><time>2026-04-05T07:21:27Z</time></trkpt><trkpt lat="48.63781117613289" lon="-2.4045617845999288"><ele>17.0</ele><time>2026-04-05T07:21:30Z</time></trkpt><trkpt lat="48.63782010172881" lon="-2.404432834405443"><ele>17.0</ele><time>2026-04-05T07:21:32Z</time></trkpt><trkpt lat="48.63783090144776" lon="-2.404294332904646"><ele>17.0</ele><time>2026-04-05T07:21:34Z</time></trkpt><trkpt lat="48.63777980310996" lon="-2.404188493622022"><ele>17.0</ele><time>2026-04-05T07:21:36Z</time></trkpt><trkpt lat="48.637737073512305" lon="-2.4040923418557054"><ele>17.0</ele><time>2026-04-05T07:21:38Z</time></trkpt><trkpt lat="48.63768075410736" lon="-2.4039855368699876"><ele>17.0</ele><time>2026-04-05T07:21:41Z</time></trkpt><trkpt lat="48.63764553068378" lon="-2.4038909843730503"><ele>17.0</ele><time>2026-04-05T07:21:43Z</time></trkpt><trkpt lat="48.6376071954183" lon="-2.403804304575389"><ele>17.857142857142854</ele><time>2026-04-05T07:21:45Z</time></trkpt><trkpt lat="48.63756679464243" lon="-2.403713528594639"><ele>18.714285714285715</ele><time>2026-04-05T07:21:47Z</time></trkpt><trkpt lat="48.637530222758535" lon="-2.4036280774157643"><ele>19.57142857142857</ele><time>2026-04-05T07:21:49Z</time></trkpt><trkpt lat="48.63750012015614" lon="-2.403532018100241"><ele>20.428571428571427</ele><time>2026-04-05T07:21:51Z</time></trkpt><trkpt lat="48.637479346480525" lon="-2.403414067462347"><ele>21.285714285714285</ele><time>2026-04-05T07:21:55Z</time></trkpt><trkpt lat="48.63747162385005" lon="-2.403295053053202"><ele>22.142857142857142</ele><time>2026-04-05T07:21:58Z</time></trkpt><trkpt lat="48.6374606095383" lon="-2.403188120361086"><ele>23.0</ele><time>2026-04-05T07:22:00Z</time></trkpt><trkpt lat="48.637473809900236" lon="-2.4030518003645356"><ele>23.799999999999997</ele><time>2026-04-05T07:22:03Z</time></trkpt><trkpt lat="48.63750397392226" lon="-2.4029358500708993"><ele>24.6</ele><time>2026-04-05T07:22:05Z</time></trkpt><trkpt lat="48.63754014960981" lon="-2.4028001445727885"><ele>25.400000000000002</ele><time>2026-04-05T07:22:07Z</time></trkpt><trkpt lat="48.63762296938325" lon="-2.4025183459077764"><ele>26.200000000000003</ele><time>2026-04-05T07:22:10Z</time></trkpt><trkpt lat="48.63766309200428" lon="-2.4024443294925732"><ele>27.0</ele><time>2026-04-05T07:22:11Z</time></trkpt><trkpt lat="48.6377157663655" lon="-2.4023759308357286"><ele>25.6</ele><time>2026-04-05T07:22:12Z</time></trkpt><trkpt lat="48.637807312760636" lon="-2.402252398479909"><ele>24.200000000000003</ele><time>2026-04-05T07:22:14Z</time></trkpt><trkpt lat="48.637892474167735" lon="-2.402226444207591"><ele>22.8</ele><time>2026-04-05T07:22:15Z</time></trkpt><trkpt lat="48.63798114260308" lon="-2.4022467754383423"><ele>21.4</ele><time>2026-04-05T07:22:16Z</time></trkpt><trkpt lat="48.638042874757076" lon="-2.402217954545024"><ele>20.0</ele><time>2026-04-05T07:22:17Z</time></trkpt><trkpt lat="48.63815370400818" lon="-2.4021602539663096"><ele>20.0</ele><time>2026-04-05T07:22:19Z</time></trkpt><trkpt lat="48.63825602865995" lon="-2.4021114958889487"><ele>20.0</ele><time>2026-04-05T07:22:21Z</time></trkpt><trkpt lat="48.63832608964295" lon="-2.402080212103445"><ele>20.0</ele><time>2026-04-05T07:22:23Z</time></trkpt><trkpt lat="48.638398319362565" lon="-2.4020426698644988"><ele>20.0</ele><time>2026-04-05T07:22:24Z</time></trkpt><trkpt lat="48.63851834827779" lon="-2.402010565143315"><ele>20.0</ele><time>2026-04-05T07:22:26Z</time></trkpt><trkpt lat="48.63860690357624" lon="-2.4019611906653253"><ele>19.666666666666668</ele><time>2026-04-05T07:22:28Z</time></trkpt><trkpt lat="48.63866772588563" lon="-2.4019353534690002"><ele>19.333333333333336</ele><time>2026-04-05T07:22:29Z</time></trkpt><trkpt lat="48.63873048741966" lon="-2.4019067775465204"><ele>19.0</ele><time>2026-04-05T07:22:30Z</time></trkpt><trkpt lat="48.63883925864158" lon="-2.401848413077215"><ele>18.666666666666668</ele><time>2026-04-05T07:22:32Z</time></trkpt><trkpt lat="48.63894179614218" lon="-2.401747641698139"><ele>18.333333333333332</ele><time>2026-04-05T07:22:34Z</time></trkpt><trkpt lat="48.63898521349095" lon="-2.4016732747391747"><ele>18.0</ele><time>2026-04-05T07:22:35Z</time></trkpt><trkpt lat="48.63903006494318" lon="-2.4015782526104776"><ele>18.000000000000004</ele><time>2026-04-05T07:22:37Z</time></trkpt><trkpt lat="48.639082881635396" lon="-2.4014419202131334"><ele>18.0</ele><time>2026-04-05T07:22:39Z</time></trkpt><trkpt lat="48.639079463174134" lon="-2.4013386685476608"><ele>18.0</ele><time>2026-04-05T07:22:41Z</time></trkpt><trkpt lat="48.639027223096214" lon="-2.4012843417192413"><ele>18.0</ele><time>2026-04-05T07:22:42.999Z</time></trkpt><trkpt lat="48.63896624309168" lon="-2.401235579507574"><ele>18.0</ele><time>2026-04-05T07:22:44.999Z</time></trkpt><trkpt lat="48.63890472030526" lon="-2.4011849826982252"><ele>18.000000000000004</ele><time>2026-04-05T07:22:46.999Z</time></trkpt><trkpt lat="48.63884745466811" lon="-2.40113296777249"><ele>18.0</ele><time>2026-04-05T07:22:48.999Z</time></trkpt><trkpt lat="48.638773529028946" lon="-2.4010739796377707"><ele>18.333333333333332</ele><time>2026-04-05T07:22:51.999Z</time></trkpt><trkpt lat="48.63871383129825" lon="-2.401007466445156"><ele>18.666666666666668</ele><time>2026-04-05T07:22:55.999Z</time></trkpt><trkpt lat="48.63864374549154" lon="-2.400945443405102"><ele>19.0</ele><time>2026-04-05T07:22:58.999Z</time></trkpt><trkpt lat="48.638545957787045" lon="-2.4008610523339877"><ele>19.333333333333336</ele><time>2026-04-05T07:23:01.999Z</time></trkpt><trkpt lat="48.63848564719173" lon="-2.4008033803347857"><ele>19.666666666666668</ele><time>2026-04-05T07:23:04.999Z</time></trkpt><trkpt lat="48.63842131448548" lon="-2.400730464524103"><ele>20.0</ele><time>2026-04-05T07:23:07.999Z</time></trkpt><trkpt lat="48.638358249505345" lon="-2.4006606468356737"><ele>20.5</ele><time>2026-04-05T07:23:10.999Z</time></trkpt><trkpt lat="48.63828143946421" lon="-2.400592206978472"><ele>21.0</ele><time>2026-04-05T07:23:13.999Z</time></trkpt><trkpt lat="48.63821457017085" lon="-2.4005186908569636"><ele>21.5</ele><time>2026-04-05T07:23:16.999Z</time></trkpt><trkpt lat="48.63815569468855" lon="-2.4004635604522067"><ele>22.0</ele><time>2026-04-05T07:23:18.999Z</time></trkpt><trkpt lat="48.63808991353207" lon="-2.4003978654322697"><ele>22.5</ele><time>2026-04-05T07:23:21.999Z</time></trkpt><trkpt lat="48.638017135678055" lon="-2.400325377500249"><ele>23.0</ele><time>2026-04-05T07:23:24.999Z</time></trkpt><trkpt lat="48.63794656008159" lon="-2.4002666125344487"><ele>24.166666666666668</ele><time>2026-04-05T07:23:27.999Z</time></trkpt><trkpt lat="48.63787853400571" lon="-2.4001984262605616"><ele>25.333333333333336</ele><time>2026-04-05T07:23:30.999Z</time></trkpt><trkpt lat="48.63781943197932" lon="-2.4001483596070847"><ele>26.5</ele><time>2026-04-05T07:23:33Z</time></trkpt><trkpt lat="48.63773994505712" lon="-2.4000824561638976"><ele>27.666666666666668</ele><time>2026-04-05T07:23:36Z</time></trkpt><trkpt lat="48.637672435895176" lon="-2.4000500154977007"><ele>28.833333333333332</ele><time>2026-04-05T07:23:39Z</time></trkpt><trkpt lat="48.637616230031625" lon="-2.3999494671460835"><ele>30.0</ele><time>2026-04-05T07:23:42Z</time></trkpt><trkpt lat="48.637567470088904" lon="-2.399856824184469"><ele>30.0</ele><time>2026-04-05T07:23:45Z</time></trkpt><trkpt lat="48.637508404283494" lon="-2.399714724441087"><ele>30.0</ele><time>2026-04-05T07:23:48Z</time></trkpt><trkpt lat="48.63747055296786" lon="-2.3996091277725493"><ele>30.0</ele><time>2026-04-05T07:23:51Z</time></trkpt><trkpt lat="48.63745203622094" lon="-2.399500690879238"><ele>30.0</ele><time>2026-04-05T07:23:53Z</time></trkpt><trkpt lat="48.63740053176183" lon="-2.3994268784096673"><ele>30.0</ele><time>2026-04-05T07:23:58Z</time></trkpt><trkpt lat="48.63733545308638" lon="-2.3993807318357088"><ele>30.0</ele><time>2026-04-05T07:24:08Z</time></trkpt><trkpt lat="48.63729444404259" lon="-2.39930117426733"><ele>30.4</ele><time>2026-04-05T07:25:24.999Z</time></trkpt><trkpt lat="48.63720426001556" lon="-2.3992245034098842"><ele>30.8</ele><time>2026-04-05T07:25:27.999Z</time></trkpt><trkpt lat="48.63713085922345" lon="-2.399109106875873"><ele>31.200000000000003</ele><time>2026-04-05T07:25:29.999Z</time></trkpt><trkpt lat="48.63705336393396" lon="-2.3990255506265448"><ele>31.6</ele><time>2026-04-05T07:25:31.999Z</time></trkpt><trkpt lat="48.63697232522437" lon="-2.3989289242881773"><ele>32.0</ele><time>2026-04-05T07:25:33.999Z</time></trkpt><trkpt lat="48.63690361581561" lon="-2.3988438697960492"><ele>32.800000000000004</ele><time>2026-04-05T07:25:35.999Z</time></trkpt><trkpt lat="48.636813937800596" lon="-2.398801696255739"><ele>33.6</ele><time>2026-04-05T07:25:37.999Z</time></trkpt><trkpt lat="48.63674860041682" lon="-2.3986783075025904"><ele>34.400000000000006</ele><time>2026-04-05T07:25:40Z</time></trkpt><trkpt lat="48.63670014694539" lon="-2.3985414361067603"><ele>35.2</ele><time>2026-04-05T07:25:42Z</time></trkpt><trkpt lat="48.636681979613144" lon="-2.3984051145865855"><ele>36.0</ele><time>2026-04-05T07:25:44Z</time></trkpt><trkpt lat="48.636680366772524" lon="-2.3982660293464835"><ele>36.0</ele><time>2026-04-05T07:25:46Z</time></trkpt><trkpt lat="48.636710383462905" lon="-2.3981425338745765"><ele>36.0</ele><time>2026-04-05T07:25:48Z</time></trkpt><trkpt lat="48.636715443869676" lon="-2.3980137804477084"><ele>36.0</ele><time>2026-04-05T07:25:50Z</time></trkpt><trkpt lat="48.636748263692674" lon="-2.397888194237683"><ele>36.0</ele><time>2026-04-05T07:25:52Z</time></trkpt><trkpt lat="48.636797115848985" lon="-2.397748249368904"><ele>36.0</ele><time>2026-04-05T07:25:55Z</time></trkpt><trkpt lat="48.636845864683394" lon="-2.3976604634565497"><ele>36.0</ele><time>2026-04-05T07:25:57Z</time></trkpt><trkpt lat="48.63687826452452" lon="-2.397568854997756"><ele>36.42857142857143</ele><time>2026-04-05T07:25:59Z</time></trkpt><trkpt lat="48.636924286087535" lon="-2.3974834829920053"><ele>36.85714285714286</ele><time>2026-04-05T07:26:01Z</time></trkpt><trkpt lat="48.63696474663684" lon="-2.3973870871437524"><ele>37.28571428571429</ele><time>2026-04-05T07:26:04Z</time></trkpt><trkpt lat="48.636995720161266" lon="-2.397303811092218"><ele>37.714285714285715</ele><time>2026-04-05T07:26:06Z</time></trkpt><trkpt lat="48.63705306741604" lon="-2.397230173742821"><ele>38.14285714285714</ele><time>2026-04-05T07:26:09Z</time></trkpt><trkpt lat="48.63709110994732" lon="-2.397115477039592"><ele>38.57142857142858</ele><time>2026-04-05T07:26:12Z</time></trkpt><trkpt lat="48.63712876406057" lon="-2.397024907096514"><ele>39.0</ele><time>2026-04-05T07:26:15Z</time></trkpt><trkpt lat="48.63718753780554" lon="-2.39694299291812"><ele>39.5</ele><time>2026-04-05T07:26:18Z</time></trkpt><trkpt lat="48.63723826478999" lon="-2.396836722162343"><ele>40.0</ele><time>2026-04-05T07:26:21Z</time></trkpt><trkpt lat="48.63729307990504" lon="-2.396742441684077"><ele>40.5</ele><time>2026-04-05T07:26:24Z</time></trkpt><trkpt lat="48.63733432048424" lon="-2.3966553459978877"><ele>41.0</ele><time>2026-04-05T07:26:26Z</time></trkpt><trkpt lat="48.63743408574175" lon="-2.396608236894601"><ele>41.5</ele><time>2026-04-05T07:26:29Z</time></trkpt><trkpt lat="48.63750763929107" lon="-2.396538121837411"><ele>42.0</ele><time>2026-04-05T07:26:32Z</time></trkpt><trkpt lat="48.637617581642246" lon="-2.3965186057766683"><ele>42.0</ele><time>2026-04-05T07:26:35Z</time></trkpt><trkpt lat="48.63772602922447" lon="-2.396542740734341"><ele>42.0</ele><time>2026-04-05T07:26:40Z</time></trkpt><trkpt lat="48.63778908727134" lon="-2.3964995608879502"><ele>42.0</ele><time>2026-04-05T07:26:42Z</time></trkpt><trkpt lat="48.63787158204854" lon="-2.396491156899717"><ele>42.0</ele><time>2026-04-05T07:26:44Z</time></trkpt><trkpt lat="48.63794243009202" lon="-2.396522391509728"><ele>42.0</ele><time>2026-04-05T07:26:46Z</time></trkpt><trkpt lat="48.63802147709822" lon="-2.3965561502438333"><ele>42.0</ele><time>2026-04-05T07:26:48Z</time></trkpt><trkpt lat="48.63811245372437" lon="-2.396550292988004"><ele>42.400000000000006</ele><time>2026-04-05T07:26:49.999Z</time></trkpt><trkpt lat="48.6381883324736" lon="-2.396519958832689"><ele>42.800000000000004</ele><time>2026-04-05T07:26:51.999Z</time></trkpt><trkpt lat="48.63825413419607" lon="-2.396465266351162"><ele>43.2</ele><time>2026-04-05T07:26:53.999Z</time></trkpt><trkpt lat="48.63833375537413" lon="-2.3963787102588636"><ele>43.6</ele><time>2026-04-05T07:26:55.999Z</time></trkpt><trkpt lat="48.63842913584952" lon="-2.3963034728258368"><ele>44.0</ele><time>2026-04-05T07:26:57.999Z</time></trkpt><trkpt lat="48.63851002961212" lon="-2.396202170946737"><ele>44.400000000000006</ele><time>2026-04-05T07:26:59.999Z</time></trkpt><trkpt lat="48.63858639243215" lon="-2.3960938015880195"><ele>44.8</ele><time>2026-04-05T07:27:01.999Z</time></trkpt><trkpt lat="48.638656343201475" lon="-2.3959751991133453"><ele>45.2</ele><time>2026-04-05T07:27:03.999Z</time></trkpt><trkpt lat="48.63873097272233" lon="-2.3958384407641593"><ele>45.599999999999994</ele><time>2026-04-05T07:27:05.999Z</time></trkpt><trkpt lat="48.638794850508745" lon="-2.3957085715191564"><ele>46.0</ele><time>2026-04-05T07:27:07.999Z</time></trkpt><trkpt lat="48.638832700554374" lon="-2.3955596411841533"><ele>45.66666666666667</ele><time>2026-04-05T07:27:09.999Z</time></trkpt><trkpt lat="48.638860984449764" lon="-2.3954619587757215"><ele>45.333333333333336</ele><time>2026-04-05T07:27:12.999Z</time></trkpt><trkpt lat="48.63886806417547" lon="-2.3953295605648406"><ele>45.0</ele><time>2026-04-05T07:27:15.999Z</time></trkpt><trkpt lat="48.63885048552164" lon="-2.3952119514499177"><ele>44.666666666666664</ele><time>2026-04-05T07:27:17.999Z</time></trkpt><trkpt lat="48.63887333688485" lon="-2.395078961337196"><ele>44.33333333333333</ele><time>2026-04-05T07:27:20.999Z</time></trkpt><trkpt lat="48.63887939147086" lon="-2.394974542800557"><ele>44.0</ele><time>2026-04-05T07:27:23.999Z</time></trkpt><trkpt lat="48.638990393732605" lon="-2.3947968320577826"><ele>44.0</ele><time>2026-04-05T07:27:24.999Z</time></trkpt><trkpt lat="48.6390561815232" lon="-2.3947750730729203"><ele>44.0</ele><time>2026-04-05T07:27:25.999Z</time></trkpt><trkpt lat="48.63925260857461" lon="-2.3946778682556187"><ele>44.0</ele><time>2026-04-05T07:27:27.999Z</time></trkpt><trkpt lat="48.639317200468476" lon="-2.3946578641725393"><ele>44.0</ele><time>2026-04-05T07:27:28.999Z</time></trkpt><trkpt lat="48.639380215155526" lon="-2.394651320440096"><ele>44.0</ele><time>2026-04-05T07:27:29.999Z</time></trkpt><trkpt lat="48.639558265577215" lon="-2.394598203519263"><ele>43.666666666666664</ele><time>2026-04-05T07:27:32.999Z</time></trkpt><trkpt lat="48.6396806958581" lon="-2.3945524646298137"><ele>43.33333333333333</ele><time>2026-04-05T07:27:34.999Z</time></trkpt><trkpt lat="48.63974724129924" lon="-2.3945299441293413"><ele>43.0</ele><time>2026-04-05T07:27:35.999Z</time></trkpt><trkpt lat="48.63985395970549" lon="-2.3944743097598713"><ele>42.666666666666664</ele><time>2026-04-05T07:27:37.999Z</time></trkpt><trkpt lat="48.63991630481985" lon="-2.394443261975939"><ele>42.333333333333336</ele><time>2026-04-05T07:27:38.999Z</time></trkpt><trkpt lat="48.63997749038616" lon="-2.3944196844931462"><ele>42.0</ele><time>2026-04-05T07:27:39.999Z</time></trkpt><trkpt lat="48.6400364699353" lon="-2.3943862108203753"><ele>42.0</ele><time>2026-04-05T07:27:40.999Z</time></trkpt><trkpt lat="48.640155609000985" lon="-2.3943405204749895"><ele>42.0</ele><time>2026-04-05T07:27:42.999Z</time></trkpt><trkpt lat="48.64025839479478" lon="-2.3943153200151412"><ele>42.0</ele><time>2026-04-05T07:27:45Z</time></trkpt><trkpt lat="48.64035829345533" lon="-2.394311965316041"><ele>42.0</ele><time>2026-04-05T07:27:47Z</time></trkpt><trkpt lat="48.64046461208521" lon="-2.3942644973136997"><ele>42.0</ele><time>2026-04-05T07:27:49Z</time></trkpt><trkpt lat="48.64048237271078" lon="-2.393997412696423"><ele>41.166666666666664</ele><time>2026-04-05T07:27:52Z</time></trkpt><trkpt lat="48.64044828791194" lon="-2.393852799355576"><ele>40.333333333333336</ele><time>2026-04-05T07:27:54Z</time></trkpt><trkpt lat="48.64045347279987" lon="-2.39374889103225"><ele>39.5</ele><time>2026-04-05T07:27:55Z</time></trkpt><trkpt lat="48.6404642374643" lon="-2.3936464028413322"><ele>38.66666666666667</ele><time>2026-04-05T07:27:56Z</time></trkpt><trkpt lat="48.64048749217596" lon="-2.3935333780994696"><ele>37.833333333333336</ele><time>2026-04-05T07:27:57Z</time></trkpt><trkpt lat="48.6405208294267" lon="-2.3934235451077495"><ele>37.0</ele><time>2026-04-05T07:27:58Z</time></trkpt><trkpt lat="48.64055670424099" lon="-2.39330833933273"><ele>36.833333333333336</ele><time>2026-04-05T07:27:59Z</time></trkpt><trkpt lat="48.64060445209932" lon="-2.3931896223075073"><ele>36.66666666666667</ele><time>2026-04-05T07:28:00Z</time></trkpt><trkpt lat="48.640653703611015" lon="-2.3930707032402334"><ele>36.5</ele><time>2026-04-05T07:28:01Z</time></trkpt><trkpt lat="48.64069737236364" lon="-2.3929495082058607"><ele>36.333333333333336</ele><time>2026-04-05T07:28:02Z</time></trkpt><trkpt lat="48.640738298419" lon="-2.3928347361883615"><ele>36.166666666666664</ele><time>2026-04-05T07:28:03Z</time></trkpt><trkpt lat="48.64077623262374" lon="-2.392729397140722"><ele>36.0</ele><time>2026-04-05T07:28:04Z</time></trkpt><trkpt lat="48.64080971148298" lon="-2.3926378059643127"><ele>36.6</ele><time>2026-04-05T07:28:05Z</time></trkpt><trkpt lat="48.640875418417735" lon="-2.3924837352204054"><ele>37.2</ele><time>2026-04-05T07:28:07Z</time></trkpt><trkpt lat="48.64094008645276" lon="-2.3923463523080564"><ele>37.8</ele><time>2026-04-05T07:28:09Z</time></trkpt><trkpt lat="48.64099528829353" lon="-2.392220792390371"><ele>38.4</ele><time>2026-04-05T07:28:11Z</time></trkpt><trkpt lat="48.64105315252434" lon="-2.3920977981220846"><ele>39.0</ele><time>2026-04-05T07:28:13Z</time></trkpt><trkpt lat="48.641102781425" lon="-2.3919949047819093"><ele>40.0</ele><time>2026-04-05T07:28:15Z</time></trkpt><trkpt lat="48.641155242249326" lon="-2.391892018290544"><ele>41.0</ele><time>2026-04-05T07:28:17Z</time></trkpt><trkpt lat="48.641198677310925" lon="-2.391786847542814"><ele>42.0</ele><time>2026-04-05T07:28:19Z</time></trkpt><trkpt lat="48.641257755766674" lon="-2.3916822255455417"><ele>43.0</ele><time>2026-04-05T07:28:21Z</time></trkpt><trkpt lat="48.64130765826169" lon="-2.3915835518340924"><ele>44.0</ele><time>2026-04-05T07:28:23Z</time></trkpt><trkpt lat="48.64135640695266" lon="-2.391485068273803"><ele>45.0</ele><time>2026-04-05T07:28:25Z</time></trkpt><trkpt lat="48.641412940386985" lon="-2.3913824822738334"><ele>45.333333333333336</ele><time>2026-04-05T07:28:27Z</time></trkpt><trkpt lat="48.64145839603602" lon="-2.3912778680153837"><ele>45.666666666666664</ele><time>2026-04-05T07:28:29Z</time></trkpt><trkpt lat="48.641510743426906" lon="-2.3911811567542007"><ele>46.0</ele><time>2026-04-05T07:28:32Z</time></trkpt><trkpt lat="48.64154753069268" lon="-2.391092106238313"><ele>46.33333333333333</ele><time>2026-04-05T07:28:34Z</time></trkpt><trkpt lat="48.64161512341084" lon="-2.3909580535782275"><ele>46.666666666666664</ele><time>2026-04-05T07:28:37Z</time></trkpt><trkpt lat="48.641652572439156" lon="-2.390880946825453"><ele>47.0</ele><time>2026-04-05T07:28:40Z</time></trkpt><trkpt lat="48.64172260469978" lon="-2.390735923713146"><ele>47.33333333333333</ele><time>2026-04-05T07:28:43Z</time></trkpt><trkpt lat="48.64190635398532" lon="-2.390467297402765"><ele>47.666666666666664</ele><time>2026-04-05T07:28:44Z</time></trkpt><trkpt lat="48.641975140010054" lon="-2.3903483952396614"><ele>48.0</ele><time>2026-04-05T07:28:46Z</time></trkpt><trkpt lat="48.64202482053081" lon="-2.390226969325006"><ele>48.2</ele><time>2026-04-05T07:28:48Z</time></trkpt><trkpt lat="48.642103012104016" lon="-2.390102015127298"><ele>48.4</ele><time>2026-04-05T07:28:50Z</time></trkpt><trkpt lat="48.64218931733108" lon="-2.390001050172148"><ele>48.6</ele><time>2026-04-05T07:28:52Z</time></trkpt><trkpt lat="48.64225860368956" lon="-2.389872584356715"><ele>48.800000000000004</ele><time>2026-04-05T07:28:54Z</time></trkpt><trkpt lat="48.64232646593172" lon="-2.3897492690199305"><ele>49.0</ele><time>2026-04-05T07:28:56Z</time></trkpt><trkpt lat="48.64239723239594" lon="-2.38963950017327"><ele>49.0</ele><time>2026-04-05T07:28:58Z</time></trkpt><trkpt lat="48.642465552407614" lon="-2.3895194302457914"><ele>49.0</ele><time>2026-04-05T07:29:00Z</time></trkpt><trkpt lat="48.64252648151544" lon="-2.3893978042084227"><ele>49.0</ele><time>2026-04-05T07:29:01.999Z</time></trkpt><trkpt lat="48.642583841481375" lon="-2.3892686395103904"><ele>49.0</ele><time>2026-04-05T07:29:03.999Z</time></trkpt><trkpt lat="48.64265307845759" lon="-2.3891586313695576"><ele>49.0</ele><time>2026-04-05T07:29:05.999Z</time></trkpt><trkpt lat="48.64271565180717" lon="-2.389045092128871"><ele>48.99999999999999</ele><time>2026-04-05T07:29:07.999Z</time></trkpt><trkpt lat="48.642792600776566" lon="-2.388925902455243"><ele>49.0</ele><time>2026-04-05T07:29:09.999Z</time></trkpt><trkpt lat="48.642847951001954" lon="-2.3888262752314353"><ele>49.0</ele><time>2026-04-05T07:29:11.999Z</time></trkpt><trkpt lat="48.642842774994556" lon="-2.3886841456068018"><ele>49.0</ele><time>2026-04-05T07:29:13.999Z</time></trkpt><trkpt lat="48.64277943642716" lon="-2.388663523500873"><ele>48.99999999999999</ele><time>2026-04-05T07:29:14.999Z</time></trkpt><trkpt lat="48.64271418766163" lon="-2.3885855702136953"><ele>49.0</ele><time>2026-04-05T07:29:16.999Z</time></trkpt><trkpt lat="48.642633091263065" lon="-2.3884884563683344"><ele>49.6</ele><time>2026-04-05T07:29:18.999Z</time></trkpt><trkpt lat="48.64255959813009" lon="-2.3884018235071727"><ele>50.2</ele><time>2026-04-05T07:29:20.999Z</time></trkpt><trkpt lat="48.642483115376386" lon="-2.3883127045825105"><ele>50.800000000000004</ele><time>2026-04-05T07:29:22.999Z</time></trkpt><trkpt lat="48.64240590094694" lon="-2.3882241190766984"><ele>51.400000000000006</ele><time>2026-04-05T07:29:24.999Z</time></trkpt><trkpt lat="48.64232884630411" lon="-2.388138416529265"><ele>52.0</ele><time>2026-04-05T07:29:26.999Z</time></trkpt><trkpt lat="48.64224747827595" lon="-2.3880476569254987"><ele>52.0</ele><time>2026-04-05T07:29:28.999Z</time></trkpt><trkpt lat="48.64219875980523" lon="-2.387966769822756"><ele>52.0</ele><time>2026-04-05T07:29:33.999Z</time></trkpt><trkpt lat="48.64207153041974" lon="-2.3878496309112185"><ele>52.0</ele><time>2026-04-05T07:29:35.999Z</time></trkpt><trkpt lat="48.64201018907602" lon="-2.3877789026335354"><ele>52.0</ele><time>2026-04-05T07:29:36.999Z</time></trkpt><trkpt lat="48.64190634490897" lon="-2.3876544103216073"><ele>52.0</ele><time>2026-04-05T07:29:38.999Z</time></trkpt><trkpt lat="48.64185375673604" lon="-2.387588610508223"><ele>52.0</ele><time>2026-04-05T07:29:39.999Z</time></trkpt><trkpt lat="48.641803767445374" lon="-2.3875255071498134"><ele>52.0</ele><time>2026-04-05T07:29:40.999Z</time></trkpt><trkpt lat="48.64175537778144" lon="-2.3874642051565726"><ele>52.0</ele><time>2026-04-05T07:29:41.999Z</time></trkpt><trkpt lat="48.64166127565775" lon="-2.3873430398392763"><ele>52.0</ele><time>2026-04-05T07:29:43.999Z</time></trkpt><trkpt lat="48.64156330609885" lon="-2.3872159222705522"><ele>52.0</ele><time>2026-04-05T07:29:45.999Z</time></trkpt><trkpt lat="48.64147972111056" lon="-2.387106908674289"><ele>52.0</ele><time>2026-04-05T07:29:47.999Z</time></trkpt><trkpt lat="48.641389260178684" lon="-2.386988247142929"><ele>52.0</ele><time>2026-04-05T07:29:49.999Z</time></trkpt><trkpt lat="48.6412919615169" lon="-2.38686061651852"><ele>52.0</ele><time>2026-04-05T07:29:52Z</time></trkpt><trkpt lat="48.641249568409485" lon="-2.3867750183371363"><ele>52.0</ele><time>2026-04-05T07:29:53Z</time></trkpt><trkpt lat="48.64115032565565" lon="-2.386689965863135"><ele>52.0</ele><time>2026-04-05T07:29:55Z</time></trkpt><trkpt lat="48.64106013803798" lon="-2.3865842829905306"><ele>51.75</ele><time>2026-04-05T07:29:57Z</time></trkpt><trkpt lat="48.6409808235338" lon="-2.386451218148862"><ele>51.5</ele><time>2026-04-05T07:29:59Z</time></trkpt><trkpt lat="48.64090088273043" lon="-2.3863314986284245"><ele>51.25</ele><time>2026-04-05T07:30:01Z</time></trkpt><trkpt lat="48.640824128763185" lon="-2.386208020558622"><ele>51.0</ele><time>2026-04-05T07:30:03Z</time></trkpt><trkpt lat="48.640739329585344" lon="-2.386102785833153"><ele>51.0</ele><time>2026-04-05T07:30:05Z</time></trkpt><trkpt lat="48.640659353594984" lon="-2.3859705777367877"><ele>51.0</ele><time>2026-04-05T07:30:07Z</time></trkpt><trkpt lat="48.640585516156975" lon="-2.3858214566600093"><ele>51.0</ele><time>2026-04-05T07:30:09Z</time></trkpt><trkpt lat="48.64050601772785" lon="-2.3856948113964203"><ele>51.0</ele><time>2026-04-05T07:30:11Z</time></trkpt><trkpt lat="48.640425003743495" lon="-2.3855566823599874"><ele>50.8</ele><time>2026-04-05T07:30:13Z</time></trkpt><trkpt lat="48.64034268151492" lon="-2.3854471978404965"><ele>50.599999999999994</ele><time>2026-04-05T07:30:15Z</time></trkpt><trkpt lat="48.6403122211062" lon="-2.3853637116676283"><ele>50.4</ele><time>2026-04-05T07:30:16Z</time></trkpt><trkpt lat="48.64023485919697" lon="-2.385239428035233"><ele>50.2</ele><time>2026-04-05T07:30:18Z</time></trkpt><trkpt lat="48.640172458938466" lon="-2.385122491349743"><ele>50.0</ele><time>2026-04-05T07:30:20Z</time></trkpt><trkpt lat="48.64020592031096" lon="-2.3848901096565838"><ele>50.00000000000001</ele><time>2026-04-05T07:30:24Z</time></trkpt><trkpt lat="48.64024483811748" lon="-2.3848106198659598"><ele>50.0</ele><time>2026-04-05T07:30:25Z</time></trkpt><trkpt lat="48.64024622281727" lon="-2.384714914675095"><ele>50.0</ele><time>2026-04-05T07:30:26Z</time></trkpt><trkpt lat="48.64026151998102" lon="-2.384613015173068"><ele>50.0</ele><time>2026-04-05T07:30:27Z</time></trkpt><trkpt lat="48.640283533020856" lon="-2.3845078513611138"><ele>50.0</ele><time>2026-04-05T07:30:28Z</time></trkpt><trkpt lat="48.64026822568972" lon="-2.384412193844229"><ele>50.00000000000001</ele><time>2026-04-05T07:30:29Z</time></trkpt><trkpt lat="48.6402752166511" lon="-2.384244080361916"><ele>50.0</ele><time>2026-04-05T07:30:31Z</time></trkpt><trkpt lat="48.64025072504874" lon="-2.384091515189497"><ele>50.0</ele><time>2026-04-05T07:30:33Z</time></trkpt><trkpt lat="48.6401889889649" lon="-2.3839893246130073"><ele>50.0</ele><time>2026-04-05T07:30:35Z</time></trkpt><trkpt lat="48.640126097519875" lon="-2.383999420981625"><ele>50.0</ele><time>2026-04-05T07:30:36Z</time></trkpt><trkpt lat="48.6400376410677" lon="-2.383902713462246"><ele>50.0</ele><time>2026-04-05T07:30:38Z</time></trkpt><trkpt lat="48.63998583563544" lon="-2.383754725157002"><ele>50.0</ele><time>2026-04-05T07:30:40Z</time></trkpt><trkpt lat="48.63995350033165" lon="-2.3835953980274804"><ele>49.8</ele><time>2026-04-05T07:30:42Z</time></trkpt><trkpt lat="48.63997051192172" lon="-2.3834926020314384"><ele>49.6</ele><time>2026-04-05T07:30:43Z</time></trkpt><trkpt lat="48.63998679671069" lon="-2.383390709596098"><ele>49.400000000000006</ele><time>2026-04-05T07:30:44Z</time></trkpt><trkpt lat="48.63998585577543" lon="-2.3832075392399266"><ele>49.2</ele><time>2026-04-05T07:30:46Z</time></trkpt><trkpt lat="48.63998656847309" lon="-2.3830238678312363"><ele>49.0</ele><time>2026-04-05T07:30:48Z</time></trkpt><trkpt lat="48.63999064275666" lon="-2.3828634927074424"><ele>48.6</ele><time>2026-04-05T07:30:50Z</time></trkpt><trkpt lat="48.639966885287954" lon="-2.382692602146117"><ele>48.2</ele><time>2026-04-05T07:30:52Z</time></trkpt><trkpt lat="48.63996214527385" lon="-2.3825917626629134"><ele>47.800000000000004</ele><time>2026-04-05T07:30:53Z</time></trkpt><trkpt lat="48.63993869802118" lon="-2.382428819382775"><ele>47.400000000000006</ele><time>2026-04-05T07:30:55Z</time></trkpt><trkpt lat="48.63991956732851" lon="-2.382248373528261"><ele>47.0</ele><time>2026-04-05T07:30:57Z</time></trkpt><trkpt lat="48.63989764189173" lon="-2.3820691016700253"><ele>47.0</ele><time>2026-04-05T07:30:59Z</time></trkpt><trkpt lat="48.6398721411198" lon="-2.3818841954950325"><ele>47.0</ele><time>2026-04-05T07:31:01Z</time></trkpt><trkpt lat="48.63986360365342" lon="-2.381704799962982"><ele>47.0</ele><time>2026-04-05T07:31:03Z</time></trkpt><trkpt lat="48.63987294789319" lon="-2.381519251936919"><ele>47.0</ele><time>2026-04-05T07:31:05Z</time></trkpt><trkpt lat="48.63987904813398" lon="-2.381339472846652"><ele>47.0</ele><time>2026-04-05T07:31:07Z</time></trkpt><trkpt lat="48.63989314989409" lon="-2.3811648965067977"><ele>47.0</ele><time>2026-04-05T07:31:09Z</time></trkpt><trkpt lat="48.63991445390633" lon="-2.3809876280907503"><ele>47.0</ele><time>2026-04-05T07:31:11Z</time></trkpt><trkpt lat="48.63993833051195" lon="-2.380809760443166"><ele>47.0</ele><time>2026-04-05T07:31:12.999Z</time></trkpt><trkpt lat="48.639971254765896" lon="-2.3806372163746956"><ele>47.0</ele><time>2026-04-05T07:31:14.999Z</time></trkpt><trkpt lat="48.64001017164205" lon="-2.380459116028724"><ele>47.0</ele><time>2026-04-05T07:31:16.999Z</time></trkpt><trkpt lat="48.64004633102452" lon="-2.3802962211354717"><ele>47.0</ele><time>2026-04-05T07:31:18.999Z</time></trkpt><trkpt lat="48.64009182610353" lon="-2.380126999910868"><ele>47.0</ele><time>2026-04-05T07:31:20.999Z</time></trkpt><trkpt lat="48.64014506117552" lon="-2.379965072228996"><ele>47.0</ele><time>2026-04-05T07:31:22.999Z</time></trkpt><trkpt lat="48.64020643998009" lon="-2.3798041568140538"><ele>47.0</ele><time>2026-04-05T07:31:24.999Z</time></trkpt><trkpt lat="48.64027229389732" lon="-2.3796417519347632"><ele>47.0</ele><time>2026-04-05T07:31:26.999Z</time></trkpt><trkpt lat="48.640342152823365" lon="-2.37948677050811"><ele>47.0</ele><time>2026-04-05T07:31:28.999Z</time></trkpt><trkpt lat="48.640385117576486" lon="-2.37940609127062"><ele>47.0</ele><time>2026-04-05T07:31:29.999Z</time></trkpt><trkpt lat="48.64044958210446" lon="-2.379245145656553"><ele>47.166666666666664</ele><time>2026-04-05T07:31:31.999Z</time></trkpt><trkpt lat="48.64047917370745" lon="-2.3791596978568723"><ele>47.33333333333333</ele><time>2026-04-05T07:31:32.999Z</time></trkpt><trkpt lat="48.64051724557502" lon="-2.379066430443958"><ele>47.5</ele><time>2026-04-05T07:31:33.999Z</time></trkpt><trkpt lat="48.64055015932114" lon="-2.3789834990304684"><ele>47.666666666666664</ele><time>2026-04-05T07:31:34.999Z</time></trkpt><trkpt lat="48.64057983214351" lon="-2.378889125265437"><ele>47.833333333333336</ele><time>2026-04-05T07:31:35.999Z</time></trkpt><trkpt lat="48.640607213843694" lon="-2.37879963377713"><ele>48.0</ele><time>2026-04-05T07:31:36.999Z</time></trkpt><trkpt lat="48.64065812683187" lon="-2.378629797300168"><ele>48.0</ele><time>2026-04-05T07:31:38.999Z</time></trkpt><trkpt lat="48.64068700549001" lon="-2.3785425753047837"><ele>48.0</ele><time>2026-04-05T07:31:39.999Z</time></trkpt><trkpt lat="48.64071577806305" lon="-2.3784573402068276"><ele>48.0</ele><time>2026-04-05T07:31:40.999Z</time></trkpt><trkpt lat="48.64074056364308" lon="-2.378366587448441"><ele>48.0</ele><time>2026-04-05T07:31:41.999Z</time></trkpt><trkpt lat="48.640790804756456" lon="-2.378190792346946"><ele>48.0</ele><time>2026-04-05T07:31:43.999Z</time></trkpt><trkpt lat="48.64081853919508" lon="-2.3781016659208825"><ele>48.0</ele><time>2026-04-05T07:31:44.999Z</time></trkpt><trkpt lat="48.64088162870102" lon="-2.377945743996795"><ele>48.0</ele><time>2026-04-05T07:31:46.999Z</time></trkpt><trkpt lat="48.64090565538604" lon="-2.3778539299240165"><ele>48.0</ele><time>2026-04-05T07:31:47.999Z</time></trkpt><trkpt lat="48.64092817478394" lon="-2.377764305588167"><ele>48.0</ele><time>2026-04-05T07:31:48.999Z</time></trkpt><trkpt lat="48.64097568511835" lon="-2.3776026423916177"><ele>48.0</ele><time>2026-04-05T07:31:50.999Z</time></trkpt><trkpt lat="48.64101646329643" lon="-2.377455675770655"><ele>48.0</ele><time>2026-04-05T07:31:52.999Z</time></trkpt><trkpt lat="48.641046974924095" lon="-2.3773239074909607"><ele>48.0</ele><time>2026-04-05T07:31:54.999Z</time></trkpt><trkpt lat="48.640925074578824" lon="-2.3772145715744144"><ele>48.25</ele><time>2026-04-05T07:31:57Z</time></trkpt><trkpt lat="48.6408359114807" lon="-2.377099126538957"><ele>48.5</ele><time>2026-04-05T07:31:59Z</time></trkpt><trkpt lat="48.64074761323836" lon="-2.3769818794962467"><ele>48.75</ele><time>2026-04-05T07:32:01Z</time></trkpt><trkpt lat="48.64065541768267" lon="-2.376872915338233"><ele>49.0</ele><time>2026-04-05T07:32:03Z</time></trkpt><trkpt lat="48.640566695449195" lon="-2.376759488567444"><ele>49.0</ele><time>2026-04-05T07:32:05Z</time></trkpt><trkpt lat="48.64047722631087" lon="-2.3766504280992606"><ele>49.0</ele><time>2026-04-05T07:32:07Z</time></trkpt><trkpt lat="48.64040158356013" lon="-2.3765512186151647"><ele>49.0</ele><time>2026-04-05T07:32:09Z</time></trkpt><trkpt lat="48.640321827115024" lon="-2.376475157821882"><ele>49.0</ele><time>2026-04-05T07:32:11Z</time></trkpt><trkpt lat="48.64027171547928" lon="-2.3763951608777205"><ele>49.0</ele><time>2026-04-05T07:32:13Z</time></trkpt><trkpt lat="48.640371332185474" lon="-2.376204574203777"><ele>49.0</ele><time>2026-04-05T07:32:14Z</time></trkpt><trkpt lat="48.640416142413116" lon="-2.37613713750225"><ele>49.0</ele><time>2026-04-05T07:32:15Z</time></trkpt><trkpt lat="48.64049974896881" lon="-2.3760231794378246"><ele>49.0</ele><time>2026-04-05T07:32:17Z</time></trkpt><trkpt lat="48.64058469721774" lon="-2.3759166386942363"><ele>49.0</ele><time>2026-04-05T07:32:19Z</time></trkpt><trkpt lat="48.64067086896627" lon="-2.375815648234101"><ele>49.0</ele><time>2026-04-05T07:32:21Z</time></trkpt><trkpt lat="48.64074698908484" lon="-2.3757239015537253"><ele>49.0</ele><time>2026-04-05T07:32:23Z</time></trkpt><trkpt lat="48.64083824334671" lon="-2.3756310037051636"><ele>49.0</ele><time>2026-04-05T07:32:25Z</time></trkpt><trkpt lat="48.64092107224886" lon="-2.3755476008628724"><ele>49.0</ele><time>2026-04-05T07:32:27Z</time></trkpt><trkpt lat="48.641006182660625" lon="-2.3754484287996136"><ele>49.0</ele><time>2026-04-05T07:32:29Z</time></trkpt><trkpt lat="48.64110459400009" lon="-2.3753277971236146"><ele>49.0</ele><time>2026-04-05T07:32:31Z</time></trkpt><trkpt lat="48.64115049812007" lon="-2.3752560433261545"><ele>48.857142857142854</ele><time>2026-04-05T07:32:32Z</time></trkpt><trkpt lat="48.64120657119074" lon="-2.375183097298345"><ele>48.714285714285715</ele><time>2026-04-05T07:32:33Z</time></trkpt><trkpt lat="48.6412557259426" lon="-2.375112594489322"><ele>48.57142857142857</ele><time>2026-04-05T07:32:34Z</time></trkpt><trkpt lat="48.64130838481937" lon="-2.375039662325452"><ele>48.42857142857143</ele><time>2026-04-05T07:32:35Z</time></trkpt><trkpt lat="48.641360998852186" lon="-2.374969628819489"><ele>48.285714285714285</ele><time>2026-04-05T07:32:36Z</time></trkpt><trkpt lat="48.64141439390393" lon="-2.374905430560193"><ele>48.14285714285714</ele><time>2026-04-05T07:32:37Z</time></trkpt><trkpt lat="48.641472889258324" lon="-2.374848603024402"><ele>48.0</ele><time>2026-04-05T07:32:38Z</time></trkpt><trkpt lat="48.641531249206324" lon="-2.37479044126613"><ele>47.99999999999999</ele><time>2026-04-05T07:32:39Z</time></trkpt><trkpt lat="48.641596305448665" lon="-2.3747547646214717"><ele>48.0</ele><time>2026-04-05T07:32:40Z</time></trkpt><trkpt lat="48.64166439440182" lon="-2.374733678529393"><ele>48.0</ele><time>2026-04-05T07:32:41Z</time></trkpt><trkpt lat="48.641727546977826" lon="-2.374728037569168"><ele>48.0</ele><time>2026-04-05T07:32:42Z</time></trkpt><trkpt lat="48.64179984873206" lon="-2.3747376174067374"><ele>48.0</ele><time>2026-04-05T07:32:43Z</time></trkpt><trkpt lat="48.64186771086963" lon="-2.3747337429160083"><ele>47.99999999999999</ele><time>2026-04-05T07:32:44Z</time></trkpt><trkpt lat="48.64193257383421" lon="-2.3747284384538814"><ele>48.0</ele><time>2026-04-05T07:32:45Z</time></trkpt><trkpt lat="48.6420002671572" lon="-2.3747327316827915"><ele>47.833333333333336</ele><time>2026-04-05T07:32:46Z</time></trkpt><trkpt lat="48.642129680231655" lon="-2.374722518316223"><ele>47.666666666666664</ele><time>2026-04-05T07:32:48Z</time></trkpt><trkpt lat="48.6421938057198" lon="-2.3747155626553513"><ele>47.5</ele><time>2026-04-05T07:32:49Z</time></trkpt><trkpt lat="48.64226082510399" lon="-2.374714472952507"><ele>47.33333333333333</ele><time>2026-04-05T07:32:50Z</time></trkpt><trkpt lat="48.642327940835976" lon="-2.374712877311709"><ele>47.166666666666664</ele><time>2026-04-05T07:32:51Z</time></trkpt><trkpt lat="48.64239527728689" lon="-2.374712603633312"><ele>47.0</ele><time>2026-04-05T07:32:52Z</time></trkpt><trkpt lat="48.642460258794735" lon="-2.374717664999716"><ele>47.0</ele><time>2026-04-05T07:32:53Z</time></trkpt><trkpt lat="48.64252533818051" lon="-2.374715655808335"><ele>47.0</ele><time>2026-04-05T07:32:54Z</time></trkpt><trkpt lat="48.64265300784443" lon="-2.3747131988902206"><ele>47.0</ele><time>2026-04-05T07:32:56Z</time></trkpt><trkpt lat="48.642716500422274" lon="-2.3747134033253006"><ele>47.0</ele><time>2026-04-05T07:32:57Z</time></trkpt><trkpt lat="48.642782366045076" lon="-2.3747067134108035"><ele>47.0</ele><time>2026-04-05T07:32:58Z</time></trkpt><trkpt lat="48.642908248485675" lon="-2.374681138829008"><ele>47.0</ele><time>2026-04-05T07:33:00Z</time></trkpt><trkpt lat="48.64297356811766" lon="-2.3746640545511197"><ele>46.857142857142854</ele><time>2026-04-05T07:33:01Z</time></trkpt><trkpt lat="48.64303684720822" lon="-2.3746381298534764"><ele>46.71428571428571</ele><time>2026-04-05T07:33:02Z</time></trkpt><trkpt lat="48.643097292107555" lon="-2.374601055360476"><ele>46.57142857142857</ele><time>2026-04-05T07:33:03Z</time></trkpt><trkpt lat="48.643153414884104" lon="-2.3745570878185296"><ele>46.42857142857143</ele><time>2026-04-05T07:33:04Z</time></trkpt><trkpt lat="48.64321065853587" lon="-2.374508970455411"><ele>46.285714285714285</ele><time>2026-04-05T07:33:05Z</time></trkpt><trkpt lat="48.643267280058396" lon="-2.374462750070954"><ele>46.142857142857146</ele><time>2026-04-05T07:33:06Z</time></trkpt><trkpt lat="48.643324446707524" lon="-2.3744120374875157"><ele>46.0</ele><time>2026-04-05T07:33:07Z</time></trkpt><trkpt lat="48.643374691825166" lon="-2.3743532617792833"><ele>46.0</ele><time>2026-04-05T07:33:08Z</time></trkpt><trkpt lat="48.64343594384412" lon="-2.374309401546689"><ele>46.0</ele><time>2026-04-05T07:33:09Z</time></trkpt><trkpt lat="48.643491705343685" lon="-2.374255024170536"><ele>46.0</ele><time>2026-04-05T07:33:10Z</time></trkpt><trkpt lat="48.643548306021586" lon="-2.3742076566134402"><ele>46.0</ele><time>2026-04-05T07:33:11Z</time></trkpt><trkpt lat="48.64361356007574" lon="-2.3741632043095993"><ele>46.0</ele><time>2026-04-05T07:33:12Z</time></trkpt><trkpt lat="48.643675655184495" lon="-2.3741202273245827"><ele>46.0</ele><time>2026-04-05T07:33:13Z</time></trkpt><trkpt lat="48.64374453773709" lon="-2.3740805020456754"><ele>46.0</ele><time>2026-04-05T07:33:14Z</time></trkpt><trkpt lat="48.643813832062705" lon="-2.3740415607155354"><ele>45.5</ele><time>2026-04-05T07:33:15Z</time></trkpt><trkpt lat="48.64388016110483" lon="-2.3740005859341164"><ele>45.0</ele><time>2026-04-05T07:33:16Z</time></trkpt><trkpt lat="48.64394955187033" lon="-2.373958314485957"><ele>44.5</ele><time>2026-04-05T07:33:17Z</time></trkpt><trkpt lat="48.644020528239814" lon="-2.3739170604109185"><ele>44.0</ele><time>2026-04-05T07:33:18Z</time></trkpt><trkpt lat="48.64408636346278" lon="-2.3738655198669267"><ele>43.5</ele><time>2026-04-05T07:33:19Z</time></trkpt><trkpt lat="48.64415709350994" lon="-2.3738143577045605"><ele>43.0</ele><time>2026-04-05T07:33:20Z</time></trkpt><trkpt lat="48.64422857538563" lon="-2.3737646241501693"><ele>43.0</ele><time>2026-04-05T07:33:21Z</time></trkpt><trkpt lat="48.64429230715203" lon="-2.3737075768551184"><ele>43.0</ele><time>2026-04-05T07:33:22Z</time></trkpt><trkpt lat="48.644365273794314" lon="-2.3736996827029606"><ele>43.0</ele><time>2026-04-05T07:33:23Z</time></trkpt><trkpt lat="48.64445196064264" lon="-2.373640720130613"><ele>43.0</ele><time>2026-04-05T07:33:24Z</time></trkpt><trkpt lat="48.644505455393166" lon="-2.3735725098093505"><ele>43.0</ele><time>2026-04-05T07:33:25Z</time></trkpt><trkpt lat="48.644570500522676" lon="-2.373520676456624"><ele>43.0</ele><time>2026-04-05T07:33:26Z</time></trkpt><trkpt lat="48.64463667296046" lon="-2.3734655642505857"><ele>42.66666666666667</ele><time>2026-04-05T07:33:26.999Z</time></trkpt><trkpt lat="48.644701977521144" lon="-2.37341154462457"><ele>42.333333333333336</ele><time>2026-04-05T07:33:27.999Z</time></trkpt><trkpt lat="48.64477059299385" lon="-2.3733623574904867"><ele>42.0</ele><time>2026-04-05T07:33:28.999Z</time></trkpt><trkpt lat="48.64483561982806" lon="-2.3733002727998076"><ele>41.666666666666664</ele><time>2026-04-05T07:33:29.999Z</time></trkpt><trkpt lat="48.6448944368455" lon="-2.3732459217061947"><ele>41.33333333333333</ele><time>2026-04-05T07:33:30.999Z</time></trkpt><trkpt lat="48.644964568256874" lon="-2.373199826291166"><ele>41.0</ele><time>2026-04-05T07:33:31.999Z</time></trkpt><trkpt lat="48.645036375272305" lon="-2.373153578311006"><ele>41.0</ele><time>2026-04-05T07:33:32.999Z</time></trkpt><trkpt lat="48.645103030138785" lon="-2.3730971894045343"><ele>41.0</ele><time>2026-04-05T07:33:33.999Z</time></trkpt><trkpt lat="48.645165359875925" lon="-2.3730383607731365"><ele>41.0</ele><time>2026-04-05T07:33:34.999Z</time></trkpt><trkpt lat="48.64523132419147" lon="-2.3729917788692707"><ele>41.0</ele><time>2026-04-05T07:33:35.999Z</time></trkpt><trkpt lat="48.64529519451631" lon="-2.372928548004795"><ele>41.0</ele><time>2026-04-05T07:33:36.999Z</time></trkpt><trkpt lat="48.64536477873261" lon="-2.372871724894193"><ele>41.0</ele><time>2026-04-05T07:33:37.999Z</time></trkpt><trkpt lat="48.645430261006915" lon="-2.3728141852763422"><ele>41.0</ele><time>2026-04-05T07:33:38.999Z</time></trkpt><trkpt lat="48.64548706168108" lon="-2.3727517164076457"><ele>41.0</ele><time>2026-04-05T07:33:39.999Z</time></trkpt><trkpt lat="48.64558990398806" lon="-2.372702150265486"><ele>41.0</ele><time>2026-04-05T07:33:41.999Z</time></trkpt><trkpt lat="48.6456765373794" lon="-2.3726352430034665"><ele>41.0</ele><time>2026-04-05T07:33:43.999Z</time></trkpt><trkpt lat="48.64573535938396" lon="-2.37258175367571"><ele>41.0</ele><time>2026-04-05T07:33:45.999Z</time></trkpt><trkpt lat="48.64581884282346" lon="-2.3725209664556566"><ele>41.0</ele><time>2026-04-05T07:33:48.999Z</time></trkpt><trkpt lat="48.64590466526712" lon="-2.372445423295372"><ele>40.99999999999999</ele><time>2026-04-05T07:33:51.999Z</time></trkpt><trkpt lat="48.64596314478916" lon="-2.372400339628474"><ele>41.0</ele><time>2026-04-05T07:33:53.999Z</time></trkpt><trkpt lat="48.646025617040294" lon="-2.372361034488796"><ele>41.0</ele><time>2026-04-05T07:33:55.999Z</time></trkpt><trkpt lat="48.646092481078405" lon="-2.372335503710941"><ele>41.0</ele><time>2026-04-05T07:33:57.999Z</time></trkpt><trkpt lat="48.64616256036294" lon="-2.372262444467049"><ele>41.0</ele><time>2026-04-05T07:34:01.999Z</time></trkpt><trkpt lat="48.646220393349275" lon="-2.372199265653009"><ele>40.99999999999999</ele><time>2026-04-05T07:34:04Z</time></trkpt><trkpt lat="48.646281449642885" lon="-2.3721439467301355"><ele>41.0</ele><time>2026-04-05T07:34:07Z</time></trkpt><trkpt lat="48.64633750506725" lon="-2.372095384969202"><ele>42.33333333333333</ele><time>2026-04-05T07:34:09Z</time></trkpt><trkpt lat="48.64640995048207" lon="-2.372048999297696"><ele>43.666666666666664</ele><time>2026-04-05T07:34:13Z</time></trkpt><trkpt lat="48.6464902730694" lon="-2.3720049360011477"><ele>45.0</ele><time>2026-04-05T07:34:18Z</time></trkpt><trkpt lat="48.64655932187629" lon="-2.371934851497199"><ele>46.33333333333333</ele><time>2026-04-05T07:34:20Z</time></trkpt><trkpt lat="48.646652527050975" lon="-2.371894879111924"><ele>47.666666666666664</ele><time>2026-04-05T07:34:22Z</time></trkpt><trkpt lat="48.64672486203829" lon="-2.371860119063078"><ele>49.0</ele><time>2026-04-05T07:34:24Z</time></trkpt><trkpt lat="48.64682011913452" lon="-2.371842542343816"><ele>49.0</ele><time>2026-04-05T07:34:27Z</time></trkpt><trkpt lat="48.64691221070764" lon="-2.371825684976495"><ele>49.0</ele><time>2026-04-05T07:34:30Z</time></trkpt><trkpt lat="48.64698597674413" lon="-2.371802444507122"><ele>49.0</ele><time>2026-04-05T07:34:32Z</time></trkpt><trkpt lat="48.64703690900054" lon="-2.371734003863966"><ele>49.0</ele><time>2026-04-05T07:34:34Z</time></trkpt><trkpt lat="48.64713059368736" lon="-2.3716190225005174"><ele>49.0</ele><time>2026-04-05T07:34:38Z</time></trkpt><trkpt lat="48.64733376574445" lon="-2.371367808761987"><ele>48.0</ele><time>2026-04-05T07:34:40Z</time></trkpt><trkpt lat="48.64739730282446" lon="-2.3712166521601903"><ele>47.0</ele><time>2026-04-05T07:34:42Z</time></trkpt><trkpt lat="48.647424421488175" lon="-2.3711257264079255"><ele>46.0</ele><time>2026-04-05T07:34:43Z</time></trkpt><trkpt lat="48.647490853783275" lon="-2.370946220831753"><ele>45.0</ele><time>2026-04-05T07:34:45Z</time></trkpt><trkpt lat="48.64752572551232" lon="-2.3708593449544515"><ele>44.0</ele><time>2026-04-05T07:34:46Z</time></trkpt><trkpt lat="48.64756203717633" lon="-2.370762667054901"><ele>44.0</ele><time>2026-04-05T07:34:47Z</time></trkpt><trkpt lat="48.647592455359664" lon="-2.37065921282948"><ele>44.0</ele><time>2026-04-05T07:34:48Z</time></trkpt><trkpt lat="48.64763498190307" lon="-2.3705544020795495"><ele>44.0</ele><time>2026-04-05T07:34:49Z</time></trkpt><trkpt lat="48.64769084626002" lon="-2.3704521945050256"><ele>44.0</ele><time>2026-04-05T07:34:50Z</time></trkpt><trkpt lat="48.647719784318355" lon="-2.370358191611863"><ele>44.0</ele><time>2026-04-05T07:34:51Z</time></trkpt><trkpt lat="48.647761460959806" lon="-2.3702584936462827"><ele>44.0</ele><time>2026-04-05T07:34:52Z</time></trkpt><trkpt lat="48.64779443007868" lon="-2.3701569004787606"><ele>43.57142857142857</ele><time>2026-04-05T07:34:53Z</time></trkpt><trkpt lat="48.64783362827314" lon="-2.370064549679966"><ele>43.14285714285714</ele><time>2026-04-05T07:34:54Z</time></trkpt><trkpt lat="48.64787375649136" lon="-2.3699711317763326"><ele>42.71428571428571</ele><time>2026-04-05T07:34:55Z</time></trkpt><trkpt lat="48.64790838620043" lon="-2.3698751026248717"><ele>42.285714285714285</ele><time>2026-04-05T07:34:56Z</time></trkpt><trkpt lat="48.6479464657057" lon="-2.369786338141014"><ele>41.857142857142854</ele><time>2026-04-05T07:34:57Z</time></trkpt><trkpt lat="48.64797927316864" lon="-2.369695280936733"><ele>41.42857142857142</ele><time>2026-04-05T07:34:58Z</time></trkpt><trkpt lat="48.64802008504448" lon="-2.369608385776396"><ele>41.0</ele><time>2026-04-05T07:34:59Z</time></trkpt><trkpt lat="48.64804320837135" lon="-2.3695169424816647"><ele>41.0</ele><time>2026-04-05T07:35:00Z</time></trkpt><trkpt lat="48.64809221908134" lon="-2.3693957343944656"><ele>41.0</ele><time>2026-04-05T07:35:02Z</time></trkpt><trkpt lat="48.648135098916" lon="-2.369288680009828"><ele>41.0</ele><time>2026-04-05T07:35:04Z</time></trkpt><trkpt lat="48.64820719376016" lon="-2.3691740746418066"><ele>41.0</ele><time>2026-04-05T07:35:06Z</time></trkpt><trkpt lat="48.64830834306679" lon="-2.369076212899606"><ele>41.0</ele><time>2026-04-05T07:35:08Z</time></trkpt><trkpt lat="48.648423074225505" lon="-2.3689973753642226"><ele>41.0</ele><time>2026-04-05T07:35:10Z</time></trkpt><trkpt lat="48.64853260626197" lon="-2.368919905431844"><ele>41.0</ele><time>2026-04-05T07:35:12Z</time></trkpt><trkpt lat="48.64863132479968" lon="-2.368855404607316"><ele>41.0</ele><time>2026-04-05T07:35:14Z</time></trkpt><trkpt lat="48.64872585567438" lon="-2.3688009211490018"><ele>41.0</ele><time>2026-04-05T07:35:16Z</time></trkpt><trkpt lat="48.648786093373786" lon="-2.3687483403900167"><ele>41.0</ele><time>2026-04-05T07:35:18Z</time></trkpt><trkpt lat="48.648850478323865" lon="-2.3686965496148544"><ele>42.33333333333333</ele><time>2026-04-05T07:35:20Z</time></trkpt><trkpt lat="48.64893690689294" lon="-2.3686531664688424"><ele>43.666666666666664</ele><time>2026-04-05T07:35:23Z</time></trkpt><trkpt lat="48.64901155443044" lon="-2.3686027351516006"><ele>45.0</ele><time>2026-04-05T07:35:25.999Z</time></trkpt><trkpt lat="48.64906522706892" lon="-2.3685301215830927"><ele>46.33333333333333</ele><time>2026-04-05T07:35:28.999Z</time></trkpt><trkpt lat="48.649144183634526" lon="-2.3684904140778165"><ele>47.666666666666664</ele><time>2026-04-05T07:35:32.999Z</time></trkpt><trkpt lat="48.64919293164804" lon="-2.368411178646328"><ele>49.0</ele><time>2026-04-05T07:35:35.999Z</time></trkpt><trkpt lat="48.64926182588706" lon="-2.368318260491482"><ele>49.0</ele><time>2026-04-05T07:35:38.999Z</time></trkpt><trkpt lat="48.649327593904594" lon="-2.368233651022563"><ele>49.0</ele><time>2026-04-05T07:35:41.999Z</time></trkpt><trkpt lat="48.64936700023749" lon="-2.3681592448798634"><ele>49.0</ele><time>2026-04-05T07:35:43.999Z</time></trkpt><trkpt lat="48.64944130615513" lon="-2.368115368160961"><ele>49.0</ele><time>2026-04-05T07:35:45.999Z</time></trkpt><trkpt lat="48.64949621098651" lon="-2.3680623334190574"><ele>49.0</ele><time>2026-04-05T07:35:47.999Z</time></trkpt><trkpt lat="48.64955857382586" lon="-2.3679794769734546"><ele>49.0</ele><time>2026-04-05T07:35:50.999Z</time></trkpt><trkpt lat="48.649617812191174" lon="-2.3679325642470537"><ele>49.0</ele><time>2026-04-05T07:35:52.999Z</time></trkpt><trkpt lat="48.64966987224162" lon="-2.3678713924942145"><ele>49.857142857142854</ele><time>2026-04-05T07:35:54.999Z</time></trkpt><trkpt lat="48.64971693132208" lon="-2.3678035086498195"><ele>50.714285714285715</ele><time>2026-04-05T07:35:56.999Z</time></trkpt><trkpt lat="48.6497800635403" lon="-2.367734514180804"><ele>51.57142857142857</ele><time>2026-04-05T07:35:59.999Z</time></trkpt><trkpt lat="48.64984039980205" lon="-2.3676719582312735"><ele>52.42857142857143</ele><time>2026-04-05T07:36:01.999Z</time></trkpt><trkpt lat="48.649907748628415" lon="-2.3676044165011585"><ele>53.285714285714285</ele><time>2026-04-05T07:36:04.999Z</time></trkpt><trkpt lat="48.649952954617376" lon="-2.3675341350744015"><ele>54.14285714285714</ele><time>2026-04-05T07:36:06.999Z</time></trkpt><trkpt lat="48.650012286108684" lon="-2.3674496993642777"><ele>55.0</ele><time>2026-04-05T07:36:10Z</time></trkpt><trkpt lat="48.65005680250256" lon="-2.367368014518278"><ele>55.0</ele><time>2026-04-05T07:36:12Z</time></trkpt><trkpt lat="48.65010873832873" lon="-2.3672693779991696"><ele>55.0</ele><time>2026-04-05T07:36:15Z</time></trkpt><trkpt lat="48.65016183685839" lon="-2.367178017312551"><ele>55.0</ele><time>2026-04-05T07:36:18Z</time></trkpt><trkpt lat="48.6502077332267" lon="-2.367077828456027"><ele>55.0</ele><time>2026-04-05T07:36:21Z</time></trkpt><trkpt lat="48.65025710283698" lon="-2.3669617096752766"><ele>55.0</ele><time>2026-04-05T07:36:24Z</time></trkpt><trkpt lat="48.65032004568971" lon="-2.3668056825509547"><ele>55.4</ele><time>2026-04-05T07:36:26Z</time></trkpt><trkpt lat="48.65035805035555" lon="-2.366672712366794"><ele>55.8</ele><time>2026-04-05T07:36:28Z</time></trkpt><trkpt lat="48.650404003112776" lon="-2.3665473615396833"><ele>56.2</ele><time>2026-04-05T07:36:30Z</time></trkpt><trkpt lat="48.65045327668527" lon="-2.3664092529615894"><ele>56.6</ele><time>2026-04-05T07:36:32Z</time></trkpt><trkpt lat="48.6505002807631" lon="-2.366281830351852"><ele>57.0</ele><time>2026-04-05T07:36:34Z</time></trkpt><trkpt lat="48.65052871966232" lon="-2.3661474011130332"><ele>57.0</ele><time>2026-04-05T07:36:36Z</time></trkpt><trkpt lat="48.650546694483126" lon="-2.3660031977280536"><ele>57.0</ele><time>2026-04-05T07:36:38Z</time></trkpt><trkpt lat="48.65057036762478" lon="-2.3658639825081154"><ele>57.0</ele><time>2026-04-05T07:36:40Z</time></trkpt><trkpt lat="48.65058490753153" lon="-2.3657234342699724"><ele>57.0</ele><time>2026-04-05T07:36:42Z</time></trkpt><trkpt lat="48.65059704190291" lon="-2.365604183419596"><ele>57.0</ele><time>2026-04-05T07:36:44Z</time></trkpt><trkpt lat="48.650574559865525" lon="-2.365507103889551"><ele>57.0</ele><time>2026-04-05T07:36:47Z</time></trkpt><trkpt lat="48.65049667010809" lon="-2.3654373314674757"><ele>57.0</ele><time>2026-04-05T07:36:49Z</time></trkpt><trkpt lat="48.65047801068663" lon="-2.3652927765473746"><ele>57.0</ele><time>2026-04-05T07:36:51Z</time></trkpt><trkpt lat="48.65049486141922" lon="-2.365140209164341"><ele>57.0</ele><time>2026-04-05T07:36:53Z</time></trkpt><trkpt lat="48.65050278257184" lon="-2.364992894524072"><ele>57.0</ele><time>2026-04-05T07:36:55Z</time></trkpt><trkpt lat="48.65051193300997" lon="-2.3648373141637835"><ele>57.0</ele><time>2026-04-05T07:36:57Z</time></trkpt><trkpt lat="48.650503118012836" lon="-2.3646561192778934"><ele>56.8</ele><time>2026-04-05T07:36:59Z</time></trkpt><trkpt lat="48.650503379912706" lon="-2.36450530532392"><ele>56.6</ele><time>2026-04-05T07:37:01Z</time></trkpt><trkpt lat="48.65050980887667" lon="-2.364348751469064"><ele>56.39999999999999</ele><time>2026-04-05T07:37:03Z</time></trkpt><trkpt lat="48.65049606433417" lon="-2.364214799870052"><ele>56.199999999999996</ele><time>2026-04-05T07:37:07Z</time></trkpt><trkpt lat="48.6504967026596" lon="-2.3640730084203856"><ele>56.0</ele><time>2026-04-05T07:37:09Z</time></trkpt><trkpt lat="48.65052285609566" lon="-2.3635856159066053"><ele>55.8</ele><time>2026-04-05T07:37:12Z</time></trkpt><trkpt lat="48.650525848121035" lon="-2.363420806005412"><ele>55.599999999999994</ele><time>2026-04-05T07:37:14Z</time></trkpt><trkpt lat="48.65053376153375" lon="-2.363247583962441"><ele>55.4</ele><time>2026-04-05T07:37:16Z</time></trkpt><trkpt lat="48.65052823818403" lon="-2.363071473307738"><ele>55.2</ele><time>2026-04-05T07:37:18Z</time></trkpt><trkpt lat="48.650531529294504" lon="-2.3629091306085783"><ele>55.0</ele><time>2026-04-05T07:37:20Z</time></trkpt><trkpt lat="48.650528204021185" lon="-2.3627485295945214"><ele>55.2</ele><time>2026-04-05T07:37:22Z</time></trkpt><trkpt lat="48.65051297301122" lon="-2.362592815575275"><ele>55.4</ele><time>2026-04-05T07:37:24Z</time></trkpt><trkpt lat="48.650536401440576" lon="-2.3624330929921977"><ele>55.599999999999994</ele><time>2026-04-05T07:37:26Z</time></trkpt><trkpt lat="48.65054163815668" lon="-2.362268287818346"><ele>55.8</ele><time>2026-04-05T07:37:28Z</time></trkpt><trkpt lat="48.65053956864307" lon="-2.3621101746992608"><ele>56.0</ele><time>2026-04-05T07:37:29.999Z</time></trkpt><trkpt lat="48.65052863637043" lon="-2.361956699570145"><ele>56.0</ele><time>2026-04-05T07:37:31.999Z</time></trkpt><trkpt lat="48.65053017096253" lon="-2.361789830739306"><ele>55.99999999999999</ele><time>2026-04-05T07:37:33.999Z</time></trkpt><trkpt lat="48.650524660216696" lon="-2.3616808239960974"><ele>55.99999999999999</ele><time>2026-04-05T07:37:35.999Z</time></trkpt><trkpt lat="48.65051808874929" lon="-2.3615263938362996"><ele>56.0</ele><time>2026-04-05T07:37:39.999Z</time></trkpt><trkpt lat="48.65051394307114" lon="-2.3613433660050247"><ele>56.0</ele><time>2026-04-05T07:37:41.999Z</time></trkpt><trkpt lat="48.65048495122071" lon="-2.3611982790078083"><ele>55.714285714285715</ele><time>2026-04-05T07:37:42.999Z</time></trkpt><trkpt lat="48.65046329267172" lon="-2.361105735264531"><ele>55.42857142857143</ele><time>2026-04-05T07:37:43.999Z</time></trkpt><trkpt lat="48.65036860093448" lon="-2.361014918967321"><ele>55.14285714285714</ele><time>2026-04-05T07:37:44.999Z</time></trkpt><trkpt lat="48.65031729783613" lon="-2.3609444173954626"><ele>54.85714285714286</ele><time>2026-04-05T07:37:45.999Z</time></trkpt><trkpt lat="48.6502702486771" lon="-2.360880368742259"><ele>54.57142857142857</ele><time>2026-04-05T07:37:46.999Z</time></trkpt><trkpt lat="48.65022290590505" lon="-2.3608167693206776"><ele>54.285714285714285</ele><time>2026-04-05T07:37:47.999Z</time></trkpt><trkpt lat="48.65017287887613" lon="-2.3607499548856814"><ele>54.0</ele><time>2026-04-05T07:37:48.999Z</time></trkpt><trkpt lat="48.65006628788526" lon="-2.3606327838018943"><ele>54.0</ele><time>2026-04-05T07:37:50.999Z</time></trkpt><trkpt lat="48.65001606858275" lon="-2.360566579936175"><ele>54.0</ele><time>2026-04-05T07:37:51.999Z</time></trkpt><trkpt lat="48.649960869594636" lon="-2.3605020709941926"><ele>54.0</ele><time>2026-04-05T07:37:52.999Z</time></trkpt><trkpt lat="48.64991997526558" lon="-2.3604170175378014"><ele>54.0</ele><time>2026-04-05T07:37:53.999Z</time></trkpt><trkpt lat="48.6498641510179" lon="-2.36034352717516"><ele>54.0</ele><time>2026-04-05T07:37:54.999Z</time></trkpt><trkpt lat="48.649810014393026" lon="-2.3602722575596116"><ele>54.0</ele><time>2026-04-05T07:37:55.999Z</time></trkpt><trkpt lat="48.649754953316545" lon="-2.3601997696986183"><ele>54.0</ele><time>2026-04-05T07:37:56.999Z</time></trkpt><trkpt lat="48.64970187201473" lon="-2.3601377463947237"><ele>53.666666666666664</ele><time>2026-04-05T07:37:57.999Z</time></trkpt><trkpt lat="48.64965259936078" lon="-2.360048822908393"><ele>53.33333333333333</ele><time>2026-04-05T07:37:58.999Z</time></trkpt><trkpt lat="48.649602188021845" lon="-2.3599641447370554"><ele>53.0</ele><time>2026-04-05T07:37:59.999Z</time></trkpt><trkpt lat="48.64953955055381" lon="-2.3598911688388444"><ele>52.666666666666664</ele><time>2026-04-05T07:38:00.999Z</time></trkpt><trkpt lat="48.64947602786176" lon="-2.3598259206463"><ele>52.33333333333333</ele><time>2026-04-05T07:38:01.999Z</time></trkpt><trkpt lat="48.649411183254806" lon="-2.3597469526057755"><ele>52.0</ele><time>2026-04-05T07:38:02.999Z</time></trkpt><trkpt lat="48.64934076182943" lon="-2.3596799004091236"><ele>50.857142857142854</ele><time>2026-04-05T07:38:03.999Z</time></trkpt><trkpt lat="48.64927224444489" lon="-2.359631685476269"><ele>49.714285714285715</ele><time>2026-04-05T07:38:04.999Z</time></trkpt><trkpt lat="48.64920317799873" lon="-2.359586418103453"><ele>48.57142857142857</ele><time>2026-04-05T07:38:05.999Z</time></trkpt><trkpt lat="48.64913505276456" lon="-2.3595409566509726"><ele>47.42857142857143</ele><time>2026-04-05T07:38:06.999Z</time></trkpt><trkpt lat="48.64906470108509" lon="-2.3595020192917344"><ele>46.285714285714285</ele><time>2026-04-05T07:38:07.999Z</time></trkpt><trkpt lat="48.6489946369962" lon="-2.359465074620319"><ele>45.142857142857146</ele><time>2026-04-05T07:38:08.999Z</time></trkpt><trkpt lat="48.64892742774481" lon="-2.359443893610121"><ele>44.0</ele><time>2026-04-05T07:38:09.999Z</time></trkpt><trkpt lat="48.64881809786014" lon="-2.3593720033636063"><ele>44.0</ele><time>2026-04-05T07:38:11.999Z</time></trkpt><trkpt lat="48.64873060231131" lon="-2.359318309676956"><ele>44.0</ele><time>2026-04-05T07:38:13.999Z</time></trkpt><trkpt lat="48.648728448164114" lon="-2.359057822055862"><ele>44.0</ele><time>2026-04-05T07:38:17Z</time></trkpt><trkpt lat="48.64879238611263" lon="-2.35890686642758"><ele>44.0</ele><time>2026-04-05T07:38:19Z</time></trkpt><trkpt lat="48.648836378363576" lon="-2.358832566741465"><ele>43.57142857142857</ele><time>2026-04-05T07:38:20Z</time></trkpt><trkpt lat="48.64887705499084" lon="-2.3587580669078547"><ele>43.14285714285714</ele><time>2026-04-05T07:38:21Z</time></trkpt><trkpt lat="48.64891237724083" lon="-2.3586728936731727"><ele>42.71428571428571</ele><time>2026-04-05T07:38:22Z</time></trkpt><trkpt lat="48.64894550651859" lon="-2.3585777338798755"><ele>42.285714285714285</ele><time>2026-04-05T07:38:23Z</time></trkpt><trkpt lat="48.64897368501646" lon="-2.3584771409423926"><ele>41.857142857142854</ele><time>2026-04-05T07:38:24Z</time></trkpt><trkpt lat="48.649003108173154" lon="-2.3583732677295512"><ele>41.42857142857142</ele><time>2026-04-05T07:38:25Z</time></trkpt><trkpt lat="48.64903085070289" lon="-2.3582663800404218"><ele>41.0</ele><time>2026-04-05T07:38:26Z</time></trkpt><trkpt lat="48.64906279572049" lon="-2.3581548051585797"><ele>41.0</ele><time>2026-04-05T07:38:27Z</time></trkpt><trkpt lat="48.64909209317425" lon="-2.358045004023963"><ele>41.0</ele><time>2026-04-05T07:38:28Z</time></trkpt><trkpt lat="48.64912482607402" lon="-2.357933378134163"><ele>41.0</ele><time>2026-04-05T07:38:29Z</time></trkpt><trkpt lat="48.64915425432064" lon="-2.357825983718377"><ele>41.0</ele><time>2026-04-05T07:38:30Z</time></trkpt><trkpt lat="48.649189262862" lon="-2.3577136904927922"><ele>41.0</ele><time>2026-04-05T07:38:31Z</time></trkpt><trkpt lat="48.649224285256714" lon="-2.3575966970405187"><ele>41.0</ele><time>2026-04-05T07:38:32Z</time></trkpt><trkpt lat="48.64923954681552" lon="-2.3574807043255066"><ele>40.33333333333333</ele><time>2026-04-05T07:38:33Z</time></trkpt><trkpt lat="48.6492851303896" lon="-2.357367061332591"><ele>39.666666666666664</ele><time>2026-04-05T07:38:34Z</time></trkpt><trkpt lat="48.64931112328788" lon="-2.357242597694612"><ele>39.0</ele><time>2026-04-05T07:38:35Z</time></trkpt><trkpt lat="48.64933529245256" lon="-2.3571112415238415"><ele>38.333333333333336</ele><time>2026-04-05T07:38:36Z</time></trkpt><trkpt lat="48.649368612565794" lon="-2.356980047376037"><ele>37.66666666666667</ele><time>2026-04-05T07:38:37Z</time></trkpt><trkpt lat="48.64939934092131" lon="-2.3568488929391647"><ele>37.0</ele><time>2026-04-05T07:38:38Z</time></trkpt><trkpt lat="48.649437420429" lon="-2.356712258761838"><ele>36.4</ele><time>2026-04-05T07:38:39Z</time></trkpt><trkpt lat="48.64947133642569" lon="-2.3565789110922775"><ele>35.800000000000004</ele><time>2026-04-05T07:38:40Z</time></trkpt><trkpt lat="48.64950215359793" lon="-2.3564330333138823"><ele>35.2</ele><time>2026-04-05T07:38:41Z</time></trkpt><trkpt lat="48.6495476959543" lon="-2.3563054395920973"><ele>34.6</ele><time>2026-04-05T07:38:42Z</time></trkpt><trkpt lat="48.64957562639752" lon="-2.3561736903131654"><ele>34.0</ele><time>2026-04-05T07:38:43Z</time></trkpt><trkpt lat="48.649601911549716" lon="-2.3560388184776597"><ele>34.0</ele><time>2026-04-05T07:38:44Z</time></trkpt><trkpt lat="48.64963772191329" lon="-2.3559070261633623"><ele>34.0</ele><time>2026-04-05T07:38:45Z</time></trkpt><trkpt lat="48.64966747783964" lon="-2.355779059099607"><ele>34.0</ele><time>2026-04-05T07:38:46Z</time></trkpt><trkpt lat="48.64970629264303" lon="-2.3556632449621926"><ele>34.0</ele><time>2026-04-05T07:38:47Z</time></trkpt><trkpt lat="48.649741791097085" lon="-2.3555538913120015"><ele>34.0</ele><time>2026-04-05T07:38:48Z</time></trkpt><trkpt lat="48.649781054326" lon="-2.3554363339813524"><ele>34.0</ele><time>2026-04-05T07:38:49Z</time></trkpt><trkpt lat="48.64981306028497" lon="-2.355321229845998"><ele>34.0</ele><time>2026-04-05T07:38:50Z</time></trkpt><trkpt lat="48.64986418409046" lon="-2.355226860221414"><ele>34.0</ele><time>2026-04-05T07:38:51Z</time></trkpt><trkpt lat="48.6499130997998" lon="-2.35514266329805"><ele>34.0</ele><time>2026-04-05T07:38:52Z</time></trkpt><trkpt lat="48.64996976939959" lon="-2.3550573452557164"><ele>34.0</ele><time>2026-04-05T07:38:53Z</time></trkpt><trkpt lat="48.65002832006383" lon="-2.3549940499803452"><ele>34.0</ele><time>2026-04-05T07:38:54Z</time></trkpt><trkpt lat="48.65008480850715" lon="-2.354925405295999"><ele>34.0</ele><time>2026-04-05T07:38:55Z</time></trkpt><trkpt lat="48.65013843529696" lon="-2.3548531214815682"><ele>34.0</ele><time>2026-04-05T07:38:56Z</time></trkpt><trkpt lat="48.65019360459002" lon="-2.3547853844379185"><ele>34.0</ele><time>2026-04-05T07:38:57Z</time></trkpt><trkpt lat="48.650254930110634" lon="-2.3547216025246938"><ele>34.0</ele><time>2026-04-05T07:38:58Z</time></trkpt><trkpt lat="48.65032015684523" lon="-2.354656533485144"><ele>34.0</ele><time>2026-04-05T07:38:59Z</time></trkpt><trkpt lat="48.65038748826461" lon="-2.3545989504264417"><ele>34.0</ele><time>2026-04-05T07:39:00Z</time></trkpt><trkpt lat="48.65043558218606" lon="-2.354534684409394"><ele>34.0</ele><time>2026-04-05T07:39:01Z</time></trkpt><trkpt lat="48.6505140021415" lon="-2.3543873679814773"><ele>33.857142857142854</ele><time>2026-04-05T07:39:03Z</time></trkpt><trkpt lat="48.650553291068405" lon="-2.3542824062273464"><ele>33.714285714285715</ele><time>2026-04-05T07:39:04Z</time></trkpt><trkpt lat="48.6505537536753" lon="-2.354178456477119"><ele>33.57142857142857</ele><time>2026-04-05T07:39:05Z</time></trkpt><trkpt lat="48.65054000833899" lon="-2.354064328328037"><ele>33.42857142857143</ele><time>2026-04-05T07:39:06Z</time></trkpt><trkpt lat="48.650509718368795" lon="-2.353955485071308"><ele>33.285714285714285</ele><time>2026-04-05T07:39:07Z</time></trkpt><trkpt lat="48.65047751394858" lon="-2.3538585953764453"><ele>33.14285714285714</ele><time>2026-04-05T07:39:08Z</time></trkpt><trkpt lat="48.650448984628795" lon="-2.3537647069892906"><ele>33.0</ele><time>2026-04-05T07:39:09Z</time></trkpt><trkpt lat="48.65043076264986" lon="-2.353671181033358"><ele>33.0</ele><time>2026-04-05T07:39:10Z</time></trkpt><trkpt lat="48.650406476308824" lon="-2.353577345318984"><ele>33.0</ele><time>2026-04-05T07:39:11Z</time></trkpt><trkpt lat="48.65039358987069" lon="-2.3534808704658476"><ele>33.0</ele><time>2026-04-05T07:39:12Z</time></trkpt><trkpt lat="48.65038260119987" lon="-2.3533786645480106"><ele>33.0</ele><time>2026-04-05T07:39:13Z</time></trkpt><trkpt lat="48.65036782762366" lon="-2.3532754999473577"><ele>33.0</ele><time>2026-04-05T07:39:14Z</time></trkpt><trkpt lat="48.65035530112931" lon="-2.353174004960738"><ele>33.0</ele><time>2026-04-05T07:39:15Z</time></trkpt><trkpt lat="48.65034282557928" lon="-2.3530711190066693"><ele>33.0</ele><time>2026-04-05T07:39:16Z</time></trkpt><trkpt lat="48.650325736584" lon="-2.3529683459849546"><ele>33.166666666666664</ele><time>2026-04-05T07:39:17Z</time></trkpt><trkpt lat="48.650311647307895" lon="-2.352867495411001"><ele>33.333333333333336</ele><time>2026-04-05T07:39:18Z</time></trkpt><trkpt lat="48.650303620786126" lon="-2.352763340719677"><ele>33.5</ele><time>2026-04-05T07:39:19Z</time></trkpt><trkpt lat="48.650292564218304" lon="-2.3526626631489767"><ele>33.66666666666667</ele><time>2026-04-05T07:39:20Z</time></trkpt><trkpt lat="48.650277326884805" lon="-2.3524788928175684"><ele>33.833333333333336</ele><time>2026-04-05T07:39:22Z</time></trkpt><trkpt lat="48.650262155818766" lon="-2.3523787358551758"><ele>34.0</ele><time>2026-04-05T07:39:24Z</time></trkpt><trkpt lat="48.65043819525384" lon="-2.3523811610608454"><ele>34.0</ele><time>2026-04-05T07:39:27Z</time></trkpt><trkpt lat="48.65050683637851" lon="-2.352425237236318"><ele>34.0</ele><time>2026-04-05T07:39:28.999Z</time></trkpt><trkpt lat="48.65059608542752" lon="-2.3524718413656935"><ele>34.0</ele><time>2026-04-05T07:39:31.999Z</time></trkpt><trkpt lat="48.65066327093429" lon="-2.3525268874565275"><ele>34.0</ele><time>2026-04-05T07:39:33.999Z</time></trkpt><trkpt lat="48.65073583559155" lon="-2.3525762037282645"><ele>34.0</ele><time>2026-04-05T07:39:35.999Z</time></trkpt><trkpt lat="48.650819435904076" lon="-2.3526125380506957"><ele>34.0</ele><time>2026-04-05T07:39:37.999Z</time></trkpt><trkpt lat="48.650897905139594" lon="-2.3526549260340675"><ele>34.0</ele><time>2026-04-05T07:39:39.999Z</time></trkpt><trkpt lat="48.6509785103198" lon="-2.3526895662825495"><ele>34.0</ele><time>2026-04-05T07:39:41.999Z</time></trkpt><trkpt lat="48.651050233789505" lon="-2.352711174171953"><ele>34.0</ele><time>2026-04-05T07:39:44.999Z</time></trkpt><trkpt lat="48.65111508316071" lon="-2.3527128840596814"><ele>34.0</ele><time>2026-04-05T07:39:47.999Z</time></trkpt><trkpt lat="48.651211164111764" lon="-2.3527217685743596"><ele>34.0</ele><time>2026-04-05T07:39:50.999Z</time></trkpt><trkpt lat="48.65127621246488" lon="-2.352729082685301"><ele>34.0</ele><time>2026-04-05T07:39:52.999Z</time></trkpt><trkpt lat="48.65135589241014" lon="-2.352736772699571"><ele>34.0</ele><time>2026-04-05T07:39:53.999Z</time></trkpt><trkpt lat="48.65145344733675" lon="-2.3527760825311432"><ele>34.0</ele><time>2026-04-05T07:39:55.999Z</time></trkpt><trkpt lat="48.65153528695014" lon="-2.352813081806715"><ele>34.0</ele><time>2026-04-05T07:39:57.999Z</time></trkpt><trkpt lat="48.65163990657468" lon="-2.3528093901930967"><ele>34.0</ele><time>2026-04-05T07:39:59.999Z</time></trkpt><trkpt lat="48.651718704495366" lon="-2.352849565976639"><ele>34.0</ele><time>2026-04-05T07:40:00.999Z</time></trkpt><trkpt lat="48.65177920562219" lon="-2.352883536593052"><ele>34.0</ele><time>2026-04-05T07:40:01.999Z</time></trkpt><trkpt lat="48.65184455861928" lon="-2.3529095713250383"><ele>33.99999999999999</ele><time>2026-04-05T07:40:02.999Z</time></trkpt><trkpt lat="48.65190813416846" lon="-2.3529309722878406"><ele>34.0</ele><time>2026-04-05T07:40:03.999Z</time></trkpt><trkpt lat="48.651975340814246" lon="-2.352959865643319"><ele>34.0</ele><time>2026-04-05T07:40:04.999Z</time></trkpt><trkpt lat="48.652039156888435" lon="-2.352985700775007"><ele>34.0</ele><time>2026-04-05T07:40:05.999Z</time></trkpt><trkpt lat="48.65210991853107" lon="-2.3530103115050993"><ele>34.0</ele><time>2026-04-05T07:40:06.999Z</time></trkpt><trkpt lat="48.65217413297584" lon="-2.3530316821716615"><ele>33.99999999999999</ele><time>2026-04-05T07:40:07.999Z</time></trkpt><trkpt lat="48.65223687464929" lon="-2.3530604858837925"><ele>34.0</ele><time>2026-04-05T07:40:08.999Z</time></trkpt><trkpt lat="48.65230264397861" lon="-2.353084945113814"><ele>34.0</ele><time>2026-04-05T07:40:09.999Z</time></trkpt><trkpt lat="48.652367452629484" lon="-2.3531100861318373"><ele>34.0</ele><time>2026-04-05T07:40:10.999Z</time></trkpt><trkpt lat="48.65249659246969" lon="-2.353145562849202"><ele>34.0</ele><time>2026-04-05T07:40:12.999Z</time></trkpt><trkpt lat="48.652622047400214" lon="-2.353154770562541"><ele>34.0</ele><time>2026-04-05T07:40:14.999Z</time></trkpt><trkpt lat="48.65274823032899" lon="-2.353140736413901"><ele>33.66666666666667</ele><time>2026-04-05T07:40:16.999Z</time></trkpt><trkpt lat="48.65281195815469" lon="-2.353129298747043"><ele>33.333333333333336</ele><time>2026-04-05T07:40:17.999Z</time></trkpt><trkpt lat="48.652932628566504" lon="-2.353098297574248"><ele>33.0</ele><time>2026-04-05T07:40:19.999Z</time></trkpt><trkpt lat="48.652994410789034" lon="-2.3530782091500475"><ele>32.666666666666664</ele><time>2026-04-05T07:40:21Z</time></trkpt><trkpt lat="48.65305755173954" lon="-2.3530616531641573"><ele>32.33333333333333</ele><time>2026-04-05T07:40:22Z</time></trkpt><trkpt lat="48.65317527081972" lon="-2.3530264706050095"><ele>32.0</ele><time>2026-04-05T07:40:24Z</time></trkpt><trkpt lat="48.65328768656757" lon="-2.3529827688014824"><ele>32.0</ele><time>2026-04-05T07:40:26Z</time></trkpt><trkpt lat="48.653412713520055" lon="-2.3529357058912974"><ele>32.0</ele><time>2026-04-05T07:40:28Z</time></trkpt><trkpt lat="48.65352949805627" lon="-2.3528986353490486"><ele>32.0</ele><time>2026-04-05T07:40:30Z</time></trkpt><trkpt lat="48.65365086284948" lon="-2.3528579095682183"><ele>32.0</ele><time>2026-04-05T07:40:32Z</time></trkpt><trkpt lat="48.65376573878278" lon="-2.352826706620296"><ele>31.5</ele><time>2026-04-05T07:40:34Z</time></trkpt><trkpt lat="48.65388379899788" lon="-2.3527865343993724"><ele>31.0</ele><time>2026-04-05T07:40:36Z</time></trkpt><trkpt lat="48.653999703656716" lon="-2.352744043746425"><ele>30.5</ele><time>2026-04-05T07:40:38Z</time></trkpt><trkpt lat="48.6541112798409" lon="-2.352700135582527"><ele>30.0</ele><time>2026-04-05T07:40:40Z</time></trkpt><trkpt lat="48.65423082697551" lon="-2.352649455899961"><ele>30.0</ele><time>2026-04-05T07:40:42Z</time></trkpt><trkpt lat="48.654294800588836" lon="-2.352605600488953"><ele>30.0</ele><time>2026-04-05T07:40:43Z</time></trkpt><trkpt lat="48.65436296014716" lon="-2.352551616255102"><ele>30.0</ele><time>2026-04-05T07:40:44Z</time></trkpt><trkpt lat="48.654434285980344" lon="-2.352505698621633"><ele>30.0</ele><time>2026-04-05T07:40:45Z</time></trkpt><trkpt lat="48.654499154453696" lon="-2.352461975403975"><ele>30.0</ele><time>2026-04-05T07:40:46Z</time></trkpt><trkpt lat="48.65459474595603" lon="-2.3524076025726632"><ele>30.0</ele><time>2026-04-05T07:40:48Z</time></trkpt><trkpt lat="48.65467346168746" lon="-2.3523710191967213"><ele>29.333333333333332</ele><time>2026-04-05T07:40:50Z</time></trkpt><trkpt lat="48.65474657803545" lon="-2.3523321884716095"><ele>28.666666666666664</ele><time>2026-04-05T07:40:53Z</time></trkpt><trkpt lat="48.654840109195085" lon="-2.3522838613194907"><ele>28.0</ele><time>2026-04-05T07:40:56Z</time></trkpt><trkpt lat="48.65490425868241" lon="-2.3521841085382977"><ele>27.333333333333332</ele><time>2026-04-05T07:40:58Z</time></trkpt><trkpt lat="48.65497468839721" lon="-2.35209966105397"><ele>26.666666666666664</ele><time>2026-04-05T07:41:00Z</time></trkpt><trkpt lat="48.65504831651701" lon="-2.3520330092525596"><ele>26.0</ele><time>2026-04-05T07:41:02Z</time></trkpt><trkpt lat="48.65512924618971" lon="-2.3519875385121414"><ele>25.8</ele><time>2026-04-05T07:41:04Z</time></trkpt><trkpt lat="48.65520933230226" lon="-2.3519315786145225"><ele>25.6</ele><time>2026-04-05T07:41:06Z</time></trkpt><trkpt lat="48.65529502986892" lon="-2.351889394214539"><ele>25.4</ele><time>2026-04-05T07:41:08Z</time></trkpt><trkpt lat="48.65539099746422" lon="-2.351840474023621"><ele>25.2</ele><time>2026-04-05T07:41:10Z</time></trkpt><trkpt lat="48.65549583831584" lon="-2.351786533975824"><ele>25.0</ele><time>2026-04-05T07:41:12Z</time></trkpt><trkpt lat="48.65555452416257" lon="-2.3517465228966876"><ele>24.857142857142858</ele><time>2026-04-05T07:41:13Z</time></trkpt><trkpt lat="48.655617236916235" lon="-2.351710730578479"><ele>24.714285714285715</ele><time>2026-04-05T07:41:14Z</time></trkpt><trkpt lat="48.655678932419775" lon="-2.3516791141327458"><ele>24.57142857142857</ele><time>2026-04-05T07:41:15Z</time></trkpt><trkpt lat="48.65574321381771" lon="-2.3516497708408313"><ele>24.42857142857143</ele><time>2026-04-05T07:41:16Z</time></trkpt><trkpt lat="48.6558046350883" lon="-2.351617467285502"><ele>24.285714285714285</ele><time>2026-04-05T07:41:17Z</time></trkpt><trkpt lat="48.655865722872704" lon="-2.3515934095680944"><ele>24.142857142857142</ele><time>2026-04-05T07:41:18Z</time></trkpt><trkpt lat="48.6559254193619" lon="-2.3515617802754814"><ele>24.0</ele><time>2026-04-05T07:41:19Z</time></trkpt><trkpt lat="48.65603884052849" lon="-2.351499466709371"><ele>24.2</ele><time>2026-04-05T07:41:21Z</time></trkpt><trkpt lat="48.65614684926506" lon="-2.3514491133028"><ele>24.4</ele><time>2026-04-05T07:41:23Z</time></trkpt><trkpt lat="48.656251962703244" lon="-2.351399863081615"><ele>24.6</ele><time>2026-04-05T07:41:25Z</time></trkpt><trkpt lat="48.65633982548601" lon="-2.3513575611121587"><ele>24.8</ele><time>2026-04-05T07:41:27Z</time></trkpt><trkpt lat="48.656428530800085" lon="-2.351320557908671"><ele>25.0</ele><time>2026-04-05T07:41:29Z</time></trkpt><trkpt lat="48.656497034301715" lon="-2.35123488216772"><ele>25.000000000000004</ele><time>2026-04-05T07:41:31Z</time></trkpt><trkpt lat="48.65647173395714" lon="-2.3511357620762703"><ele>25.0</ele><time>2026-04-05T07:41:32Z</time></trkpt><trkpt lat="48.65646775179829" lon="-2.351031770411498"><ele>25.0</ele><time>2026-04-05T07:41:34Z</time></trkpt><trkpt lat="48.656470018376524" lon="-2.350904025552358"><ele>25.0</ele><time>2026-04-05T07:41:36.999Z</time></trkpt><trkpt lat="48.65648359396107" lon="-2.3507825952888886"><ele>25.0</ele><time>2026-04-05T07:41:39.999Z</time></trkpt><trkpt lat="48.656483080582454" lon="-2.3506853856397383"><ele>25.000000000000004</ele><time>2026-04-05T07:41:42.999Z</time></trkpt><trkpt lat="48.65648898176496" lon="-2.3505898606867373"><ele>25.0</ele><time>2026-04-05T07:41:45.999Z</time></trkpt><trkpt lat="48.65650041797368" lon="-2.35049555373783"><ele>25.166666666666668</ele><time>2026-04-05T07:41:47.999Z</time></trkpt><trkpt lat="48.656532253451" lon="-2.350400478870644"><ele>25.333333333333336</ele><time>2026-04-05T07:41:51.999Z</time></trkpt><trkpt lat="48.65660367074855" lon="-2.35035341425042"><ele>25.5</ele><time>2026-04-05T07:41:54.999Z</time></trkpt><trkpt lat="48.65668935915505" lon="-2.350286881645609"><ele>25.666666666666664</ele><time>2026-04-05T07:41:57.999Z</time></trkpt><trkpt lat="48.65674873767068" lon="-2.350189446116257"><ele>25.833333333333332</ele><time>2026-04-05T07:41:59.999Z</time></trkpt><trkpt lat="48.656787322061895" lon="-2.3501070684974628"><ele>26.0</ele><time>2026-04-05T07:42:02.999Z</time></trkpt><trkpt lat="48.656871440164196" lon="-2.350068012895502"><ele>26.0</ele><time>2026-04-05T07:42:04.999Z</time></trkpt><trkpt lat="48.65691179308495" lon="-2.3499892947131196"><ele>26.0</ele><time>2026-04-05T07:42:06.999Z</time></trkpt><trkpt lat="48.65697400081152" lon="-2.349965164131502"><ele>26.0</ele><time>2026-04-05T07:42:07.999Z</time></trkpt><trkpt lat="48.65712035153894" lon="-2.349789842415813"><ele>26.0</ele><time>2026-04-05T07:42:10.999Z</time></trkpt><trkpt lat="48.65722481126985" lon="-2.34971418574719"><ele>26.0</ele><time>2026-04-05T07:42:11.999Z</time></trkpt><trkpt lat="48.65729568205661" lon="-2.3496221521570404"><ele>26.4</ele><time>2026-04-05T07:42:13.999Z</time></trkpt><trkpt lat="48.657372714092126" lon="-2.349557040774322"><ele>26.8</ele><time>2026-04-05T07:42:15.999Z</time></trkpt><trkpt lat="48.65744647037286" lon="-2.349468906732492"><ele>27.199999999999996</ele><time>2026-04-05T07:42:17.999Z</time></trkpt><trkpt lat="48.65751080813464" lon="-2.3493505369669743"><ele>27.599999999999998</ele><time>2026-04-05T07:42:19.999Z</time></trkpt><trkpt lat="48.65758158791273" lon="-2.349285596334002"><ele>28.0</ele><time>2026-04-05T07:42:21.999Z</time></trkpt><trkpt lat="48.65765899859849" lon="-2.3493531245122017"><ele>28.0</ele><time>2026-04-05T07:42:23.999Z</time></trkpt><trkpt lat="48.657718533005344" lon="-2.349474367407441"><ele>27.999999999999996</ele><time>2026-04-05T07:42:25.999Z</time></trkpt><trkpt lat="48.657785451480045" lon="-2.349577105467916"><ele>27.999999999999996</ele><time>2026-04-05T07:42:28Z</time></trkpt><trkpt lat="48.65785539404994" lon="-2.349701447339926"><ele>28.0</ele><time>2026-04-05T07:42:30Z</time></trkpt><trkpt lat="48.65791403436803" lon="-2.3498062823925747"><ele>28.0</ele><time>2026-04-05T07:42:32Z</time></trkpt><trkpt lat="48.65795624830982" lon="-2.349897391243583"><ele>27.666666666666668</ele><time>2026-04-05T07:42:34Z</time></trkpt><trkpt lat="48.65800366940875" lon="-2.350002830535328"><ele>27.333333333333336</ele><time>2026-04-05T07:42:36Z</time></trkpt><trkpt lat="48.658034343779015" lon="-2.350140947904234"><ele>27.0</ele><time>2026-04-05T07:42:38Z</time></trkpt><trkpt lat="48.65805086466045" lon="-2.3502617258417224"><ele>26.666666666666664</ele><time>2026-04-05T07:42:40Z</time></trkpt><trkpt lat="48.65809736072014" lon="-2.350378101455966"><ele>26.333333333333332</ele><time>2026-04-05T07:42:42Z</time></trkpt><trkpt lat="48.6581464556121" lon="-2.3504990076383527"><ele>26.0</ele><time>2026-04-05T07:42:44Z</time></trkpt><trkpt lat="48.658212068238306" lon="-2.350562656524482"><ele>25.999999999999996</ele><time>2026-04-05T07:42:46Z</time></trkpt><trkpt lat="48.65829715493876" lon="-2.350574782341843"><ele>26.0</ele><time>2026-04-05T07:42:48Z</time></trkpt><trkpt lat="48.65839198896052" lon="-2.350514322639648"><ele>26.0</ele><time>2026-04-05T07:42:50Z</time></trkpt><trkpt lat="48.65847457522556" lon="-2.3504919674135674"><ele>26.0</ele><time>2026-04-05T07:42:52Z</time></trkpt><trkpt lat="48.65855406614893" lon="-2.35044708683847"><ele>25.999999999999996</ele><time>2026-04-05T07:42:54Z</time></trkpt><trkpt lat="48.658633837624414" lon="-2.3504102328943977"><ele>26.0</ele><time>2026-04-05T07:42:56Z</time></trkpt><trkpt lat="48.658733691645935" lon="-2.350369694011838"><ele>25.57142857142857</ele><time>2026-04-05T07:42:58Z</time></trkpt><trkpt lat="48.65877275866626" lon="-2.3502482185633573"><ele>25.142857142857146</ele><time>2026-04-05T07:42:59Z</time></trkpt><trkpt lat="48.65882313335581" lon="-2.3501791429511174"><ele>24.714285714285715</ele><time>2026-04-05T07:43:00Z</time></trkpt><trkpt lat="48.658869290023055" lon="-2.3501066277875995"><ele>24.285714285714285</ele><time>2026-04-05T07:43:01Z</time></trkpt><trkpt lat="48.658919380718615" lon="-2.3500360369788513"><ele>23.857142857142854</ele><time>2026-04-05T07:43:02Z</time></trkpt><trkpt lat="48.65896769147852" lon="-2.3499670933740453"><ele>23.42857142857143</ele><time>2026-04-05T07:43:03Z</time></trkpt><trkpt lat="48.65901999845764" lon="-2.3499075687013233"><ele>23.0</ele><time>2026-04-05T07:43:04Z</time></trkpt><trkpt lat="48.659070572849586" lon="-2.349844510819365"><ele>23.0</ele><time>2026-04-05T07:43:05Z</time></trkpt><trkpt lat="48.659121132845364" lon="-2.3497823800476456"><ele>23.0</ele><time>2026-04-05T07:43:06Z</time></trkpt><trkpt lat="48.65921294428565" lon="-2.3496618193327077"><ele>23.0</ele><time>2026-04-05T07:43:08Z</time></trkpt><trkpt lat="48.65929211789723" lon="-2.3495531927099744"><ele>23.0</ele><time>2026-04-05T07:43:10Z</time></trkpt><trkpt lat="48.65936309734945" lon="-2.3494641680166035"><ele>23.0</ele><time>2026-04-05T07:43:12Z</time></trkpt><trkpt lat="48.65942968488591" lon="-2.3493904914795425"><ele>22.666666666666668</ele><time>2026-04-05T07:43:14Z</time></trkpt><trkpt lat="48.659511764665766" lon="-2.3493664734878474"><ele>22.333333333333336</ele><time>2026-04-05T07:43:16Z</time></trkpt><trkpt lat="48.65958748237248" lon="-2.3493188590981195"><ele>22.0</ele><time>2026-04-05T07:43:18Z</time></trkpt><trkpt lat="48.659647100513446" lon="-2.349226447913313"><ele>21.666666666666668</ele><time>2026-04-05T07:43:20Z</time></trkpt><trkpt lat="48.659712139767805" lon="-2.349126513715552"><ele>21.333333333333332</ele><time>2026-04-05T07:43:22Z</time></trkpt><trkpt lat="48.65976975311986" lon="-2.3490429416702057"><ele>21.0</ele><time>2026-04-05T07:43:24Z</time></trkpt><trkpt lat="48.65983307969519" lon="-2.348967671361165"><ele>20.833333333333332</ele><time>2026-04-05T07:44:24.999Z</time></trkpt><trkpt lat="48.65989922946367" lon="-2.3488746947565198"><ele>20.666666666666668</ele><time>2026-04-05T07:44:27.999Z</time></trkpt><trkpt lat="48.65995871016327" lon="-2.3488040190486075"><ele>20.5</ele><time>2026-04-05T07:44:29.999Z</time></trkpt><trkpt lat="48.6600280152915" lon="-2.3487200291466395"><ele>20.333333333333336</ele><time>2026-04-05T07:44:31.999Z</time></trkpt><trkpt lat="48.66010061357036" lon="-2.34863811426193"><ele>20.166666666666668</ele><time>2026-04-05T07:44:34Z</time></trkpt><trkpt lat="48.660164004424075" lon="-2.348576980220254"><ele>20.0</ele><time>2026-04-05T07:44:36Z</time></trkpt><trkpt lat="48.66022766824853" lon="-2.3486022047421278"><ele>20.0</ele><time>2026-04-05T07:44:38Z</time></trkpt><trkpt lat="48.66027230707064" lon="-2.348727161934167"><ele>20.0</ele><time>2026-04-05T07:44:40Z</time></trkpt><trkpt lat="48.660305820387165" lon="-2.3488186365558397"><ele>20.0</ele><time>2026-04-05T07:44:42Z</time></trkpt><trkpt lat="48.660380561169355" lon="-2.3488244801177633"><ele>20.0</ele><time>2026-04-05T07:44:44Z</time></trkpt><trkpt lat="48.66045485487991" lon="-2.3487285264976014"><ele>20.0</ele><time>2026-04-05T07:44:46Z</time></trkpt><trkpt lat="48.660524422396904" lon="-2.348642713497926"><ele>20.0</ele><time>2026-04-05T07:44:48Z</time></trkpt><trkpt lat="48.66060092520071" lon="-2.3485819182900203"><ele>18.833333333333336</ele><time>2026-04-05T07:44:50Z</time></trkpt><trkpt lat="48.66067794384317" lon="-2.3485290380963115"><ele>17.666666666666668</ele><time>2026-04-05T07:44:52Z</time></trkpt><trkpt lat="48.66075229362879" lon="-2.348475888444925"><ele>16.5</ele><time>2026-04-05T07:44:54Z</time></trkpt><trkpt lat="48.660825132712475" lon="-2.348414057766639"><ele>15.333333333333332</ele><time>2026-04-05T07:44:57Z</time></trkpt><trkpt lat="48.66088963398547" lon="-2.3483748018496358"><ele>14.166666666666666</ele><time>2026-04-05T07:45:01Z</time></trkpt><trkpt lat="48.660948504606985" lon="-2.348334576482794"><ele>13.0</ele><time>2026-04-05T07:45:05Z</time></trkpt><trkpt lat="48.66100974517417" lon="-2.3482746050833807"><ele>12.999999999999998</ele><time>2026-04-05T07:45:08Z</time></trkpt><trkpt lat="48.661060732698566" lon="-2.3481473931104375"><ele>13.0</ele><time>2026-04-05T07:45:11Z</time></trkpt><trkpt lat="48.661074652546766" lon="-2.348028025921547"><ele>13.0</ele><time>2026-04-05T07:45:13Z</time></trkpt><trkpt lat="48.6610814762036" lon="-2.3479304984192106"><ele>13.0</ele><time>2026-04-05T07:45:15Z</time></trkpt><trkpt lat="48.66114151220234" lon="-2.347869107293862"><ele>12.999999999999998</ele><time>2026-04-05T07:45:17Z</time></trkpt><trkpt lat="48.66122912539749" lon="-2.3479130489705837"><ele>13.0</ele><time>2026-04-05T07:45:19Z</time></trkpt><trkpt lat="48.66132302208846" lon="-2.3479718956105864"><ele>13.0</ele><time>2026-04-05T07:45:21Z</time></trkpt><trkpt lat="48.66142754424709" lon="-2.3480335265254766"><ele>13.0</ele><time>2026-04-05T07:45:23Z</time></trkpt><trkpt lat="48.66149680490266" lon="-2.3479978774908163"><ele>13.0</ele><time>2026-04-05T07:45:24Z</time></trkpt><trkpt lat="48.66159860075639" lon="-2.348052588976315"><ele>13.0</ele><time>2026-04-05T07:45:26Z</time></trkpt><trkpt lat="48.66169571373062" lon="-2.348101455578836"><ele>13.0</ele><time>2026-04-05T07:45:28Z</time></trkpt><trkpt lat="48.66178517393254" lon="-2.3481405642679403"><ele>12.999999999999998</ele><time>2026-04-05T07:45:30Z</time></trkpt><trkpt lat="48.661877674520596" lon="-2.348179460680419"><ele>13.0</ele><time>2026-04-05T07:45:32Z</time></trkpt><trkpt lat="48.66197158738101" lon="-2.348215016331773"><ele>13.0</ele><time>2026-04-05T07:45:34Z</time></trkpt><trkpt lat="48.66203917164415" lon="-2.348238722092603"><ele>13.0</ele><time>2026-04-05T07:45:36Z</time></trkpt><trkpt lat="48.662116544197524" lon="-2.348253735963081"><ele>12.999999999999998</ele><time>2026-04-05T07:45:38Z</time></trkpt><trkpt lat="48.66218834493263" lon="-2.3482625194020543"><ele>13.0</ele><time>2026-04-05T07:45:40Z</time></trkpt><trkpt lat="48.66227002581122" lon="-2.3482650504457405"><ele>13.166666666666666</ele><time>2026-04-05T07:45:41Z</time></trkpt><trkpt lat="48.66235351158029" lon="-2.348262260342861"><ele>13.333333333333332</ele><time>2026-04-05T07:45:43Z</time></trkpt><trkpt lat="48.66244017976545" lon="-2.3482491523924436"><ele>13.5</ele><time>2026-04-05T07:45:45Z</time></trkpt><trkpt lat="48.66251164986963" lon="-2.348220779227386"><ele>13.666666666666668</ele><time>2026-04-05T07:45:47Z</time></trkpt><trkpt lat="48.66258686236527" lon="-2.3481864748079566"><ele>13.833333333333334</ele><time>2026-04-05T07:45:49Z</time></trkpt><trkpt lat="48.66266248615363" lon="-2.3481423005825772"><ele>14.0</ele><time>2026-04-05T07:45:51Z</time></trkpt><trkpt lat="48.66274475124196" lon="-2.3481471370737523"><ele>13.285714285714286</ele><time>2026-04-05T07:45:53Z</time></trkpt><trkpt lat="48.66281383158959" lon="-2.3481178913289074"><ele>12.571428571428571</ele><time>2026-04-05T07:45:55Z</time></trkpt><trkpt lat="48.66287008423491" lon="-2.348055342841218"><ele>11.857142857142858</ele><time>2026-04-05T07:45:57Z</time></trkpt><trkpt lat="48.6629178917269" lon="-2.3479814902279785"><ele>11.142857142857142</ele><time>2026-04-05T07:46:00Z</time></trkpt><trkpt lat="48.66297475941934" lon="-2.347921036501279"><ele>10.428571428571429</ele><time>2026-04-05T07:46:01.999Z</time></trkpt><trkpt lat="48.663020094084416" lon="-2.3478513681625426"><ele>9.714285714285715</ele><time>2026-04-05T07:46:04.999Z</time></trkpt><trkpt lat="48.66306698190715" lon="-2.3477845306751948"><ele>9.0</ele><time>2026-04-05T07:46:06.999Z</time></trkpt><trkpt lat="48.66311587582922" lon="-2.3476899573989862"><ele>11.4</ele><time>2026-04-05T07:46:08.999Z</time></trkpt><trkpt lat="48.66317051301289" lon="-2.3475556773197113"><ele>13.8</ele><time>2026-04-05T07:46:11.999Z</time></trkpt><trkpt lat="48.66322236500991" lon="-2.3474345926437965"><ele>16.200000000000003</ele><time>2026-04-05T07:46:14.999Z</time></trkpt><trkpt lat="48.66324554737943" lon="-2.3472491071860233"><ele>18.6</ele><time>2026-04-05T07:46:18.999Z</time></trkpt><trkpt lat="48.66328464865388" lon="-2.3471671276416357"><ele>21.0</ele><time>2026-04-05T07:46:21.999Z</time></trkpt><trkpt lat="48.663309059656974" lon="-2.3470360108985595"><ele>21.714285714285715</ele><time>2026-04-05T07:46:23.999Z</time></trkpt><trkpt lat="48.66334018968034" lon="-2.3469476161674154"><ele>22.42857142857143</ele><time>2026-04-05T07:46:25.999Z</time></trkpt><trkpt lat="48.66335332956263" lon="-2.3468373914034233"><ele>23.142857142857142</ele><time>2026-04-05T07:46:27.999Z</time></trkpt><trkpt lat="48.66335879173023" lon="-2.346728682896461"><ele>23.857142857142858</ele><time>2026-04-05T07:46:29.999Z</time></trkpt><trkpt lat="48.66336148397492" lon="-2.3466219708750033"><ele>24.571428571428573</ele><time>2026-04-05T07:46:31.999Z</time></trkpt><trkpt lat="48.66335938180652" lon="-2.346509301093914"><ele>25.285714285714285</ele><time>2026-04-05T07:46:34.999Z</time></trkpt><trkpt lat="48.66334895265455" lon="-2.34641204227014"><ele>26.0</ele><time>2026-04-05T07:46:36.999Z</time></trkpt><trkpt lat="48.66333663863658" lon="-2.3462741902770707"><ele>26.166666666666664</ele><time>2026-04-05T07:46:40Z</time></trkpt><trkpt lat="48.663318769125596" lon="-2.3461650253336495"><ele>26.333333333333332</ele><time>2026-04-05T07:46:42Z</time></trkpt><trkpt lat="48.66330648173284" lon="-2.3460548569449604"><ele>26.5</ele><time>2026-04-05T07:46:45Z</time></trkpt><trkpt lat="48.663299666868895" lon="-2.345918235012562"><ele>26.666666666666664</ele><time>2026-04-05T07:46:47Z</time></trkpt><trkpt lat="48.66328251285128" lon="-2.3458160733447344"><ele>26.833333333333332</ele><time>2026-04-05T07:46:49Z</time></trkpt><trkpt lat="48.66326590446946" lon="-2.3457220806223114"><ele>27.0</ele><time>2026-04-05T07:46:51Z</time></trkpt><trkpt lat="48.663244273232124" lon="-2.345588048044"><ele>27.333333333333332</ele><time>2026-04-05T07:46:53Z</time></trkpt><trkpt lat="48.663208911698796" lon="-2.3454354466450447"><ele>27.666666666666664</ele><time>2026-04-05T07:46:56Z</time></trkpt><trkpt lat="48.66318332520767" lon="-2.345306929551755"><ele>28.0</ele><time>2026-04-05T07:46:59Z</time></trkpt><trkpt lat="48.66315578907206" lon="-2.3451620717043413"><ele>28.333333333333332</ele><time>2026-04-05T07:47:02Z</time></trkpt><trkpt lat="48.663152288196144" lon="-2.345049706275053"><ele>28.666666666666664</ele><time>2026-04-05T07:47:05Z</time></trkpt><trkpt lat="48.66312007906414" lon="-2.34494342741715"><ele>29.0</ele><time>2026-04-05T07:47:06Z</time></trkpt><trkpt lat="48.66309440381856" lon="-2.344829115384532"><ele>29.4</ele><time>2026-04-05T07:47:09Z</time></trkpt><trkpt lat="48.663067879662336" lon="-2.3446905582441833"><ele>29.799999999999997</ele><time>2026-04-05T07:47:12Z</time></trkpt><trkpt lat="48.66305459355074" lon="-2.344568709032827"><ele>30.200000000000003</ele><time>2026-04-05T07:47:14Z</time></trkpt><trkpt lat="48.66302700709084" lon="-2.344410641015829"><ele>30.6</ele><time>2026-04-05T07:47:17Z</time></trkpt><trkpt lat="48.66301723978532" lon="-2.3442723181219978"><ele>31.0</ele><time>2026-04-05T07:47:19Z</time></trkpt><trkpt lat="48.66301001108289" lon="-2.3441508689056847"><ele>31.000000000000004</ele><time>2026-04-05T07:47:21Z</time></trkpt><trkpt lat="48.663021700714566" lon="-2.344026055098856"><ele>31.0</ele><time>2026-04-05T07:47:24Z</time></trkpt><trkpt lat="48.66303901390643" lon="-2.3438836874216835"><ele>31.0</ele><time>2026-04-05T07:47:26Z</time></trkpt><trkpt lat="48.66306538046094" lon="-2.3437698278028645"><ele>31.0</ele><time>2026-04-05T07:47:29Z</time></trkpt><trkpt lat="48.663096549858295" lon="-2.3436528321772716"><ele>31.000000000000004</ele><time>2026-04-05T07:47:30Z</time></trkpt><trkpt lat="48.66313942934702" lon="-2.343548381323015"><ele>31.0</ele><time>2026-04-05T07:47:32Z</time></trkpt><trkpt lat="48.66319237822924" lon="-2.343409810704485"><ele>32.0</ele><time>2026-04-05T07:47:34Z</time></trkpt><trkpt lat="48.663262084099436" lon="-2.343288925142172"><ele>33.0</ele><time>2026-04-05T07:47:37Z</time></trkpt><trkpt lat="48.663290819822556" lon="-2.3430992101859527"><ele>34.0</ele><time>2026-04-05T07:47:40Z</time></trkpt><trkpt lat="48.66337167057248" lon="-2.3430112940451058"><ele>35.0</ele><time>2026-04-05T07:47:42Z</time></trkpt><trkpt lat="48.663453422871925" lon="-2.3429417786603794"><ele>36.0</ele><time>2026-04-05T07:47:43Z</time></trkpt><trkpt lat="48.66351428302737" lon="-2.3429050621183705"><ele>36.666666666666664</ele><time>2026-04-05T07:47:44Z</time></trkpt><trkpt lat="48.663606922051336" lon="-2.342854777390182"><ele>37.33333333333333</ele><time>2026-04-05T07:47:46Z</time></trkpt><trkpt lat="48.66370150309971" lon="-2.342826881844942"><ele>38.0</ele><time>2026-04-05T07:47:49Z</time></trkpt><trkpt lat="48.663995154076886" lon="-2.342785723345857"><ele>38.0</ele><time>2026-04-05T07:47:53Z</time></trkpt><trkpt lat="48.66408781445505" lon="-2.3427797362137825"><ele>38.0</ele><time>2026-04-05T07:47:55Z</time></trkpt><trkpt lat="48.66418504495367" lon="-2.342771989845234"><ele>38.0</ele><time>2026-04-05T07:47:57Z</time></trkpt><trkpt lat="48.66428491731645" lon="-2.342761248873572"><ele>38.0</ele><time>2026-04-05T07:47:59Z</time></trkpt><trkpt lat="48.66438911828107" lon="-2.3427500985383665"><ele>38.0</ele><time>2026-04-05T07:48:01Z</time></trkpt><trkpt lat="48.66447809497518" lon="-2.3427374970365955"><ele>37.6</ele><time>2026-04-05T07:48:03Z</time></trkpt><trkpt lat="48.664574824902246" lon="-2.342789399403888"><ele>37.199999999999996</ele><time>2026-04-05T07:48:05Z</time></trkpt><trkpt lat="48.66467272886028" lon="-2.3427786941113693"><ele>36.8</ele><time>2026-04-05T07:48:06.999Z</time></trkpt><trkpt lat="48.664770140061194" lon="-2.3427560595002497"><ele>36.4</ele><time>2026-04-05T07:48:08.999Z</time></trkpt><trkpt lat="48.66486673572952" lon="-2.3426472814414594"><ele>36.0</ele><time>2026-04-05T07:48:10.999Z</time></trkpt><trkpt lat="48.66496218981281" lon="-2.3426083409987206"><ele>36.0</ele><time>2026-04-05T07:48:12.999Z</time></trkpt><trkpt lat="48.66505753556418" lon="-2.342562237361395"><ele>36.0</ele><time>2026-04-05T07:48:14.999Z</time></trkpt><trkpt lat="48.665149511481346" lon="-2.3425086171177956"><ele>36.0</ele><time>2026-04-05T07:48:16.999Z</time></trkpt><trkpt lat="48.66523908711036" lon="-2.342453452155752"><ele>36.0</ele><time>2026-04-05T07:48:18.999Z</time></trkpt><trkpt lat="48.66533605744225" lon="-2.3423890634461313"><ele>36.0</ele><time>2026-04-05T07:48:20.999Z</time></trkpt><trkpt lat="48.66543625263558" lon="-2.342321508263155"><ele>36.333333333333336</ele><time>2026-04-05T07:48:22.999Z</time></trkpt><trkpt lat="48.665527262229546" lon="-2.3422590557553202"><ele>36.666666666666664</ele><time>2026-04-05T07:48:24.999Z</time></trkpt><trkpt lat="48.66558736839287" lon="-2.342217809771015"><ele>37.0</ele><time>2026-04-05T07:48:27.999Z</time></trkpt><trkpt lat="48.665654485333434" lon="-2.34217175282406"><ele>37.33333333333333</ele><time>2026-04-05T07:48:29.999Z</time></trkpt><trkpt lat="48.665754669911266" lon="-2.342103004216561"><ele>37.666666666666664</ele><time>2026-04-05T07:48:30.999Z</time></trkpt><trkpt lat="48.66581237780041" lon="-2.342063403988298"><ele>38.0</ele><time>2026-04-05T07:48:31.999Z</time></trkpt><trkpt lat="48.66590703624421" lon="-2.3419984474656026"><ele>38.0</ele><time>2026-04-05T07:48:33.999Z</time></trkpt><trkpt lat="48.66600316411712" lon="-2.3419324826773393"><ele>38.0</ele><time>2026-04-05T07:48:35.999Z</time></trkpt><trkpt lat="48.666097918107724" lon="-2.3418674606659624"><ele>38.0</ele><time>2026-04-05T07:48:37.999Z</time></trkpt><trkpt lat="48.666195316185856" lon="-2.341858523480695"><ele>38.0</ele><time>2026-04-05T07:48:39.999Z</time></trkpt><trkpt lat="48.66627535107884" lon="-2.3418105091203762"><ele>38.0</ele><time>2026-04-05T07:48:41.999Z</time></trkpt><trkpt lat="48.66635186105351" lon="-2.3417189000502256"><ele>38.14285714285714</ele><time>2026-04-05T07:48:43.999Z</time></trkpt><trkpt lat="48.66640955819823" lon="-2.3416602840355796"><ele>38.28571428571429</ele><time>2026-04-05T07:48:47Z</time></trkpt><trkpt lat="48.66645917965699" lon="-2.3415830433722773"><ele>38.42857142857143</ele><time>2026-04-05T07:48:49Z</time></trkpt><trkpt lat="48.66650735758798" lon="-2.341508110021956"><ele>38.57142857142857</ele><time>2026-04-05T07:48:51Z</time></trkpt><trkpt lat="48.66655190972663" lon="-2.3414283014793966"><ele>38.71428571428571</ele><time>2026-04-05T07:48:52Z</time></trkpt><trkpt lat="48.666583899084294" lon="-2.3413281812299696"><ele>38.85714285714286</ele><time>2026-04-05T07:48:54Z</time></trkpt><trkpt lat="48.66662032893751" lon="-2.3411985797504284"><ele>39.0</ele><time>2026-04-05T07:48:57Z</time></trkpt><trkpt lat="48.66665301076135" lon="-2.341109691921133"><ele>39.0</ele><time>2026-04-05T07:48:59Z</time></trkpt><trkpt lat="48.666672185205385" lon="-2.3409717693490077"><ele>39.0</ele><time>2026-04-05T07:49:01Z</time></trkpt><trkpt lat="48.66670259185545" lon="-2.3407887335192106"><ele>39.0</ele><time>2026-04-05T07:49:03Z</time></trkpt><trkpt lat="48.666718773222584" lon="-2.340655467724448"><ele>39.0</ele><time>2026-04-05T07:49:05Z</time></trkpt><trkpt lat="48.66673412063604" lon="-2.340522701526665"><ele>39.0</ele><time>2026-04-05T07:49:07Z</time></trkpt><trkpt lat="48.66674337170499" lon="-2.340351698716696"><ele>39.0</ele><time>2026-04-05T07:49:09Z</time></trkpt><trkpt lat="48.66671922799418" lon="-2.340079706499464"><ele>39.0</ele><time>2026-04-05T07:49:12Z</time></trkpt><trkpt lat="48.66672576439257" lon="-2.339982150740363"><ele>39.0</ele><time>2026-04-05T07:49:13Z</time></trkpt><trkpt lat="48.666741636141765" lon="-2.3397946879110676"><ele>39.0</ele><time>2026-04-05T07:49:15Z</time></trkpt><trkpt lat="48.66675084370524" lon="-2.339697636497181"><ele>39.0</ele><time>2026-04-05T07:49:16Z</time></trkpt><trkpt lat="48.66676005914951" lon="-2.3396033004787684"><ele>38.714285714285715</ele><time>2026-04-05T07:49:17Z</time></trkpt><trkpt lat="48.66676985051748" lon="-2.3395030685389298"><ele>38.42857142857142</ele><time>2026-04-05T07:49:18Z</time></trkpt><trkpt lat="48.666780707386444" lon="-2.339402825270267"><ele>38.14285714285714</ele><time>2026-04-05T07:49:19Z</time></trkpt><trkpt lat="48.666792752023696" lon="-2.3393049227298093"><ele>37.85714285714286</ele><time>2026-04-05T07:49:20Z</time></trkpt><trkpt lat="48.66680599966591" lon="-2.3392024623884207"><ele>37.57142857142857</ele><time>2026-04-05T07:49:21Z</time></trkpt><trkpt lat="48.66682149725057" lon="-2.33910299460191"><ele>37.285714285714285</ele><time>2026-04-05T07:49:22Z</time></trkpt><trkpt lat="48.666838730978895" lon="-2.3390004976648475"><ele>37.0</ele><time>2026-04-05T07:49:23Z</time></trkpt><trkpt lat="48.666855941379765" lon="-2.3389077057426335"><ele>36.714285714285715</ele><time>2026-04-05T07:49:24Z</time></trkpt><trkpt lat="48.666876786046345" lon="-2.338808911442742"><ele>36.42857142857143</ele><time>2026-04-05T07:49:25Z</time></trkpt><trkpt lat="48.66689908815005" lon="-2.3387113391681105"><ele>36.14285714285714</ele><time>2026-04-05T07:49:26Z</time></trkpt><trkpt lat="48.66692093751032" lon="-2.3386208265244486"><ele>35.85714285714286</ele><time>2026-04-05T07:49:27Z</time></trkpt><trkpt lat="48.666942630701435" lon="-2.338530960904294"><ele>35.57142857142857</ele><time>2026-04-05T07:49:28Z</time></trkpt><trkpt lat="48.666966549615154" lon="-2.3384390566962363"><ele>35.285714285714285</ele><time>2026-04-05T07:49:29Z</time></trkpt><trkpt lat="48.66699052496761" lon="-2.338348331181819"><ele>35.0</ele><time>2026-04-05T07:49:30Z</time></trkpt><trkpt lat="48.667014587358075" lon="-2.338258659917522"><ele>34.25</ele><time>2026-04-05T07:49:31Z</time></trkpt><trkpt lat="48.667062313580196" lon="-2.3380913454226175"><ele>33.5</ele><time>2026-04-05T07:49:33Z</time></trkpt><trkpt lat="48.66710539690651" lon="-2.3379374953143355"><ele>32.75</ele><time>2026-04-05T07:49:35Z</time></trkpt><trkpt lat="48.66715088262445" lon="-2.3377755465186465"><ele>32.0</ele><time>2026-04-05T07:49:37Z</time></trkpt><trkpt lat="48.66719761285377" lon="-2.3376181106987897"><ele>32.0</ele><time>2026-04-05T07:49:39Z</time></trkpt><trkpt lat="48.66724912050683" lon="-2.3374659831604037"><ele>32.0</ele><time>2026-04-05T07:49:41Z</time></trkpt><trkpt lat="48.66729836353861" lon="-2.337331878460813"><ele>32.0</ele><time>2026-04-05T07:49:43Z</time></trkpt><trkpt lat="48.66735489203936" lon="-2.337196193409871"><ele>32.0</ele><time>2026-04-05T07:49:45Z</time></trkpt><trkpt lat="48.66741779268197" lon="-2.337059295791516"><ele>32.0</ele><time>2026-04-05T07:49:47Z</time></trkpt><trkpt lat="48.667485261487954" lon="-2.336922314896203"><ele>32.25</ele><time>2026-04-05T07:49:50Z</time></trkpt><trkpt lat="48.667583454900466" lon="-2.336736276925929"><ele>32.5</ele><time>2026-04-05T07:49:52Z</time></trkpt><trkpt lat="48.667648993575995" lon="-2.3366151972469917"><ele>32.75</ele><time>2026-04-05T07:49:54Z</time></trkpt><trkpt lat="48.66771686386562" lon="-2.3364989163380288"><ele>33.0</ele><time>2026-04-05T07:49:56Z</time></trkpt><trkpt lat="48.66778912499521" lon="-2.3363864224817648"><ele>34.199999999999996</ele><time>2026-04-05T07:49:58Z</time></trkpt><trkpt lat="48.66786046404323" lon="-2.3362785370066548"><ele>35.4</ele><time>2026-04-05T07:50:00Z</time></trkpt><trkpt lat="48.667929779669905" lon="-2.336177015073367"><ele>36.599999999999994</ele><time>2026-04-05T07:50:02Z</time></trkpt><trkpt lat="48.668006484191416" lon="-2.3360730617456142"><ele>37.8</ele><time>2026-04-05T07:50:04Z</time></trkpt><trkpt lat="48.66808341974481" lon="-2.3359745367399505"><ele>39.0</ele><time>2026-04-05T07:50:06Z</time></trkpt><trkpt lat="48.66815767134587" lon="-2.3358820360228894"><ele>39.0</ele><time>2026-04-05T07:50:07.999Z</time></trkpt><trkpt lat="48.668237087040765" lon="-2.335796413858793"><ele>39.0</ele><time>2026-04-05T07:50:09.999Z</time></trkpt><trkpt lat="48.668323069414974" lon="-2.335711620443347"><ele>39.0</ele><time>2026-04-05T07:50:11.999Z</time></trkpt><trkpt lat="48.668410298777985" lon="-2.335630475417197"><ele>39.0</ele><time>2026-04-05T07:50:13.999Z</time></trkpt><trkpt lat="48.668469351136956" lon="-2.335577793710692"><ele>39.0</ele><time>2026-04-05T07:50:15.999Z</time></trkpt><trkpt lat="48.66853058712989" lon="-2.335523163935196"><ele>39.0</ele><time>2026-04-05T07:50:17.999Z</time></trkpt><trkpt lat="48.66859478982204" lon="-2.3354642636635976"><ele>39.166666666666664</ele><time>2026-04-05T07:50:19.999Z</time></trkpt><trkpt lat="48.66866839403532" lon="-2.3353956554819435"><ele>39.333333333333336</ele><time>2026-04-05T07:50:21.999Z</time></trkpt><trkpt lat="48.66874893761057" lon="-2.3353268457932175"><ele>39.5</ele><time>2026-04-05T07:50:23.999Z</time></trkpt><trkpt lat="48.668830271078896" lon="-2.3352578611099086"><ele>39.66666666666667</ele><time>2026-04-05T07:50:25.999Z</time></trkpt><trkpt lat="48.66889956340244" lon="-2.3351956470416457"><ele>39.833333333333336</ele><time>2026-04-05T07:50:27.999Z</time></trkpt><trkpt lat="48.668979861135746" lon="-2.335123551777226"><ele>40.0</ele><time>2026-04-05T07:50:29.999Z</time></trkpt><trkpt lat="48.669066398747056" lon="-2.3350458540443806"><ele>40.0</ele><time>2026-04-05T07:50:31.999Z</time></trkpt><trkpt lat="48.66912988275874" lon="-2.3349888549518614"><ele>40.0</ele><time>2026-04-05T07:50:33.999Z</time></trkpt><trkpt lat="48.6691958105639" lon="-2.3349296616745363"><ele>40.0</ele><time>2026-04-05T07:50:35.999Z</time></trkpt><trkpt lat="48.66927166679606" lon="-2.3348619711630256"><ele>40.0</ele><time>2026-04-05T07:50:37.999Z</time></trkpt><trkpt lat="48.66933842439082" lon="-2.3347960175393285"><ele>40.0</ele><time>2026-04-05T07:50:39.999Z</time></trkpt><trkpt lat="48.669413809320105" lon="-2.3347428462067983"><ele>40.0</ele><time>2026-04-05T07:50:41.999Z</time></trkpt><trkpt lat="48.66947861474074" lon="-2.3346309265865473"><ele>38.0</ele><time>2026-04-05T07:50:43.999Z</time></trkpt><trkpt lat="48.66954127650923" lon="-2.3345182045765713"><ele>36.0</ele><time>2026-04-05T07:50:45.999Z</time></trkpt><trkpt lat="48.66959298713017" lon="-2.334384744083241"><ele>34.0</ele><time>2026-04-05T07:50:47.999Z</time></trkpt><trkpt lat="48.669619764455035" lon="-2.334249961972909"><ele>32.0</ele><time>2026-04-05T07:50:51Z</time></trkpt><trkpt lat="48.66963812034092" lon="-2.334154175687234"><ele>30.0</ele><time>2026-04-05T07:50:53Z</time></trkpt><trkpt lat="48.669668155051" lon="-2.3340215149603916"><ele>30.571428571428573</ele><time>2026-04-05T07:50:55Z</time></trkpt><trkpt lat="48.6696918629513" lon="-2.333877738037083"><ele>31.14285714285714</ele><time>2026-04-05T07:50:57Z</time></trkpt><trkpt lat="48.66970552843639" lon="-2.333776644709404"><ele>31.71428571428571</ele><time>2026-04-05T07:50:59Z</time></trkpt><trkpt lat="48.66976259413015" lon="-2.3336925887362447"><ele>32.285714285714285</ele><time>2026-04-05T07:51:13Z</time></trkpt><trkpt lat="48.66975857451097" lon="-2.3335948148178374"><ele>32.857142857142854</ele><time>2026-04-05T07:52:15.999Z</time></trkpt><trkpt lat="48.66974282795529" lon="-2.333496767598749"><ele>33.42857142857142</ele><time>2026-04-05T07:52:17.999Z</time></trkpt><trkpt lat="48.669735599860935" lon="-2.3333947052904986"><ele>34.0</ele><time>2026-04-05T07:52:19.999Z</time></trkpt><trkpt lat="48.669731568386325" lon="-2.3332785009383166"><ele>34.0</ele><time>2026-04-05T07:52:21.999Z</time></trkpt><trkpt lat="48.669722255268596" lon="-2.3331487185074673"><ele>34.0</ele><time>2026-04-05T07:52:23.999Z</time></trkpt><trkpt lat="48.66971653225249" lon="-2.3330207422607807"><ele>34.0</ele><time>2026-04-05T07:52:25.999Z</time></trkpt><trkpt lat="48.669710954348815" lon="-2.3328804751586407"><ele>34.0</ele><time>2026-04-05T07:52:27.999Z</time></trkpt><trkpt lat="48.66970225663886" lon="-2.3327441602553716"><ele>34.0</ele><time>2026-04-05T07:52:29.999Z</time></trkpt><trkpt lat="48.66969619447333" lon="-2.3326137150883364"><ele>34.0</ele><time>2026-04-05T07:52:31.999Z</time></trkpt><trkpt lat="48.66968999838763" lon="-2.332452736251373"><ele>34.0</ele><time>2026-04-05T07:52:34.999Z</time></trkpt><trkpt lat="48.669692669873776" lon="-2.3323412438338247"><ele>34.0</ele><time>2026-04-05T07:52:36.999Z</time></trkpt><trkpt lat="48.669689652947575" lon="-2.3322331834899455"><ele>34.0</ele><time>2026-04-05T07:52:38.999Z</time></trkpt><trkpt lat="48.669701319118346" lon="-2.332113550079336"><ele>34.0</ele><time>2026-04-05T07:52:40.999Z</time></trkpt><trkpt lat="48.66971410447022" lon="-2.3320108500111765"><ele>34.0</ele><time>2026-04-05T07:52:42.999Z</time></trkpt><trkpt lat="48.6697405513541" lon="-2.331884531247633"><ele>34.0</ele><time>2026-04-05T07:52:44.999Z</time></trkpt><trkpt lat="48.66978089923513" lon="-2.3317032801201787"><ele>35.5</ele><time>2026-04-05T07:52:46.999Z</time></trkpt><trkpt lat="48.66981698838671" lon="-2.331493517834362"><ele>37.0</ele><time>2026-04-05T07:52:50.999Z</time></trkpt><trkpt lat="48.66984450294488" lon="-2.3313849197963177"><ele>38.5</ele><time>2026-04-05T07:52:53.999Z</time></trkpt><trkpt lat="48.66988246995834" lon="-2.3312770281497053"><ele>40.0</ele><time>2026-04-05T07:52:55.999Z</time></trkpt><trkpt lat="48.66990440311976" lon="-2.331174551596407"><ele>41.5</ele><time>2026-04-05T07:52:58Z</time></trkpt><trkpt lat="48.669864349928496" lon="-2.331074982044654"><ele>43.0</ele><time>2026-04-05T07:53:01Z</time></trkpt><trkpt lat="48.66981503102034" lon="-2.3309706985170062"><ele>44.16666666666667</ele><time>2026-04-05T07:53:05Z</time></trkpt><trkpt lat="48.66978880436866" lon="-2.3308727073442994"><ele>45.333333333333336</ele><time>2026-04-05T07:53:07Z</time></trkpt><trkpt lat="48.669748177203914" lon="-2.330774840193765"><ele>46.5</ele><time>2026-04-05T07:53:09Z</time></trkpt><trkpt lat="48.669701465667785" lon="-2.330674655921359"><ele>47.66666666666667</ele><time>2026-04-05T07:53:11Z</time></trkpt><trkpt lat="48.669651102967144" lon="-2.3305806144941803"><ele>48.833333333333336</ele><time>2026-04-05T07:53:13Z</time></trkpt><trkpt lat="48.66958420656103" lon="-2.3304868405318118"><ele>50.0</ele><time>2026-04-05T07:53:15Z</time></trkpt><trkpt lat="48.669518242431394" lon="-2.330415193784913"><ele>50.00000000000001</ele><time>2026-04-05T07:53:17Z</time></trkpt><trkpt lat="48.669448412109276" lon="-2.330349862497437"><ele>50.0</ele><time>2026-04-05T07:53:19Z</time></trkpt><trkpt lat="48.66936743953084" lon="-2.330289154906679"><ele>50.0</ele><time>2026-04-05T07:53:21Z</time></trkpt><trkpt lat="48.66928897462331" lon="-2.3302359331189058"><ele>50.0</ele><time>2026-04-05T07:53:23Z</time></trkpt><trkpt lat="48.669211842934764" lon="-2.3301846057066595"><ele>50.00000000000001</ele><time>2026-04-05T07:53:25Z</time></trkpt><trkpt lat="48.66913068785757" lon="-2.330124438977231"><ele>50.0</ele><time>2026-04-05T07:53:27Z</time></trkpt><trkpt lat="48.66904324857417" lon="-2.33005491407609"><ele>50.0</ele><time>2026-04-05T07:53:29Z</time></trkpt><trkpt lat="48.66895903730831" lon="-2.3299880676444356"><ele>50.0</ele><time>2026-04-05T07:53:31Z</time></trkpt><trkpt lat="48.668874669381985" lon="-2.329933475942708"><ele>50.0</ele><time>2026-04-05T07:53:33Z</time></trkpt><trkpt lat="48.66878392448042" lon="-2.329866530179042"><ele>50.0</ele><time>2026-04-05T07:53:35Z</time></trkpt><trkpt lat="48.668701401521545" lon="-2.3297895923525473"><ele>50.0</ele><time>2026-04-05T07:53:37Z</time></trkpt><trkpt lat="48.66860422701205" lon="-2.329731477576181"><ele>49.25</ele><time>2026-04-05T07:53:39Z</time></trkpt><trkpt lat="48.668502323547166" lon="-2.3296679124490143"><ele>48.5</ele><time>2026-04-05T07:53:41Z</time></trkpt><trkpt lat="48.668402552308144" lon="-2.32959802364566"><ele>47.75</ele><time>2026-04-05T07:53:43Z</time></trkpt><trkpt lat="48.66829610180425" lon="-2.329534748376528"><ele>47.0</ele><time>2026-04-05T07:53:45Z</time></trkpt><trkpt lat="48.66818436986829" lon="-2.3294690000453877"><ele>47.0</ele><time>2026-04-05T07:53:47Z</time></trkpt><trkpt lat="48.66807400283725" lon="-2.329395846322057"><ele>47.0</ele><time>2026-04-05T07:53:49Z</time></trkpt><trkpt lat="48.66795864414134" lon="-2.329313523156341"><ele>47.0</ele><time>2026-04-05T07:53:51Z</time></trkpt><trkpt lat="48.66786573308325" lon="-2.3292367055878564"><ele>47.0</ele><time>2026-04-05T07:53:53Z</time></trkpt><trkpt lat="48.66777261005649" lon="-2.32915328773775"><ele>46.8</ele><time>2026-04-05T07:53:55Z</time></trkpt><trkpt lat="48.66769967861444" lon="-2.329092741776221"><ele>46.6</ele><time>2026-04-05T07:53:57Z</time></trkpt><trkpt lat="48.66761194627669" lon="-2.329019681566774"><ele>46.4</ele><time>2026-04-05T07:53:59Z</time></trkpt><trkpt lat="48.66752108845844" lon="-2.328947230445285"><ele>46.199999999999996</ele><time>2026-04-05T07:54:00.999Z</time></trkpt><trkpt lat="48.667433527120416" lon="-2.3288729261062944"><ele>46.0</ele><time>2026-04-05T07:54:02.999Z</time></trkpt><trkpt lat="48.667346460537566" lon="-2.328800993870719"><ele>46.5</ele><time>2026-04-05T07:54:04.999Z</time></trkpt><trkpt lat="48.66725907142568" lon="-2.328738827344507"><ele>47.0</ele><time>2026-04-05T07:54:06.999Z</time></trkpt><trkpt lat="48.667172914576355" lon="-2.32867442203507"><ele>47.5</ele><time>2026-04-05T07:54:08.999Z</time></trkpt><trkpt lat="48.667088649489536" lon="-2.328608081641722"><ele>48.0</ele><time>2026-04-05T07:54:11.999Z</time></trkpt><trkpt lat="48.66693077284416" lon="-2.328516174329414"><ele>48.0</ele><time>2026-04-05T07:54:13.999Z</time></trkpt><trkpt lat="48.66684753730635" lon="-2.3284492186393364"><ele>48.0</ele><time>2026-04-05T07:54:15.999Z</time></trkpt><trkpt lat="48.666757343025715" lon="-2.328384875828888"><ele>48.0</ele><time>2026-04-05T07:54:17.999Z</time></trkpt><trkpt lat="48.66668124851189" lon="-2.3283732390804817"><ele>48.0</ele><time>2026-04-05T07:54:19.999Z</time></trkpt><trkpt lat="48.6666286232155" lon="-2.328291365458372"><ele>48.0</ele><time>2026-04-05T07:54:20.999Z</time></trkpt><trkpt lat="48.66655572619803" lon="-2.3282302829353383"><ele>48.0</ele><time>2026-04-05T07:54:22.999Z</time></trkpt><trkpt lat="48.66647882478342" lon="-2.3281717758760423"><ele>48.0</ele><time>2026-04-05T07:54:24.999Z</time></trkpt><trkpt lat="48.66639396473946" lon="-2.328110285420514"><ele>48.0</ele><time>2026-04-05T07:54:26.999Z</time></trkpt><trkpt lat="48.666309225111895" lon="-2.3280409987729094"><ele>48.0</ele><time>2026-04-05T07:54:28.999Z</time></trkpt><trkpt lat="48.666228530394726" lon="-2.3279941238925974"><ele>48.0</ele><time>2026-04-05T07:54:30.999Z</time></trkpt><trkpt lat="48.66615234291049" lon="-2.327934474261229"><ele>48.0</ele><time>2026-04-05T07:54:32.999Z</time></trkpt><trkpt lat="48.66606283121725" lon="-2.327874961281348"><ele>48.4</ele><time>2026-04-05T07:54:34.999Z</time></trkpt><trkpt lat="48.66599751110432" lon="-2.3278168575845375"><ele>48.8</ele><time>2026-04-05T07:54:36.999Z</time></trkpt><trkpt lat="48.66589978470127" lon="-2.3277310526726858"><ele>49.2</ele><time>2026-04-05T07:54:39.999Z</time></trkpt><trkpt lat="48.66581183268178" lon="-2.3276513515395116"><ele>49.6</ele><time>2026-04-05T07:54:41.999Z</time></trkpt><trkpt lat="48.66573072709601" lon="-2.327616396364459"><ele>50.0</ele><time>2026-04-05T07:54:43.999Z</time></trkpt><trkpt lat="48.66566164541312" lon="-2.3275702075763194"><ele>50.0</ele><time>2026-04-05T07:54:45.999Z</time></trkpt><trkpt lat="48.66557819399661" lon="-2.327530896074552"><ele>50.0</ele><time>2026-04-05T07:54:46.999Z</time></trkpt><trkpt lat="48.66551368753746" lon="-2.3274869426378566"><ele>50.0</ele><time>2026-04-05T07:54:48.999Z</time></trkpt><trkpt lat="48.66542936203192" lon="-2.327407272515085"><ele>50.0</ele><time>2026-04-05T07:54:50.999Z</time></trkpt><trkpt lat="48.6653641257726" lon="-2.3273649508013907"><ele>50.0</ele><time>2026-04-05T07:54:52.999Z</time></trkpt><trkpt lat="48.66518949377426" lon="-2.327260363146426"><ele>50.714285714285715</ele><time>2026-04-05T07:54:55.999Z</time></trkpt><trkpt lat="48.665118981661294" lon="-2.32721880420509"><ele>51.42857142857143</ele><time>2026-04-05T07:54:57.999Z</time></trkpt><trkpt lat="48.66505252154557" lon="-2.327165546954514"><ele>52.14285714285714</ele><time>2026-04-05T07:54:59.999Z</time></trkpt><trkpt lat="48.66498011918796" lon="-2.327118813161392"><ele>52.85714285714286</ele><time>2026-04-05T07:55:01.999Z</time></trkpt><trkpt lat="48.66492034193349" lon="-2.3270752836927096"><ele>53.57142857142857</ele><time>2026-04-05T07:55:04Z</time></trkpt><trkpt lat="48.664852637197484" lon="-2.3270279282561974"><ele>54.285714285714285</ele><time>2026-04-05T07:55:06Z</time></trkpt><trkpt lat="48.66478713883313" lon="-2.326980111873573"><ele>55.0</ele><time>2026-04-05T07:55:08Z</time></trkpt><trkpt lat="48.66471462461303" lon="-2.326929811898736"><ele>54.99999999999999</ele><time>2026-04-05T07:55:10Z</time></trkpt><trkpt lat="48.66464522343228" lon="-2.326892613734764"><ele>55.0</ele><time>2026-04-05T07:55:12Z</time></trkpt><trkpt lat="48.6645822900733" lon="-2.326825860241174"><ele>55.0</ele><time>2026-04-05T07:55:15Z</time></trkpt><trkpt lat="48.66449687979034" lon="-2.3267695720214485"><ele>55.0</ele><time>2026-04-05T07:55:18Z</time></trkpt><trkpt lat="48.66441149827931" lon="-2.3267032111246464"><ele>54.99999999999999</ele><time>2026-04-05T07:55:21Z</time></trkpt><trkpt lat="48.664355135705605" lon="-2.326651233812184"><ele>55.0</ele><time>2026-04-05T07:55:23Z</time></trkpt><trkpt lat="48.66429756853325" lon="-2.3266054375524647"><ele>55.49999999999999</ele><time>2026-04-05T07:55:25Z</time></trkpt><trkpt lat="48.664216945011695" lon="-2.3265406205527532"><ele>56.0</ele><time>2026-04-05T07:55:28Z</time></trkpt><trkpt lat="48.66415075248768" lon="-2.3264790760113527"><ele>56.5</ele><time>2026-04-05T07:55:31Z</time></trkpt><trkpt lat="48.66408316462454" lon="-2.3264670869347692"><ele>57.0</ele><time>2026-04-05T07:55:34Z</time></trkpt><trkpt lat="48.664081363514676" lon="-2.326614282716416"><ele>57.49999999999999</ele><time>2026-04-05T07:55:38Z</time></trkpt><trkpt lat="48.66407585081768" lon="-2.3267545653141073"><ele>58.0</ele><time>2026-04-05T07:55:40Z</time></trkpt><trkpt lat="48.6640684103608" lon="-2.3269098013850087"><ele>58.0</ele><time>2026-04-05T07:55:42Z</time></trkpt><trkpt lat="48.66404361094643" lon="-2.327072672727204"><ele>58.0</ele><time>2026-04-05T07:55:44Z</time></trkpt><trkpt lat="48.66401375923296" lon="-2.3272558567482755"><ele>58.0</ele><time>2026-04-05T07:55:46Z</time></trkpt><trkpt lat="48.664003300897605" lon="-2.3274259800651835"><ele>58.0</ele><time>2026-04-05T07:55:48Z</time></trkpt><trkpt lat="48.664021759181075" lon="-2.327572443147889"><ele>58.0</ele><time>2026-04-05T07:55:50Z</time></trkpt><trkpt lat="48.66398739803449" lon="-2.3276941976643393"><ele>57.5</ele><time>2026-04-05T07:55:51Z</time></trkpt><trkpt lat="48.66397363568173" lon="-2.3278616043389326"><ele>57.0</ele><time>2026-04-05T07:55:53Z</time></trkpt><trkpt lat="48.66396419170439" lon="-2.3280453074687433"><ele>56.5</ele><time>2026-04-05T07:55:55Z</time></trkpt><trkpt lat="48.66396449676273" lon="-2.328225547802709"><ele>56.0</ele><time>2026-04-05T07:55:57Z</time></trkpt><trkpt lat="48.66395312128079" lon="-2.328392040650424"><ele>56.0</ele><time>2026-04-05T07:55:59Z</time></trkpt><trkpt lat="48.66392434343644" lon="-2.328564486458199"><ele>56.0</ele><time>2026-04-05T07:56:01Z</time></trkpt><trkpt lat="48.663928782756386" lon="-2.3287344125143483"><ele>56.0</ele><time>2026-04-05T07:56:03Z</time></trkpt><trkpt lat="48.663913497174626" lon="-2.3289102464290115"><ele>56.0</ele><time>2026-04-05T07:56:05Z</time></trkpt><trkpt lat="48.663903039488" lon="-2.3290805696848316"><ele>55.75</ele><time>2026-04-05T07:56:07Z</time></trkpt><trkpt lat="48.66388860086003" lon="-2.3292476011951457"><ele>55.5</ele><time>2026-04-05T07:56:09Z</time></trkpt><trkpt lat="48.663856097341124" lon="-2.3294247648297013"><ele>55.25</ele><time>2026-04-05T07:56:11Z</time></trkpt><trkpt lat="48.66382093547614" lon="-2.3295890511094064"><ele>55.0</ele><time>2026-04-05T07:56:13Z</time></trkpt><trkpt lat="48.66376987354841" lon="-2.3297442458364186"><ele>54.5</ele><time>2026-04-05T07:56:15Z</time></trkpt><trkpt lat="48.663711345305046" lon="-2.3298887219803825"><ele>54.0</ele><time>2026-04-05T07:56:17Z</time></trkpt><trkpt lat="48.66362530073343" lon="-2.330008717642946"><ele>53.5</ele><time>2026-04-05T07:56:19Z</time></trkpt><trkpt lat="48.663521154361945" lon="-2.330098892431285"><ele>53.0</ele><time>2026-04-05T07:56:21Z</time></trkpt><trkpt lat="48.663429050969036" lon="-2.3301858707531107"><ele>54.0</ele><time>2026-04-05T07:56:23Z</time></trkpt><trkpt lat="48.66333059556131" lon="-2.3302316291783773"><ele>55.0</ele><time>2026-04-05T07:56:25Z</time></trkpt><trkpt lat="48.66323111967448" lon="-2.3303022037678836"><ele>56.0</ele><time>2026-04-05T07:56:27Z</time></trkpt><trkpt lat="48.66308170124436" lon="-2.3304321628754914"><ele>57.0</ele><time>2026-04-05T07:56:30Z</time></trkpt><trkpt lat="48.66297453650366" lon="-2.330507146759834"><ele>56.8</ele><time>2026-04-05T07:56:31.999Z</time></trkpt><trkpt lat="48.662877991994044" lon="-2.3305724714092304"><ele>56.6</ele><time>2026-04-05T07:56:33.999Z</time></trkpt><trkpt lat="48.66277358951365" lon="-2.3306184231350584"><ele>56.39999999999999</ele><time>2026-04-05T07:56:35.999Z</time></trkpt><trkpt lat="48.66269415528083" lon="-2.330683505237516"><ele>56.199999999999996</ele><time>2026-04-05T07:56:37.999Z</time></trkpt><trkpt lat="48.662591381702995" lon="-2.3307058248366994"><ele>56.0</ele><time>2026-04-05T07:56:39.999Z</time></trkpt><trkpt lat="48.66250199422815" lon="-2.3307507578992452"><ele>56.0</ele><time>2026-04-05T07:56:41.999Z</time></trkpt><trkpt lat="48.66240967924441" lon="-2.3307875827168743"><ele>55.99999999999999</ele><time>2026-04-05T07:56:43.999Z</time></trkpt><trkpt lat="48.66231926612566" lon="-2.3308175918628797"><ele>55.99999999999999</ele><time>2026-04-05T07:56:45.999Z</time></trkpt><trkpt lat="48.662225453415154" lon="-2.330854621756105"><ele>56.0</ele><time>2026-04-05T07:56:47.999Z</time></trkpt><trkpt lat="48.6621540358733" lon="-2.3309066255135518"><ele>56.0</ele><time>2026-04-05T07:56:49.999Z</time></trkpt><trkpt lat="48.662048375527284" lon="-2.330945735351959"><ele>56.0</ele><time>2026-04-05T07:56:51.999Z</time></trkpt><trkpt lat="48.66194799101768" lon="-2.3309826629009613"><ele>55.99999999999999</ele><time>2026-04-05T07:56:53.999Z</time></trkpt><trkpt lat="48.661885586120036" lon="-2.331012648516909"><ele>55.99999999999999</ele><time>2026-04-05T07:56:54.999Z</time></trkpt><trkpt lat="48.66180126120652" lon="-2.331083222060869"><ele>56.0</ele><time>2026-04-05T07:56:56.999Z</time></trkpt><trkpt lat="48.661703275379445" lon="-2.331141923327583"><ele>56.0</ele><time>2026-04-05T07:56:58.999Z</time></trkpt><trkpt lat="48.66160051812234" lon="-2.3312191235576565"><ele>56.0</ele><time>2026-04-05T07:57:00.999Z</time></trkpt><trkpt lat="48.661547605394055" lon="-2.3313536772953554"><ele>55.99999999999999</ele><time>2026-04-05T07:57:02.999Z</time></trkpt><trkpt lat="48.661508833344335" lon="-2.331510690541813"><ele>55.99999999999999</ele><time>2026-04-05T07:57:04.999Z</time></trkpt><trkpt lat="48.661483129978" lon="-2.3316744029275034"><ele>56.0</ele><time>2026-04-05T07:57:06.999Z</time></trkpt><trkpt lat="48.66143511636974" lon="-2.331838642942802"><ele>56.0</ele><time>2026-04-05T07:57:09Z</time></trkpt><trkpt lat="48.6613850834046" lon="-2.331999451973436"><ele>56.0</ele><time>2026-04-05T07:57:11Z</time></trkpt><trkpt lat="48.66135814630651" lon="-2.3320874993834444"><ele>55.99999999999999</ele><time>2026-04-05T07:57:12Z</time></trkpt><trkpt lat="48.661317709383106" lon="-2.3322557850723986"><ele>55.99999999999999</ele><time>2026-04-05T07:57:14Z</time></trkpt><trkpt lat="48.6612800401769" lon="-2.3324256589996004"><ele>56.0</ele><time>2026-04-05T07:57:16Z</time></trkpt><trkpt lat="48.66123944836409" lon="-2.3325849405191006"><ele>56.0</ele><time>2026-04-05T07:57:18Z</time></trkpt><trkpt lat="48.66119768471068" lon="-2.332744563315386"><ele>55.599999999999994</ele><time>2026-04-05T07:57:20Z</time></trkpt><trkpt lat="48.66116197013765" lon="-2.332898264680748"><ele>55.199999999999996</ele><time>2026-04-05T07:57:22Z</time></trkpt><trkpt lat="48.66111703297695" lon="-2.333048757168548"><ele>54.800000000000004</ele><time>2026-04-05T07:57:24Z</time></trkpt><trkpt lat="48.661072434616166" lon="-2.333192304757531"><ele>54.400000000000006</ele><time>2026-04-05T07:57:26Z</time></trkpt><trkpt lat="48.661031012436545" lon="-2.3333313393603965"><ele>54.0</ele><time>2026-04-05T07:57:28Z</time></trkpt><trkpt lat="48.660985932363936" lon="-2.333470509155221"><ele>53.333333333333336</ele><time>2026-04-05T07:57:30Z</time></trkpt><trkpt lat="48.66091211876632" lon="-2.3336117889743506"><ele>52.66666666666667</ele><time>2026-04-05T07:57:32Z</time></trkpt><trkpt lat="48.66086395190581" lon="-2.3336758260875885"><ele>52.0</ele><time>2026-04-05T07:57:33Z</time></trkpt><trkpt lat="48.66080968748089" lon="-2.333734568258897"><ele>51.333333333333336</ele><time>2026-04-05T07:57:34Z</time></trkpt><trkpt lat="48.660744691698156" lon="-2.3337799745906094"><ele>50.66666666666667</ele><time>2026-04-05T07:57:35Z</time></trkpt><trkpt lat="48.66067937602253" lon="-2.3338149316045866"><ele>50.0</ele><time>2026-04-05T07:57:36Z</time></trkpt><trkpt lat="48.66061554570235" lon="-2.333837985179634"><ele>50.00000000000001</ele><time>2026-04-05T07:57:37Z</time></trkpt><trkpt lat="48.66050531637336" lon="-2.33384251139131"><ele>50.0</ele><time>2026-04-05T07:57:39Z</time></trkpt><trkpt lat="48.66042067605933" lon="-2.3338397461233353"><ele>50.0</ele><time>2026-04-05T07:57:41Z</time></trkpt><trkpt lat="48.66034960700931" lon="-2.3338137151777074"><ele>50.0</ele><time>2026-04-05T07:57:43Z</time></trkpt><trkpt lat="48.66030245769429" lon="-2.333907161093273"><ele>50.00000000000001</ele><time>2026-04-05T07:57:45Z</time></trkpt><trkpt lat="48.66023047495113" lon="-2.3339841426983616"><ele>50.0</ele><time>2026-04-05T07:57:47Z</time></trkpt><trkpt lat="48.66016777694272" lon="-2.3340963650264146"><ele>49.85714285714286</ele><time>2026-04-05T07:57:49Z</time></trkpt><trkpt lat="48.66010687202733" lon="-2.3340604423742652"><ele>49.714285714285715</ele><time>2026-04-05T07:57:54Z</time></trkpt><trkpt lat="48.660071090182655" lon="-2.3339811702005258"><ele>49.57142857142857</ele><time>2026-04-05T07:57:58Z</time></trkpt><trkpt lat="48.66001905662463" lon="-2.3339110611578144"><ele>49.42857142857143</ele><time>2026-04-05T07:58:01Z</time></trkpt><trkpt lat="48.659968322992235" lon="-2.333816760301054"><ele>49.285714285714285</ele><time>2026-04-05T07:58:04Z</time></trkpt><trkpt lat="48.65989541105878" lon="-2.333765170415698"><ele>49.142857142857146</ele><time>2026-04-05T07:58:07Z</time></trkpt><trkpt lat="48.65984950439085" lon="-2.333699789877084"><ele>49.0</ele><time>2026-04-05T07:58:09Z</time></trkpt><trkpt lat="48.65980453515124" lon="-2.3336125176550526"><ele>48.99999999999999</ele><time>2026-04-05T07:58:11Z</time></trkpt><trkpt lat="48.6597451352904" lon="-2.333521764978467"><ele>49.0</ele><time>2026-04-05T07:58:13Z</time></trkpt><trkpt lat="48.659679427969685" lon="-2.3334380416723457"><ele>49.0</ele><time>2026-04-05T07:58:15Z</time></trkpt><trkpt lat="48.65960827772674" lon="-2.3333694612065115"><ele>49.0</ele><time>2026-04-05T07:58:17Z</time></trkpt><trkpt lat="48.65954117233279" lon="-2.3333027079916953"><ele>48.99999999999999</ele><time>2026-04-05T07:58:19Z</time></trkpt><trkpt lat="48.659459727998595" lon="-2.3332363524132096"><ele>49.0</ele><time>2026-04-05T07:58:21Z</time></trkpt><trkpt lat="48.65937873324357" lon="-2.3331933559469844"><ele>48.800000000000004</ele><time>2026-04-05T07:58:23Z</time></trkpt><trkpt lat="48.659310081871865" lon="-2.333107309473663"><ele>48.6</ele><time>2026-04-05T07:58:25Z</time></trkpt><trkpt lat="48.659230449553924" lon="-2.333030427584438"><ele>48.4</ele><time>2026-04-05T07:58:27Z</time></trkpt><trkpt lat="48.65916139815838" lon="-2.3329200866670043"><ele>48.2</ele><time>2026-04-05T07:58:29Z</time></trkpt><trkpt lat="48.659099680344546" lon="-2.3328146082429706"><ele>48.0</ele><time>2026-04-05T07:58:31Z</time></trkpt><trkpt lat="48.65906582394495" lon="-2.332705757641732"><ele>48.0</ele><time>2026-04-05T07:58:33Z</time></trkpt><trkpt lat="48.659015966397675" lon="-2.3325724811310447"><ele>48.0</ele><time>2026-04-05T07:58:35Z</time></trkpt><trkpt lat="48.658967986734154" lon="-2.332456222510847"><ele>48.0</ele><time>2026-04-05T07:58:37Z</time></trkpt><trkpt lat="48.65889176124989" lon="-2.332334399652608"><ele>48.0</ele><time>2026-04-05T07:58:39Z</time></trkpt><trkpt lat="48.65878304555984" lon="-2.3323128361774024"><ele>48.0</ele><time>2026-04-05T07:58:41Z</time></trkpt><trkpt lat="48.65868369164147" lon="-2.332361788150261"><ele>47.8</ele><time>2026-04-05T07:58:43Z</time></trkpt><trkpt lat="48.65855666621296" lon="-2.3323628922570014"><ele>47.599999999999994</ele><time>2026-04-05T07:58:45Z</time></trkpt><trkpt lat="48.65849948573967" lon="-2.332316450976306"><ele>47.400000000000006</ele><time>2026-04-05T07:58:46Z</time></trkpt><trkpt lat="48.65844749856854" lon="-2.3322056261102784"><ele>47.2</ele><time>2026-04-05T07:58:47Z</time></trkpt><trkpt lat="48.65841228164536" lon="-2.332124268439426"><ele>47.0</ele><time>2026-04-05T07:58:48Z</time></trkpt><trkpt lat="48.65829701296827" lon="-2.3320508732866827"><ele>47.0</ele><time>2026-04-05T07:58:49.999Z</time></trkpt><trkpt lat="48.65821644573492" lon="-2.3320028623166498"><ele>47.0</ele><time>2026-04-05T07:58:50.999Z</time></trkpt><trkpt lat="48.65813681497453" lon="-2.3319456525667825"><ele>47.0</ele><time>2026-04-05T07:58:51.999Z</time></trkpt><trkpt lat="48.658060559470165" lon="-2.3319011225296475"><ele>47.0</ele><time>2026-04-05T07:58:52.999Z</time></trkpt><trkpt lat="48.65798074783144" lon="-2.3319056384003596"><ele>47.0</ele><time>2026-04-05T07:58:53.999Z</time></trkpt><trkpt lat="48.65791774292373" lon="-2.331904369887987"><ele>47.0</ele><time>2026-04-05T07:58:54.999Z</time></trkpt><trkpt lat="48.657852106850825" lon="-2.331883522720544"><ele>47.0</ele><time>2026-04-05T07:58:55.999Z</time></trkpt><trkpt lat="48.65777955690435" lon="-2.331886596621588"><ele>47.0</ele><time>2026-04-05T07:58:56.999Z</time></trkpt><trkpt lat="48.657711130853535" lon="-2.331884182337134"><ele>47.0</ele><time>2026-04-05T07:58:57.999Z</time></trkpt><trkpt lat="48.657651855607305" lon="-2.3318453558324825"><ele>47.0</ele><time>2026-04-05T07:58:58.999Z</time></trkpt><trkpt lat="48.65756532591621" lon="-2.331725416073551"><ele>47.0</ele><time>2026-04-05T07:59:00.999Z</time></trkpt><trkpt lat="48.65748831058413" lon="-2.331609881919011"><ele>47.0</ele><time>2026-04-05T07:59:02.999Z</time></trkpt><trkpt lat="48.65740971189238" lon="-2.3314909636242"><ele>47.2</ele><time>2026-04-05T07:59:04.999Z</time></trkpt><trkpt lat="48.657336981234586" lon="-2.3313549431561715"><ele>47.400000000000006</ele><time>2026-04-05T07:59:06.999Z</time></trkpt><trkpt lat="48.65727203003047" lon="-2.331225574664261"><ele>47.599999999999994</ele><time>2026-04-05T07:59:08.999Z</time></trkpt><trkpt lat="48.65720642074087" lon="-2.3310965966996675"><ele>47.8</ele><time>2026-04-05T07:59:10.999Z</time></trkpt><trkpt lat="48.65715097332283" lon="-2.330973448375688"><ele>48.0</ele><time>2026-04-05T07:59:12.999Z</time></trkpt><trkpt lat="48.65709703121555" lon="-2.330851804929201"><ele>48.0</ele><time>2026-04-05T07:59:15Z</time></trkpt><trkpt lat="48.65699901813511" lon="-2.3306658489463676"><ele>48.0</ele><time>2026-04-05T07:59:18Z</time></trkpt><trkpt lat="48.65693564300382" lon="-2.3305424497673144"><ele>48.0</ele><time>2026-04-05T07:59:20Z</time></trkpt><trkpt lat="48.65687814485658" lon="-2.330404492870782"><ele>48.0</ele><time>2026-04-05T07:59:22Z</time></trkpt><trkpt lat="48.656811326729034" lon="-2.330270691640683"><ele>48.4</ele><time>2026-04-05T07:59:24Z</time></trkpt><trkpt lat="48.656764369851665" lon="-2.330121676008606"><ele>48.8</ele><time>2026-04-05T07:59:26Z</time></trkpt><trkpt lat="48.65671527031419" lon="-2.329978833203501"><ele>49.2</ele><time>2026-04-05T07:59:28Z</time></trkpt><trkpt lat="48.65666043363943" lon="-2.3298492328135834"><ele>49.6</ele><time>2026-04-05T07:59:30Z</time></trkpt><trkpt lat="48.656588131592414" lon="-2.3297813476307043"><ele>50.0</ele><time>2026-04-05T07:59:32Z</time></trkpt><trkpt lat="48.656498692743384" lon="-2.329847369996505"><ele>50.0</ele><time>2026-04-05T07:59:34Z</time></trkpt><trkpt lat="48.65641039460628" lon="-2.329912261735499"><ele>50.0</ele><time>2026-04-05T07:59:36Z</time></trkpt><trkpt lat="48.65633333270209" lon="-2.3300065403221724"><ele>50.0</ele><time>2026-04-05T07:59:38Z</time></trkpt><trkpt lat="48.65623327093587" lon="-2.3300906430823414"><ele>50.0</ele><time>2026-04-05T07:59:40Z</time></trkpt><trkpt lat="48.65612420224966" lon="-2.330154986207488"><ele>50.0</ele><time>2026-04-05T07:59:42Z</time></trkpt><trkpt lat="48.65602069918683" lon="-2.3302347457902624"><ele>49.8</ele><time>2026-04-05T07:59:44Z</time></trkpt><trkpt lat="48.65592135991827" lon="-2.3303141111238537"><ele>49.6</ele><time>2026-04-05T07:59:46Z</time></trkpt><trkpt lat="48.65583508905835" lon="-2.330397093809693"><ele>49.400000000000006</ele><time>2026-04-05T07:59:48Z</time></trkpt><trkpt lat="48.65574893939709" lon="-2.33046576206011"><ele>49.2</ele><time>2026-04-05T07:59:50Z</time></trkpt><trkpt lat="48.65567192427212" lon="-2.3305386633073315"><ele>49.0</ele><time>2026-04-05T07:59:52Z</time></trkpt><trkpt lat="48.655607763862776" lon="-2.330579441203732"><ele>48.99999999999999</ele><time>2026-04-05T07:59:54Z</time></trkpt><trkpt lat="48.65551861760952" lon="-2.330559468576277"><ele>49.0</ele><time>2026-04-05T07:59:57Z</time></trkpt><trkpt lat="48.655503983396734" lon="-2.330456736624485"><ele>49.0</ele><time>2026-04-05T07:59:58Z</time></trkpt><trkpt lat="48.65546899715851" lon="-2.3303447085861135"><ele>49.0</ele><time>2026-04-05T08:00:00Z</time></trkpt><trkpt lat="48.65542648241756" lon="-2.3302258389826958"><ele>48.99999999999999</ele><time>2026-04-05T08:00:02Z</time></trkpt><trkpt lat="48.655394542660694" lon="-2.3300899062660427"><ele>49.0</ele><time>2026-04-05T08:00:04Z</time></trkpt><trkpt lat="48.655354314269275" lon="-2.329957576475728"><ele>49.6</ele><time>2026-04-05T08:00:06Z</time></trkpt><trkpt lat="48.65531275335405" lon="-2.3298204739501234"><ele>50.2</ele><time>2026-04-05T08:00:08Z</time></trkpt><trkpt lat="48.6552714642791" lon="-2.3296861919159797"><ele>50.800000000000004</ele><time>2026-04-05T08:00:10Z</time></trkpt><trkpt lat="48.655237057632114" lon="-2.3295533822056615"><ele>51.400000000000006</ele><time>2026-04-05T08:00:12Z</time></trkpt><trkpt lat="48.65521308008606" lon="-2.32943358625253"><ele>52.0</ele><time>2026-04-05T08:00:14Z</time></trkpt><trkpt lat="48.65523033020667" lon="-2.3293124904403384"><ele>52.33333333333333</ele><time>2026-04-05T08:00:16Z</time></trkpt><trkpt lat="48.65529749402663" lon="-2.3292108520677792"><ele>52.666666666666664</ele><time>2026-04-05T08:00:18Z</time></trkpt><trkpt lat="48.65535192313217" lon="-2.329110226376371"><ele>53.0</ele><time>2026-04-05T08:00:20Z</time></trkpt><trkpt lat="48.65543158299044" lon="-2.3290519365912643"><ele>53.33333333333333</ele><time>2026-04-05T08:00:22Z</time></trkpt><trkpt lat="48.65551118136126" lon="-2.3289960286175257"><ele>53.666666666666664</ele><time>2026-04-05T08:00:24Z</time></trkpt><trkpt lat="48.65558224014758" lon="-2.3289331767134214"><ele>54.0</ele><time>2026-04-05T08:00:26Z</time></trkpt><trkpt lat="48.65564947973873" lon="-2.328889301312761"><ele>54.14285714285714</ele><time>2026-04-05T08:00:28Z</time></trkpt><trkpt lat="48.65562170034282" lon="-2.328799895416745"><ele>54.285714285714285</ele><time>2026-04-05T08:00:33Z</time></trkpt><trkpt lat="48.6555552010529" lon="-2.3287837208093776"><ele>54.42857142857143</ele><time>2026-04-05T08:00:37Z</time></trkpt><trkpt lat="48.65551950365022" lon="-2.32869433377462"><ele>54.57142857142857</ele><time>2026-04-05T08:00:40Z</time></trkpt><trkpt lat="48.65549821591549" lon="-2.3285917765640294"><ele>54.714285714285715</ele><time>2026-04-05T08:00:43Z</time></trkpt><trkpt lat="48.655473311937264" lon="-2.3284804093877787"><ele>54.857142857142854</ele><time>2026-04-05T08:00:45Z</time></trkpt><trkpt lat="48.655445343725226" lon="-2.32838082934992"><ele>55.0</ele><time>2026-04-05T08:00:45.999Z</time></trkpt><trkpt lat="48.65536374439152" lon="-2.328287853202776"><ele>55.0</ele><time>2026-04-05T08:00:47.999Z</time></trkpt><trkpt lat="48.655304794678855" lon="-2.3281836565738647"><ele>55.0</ele><time>2026-04-05T08:00:49.999Z</time></trkpt><trkpt lat="48.65523783303443" lon="-2.3280596873298864"><ele>55.0</ele><time>2026-04-05T08:00:51.999Z</time></trkpt><trkpt lat="48.65517787992634" lon="-2.3279383571700603"><ele>55.0</ele><time>2026-04-05T08:00:53.999Z</time></trkpt><trkpt lat="48.65512573811773" lon="-2.3278265099837263"><ele>55.0</ele><time>2026-04-05T08:00:55.999Z</time></trkpt><trkpt lat="48.6550805486516" lon="-2.3276864167560185"><ele>55.0</ele><time>2026-04-05T08:00:57.999Z</time></trkpt><trkpt lat="48.655009125962486" lon="-2.327559850460902"><ele>55.0</ele><time>2026-04-05T08:00:59.999Z</time></trkpt><trkpt lat="48.6549606680317" lon="-2.327436362428318"><ele>55.0</ele><time>2026-04-05T08:01:01.999Z</time></trkpt><trkpt lat="48.65491049598383" lon="-2.3272988812248196"><ele>55.0</ele><time>2026-04-05T08:01:03.999Z</time></trkpt><trkpt lat="48.65487284211937" lon="-2.327156903908128"><ele>55.0</ele><time>2026-04-05T08:01:05.999Z</time></trkpt><trkpt lat="48.65480824235974" lon="-2.3270612968787248"><ele>54.8</ele><time>2026-04-05T08:01:08.999Z</time></trkpt><trkpt lat="48.654772204830785" lon="-2.3269496108173646"><ele>54.6</ele><time>2026-04-05T08:01:10.999Z</time></trkpt><trkpt lat="48.65468136727471" lon="-2.3268134048978486"><ele>54.400000000000006</ele><time>2026-04-05T08:01:11.999Z</time></trkpt><trkpt lat="48.65462080362036" lon="-2.326674762053594"><ele>54.2</ele><time>2026-04-05T08:01:13.999Z</time></trkpt><trkpt lat="48.654563918427996" lon="-2.326540901837357"><ele>54.0</ele><time>2026-04-05T08:01:15.999Z</time></trkpt><trkpt lat="48.65450743509148" lon="-2.326409174246372"><ele>54.2</ele><time>2026-04-05T08:01:17.999Z</time></trkpt><trkpt lat="48.654448796244985" lon="-2.3262732781867377"><ele>54.400000000000006</ele><time>2026-04-05T08:01:19.999Z</time></trkpt><trkpt lat="48.654395163864876" lon="-2.3261517612706943"><ele>54.6</ele><time>2026-04-05T08:01:22Z</time></trkpt><trkpt lat="48.65434224530215" lon="-2.3260433944746306"><ele>54.8</ele><time>2026-04-05T08:01:24Z</time></trkpt><trkpt lat="48.654277447878" lon="-2.3259350773061684"><ele>55.0</ele><time>2026-04-05T08:01:26Z</time></trkpt><trkpt lat="48.6542086446026" lon="-2.3258373959748395"><ele>55.0</ele><time>2026-04-05T08:01:28Z</time></trkpt><trkpt lat="48.65413430099677" lon="-2.325752300177848"><ele>55.0</ele><time>2026-04-05T08:01:30Z</time></trkpt><trkpt lat="48.65405107257475" lon="-2.325641134135287"><ele>55.0</ele><time>2026-04-05T08:01:32Z</time></trkpt><trkpt lat="48.65397723107783" lon="-2.3255327718433745"><ele>55.0</ele><time>2026-04-05T08:01:34Z</time></trkpt><trkpt lat="48.65390079392394" lon="-2.32542028701721"><ele>55.0</ele><time>2026-04-05T08:01:36Z</time></trkpt><trkpt lat="48.65382937972587" lon="-2.325310780588086"><ele>54.99999999999999</ele><time>2026-04-05T08:01:38Z</time></trkpt><trkpt lat="48.653767091423695" lon="-2.3251998694194924"><ele>55.0</ele><time>2026-04-05T08:01:40Z</time></trkpt><trkpt lat="48.653669329269356" lon="-2.3251807734392185"><ele>55.0</ele><time>2026-04-05T08:01:42Z</time></trkpt><trkpt lat="48.65360883538914" lon="-2.325152138450012"><ele>55.0</ele><time>2026-04-05T08:01:44Z</time></trkpt><trkpt lat="48.653552121145374" lon="-2.325085406104162"><ele>54.99999999999999</ele><time>2026-04-05T08:01:47Z</time></trkpt><trkpt lat="48.65346026150309" lon="-2.3251008072391586"><ele>55.0</ele><time>2026-04-05T08:01:49Z</time></trkpt><trkpt lat="48.65337368024226" lon="-2.3251373492278744"><ele>55.0</ele><time>2026-04-05T08:01:51Z</time></trkpt><trkpt lat="48.653258679971835" lon="-2.3251808259509055"><ele>55.0</ele><time>2026-04-05T08:01:53Z</time></trkpt><trkpt lat="48.65316706494827" lon="-2.3252107840508067"><ele>55.0</ele><time>2026-04-05T08:01:55Z</time></trkpt><trkpt lat="48.65306491369481" lon="-2.3252594704809826"><ele>55.0</ele><time>2026-04-05T08:01:57Z</time></trkpt><trkpt lat="48.652964433780966" lon="-2.325323315384958"><ele>55.0</ele><time>2026-04-05T08:01:59Z</time></trkpt><trkpt lat="48.65286326633621" lon="-2.325377618889909"><ele>55.0</ele><time>2026-04-05T08:02:01Z</time></trkpt><trkpt lat="48.65276998307052" lon="-2.3254100981046517"><ele>55.0</ele><time>2026-04-05T08:02:04Z</time></trkpt><trkpt lat="48.652618432479365" lon="-2.3255194915125936"><ele>55.0</ele><time>2026-04-05T08:02:06Z</time></trkpt><trkpt lat="48.65255787683013" lon="-2.325558422181784"><ele>55.0</ele><time>2026-04-05T08:02:07Z</time></trkpt><trkpt lat="48.65245451191841" lon="-2.325644522664956"><ele>55.0</ele><time>2026-04-05T08:02:09Z</time></trkpt><trkpt lat="48.65234097997522" lon="-2.3257015872329903"><ele>54.75</ele><time>2026-04-05T08:02:11Z</time></trkpt><trkpt lat="48.65224300850263" lon="-2.3257985741459177"><ele>54.5</ele><time>2026-04-05T08:02:13Z</time></trkpt><trkpt lat="48.652139077421744" lon="-2.3258567917519186"><ele>54.25</ele><time>2026-04-05T08:02:15Z</time></trkpt><trkpt lat="48.652080521912204" lon="-2.325964285288088"><ele>54.0</ele><time>2026-04-05T08:02:17Z</time></trkpt><trkpt lat="48.651931204896556" lon="-2.325946363200974"><ele>54.0</ele><time>2026-04-05T08:02:20Z</time></trkpt><trkpt lat="48.65184267316914" lon="-2.325958748988869"><ele>54.00000000000001</ele><time>2026-04-05T08:02:22Z</time></trkpt><trkpt lat="48.65178846097383" lon="-2.326071148757131"><ele>54.00000000000001</ele><time>2026-04-05T08:02:24Z</time></trkpt><trkpt lat="48.65175753019605" lon="-2.3262264976057714"><ele>54.0</ele><time>2026-04-05T08:02:26Z</time></trkpt><trkpt lat="48.651719521842665" lon="-2.3263822260311793"><ele>54.0</ele><time>2026-04-05T08:02:28Z</time></trkpt><trkpt lat="48.65168520928697" lon="-2.3264705319831043"><ele>54.2</ele><time>2026-04-05T08:02:29Z</time></trkpt><trkpt lat="48.65164297550616" lon="-2.3266214598018626"><ele>54.400000000000006</ele><time>2026-04-05T08:02:31Z</time></trkpt><trkpt lat="48.65163606916597" lon="-2.326723668148465"><ele>54.6</ele><time>2026-04-05T08:02:33Z</time></trkpt><trkpt lat="48.65158691370603" lon="-2.326816587283066"><ele>54.8</ele><time>2026-04-05T08:02:34Z</time></trkpt><trkpt lat="48.65156140618726" lon="-2.3269575518295604"><ele>55.0</ele><time>2026-04-05T08:02:36Z</time></trkpt><trkpt lat="48.65147689854918" lon="-2.3271157014209702"><ele>54.8</ele><time>2026-04-05T08:02:38Z</time></trkpt><trkpt lat="48.65141596343746" lon="-2.3272680940086876"><ele>54.6</ele><time>2026-04-05T08:02:40Z</time></trkpt><trkpt lat="48.6513538563171" lon="-2.327395627620377"><ele>54.400000000000006</ele><time>2026-04-05T08:02:42Z</time></trkpt><trkpt lat="48.65130591206518" lon="-2.327546998334069"><ele>54.2</ele><time>2026-04-05T08:02:45Z</time></trkpt><trkpt lat="48.651249684958685" lon="-2.3276613312178616"><ele>54.0</ele><time>2026-04-05T08:02:48Z</time></trkpt><trkpt lat="48.65120788212205" lon="-2.3277397264293134"><ele>54.0</ele><time>2026-04-05T08:02:49.999Z</time></trkpt><trkpt lat="48.65115731414405" lon="-2.3278420059431233"><ele>54.0</ele><time>2026-04-05T08:02:52.999Z</time></trkpt><trkpt lat="48.65111954414022" lon="-2.3279346971548476"><ele>54.0</ele><time>2026-04-05T08:02:55.999Z</time></trkpt><trkpt lat="48.651058801162925" lon="-2.327987262308125"><ele>54.0</ele><time>2026-04-05T08:02:57.999Z</time></trkpt><trkpt lat="48.65102001705227" lon="-2.3280719146943465"><ele>54.0</ele><time>2026-04-05T08:02:59.999Z</time></trkpt><trkpt lat="48.65099740327873" lon="-2.328179011540928"><ele>54.0</ele><time>2026-04-05T08:03:01.999Z</time></trkpt><trkpt lat="48.65099196632759" lon="-2.328354375155715"><ele>55.0</ele><time>2026-04-05T08:03:04.999Z</time></trkpt><trkpt lat="48.65048447536757" lon="-2.3288571727519063"><ele>54.6</ele><time>2026-04-05T08:03:06.999Z</time></trkpt><trkpt lat="48.650447048838" lon="-2.3290007520934792"><ele>54.2</ele><time>2026-04-05T08:03:08.999Z</time></trkpt><trkpt lat="48.65040764353951" lon="-2.329131944895743"><ele>53.8</ele><time>2026-04-05T08:03:10.999Z</time></trkpt><trkpt lat="48.65035976643518" lon="-2.329260084135952"><ele>53.4</ele><time>2026-04-05T08:03:12.999Z</time></trkpt><trkpt lat="48.650317991562986" lon="-2.3293853682435333"><ele>53.0</ele><time>2026-04-05T08:03:14.999Z</time></trkpt><trkpt lat="48.65029363461737" lon="-2.329490269106482"><ele>53.50000000000001</ele><time>2026-04-05T08:03:16.999Z</time></trkpt><trkpt lat="48.650257761765104" lon="-2.3295973436094584"><ele>54.0</ele><time>2026-04-05T08:03:18.999Z</time></trkpt><trkpt lat="48.65021982405891" lon="-2.3296833972216864"><ele>54.5</ele><time>2026-04-05T08:03:22.999Z</time></trkpt><trkpt lat="48.65013843139759" lon="-2.3296116722743228"><ele>55.0</ele><time>2026-04-05T08:03:25.999Z</time></trkpt><trkpt lat="48.650077814431505" lon="-2.3295044259751814"><ele>55.50000000000001</ele><time>2026-04-05T08:03:28Z</time></trkpt><trkpt lat="48.650006989125906" lon="-2.329435175619311"><ele>56.0</ele><time>2026-04-05T08:03:30Z</time></trkpt><trkpt lat="48.64991378246571" lon="-2.3293336221069287"><ele>56.0</ele><time>2026-04-05T08:03:32Z</time></trkpt><trkpt lat="48.64985594480988" lon="-2.3292757237812403"><ele>55.99999999999999</ele><time>2026-04-05T08:03:34Z</time></trkpt><trkpt lat="48.649770745180945" lon="-2.3293550473765836"><ele>55.99999999999999</ele><time>2026-04-05T08:03:36Z</time></trkpt><trkpt lat="48.64968493697804" lon="-2.3294034915173865"><ele>56.0</ele><time>2026-04-05T08:03:38Z</time></trkpt><trkpt lat="48.649584642854904" lon="-2.3294540713807748"><ele>56.0</ele><time>2026-04-05T08:03:40Z</time></trkpt><trkpt lat="48.64948168757802" lon="-2.329505175789205"><ele>55.599999999999994</ele><time>2026-04-05T08:03:42Z</time></trkpt><trkpt lat="48.64944795888795" lon="-2.329589507694689"><ele>55.199999999999996</ele><time>2026-04-05T08:03:43Z</time></trkpt><trkpt lat="48.649348607876775" lon="-2.3296549731473983"><ele>54.800000000000004</ele><time>2026-04-05T08:03:45Z</time></trkpt><trkpt lat="48.6492380906472" lon="-2.3297277989567524"><ele>54.400000000000006</ele><time>2026-04-05T08:03:47Z</time></trkpt><trkpt lat="48.6491373093126" lon="-2.3297736207417796"><ele>54.0</ele><time>2026-04-05T08:03:49Z</time></trkpt><trkpt lat="48.649073311578995" lon="-2.3298234185164115"><ele>54.0</ele><time>2026-04-05T08:03:50Z</time></trkpt><trkpt lat="48.64896574533597" lon="-2.3298888272252616"><ele>54.0</ele><time>2026-04-05T08:03:52Z</time></trkpt><trkpt lat="48.648894235632525" lon="-2.329944435803795"><ele>54.0</ele><time>2026-04-05T08:03:53Z</time></trkpt><trkpt lat="48.64883622077266" lon="-2.3299908588508615"><ele>54.0</ele><time>2026-04-05T08:03:54Z</time></trkpt><trkpt lat="48.64876077526746" lon="-2.330046430310539"><ele>54.0</ele><time>2026-04-05T08:03:56Z</time></trkpt><trkpt lat="48.648695517254495" lon="-2.3300963509890202"><ele>54.0</ele><time>2026-04-05T08:03:58Z</time></trkpt><trkpt lat="48.64861204901628" lon="-2.330154033541213"><ele>54.0</ele><time>2026-04-05T08:04:00Z</time></trkpt><trkpt lat="48.64852232368739" lon="-2.330230587460296"><ele>54.0</ele><time>2026-04-05T08:04:02Z</time></trkpt><trkpt lat="48.648443933367986" lon="-2.330287447907442"><ele>54.0</ele><time>2026-04-05T08:04:04Z</time></trkpt><trkpt lat="48.64839373386722" lon="-2.3303494472961033"><ele>54.0</ele><time>2026-04-05T08:04:06Z</time></trkpt><trkpt lat="48.64832237844137" lon="-2.3304020863936588"><ele>54.0</ele><time>2026-04-05T08:04:08Z</time></trkpt><trkpt lat="48.64823019667118" lon="-2.3304399642125055"><ele>54.0</ele><time>2026-04-05T08:04:10Z</time></trkpt><trkpt lat="48.648143738821204" lon="-2.3304872787192554"><ele>54.0</ele><time>2026-04-05T08:04:12Z</time></trkpt><trkpt lat="48.648056000654506" lon="-2.3305398041054524"><ele>54.00000000000001</ele><time>2026-04-05T08:04:14Z</time></trkpt><trkpt lat="48.647967216573676" lon="-2.330595584220976"><ele>54.00000000000001</ele><time>2026-04-05T08:04:16Z</time></trkpt><trkpt lat="48.64787572100378" lon="-2.3306533072687183"><ele>54.0</ele><time>2026-04-05T08:04:18Z</time></trkpt><trkpt lat="48.64778508569715" lon="-2.3306889406572204"><ele>54.0</ele><time>2026-04-05T08:04:22Z</time></trkpt><trkpt lat="48.64770224445471" lon="-2.33070577545882"><ele>54.2</ele><time>2026-04-05T08:04:24Z</time></trkpt><trkpt lat="48.647604425476416" lon="-2.330824006502816"><ele>54.400000000000006</ele><time>2026-04-05T08:04:26Z</time></trkpt><trkpt lat="48.647525115327284" lon="-2.3308503411781993"><ele>54.6</ele><time>2026-04-05T08:04:27Z</time></trkpt><trkpt lat="48.64745890571348" lon="-2.3308679877678267"><ele>54.8</ele><time>2026-04-05T08:04:28Z</time></trkpt><trkpt lat="48.647355520628764" lon="-2.3309493456119004"><ele>55.0</ele><time>2026-04-05T08:04:30Z</time></trkpt><trkpt lat="48.647240835107006" lon="-2.330965697961361"><ele>55.0</ele><time>2026-04-05T08:04:32Z</time></trkpt><trkpt lat="48.64714952446218" lon="-2.3309351229817654"><ele>55.0</ele><time>2026-04-05T08:04:34Z</time></trkpt><trkpt lat="48.64702933983885" lon="-2.3309123726294154"><ele>55.0</ele><time>2026-04-05T08:04:36Z</time></trkpt><trkpt lat="48.6469395926409" lon="-2.330845402364003"><ele>55.0</ele><time>2026-04-05T08:04:38Z</time></trkpt><trkpt lat="48.646863574181005" lon="-2.3308011112956404"><ele>55.0</ele><time>2026-04-05T08:04:40Z</time></trkpt><trkpt lat="48.64676281827682" lon="-2.3307404673255845"><ele>54.6</ele><time>2026-04-05T08:04:42Z</time></trkpt><trkpt lat="48.64668608784127" lon="-2.330696830597223"><ele>54.2</ele><time>2026-04-05T08:04:44Z</time></trkpt><trkpt lat="48.64658840029845" lon="-2.3306513323948104"><ele>53.8</ele><time>2026-04-05T08:04:47Z</time></trkpt><trkpt lat="48.646493853534125" lon="-2.3306236020283433"><ele>53.4</ele><time>2026-04-05T08:04:50Z</time></trkpt><trkpt lat="48.646420944233824" lon="-2.33060696058795"><ele>53.0</ele><time>2026-04-05T08:04:51Z</time></trkpt><trkpt lat="48.64630794910918" lon="-2.330584872691664"><ele>53.00000000000001</ele><time>2026-04-05T08:04:52.999Z</time></trkpt><trkpt lat="48.64624123489368" lon="-2.3305888694601893"><ele>53.0</ele><time>2026-04-05T08:04:54.999Z</time></trkpt><trkpt lat="48.646154330656245" lon="-2.330556759893206"><ele>53.0</ele><time>2026-04-05T08:04:57.999Z</time></trkpt><trkpt lat="48.64606876374588" lon="-2.330613548769134"><ele>53.0</ele><time>2026-04-05T08:05:00.999Z</time></trkpt><trkpt lat="48.64599693740236" lon="-2.330663897964431"><ele>53.00000000000001</ele><time>2026-04-05T08:05:02.999Z</time></trkpt><trkpt lat="48.6459147666876" lon="-2.3306950636803414"><ele>53.0</ele><time>2026-04-05T08:05:04.999Z</time></trkpt><trkpt lat="48.64582430084514" lon="-2.3307262344945947"><ele>53.16666666666667</ele><time>2026-04-05T08:05:07.999Z</time></trkpt><trkpt lat="48.64577196483205" lon="-2.3307983901661773"><ele>53.333333333333336</ele><time>2026-04-05T08:05:08.999Z</time></trkpt><trkpt lat="48.64571490131849" lon="-2.33087547167874"><ele>53.5</ele><time>2026-04-05T08:05:09.999Z</time></trkpt><trkpt lat="48.64566362933397" lon="-2.3309540562047655"><ele>53.66666666666667</ele><time>2026-04-05T08:05:10.999Z</time></trkpt><trkpt lat="48.64560840932095" lon="-2.3310402311351752"><ele>53.833333333333336</ele><time>2026-04-05T08:05:11.999Z</time></trkpt><trkpt lat="48.64551888603733" lon="-2.331175151946381"><ele>54.0</ele><time>2026-04-05T08:05:13.999Z</time></trkpt><trkpt lat="48.64545683920026" lon="-2.3313375389582"><ele>54.0</ele><time>2026-04-05T08:05:16.999Z</time></trkpt><trkpt lat="48.64539662616937" lon="-2.331470754250857"><ele>54.00000000000001</ele><time>2026-04-05T08:05:18.999Z</time></trkpt><trkpt lat="48.64534926716651" lon="-2.331544935353456"><ele>54.00000000000001</ele><time>2026-04-05T08:05:20.999Z</time></trkpt><trkpt lat="48.64529985884579" lon="-2.331666710588828"><ele>54.0</ele><time>2026-04-05T08:05:23.999Z</time></trkpt><trkpt lat="48.64521945270963" lon="-2.3317728422701034"><ele>54.0</ele><time>2026-04-05T08:05:25.999Z</time></trkpt><trkpt lat="48.64517520877512" lon="-2.3318628342146064"><ele>54.0</ele><time>2026-04-05T08:05:27.999Z</time></trkpt><trkpt lat="48.64510638002041" lon="-2.3320086329734657"><ele>54.00000000000001</ele><time>2026-04-05T08:05:29.999Z</time></trkpt><trkpt lat="48.64505040251976" lon="-2.3320863224999617"><ele>54.00000000000001</ele><time>2026-04-05T08:05:30.999Z</time></trkpt><trkpt lat="48.64497848128456" lon="-2.332218961934444"><ele>54.0</ele><time>2026-04-05T08:05:33Z</time></trkpt><trkpt lat="48.64492433794775" lon="-2.3323427957206686"><ele>54.0</ele><time>2026-04-05T08:05:36Z</time></trkpt><trkpt lat="48.64488262753276" lon="-2.332417744382158"><ele>54.25</ele><time>2026-04-05T08:05:38Z</time></trkpt><trkpt lat="48.64482847722136" lon="-2.3325134653598587"><ele>54.5</ele><time>2026-04-05T08:05:40Z</time></trkpt><trkpt lat="48.64470546788989" lon="-2.3327174911913113"><ele>54.75</ele><time>2026-04-05T08:05:41Z</time></trkpt><trkpt lat="48.64460205352268" lon="-2.332764100381535"><ele>55.0</ele><time>2026-04-05T08:05:43Z</time></trkpt><trkpt lat="48.64448622897019" lon="-2.332786234366252"><ele>54.8</ele><time>2026-04-05T08:05:45Z</time></trkpt><trkpt lat="48.64439247694335" lon="-2.332697509966529"><ele>54.6</ele><time>2026-04-05T08:05:47Z</time></trkpt><trkpt lat="48.64430000459193" lon="-2.3326366884650493"><ele>54.400000000000006</ele><time>2026-04-05T08:05:49Z</time></trkpt><trkpt lat="48.64421661982503" lon="-2.3325777565433397"><ele>54.2</ele><time>2026-04-05T08:05:51Z</time></trkpt><trkpt lat="48.644129885677955" lon="-2.3325260050547167"><ele>54.0</ele><time>2026-04-05T08:05:53Z</time></trkpt><trkpt lat="48.644066084861095" lon="-2.3324821216832086"><ele>54.0</ele><time>2026-04-05T08:05:55Z</time></trkpt><trkpt lat="48.64399428330036" lon="-2.332438685791871"><ele>54.0</ele><time>2026-04-05T08:05:57Z</time></trkpt><trkpt lat="48.64393603100817" lon="-2.332399154637896"><ele>54.0</ele><time>2026-04-05T08:05:59Z</time></trkpt><trkpt lat="48.6438536922863" lon="-2.3323316725667156"><ele>54.0</ele><time>2026-04-05T08:06:02Z</time></trkpt><trkpt lat="48.643754802026436" lon="-2.332258322795412"><ele>54.0</ele><time>2026-04-05T08:06:05Z</time></trkpt><trkpt lat="48.643677289780975" lon="-2.332162949017224"><ele>54.0</ele><time>2026-04-05T08:06:07Z</time></trkpt><trkpt lat="48.64362579807291" lon="-2.332014430341312"><ele>54.400000000000006</ele><time>2026-04-05T08:06:09Z</time></trkpt><trkpt lat="48.64361459622252" lon="-2.331855787534375"><ele>54.800000000000004</ele><time>2026-04-05T08:06:11Z</time></trkpt><trkpt lat="48.64361526480976" lon="-2.3316903346050672"><ele>55.199999999999996</ele><time>2026-04-05T08:06:13Z</time></trkpt><trkpt lat="48.643594269722925" lon="-2.331543545979626"><ele>55.599999999999994</ele><time>2026-04-05T08:06:15Z</time></trkpt><trkpt lat="48.64358095812385" lon="-2.3313935728732202"><ele>56.0</ele><time>2026-04-05T08:06:17Z</time></trkpt><trkpt lat="48.643558575503334" lon="-2.331302592061085"><ele>56.00000000000001</ele><time>2026-04-05T08:06:19Z</time></trkpt><trkpt lat="48.643491477488304" lon="-2.3312212955354212"><ele>56.0</ele><time>2026-04-05T08:06:21Z</time></trkpt><trkpt lat="48.6434221105255" lon="-2.331204903959693"><ele>56.0</ele><time>2026-04-05T08:06:25Z</time></trkpt><trkpt lat="48.64335315538048" lon="-2.331259430184656"><ele>56.0</ele><time>2026-04-05T08:06:28Z</time></trkpt><trkpt lat="48.64324937558401" lon="-2.331278607614741"><ele>56.00000000000001</ele><time>2026-04-05T08:06:30Z</time></trkpt><trkpt lat="48.64315591165487" lon="-2.3312834685966077"><ele>56.0</ele><time>2026-04-05T08:06:33Z</time></trkpt><trkpt lat="48.64308768096779" lon="-2.3312599302976644"><ele>56.00000000000001</ele><time>2026-04-05T08:06:35Z</time></trkpt><trkpt lat="48.64301271999936" lon="-2.331257822161049"><ele>56.0</ele><time>2026-04-05T08:06:37Z</time></trkpt><trkpt lat="48.642926739809035" lon="-2.3312473815445998"><ele>56.0</ele><time>2026-04-05T08:06:39Z</time></trkpt><trkpt lat="48.64284558099646" lon="-2.3312376769247836"><ele>56.0</ele><time>2026-04-05T08:06:41Z</time></trkpt><trkpt lat="48.6427582794094" lon="-2.331227237754697"><ele>56.00000000000001</ele><time>2026-04-05T08:06:44Z</time></trkpt><trkpt lat="48.64268771699075" lon="-2.3311842766853412"><ele>56.0</ele><time>2026-04-05T08:06:45.999Z</time></trkpt><trkpt lat="48.64259729278381" lon="-2.3311740378513615"><ele>56.0</ele><time>2026-04-05T08:06:47.999Z</time></trkpt><trkpt lat="48.64192670355526" lon="-2.3311334088328075"><ele>56.0</ele><time>2026-04-05T08:06:48.999Z</time></trkpt><trkpt lat="48.64181866849896" lon="-2.3311204863482025"><ele>55.99999999999999</ele><time>2026-04-05T08:06:50.999Z</time></trkpt><trkpt lat="48.64175753969254" lon="-2.331092759089273"><ele>55.99999999999999</ele><time>2026-04-05T08:06:51.999Z</time></trkpt><trkpt lat="48.64164029178431" lon="-2.3310841897430774"><ele>56.0</ele><time>2026-04-05T08:06:53.999Z</time></trkpt><trkpt lat="48.64153370352883" lon="-2.3310469132361606"><ele>56.0</ele><time>2026-04-05T08:06:55.999Z</time></trkpt><trkpt lat="48.641440418420075" lon="-2.3309568770923335"><ele>56.0</ele><time>2026-04-05T08:06:57.999Z</time></trkpt><trkpt lat="48.64133781736694" lon="-2.3309009741033306"><ele>55.99999999999999</ele><time>2026-04-05T08:06:59.999Z</time></trkpt><trkpt lat="48.641242178488476" lon="-2.3308420956314757"><ele>55.99999999999999</ele><time>2026-04-05T08:07:01.999Z</time></trkpt><trkpt lat="48.64114357153759" lon="-2.3307752237861283"><ele>56.0</ele><time>2026-04-05T08:07:03.999Z</time></trkpt><trkpt lat="48.64106153008889" lon="-2.33071461313259"><ele>56.0</ele><time>2026-04-05T08:07:05.999Z</time></trkpt><trkpt lat="48.640958418946624" lon="-2.3306519364334903"><ele>56.5</ele><time>2026-04-05T08:07:07.999Z</time></trkpt><trkpt lat="48.64087720258367" lon="-2.330629486203906"><ele>57.0</ele><time>2026-04-05T08:07:10.999Z</time></trkpt><trkpt lat="48.64080492239155" lon="-2.3305870547574403"><ele>57.5</ele><time>2026-04-05T08:07:13.999Z</time></trkpt><trkpt lat="48.640729481412976" lon="-2.330542767731058"><ele>58.0</ele><time>2026-04-05T08:07:15.999Z</time></trkpt><trkpt lat="48.64039769793546" lon="-2.33033773900582"><ele>58.599999999999994</ele><time>2026-04-05T08:07:18.999Z</time></trkpt><trkpt lat="48.640292790002185" lon="-2.330288088601595"><ele>59.199999999999996</ele><time>2026-04-05T08:07:20.999Z</time></trkpt><trkpt lat="48.64018606675972" lon="-2.3302284054673423"><ele>59.8</ele><time>2026-04-05T08:07:22.999Z</time></trkpt><trkpt lat="48.640077348129076" lon="-2.330180325543917"><ele>60.4</ele><time>2026-04-05T08:07:24.999Z</time></trkpt><trkpt lat="48.63997071320938" lon="-2.3301258908958564"><ele>61.0</ele><time>2026-04-05T08:07:26.999Z</time></trkpt><trkpt lat="48.63987827895429" lon="-2.3300762160275923"><ele>61.0</ele><time>2026-04-05T08:07:28.999Z</time></trkpt><trkpt lat="48.639786265633056" lon="-2.330007548017835"><ele>60.99999999999999</ele><time>2026-04-05T08:07:30.999Z</time></trkpt><trkpt lat="48.63969734162767" lon="-2.329929593290099"><ele>60.99999999999999</ele><time>2026-04-05T08:07:32.999Z</time></trkpt><trkpt lat="48.63962419534782" lon="-2.3298257017643373"><ele>61.0</ele><time>2026-04-05T08:07:34.999Z</time></trkpt><trkpt lat="48.63954208142897" lon="-2.329715263034409"><ele>61.0</ele><time>2026-04-05T08:07:36.999Z</time></trkpt><trkpt lat="48.63947610145026" lon="-2.3296180422045643"><ele>61.5</ele><time>2026-04-05T08:07:39Z</time></trkpt><trkpt lat="48.639412878395156" lon="-2.3294956321233204"><ele>62.0</ele><time>2026-04-05T08:07:41Z</time></trkpt><trkpt lat="48.63937053808077" lon="-2.3293915940362706"><ele>62.5</ele><time>2026-04-05T08:07:44Z</time></trkpt><trkpt lat="48.63924302526163" lon="-2.3292005865430645"><ele>63.0</ele><time>2026-04-05T08:07:46Z</time></trkpt><trkpt lat="48.63916723805215" lon="-2.3290980180777474"><ele>63.0</ele><time>2026-04-05T08:07:48Z</time></trkpt><trkpt lat="48.6390893620725" lon="-2.329014391715477"><ele>63.0</ele><time>2026-04-05T08:07:50Z</time></trkpt><trkpt lat="48.63900767542364" lon="-2.3289388526238826"><ele>63.0</ele><time>2026-04-05T08:07:52Z</time></trkpt><trkpt lat="48.6389168645093" lon="-2.3288461297828484"><ele>63.0</ele><time>2026-04-05T08:07:54Z</time></trkpt><trkpt lat="48.638828677566536" lon="-2.3287706269240562"><ele>63.0</ele><time>2026-04-05T08:07:56Z</time></trkpt><trkpt lat="48.63874724737858" lon="-2.328696195687767"><ele>63.2</ele><time>2026-04-05T08:07:58Z</time></trkpt><trkpt lat="48.63866850067391" lon="-2.3286125181879607"><ele>63.4</ele><time>2026-04-05T08:08:00Z</time></trkpt><trkpt lat="48.638579146702675" lon="-2.328548350037389"><ele>63.60000000000001</ele><time>2026-04-05T08:08:02Z</time></trkpt><trkpt lat="48.638497725680246" lon="-2.3284779645194287"><ele>63.800000000000004</ele><time>2026-04-05T08:08:04Z</time></trkpt><trkpt lat="48.63840998604917" lon="-2.328449164109554"><ele>64.0</ele><time>2026-04-05T08:08:06Z</time></trkpt><trkpt lat="48.63833052345711" lon="-2.3284093578371987"><ele>63.99999999999999</ele><time>2026-04-05T08:08:09Z</time></trkpt><trkpt lat="48.63826188639207" lon="-2.3284083634218327"><ele>64.0</ele><time>2026-04-05T08:08:11Z</time></trkpt><trkpt lat="48.6381691586109" lon="-2.3283749704388432"><ele>64.0</ele><time>2026-04-05T08:08:14Z</time></trkpt><trkpt lat="48.638102375935844" lon="-2.328329438206913"><ele>64.0</ele><time>2026-04-05T08:08:16Z</time></trkpt><trkpt lat="48.638012663353514" lon="-2.3283188962979455"><ele>63.99999999999999</ele><time>2026-04-05T08:08:18Z</time></trkpt><trkpt lat="48.63792870912068" lon="-2.328288814524764"><ele>64.0</ele><time>2026-04-05T08:08:20Z</time></trkpt><trkpt lat="48.63786880246054" lon="-2.328216964782959"><ele>64.0</ele><time>2026-04-05T08:08:21Z</time></trkpt><trkpt lat="48.63757863945406" lon="-2.328163912560238"><ele>64.0</ele><time>2026-04-05T08:08:22Z</time></trkpt><trkpt lat="48.63748224846329" lon="-2.3281292909051445"><ele>64.0</ele><time>2026-04-05T08:08:24Z</time></trkpt><trkpt lat="48.63736074242544" lon="-2.3281117477164877"><ele>64.0</ele><time>2026-04-05T08:08:26Z</time></trkpt><trkpt lat="48.63725171893335" lon="-2.328074691316218"><ele>64.0</ele><time>2026-04-05T08:08:28Z</time></trkpt><trkpt lat="48.6371462054684" lon="-2.3280394111486404"><ele>64.0</ele><time>2026-04-05T08:08:30Z</time></trkpt><trkpt lat="48.637048906698354" lon="-2.3280014322214186"><ele>64.0</ele><time>2026-04-05T08:08:32Z</time></trkpt><trkpt lat="48.636957194101555" lon="-2.32797720665026"><ele>64.0</ele><time>2026-04-05T08:08:34Z</time></trkpt><trkpt lat="48.636848066506566" lon="-2.3279377361999725"><ele>64.0</ele><time>2026-04-05T08:08:36Z</time></trkpt><trkpt lat="48.63674198732572" lon="-2.3279296644711662"><ele>64.0</ele><time>2026-04-05T08:08:38Z</time></trkpt><trkpt lat="48.63664098807846" lon="-2.3278790298626695"><ele>64.0</ele><time>2026-04-05T08:08:40Z</time></trkpt><trkpt lat="48.6365817403447" lon="-2.327830118605566"><ele>64.0</ele><time>2026-04-05T08:08:41Z</time></trkpt><trkpt lat="48.636476408062464" lon="-2.3277814844819025"><ele>64.0</ele><time>2026-04-05T08:08:43Z</time></trkpt><trkpt lat="48.63639043814018" lon="-2.327739497147362"><ele>63.99999999999999</ele><time>2026-04-05T08:08:48Z</time></trkpt><trkpt lat="48.636295017527054" lon="-2.3276829112750987"><ele>64.0</ele><time>2026-04-05T08:08:49Z</time></trkpt><trkpt lat="48.636229966944306" lon="-2.3276428473930917"><ele>64.0</ele><time>2026-04-05T08:08:50Z</time></trkpt><trkpt lat="48.636169612627654" lon="-2.3275889465961153"><ele>64.0</ele><time>2026-04-05T08:08:51Z</time></trkpt><trkpt lat="48.63610785811046" lon="-2.3275605756341915"><ele>63.99999999999999</ele><time>2026-04-05T08:08:52Z</time></trkpt><trkpt lat="48.63603614057221" lon="-2.3275198061213627"><ele>64.0</ele><time>2026-04-05T08:08:53Z</time></trkpt><trkpt lat="48.63593557629074" lon="-2.327476858425417"><ele>63.99999999999999</ele><time>2026-04-05T08:08:55Z</time></trkpt><trkpt lat="48.63587283269495" lon="-2.327444730866225"><ele>64.0</ele><time>2026-04-05T08:08:56Z</time></trkpt><trkpt lat="48.63576996873047" lon="-2.3274099082197885"><ele>64.0</ele><time>2026-04-05T08:08:58Z</time></trkpt><trkpt lat="48.635705162680395" lon="-2.3274017303730825"><ele>64.0</ele><time>2026-04-05T08:08:59Z</time></trkpt><trkpt lat="48.63559524982624" lon="-2.3273602417337975"><ele>63.99999999999999</ele><time>2026-04-05T08:09:01Z</time></trkpt><trkpt lat="48.635515890312696" lon="-2.3273211728355245"><ele>64.0</ele><time>2026-04-05T08:09:04.999Z</time></trkpt><trkpt lat="48.63545155750632" lon="-2.327305301531218"><ele>64.16666666666666</ele><time>2026-04-05T08:09:11.999Z</time></trkpt><trkpt lat="48.63546316703506" lon="-2.327145860973464"><ele>64.33333333333333</ele><time>2026-04-05T08:09:15.999Z</time></trkpt><trkpt lat="48.63550225235241" lon="-2.327070008455378"><ele>64.5</ele><time>2026-04-05T08:09:17.999Z</time></trkpt><trkpt lat="48.63556161550244" lon="-2.326971202048944"><ele>64.66666666666667</ele><time>2026-04-05T08:09:20.999Z</time></trkpt><trkpt lat="48.635615069036675" lon="-2.3268405934835177"><ele>64.83333333333334</ele><time>2026-04-05T08:09:23.999Z</time></trkpt><trkpt lat="48.63566292788184" lon="-2.3267416881808827"><ele>65.0</ele><time>2026-04-05T08:09:25.999Z</time></trkpt><trkpt lat="48.63571025799367" lon="-2.326624198020156"><ele>65.0</ele><time>2026-04-05T08:09:27.999Z</time></trkpt><trkpt lat="48.63576556014861" lon="-2.326511717178602"><ele>65.0</ele><time>2026-04-05T08:09:29.999Z</time></trkpt><trkpt lat="48.635820571496296" lon="-2.3263961780306643"><ele>65.0</ele><time>2026-04-05T08:09:31.999Z</time></trkpt><trkpt lat="48.63588064702954" lon="-2.3262852456857406"><ele>65.0</ele><time>2026-04-05T08:09:33.999Z</time></trkpt><trkpt lat="48.635949896660975" lon="-2.3261976651058163"><ele>65.0</ele><time>2026-04-05T08:09:35.999Z</time></trkpt><trkpt lat="48.63601290203127" lon="-2.3260880279047544"><ele>65.0</ele><time>2026-04-05T08:09:37.999Z</time></trkpt><trkpt lat="48.636082637164186" lon="-2.3259885490066843"><ele>65.0</ele><time>2026-04-05T08:09:39.999Z</time></trkpt><trkpt lat="48.63615301863345" lon="-2.3259024079238713"><ele>65.0</ele><time>2026-04-05T08:09:41.999Z</time></trkpt><trkpt lat="48.636213855741694" lon="-2.325814027763742"><ele>65.0</ele><time>2026-04-05T08:09:43.999Z</time></trkpt><trkpt lat="48.63625691647362" lon="-2.32571404307028"><ele>65.0</ele><time>2026-04-05T08:09:48Z</time></trkpt><trkpt lat="48.63632704558651" lon="-2.325648638602951"><ele>65.0</ele><time>2026-04-05T08:10:48Z</time></trkpt><trkpt lat="48.63628875642413" lon="-2.3255682388943932"><ele>65.0</ele><time>2026-04-05T08:11:47.999Z</time></trkpt><trkpt lat="48.6362687938987" lon="-2.3254549023472086"><ele>65.0</ele><time>2026-04-05T08:11:51Z</time></trkpt><trkpt lat="48.63625313616077" lon="-2.325337995734617"><ele>65.0</ele><time>2026-04-05T08:11:54Z</time></trkpt><trkpt lat="48.63626736555322" lon="-2.3252320042681873"><ele>65.0</ele><time>2026-04-05T08:11:56Z</time></trkpt><trkpt lat="48.636314351020474" lon="-2.3251055806500047"><ele>65.0</ele><time>2026-04-05T08:11:58Z</time></trkpt><trkpt lat="48.63637839556656" lon="-2.324994318767049"><ele>65.0</ele><time>2026-04-05T08:12:00Z</time></trkpt><trkpt lat="48.636422058992146" lon="-2.324861560359254"><ele>65.0</ele><time>2026-04-05T08:12:02Z</time></trkpt><trkpt lat="48.63647263114468" lon="-2.3247331519030046"><ele>65.0</ele><time>2026-04-05T08:12:04Z</time></trkpt><trkpt lat="48.63652080009435" lon="-2.3246097197054456"><ele>65.0</ele><time>2026-04-05T08:12:06Z</time></trkpt><trkpt lat="48.636565990308554" lon="-2.324486171147523"><ele>65.0</ele><time>2026-04-05T08:12:08Z</time></trkpt><trkpt lat="48.63660395484565" lon="-2.324362898637855"><ele>65.0</ele><time>2026-04-05T08:12:10Z</time></trkpt><trkpt lat="48.63663959039398" lon="-2.324232079894295"><ele>65.2</ele><time>2026-04-05T08:12:12Z</time></trkpt><trkpt lat="48.636650313864685" lon="-2.324077245411075"><ele>65.4</ele><time>2026-04-05T08:12:14Z</time></trkpt><trkpt lat="48.636581901359584" lon="-2.3239364564836933"><ele>65.6</ele><time>2026-04-05T08:12:16Z</time></trkpt><trkpt lat="48.6365281494817" lon="-2.323792179433641"><ele>65.8</ele><time>2026-04-05T08:12:18Z</time></trkpt><trkpt lat="48.63647056810534" lon="-2.3236559460491337"><ele>66.0</ele><time>2026-04-05T08:12:20Z</time></trkpt><trkpt lat="48.63641160380876" lon="-2.323520786016547"><ele>65.8</ele><time>2026-04-05T08:12:22Z</time></trkpt><trkpt lat="48.636348149831534" lon="-2.323383835243695"><ele>65.6</ele><time>2026-04-05T08:12:24Z</time></trkpt><trkpt lat="48.63628621158511" lon="-2.3232580907787317"><ele>65.4</ele><time>2026-04-05T08:12:26Z</time></trkpt><trkpt lat="48.63623357399648" lon="-2.3231293800769195"><ele>65.2</ele><time>2026-04-05T08:12:28Z</time></trkpt><trkpt lat="48.636182151639986" lon="-2.3230012085115717"><ele>65.0</ele><time>2026-04-05T08:12:30Z</time></trkpt><trkpt lat="48.6361290726666" lon="-2.3228889153342958"><ele>65.0</ele><time>2026-04-05T08:12:32Z</time></trkpt><trkpt lat="48.63608125989378" lon="-2.3228114328285914"><ele>65.0</ele><time>2026-04-05T08:12:34Z</time></trkpt><trkpt lat="48.636170386623014" lon="-2.322647514481314"><ele>65.0</ele><time>2026-04-05T08:12:37Z</time></trkpt><trkpt lat="48.63626440301622" lon="-2.322596989828901"><ele>65.0</ele><time>2026-04-05T08:12:39Z</time></trkpt><trkpt lat="48.63635276745795" lon="-2.322530176055032"><ele>65.0</ele><time>2026-04-05T08:12:41Z</time></trkpt><trkpt lat="48.63643913732026" lon="-2.3224838146716182"><ele>65.0</ele><time>2026-04-05T08:12:43Z</time></trkpt><trkpt lat="48.63653131176411" lon="-2.3224352752585427"><ele>65.0</ele><time>2026-04-05T08:12:45Z</time></trkpt><trkpt lat="48.63662567424737" lon="-2.322383188555567"><ele>65.0</ele><time>2026-04-05T08:12:47Z</time></trkpt><trkpt lat="48.63671370290508" lon="-2.3223365263609024"><ele>65.0</ele><time>2026-04-05T08:12:49Z</time></trkpt><trkpt lat="48.63674477367374" lon="-2.32219842076125"><ele>65.0</ele><time>2026-04-05T08:12:51Z</time></trkpt><trkpt lat="48.63670653482484" lon="-2.322054289116016"><ele>65.25</ele><time>2026-04-05T08:12:53Z</time></trkpt><trkpt lat="48.63663859417317" lon="-2.3219248517041304"><ele>65.5</ele><time>2026-04-05T08:12:55Z</time></trkpt><trkpt lat="48.63656582408752" lon="-2.3217896335677555"><ele>65.75</ele><time>2026-04-05T08:12:57Z</time></trkpt><trkpt lat="48.63646608017066" lon="-2.321702748735677"><ele>66.0</ele><time>2026-04-05T08:12:59Z</time></trkpt><trkpt lat="48.636372219614714" lon="-2.321613751786675"><ele>66.0</ele><time>2026-04-05T08:13:00.999Z</time></trkpt><trkpt lat="48.63628104982768" lon="-2.321514648707337"><ele>66.0</ele><time>2026-04-05T08:13:02.999Z</time></trkpt><trkpt lat="48.636192400528685" lon="-2.3214025764250725"><ele>66.0</ele><time>2026-04-05T08:13:04.999Z</time></trkpt><trkpt lat="48.6361210872604" lon="-2.321284440578144"><ele>66.0</ele><time>2026-04-05T08:13:06.999Z</time></trkpt><trkpt lat="48.63605909747966" lon="-2.32116402530653"><ele>66.0</ele><time>2026-04-05T08:13:08.999Z</time></trkpt><trkpt lat="48.635983424503955" lon="-2.321041443200309"><ele>65.6</ele><time>2026-04-05T08:13:10.999Z</time></trkpt><trkpt lat="48.63590135288047" lon="-2.320920513846009"><ele>65.19999999999999</ele><time>2026-04-05T08:13:12.999Z</time></trkpt><trkpt lat="48.635796093101945" lon="-2.3208128489345405"><ele>64.80000000000001</ele><time>2026-04-05T08:13:14.999Z</time></trkpt><trkpt lat="48.63573892863206" lon="-2.3207521423225037"><ele>64.4</ele><time>2026-04-05T08:13:15.999Z</time></trkpt><trkpt lat="48.63568131499596" lon="-2.3206832056942943"><ele>64.0</ele><time>2026-04-05T08:13:16.999Z</time></trkpt><trkpt lat="48.63562521135148" lon="-2.320610403692428"><ele>63.6</ele><time>2026-04-05T08:13:17.999Z</time></trkpt><trkpt lat="48.63557421690138" lon="-2.320531463599165"><ele>63.2</ele><time>2026-04-05T08:13:18.999Z</time></trkpt><trkpt lat="48.63550047852488" lon="-2.320402393311647"><ele>62.800000000000004</ele><time>2026-04-05T08:13:20.999Z</time></trkpt><trkpt lat="48.63543205461098" lon="-2.320293592778323"><ele>62.400000000000006</ele><time>2026-04-05T08:13:22.999Z</time></trkpt><trkpt lat="48.63534621456845" lon="-2.320223786156493"><ele>62.0</ele><time>2026-04-05T08:13:24.999Z</time></trkpt><trkpt lat="48.635241085978194" lon="-2.320270016442234"><ele>61.400000000000006</ele><time>2026-04-05T08:13:26.999Z</time></trkpt><trkpt lat="48.6351417113849" lon="-2.3203830585365512"><ele>60.800000000000004</ele><time>2026-04-05T08:13:28.999Z</time></trkpt><trkpt lat="48.635030226347375" lon="-2.3204820495741902"><ele>60.2</ele><time>2026-04-05T08:13:30.999Z</time></trkpt><trkpt lat="48.63497659427412" lon="-2.320547332188286"><ele>59.6</ele><time>2026-04-05T08:13:31.999Z</time></trkpt><trkpt lat="48.634917111320576" lon="-2.3206046579020114"><ele>59.0</ele><time>2026-04-05T08:13:32.999Z</time></trkpt><trkpt lat="48.63485342360587" lon="-2.3206576958763305"><ele>59.0</ele><time>2026-04-05T08:13:33.999Z</time></trkpt><trkpt lat="48.634786836315804" lon="-2.320706054960775"><ele>59.0</ele><time>2026-04-05T08:13:34.999Z</time></trkpt><trkpt lat="48.63471568260395" lon="-2.3207496845968367"><ele>59.0</ele><time>2026-04-05T08:13:35.999Z</time></trkpt><trkpt lat="48.634647743837334" lon="-2.3207913621419762"><ele>59.0</ele><time>2026-04-05T08:13:36.999Z</time></trkpt><trkpt lat="48.63458034897797" lon="-2.3208389531547367"><ele>59.0</ele><time>2026-04-05T08:13:37.999Z</time></trkpt><trkpt lat="48.634514782299846" lon="-2.320877629200236"><ele>59.0</ele><time>2026-04-05T08:13:38.999Z</time></trkpt><trkpt lat="48.63445144376056" lon="-2.3209375611081406"><ele>59.0</ele><time>2026-04-05T08:13:39.999Z</time></trkpt><trkpt lat="48.63437748136304" lon="-2.320997213894469"><ele>58.00000000000001</ele><time>2026-04-05T08:13:40.999Z</time></trkpt><trkpt lat="48.63431387103281" lon="-2.3210467562475636"><ele>57.0</ele><time>2026-04-05T08:13:41.999Z</time></trkpt><trkpt lat="48.634240492166256" lon="-2.3210919652152"><ele>56.0</ele><time>2026-04-05T08:13:42.999Z</time></trkpt><trkpt lat="48.6341680975158" lon="-2.3210995661982077"><ele>55.0</ele><time>2026-04-05T08:13:43.999Z</time></trkpt><trkpt lat="48.63409798458758" lon="-2.3211163271601567"><ele>54.00000000000001</ele><time>2026-04-05T08:13:44.999Z</time></trkpt><trkpt lat="48.634025189025536" lon="-2.321117526319346"><ele>53.0</ele><time>2026-04-05T08:13:45.999Z</time></trkpt><trkpt lat="48.63388585807172" lon="-2.3210729245316855"><ele>53.00000000000001</ele><time>2026-04-05T08:13:47.999Z</time></trkpt><trkpt lat="48.63382510437643" lon="-2.321036683884837"><ele>53.0</ele><time>2026-04-05T08:13:48.999Z</time></trkpt><trkpt lat="48.63376445449096" lon="-2.320997347567505"><ele>53.0</ele><time>2026-04-05T08:13:49.999Z</time></trkpt><trkpt lat="48.63369545623022" lon="-2.320947685300431"><ele>53.0</ele><time>2026-04-05T08:13:50.999Z</time></trkpt><trkpt lat="48.633614807043905" lon="-2.320897953479584"><ele>53.00000000000001</ele><time>2026-04-05T08:13:51.999Z</time></trkpt><trkpt lat="48.63352479976789" lon="-2.320876181331777"><ele>53.0</ele><time>2026-04-05T08:13:52.999Z</time></trkpt><trkpt lat="48.63344189976736" lon="-2.320843558411739"><ele>52.333333333333336</ele><time>2026-04-05T08:13:53.999Z</time></trkpt><trkpt lat="48.633370820845464" lon="-2.3208057852983917"><ele>51.66666666666667</ele><time>2026-04-05T08:13:54.999Z</time></trkpt><trkpt lat="48.63328011920971" lon="-2.32080132574851"><ele>51.0</ele><time>2026-04-05T08:13:55.999Z</time></trkpt><trkpt lat="48.63320608338925" lon="-2.32079664602438"><ele>50.33333333333333</ele><time>2026-04-05T08:13:57Z</time></trkpt><trkpt lat="48.633120757989076" lon="-2.3208032729212844"><ele>49.666666666666664</ele><time>2026-04-05T08:13:58Z</time></trkpt><trkpt lat="48.633039263027406" lon="-2.3208111077113975"><ele>49.0</ele><time>2026-04-05T08:13:59Z</time></trkpt><trkpt lat="48.632973798026654" lon="-2.320832187977798"><ele>48.99999999999999</ele><time>2026-04-05T08:14:00Z</time></trkpt><trkpt lat="48.632886650248196" lon="-2.3208638911208506"><ele>49.0</ele><time>2026-04-05T08:14:01Z</time></trkpt><trkpt lat="48.63279302973949" lon="-2.320880325145704"><ele>49.0</ele><time>2026-04-05T08:14:02Z</time></trkpt><trkpt lat="48.63270323618474" lon="-2.3208828102253434"><ele>49.0</ele><time>2026-04-05T08:14:03Z</time></trkpt><trkpt lat="48.632626079370674" lon="-2.320925190450725"><ele>48.99999999999999</ele><time>2026-04-05T08:14:04Z</time></trkpt><trkpt lat="48.63253475929898" lon="-2.32093973109578"><ele>49.0</ele><time>2026-04-05T08:14:05Z</time></trkpt><trkpt lat="48.63245844203478" lon="-2.320986480333733"><ele>48.2</ele><time>2026-04-05T08:14:06Z</time></trkpt><trkpt lat="48.632333714756875" lon="-2.3210489842547664"><ele>47.400000000000006</ele><time>2026-04-05T08:14:07Z</time></trkpt><trkpt lat="48.63226953961842" lon="-2.3211344994626675"><ele>46.6</ele><time>2026-04-05T08:14:08Z</time></trkpt><trkpt lat="48.63218738335221" lon="-2.321194376378664"><ele>45.8</ele><time>2026-04-05T08:14:09Z</time></trkpt><trkpt lat="48.63211214044926" lon="-2.321266574702116"><ele>45.0</ele><time>2026-04-05T08:14:10Z</time></trkpt><trkpt lat="48.63204269182393" lon="-2.321343816898319"><ele>45.0</ele><time>2026-04-05T08:14:11Z</time></trkpt><trkpt lat="48.63197029768345" lon="-2.321373982576871"><ele>45.0</ele><time>2026-04-05T08:14:12Z</time></trkpt><trkpt lat="48.631893991874435" lon="-2.3214375786698414"><ele>45.0</ele><time>2026-04-05T08:14:13Z</time></trkpt><trkpt lat="48.631822238219534" lon="-2.32150272374062"><ele>45.0</ele><time>2026-04-05T08:14:14Z</time></trkpt><trkpt lat="48.631759159073525" lon="-2.3215806427206753"><ele>45.0</ele><time>2026-04-05T08:14:15Z</time></trkpt><trkpt lat="48.63169242356081" lon="-2.3216281944395885"><ele>45.0</ele><time>2026-04-05T08:14:16Z</time></trkpt><trkpt lat="48.631625899091404" lon="-2.3216793983918143"><ele>43.833333333333336</ele><time>2026-04-05T08:14:17Z</time></trkpt><trkpt lat="48.631549840311656" lon="-2.321739171147619"><ele>42.666666666666664</ele><time>2026-04-05T08:14:18Z</time></trkpt><trkpt lat="48.63148257117168" lon="-2.3218034801731"><ele>41.5</ele><time>2026-04-05T08:14:19Z</time></trkpt><trkpt lat="48.63141122418053" lon="-2.3218748311254336"><ele>40.33333333333333</ele><time>2026-04-05T08:14:20Z</time></trkpt><trkpt lat="48.63133279717721" lon="-2.321955160613923"><ele>39.166666666666664</ele><time>2026-04-05T08:14:21Z</time></trkpt><trkpt lat="48.63126223958215" lon="-2.322068771100689"><ele>38.0</ele><time>2026-04-05T08:14:22Z</time></trkpt><trkpt lat="48.63119311352629" lon="-2.322151588088851"><ele>36.6</ele><time>2026-04-05T08:14:23Z</time></trkpt><trkpt lat="48.63111459420844" lon="-2.3222431447999674"><ele>35.199999999999996</ele><time>2026-04-05T08:14:24Z</time></trkpt><trkpt lat="48.631035599118086" lon="-2.3223217072085385"><ele>33.8</ele><time>2026-04-05T08:14:25Z</time></trkpt><trkpt lat="48.63095898493115" lon="-2.322385410513382"><ele>32.4</ele><time>2026-04-05T08:14:26Z</time></trkpt><trkpt lat="48.6308603965342" lon="-2.3223888325593975"><ele>31.0</ele><time>2026-04-05T08:14:27Z</time></trkpt><trkpt lat="48.63077964911808" lon="-2.322386067783979"><ele>31.0</ele><time>2026-04-05T08:14:28Z</time></trkpt><trkpt lat="48.63070318839559" lon="-2.3223641309795786"><ele>31.000000000000004</ele><time>2026-04-05T08:14:29Z</time></trkpt><trkpt lat="48.6306279583607" lon="-2.3223499044321776"><ele>31.0</ele><time>2026-04-05T08:14:30Z</time></trkpt><trkpt lat="48.63056897214636" lon="-2.3222647911357535"><ele>31.0</ele><time>2026-04-05T08:14:31Z</time></trkpt><trkpt lat="48.630510786840716" lon="-2.3221998493052016"><ele>31.000000000000004</ele><time>2026-04-05T08:14:32Z</time></trkpt><trkpt lat="48.630455754343444" lon="-2.3221300703885"><ele>31.0</ele><time>2026-04-05T08:14:33Z</time></trkpt><trkpt lat="48.63040608070008" lon="-2.3220556750877943"><ele>31.0</ele><time>2026-04-05T08:14:34Z</time></trkpt><trkpt lat="48.630351831558926" lon="-2.3219882830576926"><ele>30.142857142857146</ele><time>2026-04-05T08:14:35Z</time></trkpt><trkpt lat="48.63029825618472" lon="-2.321910732374852"><ele>29.28571428571429</ele><time>2026-04-05T08:14:36Z</time></trkpt><trkpt lat="48.63024376881051" lon="-2.321835110618205"><ele>28.42857142857143</ele><time>2026-04-05T08:14:37Z</time></trkpt><trkpt lat="48.63018794238816" lon="-2.3217732640223767"><ele>27.571428571428573</ele><time>2026-04-05T08:14:38Z</time></trkpt><trkpt lat="48.630127392820945" lon="-2.321692382142008"><ele>26.714285714285715</ele><time>2026-04-05T08:14:39Z</time></trkpt><trkpt lat="48.630066403342525" lon="-2.3216162030742695"><ele>25.85714285714286</ele><time>2026-04-05T08:14:40Z</time></trkpt><trkpt lat="48.63001231632041" lon="-2.321549010018045"><ele>25.0</ele><time>2026-04-05T08:14:41Z</time></trkpt><trkpt lat="48.62996205240896" lon="-2.321474010976217"><ele>25.0</ele><time>2026-04-05T08:14:42Z</time></trkpt><trkpt lat="48.6299072994249" lon="-2.3214048972701584"><ele>25.0</ele><time>2026-04-05T08:14:43Z</time></trkpt><trkpt lat="48.629852240652774" lon="-2.3213301081244024"><ele>25.0</ele><time>2026-04-05T08:14:44Z</time></trkpt><trkpt lat="48.62977543307866" lon="-2.3211474230975626"><ele>25.0</ele><time>2026-04-05T08:14:46Z</time></trkpt><trkpt lat="48.629703668218234" lon="-2.320998334811591"><ele>25.0</ele><time>2026-04-05T08:14:48Z</time></trkpt><trkpt lat="48.6296677515194" lon="-2.320915244948308"><ele>24.42857142857143</ele><time>2026-04-05T08:14:49Z</time></trkpt><trkpt lat="48.62961178087701" lon="-2.320860760861585"><ele>23.857142857142858</ele><time>2026-04-05T08:14:50Z</time></trkpt><trkpt lat="48.62954485934697" lon="-2.3208296703568814"><ele>23.285714285714285</ele><time>2026-04-05T08:14:51Z</time></trkpt><trkpt lat="48.62948043492903" lon="-2.3208038745806676"><ele>22.714285714285715</ele><time>2026-04-05T08:14:52Z</time></trkpt><trkpt lat="48.629414995949475" lon="-2.3207729228837954"><ele>22.142857142857142</ele><time>2026-04-05T08:14:53Z</time></trkpt><trkpt lat="48.62934801812394" lon="-2.3207412432145915"><ele>21.571428571428573</ele><time>2026-04-05T08:14:54Z</time></trkpt><trkpt lat="48.62928446378874" lon="-2.320711183013986"><ele>21.0</ele><time>2026-04-05T08:14:55Z</time></trkpt><trkpt lat="48.62920899855487" lon="-2.3206754888815997"><ele>21.0</ele><time>2026-04-05T08:14:56Z</time></trkpt><trkpt lat="48.629141133836946" lon="-2.3206433897054985"><ele>21.0</ele><time>2026-04-05T08:14:57Z</time></trkpt><trkpt lat="48.629067937445996" lon="-2.320610075045447"><ele>21.0</ele><time>2026-04-05T08:14:58Z</time></trkpt><trkpt lat="48.628995952620585" lon="-2.320580532800696"><ele>21.0</ele><time>2026-04-05T08:14:59Z</time></trkpt><trkpt lat="48.62892822119857" lon="-2.3205645314010974"><ele>21.0</ele><time>2026-04-05T08:15:00Z</time></trkpt><trkpt lat="48.6288053262275" lon="-2.3206372832559468"><ele>21.0</ele><time>2026-04-05T08:15:02Z</time></trkpt><trkpt lat="48.62874248187211" lon="-2.3207134174183"><ele>21.0</ele><time>2026-04-05T08:15:03Z</time></trkpt><trkpt lat="48.6286978577918" lon="-2.3208108353790085"><ele>21.0</ele><time>2026-04-05T08:15:04Z</time></trkpt><trkpt lat="48.62866668005147" lon="-2.3209364137172663"><ele>21.0</ele><time>2026-04-05T08:15:05Z</time></trkpt><trkpt lat="48.62864629911372" lon="-2.3210543464198277"><ele>21.0</ele><time>2026-04-05T08:15:06Z</time></trkpt><trkpt lat="48.6286246135928" lon="-2.321157802963405"><ele>21.0</ele><time>2026-04-05T08:15:07Z</time></trkpt><trkpt lat="48.62861430863185" lon="-2.321266209090744"><ele>21.0</ele><time>2026-04-05T08:15:08Z</time></trkpt><trkpt lat="48.628585885642835" lon="-2.321371091145459"><ele>21.857142857142858</ele><time>2026-04-05T08:15:09Z</time></trkpt><trkpt lat="48.62858065834271" lon="-2.321477273367822"><ele>22.714285714285715</ele><time>2026-04-05T08:15:10Z</time></trkpt><trkpt lat="48.62859656138814" lon="-2.3215981631198486"><ele>23.57142857142857</ele><time>2026-04-05T08:15:10.999Z</time></trkpt><trkpt lat="48.62863186532078" lon="-2.321705409341634"><ele>24.42857142857143</ele><time>2026-04-05T08:15:11.999Z</time></trkpt><trkpt lat="48.62866223630536" lon="-2.321805581716107"><ele>25.285714285714285</ele><time>2026-04-05T08:15:12.999Z</time></trkpt><trkpt lat="48.62868295480071" lon="-2.3219025139242295"><ele>26.142857142857142</ele><time>2026-04-05T08:15:13.999Z</time></trkpt><trkpt lat="48.62868960900031" lon="-2.3219976215404032"><ele>27.0</ele><time>2026-04-05T08:15:14.999Z</time></trkpt><trkpt lat="48.62867406302907" lon="-2.3221906101957095"><ele>28.0</ele><time>2026-04-05T08:15:16.999Z</time></trkpt><trkpt lat="48.62864433312741" lon="-2.32228337007487"><ele>29.0</ele><time>2026-04-05T08:15:17.999Z</time></trkpt><trkpt lat="48.62859183074703" lon="-2.3224568011027076"><ele>30.0</ele><time>2026-04-05T08:15:19.999Z</time></trkpt><trkpt lat="48.62856220868883" lon="-2.322541651026966"><ele>31.0</ele><time>2026-04-05T08:15:20.999Z</time></trkpt><trkpt lat="48.628525850293855" lon="-2.3226224375662743"><ele>32.0</ele><time>2026-04-05T08:15:21.999Z</time></trkpt><trkpt lat="48.628486547669375" lon="-2.3227788160731366"><ele>33.0</ele><time>2026-04-05T08:15:23.999Z</time></trkpt><trkpt lat="48.62844371824003" lon="-2.322862060687474"><ele>30.2</ele><time>2026-04-05T08:15:24.999Z</time></trkpt><trkpt lat="48.62839949629349" lon="-2.323032346870714"><ele>27.4</ele><time>2026-04-05T08:15:26.999Z</time></trkpt><trkpt lat="48.628349706320584" lon="-2.323203204132019"><ele>24.599999999999998</ele><time>2026-04-05T08:15:28.999Z</time></trkpt><trkpt lat="48.6283039256492" lon="-2.323368082436772"><ele>21.799999999999997</ele><time>2026-04-05T08:15:30.999Z</time></trkpt><trkpt lat="48.628283836692624" lon="-2.32345862880538"><ele>19.0</ele><time>2026-04-05T08:15:31.999Z</time></trkpt><trkpt lat="48.62823852921523" lon="-2.323631120251466"><ele>19.0</ele><time>2026-04-05T08:15:33.999Z</time></trkpt><trkpt lat="48.628195011236464" lon="-2.323796804598569"><ele>19.0</ele><time>2026-04-05T08:15:35.999Z</time></trkpt><trkpt lat="48.62814750257595" lon="-2.3239590038819955"><ele>19.0</ele><time>2026-04-05T08:15:37.999Z</time></trkpt><trkpt lat="48.62811608690647" lon="-2.324133576068519"><ele>19.0</ele><time>2026-04-05T08:15:39.999Z</time></trkpt><trkpt lat="48.62806382430972" lon="-2.32429288067849"><ele>20.25</ele><time>2026-04-05T08:15:41.999Z</time></trkpt><trkpt lat="48.6280191163574" lon="-2.3244663306430766"><ele>21.5</ele><time>2026-04-05T08:15:43.999Z</time></trkpt><trkpt lat="48.6279681880527" lon="-2.324634882089913"><ele>22.75</ele><time>2026-04-05T08:15:45.999Z</time></trkpt><trkpt lat="48.62792385561369" lon="-2.3247967303700094"><ele>24.0</ele><time>2026-04-05T08:15:47.999Z</time></trkpt><trkpt lat="48.6278731497417" lon="-2.3249618691630283"><ele>24.0</ele><time>2026-04-05T08:15:49.999Z</time></trkpt><trkpt lat="48.627830689588635" lon="-2.3251306881019236"><ele>24.0</ele><time>2026-04-05T08:15:51.999Z</time></trkpt><trkpt lat="48.62777668491577" lon="-2.325291612776534"><ele>24.0</ele><time>2026-04-05T08:15:53.999Z</time></trkpt><trkpt lat="48.62773613419039" lon="-2.3253886800059647"><ele>24.0</ele><time>2026-04-05T08:15:54.999Z</time></trkpt><trkpt lat="48.6276683618574" lon="-2.3255161741201262"><ele>24.0</ele><time>2026-04-05T08:15:56.999Z</time></trkpt><trkpt lat="48.62759428368253" lon="-2.3256401030454437"><ele>22.4</ele><time>2026-04-05T08:15:58.999Z</time></trkpt><trkpt lat="48.62750994910119" lon="-2.3257642699782064"><ele>20.799999999999997</ele><time>2026-04-05T08:16:00.999Z</time></trkpt><trkpt lat="48.62741641358659" lon="-2.325873165395298"><ele>19.200000000000003</ele><time>2026-04-05T08:16:03Z</time></trkpt><trkpt lat="48.6273253735188" lon="-2.3259956093234764"><ele>17.6</ele><time>2026-04-05T08:16:05Z</time></trkpt><trkpt lat="48.62728107973439" lon="-2.326064964151735"><ele>16.0</ele><time>2026-04-05T08:16:06Z</time></trkpt><trkpt lat="48.62723063131889" lon="-2.3262226952410407"><ele>16.0</ele><time>2026-04-05T08:16:08Z</time></trkpt><trkpt lat="48.62717795464023" lon="-2.3263773171451096"><ele>16.0</ele><time>2026-04-05T08:16:10Z</time></trkpt><trkpt lat="48.62711498110622" lon="-2.326527717472566"><ele>16.0</ele><time>2026-04-05T08:16:12Z</time></trkpt><trkpt lat="48.6270415129888" lon="-2.3266652701011177"><ele>16.0</ele><time>2026-04-05T08:16:14Z</time></trkpt><trkpt lat="48.62693042754606" lon="-2.3267542270851087"><ele>15.600000000000001</ele><time>2026-04-05T08:16:16Z</time></trkpt><trkpt lat="48.62686608818934" lon="-2.326769454841313"><ele>15.200000000000001</ele><time>2026-04-05T08:16:17Z</time></trkpt><trkpt lat="48.62679330383255" lon="-2.3267805431037876"><ele>14.799999999999999</ele><time>2026-04-05T08:16:18Z</time></trkpt><trkpt lat="48.62667350749987" lon="-2.326801095432961"><ele>14.399999999999999</ele><time>2026-04-05T08:16:20Z</time></trkpt><trkpt lat="48.626562432776936" lon="-2.326855465027478"><ele>14.0</ele><time>2026-04-05T08:16:22Z</time></trkpt><trkpt lat="48.626456768639464" lon="-2.3269420342144778"><ele>14.0</ele><time>2026-04-05T08:16:24Z</time></trkpt><trkpt lat="48.62639397645072" lon="-2.327090512063895"><ele>14.0</ele><time>2026-04-05T08:16:26Z</time></trkpt><trkpt lat="48.62634414398431" lon="-2.3272478388995284"><ele>14.0</ele><time>2026-04-05T08:16:28Z</time></trkpt><trkpt lat="48.62629664001311" lon="-2.3274030671191417"><ele>14.0</ele><time>2026-04-05T08:16:30Z</time></trkpt><trkpt lat="48.62624940676831" lon="-2.327557583374685"><ele>15.0</ele><time>2026-04-05T08:16:32Z</time></trkpt><trkpt lat="48.626200157247986" lon="-2.3277108538548847"><ele>15.999999999999998</ele><time>2026-04-05T08:16:34Z</time></trkpt><trkpt lat="48.62615239504074" lon="-2.327860417808872"><ele>17.0</ele><time>2026-04-05T08:16:36Z</time></trkpt><trkpt lat="48.62610836735282" lon="-2.3280108074725154"><ele>18.0</ele><time>2026-04-05T08:16:38Z</time></trkpt><trkpt lat="48.62603928311027" lon="-2.328140511666898"><ele>19.0</ele><time>2026-04-05T08:16:40Z</time></trkpt><trkpt lat="48.62596626533661" lon="-2.328261349141123"><ele>19.0</ele><time>2026-04-05T08:16:42Z</time></trkpt><trkpt lat="48.625879042891064" lon="-2.3283432380301354"><ele>19.0</ele><time>2026-04-05T08:16:45Z</time></trkpt><trkpt lat="48.62578925496296" lon="-2.3284522603957485"><ele>19.0</ele><time>2026-04-05T08:16:47Z</time></trkpt><trkpt lat="48.625731395111515" lon="-2.3284965979886314"><ele>19.0</ele><time>2026-04-05T08:16:49Z</time></trkpt><trkpt lat="48.62566092791531" lon="-2.3285941968404087"><ele>19.0</ele><time>2026-04-05T08:16:50Z</time></trkpt><trkpt lat="48.62557406870057" lon="-2.328732855869252"><ele>19.0</ele><time>2026-04-05T08:16:52Z</time></trkpt><trkpt lat="48.625524010613965" lon="-2.328815001612429"><ele>19.0</ele><time>2026-04-05T08:16:53Z</time></trkpt><trkpt lat="48.62545454710645" lon="-2.3289454574420114"><ele>19.0</ele><time>2026-04-05T08:16:55Z</time></trkpt><trkpt lat="48.62539151678694" lon="-2.3290923069026035"><ele>19.0</ele><time>2026-04-05T08:16:57Z</time></trkpt><trkpt lat="48.62533926517761" lon="-2.329224792189396"><ele>19.0</ele><time>2026-04-05T08:16:59Z</time></trkpt><trkpt lat="48.62526222626001" lon="-2.3293464996659794"><ele>20.0</ele><time>2026-04-05T08:17:01Z</time></trkpt><trkpt lat="48.62515801137797" lon="-2.3294504228863495"><ele>21.0</ele><time>2026-04-05T08:17:03Z</time></trkpt><trkpt lat="48.62508290220818" lon="-2.32959308658999"><ele>22.0</ele><time>2026-04-05T08:17:05Z</time></trkpt><trkpt lat="48.625002805263506" lon="-2.329714639177123"><ele>23.0</ele><time>2026-04-05T08:17:07Z</time></trkpt><trkpt lat="48.624915682699594" lon="-2.329832503172972"><ele>23.0</ele><time>2026-04-05T08:17:09Z</time></trkpt><trkpt lat="48.62488236030419" lon="-2.3299136004599963"><ele>23.0</ele><time>2026-04-05T08:17:10Z</time></trkpt><trkpt lat="48.624800788239945" lon="-2.33001257167021"><ele>23.0</ele><time>2026-04-05T08:17:12Z</time></trkpt><trkpt lat="48.62472007049668" lon="-2.3301249689616035"><ele>23.0</ele><time>2026-04-05T08:17:14Z</time></trkpt><trkpt lat="48.624647676776675" lon="-2.3302623816778634"><ele>23.0</ele><time>2026-04-05T08:17:16Z</time></trkpt><trkpt lat="48.6245821059637" lon="-2.330369948853135"><ele>23.0</ele><time>2026-04-05T08:17:18Z</time></trkpt><trkpt lat="48.62453525484892" lon="-2.330434792799897"><ele>23.0</ele><time>2026-04-05T08:17:18.999Z</time></trkpt><trkpt lat="48.624453986211364" lon="-2.3305582440909314"><ele>23.0</ele><time>2026-04-05T08:17:20.999Z</time></trkpt><trkpt lat="48.6243741717586" lon="-2.3306748197431237"><ele>23.0</ele><time>2026-04-05T08:17:22.999Z</time></trkpt><trkpt lat="48.62428963337635" lon="-2.3307943878610877"><ele>23.0</ele><time>2026-04-05T08:17:24.999Z</time></trkpt><trkpt lat="48.62421281296957" lon="-2.330929012592533"><ele>21.25</ele><time>2026-04-05T08:17:26.999Z</time></trkpt><trkpt lat="48.6241344228811" lon="-2.3310678575865675"><ele>19.5</ele><time>2026-04-05T08:17:28.999Z</time></trkpt><trkpt lat="48.62406063530994" lon="-2.3312074552753614"><ele>17.75</ele><time>2026-04-05T08:17:30.999Z</time></trkpt><trkpt lat="48.6239898492481" lon="-2.331349057863073"><ele>16.0</ele><time>2026-04-05T08:17:32.999Z</time></trkpt><trkpt lat="48.623916543013145" lon="-2.331487281757949"><ele>20.0</ele><time>2026-04-05T08:17:34.999Z</time></trkpt><trkpt lat="48.62385475998177" lon="-2.331634214160925"><ele>24.0</ele><time>2026-04-05T08:17:36.999Z</time></trkpt><trkpt lat="48.62379126286298" lon="-2.3317752702359322"><ele>28.0</ele><time>2026-04-05T08:17:38.999Z</time></trkpt><trkpt lat="48.62373444418777" lon="-2.331931171620876"><ele>32.0</ele><time>2026-04-05T08:17:40.999Z</time></trkpt><trkpt lat="48.62367743894175" lon="-2.332077956387109"><ele>27.5</ele><time>2026-04-05T08:17:42.999Z</time></trkpt><trkpt lat="48.623623398180825" lon="-2.3322315467780195"><ele>23.0</ele><time>2026-04-05T08:17:44.999Z</time></trkpt><trkpt lat="48.62355747556988" lon="-2.332379226061115"><ele>18.5</ele><time>2026-04-05T08:17:46.999Z</time></trkpt><trkpt lat="48.62350047613146" lon="-2.3325321841295557"><ele>14.0</ele><time>2026-04-05T08:17:48.999Z</time></trkpt><trkpt lat="48.623441600892775" lon="-2.3326814368722135"><ele>14.0</ele><time>2026-04-05T08:17:50.999Z</time></trkpt><trkpt lat="48.62338050074915" lon="-2.3328285232409725"><ele>13.999999999999998</ele><time>2026-04-05T08:17:52.999Z</time></trkpt><trkpt lat="48.623322732376714" lon="-2.3329807036104966"><ele>13.999999999999998</ele><time>2026-04-05T08:17:54.999Z</time></trkpt><trkpt lat="48.623266263863584" lon="-2.333111661345438"><ele>14.0</ele><time>2026-04-05T08:17:56.999Z</time></trkpt><trkpt lat="48.623209998466535" lon="-2.333256124442335"><ele>14.0</ele><time>2026-04-05T08:17:58.999Z</time></trkpt><trkpt lat="48.62315065320255" lon="-2.33341138011782"><ele>16.0</ele><time>2026-04-05T08:18:00.999Z</time></trkpt><trkpt lat="48.623090546538506" lon="-2.3335477287515127"><ele>18.0</ele><time>2026-04-05T08:18:02.999Z</time></trkpt><trkpt lat="48.623022046432204" lon="-2.3336959961587977"><ele>20.0</ele><time>2026-04-05T08:18:04.999Z</time></trkpt><trkpt lat="48.62295957039688" lon="-2.3338348018200707"><ele>22.0</ele><time>2026-04-05T08:18:06.999Z</time></trkpt><trkpt lat="48.62290144627523" lon="-2.3339766114217144"><ele>24.0</ele><time>2026-04-05T08:18:09Z</time></trkpt><trkpt lat="48.62282353224905" lon="-2.3341099262787868"><ele>21.5</ele><time>2026-04-05T08:18:11Z</time></trkpt><trkpt lat="48.62273667709006" lon="-2.334229571946246"><ele>19.0</ele><time>2026-04-05T08:18:13Z</time></trkpt><trkpt lat="48.622647354819186" lon="-2.334359248923122"><ele>16.5</ele><time>2026-04-05T08:18:15Z</time></trkpt><trkpt lat="48.62254565875458" lon="-2.3344415673665857"><ele>14.0</ele><time>2026-04-05T08:18:17Z</time></trkpt><trkpt lat="48.622462691428694" lon="-2.3345215633134107"><ele>14.0</ele><time>2026-04-05T08:18:19Z</time></trkpt><trkpt lat="48.622399736964695" lon="-2.334551957198068"><ele>13.999999999999998</ele><time>2026-04-05T08:18:20Z</time></trkpt><trkpt lat="48.62234484036034" lon="-2.334602283289277"><ele>13.999999999999998</ele><time>2026-04-05T08:18:21Z</time></trkpt><trkpt lat="48.622231342776345" lon="-2.334643154880036"><ele>14.0</ele><time>2026-04-05T08:18:23Z</time></trkpt><trkpt lat="48.622117616607916" lon="-2.3346585469305503"><ele>14.0</ele><time>2026-04-05T08:18:25Z</time></trkpt><trkpt lat="48.62199956932711" lon="-2.3346721936339887"><ele>13.333333333333334</ele><time>2026-04-05T08:18:27Z</time></trkpt><trkpt lat="48.621897298875645" lon="-2.3347143854409236"><ele>12.666666666666668</ele><time>2026-04-05T08:18:29Z</time></trkpt><trkpt lat="48.621795373406805" lon="-2.3347805295024604"><ele>12.0</ele><time>2026-04-05T08:18:31Z</time></trkpt><trkpt lat="48.62173105027822" lon="-2.334891679327955"><ele>11.333333333333334</ele><time>2026-04-05T08:18:33Z</time></trkpt><trkpt lat="48.62168117056524" lon="-2.334950591237061"><ele>10.666666666666668</ele><time>2026-04-05T08:18:34Z</time></trkpt><trkpt lat="48.62164410019472" lon="-2.335033974051824"><ele>10.0</ele><time>2026-04-05T08:18:35Z</time></trkpt><trkpt lat="48.62156439346391" lon="-2.3351727266729556"><ele>10.0</ele><time>2026-04-05T08:18:37Z</time></trkpt><trkpt lat="48.62148717278556" lon="-2.3353173333304516"><ele>10.0</ele><time>2026-04-05T08:18:39Z</time></trkpt><trkpt lat="48.62144126379947" lon="-2.3353845416789425"><ele>10.0</ele><time>2026-04-05T08:18:40Z</time></trkpt><trkpt lat="48.62136621968932" lon="-2.3355208286630864"><ele>10.0</ele><time>2026-04-05T08:18:42Z</time></trkpt><trkpt lat="48.621295491817136" lon="-2.3356657872928683"><ele>10.0</ele><time>2026-04-05T08:18:44Z</time></trkpt><trkpt lat="48.62124802919011" lon="-2.3358253964322793"><ele>10.4</ele><time>2026-04-05T08:18:46Z</time></trkpt><trkpt lat="48.62121880452296" lon="-2.335979211785437"><ele>10.8</ele><time>2026-04-05T08:18:48Z</time></trkpt><trkpt lat="48.621186317247044" lon="-2.336141579417792"><ele>11.2</ele><time>2026-04-05T08:18:50Z</time></trkpt><trkpt lat="48.62116158024998" lon="-2.3362987455996462"><ele>11.6</ele><time>2026-04-05T08:18:52Z</time></trkpt><trkpt lat="48.621119313871446" lon="-2.33645819129634"><ele>12.0</ele><time>2026-04-05T08:18:54Z</time></trkpt><trkpt lat="48.621073308470706" lon="-2.3366079404227196"><ele>12.0</ele><time>2026-04-05T08:18:56Z</time></trkpt><trkpt lat="48.621010576216534" lon="-2.336758484754215"><ele>12.0</ele><time>2026-04-05T08:18:58Z</time></trkpt><trkpt lat="48.62093783659244" lon="-2.336871063187103"><ele>12.0</ele><time>2026-04-05T08:19:00Z</time></trkpt><trkpt lat="48.62087637830668" lon="-2.336994612560349"><ele>12.0</ele><time>2026-04-05T08:19:02Z</time></trkpt><trkpt lat="48.6208185779822" lon="-2.337133070128834"><ele>12.0</ele><time>2026-04-05T08:19:04Z</time></trkpt><trkpt lat="48.620728630654156" lon="-2.337349428013165"><ele>13.6</ele><time>2026-04-05T08:19:07Z</time></trkpt><trkpt lat="48.620687736148284" lon="-2.337498554639924"><ele>15.2</ele><time>2026-04-05T08:19:09Z</time></trkpt><trkpt lat="48.62062633664348" lon="-2.3376258707205886"><ele>16.8</ele><time>2026-04-05T08:19:11Z</time></trkpt><trkpt lat="48.62057448098211" lon="-2.3377397035967884"><ele>18.4</ele><time>2026-04-05T08:19:13Z</time></trkpt><trkpt lat="48.62052013683838" lon="-2.3378568878616535"><ele>20.0</ele><time>2026-04-05T08:19:15Z</time></trkpt><trkpt lat="48.620457872477004" lon="-2.3379636468709974"><ele>20.5</ele><time>2026-04-05T08:19:17Z</time></trkpt><trkpt lat="48.62041268958825" lon="-2.33806864914068"><ele>21.0</ele><time>2026-04-05T08:19:19Z</time></trkpt><trkpt lat="48.62036433769189" lon="-2.3381680807045777"><ele>21.5</ele><time>2026-04-05T08:19:21Z</time></trkpt><trkpt lat="48.62032101142608" lon="-2.3382646494131087"><ele>22.0</ele><time>2026-04-05T08:19:23Z</time></trkpt><trkpt lat="48.62025944720522" lon="-2.3383276978446883"><ele>22.5</ele><time>2026-04-05T08:19:27Z</time></trkpt><trkpt lat="48.62019602300509" lon="-2.3383070287400964"><ele>23.0</ele><time>2026-04-05T08:19:28.999Z</time></trkpt><trkpt lat="48.62010943254596" lon="-2.3382061551498667"><ele>19.5</ele><time>2026-04-05T08:19:30.999Z</time></trkpt><trkpt lat="48.620025185301664" lon="-2.3381048292497835"><ele>16.0</ele><time>2026-04-05T08:19:32.999Z</time></trkpt><trkpt lat="48.61989078071453" lon="-2.3379757437658064"><ele>12.5</ele><time>2026-04-05T08:19:35.999Z</time></trkpt><trkpt lat="48.61981426824054" lon="-2.337877026181376"><ele>9.0</ele><time>2026-04-05T08:19:37.999Z</time></trkpt><trkpt lat="48.619739936188935" lon="-2.3377806036617685"><ele>8.6</ele><time>2026-04-05T08:19:39.999Z</time></trkpt><trkpt lat="48.619668216615125" lon="-2.3376872762413883"><ele>8.2</ele><time>2026-04-05T08:19:41.999Z</time></trkpt><trkpt lat="48.61960331690777" lon="-2.337581015785106"><ele>7.799999999999999</ele><time>2026-04-05T08:19:43.999Z</time></trkpt><trkpt lat="48.619533621646895" lon="-2.3374833881477555"><ele>7.3999999999999995</ele><time>2026-04-05T08:19:45.999Z</time></trkpt><trkpt lat="48.619456950099476" lon="-2.3373898939348714"><ele>7.0</ele><time>2026-04-05T08:19:47.999Z</time></trkpt><trkpt lat="48.61938016380312" lon="-2.337292696715231"><ele>7.000000000000001</ele><time>2026-04-05T08:19:49.999Z</time></trkpt><trkpt lat="48.61930872930849" lon="-2.3373181952117483"><ele>7.0</ele><time>2026-04-05T08:19:53.999Z</time></trkpt><trkpt lat="48.61923142863451" lon="-2.337194997781807"><ele>7.0</ele><time>2026-04-05T08:19:56.999Z</time></trkpt><trkpt lat="48.61916445159536" lon="-2.337111760207326"><ele>7.0</ele><time>2026-04-05T08:19:58.999Z</time></trkpt><trkpt lat="48.61909081100614" lon="-2.3370261451976484"><ele>7.000000000000001</ele><time>2026-04-05T08:20:00.999Z</time></trkpt><trkpt lat="48.619030260739315" lon="-2.336958588410577"><ele>7.0</ele><time>2026-04-05T08:20:02.999Z</time></trkpt><trkpt lat="48.618943459566495" lon="-2.336931403598857"><ele>7.000000000000001</ele><time>2026-04-05T08:20:04.999Z</time></trkpt><trkpt lat="48.61886050486526" lon="-2.3368949037471642"><ele>7.0</ele><time>2026-04-05T08:20:06.999Z</time></trkpt><trkpt lat="48.618791665835325" lon="-2.336841860037813"><ele>7.0</ele><time>2026-04-05T08:20:08.999Z</time></trkpt><trkpt lat="48.61872446790241" lon="-2.3368097018247846"><ele>7.0</ele><time>2026-04-05T08:20:10.999Z</time></trkpt><trkpt lat="48.6186473344413" lon="-2.3367547066338723"><ele>7.000000000000001</ele><time>2026-04-05T08:20:12.999Z</time></trkpt><trkpt lat="48.61858083183469" lon="-2.336684653127641"><ele>7.0</ele><time>2026-04-05T08:20:15Z</time></trkpt><trkpt lat="48.618504531070464" lon="-2.336632699787099"><ele>7.0</ele><time>2026-04-05T08:20:17Z</time></trkpt><trkpt lat="48.618411320667875" lon="-2.336617169428186"><ele>6.999999999999999</ele><time>2026-04-05T08:20:19Z</time></trkpt><trkpt lat="48.61832253149151" lon="-2.3366589599038097"><ele>6.999999999999999</ele><time>2026-04-05T08:20:21Z</time></trkpt><trkpt lat="48.61825307276451" lon="-2.3368156194524023"><ele>7.0</ele><time>2026-04-05T08:20:23Z</time></trkpt><trkpt lat="48.61819915294615" lon="-2.3369847613965034"><ele>7.0</ele><time>2026-04-05T08:20:25Z</time></trkpt><trkpt lat="48.618140095057434" lon="-2.3371417649760278"><ele>7.000000000000001</ele><time>2026-04-05T08:20:27Z</time></trkpt><trkpt lat="48.618076452182834" lon="-2.3372596852119023"><ele>7.0</ele><time>2026-04-05T08:20:29Z</time></trkpt><trkpt lat="48.61799003494468" lon="-2.337231520989122"><ele>7.0</ele><time>2026-04-05T08:20:31Z</time></trkpt><trkpt lat="48.61794997605785" lon="-2.3371250026942345"><ele>7.0</ele><time>2026-04-05T08:20:33Z</time></trkpt><trkpt lat="48.61789495353797" lon="-2.3370451167115314"><ele>7.000000000000001</ele><time>2026-04-05T08:20:35Z</time></trkpt><trkpt lat="48.61783149437408" lon="-2.3369790492126152"><ele>7.0</ele><time>2026-04-05T08:20:37Z</time></trkpt><trkpt lat="48.617771589900585" lon="-2.336907488084075"><ele>7.666666666666667</ele><time>2026-04-05T08:20:39Z</time></trkpt><trkpt lat="48.61772312663897" lon="-2.3368426072408934"><ele>8.333333333333334</ele><time>2026-04-05T08:20:41Z</time></trkpt><trkpt lat="48.61764519767662" lon="-2.3368458013073417"><ele>9.0</ele><time>2026-04-05T08:20:44Z</time></trkpt><trkpt lat="48.61758976241231" lon="-2.336910421641087"><ele>9.666666666666666</ele><time>2026-04-05T08:20:46Z</time></trkpt><trkpt lat="48.61751717508135" lon="-2.3369665788396103"><ele>10.333333333333332</ele><time>2026-04-05T08:20:48Z</time></trkpt><trkpt lat="48.6174495073051" lon="-2.3370304891988534"><ele>11.0</ele><time>2026-04-05T08:20:50Z</time></trkpt><trkpt lat="48.617376460608334" lon="-2.3370957946455335"><ele>11.0</ele><time>2026-04-05T08:20:52Z</time></trkpt><trkpt lat="48.617299605416186" lon="-2.3371512534271943"><ele>11.0</ele><time>2026-04-05T08:20:54Z</time></trkpt><trkpt lat="48.617223006378175" lon="-2.337214026656527"><ele>11.0</ele><time>2026-04-05T08:20:56Z</time></trkpt><trkpt lat="48.617162485043984" lon="-2.3372595086410435"><ele>11.0</ele><time>2026-04-05T08:20:58Z</time></trkpt><trkpt lat="48.61709413062082" lon="-2.3373321633851254"><ele>11.0</ele><time>2026-04-05T08:21:00Z</time></trkpt><trkpt lat="48.617014883437484" lon="-2.337393776374199"><ele>11.0</ele><time>2026-04-05T08:21:02Z</time></trkpt><trkpt lat="48.61694213122337" lon="-2.337457893377585"><ele>11.666666666666666</ele><time>2026-04-05T08:21:04Z</time></trkpt><trkpt lat="48.61688096982726" lon="-2.33751984027602"><ele>12.333333333333332</ele><time>2026-04-05T08:21:07Z</time></trkpt><trkpt lat="48.616813686984806" lon="-2.337576763171359"><ele>13.0</ele><time>2026-04-05T08:21:08Z</time></trkpt><trkpt lat="48.61674903586333" lon="-2.3376375381344525"><ele>13.666666666666666</ele><time>2026-04-05T08:21:11Z</time></trkpt><trkpt lat="48.61667672921442" lon="-2.3377007938536196"><ele>14.333333333333334</ele><time>2026-04-05T08:21:12Z</time></trkpt><trkpt lat="48.61660138491206" lon="-2.3377639886974815"><ele>15.0</ele><time>2026-04-05T08:21:15Z</time></trkpt><trkpt lat="48.61651867331077" lon="-2.337836048849182"><ele>15.0</ele><time>2026-04-05T08:21:17Z</time></trkpt><trkpt lat="48.61644750088498" lon="-2.3379054494609823"><ele>15.0</ele><time>2026-04-05T08:21:19Z</time></trkpt><trkpt lat="48.6163795056844" lon="-2.3379724127720594"><ele>15.0</ele><time>2026-04-05T08:21:21Z</time></trkpt><trkpt lat="48.6163147103629" lon="-2.3380145374013916"><ele>15.0</ele><time>2026-04-05T08:21:24Z</time></trkpt><trkpt lat="48.61613007585672" lon="-2.3381627855745193"><ele>15.0</ele><time>2026-04-05T08:21:25Z</time></trkpt><trkpt lat="48.61605533298837" lon="-2.338234851050419"><ele>16.0</ele><time>2026-04-05T08:21:27Z</time></trkpt><trkpt lat="48.61598391096394" lon="-2.3383032853292174"><ele>17.0</ele><time>2026-04-05T08:21:29Z</time></trkpt><trkpt lat="48.615911526860394" lon="-2.338355475899484"><ele>18.0</ele><time>2026-04-05T08:21:31Z</time></trkpt><trkpt lat="48.615840998305174" lon="-2.338423942264391"><ele>19.0</ele><time>2026-04-05T08:21:33Z</time></trkpt><trkpt lat="48.61576641420726" lon="-2.338481265194852"><ele>20.0</ele><time>2026-04-05T08:21:34.999Z</time></trkpt><trkpt lat="48.61569172437041" lon="-2.338552565777609"><ele>21.0</ele><time>2026-04-05T08:21:36.999Z</time></trkpt><trkpt lat="48.61562376551747" lon="-2.338616568458446"><ele>21.0</ele><time>2026-04-05T08:21:38.999Z</time></trkpt><trkpt lat="48.61554996093573" lon="-2.3386818036026282"><ele>21.0</ele><time>2026-04-05T08:21:40.999Z</time></trkpt><trkpt lat="48.615505880140766" lon="-2.3387571624220964"><ele>21.0</ele><time>2026-04-05T08:21:42.999Z</time></trkpt><trkpt lat="48.61542833520831" lon="-2.3388199881341243"><ele>21.0</ele><time>2026-04-05T08:21:46.999Z</time></trkpt><trkpt lat="48.615355185729165" lon="-2.338902050142559"><ele>21.0</ele><time>2026-04-05T08:21:49.999Z</time></trkpt><trkpt lat="48.61529628211198" lon="-2.3389813870271166"><ele>21.0</ele><time>2026-04-05T08:21:52.999Z</time></trkpt><trkpt lat="48.61521496575874" lon="-2.339024919762324"><ele>21.166666666666668</ele><time>2026-04-05T08:21:54.999Z</time></trkpt><trkpt lat="48.61514371099671" lon="-2.33911302692971"><ele>21.333333333333332</ele><time>2026-04-05T08:21:57.999Z</time></trkpt><trkpt lat="48.61507942890626" lon="-2.3391919844019537"><ele>21.5</ele><time>2026-04-05T08:22:00.999Z</time></trkpt><trkpt lat="48.61502737347007" lon="-2.339253146005341"><ele>21.666666666666664</ele><time>2026-04-05T08:22:02.999Z</time></trkpt><trkpt lat="48.614958861009704" lon="-2.3393251382681917"><ele>21.833333333333332</ele><time>2026-04-05T08:22:05.999Z</time></trkpt><trkpt lat="48.614891216214545" lon="-2.3393743866734615"><ele>22.0</ele><time>2026-04-05T08:22:07.999Z</time></trkpt><trkpt lat="48.61483758603765" lon="-2.3394285846939686"><ele>22.0</ele><time>2026-04-05T08:22:09.999Z</time></trkpt><trkpt lat="48.61476787382526" lon="-2.3394766996974505"><ele>22.0</ele><time>2026-04-05T08:22:11.999Z</time></trkpt><trkpt lat="48.61469296849007" lon="-2.339548799246667"><ele>22.0</ele><time>2026-04-05T08:22:13.999Z</time></trkpt><trkpt lat="48.614604191604926" lon="-2.3396427004836253"><ele>22.0</ele><time>2026-04-05T08:22:16.999Z</time></trkpt><trkpt lat="48.61454868084797" lon="-2.3397062036437557"><ele>22.0</ele><time>2026-04-05T08:22:19.999Z</time></trkpt><trkpt lat="48.6144614939758" lon="-2.3397546931172677"><ele>22.0</ele><time>2026-04-05T08:22:22Z</time></trkpt><trkpt lat="48.614401941208655" lon="-2.339817333169061"><ele>22.0</ele><time>2026-04-05T08:22:24Z</time></trkpt><trkpt lat="48.61434821585819" lon="-2.3398708634948173"><ele>22.0</ele><time>2026-04-05T08:22:26Z</time></trkpt><trkpt lat="48.614227544365875" lon="-2.3399980405384992"><ele>22.0</ele><time>2026-04-05T08:22:29Z</time></trkpt><trkpt lat="48.61413194732137" lon="-2.3400566188086867"><ele>22.0</ele><time>2026-04-05T08:22:32Z</time></trkpt><trkpt lat="48.61406256299362" lon="-2.3401278316262033"><ele>22.0</ele><time>2026-04-05T08:22:33Z</time></trkpt><trkpt lat="48.61400307156618" lon="-2.340179769283011"><ele>22.0</ele><time>2026-04-05T08:22:35Z</time></trkpt><trkpt lat="48.613927318760524" lon="-2.340234144713244"><ele>22.0</ele><time>2026-04-05T08:22:38Z</time></trkpt><trkpt lat="48.61385980996844" lon="-2.3402888167042666"><ele>22.0</ele><time>2026-04-05T08:22:40Z</time></trkpt><trkpt lat="48.61377567024282" lon="-2.34036198546277"><ele>22.0</ele><time>2026-04-05T08:22:42Z</time></trkpt><trkpt lat="48.61371705874667" lon="-2.340415033170774"><ele>22.0</ele><time>2026-04-05T08:22:44Z</time></trkpt><trkpt lat="48.61362958376495" lon="-2.340455807933892"><ele>22.0</ele><time>2026-04-05T08:22:47Z</time></trkpt><trkpt lat="48.613558874351966" lon="-2.3405132061371683"><ele>22.166666666666664</ele><time>2026-04-05T08:22:49Z</time></trkpt><trkpt lat="48.61348860306991" lon="-2.3405651843506656"><ele>22.333333333333332</ele><time>2026-04-05T08:22:51Z</time></trkpt><trkpt lat="48.61341879975273" lon="-2.340633112833408"><ele>22.5</ele><time>2026-04-05T08:22:53Z</time></trkpt><trkpt lat="48.61335215645034" lon="-2.3406870090560536"><ele>22.666666666666668</ele><time>2026-04-05T08:22:55Z</time></trkpt><trkpt lat="48.61328612272453" lon="-2.3407482997331144"><ele>22.833333333333336</ele><time>2026-04-05T08:22:57Z</time></trkpt><trkpt lat="48.613223460438654" lon="-2.3408055717389193"><ele>23.0</ele><time>2026-04-05T08:22:59Z</time></trkpt><trkpt lat="48.613154757460194" lon="-2.3408734347869125"><ele>23.0</ele><time>2026-04-05T08:23:01Z</time></trkpt><trkpt lat="48.61307394212488" lon="-2.3409489353785666"><ele>23.0</ele><time>2026-04-05T08:23:03Z</time></trkpt><trkpt lat="48.61297384782613" lon="-2.3410490113140674"><ele>23.0</ele><time>2026-04-05T08:23:05Z</time></trkpt><trkpt lat="48.6129073049172" lon="-2.341108957223656"><ele>23.0</ele><time>2026-04-05T08:23:06Z</time></trkpt><trkpt lat="48.61282803398558" lon="-2.3411818645116913"><ele>23.0</ele><time>2026-04-05T08:23:08Z</time></trkpt><trkpt lat="48.6127374619654" lon="-2.341261708425286"><ele>24.25</ele><time>2026-04-05T08:23:10Z</time></trkpt><trkpt lat="48.61264062232439" lon="-2.341353505540901"><ele>25.5</ele><time>2026-04-05T08:23:12Z</time></trkpt><trkpt lat="48.61254466967963" lon="-2.341444656934274"><ele>26.75</ele><time>2026-04-05T08:23:14Z</time></trkpt><trkpt lat="48.6124433677315" lon="-2.341535885552411"><ele>28.0</ele><time>2026-04-05T08:23:16Z</time></trkpt><trkpt lat="48.612347597612725" lon="-2.3416291557040485"><ele>28.000000000000004</ele><time>2026-04-05T08:23:18Z</time></trkpt><trkpt lat="48.61224609681748" lon="-2.341714105424253"><ele>28.0</ele><time>2026-04-05T08:23:20Z</time></trkpt><trkpt lat="48.612150134361194" lon="-2.3418070699336915"><ele>28.0</ele><time>2026-04-05T08:23:22Z</time></trkpt><trkpt lat="48.61208425637207" lon="-2.341850164201248"><ele>28.0</ele><time>2026-04-05T08:23:23Z</time></trkpt><trkpt lat="48.612025607918156" lon="-2.3418990461602327"><ele>28.000000000000004</ele><time>2026-04-05T08:23:24Z</time></trkpt><trkpt lat="48.61196407409902" lon="-2.3419474090086254"><ele>28.0</ele><time>2026-04-05T08:23:25Z</time></trkpt><trkpt lat="48.61189364667507" lon="-2.3419954336611744"><ele>29.25</ele><time>2026-04-05T08:23:26Z</time></trkpt><trkpt lat="48.61182509866643" lon="-2.3420444848066846"><ele>30.5</ele><time>2026-04-05T08:23:28Z</time></trkpt><trkpt lat="48.6117686827675" lon="-2.3421041710619765"><ele>31.75</ele><time>2026-04-05T08:23:30Z</time></trkpt><trkpt lat="48.61169759478316" lon="-2.342170354669493"><ele>33.0</ele><time>2026-04-05T08:23:32Z</time></trkpt><trkpt lat="48.61147942595533" lon="-2.342335202414556"><ele>33.0</ele><time>2026-04-05T08:23:34Z</time></trkpt><trkpt lat="48.61140787294141" lon="-2.342394922488689"><ele>33.0</ele><time>2026-04-05T08:23:36Z</time></trkpt><trkpt lat="48.6113408682679" lon="-2.3424575502579046"><ele>33.0</ele><time>2026-04-05T08:23:38Z</time></trkpt><trkpt lat="48.61127353827444" lon="-2.3425167662819946"><ele>33.0</ele><time>2026-04-05T08:23:39.999Z</time></trkpt><trkpt lat="48.61119556143665" lon="-2.342573685682529"><ele>33.0</ele><time>2026-04-05T08:23:41.999Z</time></trkpt><trkpt lat="48.61112159878219" lon="-2.3426345185666126"><ele>33.0</ele><time>2026-04-05T08:23:43.999Z</time></trkpt><trkpt lat="48.61105089550655" lon="-2.3427009556872314"><ele>33.666666666666664</ele><time>2026-04-05T08:23:45.999Z</time></trkpt><trkpt lat="48.6109852234256" lon="-2.342774855245434"><ele>34.333333333333336</ele><time>2026-04-05T08:23:48.999Z</time></trkpt><trkpt lat="48.610921563491054" lon="-2.3428435204532616"><ele>35.0</ele><time>2026-04-05T08:23:51.999Z</time></trkpt><trkpt lat="48.610859984017665" lon="-2.3429029690258334"><ele>35.66666666666667</ele><time>2026-04-05T08:23:53.999Z</time></trkpt><trkpt lat="48.61080048661762" lon="-2.342959095743336"><ele>36.333333333333336</ele><time>2026-04-05T08:23:55.999Z</time></trkpt><trkpt lat="48.61074683277731" lon="-2.343016257425061"><ele>37.0</ele><time>2026-04-05T08:23:57.999Z</time></trkpt><trkpt lat="48.61067392331268" lon="-2.343099012165677"><ele>37.0</ele><time>2026-04-05T08:24:00.999Z</time></trkpt><trkpt lat="48.61060503511772" lon="-2.3431644563067264"><ele>37.0</ele><time>2026-04-05T08:24:02.999Z</time></trkpt><trkpt lat="48.61054763739381" lon="-2.3432120983152194"><ele>37.0</ele><time>2026-04-05T08:24:03.999Z</time></trkpt><trkpt lat="48.610484620865854" lon="-2.3432767180841525"><ele>37.0</ele><time>2026-04-05T08:24:05.999Z</time></trkpt><trkpt lat="48.61042542686364" lon="-2.3433338873881353"><ele>37.0</ele><time>2026-04-05T08:24:07.999Z</time></trkpt><trkpt lat="48.61019804526006" lon="-2.3434801099253932"><ele>37.5</ele><time>2026-04-05T08:24:09.999Z</time></trkpt><trkpt lat="48.61012421263027" lon="-2.3435342027742805"><ele>38.0</ele><time>2026-04-05T08:24:11.999Z</time></trkpt><trkpt lat="48.610054522639494" lon="-2.3436019305966567"><ele>38.5</ele><time>2026-04-05T08:24:13.999Z</time></trkpt><trkpt lat="48.60998062107066" lon="-2.3436438494310354"><ele>39.0</ele><time>2026-04-05T08:24:15.999Z</time></trkpt><trkpt lat="48.60991414642412" lon="-2.3436663667930633"><ele>39.5</ele><time>2026-04-05T08:24:17.999Z</time></trkpt><trkpt lat="48.60984755041305" lon="-2.343584517260788"><ele>40.0</ele><time>2026-04-05T08:24:19.999Z</time></trkpt><trkpt lat="48.6098061077693" lon="-2.3434588987582363"><ele>40.0</ele><time>2026-04-05T08:24:21.999Z</time></trkpt><trkpt lat="48.609753849167554" lon="-2.3433357801604924"><ele>40.0</ele><time>2026-04-05T08:24:23.999Z</time></trkpt><trkpt lat="48.609704771552124" lon="-2.34321133685456"><ele>40.0</ele><time>2026-04-05T08:24:25.999Z</time></trkpt><trkpt lat="48.609658105146934" lon="-2.3430917975332703"><ele>40.0</ele><time>2026-04-05T08:24:28Z</time></trkpt><trkpt lat="48.609625017122504" lon="-2.342983722259191"><ele>40.0</ele><time>2026-04-05T08:24:30Z</time></trkpt><trkpt lat="48.60959123461062" lon="-2.3428876628420396"><ele>40.0</ele><time>2026-04-05T08:24:32Z</time></trkpt><trkpt lat="48.60955990633333" lon="-2.342765875916973"><ele>40.285714285714285</ele><time>2026-04-05T08:24:34Z</time></trkpt><trkpt lat="48.609527703489" lon="-2.342664275650652"><ele>40.57142857142857</ele><time>2026-04-05T08:24:36Z</time></trkpt><trkpt lat="48.609503754563114" lon="-2.342569691005339"><ele>40.85714285714286</ele><time>2026-04-05T08:24:38Z</time></trkpt><trkpt lat="48.609474155147005" lon="-2.342468873049677"><ele>41.14285714285714</ele><time>2026-04-05T08:24:40Z</time></trkpt><trkpt lat="48.609451613660674" lon="-2.342367569665196"><ele>41.42857142857143</ele><time>2026-04-05T08:24:42Z</time></trkpt><trkpt lat="48.60942291464857" lon="-2.3422666372974743"><ele>41.714285714285715</ele><time>2026-04-05T08:24:45Z</time></trkpt><trkpt lat="48.609397575701855" lon="-2.3421454957076495"><ele>42.0</ele><time>2026-04-05T08:24:48Z</time></trkpt><trkpt lat="48.60936072781156" lon="-2.3420084225801188"><ele>43.0</ele><time>2026-04-05T08:24:51Z</time></trkpt><trkpt lat="48.60932985538832" lon="-2.341887512977724"><ele>44.0</ele><time>2026-04-05T08:24:54Z</time></trkpt><trkpt lat="48.60929410995444" lon="-2.3417730938797248"><ele>45.0</ele><time>2026-04-05T08:24:57Z</time></trkpt><trkpt lat="48.60927100493443" lon="-2.3416664912120524"><ele>46.0</ele><time>2026-04-05T08:24:59Z</time></trkpt><trkpt lat="48.609244552859714" lon="-2.3415780105128357"><ele>47.0</ele><time>2026-04-05T08:25:01Z</time></trkpt><trkpt lat="48.60922149527878" lon="-2.3414673428242865"><ele>48.0</ele><time>2026-04-05T08:25:03Z</time></trkpt><trkpt lat="48.60918443628527" lon="-2.3413400145777143"><ele>48.2</ele><time>2026-04-05T08:25:05Z</time></trkpt><trkpt lat="48.60915027577104" lon="-2.3411665581378904"><ele>48.4</ele><time>2026-04-05T08:25:07Z</time></trkpt><trkpt lat="48.609109043128775" lon="-2.3410369953840364"><ele>48.6</ele><time>2026-04-05T08:25:08Z</time></trkpt><trkpt lat="48.60909040322994" lon="-2.3409207469200117"><ele>48.800000000000004</ele><time>2026-04-05T08:25:10Z</time></trkpt><trkpt lat="48.609087178059156" lon="-2.3407940874485194"><ele>49.0</ele><time>2026-04-05T08:25:12Z</time></trkpt><trkpt lat="48.60908206643612" lon="-2.3406692589084326"><ele>48.99999999999999</ele><time>2026-04-05T08:25:14Z</time></trkpt><trkpt lat="48.609066615504304" lon="-2.340531300058645"><ele>49.0</ele><time>2026-04-05T08:25:16Z</time></trkpt><trkpt lat="48.60906015258697" lon="-2.3403910911368917"><ele>49.0</ele><time>2026-04-05T08:25:18Z</time></trkpt><trkpt lat="48.60904792538581" lon="-2.3402694483972555"><ele>49.0</ele><time>2026-04-05T08:25:20Z</time></trkpt><trkpt lat="48.609043952349865" lon="-2.3401521965280434"><ele>48.99999999999999</ele><time>2026-04-05T08:25:22Z</time></trkpt><trkpt lat="48.6090348369865" lon="-2.340028116829393"><ele>49.0</ele><time>2026-04-05T08:25:24Z</time></trkpt><trkpt lat="48.60902386293285" lon="-2.339903455619695"><ele>49.0</ele><time>2026-04-05T08:25:26Z</time></trkpt><trkpt lat="48.60901366612862" lon="-2.3397811495209524"><ele>49.0</ele><time>2026-04-05T08:25:28Z</time></trkpt><trkpt lat="48.60901148474367" lon="-2.339659115694063"><ele>49.0</ele><time>2026-04-05T08:25:30Z</time></trkpt><trkpt lat="48.609009949193904" lon="-2.3395174153427396"><ele>49.0</ele><time>2026-04-05T08:25:32Z</time></trkpt><trkpt lat="48.609010729417406" lon="-2.339360527327951"><ele>49.0</ele><time>2026-04-05T08:25:34Z</time></trkpt><trkpt lat="48.60901310600589" lon="-2.3391978044574464"><ele>48.5</ele><time>2026-04-05T08:25:36Z</time></trkpt><trkpt lat="48.6090080290376" lon="-2.339011213019351"><ele>48.0</ele><time>2026-04-05T08:25:38Z</time></trkpt><trkpt lat="48.60901438972518" lon="-2.338827340693031"><ele>47.5</ele><time>2026-04-05T08:25:40Z</time></trkpt><trkpt lat="48.60901275854148" lon="-2.3386478449080275"><ele>47.0</ele><time>2026-04-05T08:25:42Z</time></trkpt><trkpt lat="48.609007107342244" lon="-2.3384707547408725"><ele>46.6</ele><time>2026-04-05T08:25:43.999Z</time></trkpt><trkpt lat="48.60903044872054" lon="-2.3382920071655864"><ele>46.2</ele><time>2026-04-05T08:25:45.999Z</time></trkpt><trkpt lat="48.60905645614747" lon="-2.338129326442422"><ele>45.8</ele><time>2026-04-05T08:25:47.999Z</time></trkpt><trkpt lat="48.609059363760956" lon="-2.3379914101049"><ele>45.4</ele><time>2026-04-05T08:25:49.999Z</time></trkpt><trkpt lat="48.60905898957172" lon="-2.337854056365552"><ele>45.0</ele><time>2026-04-05T08:25:51.999Z</time></trkpt><trkpt lat="48.60907408041475" lon="-2.337741312165107"><ele>45.0</ele><time>2026-04-05T08:25:54.999Z</time></trkpt><trkpt lat="48.60913891145199" lon="-2.337714107337327"><ele>45.0</ele><time>2026-04-05T08:26:08.999Z</time></trkpt><trkpt lat="48.60922482935385" lon="-2.3377175650847053"><ele>45.0</ele><time>2026-04-05T08:26:11.999Z</time></trkpt><trkpt lat="48.609288837155304" lon="-2.337711855961941"><ele>45.0</ele><time>2026-04-05T08:26:13.999Z</time></trkpt><trkpt lat="48.60936820463552" lon="-2.3377278049304664"><ele>45.0</ele><time>2026-04-05T08:26:15.999Z</time></trkpt><trkpt lat="48.60944779885839" lon="-2.3377274663998766"><ele>45.0</ele><time>2026-04-05T08:26:17.999Z</time></trkpt><trkpt lat="48.609523287987294" lon="-2.337746460068289"><ele>45.0</ele><time>2026-04-05T08:26:19.999Z</time></trkpt><trkpt lat="48.60960503615321" lon="-2.3377516034328356"><ele>45.0</ele><time>2026-04-05T08:26:21.999Z</time></trkpt><trkpt lat="48.60968935903674" lon="-2.3377610645456524"><ele>45.0</ele><time>2026-04-05T08:26:23.999Z</time></trkpt><trkpt lat="48.60977639826895" lon="-2.3377657035771398"><ele>45.0</ele><time>2026-04-05T08:26:25.999Z</time></trkpt><trkpt lat="48.60985600691045" lon="-2.3377746304695943"><ele>45.0</ele><time>2026-04-05T08:26:27.999Z</time></trkpt><trkpt lat="48.609935809415795" lon="-2.337786955797439"><ele>45.0</ele><time>2026-04-05T08:26:29.999Z</time></trkpt><trkpt lat="48.61001866882303" lon="-2.3377885329742423"><ele>45.0</ele><time>2026-04-05T08:26:34Z</time></trkpt><trkpt lat="48.61008944238214" lon="-2.3377528048075495"><ele>45.0</ele><time>2026-04-05T08:26:37Z</time></trkpt><trkpt lat="48.61018265682563" lon="-2.3376970704820015"><ele>45.0</ele><time>2026-04-05T08:26:39Z</time></trkpt><trkpt lat="48.61024928147288" lon="-2.3376632384176865"><ele>45.0</ele><time>2026-04-05T08:26:40Z</time></trkpt><trkpt lat="48.61032054870753" lon="-2.337638362657404"><ele>45.0</ele><time>2026-04-05T08:26:42Z</time></trkpt><trkpt lat="48.61036557114803" lon="-2.337749320121261"><ele>45.0</ele><time>2026-04-05T08:26:46Z</time></trkpt><trkpt lat="48.610384281636605" lon="-2.337906369701313"><ele>45.14285714285714</ele><time>2026-04-05T08:26:48Z</time></trkpt><trkpt lat="48.610398622285885" lon="-2.3380260586050805"><ele>45.28571428571429</ele><time>2026-04-05T08:26:50Z</time></trkpt><trkpt lat="48.610436070405335" lon="-2.3381143780585516"><ele>45.42857142857143</ele><time>2026-04-05T08:26:52Z</time></trkpt><trkpt lat="48.61043058378586" lon="-2.338211363735826"><ele>45.57142857142857</ele><time>2026-04-05T08:26:55Z</time></trkpt><trkpt lat="48.61047297489803" lon="-2.338285013257407"><ele>45.71428571428571</ele><time>2026-04-05T08:27:17Z</time></trkpt><trkpt lat="48.610466235857274" lon="-2.3383811479341947"><ele>45.85714285714286</ele><time>2026-04-05T08:27:37Z</time></trkpt><trkpt lat="48.61046753667528" lon="-2.338285858752108"><ele>46.0</ele><time>2026-04-05T08:28:48Z</time></trkpt><trkpt lat="48.61041420338928" lon="-2.338233332353085"><ele>46.0</ele><time>2026-04-05T08:29:43Z</time></trkpt><trkpt lat="48.61035658086666" lon="-2.3381657901159376"><ele>46.0</ele><time>2026-04-05T08:29:46Z</time></trkpt><trkpt lat="48.61025945009951" lon="-2.3381750612249963"><ele>46.0</ele><time>2026-04-05T08:29:48.999Z</time></trkpt><trkpt lat="48.61018845699052" lon="-2.3381819212001784"><ele>46.0</ele><time>2026-04-05T08:29:50.999Z</time></trkpt><trkpt lat="48.61011815120756" lon="-2.338173769586222"><ele>46.0</ele><time>2026-04-05T08:29:52.999Z</time></trkpt><trkpt lat="48.61006378104638" lon="-2.338097526385305"><ele>46.0</ele><time>2026-04-05T08:29:54.999Z</time></trkpt><trkpt lat="48.61006940529569" lon="-2.337964775254322"><ele>45.8</ele><time>2026-04-05T08:29:56.999Z</time></trkpt><trkpt lat="48.61002267048719" lon="-2.3378688279194453"><ele>45.599999999999994</ele><time>2026-04-05T08:29:58.999Z</time></trkpt><trkpt lat="48.609937482825195" lon="-2.337827457060689"><ele>45.4</ele><time>2026-04-05T08:30:00.999Z</time></trkpt><trkpt lat="48.60983715120388" lon="-2.337832794854692"><ele>45.2</ele><time>2026-04-05T08:30:02.999Z</time></trkpt><trkpt lat="48.60973005448517" lon="-2.337825709689103"><ele>45.0</ele><time>2026-04-05T08:30:04.999Z</time></trkpt><trkpt lat="48.60961474860745" lon="-2.3378098714647715"><ele>45.0</ele><time>2026-04-05T08:30:06.999Z</time></trkpt><trkpt lat="48.60950434556007" lon="-2.3378000912004198"><ele>45.0</ele><time>2026-04-05T08:30:08.999Z</time></trkpt><trkpt lat="48.60938802269227" lon="-2.337781102936602"><ele>45.0</ele><time>2026-04-05T08:30:10.999Z</time></trkpt><trkpt lat="48.609280062247514" lon="-2.337767540816239"><ele>45.0</ele><time>2026-04-05T08:30:12.999Z</time></trkpt><trkpt lat="48.60916984142316" lon="-2.3377517419718585"><ele>45.0</ele><time>2026-04-05T08:30:14.999Z</time></trkpt><trkpt lat="48.60905355547176" lon="-2.3377436151987228"><ele>44.5</ele><time>2026-04-05T08:30:16.999Z</time></trkpt><trkpt lat="48.60893665053475" lon="-2.3377543232454885"><ele>44.0</ele><time>2026-04-05T08:30:18.999Z</time></trkpt><trkpt lat="48.60882392309412" lon="-2.337805778227573"><ele>43.5</ele><time>2026-04-05T08:30:20.999Z</time></trkpt><trkpt lat="48.60872502232763" lon="-2.3378980835651437"><ele>43.0</ele><time>2026-04-05T08:30:22.999Z</time></trkpt><trkpt lat="48.60862157985049" lon="-2.337964602109308"><ele>43.0</ele><time>2026-04-05T08:30:24.999Z</time></trkpt><trkpt lat="48.60851684642831" lon="-2.3380238991383226"><ele>43.0</ele><time>2026-04-05T08:30:26.999Z</time></trkpt><trkpt lat="48.608417143404495" lon="-2.3380781981275707"><ele>43.0</ele><time>2026-04-05T08:30:28.999Z</time></trkpt><trkpt lat="48.6083215407421" lon="-2.3381591607897816"><ele>43.0</ele><time>2026-04-05T08:30:30.999Z</time></trkpt><trkpt lat="48.60822852041189" lon="-2.3382405830156"><ele>43.0</ele><time>2026-04-05T08:30:32.999Z</time></trkpt><trkpt lat="48.60815136912363" lon="-2.338358520042032"><ele>43.0</ele><time>2026-04-05T08:30:34.999Z</time></trkpt><trkpt lat="48.60808400107752" lon="-2.3384828334205343"><ele>43.0</ele><time>2026-04-05T08:30:36.999Z</time></trkpt><trkpt lat="48.608011636804086" lon="-2.3385843687379877"><ele>43.0</ele><time>2026-04-05T08:30:38.999Z</time></trkpt><trkpt lat="48.60796408273097" lon="-2.3386865701561987"><ele>43.0</ele><time>2026-04-05T08:30:40.999Z</time></trkpt><trkpt lat="48.607822763119785" lon="-2.3386707894796332"><ele>43.0</ele><time>2026-04-05T08:30:43.999Z</time></trkpt><trkpt lat="48.607719177046505" lon="-2.3386408386045847"><ele>42.5</ele><time>2026-04-05T08:30:46Z</time></trkpt><trkpt lat="48.60760759700344" lon="-2.3385759705657962"><ele>42.0</ele><time>2026-04-05T08:30:48Z</time></trkpt><trkpt lat="48.60754620746643" lon="-2.3385414200759054"><ele>41.5</ele><time>2026-04-05T08:30:49Z</time></trkpt><trkpt lat="48.60748898715407" lon="-2.338483542133308"><ele>41.0</ele><time>2026-04-05T08:30:50Z</time></trkpt><trkpt lat="48.60741124098943" lon="-2.3384710844515584"><ele>40.5</ele><time>2026-04-05T08:30:51Z</time></trkpt><trkpt lat="48.60734139248301" lon="-2.338425884868034"><ele>40.0</ele><time>2026-04-05T08:30:52Z</time></trkpt><trkpt lat="48.60725961121731" lon="-2.338418280763786"><ele>40.0</ele><time>2026-04-05T08:30:53Z</time></trkpt><trkpt lat="48.607180424381056" lon="-2.338435838477219"><ele>40.0</ele><time>2026-04-05T08:30:54Z</time></trkpt><trkpt lat="48.60710252774301" lon="-2.3384676918591865"><ele>40.0</ele><time>2026-04-05T08:30:55Z</time></trkpt><trkpt lat="48.60703680739413" lon="-2.338510295953672"><ele>40.0</ele><time>2026-04-05T08:30:56Z</time></trkpt><trkpt lat="48.60696796543753" lon="-2.338553228803394"><ele>40.0</ele><time>2026-04-05T08:30:57Z</time></trkpt><trkpt lat="48.60690465211499" lon="-2.338597042664978"><ele>40.0</ele><time>2026-04-05T08:30:58Z</time></trkpt><trkpt lat="48.60683818734863" lon="-2.3386407430709077"><ele>40.0</ele><time>2026-04-05T08:30:59Z</time></trkpt><trkpt lat="48.60677310579946" lon="-2.3386773839861066"><ele>40.14285714285714</ele><time>2026-04-05T08:31:00Z</time></trkpt><trkpt lat="48.606708017185646" lon="-2.3387209146742935"><ele>40.285714285714285</ele><time>2026-04-05T08:31:01Z</time></trkpt><trkpt lat="48.606651833630764" lon="-2.3387761515394745"><ele>40.42857142857143</ele><time>2026-04-05T08:31:02Z</time></trkpt><trkpt lat="48.60658509770336" lon="-2.338821068531881"><ele>40.57142857142857</ele><time>2026-04-05T08:31:03Z</time></trkpt><trkpt lat="48.6065268402916" lon="-2.338860278985145"><ele>40.714285714285715</ele><time>2026-04-05T08:31:04Z</time></trkpt><trkpt lat="48.60645554453574" lon="-2.3388884677870396"><ele>40.857142857142854</ele><time>2026-04-05T08:31:05Z</time></trkpt><trkpt lat="48.60639104485727" lon="-2.338940337761594"><ele>41.0</ele><time>2026-04-05T08:31:06Z</time></trkpt><trkpt lat="48.60631998510934" lon="-2.3389815601658945"><ele>40.99999999999999</ele><time>2026-04-05T08:31:07Z</time></trkpt><trkpt lat="48.60625177719363" lon="-2.339013218525868"><ele>41.0</ele><time>2026-04-05T08:31:08Z</time></trkpt><trkpt lat="48.60618336960229" lon="-2.339050818369436"><ele>41.0</ele><time>2026-04-05T08:31:09Z</time></trkpt><trkpt lat="48.60611328210727" lon="-2.3390796331377994"><ele>41.0</ele><time>2026-04-05T08:31:10Z</time></trkpt><trkpt lat="48.60604440405339" lon="-2.3391138601442587"><ele>41.0</ele><time>2026-04-05T08:31:11Z</time></trkpt><trkpt lat="48.60597489427529" lon="-2.339150882989685"><ele>40.99999999999999</ele><time>2026-04-05T08:31:12Z</time></trkpt><trkpt lat="48.60590151995496" lon="-2.339185194838146"><ele>41.0</ele><time>2026-04-05T08:31:13Z</time></trkpt><trkpt lat="48.60582793302512" lon="-2.3392168352052853"><ele>39.99999999999999</ele><time>2026-04-05T08:31:14Z</time></trkpt><trkpt lat="48.60575891631306" lon="-2.3392522034779146"><ele>39.0</ele><time>2026-04-05T08:31:15Z</time></trkpt><trkpt lat="48.605689856818884" lon="-2.339289410253842"><ele>38.0</ele><time>2026-04-05T08:31:16Z</time></trkpt><trkpt lat="48.60561791924213" lon="-2.339324065784992"><ele>37.0</ele><time>2026-04-05T08:31:17Z</time></trkpt><trkpt lat="48.60554677734679" lon="-2.339361935811865"><ele>36.0</ele><time>2026-04-05T08:31:18Z</time></trkpt><trkpt lat="48.60547766381806" lon="-2.3393971574259123"><ele>34.99999999999999</ele><time>2026-04-05T08:31:19Z</time></trkpt><trkpt lat="48.60540645851271" lon="-2.339431794259574"><ele>34.0</ele><time>2026-04-05T08:31:20Z</time></trkpt><trkpt lat="48.6053334711172" lon="-2.3394621779219236"><ele>33.42857142857142</ele><time>2026-04-05T08:31:21Z</time></trkpt><trkpt lat="48.60526057042977" lon="-2.339481709420149"><ele>32.857142857142854</ele><time>2026-04-05T08:31:22Z</time></trkpt><trkpt lat="48.60518949221193" lon="-2.3395044867848878"><ele>32.285714285714285</ele><time>2026-04-05T08:31:23Z</time></trkpt><trkpt lat="48.60511853296251" lon="-2.339524374359934"><ele>31.71428571428571</ele><time>2026-04-05T08:31:24Z</time></trkpt><trkpt lat="48.60504795619197" lon="-2.33954897636981"><ele>31.14285714285714</ele><time>2026-04-05T08:31:25Z</time></trkpt><trkpt lat="48.604980004790605" lon="-2.339570303481414"><ele>30.571428571428573</ele><time>2026-04-05T08:31:26Z</time></trkpt><trkpt lat="48.604908320072646" lon="-2.339591495035421"><ele>30.0</ele><time>2026-04-05T08:31:27Z</time></trkpt><trkpt lat="48.60484259992787" lon="-2.339612831470551"><ele>30.0</ele><time>2026-04-05T08:31:28Z</time></trkpt><trkpt lat="48.604776873723154" lon="-2.3396371278597887"><ele>30.0</ele><time>2026-04-05T08:31:29Z</time></trkpt><trkpt lat="48.60471466591534" lon="-2.33965395049378"><ele>30.0</ele><time>2026-04-05T08:31:30Z</time></trkpt><trkpt lat="48.60462755754678" lon="-2.339685219668414"><ele>30.0</ele><time>2026-04-05T08:31:32Z</time></trkpt><trkpt lat="48.60452734585682" lon="-2.3395640682758625"><ele>30.0</ele><time>2026-04-05T08:31:35Z</time></trkpt><trkpt lat="48.60449653258355" lon="-2.339471818692788"><ele>30.0</ele><time>2026-04-05T08:31:36Z</time></trkpt><trkpt lat="48.604467819501" lon="-2.3393714954462004"><ele>29.4</ele><time>2026-04-05T08:31:37Z</time></trkpt><trkpt lat="48.60442439893834" lon="-2.339262046822573"><ele>28.8</ele><time>2026-04-05T08:31:38Z</time></trkpt><trkpt lat="48.604381970510865" lon="-2.3391417931657448"><ele>28.200000000000003</ele><time>2026-04-05T08:31:39Z</time></trkpt><trkpt lat="48.60434488694925" lon="-2.339013302541872"><ele>27.6</ele><time>2026-04-05T08:31:40Z</time></trkpt><trkpt lat="48.60430546740012" lon="-2.338881708480328"><ele>27.0</ele><time>2026-04-05T08:31:41Z</time></trkpt><trkpt lat="48.60426976508346" lon="-2.338750496456136"><ele>26.0</ele><time>2026-04-05T08:31:42Z</time></trkpt><trkpt lat="48.60423390136671" lon="-2.338627272889337"><ele>25.0</ele><time>2026-04-05T08:31:43Z</time></trkpt><trkpt lat="48.60420442290451" lon="-2.3385080062497154"><ele>24.0</ele><time>2026-04-05T08:31:44Z</time></trkpt><trkpt lat="48.604175228432716" lon="-2.33838917211241"><ele>23.0</ele><time>2026-04-05T08:31:45Z</time></trkpt><trkpt lat="48.60414795333824" lon="-2.338263421334428"><ele>22.0</ele><time>2026-04-05T08:31:46Z</time></trkpt><trkpt lat="48.60412206894893" lon="-2.3381262199335273"><ele>21.0</ele><time>2026-04-05T08:31:47Z</time></trkpt><trkpt lat="48.604100760861336" lon="-2.3379787165392525"><ele>20.0</ele><time>2026-04-05T08:31:48Z</time></trkpt><trkpt lat="48.60408254303634" lon="-2.3378303063946175"><ele>19.0</ele><time>2026-04-05T08:31:49Z</time></trkpt><trkpt lat="48.60405231017079" lon="-2.3376781265042594"><ele>18.0</ele><time>2026-04-05T08:31:50Z</time></trkpt><trkpt lat="48.60403903597937" lon="-2.3375201819587126"><ele>17.0</ele><time>2026-04-05T08:31:50.999Z</time></trkpt><trkpt lat="48.60404280544548" lon="-2.3373625684363355"><ele>16.0</ele><time>2026-04-05T08:31:51.999Z</time></trkpt><trkpt lat="48.60403033303672" lon="-2.3372224090193465"><ele>14.8</ele><time>2026-04-05T08:31:52.999Z</time></trkpt><trkpt lat="48.604003627602545" lon="-2.337085390888443"><ele>13.600000000000001</ele><time>2026-04-05T08:31:53.999Z</time></trkpt><trkpt lat="48.604007980256505" lon="-2.336942842270057"><ele>12.4</ele><time>2026-04-05T08:31:54.999Z</time></trkpt><trkpt lat="48.603994196483576" lon="-2.3367973715090518"><ele>11.2</ele><time>2026-04-05T08:31:55.999Z</time></trkpt><trkpt lat="48.60398271744047" lon="-2.336652900829302"><ele>10.0</ele><time>2026-04-05T08:31:56.999Z</time></trkpt><trkpt lat="48.6039696622807" lon="-2.3365059635045986"><ele>9.8</ele><time>2026-04-05T08:31:57.999Z</time></trkpt><trkpt lat="48.603951698738264" lon="-2.33636217391234"><ele>9.6</ele><time>2026-04-05T08:31:58.999Z</time></trkpt><trkpt lat="48.60393579986905" lon="-2.3362193373213436"><ele>9.4</ele><time>2026-04-05T08:31:59.999Z</time></trkpt><trkpt lat="48.60391847101353" lon="-2.3360790469207218"><ele>9.2</ele><time>2026-04-05T08:32:00.999Z</time></trkpt><trkpt lat="48.60387945051556" lon="-2.3359494490255566"><ele>9.0</ele><time>2026-04-05T08:32:01.999Z</time></trkpt><trkpt lat="48.60385415995203" lon="-2.33581860593407"><ele>9.0</ele><time>2026-04-05T08:32:02.999Z</time></trkpt><trkpt lat="48.603845330355" lon="-2.3356827479281397"><ele>9.0</ele><time>2026-04-05T08:32:03.999Z</time></trkpt><trkpt lat="48.6038191756394" lon="-2.335563276353589"><ele>9.0</ele><time>2026-04-05T08:32:04.999Z</time></trkpt><trkpt lat="48.60376692071232" lon="-2.3354649495844297"><ele>9.0</ele><time>2026-04-05T08:32:05.999Z</time></trkpt><trkpt lat="48.60373569904038" lon="-2.335357642017633"><ele>9.0</ele><time>2026-04-05T08:32:06.999Z</time></trkpt><trkpt lat="48.60370933131628" lon="-2.3352496774317024"><ele>9.0</ele><time>2026-04-05T08:32:07.999Z</time></trkpt><trkpt lat="48.603693815575795" lon="-2.3351327883789836"><ele>9.0</ele><time>2026-04-05T08:32:08.999Z</time></trkpt><trkpt lat="48.60370661615708" lon="-2.3350231233882064"><ele>9.0</ele><time>2026-04-05T08:32:09.999Z</time></trkpt><trkpt lat="48.603703884700145" lon="-2.3348771864363154"><ele>9.0</ele><time>2026-04-05T08:32:11.999Z</time></trkpt><trkpt lat="48.60363312186077" lon="-2.3347879974689585"><ele>9.0</ele><time>2026-04-05T08:32:14.999Z</time></trkpt><trkpt lat="48.60358309475036" lon="-2.33468453414923"><ele>9.0</ele><time>2026-04-05T08:32:16.999Z</time></trkpt><trkpt lat="48.60359007511195" lon="-2.334520060859572"><ele>9.0</ele><time>2026-04-05T08:32:18.999Z</time></trkpt><trkpt lat="48.60362334296653" lon="-2.334361453858426"><ele>9.0</ele><time>2026-04-05T08:32:20.999Z</time></trkpt><trkpt lat="48.60364763349553" lon="-2.334210446710261"><ele>9.0</ele><time>2026-04-05T08:32:22.999Z</time></trkpt><trkpt lat="48.60367435244038" lon="-2.3340487831496923"><ele>9.0</ele><time>2026-04-05T08:32:24.999Z</time></trkpt><trkpt lat="48.60369758071982" lon="-2.3338943280534186"><ele>9.0</ele><time>2026-04-05T08:32:26.999Z</time></trkpt><trkpt lat="48.603703609672266" lon="-2.3337292703020793"><ele>9.2</ele><time>2026-04-05T08:32:28.999Z</time></trkpt><trkpt lat="48.603724529397105" lon="-2.3335726760446347"><ele>9.4</ele><time>2026-04-05T08:32:30.999Z</time></trkpt><trkpt lat="48.60374475622106" lon="-2.3334212684894027"><ele>9.6</ele><time>2026-04-05T08:32:32.999Z</time></trkpt><trkpt lat="48.60378022480793" lon="-2.3332692904774643"><ele>9.8</ele><time>2026-04-05T08:32:34.999Z</time></trkpt><trkpt lat="48.60378706791499" lon="-2.333108983243148"><ele>10.0</ele><time>2026-04-05T08:32:36.999Z</time></trkpt><trkpt lat="48.603823894819534" lon="-2.3329632154066284"><ele>10.4</ele><time>2026-04-05T08:32:38.999Z</time></trkpt><trkpt lat="48.60384167380954" lon="-2.332818713763389"><ele>10.8</ele><time>2026-04-05T08:32:40.999Z</time></trkpt><trkpt lat="48.603858754890545" lon="-2.332669278906896"><ele>11.2</ele><time>2026-04-05T08:32:42.999Z</time></trkpt><trkpt lat="48.60388312852958" lon="-2.3325288039951295"><ele>11.6</ele><time>2026-04-05T08:32:44.999Z</time></trkpt><trkpt lat="48.6038985344219" lon="-2.3323891740261593"><ele>12.0</ele><time>2026-04-05T08:32:46.999Z</time></trkpt><trkpt lat="48.60392119235334" lon="-2.3322405355456195"><ele>12.5</ele><time>2026-04-05T08:32:48.999Z</time></trkpt><trkpt lat="48.60394481027873" lon="-2.3321163377241385"><ele>13.0</ele><time>2026-04-05T08:32:51Z</time></trkpt><trkpt lat="48.603961021055525" lon="-2.33200064268013"><ele>13.5</ele><time>2026-04-05T08:32:53Z</time></trkpt><trkpt lat="48.60397493411581" lon="-2.331877118391281"><ele>14.0</ele><time>2026-04-05T08:32:55Z</time></trkpt><trkpt lat="48.60400409969654" lon="-2.331736292921553"><ele>14.5</ele><time>2026-04-05T08:32:57Z</time></trkpt><trkpt lat="48.604020152054275" lon="-2.3316031264477863"><ele>15.0</ele><time>2026-04-05T08:32:59Z</time></trkpt><trkpt lat="48.6040500740308" lon="-2.331454809819691"><ele>15.2</ele><time>2026-04-05T08:33:01Z</time></trkpt><trkpt lat="48.604074715861046" lon="-2.331308065070206"><ele>15.4</ele><time>2026-04-05T08:33:03Z</time></trkpt><trkpt lat="48.604088383613735" lon="-2.331165660011926"><ele>15.600000000000001</ele><time>2026-04-05T08:33:05Z</time></trkpt><trkpt lat="48.604119278312915" lon="-2.3310121290715764"><ele>15.8</ele><time>2026-04-05T08:33:07Z</time></trkpt><trkpt lat="48.604141209916655" lon="-2.3308621945079953"><ele>16.0</ele><time>2026-04-05T08:33:09Z</time></trkpt><trkpt lat="48.604156134317726" lon="-2.3307115287303346"><ele>16.5</ele><time>2026-04-05T08:33:11Z</time></trkpt><trkpt lat="48.60417356318372" lon="-2.330445682729925"><ele>17.0</ele><time>2026-04-05T08:33:13Z</time></trkpt><trkpt lat="48.60417272383694" lon="-2.330299884747797"><ele>17.5</ele><time>2026-04-05T08:33:15Z</time></trkpt><trkpt lat="48.604161856781694" lon="-2.3301579534725887"><ele>18.0</ele><time>2026-04-05T08:33:17Z</time></trkpt><trkpt lat="48.60414207352019" lon="-2.3300163217912506"><ele>18.0</ele><time>2026-04-05T08:33:19Z</time></trkpt><trkpt lat="48.604127890589844" lon="-2.3298665753142984"><ele>18.0</ele><time>2026-04-05T08:33:21Z</time></trkpt><trkpt lat="48.60410934227217" lon="-2.3297230235025475"><ele>18.0</ele><time>2026-04-05T08:33:23Z</time></trkpt><trkpt lat="48.60408981644863" lon="-2.329582381007446"><ele>18.0</ele><time>2026-04-05T08:33:25Z</time></trkpt><trkpt lat="48.604075458489596" lon="-2.329438680737369"><ele>18.0</ele><time>2026-04-05T08:33:27Z</time></trkpt><trkpt lat="48.60406786026245" lon="-2.3292980737337063"><ele>18.4</ele><time>2026-04-05T08:33:29Z</time></trkpt><trkpt lat="48.60405189393766" lon="-2.329159874937119"><ele>18.8</ele><time>2026-04-05T08:33:31Z</time></trkpt><trkpt lat="48.60404992782875" lon="-2.3290290289094346"><ele>19.2</ele><time>2026-04-05T08:33:33Z</time></trkpt><trkpt lat="48.60402015937026" lon="-2.328894264707401"><ele>19.6</ele><time>2026-04-05T08:33:36Z</time></trkpt><trkpt lat="48.60397309953976" lon="-2.3286645143814004"><ele>20.0</ele><time>2026-04-05T08:33:38Z</time></trkpt><trkpt lat="48.60393295170293" lon="-2.3285335146976984"><ele>20.4</ele><time>2026-04-05T08:33:40Z</time></trkpt><trkpt lat="48.603900565247706" lon="-2.328400995383898"><ele>20.8</ele><time>2026-04-05T08:33:42Z</time></trkpt><trkpt lat="48.60386313844537" lon="-2.3282776062756616"><ele>21.200000000000003</ele><time>2026-04-05T08:33:44Z</time></trkpt><trkpt lat="48.60382218693157" lon="-2.3281501467515913"><ele>21.6</ele><time>2026-04-05T08:33:46Z</time></trkpt><trkpt lat="48.60377057340258" lon="-2.328043314462726"><ele>22.0</ele><time>2026-04-05T08:33:48Z</time></trkpt><trkpt lat="48.603720075933225" lon="-2.3279381916886726"><ele>22.8</ele><time>2026-04-05T08:33:50Z</time></trkpt><trkpt lat="48.60366207142676" lon="-2.327834971918178"><ele>23.6</ele><time>2026-04-05T08:33:52Z</time></trkpt><trkpt lat="48.60360135317647" lon="-2.3277350220820794"><ele>24.400000000000002</ele><time>2026-04-05T08:33:54Z</time></trkpt><trkpt lat="48.60354172053498" lon="-2.327622667553339"><ele>25.200000000000003</ele><time>2026-04-05T08:33:56Z</time></trkpt><trkpt lat="48.60346845648072" lon="-2.3274735172768732"><ele>26.0</ele><time>2026-04-05T08:33:58.999Z</time></trkpt><trkpt lat="48.603423553962806" lon="-2.327358467262965"><ele>25.8</ele><time>2026-04-05T08:34:01.999Z</time></trkpt><trkpt lat="48.60339620715449" lon="-2.3272174162119077"><ele>25.6</ele><time>2026-04-05T08:34:04.999Z</time></trkpt><trkpt lat="48.6033088394675" lon="-2.3270426120934307"><ele>25.4</ele><time>2026-04-05T08:34:05.999Z</time></trkpt><trkpt lat="48.603271511036134" lon="-2.326915133380866"><ele>25.2</ele><time>2026-04-05T08:34:07.999Z</time></trkpt><trkpt lat="48.60322840644084" lon="-2.3267867146460586"><ele>25.0</ele><time>2026-04-05T08:34:09.999Z</time></trkpt><trkpt lat="48.60320172544903" lon="-2.326674479456358"><ele>25.000000000000004</ele><time>2026-04-05T08:34:11.999Z</time></trkpt><trkpt lat="48.60317139138737" lon="-2.326558066824125"><ele>25.0</ele><time>2026-04-05T08:34:13.999Z</time></trkpt><trkpt lat="48.60314245310685" lon="-2.3264517694496027"><ele>25.0</ele><time>2026-04-05T08:34:15.999Z</time></trkpt><trkpt lat="48.6031242155539" lon="-2.326335217983869"><ele>25.0</ele><time>2026-04-05T08:34:17.999Z</time></trkpt><trkpt lat="48.60309329268107" lon="-2.326228385265285"><ele>25.000000000000004</ele><time>2026-04-05T08:34:19.999Z</time></trkpt><trkpt lat="48.60307429501418" lon="-2.326120135490513"><ele>25.0</ele><time>2026-04-05T08:34:21.999Z</time></trkpt><trkpt lat="48.603050586050536" lon="-2.326011821768654"><ele>25.000000000000004</ele><time>2026-04-05T08:34:23.999Z</time></trkpt><trkpt lat="48.60303164034928" lon="-2.3259007932741658"><ele>25.0</ele><time>2026-04-05T08:34:25.999Z</time></trkpt><trkpt lat="48.603015944666126" lon="-2.3258024357581255"><ele>25.0</ele><time>2026-04-05T08:34:27.999Z</time></trkpt><trkpt lat="48.60300009125841" lon="-2.3256906189263797"><ele>25.0</ele><time>2026-04-05T08:34:29.999Z</time></trkpt><trkpt lat="48.60298766386819" lon="-2.3255754654652"><ele>25.000000000000004</ele><time>2026-04-05T08:34:31.999Z</time></trkpt><trkpt lat="48.60297768895967" lon="-2.325454987641283"><ele>25.0</ele><time>2026-04-05T08:34:33.999Z</time></trkpt><trkpt lat="48.60296840375336" lon="-2.32534437678581"><ele>25.2</ele><time>2026-04-05T08:34:35.999Z</time></trkpt><trkpt lat="48.60296815128556" lon="-2.325215191703163"><ele>25.4</ele><time>2026-04-05T08:34:37.999Z</time></trkpt><trkpt lat="48.6029545971317" lon="-2.3250657982005754"><ele>25.6</ele><time>2026-04-05T08:34:39.999Z</time></trkpt><trkpt lat="48.60294663915114" lon="-2.3249029000873844"><ele>25.8</ele><time>2026-04-05T08:34:41.999Z</time></trkpt><trkpt lat="48.602932045440895" lon="-2.3247221344236855"><ele>26.0</ele><time>2026-04-05T08:34:43.999Z</time></trkpt><trkpt lat="48.602917114041354" lon="-2.3245269728212437"><ele>25.57142857142857</ele><time>2026-04-05T08:34:45.999Z</time></trkpt><trkpt lat="48.602910599540635" lon="-2.324421452153308"><ele>25.142857142857146</ele><time>2026-04-05T08:34:46.999Z</time></trkpt><trkpt lat="48.602907204757976" lon="-2.3243158287167325"><ele>24.714285714285715</ele><time>2026-04-05T08:34:47.999Z</time></trkpt><trkpt lat="48.602899138778646" lon="-2.3242148721838762"><ele>24.285714285714285</ele><time>2026-04-05T08:34:48.999Z</time></trkpt><trkpt lat="48.60288663666341" lon="-2.3240934498633132"><ele>23.857142857142854</ele><time>2026-04-05T08:34:49.999Z</time></trkpt><trkpt lat="48.60288200109853" lon="-2.3239743671877067"><ele>23.42857142857143</ele><time>2026-04-05T08:34:50.999Z</time></trkpt><trkpt lat="48.602860085424794" lon="-2.3238625378316784"><ele>23.0</ele><time>2026-04-05T08:34:51.999Z</time></trkpt><trkpt lat="48.60285065927201" lon="-2.3237494478767196"><ele>22.666666666666668</ele><time>2026-04-05T08:34:52.999Z</time></trkpt><trkpt lat="48.602840709089335" lon="-2.3236326576185142"><ele>22.333333333333336</ele><time>2026-04-05T08:34:53.999Z</time></trkpt><trkpt lat="48.60283002848615" lon="-2.3235153132037953"><ele>22.0</ele><time>2026-04-05T08:34:54.999Z</time></trkpt><trkpt lat="48.60281754568527" lon="-2.3233915706475843"><ele>21.666666666666668</ele><time>2026-04-05T08:34:55.999Z</time></trkpt><trkpt lat="48.602803388720496" lon="-2.323272603909399"><ele>21.333333333333332</ele><time>2026-04-05T08:34:57Z</time></trkpt><trkpt lat="48.60278201452987" lon="-2.3231505093467986"><ele>21.0</ele><time>2026-04-05T08:34:58Z</time></trkpt><trkpt lat="48.60275397136165" lon="-2.323030094294327"><ele>20.666666666666668</ele><time>2026-04-05T08:34:59Z</time></trkpt><trkpt lat="48.602724103068226" lon="-2.3229188727347756"><ele>20.333333333333332</ele><time>2026-04-05T08:35:00Z</time></trkpt><trkpt lat="48.602693305113725" lon="-2.3228078511418304"><ele>20.0</ele><time>2026-04-05T08:35:01Z</time></trkpt><trkpt lat="48.60265956493977" lon="-2.322695636060454"><ele>19.666666666666664</ele><time>2026-04-05T08:35:02Z</time></trkpt><trkpt lat="48.60261932282158" lon="-2.3225740138895823"><ele>19.333333333333332</ele><time>2026-04-05T08:35:03Z</time></trkpt><trkpt lat="48.60259851315721" lon="-2.3224593413158514"><ele>19.0</ele><time>2026-04-05T08:35:04Z</time></trkpt><trkpt lat="48.60256412883589" lon="-2.3223495122624613"><ele>19.0</ele><time>2026-04-05T08:35:05Z</time></trkpt><trkpt lat="48.602531912742734" lon="-2.322240569193269"><ele>19.0</ele><time>2026-04-05T08:35:06Z</time></trkpt><trkpt lat="48.60249522405058" lon="-2.3221353453546607"><ele>19.0</ele><time>2026-04-05T08:35:07Z</time></trkpt><trkpt lat="48.602460707582985" lon="-2.3220271197271876"><ele>19.0</ele><time>2026-04-05T08:35:08Z</time></trkpt><trkpt lat="48.60243396397562" lon="-2.321914206819413"><ele>19.0</ele><time>2026-04-05T08:35:09Z</time></trkpt><trkpt lat="48.60241137118257" lon="-2.3217995752097553"><ele>19.0</ele><time>2026-04-05T08:35:10Z</time></trkpt><trkpt lat="48.60239738550363" lon="-2.3216762940600875"><ele>19.0</ele><time>2026-04-05T08:35:11Z</time></trkpt><trkpt lat="48.6023709916736" lon="-2.321569873436339"><ele>19.0</ele><time>2026-04-05T08:35:12Z</time></trkpt><trkpt lat="48.60235642162501" lon="-2.3214475479181673"><ele>19.0</ele><time>2026-04-05T08:35:13Z</time></trkpt><trkpt lat="48.60234277586975" lon="-2.3213329824933684"><ele>19.0</ele><time>2026-04-05T08:35:14Z</time></trkpt><trkpt lat="48.602330064345445" lon="-2.3212090732552024"><ele>19.0</ele><time>2026-04-05T08:35:15Z</time></trkpt><trkpt lat="48.60231861175442" lon="-2.321092235339411"><ele>19.0</ele><time>2026-04-05T08:35:16Z</time></trkpt><trkpt lat="48.60230644211615" lon="-2.32098596738038"><ele>19.0</ele><time>2026-04-05T08:35:17Z</time></trkpt><trkpt lat="48.60227981876362" lon="-2.320869707144542"><ele>19.0</ele><time>2026-04-05T08:35:18Z</time></trkpt><trkpt lat="48.60224697412224" lon="-2.320761677830105"><ele>19.0</ele><time>2026-04-05T08:35:19Z</time></trkpt><trkpt lat="48.60220554012575" lon="-2.3206516662225805"><ele>19.0</ele><time>2026-04-05T08:35:20Z</time></trkpt><trkpt lat="48.60216834319721" lon="-2.3205571129779123"><ele>19.0</ele><time>2026-04-05T08:35:21Z</time></trkpt><trkpt lat="48.602129592988305" lon="-2.320470871046203"><ele>19.0</ele><time>2026-04-05T08:35:22Z</time></trkpt><trkpt lat="48.60209088974273" lon="-2.3203844907819433"><ele>19.0</ele><time>2026-04-05T08:35:23Z</time></trkpt><trkpt lat="48.60205526598564" lon="-2.3203049834938407"><ele>19.0</ele><time>2026-04-05T08:35:24Z</time></trkpt><trkpt lat="48.60201783341153" lon="-2.320221439201791"><ele>19.0</ele><time>2026-04-05T08:35:25Z</time></trkpt><trkpt lat="48.601956435190075" lon="-2.320053318368649"><ele>19.0</ele><time>2026-04-05T08:35:27Z</time></trkpt><trkpt lat="48.601900335889646" lon="-2.319982094995792"><ele>19.0</ele><time>2026-04-05T08:35:28Z</time></trkpt><trkpt lat="48.60180939845479" lon="-2.3198705090179166"><ele>19.0</ele><time>2026-04-05T08:35:30Z</time></trkpt><trkpt lat="48.60175942363488" lon="-2.3198028857458826"><ele>19.2</ele><time>2026-04-05T08:35:31Z</time></trkpt><trkpt lat="48.60167547477032" lon="-2.319687311623616"><ele>19.4</ele><time>2026-04-05T08:35:33Z</time></trkpt><trkpt lat="48.60161504626654" lon="-2.3195446711887966"><ele>19.6</ele><time>2026-04-05T08:35:35Z</time></trkpt><trkpt lat="48.601557273978315" lon="-2.3194324014928984"><ele>19.8</ele><time>2026-04-05T08:35:37Z</time></trkpt><trkpt lat="48.60151148267271" lon="-2.319331940264731"><ele>20.0</ele><time>2026-04-05T08:35:39Z</time></trkpt><trkpt lat="48.60145043210265" lon="-2.3192382458792498"><ele>20.0</ele><time>2026-04-05T08:35:41Z</time></trkpt><trkpt lat="48.601395353305946" lon="-2.3191276962283967"><ele>20.0</ele><time>2026-04-05T08:35:43Z</time></trkpt><trkpt lat="48.60133407886116" lon="-2.319005809893692"><ele>20.0</ele><time>2026-04-05T08:35:46Z</time></trkpt><trkpt lat="48.601290434008845" lon="-2.3189063263368532"><ele>20.0</ele><time>2026-04-05T08:35:49Z</time></trkpt><trkpt lat="48.601239737509786" lon="-2.318779339562536"><ele>20.0</ele><time>2026-04-05T08:35:52Z</time></trkpt><trkpt lat="48.601204985310844" lon="-2.3186485193328177"><ele>20.6</ele><time>2026-04-05T08:35:55Z</time></trkpt><trkpt lat="48.601171867892276" lon="-2.318521345546035"><ele>21.2</ele><time>2026-04-05T08:35:58Z</time></trkpt><trkpt lat="48.601140699709596" lon="-2.3183266405989094"><ele>21.799999999999997</ele><time>2026-04-05T08:36:01Z</time></trkpt><trkpt lat="48.60108741649081" lon="-2.318193221610172"><ele>22.4</ele><time>2026-04-05T08:36:02Z</time></trkpt><trkpt lat="48.60105571109143" lon="-2.3180920744691442"><ele>23.0</ele><time>2026-04-05T08:36:04Z</time></trkpt><trkpt lat="48.60101512694777" lon="-2.317985983708568"><ele>23.28571428571429</ele><time>2026-04-05T08:36:06Z</time></trkpt><trkpt lat="48.600988728354025" lon="-2.3178927935573572"><ele>23.57142857142857</ele><time>2026-04-05T08:36:08Z</time></trkpt><trkpt lat="48.60095580773902" lon="-2.3177986495443093"><ele>23.857142857142858</ele><time>2026-04-05T08:36:10Z</time></trkpt><trkpt lat="48.60092169607647" lon="-2.317702389808712"><ele>24.142857142857146</ele><time>2026-04-05T08:36:12Z</time></trkpt><trkpt lat="48.60087966882638" lon="-2.3176083392530504"><ele>24.42857142857143</ele><time>2026-04-05T08:36:15Z</time></trkpt><trkpt lat="48.60084971894876" lon="-2.317515387211885"><ele>24.714285714285715</ele><time>2026-04-05T08:36:25.999Z</time></trkpt><trkpt lat="48.60080174017762" lon="-2.317391507008175"><ele>25.0</ele><time>2026-04-05T08:36:28.999Z</time></trkpt><trkpt lat="48.60076632204582" lon="-2.3173097582161475"><ele>25.833333333333336</ele><time>2026-04-05T08:36:30.999Z</time></trkpt><trkpt lat="48.600730643276016" lon="-2.317209257483506"><ele>26.666666666666668</ele><time>2026-04-05T08:36:32.999Z</time></trkpt><trkpt lat="48.60069341929057" lon="-2.3171091748159736"><ele>27.5</ele><time>2026-04-05T08:36:34.999Z</time></trkpt><trkpt lat="48.60065317406156" lon="-2.317030829677763"><ele>28.333333333333336</ele><time>2026-04-05T08:36:36.999Z</time></trkpt><trkpt lat="48.60060252051262" lon="-2.316902804256574"><ele>29.166666666666668</ele><time>2026-04-05T08:36:38.999Z</time></trkpt><trkpt lat="48.60055408328472" lon="-2.316776959089706"><ele>30.0</ele><time>2026-04-05T08:36:40.999Z</time></trkpt><trkpt lat="48.60051791060634" lon="-2.3166795426300095"><ele>30.0</ele><time>2026-04-05T08:36:43.999Z</time></trkpt><trkpt lat="48.600432297001326" lon="-2.3164652646993114"><ele>30.0</ele><time>2026-04-05T08:36:45.999Z</time></trkpt><trkpt lat="48.60038269864539" lon="-2.31633777397168"><ele>30.0</ele><time>2026-04-05T08:36:47.999Z</time></trkpt><trkpt lat="48.600331605997724" lon="-2.316210361104379"><ele>30.0</ele><time>2026-04-05T08:36:49.999Z</time></trkpt><trkpt lat="48.60028495808458" lon="-2.316085298115617"><ele>30.0</ele><time>2026-04-05T08:36:51.999Z</time></trkpt><trkpt lat="48.600234290106826" lon="-2.315965088084376"><ele>30.0</ele><time>2026-04-05T08:36:53.999Z</time></trkpt><trkpt lat="48.60018552480395" lon="-2.315835663197687"><ele>30.0</ele><time>2026-04-05T08:36:55.999Z</time></trkpt><trkpt lat="48.60013596510993" lon="-2.3157131076981696"><ele>30.0</ele><time>2026-04-05T08:36:57.999Z</time></trkpt><trkpt lat="48.60008118745339" lon="-2.315604882907944"><ele>30.0</ele><time>2026-04-05T08:36:59.999Z</time></trkpt><trkpt lat="48.600024011875554" lon="-2.3155134826594788"><ele>30.166666666666668</ele><time>2026-04-05T08:37:01.999Z</time></trkpt><trkpt lat="48.599972499557325" lon="-2.3154300599165594"><ele>30.333333333333336</ele><time>2026-04-05T08:37:05Z</time></trkpt><trkpt lat="48.59989985836305" lon="-2.3153764535105843"><ele>30.5</ele><time>2026-04-05T08:37:09Z</time></trkpt><trkpt lat="48.599819384910624" lon="-2.315304540508617"><ele>30.666666666666668</ele><time>2026-04-05T08:37:11Z</time></trkpt><trkpt lat="48.59974586221066" lon="-2.3152258514440685"><ele>30.833333333333336</ele><time>2026-04-05T08:37:13Z</time></trkpt><trkpt lat="48.599662397151405" lon="-2.3151618834850036"><ele>31.0</ele><time>2026-04-05T08:37:15Z</time></trkpt><trkpt lat="48.599573221957165" lon="-2.315111075510109"><ele>31.200000000000003</ele><time>2026-04-05T08:37:17Z</time></trkpt><trkpt lat="48.59948592008599" lon="-2.3150581025616095"><ele>31.400000000000002</ele><time>2026-04-05T08:37:19Z</time></trkpt><trkpt lat="48.59939512292769" lon="-2.3150180633737065"><ele>31.6</ele><time>2026-04-05T08:37:21Z</time></trkpt><trkpt lat="48.599309668365" lon="-2.3149718004825823"><ele>31.8</ele><time>2026-04-05T08:37:23Z</time></trkpt><trkpt lat="48.59922084732527" lon="-2.3149485678339543"><ele>32.0</ele><time>2026-04-05T08:37:25Z</time></trkpt><trkpt lat="48.59913966247726" lon="-2.3149217076970485"><ele>31.999999999999996</ele><time>2026-04-05T08:37:27Z</time></trkpt><trkpt lat="48.59908036971744" lon="-2.314832711051498"><ele>32.0</ele><time>2026-04-05T08:37:29Z</time></trkpt><trkpt lat="48.599041132811585" lon="-2.314747438668411"><ele>32.0</ele><time>2026-04-05T08:37:31Z</time></trkpt><trkpt lat="48.59900561104788" lon="-2.3146431029781604"><ele>32.0</ele><time>2026-04-05T08:37:33Z</time></trkpt><trkpt lat="48.59896947879377" lon="-2.3145595419131135"><ele>31.999999999999996</ele><time>2026-04-05T08:37:35Z</time></trkpt><trkpt lat="48.59894017179513" lon="-2.3144638328672213"><ele>32.0</ele><time>2026-04-05T08:37:36Z</time></trkpt><trkpt lat="48.59887816693514" lon="-2.3143040969502717"><ele>32.2</ele><time>2026-04-05T08:37:38Z</time></trkpt><trkpt lat="48.59884727400711" lon="-2.3142004897420296"><ele>32.400000000000006</ele><time>2026-04-05T08:37:39Z</time></trkpt><trkpt lat="48.598865234637785" lon="-2.314055645470829"><ele>32.599999999999994</ele><time>2026-04-05T08:37:41Z</time></trkpt><trkpt lat="48.598779879255765" lon="-2.313987747954495"><ele>32.8</ele><time>2026-04-05T08:37:42Z</time></trkpt><trkpt lat="48.598745749847374" lon="-2.313823311068826"><ele>33.0</ele><time>2026-04-05T08:37:44Z</time></trkpt><trkpt lat="48.59870002555037" lon="-2.3136867175267115"><ele>34.199999999999996</ele><time>2026-04-05T08:37:46Z</time></trkpt><trkpt lat="48.598653655468915" lon="-2.3135567666436514"><ele>35.4</ele><time>2026-04-05T08:37:48Z</time></trkpt><trkpt lat="48.59859452754194" lon="-2.3134355020973865"><ele>36.599999999999994</ele><time>2026-04-05T08:37:50Z</time></trkpt><trkpt lat="48.598548227099954" lon="-2.313310029488737"><ele>37.8</ele><time>2026-04-05T08:37:52Z</time></trkpt><trkpt lat="48.59850000066266" lon="-2.313179214376864"><ele>39.0</ele><time>2026-04-05T08:37:54Z</time></trkpt><trkpt lat="48.59846723085463" lon="-2.313045808740768"><ele>39.2</ele><time>2026-04-05T08:37:56Z</time></trkpt><trkpt lat="48.59840658416126" lon="-2.312939720120545"><ele>39.4</ele><time>2026-04-05T08:37:58Z</time></trkpt><trkpt lat="48.59836360490428" lon="-2.31281762890477"><ele>39.6</ele><time>2026-04-05T08:38:00Z</time></trkpt><trkpt lat="48.59832237354635" lon="-2.31268843356777"><ele>39.8</ele><time>2026-04-05T08:38:02Z</time></trkpt><trkpt lat="48.598280755969476" lon="-2.3125546261994483"><ele>40.0</ele><time>2026-04-05T08:38:04Z</time></trkpt><trkpt lat="48.598243104574046" lon="-2.312433570788076"><ele>40.0</ele><time>2026-04-05T08:38:07Z</time></trkpt><trkpt lat="48.59822049423646" lon="-2.312317761270271"><ele>40.0</ele><time>2026-04-05T08:38:10Z</time></trkpt><trkpt lat="48.59825135392566" lon="-2.312161062370425"><ele>40.0</ele><time>2026-04-05T08:38:12Z</time></trkpt><trkpt lat="48.59825862758541" lon="-2.3120474043410995"><ele>40.0</ele><time>2026-04-05T08:38:14Z</time></trkpt><trkpt lat="48.598251217247814" lon="-2.3119335519024573"><ele>40.0</ele><time>2026-04-05T08:38:15.999Z</time></trkpt><trkpt lat="48.59823932248065" lon="-2.3118370647278823"><ele>40.0</ele><time>2026-04-05T08:38:17.999Z</time></trkpt><trkpt lat="48.59822799623665" lon="-2.3117411389620144"><ele>40.25</ele><time>2026-04-05T08:38:19.999Z</time></trkpt><trkpt lat="48.59821801788334" lon="-2.3116236948995406"><ele>40.5</ele><time>2026-04-05T08:38:21.999Z</time></trkpt><trkpt lat="48.598230319278855" lon="-2.311268041880018"><ele>40.75</ele><time>2026-04-05T08:38:23.999Z</time></trkpt><trkpt lat="48.59821712149889" lon="-2.311154752800897"><ele>41.0</ele><time>2026-04-05T08:38:25.999Z</time></trkpt><trkpt lat="48.59820796212618" lon="-2.311038174414273"><ele>41.33333333333333</ele><time>2026-04-05T08:38:27.999Z</time></trkpt><trkpt lat="48.598195760244714" lon="-2.310927767883837"><ele>41.666666666666664</ele><time>2026-04-05T08:38:29.999Z</time></trkpt><trkpt lat="48.59817571645928" lon="-2.3108137480029454"><ele>42.0</ele><time>2026-04-05T08:38:31.999Z</time></trkpt><trkpt lat="48.5981540225417" lon="-2.310699525668366"><ele>42.333333333333336</ele><time>2026-04-05T08:38:33.999Z</time></trkpt><trkpt lat="48.598131426840794" lon="-2.310590445700198"><ele>42.66666666666667</ele><time>2026-04-05T08:38:35.999Z</time></trkpt><trkpt lat="48.59810115832882" lon="-2.3104761208671643"><ele>43.0</ele><time>2026-04-05T08:38:37.999Z</time></trkpt><trkpt lat="48.59807156770075" lon="-2.3103535949268035"><ele>43.2</ele><time>2026-04-05T08:38:39.999Z</time></trkpt><trkpt lat="48.59804077832926" lon="-2.31024130891056"><ele>43.4</ele><time>2026-04-05T08:38:41.999Z</time></trkpt><trkpt lat="48.597996199811845" lon="-2.310048564105452"><ele>43.6</ele><time>2026-04-05T08:38:44.999Z</time></trkpt><trkpt lat="48.59796731161728" lon="-2.309928684732388"><ele>43.800000000000004</ele><time>2026-04-05T08:38:46.999Z</time></trkpt><trkpt lat="48.597938705108156" lon="-2.309807403932734"><ele>44.0</ele><time>2026-04-05T08:38:48.999Z</time></trkpt><trkpt lat="48.59791078978372" lon="-2.309687212854877"><ele>44.33333333333333</ele><time>2026-04-05T08:38:50.999Z</time></trkpt><trkpt lat="48.59788875196881" lon="-2.3095763350965908"><ele>44.666666666666664</ele><time>2026-04-05T08:38:52.999Z</time></trkpt><trkpt lat="48.597869868555385" lon="-2.309472054346229"><ele>45.0</ele><time>2026-04-05T08:38:54.999Z</time></trkpt><trkpt lat="48.59784881920971" lon="-2.309364333224625"><ele>45.333333333333336</ele><time>2026-04-05T08:38:56.999Z</time></trkpt><trkpt lat="48.59783541530108" lon="-2.309252284249016"><ele>45.66666666666667</ele><time>2026-04-05T08:38:58.999Z</time></trkpt><trkpt lat="48.59782516468533" lon="-2.309133017592478"><ele>46.0</ele><time>2026-04-05T08:39:00.999Z</time></trkpt><trkpt lat="48.597816897041945" lon="-2.309009952985106"><ele>46.66666666666667</ele><time>2026-04-05T08:39:02.999Z</time></trkpt><trkpt lat="48.5978074254899" lon="-2.3088869904605462"><ele>47.333333333333336</ele><time>2026-04-05T08:39:04.999Z</time></trkpt><trkpt lat="48.59779936552243" lon="-2.3087601322321603"><ele>48.0</ele><time>2026-04-05T08:39:06.999Z</time></trkpt><trkpt lat="48.59780406047167" lon="-2.3086567529754984"><ele>48.66666666666667</ele><time>2026-04-05T08:39:09Z</time></trkpt><trkpt lat="48.59779289488178" lon="-2.3085338342913326"><ele>49.333333333333336</ele><time>2026-04-05T08:39:13Z</time></trkpt><trkpt lat="48.5977870889004" lon="-2.3084108081739347"><ele>50.0</ele><time>2026-04-05T08:39:15Z</time></trkpt><trkpt lat="48.597782702002895" lon="-2.308120018417085"><ele>50.16666666666667</ele><time>2026-04-05T08:39:17Z</time></trkpt><trkpt lat="48.597770678933244" lon="-2.307988398837103"><ele>50.333333333333336</ele><time>2026-04-05T08:39:19Z</time></trkpt><trkpt lat="48.597765454610254" lon="-2.3078592930076685"><ele>50.5</ele><time>2026-04-05T08:39:21Z</time></trkpt><trkpt lat="48.597764198552994" lon="-2.3077321197401415"><ele>50.66666666666667</ele><time>2026-04-05T08:39:23Z</time></trkpt><trkpt lat="48.597762491225005" lon="-2.3075997218551394"><ele>50.833333333333336</ele><time>2026-04-05T08:39:25Z</time></trkpt><trkpt lat="48.5977563547811" lon="-2.3074648707446466"><ele>51.0</ele><time>2026-04-05T08:39:27Z</time></trkpt><trkpt lat="48.59775435775037" lon="-2.3073277846377764"><ele>51.199999999999996</ele><time>2026-04-05T08:39:29Z</time></trkpt><trkpt lat="48.597753349515116" lon="-2.3071749106188397"><ele>51.4</ele><time>2026-04-05T08:39:31Z</time></trkpt><trkpt lat="48.5977635943556" lon="-2.307035123482544"><ele>51.6</ele><time>2026-04-05T08:39:33Z</time></trkpt><trkpt lat="48.597776224606086" lon="-2.3068881564498014"><ele>51.8</ele><time>2026-04-05T08:39:35Z</time></trkpt><trkpt lat="48.59779515029162" lon="-2.3067485063377218"><ele>52.0</ele><time>2026-04-05T08:39:37Z</time></trkpt><trkpt lat="48.59780902925197" lon="-2.3066235751067934"><ele>51.8</ele><time>2026-04-05T08:39:39Z</time></trkpt><trkpt lat="48.597833299357376" lon="-2.3064088824025366"><ele>51.6</ele><time>2026-04-05T08:39:43Z</time></trkpt><trkpt lat="48.59788396676327" lon="-2.306265532046094"><ele>51.4</ele><time>2026-04-05T08:39:45Z</time></trkpt><trkpt lat="48.59785390992471" lon="-2.3061760049103963"><ele>51.199999999999996</ele><time>2026-04-05T08:39:46Z</time></trkpt><trkpt lat="48.59786968280661" lon="-2.3060512477423156"><ele>51.0</ele><time>2026-04-05T08:39:49Z</time></trkpt><trkpt lat="48.597880612321205" lon="-2.3059418907861198"><ele>51.0</ele><time>2026-04-05T08:39:51Z</time></trkpt><trkpt lat="48.597896610197985" lon="-2.305787000256462"><ele>51.0</ele><time>2026-04-05T08:39:54Z</time></trkpt><trkpt lat="48.597901888258875" lon="-2.3056797029485434"><ele>51.0</ele><time>2026-04-05T08:39:57Z</time></trkpt><trkpt lat="48.59789755001558" lon="-2.3055760799424267"><ele>51.0</ele><time>2026-04-05T08:39:59Z</time></trkpt><trkpt lat="48.59789855435587" lon="-2.305462538442006"><ele>51.0</ele><time>2026-04-05T08:40:02Z</time></trkpt><trkpt lat="48.59798963747808" lon="-2.3044630409319447"><ele>50.666666666666664</ele><time>2026-04-05T08:40:05Z</time></trkpt><trkpt lat="48.59798602123875" lon="-2.3043580556688967"><ele>50.33333333333333</ele><time>2026-04-05T08:40:06Z</time></trkpt><trkpt lat="48.59802224959935" lon="-2.304176248631193"><ele>50.0</ele><time>2026-04-05T08:40:08Z</time></trkpt><trkpt lat="48.598035721782395" lon="-2.3040684879283053"><ele>49.666666666666664</ele><time>2026-04-05T08:40:09Z</time></trkpt><trkpt lat="48.59805113440305" lon="-2.303970886719385"><ele>49.33333333333333</ele><time>2026-04-05T08:40:10Z</time></trkpt><trkpt lat="48.598057451539" lon="-2.303865361669472"><ele>49.0</ele><time>2026-04-05T08:40:11Z</time></trkpt><trkpt lat="48.59810293899727" lon="-2.3036755409852505"><ele>48.666666666666664</ele><time>2026-04-05T08:40:13Z</time></trkpt><trkpt lat="48.59811873397719" lon="-2.3035796521410066"><ele>48.33333333333333</ele><time>2026-04-05T08:40:14Z</time></trkpt><trkpt lat="48.598133310359856" lon="-2.3034836415958684"><ele>48.0</ele><time>2026-04-05T08:40:15Z</time></trkpt><trkpt lat="48.59813938619836" lon="-2.3033710830969523"><ele>47.666666666666664</ele><time>2026-04-05T08:40:16Z</time></trkpt><trkpt lat="48.59816669802503" lon="-2.303282208870228"><ele>47.33333333333333</ele><time>2026-04-05T08:40:17Z</time></trkpt><trkpt lat="48.59818081637785" lon="-2.3031888790850616"><ele>47.0</ele><time>2026-04-05T08:40:18Z</time></trkpt><trkpt lat="48.598197047871395" lon="-2.303000485784727"><ele>46.666666666666664</ele><time>2026-04-05T08:40:20Z</time></trkpt><trkpt lat="48.598209403766354" lon="-2.302884533349502"><ele>46.33333333333333</ele><time>2026-04-05T08:40:22Z</time></trkpt><trkpt lat="48.59819882016458" lon="-2.3027605335904284"><ele>46.0</ele><time>2026-04-05T08:40:23Z</time></trkpt><trkpt lat="48.598181672548925" lon="-2.302648383442578"><ele>45.666666666666664</ele><time>2026-04-05T08:40:24Z</time></trkpt><trkpt lat="48.59815046901258" lon="-2.3025454290785277"><ele>45.333333333333336</ele><time>2026-04-05T08:40:25Z</time></trkpt><trkpt lat="48.59809991039236" lon="-2.3024553230187874"><ele>45.0</ele><time>2026-04-05T08:40:26Z</time></trkpt><trkpt lat="48.597993790423814" lon="-2.3023232468263384"><ele>44.714285714285715</ele><time>2026-04-05T08:40:28Z</time></trkpt><trkpt lat="48.597954860755266" lon="-2.302224499243644"><ele>44.42857142857143</ele><time>2026-04-05T08:40:28.999Z</time></trkpt><trkpt lat="48.59790678091643" lon="-2.302137377869593"><ele>44.142857142857146</ele><time>2026-04-05T08:40:29.999Z</time></trkpt><trkpt lat="48.597861205007696" lon="-2.302055928974032"><ele>43.85714285714286</ele><time>2026-04-05T08:40:30.999Z</time></trkpt><trkpt lat="48.59781408404281" lon="-2.3019764637611098"><ele>43.57142857142857</ele><time>2026-04-05T08:40:31.999Z</time></trkpt><trkpt lat="48.59776716606197" lon="-2.3018961247333616"><ele>43.28571428571429</ele><time>2026-04-05T08:40:32.999Z</time></trkpt><trkpt lat="48.597704139407725" lon="-2.3018157449373895"><ele>43.0</ele><time>2026-04-05T08:40:33.999Z</time></trkpt><trkpt lat="48.59762219894279" lon="-2.3016726502071343"><ele>43.333333333333336</ele><time>2026-04-05T08:40:35.999Z</time></trkpt><trkpt lat="48.59757168408721" lon="-2.301606113684919"><ele>43.66666666666667</ele><time>2026-04-05T08:40:36.999Z</time></trkpt><trkpt lat="48.59752279553916" lon="-2.3015432168513823"><ele>44.0</ele><time>2026-04-05T08:40:37.999Z</time></trkpt><trkpt lat="48.597474048452604" lon="-2.301482266585148"><ele>44.333333333333336</ele><time>2026-04-05T08:40:38.999Z</time></trkpt><trkpt lat="48.597380182807676" lon="-2.301358862429358"><ele>44.666666666666664</ele><time>2026-04-05T08:40:40.999Z</time></trkpt><trkpt lat="48.59732058886177" lon="-2.3012998715706745"><ele>45.0</ele><time>2026-04-05T08:40:41.999Z</time></trkpt><trkpt lat="48.597232438278134" lon="-2.301174841082736"><ele>45.0</ele><time>2026-04-05T08:40:43.999Z</time></trkpt><trkpt lat="48.59717486915843" lon="-2.301127703142874"><ele>45.0</ele><time>2026-04-05T08:40:44.999Z</time></trkpt><trkpt lat="48.59707874073469" lon="-2.301003885393643"><ele>45.0</ele><time>2026-04-05T08:40:46.999Z</time></trkpt><trkpt lat="48.596985624274964" lon="-2.3008750115748384"><ele>45.0</ele><time>2026-04-05T08:40:48.999Z</time></trkpt><trkpt lat="48.59691057053053" lon="-2.300725383138268"><ele>45.0</ele><time>2026-04-05T08:40:50.999Z</time></trkpt><trkpt lat="48.59685802139191" lon="-2.3006553351988224"><ele>45.0</ele><time>2026-04-05T08:40:51.999Z</time></trkpt><trkpt lat="48.59678825990063" lon="-2.3005015912029454"><ele>45.0</ele><time>2026-04-05T08:40:53.999Z</time></trkpt><trkpt lat="48.59672668318445" lon="-2.300352634824578"><ele>45.0</ele><time>2026-04-05T08:40:55.999Z</time></trkpt><trkpt lat="48.59669630620252" lon="-2.3002692354211853"><ele>45.0</ele><time>2026-04-05T08:40:56.999Z</time></trkpt><trkpt lat="48.596628706977704" lon="-2.3001077063653845"><ele>45.0</ele><time>2026-04-05T08:40:58.999Z</time></trkpt><trkpt lat="48.59656080809758" lon="-2.29995278812514"><ele>45.0</ele><time>2026-04-05T08:41:00.999Z</time></trkpt><trkpt lat="48.59651224592033" lon="-2.299792518376889"><ele>45.0</ele><time>2026-04-05T08:41:02.999Z</time></trkpt><trkpt lat="48.59644045014403" lon="-2.2996363787789766"><ele>45.0</ele><time>2026-04-05T08:41:04.999Z</time></trkpt><trkpt lat="48.59641496401959" lon="-2.299538618126632"><ele>45.0</ele><time>2026-04-05T08:41:05.999Z</time></trkpt><trkpt lat="48.596351579468575" lon="-2.2993896271226415"><ele>45.0</ele><time>2026-04-05T08:41:07.999Z</time></trkpt><trkpt lat="48.59627904981142" lon="-2.2992456861121315"><ele>45.0</ele><time>2026-04-05T08:41:09.999Z</time></trkpt><trkpt lat="48.59620774838823" lon="-2.2990933490387158"><ele>45.0</ele><time>2026-04-05T08:41:11.999Z</time></trkpt><trkpt lat="48.596136035341885" lon="-2.298955443242374"><ele>45.0</ele><time>2026-04-05T08:41:13.999Z</time></trkpt><trkpt lat="48.59604098650502" lon="-2.2988308728544538"><ele>45.0</ele><time>2026-04-05T08:41:16Z</time></trkpt><trkpt lat="48.59598904536784" lon="-2.298750190118348"><ele>45.0</ele><time>2026-04-05T08:41:17Z</time></trkpt><trkpt lat="48.59593714740073" lon="-2.298682272427976"><ele>45.0</ele><time>2026-04-05T08:41:18Z</time></trkpt><trkpt lat="48.595897487542004" lon="-2.2985944858062632"><ele>45.0</ele><time>2026-04-05T08:41:19Z</time></trkpt><trkpt lat="48.59582905473232" lon="-2.2984425887101776"><ele>45.0</ele><time>2026-04-05T08:41:21Z</time></trkpt><trkpt lat="48.595786388800974" lon="-2.2983633992380557"><ele>45.0</ele><time>2026-04-05T08:41:22Z</time></trkpt><trkpt lat="48.5957497585487" lon="-2.298269168461474"><ele>45.0</ele><time>2026-04-05T08:41:23Z</time></trkpt><trkpt lat="48.59573024767764" lon="-2.298158777692231"><ele>45.0</ele><time>2026-04-05T08:41:24Z</time></trkpt><trkpt lat="48.59571730705883" lon="-2.298044931776122"><ele>45.0</ele><time>2026-04-05T08:41:25Z</time></trkpt><trkpt lat="48.59570936180087" lon="-2.297926751774556"><ele>45.0</ele><time>2026-04-05T08:41:26Z</time></trkpt><trkpt lat="48.59570584518337" lon="-2.2978005970770004"><ele>45.0</ele><time>2026-04-05T08:41:27Z</time></trkpt><trkpt lat="48.59569571415032" lon="-2.297689131852298"><ele>45.0</ele><time>2026-04-05T08:41:28Z</time></trkpt><trkpt lat="48.595669762429125" lon="-2.2975752891200494"><ele>45.0</ele><time>2026-04-05T08:41:29Z</time></trkpt><trkpt lat="48.595630983357154" lon="-2.2974853290858417"><ele>45.0</ele><time>2026-04-05T08:41:30Z</time></trkpt><trkpt lat="48.59558770324513" lon="-2.297400685709498"><ele>45.0</ele><time>2026-04-05T08:41:31Z</time></trkpt><trkpt lat="48.595547658387055" lon="-2.297320391402329"><ele>45.0</ele><time>2026-04-05T08:41:32Z</time></trkpt><trkpt lat="48.595505997225246" lon="-2.2972461361355503"><ele>45.0</ele><time>2026-04-05T08:41:33Z</time></trkpt><trkpt lat="48.59546041931654" lon="-2.297172500152882"><ele>45.0</ele><time>2026-04-05T08:41:34Z</time></trkpt><trkpt lat="48.595387238514654" lon="-2.297044850013493"><ele>45.0</ele><time>2026-04-05T08:41:36Z</time></trkpt><trkpt lat="48.595332442196195" lon="-2.2969433426827717"><ele>45.0</ele><time>2026-04-05T08:41:38Z</time></trkpt><trkpt lat="48.59529377590143" lon="-2.2968481376009384"><ele>45.0</ele><time>2026-04-05T08:41:40Z</time></trkpt><trkpt lat="48.59526317278993" lon="-2.296741890519908"><ele>45.0</ele><time>2026-04-05T08:41:43Z</time></trkpt><trkpt lat="48.595220597597404" lon="-2.2966333711409135"><ele>45.0</ele><time>2026-04-05T08:41:46Z</time></trkpt><trkpt lat="48.595174316394406" lon="-2.2965319518378435"><ele>45.0</ele><time>2026-04-05T08:41:49Z</time></trkpt><trkpt lat="48.59513391468493" lon="-2.296434707738614"><ele>45.0</ele><time>2026-04-05T08:41:52Z</time></trkpt><trkpt lat="48.595085271558226" lon="-2.296286445640163"><ele>45.0</ele><time>2026-04-05T08:41:56Z</time></trkpt><trkpt lat="48.595066696586024" lon="-2.29615197600614"><ele>46.0</ele><time>2026-04-05T08:41:58Z</time></trkpt><trkpt lat="48.59508862787064" lon="-2.296027608986829"><ele>47.0</ele><time>2026-04-05T08:42:01Z</time></trkpt><trkpt lat="48.59508664477098" lon="-2.2959299656191434"><ele>48.0</ele><time>2026-04-05T08:42:04Z</time></trkpt><trkpt lat="48.59509535620527" lon="-2.2958155204891346"><ele>49.0</ele><time>2026-04-05T08:42:07Z</time></trkpt><trkpt lat="48.59510264471629" lon="-2.2956853699021957"><ele>50.0</ele><time>2026-04-05T08:42:10Z</time></trkpt><trkpt lat="48.5951077217761" lon="-2.2955772592653507"><ele>51.0</ele><time>2026-04-05T08:42:13Z</time></trkpt><trkpt lat="48.59511132224016" lon="-2.295448115344"><ele>51.333333333333336</ele><time>2026-04-05T08:42:16Z</time></trkpt><trkpt lat="48.59512110485971" lon="-2.295322988538618"><ele>51.66666666666667</ele><time>2026-04-05T08:42:19Z</time></trkpt><trkpt lat="48.5951365388433" lon="-2.2951906453465036"><ele>52.0</ele><time>2026-04-05T08:42:22Z</time></trkpt><trkpt lat="48.59515123030357" lon="-2.2950855940409856"><ele>52.333333333333336</ele><time>2026-04-05T08:42:24Z</time></trkpt><trkpt lat="48.59514815407982" lon="-2.294985199172624"><ele>52.66666666666667</ele><time>2026-04-05T08:42:26Z</time></trkpt><trkpt lat="48.59516239972011" lon="-2.294858865429129"><ele>53.0</ele><time>2026-04-05T08:42:29Z</time></trkpt><trkpt lat="48.595182965097074" lon="-2.2947397314590754"><ele>53.50000000000001</ele><time>2026-04-05T08:42:31.999Z</time></trkpt><trkpt lat="48.59519741228832" lon="-2.2946148027341833"><ele>54.0</ele><time>2026-04-05T08:42:34.999Z</time></trkpt><trkpt lat="48.59521329152038" lon="-2.294509142511229"><ele>54.5</ele><time>2026-04-05T08:42:37.999Z</time></trkpt><trkpt lat="48.5952364982876" lon="-2.2943987385785127"><ele>55.0</ele><time>2026-04-05T08:42:40.999Z</time></trkpt><trkpt lat="48.59527204975109" lon="-2.294289195779298"><ele>55.50000000000001</ele><time>2026-04-05T08:42:43.999Z</time></trkpt><trkpt lat="48.595313437903954" lon="-2.294188998608416"><ele>56.0</ele><time>2026-04-05T08:42:46.999Z</time></trkpt><trkpt lat="48.59534283267385" lon="-2.2940937097011633"><ele>56.50000000000001</ele><time>2026-04-05T08:42:49.999Z</time></trkpt><trkpt lat="48.595397910509035" lon="-2.293975269935683"><ele>57.0</ele><time>2026-04-05T08:42:53.999Z</time></trkpt><trkpt lat="48.59540762138635" lon="-2.2938637131223114"><ele>57.5</ele><time>2026-04-05T08:42:56.999Z</time></trkpt><trkpt lat="48.595429443833275" lon="-2.2937557027569904"><ele>58.0</ele><time>2026-04-05T08:42:59.999Z</time></trkpt><trkpt lat="48.595480792803095" lon="-2.293647619215457"><ele>58.50000000000001</ele><time>2026-04-05T08:43:02.999Z</time></trkpt><trkpt lat="48.59549569180691" lon="-2.2935125089660273"><ele>59.0</ele><time>2026-04-05T08:43:05.999Z</time></trkpt><trkpt lat="48.59554283633297" lon="-2.2934297085417494"><ele>59.833333333333336</ele><time>2026-04-05T08:43:08.999Z</time></trkpt><trkpt lat="48.59559100156075" lon="-2.2933148254367484"><ele>60.66666666666667</ele><time>2026-04-05T08:43:11.999Z</time></trkpt><trkpt lat="48.59566234682756" lon="-2.2932077709962093"><ele>61.5</ele><time>2026-04-05T08:43:14.999Z</time></trkpt><trkpt lat="48.59573163340033" lon="-2.293083579132022"><ele>62.33333333333333</ele><time>2026-04-05T08:43:18.999Z</time></trkpt><trkpt lat="48.59575024989401" lon="-2.292974477077858"><ele>63.166666666666664</ele><time>2026-04-05T08:43:22Z</time></trkpt><trkpt lat="48.595793896509285" lon="-2.2929012311266446"><ele>64.0</ele><time>2026-04-05T08:43:24Z</time></trkpt><trkpt lat="48.595828858600704" lon="-2.292816131971211"><ele>64.66666666666666</ele><time>2026-04-05T08:43:26Z</time></trkpt><trkpt lat="48.59589244674481" lon="-2.2927810218270954"><ele>65.33333333333333</ele><time>2026-04-05T08:43:27Z</time></trkpt><trkpt lat="48.59595184483908" lon="-2.292717155621273"><ele>66.0</ele><time>2026-04-05T08:43:29Z</time></trkpt><trkpt lat="48.59599654799485" lon="-2.2926329022664276"><ele>66.66666666666667</ele><time>2026-04-05T08:43:32Z</time></trkpt><trkpt lat="48.59603816190163" lon="-2.292497003941576"><ele>67.33333333333334</ele><time>2026-04-05T08:43:35Z</time></trkpt><trkpt lat="48.596071137336295" lon="-2.292413949963839"><ele>68.0</ele><time>2026-04-05T08:43:38Z</time></trkpt><trkpt lat="48.59609204472822" lon="-2.2922841925000967"><ele>68.16666666666667</ele><time>2026-04-05T08:43:41Z</time></trkpt><trkpt lat="48.59609822827654" lon="-2.292149610533519"><ele>68.33333333333334</ele><time>2026-04-05T08:43:44Z</time></trkpt><trkpt lat="48.596115891091614" lon="-2.2920570467302714"><ele>68.5</ele><time>2026-04-05T08:43:47Z</time></trkpt><trkpt lat="48.596131627131626" lon="-2.2919342541990284"><ele>68.66666666666667</ele><time>2026-04-05T08:43:50Z</time></trkpt><trkpt lat="48.59615198030793" lon="-2.2918266253019586"><ele>68.83333333333333</ele><time>2026-04-05T08:43:53Z</time></trkpt><trkpt lat="48.59616704184678" lon="-2.2917040523584298"><ele>69.0</ele><time>2026-04-05T08:43:56Z</time></trkpt><trkpt lat="48.596164478883885" lon="-2.2915823465162197"><ele>68.66666666666667</ele><time>2026-04-05T08:43:59Z</time></trkpt><trkpt lat="48.59621048377642" lon="-2.2915020016328023"><ele>68.33333333333333</ele><time>2026-04-05T08:44:02Z</time></trkpt><trkpt lat="48.5962739752068" lon="-2.291564714053307"><ele>68.0</ele><time>2026-04-05T08:44:07Z</time></trkpt><trkpt lat="48.596326345949066" lon="-2.29162538414858"><ele>67.66666666666666</ele><time>2026-04-05T08:44:11Z</time></trkpt><trkpt lat="48.59641319177862" lon="-2.291647309503179"><ele>67.33333333333333</ele><time>2026-04-05T08:44:22Z</time></trkpt><trkpt lat="48.5964786229736" lon="-2.291584992906046"><ele>67.0</ele><time>2026-04-05T08:44:25Z</time></trkpt><trkpt lat="48.59654595296782" lon="-2.291531520421524"><ele>67.0</ele><time>2026-04-05T08:44:28Z</time></trkpt><trkpt lat="48.59661149824584" lon="-2.291458402632796"><ele>67.0</ele><time>2026-04-05T08:44:32Z</time></trkpt><trkpt lat="48.596667130598405" lon="-2.2913725538339564"><ele>67.0</ele><time>2026-04-05T08:44:35.999Z</time></trkpt><trkpt lat="48.59668035752401" lon="-2.291272659135034"><ele>67.0</ele><time>2026-04-05T08:44:40.999Z</time></trkpt><trkpt lat="48.5966471049713" lon="-2.2913758650664793"><ele>67.0</ele><time>2026-04-05T08:45:05.999Z</time></trkpt><trkpt lat="48.59659960710403" lon="-2.2914520548943274"><ele>67.0</ele><time>2026-04-05T08:45:09.999Z</time></trkpt><trkpt lat="48.59654391638443" lon="-2.29152366664195"><ele>67.0</ele><time>2026-04-05T08:45:13.999Z</time></trkpt><trkpt lat="48.596463836512434" lon="-2.291516010511255"><ele>67.0</ele><time>2026-04-05T08:45:17.999Z</time></trkpt><trkpt lat="48.59640082076074" lon="-2.29155032721674"><ele>67.0</ele><time>2026-04-05T08:45:21.999Z</time></trkpt><trkpt lat="48.59635355133823" lon="-2.291621077334072"><ele>67.0</ele><time>2026-04-05T08:45:28Z</time></trkpt><trkpt lat="48.59628390760176" lon="-2.291640114265144"><ele>67.0</ele><time>2026-04-05T08:45:33Z</time></trkpt><trkpt lat="48.59629496359537" lon="-2.2915230556515707"><ele>67.0</ele><time>2026-04-05T08:45:37Z</time></trkpt><trkpt lat="48.59623370838453" lon="-2.2914476153839467"><ele>67.0</ele><time>2026-04-05T08:45:41Z</time></trkpt><trkpt lat="48.59617678520703" lon="-2.2913722788175055"><ele>67.0</ele><time>2026-04-05T08:45:44Z</time></trkpt><trkpt lat="48.59617390418168" lon="-2.2912577801958958"><ele>66.83333333333333</ele><time>2026-04-05T08:45:46Z</time></trkpt><trkpt lat="48.59616996961745" lon="-2.2911401031406955"><ele>66.66666666666666</ele><time>2026-04-05T08:45:48Z</time></trkpt><trkpt lat="48.59615851898859" lon="-2.2910231090790636"><ele>66.5</ele><time>2026-04-05T08:45:50Z</time></trkpt><trkpt lat="48.59615140234903" lon="-2.2908804765021133"><ele>66.33333333333333</ele><time>2026-04-05T08:45:52Z</time></trkpt><trkpt lat="48.59613574033578" lon="-2.2907615244694823"><ele>66.16666666666667</ele><time>2026-04-05T08:45:54Z</time></trkpt><trkpt lat="48.59609962829978" lon="-2.2906472656881283"><ele>66.0</ele><time>2026-04-05T08:45:56Z</time></trkpt><trkpt lat="48.5960800615789" lon="-2.290523716095028"><ele>66.5</ele><time>2026-04-05T08:45:58Z</time></trkpt><trkpt lat="48.59605015038407" lon="-2.2904054006312324"><ele>67.0</ele><time>2026-04-05T08:46:00Z</time></trkpt><trkpt lat="48.59602119869658" lon="-2.2902750393921085"><ele>67.5</ele><time>2026-04-05T08:46:02Z</time></trkpt><trkpt lat="48.59598647439117" lon="-2.290152808736844"><ele>68.0</ele><time>2026-04-05T08:46:04Z</time></trkpt><trkpt lat="48.59593944813444" lon="-2.2900449441311514"><ele>68.5</ele><time>2026-04-05T08:46:06Z</time></trkpt><trkpt lat="48.59592199418232" lon="-2.289938855096351"><ele>69.0</ele><time>2026-04-05T08:46:08Z</time></trkpt><trkpt lat="48.59589533093246" lon="-2.2898227688463817"><ele>69.2</ele><time>2026-04-05T08:46:10Z</time></trkpt><trkpt lat="48.59584308533345" lon="-2.2896742638301304"><ele>69.4</ele><time>2026-04-05T08:46:14Z</time></trkpt><trkpt lat="48.59582166406014" lon="-2.2895730794707636"><ele>69.6</ele><time>2026-04-05T08:46:15Z</time></trkpt><trkpt lat="48.595792258124824" lon="-2.2894271134603787"><ele>69.8</ele><time>2026-04-05T08:46:17Z</time></trkpt><trkpt lat="48.59574859001203" lon="-2.2892663115293037"><ele>70.0</ele><time>2026-04-05T08:46:20Z</time></trkpt><trkpt lat="48.59569563771685" lon="-2.2891102849236695"><ele>70.0</ele><time>2026-04-05T08:46:22Z</time></trkpt><trkpt lat="48.59565174956912" lon="-2.2889767157195577"><ele>70.0</ele><time>2026-04-05T08:46:24Z</time></trkpt><trkpt lat="48.595629907772505" lon="-2.2888348166942416"><ele>70.0</ele><time>2026-04-05T08:46:26Z</time></trkpt><trkpt lat="48.59561606164747" lon="-2.2886889425830312"><ele>70.0</ele><time>2026-04-05T08:46:28Z</time></trkpt><trkpt lat="48.59558949580335" lon="-2.2885338819091903"><ele>70.0</ele><time>2026-04-05T08:46:30Z</time></trkpt><trkpt lat="48.59555131820343" lon="-2.2884039360063007"><ele>69.83333333333333</ele><time>2026-04-05T08:46:32Z</time></trkpt><trkpt lat="48.5955285153608" lon="-2.2882836187447895"><ele>69.66666666666666</ele><time>2026-04-05T08:46:34Z</time></trkpt><trkpt lat="48.59549946624844" lon="-2.2881500637574113"><ele>69.5</ele><time>2026-04-05T08:46:36Z</time></trkpt><trkpt lat="48.59547824085712" lon="-2.2880256629819566"><ele>69.33333333333333</ele><time>2026-04-05T08:46:38Z</time></trkpt><trkpt lat="48.59543530255245" lon="-2.2879118080092646"><ele>69.16666666666667</ele><time>2026-04-05T08:46:40Z</time></trkpt><trkpt lat="48.59538523839478" lon="-2.2877962508165357"><ele>69.0</ele><time>2026-04-05T08:46:42Z</time></trkpt><trkpt lat="48.595341071708205" lon="-2.2876868282252283"><ele>69.16666666666667</ele><time>2026-04-05T08:46:44Z</time></trkpt><trkpt lat="48.595295541854554" lon="-2.2875747770115504"><ele>69.33333333333333</ele><time>2026-04-05T08:46:46Z</time></trkpt><trkpt lat="48.59525648220906" lon="-2.2874639970842185"><ele>69.5</ele><time>2026-04-05T08:46:48Z</time></trkpt><trkpt lat="48.595214831413365" lon="-2.2873689704606535"><ele>69.66666666666666</ele><time>2026-04-05T08:46:49.999Z</time></trkpt><trkpt lat="48.59517559555432" lon="-2.2872830956459307"><ele>69.83333333333333</ele><time>2026-04-05T08:46:51.999Z</time></trkpt><trkpt lat="48.595139606067555" lon="-2.287184583514145"><ele>70.0</ele><time>2026-04-05T08:46:53.999Z</time></trkpt><trkpt lat="48.59509409042427" lon="-2.287078564679775"><ele>70.0</ele><time>2026-04-05T08:46:55.999Z</time></trkpt><trkpt lat="48.595040800202526" lon="-2.2869707964033643"><ele>70.0</ele><time>2026-04-05T08:46:57.999Z</time></trkpt><trkpt lat="48.5949889892473" lon="-2.2868596192917834"><ele>70.0</ele><time>2026-04-05T08:46:59.999Z</time></trkpt><trkpt lat="48.59492771433654" lon="-2.286750413679049"><ele>70.0</ele><time>2026-04-05T08:47:01.999Z</time></trkpt><trkpt lat="48.594863571666636" lon="-2.2866544883796194"><ele>70.0</ele><time>2026-04-05T08:47:03.999Z</time></trkpt><trkpt lat="48.594800284706054" lon="-2.286561730973621"><ele>70.0</ele><time>2026-04-05T08:47:05.999Z</time></trkpt><trkpt lat="48.59472633224988" lon="-2.2864992190158118"><ele>70.0</ele><time>2026-04-05T08:47:07.999Z</time></trkpt><trkpt lat="48.594659027258984" lon="-2.2863601666722224"><ele>70.0</ele><time>2026-04-05T08:47:09.999Z</time></trkpt><trkpt lat="48.59459209435419" lon="-2.2862541817141544"><ele>70.0</ele><time>2026-04-05T08:47:11.999Z</time></trkpt><trkpt lat="48.59452544871892" lon="-2.286152070927128"><ele>70.0</ele><time>2026-04-05T08:47:13.999Z</time></trkpt><trkpt lat="48.594475867094204" lon="-2.2860311120977275"><ele>69.75</ele><time>2026-04-05T08:47:15.999Z</time></trkpt><trkpt lat="48.59443033036283" lon="-2.285870032885506"><ele>69.5</ele><time>2026-04-05T08:47:17.999Z</time></trkpt><trkpt lat="48.59438664153063" lon="-2.285710172750326"><ele>69.25</ele><time>2026-04-05T08:47:19.999Z</time></trkpt><trkpt lat="48.594352715780616" lon="-2.285550896849821"><ele>69.0</ele><time>2026-04-05T08:47:21.999Z</time></trkpt><trkpt lat="48.594313714062494" lon="-2.2853927065299118"><ele>68.83333333333333</ele><time>2026-04-05T08:47:23.999Z</time></trkpt><trkpt lat="48.59426443451221" lon="-2.285217304329617"><ele>68.66666666666667</ele><time>2026-04-05T08:47:25.999Z</time></trkpt><trkpt lat="48.59424444862936" lon="-2.2851256793029955"><ele>68.5</ele><time>2026-04-05T08:47:26.999Z</time></trkpt><trkpt lat="48.59420089110237" lon="-2.284946365509306"><ele>68.33333333333334</ele><time>2026-04-05T08:47:28.999Z</time></trkpt><trkpt lat="48.59417567262592" lon="-2.284855354869295"><ele>68.16666666666667</ele><time>2026-04-05T08:47:29.999Z</time></trkpt><trkpt lat="48.59415325643112" lon="-2.2847621585568856"><ele>68.0</ele><time>2026-04-05T08:47:30.999Z</time></trkpt><trkpt lat="48.59412919063101" lon="-2.284664407810446"><ele>67.71428571428571</ele><time>2026-04-05T08:47:31.999Z</time></trkpt><trkpt lat="48.594104190188766" lon="-2.284564194139745"><ele>67.42857142857143</ele><time>2026-04-05T08:47:33Z</time></trkpt><trkpt lat="48.594080231951196" lon="-2.2844647780000735"><ele>67.14285714285714</ele><time>2026-04-05T08:47:34Z</time></trkpt><trkpt lat="48.59405373361671" lon="-2.284363264427477"><ele>66.85714285714286</ele><time>2026-04-05T08:47:35Z</time></trkpt><trkpt lat="48.59402608010079" lon="-2.284268180642033"><ele>66.57142857142857</ele><time>2026-04-05T08:47:36Z</time></trkpt><trkpt lat="48.59400128867734" lon="-2.2841647651089225"><ele>66.28571428571428</ele><time>2026-04-05T08:47:37Z</time></trkpt><trkpt lat="48.593975789193216" lon="-2.2840567105131457"><ele>66.0</ele><time>2026-04-05T08:47:38Z</time></trkpt><trkpt lat="48.593951363647726" lon="-2.283953300557111"><ele>66.0</ele><time>2026-04-05T08:47:39Z</time></trkpt><trkpt lat="48.59392547169236" lon="-2.283849218851172"><ele>66.0</ele><time>2026-04-05T08:47:40Z</time></trkpt><trkpt lat="48.593900897294326" lon="-2.2837509918934784"><ele>66.0</ele><time>2026-04-05T08:47:41Z</time></trkpt><trkpt lat="48.593880719071926" lon="-2.2836454518535776"><ele>66.0</ele><time>2026-04-05T08:47:42Z</time></trkpt><trkpt lat="48.59386221416382" lon="-2.2835461046674226"><ele>66.0</ele><time>2026-04-05T08:47:43Z</time></trkpt><trkpt lat="48.59384094143526" lon="-2.283441637120116"><ele>66.0</ele><time>2026-04-05T08:47:44Z</time></trkpt><trkpt lat="48.59381557302868" lon="-2.2833346112877697"><ele>66.0</ele><time>2026-04-05T08:47:45Z</time></trkpt><trkpt lat="48.59379902593739" lon="-2.2832311710255917"><ele>66.0</ele><time>2026-04-05T08:47:46Z</time></trkpt><trkpt lat="48.593791533209874" lon="-2.2831313265770814"><ele>66.0</ele><time>2026-04-05T08:47:47Z</time></trkpt><trkpt lat="48.593776820457876" lon="-2.2830257655833"><ele>66.0</ele><time>2026-04-05T08:47:48Z</time></trkpt><trkpt lat="48.59376119591118" lon="-2.28291920310384"><ele>66.0</ele><time>2026-04-05T08:47:49Z</time></trkpt><trkpt lat="48.59374704594441" lon="-2.282811674516311"><ele>66.0</ele><time>2026-04-05T08:47:50Z</time></trkpt><trkpt lat="48.593735728201224" lon="-2.282706809768088"><ele>66.0</ele><time>2026-04-05T08:47:51Z</time></trkpt><trkpt lat="48.59373416673606" lon="-2.2826001241617133"><ele>66.0</ele><time>2026-04-05T08:47:52Z</time></trkpt><trkpt lat="48.59370349029818" lon="-2.282495755196125"><ele>65.85714285714286</ele><time>2026-04-05T08:47:53Z</time></trkpt><trkpt lat="48.593692353948605" lon="-2.2823918595873907"><ele>65.71428571428572</ele><time>2026-04-05T08:47:54Z</time></trkpt><trkpt lat="48.59369234707285" lon="-2.282295362129544"><ele>65.57142857142858</ele><time>2026-04-05T08:47:55Z</time></trkpt><trkpt lat="48.59366498777427" lon="-2.282187745660936"><ele>65.42857142857143</ele><time>2026-04-05T08:47:56Z</time></trkpt><trkpt lat="48.59364791979709" lon="-2.282087279194183"><ele>65.28571428571429</ele><time>2026-04-05T08:47:57Z</time></trkpt><trkpt lat="48.5936343650349" lon="-2.2819851130933952"><ele>65.14285714285715</ele><time>2026-04-05T08:47:58Z</time></trkpt><trkpt lat="48.59361805996326" lon="-2.281880614960449"><ele>65.0</ele><time>2026-04-05T08:47:59Z</time></trkpt><trkpt lat="48.59360447351941" lon="-2.2817762966659574"><ele>65.00000000000001</ele><time>2026-04-05T08:48:00Z</time></trkpt><trkpt lat="48.59359021105205" lon="-2.281672367887176"><ele>65.0</ele><time>2026-04-05T08:48:01Z</time></trkpt><trkpt lat="48.593571909564254" lon="-2.2815550347234157"><ele>65.0</ele><time>2026-04-05T08:48:02Z</time></trkpt><trkpt lat="48.59357032420166" lon="-2.28145789780206"><ele>65.0</ele><time>2026-04-05T08:48:03Z</time></trkpt><trkpt lat="48.59355706901633" lon="-2.2813568013179037"><ele>65.0</ele><time>2026-04-05T08:48:04Z</time></trkpt><trkpt lat="48.59355044644214" lon="-2.281252989985096"><ele>65.00000000000001</ele><time>2026-04-05T08:48:05Z</time></trkpt><trkpt lat="48.5935379341918" lon="-2.281141820985449"><ele>65.0</ele><time>2026-04-05T08:48:06Z</time></trkpt><trkpt lat="48.59353213042701" lon="-2.2810366840612897"><ele>65.0</ele><time>2026-04-05T08:48:07Z</time></trkpt><trkpt lat="48.59353402975831" lon="-2.2809240584772623"><ele>65.0</ele><time>2026-04-05T08:48:08Z</time></trkpt><trkpt lat="48.593526789001835" lon="-2.2807256846015056"><ele>65.0</ele><time>2026-04-05T08:48:10Z</time></trkpt><trkpt lat="48.593521607581465" lon="-2.280612870885619"><ele>65.0</ele><time>2026-04-05T08:48:11Z</time></trkpt><trkpt lat="48.593511306980666" lon="-2.2805116109574093"><ele>65.0</ele><time>2026-04-05T08:48:12Z</time></trkpt><trkpt lat="48.59351331703553" lon="-2.2803144013237784"><ele>65.14285714285715</ele><time>2026-04-05T08:48:14Z</time></trkpt><trkpt lat="48.59351049812905" lon="-2.2802165914104973"><ele>65.28571428571429</ele><time>2026-04-05T08:48:15Z</time></trkpt><trkpt lat="48.5935035931474" lon="-2.2801105373252493"><ele>65.42857142857143</ele><time>2026-04-05T08:48:16Z</time></trkpt><trkpt lat="48.59350249851701" lon="-2.280002909086968"><ele>65.57142857142858</ele><time>2026-04-05T08:48:17Z</time></trkpt><trkpt lat="48.59350295443549" lon="-2.2798976471275334"><ele>65.71428571428572</ele><time>2026-04-05T08:48:18Z</time></trkpt><trkpt lat="48.59350850306768" lon="-2.2797977289313036"><ele>65.85714285714286</ele><time>2026-04-05T08:48:19Z</time></trkpt><trkpt lat="48.593507107280836" lon="-2.2796976114728382"><ele>66.0</ele><time>2026-04-05T08:48:20Z</time></trkpt><trkpt lat="48.59350896074651" lon="-2.279593043614972"><ele>66.0</ele><time>2026-04-05T08:48:21Z</time></trkpt><trkpt lat="48.59350859754727" lon="-2.2794975044199477"><ele>66.0</ele><time>2026-04-05T08:48:22Z</time></trkpt><trkpt lat="48.5935114459693" lon="-2.279397338771238"><ele>66.0</ele><time>2026-04-05T08:48:23Z</time></trkpt><trkpt lat="48.59350677914529" lon="-2.2792985988032557"><ele>66.0</ele><time>2026-04-05T08:48:24Z</time></trkpt><trkpt lat="48.59350547560382" lon="-2.279200445947472"><ele>66.0</ele><time>2026-04-05T08:48:25Z</time></trkpt><trkpt lat="48.59350017965789" lon="-2.279102075051606"><ele>66.0</ele><time>2026-04-05T08:48:26Z</time></trkpt><trkpt lat="48.593497542395475" lon="-2.278997164072434"><ele>66.0</ele><time>2026-04-05T08:48:27Z</time></trkpt><trkpt lat="48.5934946539927" lon="-2.278898925354958"><ele>66.0</ele><time>2026-04-05T08:48:28Z</time></trkpt><trkpt lat="48.593490902060644" lon="-2.2787965386829923"><ele>66.0</ele><time>2026-04-05T08:48:29Z</time></trkpt><trkpt lat="48.59348587927032" lon="-2.278687048035394"><ele>66.0</ele><time>2026-04-05T08:48:30Z</time></trkpt><trkpt lat="48.59348355947844" lon="-2.2785891540326677"><ele>66.0</ele><time>2026-04-05T08:48:31Z</time></trkpt><trkpt lat="48.59347781155977" lon="-2.2784918880295493"><ele>66.0</ele><time>2026-04-05T08:48:32Z</time></trkpt><trkpt lat="48.59347297708211" lon="-2.2783929425858584"><ele>66.0</ele><time>2026-04-05T08:48:33Z</time></trkpt><trkpt lat="48.593465752624276" lon="-2.278289035217399"><ele>66.0</ele><time>2026-04-05T08:48:34Z</time></trkpt><trkpt lat="48.59346468082888" lon="-2.2781750308057256"><ele>65.83333333333333</ele><time>2026-04-05T08:48:35Z</time></trkpt><trkpt lat="48.59343726939688" lon="-2.277995458573814"><ele>65.66666666666667</ele><time>2026-04-05T08:48:37Z</time></trkpt><trkpt lat="48.5934287298218" lon="-2.277896334853526"><ele>65.5</ele><time>2026-04-05T08:48:38Z</time></trkpt><trkpt lat="48.59341016224172" lon="-2.277798302086555"><ele>65.33333333333334</ele><time>2026-04-05T08:48:39Z</time></trkpt><trkpt lat="48.59338103446666" lon="-2.2776153558018586"><ele>65.16666666666667</ele><time>2026-04-05T08:48:41Z</time></trkpt><trkpt lat="48.59335813252302" lon="-2.277523961318228"><ele>65.0</ele><time>2026-04-05T08:48:42Z</time></trkpt><trkpt lat="48.593339375522376" lon="-2.277417167024684"><ele>65.00000000000001</ele><time>2026-04-05T08:48:42.999Z</time></trkpt><trkpt lat="48.59332327281223" lon="-2.27732235449347"><ele>65.0</ele><time>2026-04-05T08:48:43.999Z</time></trkpt><trkpt lat="48.59330046088516" lon="-2.2772287269476568"><ele>65.0</ele><time>2026-04-05T08:48:44.999Z</time></trkpt><trkpt lat="48.5932806573378" lon="-2.27713217515548"><ele>65.0</ele><time>2026-04-05T08:48:45.999Z</time></trkpt><trkpt lat="48.593260634542574" lon="-2.2770381458487314"><ele>65.0</ele><time>2026-04-05T08:48:46.999Z</time></trkpt><trkpt lat="48.59323690342403" lon="-2.276946460250624"><ele>65.00000000000001</ele><time>2026-04-05T08:48:47.999Z</time></trkpt><trkpt lat="48.593211578855204" lon="-2.2768590122158407"><ele>65.0</ele><time>2026-04-05T08:48:48.999Z</time></trkpt><trkpt lat="48.59318639585169" lon="-2.2767614372294793"><ele>65.0</ele><time>2026-04-05T08:48:49.999Z</time></trkpt><trkpt lat="48.593161986557334" lon="-2.2766688511291666"><ele>65.0</ele><time>2026-04-05T08:48:50.999Z</time></trkpt><trkpt lat="48.593137858540246" lon="-2.2765790854012655"><ele>65.0</ele><time>2026-04-05T08:48:51.999Z</time></trkpt><trkpt lat="48.59311449246526" lon="-2.276489245130964"><ele>65.0</ele><time>2026-04-05T08:48:52.999Z</time></trkpt><trkpt lat="48.593063490583305" lon="-2.2763179229406623"><ele>65.0</ele><time>2026-04-05T08:48:54.999Z</time></trkpt><trkpt lat="48.59302121197558" lon="-2.276146799774734"><ele>65.0</ele><time>2026-04-05T08:48:56.999Z</time></trkpt><trkpt lat="48.59297159030258" lon="-2.275973968082839"><ele>65.0</ele><time>2026-04-05T08:48:58.999Z</time></trkpt><trkpt lat="48.592928037028905" lon="-2.2758220412750076"><ele>65.0</ele><time>2026-04-05T08:49:00.999Z</time></trkpt><trkpt lat="48.59289349730222" lon="-2.2756781246679387"><ele>65.0</ele><time>2026-04-05T08:49:02.999Z</time></trkpt><trkpt lat="48.592857706840505" lon="-2.2755683644949594"><ele>65.0</ele><time>2026-04-05T08:49:04.999Z</time></trkpt><trkpt lat="48.59283587355631" lon="-2.2754475386244604"><ele>65.0</ele><time>2026-04-05T08:49:06.999Z</time></trkpt><trkpt lat="48.592808497914596" lon="-2.275303178319578"><ele>65.0</ele><time>2026-04-05T08:49:08.999Z</time></trkpt><trkpt lat="48.592782029536686" lon="-2.275154268218158"><ele>65.0</ele><time>2026-04-05T08:49:10.999Z</time></trkpt><trkpt lat="48.59274076216577" lon="-2.275001403067492"><ele>65.0</ele><time>2026-04-05T08:49:12.999Z</time></trkpt><trkpt lat="48.592701613128504" lon="-2.274847153254249"><ele>65.0</ele><time>2026-04-05T08:49:14.999Z</time></trkpt><trkpt lat="48.59265719601609" lon="-2.274690597419401"><ele>65.0</ele><time>2026-04-05T08:49:16.999Z</time></trkpt><trkpt lat="48.592615752444594" lon="-2.274533094498166"><ele>65.0</ele><time>2026-04-05T08:49:18.999Z</time></trkpt><trkpt lat="48.592569538327254" lon="-2.274372068160816"><ele>65.0</ele><time>2026-04-05T08:49:20.999Z</time></trkpt><trkpt lat="48.59252394947841" lon="-2.2742110850739783"><ele>65.0</ele><time>2026-04-05T08:49:22.999Z</time></trkpt><trkpt lat="48.592473763554516" lon="-2.274052579842287"><ele>65.0</ele><time>2026-04-05T08:49:24.999Z</time></trkpt><trkpt lat="48.59243586873006" lon="-2.273892115781988"><ele>64.75</ele><time>2026-04-05T08:49:26.999Z</time></trkpt><trkpt lat="48.59239981303001" lon="-2.2737315928307464"><ele>64.5</ele><time>2026-04-05T08:49:28.999Z</time></trkpt><trkpt lat="48.59234332293331" lon="-2.2735754814164753"><ele>64.25</ele><time>2026-04-05T08:49:30.999Z</time></trkpt><trkpt lat="48.59230167692757" lon="-2.273412779347257"><ele>64.0</ele><time>2026-04-05T08:49:32.999Z</time></trkpt><trkpt lat="48.592257440759894" lon="-2.2732516109950938"><ele>64.0</ele><time>2026-04-05T08:49:34.999Z</time></trkpt><trkpt lat="48.59221564914057" lon="-2.273086720099889"><ele>64.0</ele><time>2026-04-05T08:49:36.999Z</time></trkpt><trkpt lat="48.59217161057264" lon="-2.2729232857971806"><ele>64.0</ele><time>2026-04-05T08:49:39Z</time></trkpt><trkpt lat="48.592131042658366" lon="-2.2727518806963025"><ele>64.0</ele><time>2026-04-05T08:49:41Z</time></trkpt><trkpt lat="48.592089562781254" lon="-2.2725899066246718"><ele>64.0</ele><time>2026-04-05T08:49:43Z</time></trkpt><trkpt lat="48.5920433334877" lon="-2.272427012479081"><ele>64.0</ele><time>2026-04-05T08:49:45Z</time></trkpt><trkpt lat="48.59199429534726" lon="-2.272267142667203"><ele>64.0</ele><time>2026-04-05T08:49:47Z</time></trkpt><trkpt lat="48.591952026526634" lon="-2.2721039250286097"><ele>64.0</ele><time>2026-04-05T08:49:49Z</time></trkpt><trkpt lat="48.591915322953405" lon="-2.271937544226547"><ele>64.5</ele><time>2026-04-05T08:49:51Z</time></trkpt><trkpt lat="48.59186900179155" lon="-2.271778906467227"><ele>65.0</ele><time>2026-04-05T08:49:53Z</time></trkpt><trkpt lat="48.591823173409026" lon="-2.271615309793962"><ele>65.5</ele><time>2026-04-05T08:49:55Z</time></trkpt><trkpt lat="48.59177857055086" lon="-2.271455544414364"><ele>66.0</ele><time>2026-04-05T08:49:57Z</time></trkpt><trkpt lat="48.59173342766055" lon="-2.2712968269810396"><ele>66.2</ele><time>2026-04-05T08:49:59Z</time></trkpt><trkpt lat="48.59168250894628" lon="-2.2711504016105106"><ele>66.39999999999999</ele><time>2026-04-05T08:50:01Z</time></trkpt><trkpt lat="48.59162979710026" lon="-2.2710007966191594"><ele>66.6</ele><time>2026-04-05T08:50:03Z</time></trkpt><trkpt lat="48.59159717513742" lon="-2.270847877106468"><ele>66.8</ele><time>2026-04-05T08:50:05Z</time></trkpt><trkpt lat="48.59156675403929" lon="-2.270727722228782"><ele>67.0</ele><time>2026-04-05T08:50:07Z</time></trkpt><trkpt lat="48.59152984998111" lon="-2.270634349905136"><ele>67.2</ele><time>2026-04-05T08:50:08Z</time></trkpt><trkpt lat="48.59149558497443" lon="-2.2704711559443487"><ele>67.4</ele><time>2026-04-05T08:50:10Z</time></trkpt><trkpt lat="48.59145213606215" lon="-2.270313223473476"><ele>67.6</ele><time>2026-04-05T08:50:12Z</time></trkpt><trkpt lat="48.59141032680977" lon="-2.2701542862549173"><ele>67.8</ele><time>2026-04-05T08:50:14Z</time></trkpt><trkpt lat="48.591367678582905" lon="-2.2700084608099895"><ele>68.0</ele><time>2026-04-05T08:50:16Z</time></trkpt><trkpt lat="48.591329768701954" lon="-2.269857723426102"><ele>68.0</ele><time>2026-04-05T08:50:18Z</time></trkpt><trkpt lat="48.591299116253076" lon="-2.2697153491108226"><ele>68.0</ele><time>2026-04-05T08:50:20Z</time></trkpt><trkpt lat="48.591270080165074" lon="-2.2696116886011133"><ele>68.0</ele><time>2026-04-05T08:50:22Z</time></trkpt><trkpt lat="48.59122753046255" lon="-2.2694200719272257"><ele>68.0</ele><time>2026-04-05T08:50:24Z</time></trkpt><trkpt lat="48.59117351021666" lon="-2.2692845597058477"><ele>68.0</ele><time>2026-04-05T08:50:26Z</time></trkpt><trkpt lat="48.59113499400619" lon="-2.269130472917317"><ele>68.8</ele><time>2026-04-05T08:50:28Z</time></trkpt><trkpt lat="48.59109446030933" lon="-2.268985331061099"><ele>69.6</ele><time>2026-04-05T08:50:30Z</time></trkpt><trkpt lat="48.59105278434469" lon="-2.268833227313953"><ele>70.4</ele><time>2026-04-05T08:50:32Z</time></trkpt><trkpt lat="48.591010924432986" lon="-2.2686773484588"><ele>71.2</ele><time>2026-04-05T08:50:34Z</time></trkpt><trkpt lat="48.59097025576694" lon="-2.268519951171752"><ele>72.0</ele><time>2026-04-05T08:50:36Z</time></trkpt><trkpt lat="48.59092811015865" lon="-2.2683636048059164"><ele>72.0</ele><time>2026-04-05T08:50:38Z</time></trkpt><trkpt lat="48.59088870064592" lon="-2.2682232882243105"><ele>72.0</ele><time>2026-04-05T08:50:40Z</time></trkpt><trkpt lat="48.590865105091666" lon="-2.2681062265088965"><ele>72.0</ele><time>2026-04-05T08:50:42Z</time></trkpt><trkpt lat="48.59085056119761" lon="-2.267984390400596"><ele>72.0</ele><time>2026-04-05T08:50:43Z</time></trkpt><trkpt lat="48.59081204242644" lon="-2.2679067896596132"><ele>72.0</ele><time>2026-04-05T08:50:44Z</time></trkpt><trkpt lat="48.59076455820286" lon="-2.2677593714759046"><ele>72.0</ele><time>2026-04-05T08:50:46Z</time></trkpt><trkpt lat="48.590725287882314" lon="-2.2676027067282885"><ele>72.0</ele><time>2026-04-05T08:50:48Z</time></trkpt><trkpt lat="48.5906883726511" lon="-2.2674551884335608"><ele>72.0</ele><time>2026-04-05T08:50:50Z</time></trkpt><trkpt lat="48.590661010092866" lon="-2.2673655140285764"><ele>72.0</ele><time>2026-04-05T08:50:52Z</time></trkpt><trkpt lat="48.59063277547731" lon="-2.2672618753674265"><ele>72.0</ele><time>2026-04-05T08:50:53Z</time></trkpt><trkpt lat="48.59060218322355" lon="-2.267157805291074"><ele>72.0</ele><time>2026-04-05T08:50:54Z</time></trkpt><trkpt lat="48.590557794471444" lon="-2.2669993018224948"><ele>72.0</ele><time>2026-04-05T08:50:56Z</time></trkpt><trkpt lat="48.59051351635842" lon="-2.2668324693922624"><ele>72.0</ele><time>2026-04-05T08:50:57.999Z</time></trkpt><trkpt lat="48.59047106975598" lon="-2.2666675957951585"><ele>72.0</ele><time>2026-04-05T08:50:59.999Z</time></trkpt><trkpt lat="48.59042591599131" lon="-2.266496763009829"><ele>72.0</ele><time>2026-04-05T08:51:01.999Z</time></trkpt><trkpt lat="48.590371519717664" lon="-2.2663362561679476"><ele>72.0</ele><time>2026-04-05T08:51:03.999Z</time></trkpt><trkpt lat="48.59032634146821" lon="-2.2661730424669586"><ele>72.16666666666667</ele><time>2026-04-05T08:51:05.999Z</time></trkpt><trkpt lat="48.5902822015944" lon="-2.2660122457967176"><ele>72.33333333333333</ele><time>2026-04-05T08:51:07.999Z</time></trkpt><trkpt lat="48.590245109821325" lon="-2.2658237813248605"><ele>72.5</ele><time>2026-04-05T08:51:09.999Z</time></trkpt><trkpt lat="48.590222538040486" lon="-2.2657344493239524"><ele>72.66666666666666</ele><time>2026-04-05T08:51:10.999Z</time></trkpt><trkpt lat="48.59020001448744" lon="-2.2656454699631445"><ele>72.83333333333333</ele><time>2026-04-05T08:51:11.999Z</time></trkpt><trkpt lat="48.590161802754515" lon="-2.265569303153259"><ele>73.0</ele><time>2026-04-05T08:51:12.999Z</time></trkpt><trkpt lat="48.590117787263665" lon="-2.2654073718767367"><ele>73.0</ele><time>2026-04-05T08:51:14.999Z</time></trkpt><trkpt lat="48.59007392960223" lon="-2.2652420865842546"><ele>73.0</ele><time>2026-04-05T08:51:16.999Z</time></trkpt><trkpt lat="48.590065656477094" lon="-2.2651455052576823"><ele>73.0</ele><time>2026-04-05T08:51:17.999Z</time></trkpt><trkpt lat="48.59001882809981" lon="-2.2649947790149993"><ele>73.0</ele><time>2026-04-05T08:51:19.999Z</time></trkpt><trkpt lat="48.58998139800076" lon="-2.2648380514178377"><ele>73.0</ele><time>2026-04-05T08:51:21.999Z</time></trkpt><trkpt lat="48.58994011356664" lon="-2.26467975488611"><ele>73.0</ele><time>2026-04-05T08:51:23.999Z</time></trkpt><trkpt lat="48.58989328330885" lon="-2.264518590969026"><ele>73.0</ele><time>2026-04-05T08:51:25.999Z</time></trkpt><trkpt lat="48.589837691558884" lon="-2.264364435845735"><ele>73.0</ele><time>2026-04-05T08:51:27.999Z</time></trkpt><trkpt lat="48.58979127071329" lon="-2.2641999186211024"><ele>73.0</ele><time>2026-04-05T08:51:29.999Z</time></trkpt><trkpt lat="48.589745836236155" lon="-2.264038897117029"><ele>73.0</ele><time>2026-04-05T08:51:31.999Z</time></trkpt><trkpt lat="48.58969917767919" lon="-2.263873537428741"><ele>73.0</ele><time>2026-04-05T08:51:33.999Z</time></trkpt><trkpt lat="48.589653249793045" lon="-2.2637107672728156"><ele>73.0</ele><time>2026-04-05T08:51:35.999Z</time></trkpt><trkpt lat="48.5896073548064" lon="-2.263546984737038"><ele>73.0</ele><time>2026-04-05T08:51:37.999Z</time></trkpt><trkpt lat="48.58957322955989" lon="-2.2633729088331047"><ele>73.0</ele><time>2026-04-05T08:51:39.999Z</time></trkpt><trkpt lat="48.58951633091713" lon="-2.263215761243142"><ele>73.0</ele><time>2026-04-05T08:51:41.999Z</time></trkpt><trkpt lat="48.589473340707194" lon="-2.2630585302202957"><ele>73.0</ele><time>2026-04-05T08:51:43.999Z</time></trkpt><trkpt lat="48.58944161193823" lon="-2.2628847223376787"><ele>73.0</ele><time>2026-04-05T08:51:46Z</time></trkpt><trkpt lat="48.58939464008075" lon="-2.2627219927864113"><ele>72.6</ele><time>2026-04-05T08:51:48Z</time></trkpt><trkpt lat="48.58934150198532" lon="-2.2625499265911375"><ele>72.19999999999999</ele><time>2026-04-05T08:51:50Z</time></trkpt><trkpt lat="48.58931746310273" lon="-2.262457731819138"><ele>71.8</ele><time>2026-04-05T08:51:51Z</time></trkpt><trkpt lat="48.58926836684933" lon="-2.2622912476847024"><ele>71.39999999999999</ele><time>2026-04-05T08:51:53Z</time></trkpt><trkpt lat="48.58924318814357" lon="-2.262203390698399"><ele>71.0</ele><time>2026-04-05T08:51:54Z</time></trkpt><trkpt lat="48.58919822436688" lon="-2.262026488748331"><ele>70.85714285714286</ele><time>2026-04-05T08:51:56Z</time></trkpt><trkpt lat="48.5891490355441" lon="-2.2618614717687233"><ele>70.71428571428571</ele><time>2026-04-05T08:51:58Z</time></trkpt><trkpt lat="48.589125536628856" lon="-2.2617723821745828"><ele>70.57142857142857</ele><time>2026-04-05T08:51:59Z</time></trkpt><trkpt lat="48.58910528956449" lon="-2.2616821067321315"><ele>70.42857142857143</ele><time>2026-04-05T08:52:00Z</time></trkpt><trkpt lat="48.589084664891686" lon="-2.2615879983438605"><ele>70.28571428571428</ele><time>2026-04-05T08:52:01Z</time></trkpt><trkpt lat="48.58905977986973" lon="-2.261498182151732"><ele>70.14285714285714</ele><time>2026-04-05T08:52:02Z</time></trkpt><trkpt lat="48.58903098468302" lon="-2.2614118511780137"><ele>70.0</ele><time>2026-04-05T08:52:03Z</time></trkpt><trkpt lat="48.589003188828045" lon="-2.261324325633004"><ele>70.33333333333333</ele><time>2026-04-05T08:52:04Z</time></trkpt><trkpt lat="48.588976322830746" lon="-2.261234397063303"><ele>70.66666666666666</ele><time>2026-04-05T08:52:05Z</time></trkpt><trkpt lat="48.58896008217241" lon="-2.2611422527813514"><ele>71.0</ele><time>2026-04-05T08:52:06Z</time></trkpt><trkpt lat="48.58890026612919" lon="-2.260959717479288"><ele>71.33333333333333</ele><time>2026-04-05T08:52:08Z</time></trkpt><trkpt lat="48.58887290879419" lon="-2.260864851142917"><ele>71.66666666666667</ele><time>2026-04-05T08:52:09Z</time></trkpt><trkpt lat="48.58884720004095" lon="-2.260774362303652"><ele>72.0</ele><time>2026-04-05T08:52:10Z</time></trkpt><trkpt lat="48.588820465746224" lon="-2.2606812386082216"><ele>71.71428571428572</ele><time>2026-04-05T08:52:11Z</time></trkpt><trkpt lat="48.58879510628116" lon="-2.2605848070106287"><ele>71.42857142857143</ele><time>2026-04-05T08:52:12Z</time></trkpt><trkpt lat="48.58877102561445" lon="-2.2604858232062335"><ele>71.14285714285714</ele><time>2026-04-05T08:52:13Z</time></trkpt><trkpt lat="48.58874489776679" lon="-2.2603907779616295"><ele>70.85714285714286</ele><time>2026-04-05T08:52:14Z</time></trkpt><trkpt lat="48.588717419107084" lon="-2.260296080666834"><ele>70.57142857142857</ele><time>2026-04-05T08:52:15Z</time></trkpt><trkpt lat="48.58868883076169" lon="-2.2601994324849537"><ele>70.28571428571429</ele><time>2026-04-05T08:52:16Z</time></trkpt><trkpt lat="48.58866345519463" lon="-2.2601084171800134"><ele>70.0</ele><time>2026-04-05T08:52:17Z</time></trkpt><trkpt lat="48.58863807372876" lon="-2.26001283809496"><ele>69.71428571428571</ele><time>2026-04-05T08:52:18Z</time></trkpt><trkpt lat="48.58860751682409" lon="-2.259915741306917"><ele>69.42857142857143</ele><time>2026-04-05T08:52:19Z</time></trkpt><trkpt lat="48.588583123536004" lon="-2.259815738104247"><ele>69.14285714285714</ele><time>2026-04-05T08:52:20Z</time></trkpt><trkpt lat="48.58855556398814" lon="-2.259716787008542"><ele>68.85714285714286</ele><time>2026-04-05T08:52:21Z</time></trkpt><trkpt lat="48.588533507331135" lon="-2.2596128378871634"><ele>68.57142857142857</ele><time>2026-04-05T08:52:22Z</time></trkpt><trkpt lat="48.588502689271884" lon="-2.2595219316511996"><ele>68.28571428571428</ele><time>2026-04-05T08:52:23Z</time></trkpt><trkpt lat="48.58847192395809" lon="-2.2594273989836346"><ele>68.0</ele><time>2026-04-05T08:52:24Z</time></trkpt><trkpt lat="48.588429578659444" lon="-2.259346704802239"><ele>68.0</ele><time>2026-04-05T08:52:25Z</time></trkpt><trkpt lat="48.5884135561695" lon="-2.2592247999277144"><ele>68.0</ele><time>2026-04-05T08:52:26Z</time></trkpt><trkpt lat="48.58838756490044" lon="-2.259114697359498"><ele>68.0</ele><time>2026-04-05T08:52:27Z</time></trkpt><trkpt lat="48.58836396768425" lon="-2.259011394401801"><ele>68.0</ele><time>2026-04-05T08:52:28Z</time></trkpt><trkpt lat="48.58833355919477" lon="-2.258907531501477"><ele>68.0</ele><time>2026-04-05T08:52:29Z</time></trkpt><trkpt lat="48.58830466436944" lon="-2.2587999017401623"><ele>68.0</ele><time>2026-04-05T08:52:30Z</time></trkpt><trkpt lat="48.58827312303059" lon="-2.2586914053511484"><ele>68.0</ele><time>2026-04-05T08:52:31Z</time></trkpt><trkpt lat="48.588240883139584" lon="-2.2585883037186516"><ele>68.0</ele><time>2026-04-05T08:52:32Z</time></trkpt><trkpt lat="48.58820927753839" lon="-2.2584749656831513"><ele>68.0</ele><time>2026-04-05T08:52:33Z</time></trkpt><trkpt lat="48.58818035822828" lon="-2.258362788898262"><ele>68.0</ele><time>2026-04-05T08:52:34Z</time></trkpt><trkpt lat="48.588153004294945" lon="-2.2582565144438074"><ele>68.0</ele><time>2026-04-05T08:52:35Z</time></trkpt><trkpt lat="48.58812659989907" lon="-2.2581546813748887"><ele>68.0</ele><time>2026-04-05T08:52:36Z</time></trkpt><trkpt lat="48.58809861853313" lon="-2.2580532398885436"><ele>68.0</ele><time>2026-04-05T08:52:37Z</time></trkpt><trkpt lat="48.58806606420383" lon="-2.257945976992407"><ele>68.0</ele><time>2026-04-05T08:52:38Z</time></trkpt><trkpt lat="48.58803651545883" lon="-2.257844792942814"><ele>68.0</ele><time>2026-04-05T08:52:39Z</time></trkpt><trkpt lat="48.588008058682014" lon="-2.2577353025627676"><ele>68.0</ele><time>2026-04-05T08:52:40Z</time></trkpt><trkpt lat="48.58798105692248" lon="-2.2576358889500616"><ele>68.0</ele><time>2026-04-05T08:52:41Z</time></trkpt><trkpt lat="48.58795080532924" lon="-2.25752467723397"><ele>68.0</ele><time>2026-04-05T08:52:42Z</time></trkpt><trkpt lat="48.587934678864606" lon="-2.2574146440453116"><ele>68.0</ele><time>2026-04-05T08:52:43Z</time></trkpt><trkpt lat="48.587897874057745" lon="-2.2573152096652547"><ele>68.0</ele><time>2026-04-05T08:52:44Z</time></trkpt><trkpt lat="48.58786906807666" lon="-2.2572014690678794"><ele>68.0</ele><time>2026-04-05T08:52:45Z</time></trkpt><trkpt lat="48.58783822909583" lon="-2.2570909414964864"><ele>68.0</ele><time>2026-04-05T08:52:46Z</time></trkpt><trkpt lat="48.5878067145691" lon="-2.2569821069749265"><ele>68.0</ele><time>2026-04-05T08:52:47Z</time></trkpt><trkpt lat="48.58777372759259" lon="-2.2568663778009874"><ele>68.0</ele><time>2026-04-05T08:52:48Z</time></trkpt><trkpt lat="48.58774380771593" lon="-2.2567519365417033"><ele>67.5</ele><time>2026-04-05T08:52:49Z</time></trkpt><trkpt lat="48.587715686459894" lon="-2.256638113156983"><ele>67.0</ele><time>2026-04-05T08:52:50Z</time></trkpt><trkpt lat="48.587684973800656" lon="-2.2565302100814226"><ele>66.5</ele><time>2026-04-05T08:52:51Z</time></trkpt><trkpt lat="48.5876513970869" lon="-2.256416530228874"><ele>66.0</ele><time>2026-04-05T08:52:52Z</time></trkpt><trkpt lat="48.587621050455205" lon="-2.256317608156855"><ele>65.5</ele><time>2026-04-05T08:52:53Z</time></trkpt><trkpt lat="48.58759521019698" lon="-2.256205760207133"><ele>65.0</ele><time>2026-04-05T08:52:54Z</time></trkpt><trkpt lat="48.58756495600055" lon="-2.256099704135448"><ele>65.0</ele><time>2026-04-05T08:52:55Z</time></trkpt><trkpt lat="48.5875420012292" lon="-2.2559922949224576"><ele>65.0</ele><time>2026-04-05T08:52:56Z</time></trkpt><trkpt lat="48.5875051522955" lon="-2.2558779227557"><ele>65.0</ele><time>2026-04-05T08:52:57Z</time></trkpt><trkpt lat="48.587471445550406" lon="-2.2557649781564453"><ele>65.0</ele><time>2026-04-05T08:52:58Z</time></trkpt><trkpt lat="48.58743854075291" lon="-2.255656437408044"><ele>65.0</ele><time>2026-04-05T08:52:59Z</time></trkpt><trkpt lat="48.58740667282072" lon="-2.2555430331678576"><ele>65.0</ele><time>2026-04-05T08:53:00Z</time></trkpt><trkpt lat="48.58737271540819" lon="-2.2554315844865105"><ele>64.83333333333334</ele><time>2026-04-05T08:53:01Z</time></trkpt><trkpt lat="48.58734651430749" lon="-2.2553228350888697"><ele>64.66666666666667</ele><time>2026-04-05T08:53:02Z</time></trkpt><trkpt lat="48.58731655815331" lon="-2.255214088101477"><ele>64.5</ele><time>2026-04-05T08:53:03Z</time></trkpt><trkpt lat="48.587287196729434" lon="-2.2550946303841917"><ele>64.33333333333333</ele><time>2026-04-05T08:53:04Z</time></trkpt><trkpt lat="48.58726141133022" lon="-2.2549856316590997"><ele>64.16666666666666</ele><time>2026-04-05T08:53:05Z</time></trkpt><trkpt lat="48.58723180360992" lon="-2.2548680339392773"><ele>64.0</ele><time>2026-04-05T08:53:06Z</time></trkpt><trkpt lat="48.58719753203285" lon="-2.254757473245316"><ele>63.666666666666664</ele><time>2026-04-05T08:53:07Z</time></trkpt><trkpt lat="48.5871757995788" lon="-2.2546557492076795"><ele>63.33333333333333</ele><time>2026-04-05T08:53:08Z</time></trkpt><trkpt lat="48.587140476317295" lon="-2.2545452617500708"><ele>63.0</ele><time>2026-04-05T08:53:09Z</time></trkpt><trkpt lat="48.587104043514834" lon="-2.254435748597716"><ele>62.66666666666667</ele><time>2026-04-05T08:53:10Z</time></trkpt><trkpt lat="48.587077852866145" lon="-2.25434321861405"><ele>62.333333333333336</ele><time>2026-04-05T08:53:11Z</time></trkpt><trkpt lat="48.58703934561483" lon="-2.2542098329866835"><ele>62.0</ele><time>2026-04-05T08:53:13Z</time></trkpt><trkpt lat="48.5869931459245" lon="-2.2540764845443526"><ele>61.6</ele><time>2026-04-05T08:53:14.999Z</time></trkpt><trkpt lat="48.586949607825055" lon="-2.2539741207070687"><ele>61.2</ele><time>2026-04-05T08:53:16.999Z</time></trkpt><trkpt lat="48.58690001001683" lon="-2.253878430828209"><ele>60.8</ele><time>2026-04-05T08:53:18.999Z</time></trkpt><trkpt lat="48.58684125297828" lon="-2.2537651032900023"><ele>60.4</ele><time>2026-04-05T08:53:20.999Z</time></trkpt><trkpt lat="48.586792466169925" lon="-2.2536283306549385"><ele>60.0</ele><time>2026-04-05T08:53:22.999Z</time></trkpt><trkpt lat="48.58678183414235" lon="-2.253465638743334"><ele>60.0</ele><time>2026-04-05T08:53:24.999Z</time></trkpt><trkpt lat="48.58677308613138" lon="-2.253284397214678"><ele>60.0</ele><time>2026-04-05T08:53:26.999Z</time></trkpt><trkpt lat="48.58675364017234" lon="-2.253192442252972"><ele>60.0</ele><time>2026-04-05T08:53:27.999Z</time></trkpt><trkpt lat="48.586705360449436" lon="-2.2530205133293477"><ele>60.0</ele><time>2026-04-05T08:53:29.999Z</time></trkpt><trkpt lat="48.586679897930956" lon="-2.2529286758941445"><ele>60.0</ele><time>2026-04-05T08:53:30.999Z</time></trkpt><trkpt lat="48.586654932138856" lon="-2.252838381852304"><ele>60.0</ele><time>2026-04-05T08:53:31.999Z</time></trkpt><trkpt lat="48.58662699736549" lon="-2.252737349853911"><ele>59.833333333333336</ele><time>2026-04-05T08:53:32.999Z</time></trkpt><trkpt lat="48.58660194665899" lon="-2.2526467486876367"><ele>59.66666666666667</ele><time>2026-04-05T08:53:33.999Z</time></trkpt><trkpt lat="48.58655185644117" lon="-2.2524655868500045"><ele>59.5</ele><time>2026-04-05T08:53:35.999Z</time></trkpt><trkpt lat="48.58653767222135" lon="-2.252358502362621"><ele>59.333333333333336</ele><time>2026-04-05T08:53:36.999Z</time></trkpt><trkpt lat="48.58650862213709" lon="-2.2522620601125145"><ele>59.16666666666667</ele><time>2026-04-05T08:53:37.999Z</time></trkpt><trkpt lat="48.58648052475963" lon="-2.252167497374759"><ele>59.0</ele><time>2026-04-05T08:53:38.999Z</time></trkpt><trkpt lat="48.58645042670792" lon="-2.2520655437366983"><ele>58.857142857142854</ele><time>2026-04-05T08:53:39.999Z</time></trkpt><trkpt lat="48.58642249360697" lon="-2.251967896537536"><ele>58.71428571428572</ele><time>2026-04-05T08:53:40.999Z</time></trkpt><trkpt lat="48.586398851221446" lon="-2.25186798630635"><ele>58.57142857142858</ele><time>2026-04-05T08:53:41.999Z</time></trkpt><trkpt lat="48.58637113858471" lon="-2.251768954975854"><ele>58.42857142857143</ele><time>2026-04-05T08:53:42.999Z</time></trkpt><trkpt lat="48.5863452402093" lon="-2.2516747622825766"><ele>58.28571428571429</ele><time>2026-04-05T08:53:43.999Z</time></trkpt><trkpt lat="48.586316472984414" lon="-2.251575335921415"><ele>58.14285714285715</ele><time>2026-04-05T08:53:44.999Z</time></trkpt><trkpt lat="48.58629401728662" lon="-2.2514722134051217"><ele>58.00000000000001</ele><time>2026-04-05T08:53:45.999Z</time></trkpt><trkpt lat="48.58626957167277" lon="-2.251376904374814"><ele>58.00000000000001</ele><time>2026-04-05T08:53:46.999Z</time></trkpt><trkpt lat="48.586239516815006" lon="-2.251280653666498"><ele>58.0</ele><time>2026-04-05T08:53:47.999Z</time></trkpt><trkpt lat="48.58621327200042" lon="-2.251178634859379"><ele>58.00000000000001</ele><time>2026-04-05T08:53:48.999Z</time></trkpt><trkpt lat="48.586182076296005" lon="-2.2510782204993527"><ele>58.00000000000001</ele><time>2026-04-05T08:53:49.999Z</time></trkpt><trkpt lat="48.586153290788204" lon="-2.2509771397497533"><ele>58.0</ele><time>2026-04-05T08:53:51Z</time></trkpt><trkpt lat="48.586127030748216" lon="-2.250880662861383"><ele>58.00000000000001</ele><time>2026-04-05T08:53:52Z</time></trkpt><trkpt lat="48.5860990985428" lon="-2.250781036314555"><ele>58.00000000000001</ele><time>2026-04-05T08:53:53Z</time></trkpt><trkpt lat="48.586071848879975" lon="-2.2506780765740206"><ele>57.33333333333333</ele><time>2026-04-05T08:53:54Z</time></trkpt><trkpt lat="48.586043152558915" lon="-2.2505793367094884"><ele>56.666666666666664</ele><time>2026-04-05T08:53:55Z</time></trkpt><trkpt lat="48.586014334146306" lon="-2.2504760779622757"><ele>56.0</ele><time>2026-04-05T08:53:56Z</time></trkpt><trkpt lat="48.58598709713529" lon="-2.250374884136382"><ele>55.33333333333333</ele><time>2026-04-05T08:53:57Z</time></trkpt><trkpt lat="48.58596030461431" lon="-2.250266588183878"><ele>54.666666666666664</ele><time>2026-04-05T08:53:58Z</time></trkpt><trkpt lat="48.585928054666226" lon="-2.2501611899064353"><ele>54.0</ele><time>2026-04-05T08:53:59Z</time></trkpt><trkpt lat="48.58589695966478" lon="-2.2500485544089"><ele>54.0</ele><time>2026-04-05T08:54:00Z</time></trkpt><trkpt lat="48.58586525187374" lon="-2.249941837403755"><ele>54.0</ele><time>2026-04-05T08:54:01Z</time></trkpt><trkpt lat="48.58583414271212" lon="-2.2498281023614095"><ele>54.0</ele><time>2026-04-05T08:54:02Z</time></trkpt><trkpt lat="48.58580685408037" lon="-2.2497143876926606"><ele>54.0</ele><time>2026-04-05T08:54:03Z</time></trkpt><trkpt lat="48.58578231313063" lon="-2.2495988361242545"><ele>54.0</ele><time>2026-04-05T08:54:04Z</time></trkpt><trkpt lat="48.58575469121597" lon="-2.249489411186376"><ele>54.0</ele><time>2026-04-05T08:54:05Z</time></trkpt><trkpt lat="48.58571991424895" lon="-2.249380217474015"><ele>53.666666666666664</ele><time>2026-04-05T08:54:06Z</time></trkpt><trkpt lat="48.585683526345946" lon="-2.249290555781046"><ele>53.33333333333333</ele><time>2026-04-05T08:54:07Z</time></trkpt><trkpt lat="48.58566275292797" lon="-2.249184834730629"><ele>53.0</ele><time>2026-04-05T08:54:08Z</time></trkpt><trkpt lat="48.585631681486724" lon="-2.249062703034867"><ele>52.666666666666664</ele><time>2026-04-05T08:54:09Z</time></trkpt><trkpt lat="48.58560263728545" lon="-2.248948950562312"><ele>52.33333333333333</ele><time>2026-04-05T08:54:10Z</time></trkpt><trkpt lat="48.58556972301976" lon="-2.24883914038863"><ele>52.0</ele><time>2026-04-05T08:54:11Z</time></trkpt><trkpt lat="48.58554078055105" lon="-2.248731351174752"><ele>51.99999999999999</ele><time>2026-04-05T08:54:12Z</time></trkpt><trkpt lat="48.585512174467695" lon="-2.2486264868700965"><ele>52.0</ele><time>2026-04-05T08:54:13Z</time></trkpt><trkpt lat="48.58547833514458" lon="-2.2485210130137716"><ele>52.0</ele><time>2026-04-05T08:54:14Z</time></trkpt><trkpt lat="48.585441746355656" lon="-2.2484192878202753"><ele>52.0</ele><time>2026-04-05T08:54:15Z</time></trkpt><trkpt lat="48.58541119641575" lon="-2.248313042931756"><ele>51.99999999999999</ele><time>2026-04-05T08:54:16Z</time></trkpt><trkpt lat="48.58538372148542" lon="-2.2482058500685254"><ele>52.0</ele><time>2026-04-05T08:54:17Z</time></trkpt><trkpt lat="48.58535482658582" lon="-2.248099825262229"><ele>51.857142857142854</ele><time>2026-04-05T08:54:18Z</time></trkpt><trkpt lat="48.58532843893003" lon="-2.247990314437208"><ele>51.714285714285715</ele><time>2026-04-05T08:54:19Z</time></trkpt><trkpt lat="48.585308488687446" lon="-2.247883136102384"><ele>51.57142857142857</ele><time>2026-04-05T08:54:20Z</time></trkpt><trkpt lat="48.58528825573268" lon="-2.2477803749117946"><ele>51.42857142857143</ele><time>2026-04-05T08:54:21Z</time></trkpt><trkpt lat="48.58524899356037" lon="-2.2476823489182594"><ele>51.28571428571429</ele><time>2026-04-05T08:54:22Z</time></trkpt><trkpt lat="48.585230129181234" lon="-2.2475746502780543"><ele>51.142857142857146</ele><time>2026-04-05T08:54:23Z</time></trkpt><trkpt lat="48.58520136800882" lon="-2.247474398358516"><ele>51.0</ele><time>2026-04-05T08:54:24Z</time></trkpt><trkpt lat="48.58516518643802" lon="-2.247376079588713"><ele>51.0</ele><time>2026-04-05T08:54:25Z</time></trkpt><trkpt lat="48.58511757329337" lon="-2.2471924612944556"><ele>51.0</ele><time>2026-04-05T08:54:27Z</time></trkpt><trkpt lat="48.5850699693382" lon="-2.2470210838495683"><ele>51.0</ele><time>2026-04-05T08:54:29Z</time></trkpt><trkpt lat="48.58504843438401" lon="-2.2469174996967314"><ele>51.0</ele><time>2026-04-05T08:54:30Z</time></trkpt><trkpt lat="48.58502903995081" lon="-2.2468209962390313"><ele>51.0</ele><time>2026-04-05T08:54:31Z</time></trkpt><trkpt lat="48.58499236374974" lon="-2.246740548296884"><ele>51.0</ele><time>2026-04-05T08:54:32Z</time></trkpt><trkpt lat="48.58494815232294" lon="-2.246545322612884"><ele>51.0</ele><time>2026-04-05T08:54:34Z</time></trkpt><trkpt lat="48.58489563854817" lon="-2.2463694467952338"><ele>51.0</ele><time>2026-04-05T08:54:36Z</time></trkpt><trkpt lat="48.58487225826574" lon="-2.246263497591088"><ele>51.0</ele><time>2026-04-05T08:54:37Z</time></trkpt><trkpt lat="48.58483154895015" lon="-2.246177748507807"><ele>51.0</ele><time>2026-04-05T08:54:38Z</time></trkpt><trkpt lat="48.584795343359495" lon="-2.2459951069624813"><ele>50.833333333333336</ele><time>2026-04-05T08:54:40Z</time></trkpt><trkpt lat="48.58476664381197" lon="-2.245905621879997"><ele>50.66666666666667</ele><time>2026-04-05T08:54:41Z</time></trkpt><trkpt lat="48.5847296598624" lon="-2.2458106592494915"><ele>50.5</ele><time>2026-04-05T08:54:42Z</time></trkpt><trkpt lat="48.58468874813577" lon="-2.2456500857988106"><ele>50.333333333333336</ele><time>2026-04-05T08:54:44Z</time></trkpt><trkpt lat="48.584667152946245" lon="-2.2455507470300784"><ele>50.16666666666667</ele><time>2026-04-05T08:54:45Z</time></trkpt><trkpt lat="48.584614851556225" lon="-2.245384711364181"><ele>50.0</ele><time>2026-04-05T08:54:47Z</time></trkpt><trkpt lat="48.58457679376324" lon="-2.245210132281241"><ele>50.0</ele><time>2026-04-05T08:54:49Z</time></trkpt><trkpt lat="48.58452770774715" lon="-2.2450563544935878"><ele>50.0</ele><time>2026-04-05T08:54:51Z</time></trkpt><trkpt lat="48.58448369742476" lon="-2.244877505060534"><ele>50.0</ele><time>2026-04-05T08:54:53Z</time></trkpt><trkpt lat="48.584450118018" lon="-2.2447942910885614"><ele>50.0</ele><time>2026-04-05T08:54:54Z</time></trkpt><trkpt lat="48.58443254435851" lon="-2.2446987476156037"><ele>50.0</ele><time>2026-04-05T08:54:55Z</time></trkpt><trkpt lat="48.58437945765955" lon="-2.2445314620568904"><ele>50.6</ele><time>2026-04-05T08:54:57Z</time></trkpt><trkpt lat="48.58433102317476" lon="-2.2443628806034424"><ele>51.2</ele><time>2026-04-05T08:54:59Z</time></trkpt><trkpt lat="48.58428718983306" lon="-2.244205060087332"><ele>51.8</ele><time>2026-04-05T08:55:01Z</time></trkpt><trkpt lat="48.58426247861129" lon="-2.2441164018705364"><ele>52.4</ele><time>2026-04-05T08:55:02Z</time></trkpt><trkpt lat="48.58423025337966" lon="-2.243962544687009"><ele>53.0</ele><time>2026-04-05T08:55:04Z</time></trkpt><trkpt lat="48.58419020555563" lon="-2.2438631103325877"><ele>53.0</ele><time>2026-04-05T08:55:05Z</time></trkpt><trkpt lat="48.58416226855591" lon="-2.2437726552116883"><ele>53.0</ele><time>2026-04-05T08:55:06Z</time></trkpt><trkpt lat="48.58412130489477" lon="-2.2435952087476707"><ele>53.0</ele><time>2026-04-05T08:55:08Z</time></trkpt><trkpt lat="48.584078642445824" lon="-2.243427098662141"><ele>53.0</ele><time>2026-04-05T08:55:10Z</time></trkpt><trkpt lat="48.58403811164057" lon="-2.243276223650746"><ele>53.0</ele><time>2026-04-05T08:55:11.999Z</time></trkpt><trkpt lat="48.5839982620086" lon="-2.2431260806056232"><ele>53.0</ele><time>2026-04-05T08:55:13.999Z</time></trkpt><trkpt lat="48.58395764443695" lon="-2.2429825871983726"><ele>53.0</ele><time>2026-04-05T08:55:15.999Z</time></trkpt><trkpt lat="48.583920539950796" lon="-2.2428295891554515"><ele>53.0</ele><time>2026-04-05T08:55:17.999Z</time></trkpt><trkpt lat="48.58388099574754" lon="-2.24275472587293"><ele>53.0</ele><time>2026-04-05T08:55:18.999Z</time></trkpt><trkpt lat="48.583845793924034" lon="-2.242603947295951"><ele>53.0</ele><time>2026-04-05T08:55:20.999Z</time></trkpt><trkpt lat="48.583805561273394" lon="-2.2424560820375077"><ele>53.00000000000001</ele><time>2026-04-05T08:55:22.999Z</time></trkpt><trkpt lat="48.583770677740446" lon="-2.242327876156447"><ele>53.0</ele><time>2026-04-05T08:55:25.999Z</time></trkpt><trkpt lat="48.58373506890837" lon="-2.2421970046185153"><ele>53.0</ele><time>2026-04-05T08:55:28.999Z</time></trkpt><trkpt lat="48.58372017036803" lon="-2.2420808667439203"><ele>53.0</ele><time>2026-04-05T08:55:30.999Z</time></trkpt><trkpt lat="48.58369090179225" lon="-2.2419840522190104"><ele>53.00000000000001</ele><time>2026-04-05T08:55:32.999Z</time></trkpt><trkpt lat="48.583660263782896" lon="-2.241865956991123"><ele>53.0</ele><time>2026-04-05T08:55:34.999Z</time></trkpt><trkpt lat="48.583622451432525" lon="-2.241786090169745"><ele>55.0</ele><time>2026-04-05T08:55:36.999Z</time></trkpt><trkpt lat="48.58347366694069" lon="-2.241253175672202"><ele>57.0</ele><time>2026-04-05T08:55:39.999Z</time></trkpt><trkpt lat="48.5834330113887" lon="-2.2411070797151766"><ele>57.0</ele><time>2026-04-05T08:55:41.999Z</time></trkpt><trkpt lat="48.583390603448336" lon="-2.2409544793916543"><ele>57.0</ele><time>2026-04-05T08:55:43.999Z</time></trkpt><trkpt lat="48.583348651326546" lon="-2.24080305863587"><ele>57.0</ele><time>2026-04-05T08:55:45.999Z</time></trkpt><trkpt lat="48.58332167214463" lon="-2.2406394289181533"><ele>57.0</ele><time>2026-04-05T08:55:47.999Z</time></trkpt><trkpt lat="48.58327340412434" lon="-2.240485988651482"><ele>57.0</ele><time>2026-04-05T08:55:49.999Z</time></trkpt><trkpt lat="48.58322888990503" lon="-2.2403227860477295"><ele>56.8</ele><time>2026-04-05T08:55:51.999Z</time></trkpt><trkpt lat="48.58318757143267" lon="-2.240184430704605"><ele>56.6</ele><time>2026-04-05T08:55:53.999Z</time></trkpt><trkpt lat="48.58316861591506" lon="-2.240083212601728"><ele>56.39999999999999</ele><time>2026-04-05T08:55:54.999Z</time></trkpt><trkpt lat="48.5831206684477" lon="-2.2399403183997384"><ele>56.199999999999996</ele><time>2026-04-05T08:55:57Z</time></trkpt><trkpt lat="48.58308238702507" lon="-2.2397850156541965"><ele>56.0</ele><time>2026-04-05T08:55:59Z</time></trkpt><trkpt lat="48.58304264680664" lon="-2.2396297668683833"><ele>56.0</ele><time>2026-04-05T08:56:01Z</time></trkpt><trkpt lat="48.58299352883164" lon="-2.239489594312915"><ele>55.99999999999999</ele><time>2026-04-05T08:56:03Z</time></trkpt><trkpt lat="48.58294687971796" lon="-2.2393323312989413"><ele>55.99999999999999</ele><time>2026-04-05T08:56:05Z</time></trkpt><trkpt lat="48.58291929021234" lon="-2.239174360179519"><ele>56.0</ele><time>2026-04-05T08:56:07Z</time></trkpt><trkpt lat="48.58286227825654" lon="-2.2390237368259847"><ele>56.0</ele><time>2026-04-05T08:56:09Z</time></trkpt><trkpt lat="48.58283128727989" lon="-2.238851604750145"><ele>56.199999999999996</ele><time>2026-04-05T08:56:11Z</time></trkpt><trkpt lat="48.58278031163803" lon="-2.238696579903361"><ele>56.39999999999999</ele><time>2026-04-05T08:56:13Z</time></trkpt><trkpt lat="48.5827330812918" lon="-2.2385330181063314"><ele>56.6</ele><time>2026-04-05T08:56:15Z</time></trkpt><trkpt lat="48.582683472845616" lon="-2.2383689554909023"><ele>56.8</ele><time>2026-04-05T08:56:17Z</time></trkpt><trkpt lat="48.58266070266721" lon="-2.2382800019992724"><ele>57.0</ele><time>2026-04-05T08:56:18Z</time></trkpt><trkpt lat="48.58262182277232" lon="-2.2381307934331205"><ele>57.2</ele><time>2026-04-05T08:56:20Z</time></trkpt><trkpt lat="48.582582704676746" lon="-2.2379822760959835"><ele>57.400000000000006</ele><time>2026-04-05T08:56:22Z</time></trkpt><trkpt lat="48.582536240044874" lon="-2.237835905573998"><ele>57.599999999999994</ele><time>2026-04-05T08:56:24Z</time></trkpt><trkpt lat="48.582497755570756" lon="-2.237687670806819"><ele>57.8</ele><time>2026-04-05T08:56:26Z</time></trkpt><trkpt lat="48.5824308262719" lon="-2.237529525675063"><ele>58.0</ele><time>2026-04-05T08:56:29Z</time></trkpt><trkpt lat="48.58239352564783" lon="-2.237379789629492"><ele>57.83333333333333</ele><time>2026-04-05T08:56:31Z</time></trkpt><trkpt lat="48.58234321586843" lon="-2.237273859815124"><ele>57.666666666666664</ele><time>2026-04-05T08:56:33Z</time></trkpt><trkpt lat="48.58229896007153" lon="-2.237169850709881"><ele>57.5</ele><time>2026-04-05T08:56:35Z</time></trkpt><trkpt lat="48.58225355026897" lon="-2.2370689126362775"><ele>57.33333333333333</ele><time>2026-04-05T08:56:37Z</time></trkpt><trkpt lat="48.582239681426906" lon="-2.2369587382930165"><ele>57.166666666666664</ele><time>2026-04-05T08:56:39Z</time></trkpt><trkpt lat="48.582183878945955" lon="-2.236849714619133"><ele>57.0</ele><time>2026-04-05T08:56:41Z</time></trkpt><trkpt lat="48.58212839122946" lon="-2.236735560985002"><ele>57.0</ele><time>2026-04-05T08:56:43Z</time></trkpt><trkpt lat="48.58206727551563" lon="-2.2366141987033963"><ele>57.0</ele><time>2026-04-05T08:56:45Z</time></trkpt><trkpt lat="48.58200843732796" lon="-2.2364548629730616"><ele>57.0</ele><time>2026-04-05T08:56:47Z</time></trkpt><trkpt lat="48.58193041160597" lon="-2.2363355806052976"><ele>57.0</ele><time>2026-04-05T08:56:49Z</time></trkpt><trkpt lat="48.58187961278889" lon="-2.236269605242908"><ele>57.0</ele><time>2026-04-05T08:56:50Z</time></trkpt><trkpt lat="48.581813139970826" lon="-2.2361293643539795"><ele>57.0</ele><time>2026-04-05T08:56:52Z</time></trkpt><trkpt lat="48.58173646708932" lon="-2.236013291486669"><ele>57.0</ele><time>2026-04-05T08:56:54Z</time></trkpt><trkpt lat="48.58169976505392" lon="-2.235927832455712"><ele>57.0</ele><time>2026-04-05T08:56:55Z</time></trkpt><trkpt lat="48.581655534532146" lon="-2.2358568699854042"><ele>57.0</ele><time>2026-04-05T08:56:56Z</time></trkpt><trkpt lat="48.58157638049963" lon="-2.2357040564318837"><ele>57.0</ele><time>2026-04-05T08:56:58Z</time></trkpt><trkpt lat="48.58152179124097" lon="-2.235651800959175"><ele>57.0</ele><time>2026-04-05T08:56:59Z</time></trkpt><trkpt lat="48.58143998378544" lon="-2.2355070533355064"><ele>57.0</ele><time>2026-04-05T08:57:01Z</time></trkpt><trkpt lat="48.5813476962041" lon="-2.235386495305017"><ele>57.0</ele><time>2026-04-05T08:57:03Z</time></trkpt><trkpt lat="48.581298605501175" lon="-2.2353247285952063"><ele>57.0</ele><time>2026-04-05T08:57:04Z</time></trkpt><trkpt lat="48.58120324204734" lon="-2.235202993655923"><ele>57.0</ele><time>2026-04-05T08:57:06Z</time></trkpt><trkpt lat="48.58114974243903" lon="-2.2351508627639216"><ele>57.0</ele><time>2026-04-05T08:57:07Z</time></trkpt><trkpt lat="48.58109756368816" lon="-2.235096839467592"><ele>57.0</ele><time>2026-04-05T08:57:08Z</time></trkpt><trkpt lat="48.58099874085487" lon="-2.2350014173668646"><ele>57.0</ele><time>2026-04-05T08:57:10Z</time></trkpt><trkpt lat="48.580908316711195" lon="-2.234909173880311"><ele>57.0</ele><time>2026-04-05T08:57:12Z</time></trkpt><trkpt lat="48.58082252423135" lon="-2.2348201573864"><ele>57.0</ele><time>2026-04-05T08:57:14Z</time></trkpt><trkpt lat="48.580742261905705" lon="-2.2347443550138415"><ele>57.0</ele><time>2026-04-05T08:57:16Z</time></trkpt><trkpt lat="48.58066655597434" lon="-2.23473388206528"><ele>57.0</ele><time>2026-04-05T08:57:19Z</time></trkpt><trkpt lat="48.58061629106117" lon="-2.2346392399416506"><ele>57.166666666666664</ele><time>2026-04-05T08:57:22.999Z</time></trkpt><trkpt lat="48.580552883720095" lon="-2.234592397637129"><ele>57.33333333333333</ele><time>2026-04-05T08:57:24.999Z</time></trkpt><trkpt lat="48.58047348624207" lon="-2.234528601283536"><ele>57.5</ele><time>2026-04-05T08:57:26.999Z</time></trkpt><trkpt lat="48.58040673399949" lon="-2.234453088774449"><ele>57.666666666666664</ele><time>2026-04-05T08:57:28.999Z</time></trkpt><trkpt lat="48.58032931871341" lon="-2.2343744835087103"><ele>57.83333333333333</ele><time>2026-04-05T08:57:30.999Z</time></trkpt><trkpt lat="48.58024682646901" lon="-2.2342915418097418"><ele>58.0</ele><time>2026-04-05T08:57:32.999Z</time></trkpt><trkpt lat="48.58016366884901" lon="-2.2342040113987274"><ele>57.2</ele><time>2026-04-05T08:57:34.999Z</time></trkpt><trkpt lat="48.580082860186245" lon="-2.2341181097451943"><ele>56.4</ele><time>2026-04-05T08:57:36.999Z</time></trkpt><trkpt lat="48.579983519990165" lon="-2.23402752604871"><ele>55.60000000000001</ele><time>2026-04-05T08:57:38.999Z</time></trkpt><trkpt lat="48.57988627872474" lon="-2.233920008710623"><ele>54.800000000000004</ele><time>2026-04-05T08:57:40.999Z</time></trkpt><trkpt lat="48.579825397986056" lon="-2.2338782133018547"><ele>54.0</ele><time>2026-04-05T08:57:41.999Z</time></trkpt><trkpt lat="48.57977182495274" lon="-2.233826175119807"><ele>53.857142857142854</ele><time>2026-04-05T08:57:42.999Z</time></trkpt><trkpt lat="48.57972418415314" lon="-2.2337561273061266"><ele>53.71428571428571</ele><time>2026-04-05T08:57:43.999Z</time></trkpt><trkpt lat="48.57966844956958" lon="-2.233702034262132"><ele>53.57142857142857</ele><time>2026-04-05T08:57:44.999Z</time></trkpt><trkpt lat="48.57960987211863" lon="-2.2336531326004057"><ele>53.42857142857143</ele><time>2026-04-05T08:57:45.999Z</time></trkpt><trkpt lat="48.57955152516232" lon="-2.2335997088323354"><ele>53.285714285714285</ele><time>2026-04-05T08:57:46.999Z</time></trkpt><trkpt lat="48.57949890247184" lon="-2.2335395934198288"><ele>53.142857142857146</ele><time>2026-04-05T08:57:47.999Z</time></trkpt><trkpt lat="48.57943841841168" lon="-2.2334875827093046"><ele>53.0</ele><time>2026-04-05T08:57:48.999Z</time></trkpt><trkpt lat="48.57937619582794" lon="-2.2334340268573003"><ele>52.714285714285715</ele><time>2026-04-05T08:57:49.999Z</time></trkpt><trkpt lat="48.57931410722891" lon="-2.233380398171471"><ele>52.42857142857142</ele><time>2026-04-05T08:57:50.999Z</time></trkpt><trkpt lat="48.579256651219445" lon="-2.2333236962561474"><ele>52.14285714285714</ele><time>2026-04-05T08:57:51.999Z</time></trkpt><trkpt lat="48.57919880927846" lon="-2.233261584146134"><ele>51.85714285714286</ele><time>2026-04-05T08:57:52.999Z</time></trkpt><trkpt lat="48.57913520220682" lon="-2.2332040587699935"><ele>51.57142857142857</ele><time>2026-04-05T08:57:53.999Z</time></trkpt><trkpt lat="48.57906636900064" lon="-2.2331432165826772"><ele>51.285714285714285</ele><time>2026-04-05T08:57:54.999Z</time></trkpt><trkpt lat="48.57900343572449" lon="-2.2330811427643416"><ele>51.0</ele><time>2026-04-05T08:57:55.999Z</time></trkpt><trkpt lat="48.57894057875089" lon="-2.233019991203157"><ele>51.0</ele><time>2026-04-05T08:57:56.999Z</time></trkpt><trkpt lat="48.57887568695933" lon="-2.23296081131703"><ele>51.0</ele><time>2026-04-05T08:57:57.999Z</time></trkpt><trkpt lat="48.57881173403702" lon="-2.2328982131581427"><ele>51.0</ele><time>2026-04-05T08:57:58.999Z</time></trkpt><trkpt lat="48.57874764492809" lon="-2.2328355580389667"><ele>51.0</ele><time>2026-04-05T08:57:59.999Z</time></trkpt><trkpt lat="48.57868116494662" lon="-2.232776377238993"><ele>51.0</ele><time>2026-04-05T08:58:00.999Z</time></trkpt><trkpt lat="48.578613140841206" lon="-2.232714693429945"><ele>51.0</ele><time>2026-04-05T08:58:01.999Z</time></trkpt><trkpt lat="48.57854836804674" lon="-2.232652750614915"><ele>50.714285714285715</ele><time>2026-04-05T08:58:03Z</time></trkpt><trkpt lat="48.57848620218667" lon="-2.2325895381254495"><ele>50.42857142857143</ele><time>2026-04-05T08:58:04Z</time></trkpt><trkpt lat="48.57842295999293" lon="-2.2325275609053343"><ele>50.14285714285714</ele><time>2026-04-05T08:58:05Z</time></trkpt><trkpt lat="48.57835597750731" lon="-2.2324669208702383"><ele>49.85714285714286</ele><time>2026-04-05T08:58:06Z</time></trkpt><trkpt lat="48.57828928932318" lon="-2.232404191046387"><ele>49.57142857142857</ele><time>2026-04-05T08:58:07Z</time></trkpt><trkpt lat="48.578238813249534" lon="-2.232340795687731"><ele>49.285714285714285</ele><time>2026-04-05T08:58:08Z</time></trkpt><trkpt lat="48.57818019635718" lon="-2.2322723795461026"><ele>49.0</ele><time>2026-04-05T08:58:09Z</time></trkpt><trkpt lat="48.578101488911784" lon="-2.2322025036100586"><ele>48.857142857142854</ele><time>2026-04-05T08:58:10Z</time></trkpt><trkpt lat="48.57803821526842" lon="-2.2321452431899607"><ele>48.714285714285715</ele><time>2026-04-05T08:58:11Z</time></trkpt><trkpt lat="48.577970204834706" lon="-2.232087335108665"><ele>48.57142857142857</ele><time>2026-04-05T08:58:12Z</time></trkpt><trkpt lat="48.57790807694991" lon="-2.2320290649001633"><ele>48.42857142857143</ele><time>2026-04-05T08:58:13Z</time></trkpt><trkpt lat="48.57784041608496" lon="-2.231967330290855"><ele>48.285714285714285</ele><time>2026-04-05T08:58:14Z</time></trkpt><trkpt lat="48.5777824354147" lon="-2.2319074586278806"><ele>48.14285714285714</ele><time>2026-04-05T08:58:15Z</time></trkpt><trkpt lat="48.57771982587207" lon="-2.231851673953878"><ele>48.0</ele><time>2026-04-05T08:58:16Z</time></trkpt><trkpt lat="48.57765729490056" lon="-2.2317906860994485"><ele>47.666666666666664</ele><time>2026-04-05T08:58:17Z</time></trkpt><trkpt lat="48.57760073299498" lon="-2.2317140453614677"><ele>47.333333333333336</ele><time>2026-04-05T08:58:18Z</time></trkpt><trkpt lat="48.57753701232612" lon="-2.231660480504359"><ele>47.0</ele><time>2026-04-05T08:58:19Z</time></trkpt><trkpt lat="48.57747275065692" lon="-2.231602311960696"><ele>46.66666666666667</ele><time>2026-04-05T08:58:20Z</time></trkpt><trkpt lat="48.57741207058394" lon="-2.2315391894660377"><ele>46.333333333333336</ele><time>2026-04-05T08:58:21Z</time></trkpt><trkpt lat="48.57735697973079" lon="-2.2314848689935323"><ele>46.0</ele><time>2026-04-05T08:58:22Z</time></trkpt><trkpt lat="48.57727009393813" lon="-2.2314020628995443"><ele>46.0</ele><time>2026-04-05T08:58:24Z</time></trkpt><trkpt lat="48.57720962788466" lon="-2.2313410969492984"><ele>46.0</ele><time>2026-04-05T08:58:26Z</time></trkpt><trkpt lat="48.57715210878344" lon="-2.2312865008792344"><ele>46.0</ele><time>2026-04-05T08:58:28Z</time></trkpt><trkpt lat="48.57707223337368" lon="-2.231212470203731"><ele>46.0</ele><time>2026-04-05T08:58:30Z</time></trkpt><trkpt lat="48.57698748490033" lon="-2.2311442943965387"><ele>46.0</ele><time>2026-04-05T08:58:32Z</time></trkpt><trkpt lat="48.57688608636339" lon="-2.231040780575695"><ele>45.333333333333336</ele><time>2026-04-05T08:58:34Z</time></trkpt><trkpt lat="48.576779092480066" lon="-2.230942184549733"><ele>44.66666666666667</ele><time>2026-04-05T08:58:36Z</time></trkpt><trkpt lat="48.57672682082764" lon="-2.230886752558165"><ele>44.0</ele><time>2026-04-05T08:58:37Z</time></trkpt><trkpt lat="48.57666727545783" lon="-2.2308348015650057"><ele>43.333333333333336</ele><time>2026-04-05T08:58:38Z</time></trkpt><trkpt lat="48.57661417920619" lon="-2.2307836217521544"><ele>42.666666666666664</ele><time>2026-04-05T08:58:39Z</time></trkpt><trkpt lat="48.57655873790951" lon="-2.2307174854661804"><ele>42.0</ele><time>2026-04-05T08:58:40Z</time></trkpt><trkpt lat="48.576500446528854" lon="-2.2306641401282374"><ele>42.5</ele><time>2026-04-05T08:58:41Z</time></trkpt><trkpt lat="48.57644596489624" lon="-2.2306102098636784"><ele>43.0</ele><time>2026-04-05T08:58:42Z</time></trkpt><trkpt lat="48.57638655148999" lon="-2.2305645981647326"><ele>43.5</ele><time>2026-04-05T08:58:43Z</time></trkpt><trkpt lat="48.576275047317274" lon="-2.2304744754358725"><ele>44.0</ele><time>2026-04-05T08:58:45Z</time></trkpt><trkpt lat="48.57616704151299" lon="-2.2304089791713753"><ele>44.5</ele><time>2026-04-05T08:58:47Z</time></trkpt><trkpt lat="48.57610709254682" lon="-2.2303770426797316"><ele>45.0</ele><time>2026-04-05T08:58:48Z</time></trkpt><trkpt lat="48.57599871966137" lon="-2.2303287450881855"><ele>45.0</ele><time>2026-04-05T08:58:50Z</time></trkpt><trkpt lat="48.57589439620151" lon="-2.230304217239612"><ele>45.0</ele><time>2026-04-05T08:58:52Z</time></trkpt><trkpt lat="48.57579474189557" lon="-2.2302782099162406"><ele>45.0</ele><time>2026-04-05T08:58:54Z</time></trkpt><trkpt lat="48.575687970898706" lon="-2.230254761361742"><ele>45.0</ele><time>2026-04-05T08:58:56Z</time></trkpt><trkpt lat="48.57558887038063" lon="-2.230212554062122"><ele>45.0</ele><time>2026-04-05T08:58:58Z</time></trkpt><trkpt lat="48.57548442584004" lon="-2.2301856965621023"><ele>45.0</ele><time>2026-04-05T08:59:00Z</time></trkpt><trkpt lat="48.5753829651268" lon="-2.2301565908908136"><ele>45.0</ele><time>2026-04-05T08:59:02Z</time></trkpt><trkpt lat="48.57528859719977" lon="-2.2301247766688994"><ele>45.0</ele><time>2026-04-05T08:59:04Z</time></trkpt><trkpt lat="48.575179913065774" lon="-2.2300986539360386"><ele>45.0</ele><time>2026-04-05T08:59:06Z</time></trkpt><trkpt lat="48.5750657882074" lon="-2.2300584906954692"><ele>45.0</ele><time>2026-04-05T08:59:09Z</time></trkpt><trkpt lat="48.57496960413879" lon="-2.23003824596111"><ele>44.5</ele><time>2026-04-05T08:59:13Z</time></trkpt><trkpt lat="48.57488269081221" lon="-2.2300075350421364"><ele>44.0</ele><time>2026-04-05T08:59:16Z</time></trkpt><trkpt lat="48.574802786679356" lon="-2.2299683399093677"><ele>43.5</ele><time>2026-04-05T08:59:19Z</time></trkpt><trkpt lat="48.57473591675154" lon="-2.2299323777939772"><ele>43.0</ele><time>2026-04-05T08:59:21Z</time></trkpt><trkpt lat="48.57466364406788" lon="-2.2299010856806913"><ele>42.5</ele><time>2026-04-05T08:59:27.999Z</time></trkpt><trkpt lat="48.574580965980054" lon="-2.2298943800864053"><ele>42.0</ele><time>2026-04-05T08:59:31.999Z</time></trkpt><trkpt lat="48.574515664132704" lon="-2.2298625740676354"><ele>41.42857142857143</ele><time>2026-04-05T08:59:33.999Z</time></trkpt><trkpt lat="48.57443008165798" lon="-2.229841004850013"><ele>40.85714285714286</ele><time>2026-04-05T08:59:35.999Z</time></trkpt><trkpt lat="48.57435436784468" lon="-2.229810126809329"><ele>40.285714285714285</ele><time>2026-04-05T08:59:37.999Z</time></trkpt><trkpt lat="48.57428157388994" lon="-2.229798705389506"><ele>39.714285714285715</ele><time>2026-04-05T08:59:39.999Z</time></trkpt><trkpt lat="48.57421673106702" lon="-2.2297868028533627"><ele>39.142857142857146</ele><time>2026-04-05T08:59:41.999Z</time></trkpt><trkpt lat="48.574153187593765" lon="-2.229776377019892"><ele>38.57142857142857</ele><time>2026-04-05T09:04:43Z</time></trkpt><trkpt lat="48.574084546294536" lon="-2.2297324184140606"><ele>38.0</ele><time>2026-04-05T09:04:49Z</time></trkpt><trkpt lat="48.573994725693396" lon="-2.229718338433152"><ele>38.714285714285715</ele><time>2026-04-05T09:04:52Z</time></trkpt><trkpt lat="48.57393168649255" lon="-2.229706387422345"><ele>39.42857142857143</ele><time>2026-04-05T09:04:54Z</time></trkpt><trkpt lat="48.573872101285396" lon="-2.2296661129521667"><ele>40.142857142857146</ele><time>2026-04-05T09:04:56Z</time></trkpt><trkpt lat="48.57379888521321" lon="-2.2296314927805816"><ele>40.85714285714286</ele><time>2026-04-05T09:04:58Z</time></trkpt><trkpt lat="48.57372701964573" lon="-2.229597646284216"><ele>41.57142857142857</ele><time>2026-04-05T09:05:00Z</time></trkpt><trkpt lat="48.5736553764586" lon="-2.2295655084644834"><ele>42.28571428571429</ele><time>2026-04-05T09:05:02Z</time></trkpt><trkpt lat="48.57358680595439" lon="-2.229511645047448"><ele>43.0</ele><time>2026-04-05T09:05:04Z</time></trkpt><trkpt lat="48.57352112513098" lon="-2.2294501527199806"><ele>43.0</ele><time>2026-04-05T09:05:06Z</time></trkpt><trkpt lat="48.5734475818745" lon="-2.229401629743577"><ele>43.0</ele><time>2026-04-05T09:05:08Z</time></trkpt><trkpt lat="48.573378289566314" lon="-2.2293279861885447"><ele>43.0</ele><time>2026-04-05T09:05:10Z</time></trkpt><trkpt lat="48.57329789131869" lon="-2.2292703421350906"><ele>43.0</ele><time>2026-04-05T09:05:12Z</time></trkpt><trkpt lat="48.57321401452037" lon="-2.2292050220822914"><ele>43.0</ele><time>2026-04-05T09:05:14Z</time></trkpt><trkpt lat="48.57313040195159" lon="-2.2291580601357923"><ele>43.0</ele><time>2026-04-05T09:05:16Z</time></trkpt><trkpt lat="48.57305108038606" lon="-2.2291071085020677"><ele>43.0</ele><time>2026-04-05T09:05:18Z</time></trkpt><trkpt lat="48.57297128792493" lon="-2.229047521922153"><ele>43.0</ele><time>2026-04-05T09:05:20Z</time></trkpt><trkpt lat="48.572882756372" lon="-2.2289914535859388"><ele>43.0</ele><time>2026-04-05T09:05:22Z</time></trkpt><trkpt lat="48.57279496627324" lon="-2.228904122766691"><ele>43.0</ele><time>2026-04-05T09:05:24Z</time></trkpt><trkpt lat="48.572733212547696" lon="-2.22887584294119"><ele>43.0</ele><time>2026-04-05T09:05:25Z</time></trkpt><trkpt lat="48.572638270118645" lon="-2.2287873337137745"><ele>43.25</ele><time>2026-04-05T09:05:27Z</time></trkpt><trkpt lat="48.5725354063941" lon="-2.2287064118120714"><ele>43.5</ele><time>2026-04-05T09:05:29Z</time></trkpt><trkpt lat="48.572434232514986" lon="-2.2286468429042348"><ele>43.75</ele><time>2026-04-05T09:05:31Z</time></trkpt><trkpt lat="48.57233232835966" lon="-2.2285646022322902"><ele>44.0</ele><time>2026-04-05T09:05:33Z</time></trkpt><trkpt lat="48.57223453488638" lon="-2.228488767213002"><ele>44.0</ele><time>2026-04-05T09:05:35Z</time></trkpt><trkpt lat="48.5721369987852" lon="-2.228398440607652"><ele>44.0</ele><time>2026-04-05T09:05:36.999Z</time></trkpt><trkpt lat="48.57204734389244" lon="-2.2283139434440495"><ele>44.0</ele><time>2026-04-05T09:05:38.999Z</time></trkpt><trkpt lat="48.57196899485658" lon="-2.2282237919979315"><ele>44.0</ele><time>2026-04-05T09:05:40.999Z</time></trkpt><trkpt lat="48.571884560564364" lon="-2.22812360856531"><ele>44.0</ele><time>2026-04-05T09:05:42.999Z</time></trkpt><trkpt lat="48.57182182256387" lon="-2.2279923654705986"><ele>43.400000000000006</ele><time>2026-04-05T09:05:44.999Z</time></trkpt><trkpt lat="48.57176722550661" lon="-2.227867881202602"><ele>42.8</ele><time>2026-04-05T09:05:46.999Z</time></trkpt><trkpt lat="48.57172490001278" lon="-2.2277085238131478"><ele>42.2</ele><time>2026-04-05T09:05:48.999Z</time></trkpt><trkpt lat="48.57170009826156" lon="-2.227618403350183"><ele>41.599999999999994</ele><time>2026-04-05T09:05:49.999Z</time></trkpt><trkpt lat="48.571691057691964" lon="-2.227434389867087"><ele>41.0</ele><time>2026-04-05T09:05:51.999Z</time></trkpt><trkpt lat="48.571674549660486" lon="-2.2272632200776608"><ele>41.0</ele><time>2026-04-05T09:05:53.999Z</time></trkpt><trkpt lat="48.571669227634125" lon="-2.227077557015295"><ele>41.0</ele><time>2026-04-05T09:05:55.999Z</time></trkpt><trkpt lat="48.571670828076925" lon="-2.2268808340087096"><ele>41.0</ele><time>2026-04-05T09:05:57.999Z</time></trkpt><trkpt lat="48.57166296577014" lon="-2.2267059271803986"><ele>41.0</ele><time>2026-04-05T09:05:59.999Z</time></trkpt><trkpt lat="48.57165910418018" lon="-2.2266042322836443"><ele>41.0</ele><time>2026-04-05T09:06:00.999Z</time></trkpt><trkpt lat="48.5716602120036" lon="-2.2264930073767895"><ele>40.99999999999999</ele><time>2026-04-05T09:06:01.999Z</time></trkpt><trkpt lat="48.57165579889184" lon="-2.226388196074841"><ele>41.0</ele><time>2026-04-05T09:06:02.999Z</time></trkpt><trkpt lat="48.57165843824505" lon="-2.2262770465688573"><ele>41.0</ele><time>2026-04-05T09:06:03.999Z</time></trkpt><trkpt lat="48.57165928879494" lon="-2.226166138045539"><ele>41.0</ele><time>2026-04-05T09:06:04.999Z</time></trkpt><trkpt lat="48.57165477696002" lon="-2.226063386506053"><ele>41.0</ele><time>2026-04-05T09:06:05.999Z</time></trkpt><trkpt lat="48.57165414805677" lon="-2.225958104736374"><ele>40.99999999999999</ele><time>2026-04-05T09:06:06.999Z</time></trkpt><trkpt lat="48.57165982003031" lon="-2.2258495795398163"><ele>41.0</ele><time>2026-04-05T09:06:07.999Z</time></trkpt><trkpt lat="48.571686081335976" lon="-2.225734165910745"><ele>39.666666666666664</ele><time>2026-04-05T09:06:08.999Z</time></trkpt><trkpt lat="48.57170156336093" lon="-2.2256396510203533"><ele>38.33333333333333</ele><time>2026-04-05T09:06:09.999Z</time></trkpt><trkpt lat="48.57169342630847" lon="-2.225484134708757"><ele>37.0</ele><time>2026-04-05T09:06:11.999Z</time></trkpt><trkpt lat="48.57170246806838" lon="-2.2253527268626434"><ele>35.666666666666664</ele><time>2026-04-05T09:06:13.999Z</time></trkpt><trkpt lat="48.571766150136746" lon="-2.225193424072285"><ele>34.333333333333336</ele><time>2026-04-05T09:06:15.999Z</time></trkpt><trkpt lat="48.57178479821431" lon="-2.2250914360512843"><ele>33.0</ele><time>2026-04-05T09:06:16.999Z</time></trkpt><trkpt lat="48.57181185450285" lon="-2.225004209703048"><ele>33.0</ele><time>2026-04-05T09:06:17.999Z</time></trkpt><trkpt lat="48.57185804932462" lon="-2.224824599283477"><ele>33.0</ele><time>2026-04-05T09:06:19.999Z</time></trkpt><trkpt lat="48.571900342412974" lon="-2.2247165947599385"><ele>33.0</ele><time>2026-04-05T09:06:21.999Z</time></trkpt><trkpt lat="48.57195029108625" lon="-2.224620359067452"><ele>33.0</ele><time>2026-04-05T09:06:25.999Z</time></trkpt><trkpt lat="48.57201371773403" lon="-2.224526259550656"><ele>33.0</ele><time>2026-04-05T09:06:29Z</time></trkpt><trkpt lat="48.57209009921021" lon="-2.224403127731658"><ele>33.199999999999996</ele><time>2026-04-05T09:06:31Z</time></trkpt><trkpt lat="48.57216737350877" lon="-2.22427509325059"><ele>33.4</ele><time>2026-04-05T09:06:33Z</time></trkpt><trkpt lat="48.5722609279528" lon="-2.224162229512938"><ele>33.599999999999994</ele><time>2026-04-05T09:06:35Z</time></trkpt><trkpt lat="48.572328970692055" lon="-2.224024909213995"><ele>33.8</ele><time>2026-04-05T09:06:37Z</time></trkpt><trkpt lat="48.57235518135419" lon="-2.2239207044649034"><ele>34.0</ele><time>2026-04-05T09:06:38Z</time></trkpt><trkpt lat="48.57238494983419" lon="-2.2238310461036934"><ele>34.0</ele><time>2026-04-05T09:06:39Z</time></trkpt><trkpt lat="48.572426299596486" lon="-2.223656893962529"><ele>34.0</ele><time>2026-04-05T09:06:41Z</time></trkpt><trkpt lat="48.57246228604254" lon="-2.223488455513759"><ele>34.0</ele><time>2026-04-05T09:06:43Z</time></trkpt><trkpt lat="48.572491281170734" lon="-2.2233285402367713"><ele>34.0</ele><time>2026-04-05T09:06:45Z</time></trkpt><trkpt lat="48.57249740042179" lon="-2.2231393199520415"><ele>33.6</ele><time>2026-04-05T09:06:47Z</time></trkpt><trkpt lat="48.57249110976531" lon="-2.222954698841098"><ele>33.2</ele><time>2026-04-05T09:06:49Z</time></trkpt><trkpt lat="48.57246396022229" lon="-2.2227714392849958"><ele>32.800000000000004</ele><time>2026-04-05T09:06:51Z</time></trkpt><trkpt lat="48.57243378003663" lon="-2.2226821542684863"><ele>32.4</ele><time>2026-04-05T09:06:52Z</time></trkpt><trkpt lat="48.57240037556511" lon="-2.222584669858229"><ele>32.0</ele><time>2026-04-05T09:06:53Z</time></trkpt><trkpt lat="48.57237481528238" lon="-2.222489613832284"><ele>31.999999999999996</ele><time>2026-04-05T09:06:54Z</time></trkpt><trkpt lat="48.57235675472366" lon="-2.2223869113871664"><ele>32.0</ele><time>2026-04-05T09:06:55Z</time></trkpt><trkpt lat="48.572336805534306" lon="-2.222284570156501"><ele>32.0</ele><time>2026-04-05T09:06:56Z</time></trkpt><trkpt lat="48.572308362027606" lon="-2.222189349336505"><ele>32.0</ele><time>2026-04-05T09:06:57Z</time></trkpt><trkpt lat="48.57227049971739" lon="-2.222017758192125"><ele>31.999999999999996</ele><time>2026-04-05T09:06:59Z</time></trkpt><trkpt lat="48.57223928249406" lon="-2.221846489424068"><ele>32.0</ele><time>2026-04-05T09:07:01Z</time></trkpt><trkpt lat="48.57221851807494" lon="-2.2217510635836892"><ele>31.857142857142854</ele><time>2026-04-05T09:07:02Z</time></trkpt><trkpt lat="48.57219706739929" lon="-2.2216554051379034"><ele>31.71428571428571</ele><time>2026-04-05T09:07:03Z</time></trkpt><trkpt lat="48.57218242309176" lon="-2.221546710753036"><ele>31.57142857142857</ele><time>2026-04-05T09:07:04Z</time></trkpt><trkpt lat="48.57217391236834" lon="-2.2214347078285543"><ele>31.42857142857143</ele><time>2026-04-05T09:07:05Z</time></trkpt><trkpt lat="48.57216129873591" lon="-2.2213192135276243"><ele>31.28571428571429</ele><time>2026-04-05T09:07:06Z</time></trkpt><trkpt lat="48.57217135241557" lon="-2.2212102993147873"><ele>31.142857142857146</ele><time>2026-04-05T09:07:07Z</time></trkpt><trkpt lat="48.57219001623521" lon="-2.2210974583845284"><ele>31.0</ele><time>2026-04-05T09:07:08Z</time></trkpt><trkpt lat="48.57218541852983" lon="-2.2209950068031623"><ele>30.500000000000004</ele><time>2026-04-05T09:07:09Z</time></trkpt><trkpt lat="48.57219829638849" lon="-2.2207978092474825"><ele>30.0</ele><time>2026-04-05T09:07:11Z</time></trkpt><trkpt lat="48.572216871009246" lon="-2.220687590179628"><ele>29.5</ele><time>2026-04-05T09:07:12Z</time></trkpt><trkpt lat="48.57223585207898" lon="-2.2205836892546698"><ele>29.0</ele><time>2026-04-05T09:07:13Z</time></trkpt><trkpt lat="48.57225280352984" lon="-2.220479490607308"><ele>28.500000000000004</ele><time>2026-04-05T09:07:14Z</time></trkpt><trkpt lat="48.57227656252107" lon="-2.22037274761212"><ele>28.0</ele><time>2026-04-05T09:07:15Z</time></trkpt><trkpt lat="48.57230635669717" lon="-2.2202775054028296"><ele>27.285714285714285</ele><time>2026-04-05T09:07:16Z</time></trkpt><trkpt lat="48.57234080985842" lon="-2.220190860893986"><ele>26.57142857142857</ele><time>2026-04-05T09:07:17Z</time></trkpt><trkpt lat="48.57239694952662" lon="-2.220097387019221"><ele>25.857142857142858</ele><time>2026-04-05T09:07:18Z</time></trkpt><trkpt lat="48.572437030637616" lon="-2.2200075869579834"><ele>25.142857142857142</ele><time>2026-04-05T09:07:19Z</time></trkpt><trkpt lat="48.57247122146794" lon="-2.219918587275193"><ele>24.428571428571427</ele><time>2026-04-05T09:07:20Z</time></trkpt><trkpt lat="48.572511178171965" lon="-2.2198240587804166"><ele>23.714285714285715</ele><time>2026-04-05T09:07:21Z</time></trkpt><trkpt lat="48.57255079367308" lon="-2.2197416906880996"><ele>23.0</ele><time>2026-04-05T09:07:22Z</time></trkpt><trkpt lat="48.57259916788637" lon="-2.2196581666037334"><ele>23.666666666666668</ele><time>2026-04-05T09:07:23Z</time></trkpt><trkpt lat="48.57269443433295" lon="-2.2195413075693233"><ele>24.333333333333336</ele><time>2026-04-05T09:07:25Z</time></trkpt><trkpt lat="48.5727467828932" lon="-2.2194840227940587"><ele>25.0</ele><time>2026-04-05T09:07:26Z</time></trkpt><trkpt lat="48.572837701693466" lon="-2.219371718656527"><ele>25.666666666666668</ele><time>2026-04-05T09:07:28Z</time></trkpt><trkpt lat="48.57288710819499" lon="-2.2193111688003504"><ele>26.333333333333332</ele><time>2026-04-05T09:07:29Z</time></trkpt><trkpt lat="48.57294820698627" lon="-2.219268805871962"><ele>27.0</ele><time>2026-04-05T09:07:30Z</time></trkpt><trkpt lat="48.573003456404464" lon="-2.219211489608755"><ele>27.0</ele><time>2026-04-05T09:07:31Z</time></trkpt><trkpt lat="48.573066817756846" lon="-2.2191617906042684"><ele>27.0</ele><time>2026-04-05T09:07:32Z</time></trkpt><trkpt lat="48.57311629483398" lon="-2.219094345190254"><ele>27.0</ele><time>2026-04-05T09:07:33Z</time></trkpt><trkpt lat="48.5731640169831" lon="-2.2190249906155297"><ele>27.0</ele><time>2026-04-05T09:07:34Z</time></trkpt><trkpt lat="48.573217887165896" lon="-2.2189619612018863"><ele>27.0</ele><time>2026-04-05T09:07:35Z</time></trkpt><trkpt lat="48.57327898097528" lon="-2.2188920303872877"><ele>27.0</ele><time>2026-04-05T09:07:36Z</time></trkpt><trkpt lat="48.573340770769526" lon="-2.21883100528517"><ele>27.0</ele><time>2026-04-05T09:07:37Z</time></trkpt><trkpt lat="48.573391119673275" lon="-2.2187525455530643"><ele>26.57142857142857</ele><time>2026-04-05T09:07:38Z</time></trkpt><trkpt lat="48.57344537613678" lon="-2.2186787998305286"><ele>26.142857142857142</ele><time>2026-04-05T09:07:39Z</time></trkpt><trkpt lat="48.573501089344894" lon="-2.218607304348861"><ele>25.714285714285715</ele><time>2026-04-05T09:07:40Z</time></trkpt><trkpt lat="48.57354866757685" lon="-2.218528037949596"><ele>25.285714285714285</ele><time>2026-04-05T09:07:41Z</time></trkpt><trkpt lat="48.573599101245115" lon="-2.21845085656108"><ele>24.857142857142858</ele><time>2026-04-05T09:07:42Z</time></trkpt><trkpt lat="48.573641112884296" lon="-2.218368976912635"><ele>24.428571428571427</ele><time>2026-04-05T09:07:43Z</time></trkpt><trkpt lat="48.57368898069374" lon="-2.2182878527095085"><ele>24.0</ele><time>2026-04-05T09:07:44Z</time></trkpt><trkpt lat="48.57373462578105" lon="-2.218200285168075"><ele>23.0</ele><time>2026-04-05T09:07:45Z</time></trkpt><trkpt lat="48.573769286174425" lon="-2.2181077623517926"><ele>22.0</ele><time>2026-04-05T09:07:46Z</time></trkpt><trkpt lat="48.57380354046255" lon="-2.218011423610871"><ele>21.0</ele><time>2026-04-05T09:07:47Z</time></trkpt><trkpt lat="48.573840307266515" lon="-2.2179078911081325"><ele>20.0</ele><time>2026-04-05T09:07:48Z</time></trkpt><trkpt lat="48.57387464381368" lon="-2.2178028697244354"><ele>19.0</ele><time>2026-04-05T09:07:49Z</time></trkpt><trkpt lat="48.57390901582453" lon="-2.2176968064649456"><ele>18.0</ele><time>2026-04-05T09:07:50Z</time></trkpt><trkpt lat="48.5739415345177" lon="-2.2175918190062927"><ele>18.0</ele><time>2026-04-05T09:07:50.999Z</time></trkpt><trkpt lat="48.5739662314801" lon="-2.2174866856694417"><ele>18.0</ele><time>2026-04-05T09:07:51.999Z</time></trkpt><trkpt lat="48.5739989659929" lon="-2.2173789786868947"><ele>18.0</ele><time>2026-04-05T09:07:52.999Z</time></trkpt><trkpt lat="48.5740313991342" lon="-2.2172677265840304"><ele>18.0</ele><time>2026-04-05T09:07:53.999Z</time></trkpt><trkpt lat="48.57406092823014" lon="-2.217176232828934"><ele>18.0</ele><time>2026-04-05T09:07:54.999Z</time></trkpt><trkpt lat="48.57407664583847" lon="-2.217075776884476"><ele>18.0</ele><time>2026-04-05T09:07:55.999Z</time></trkpt><trkpt lat="48.5740907994819" lon="-2.2169302681273892"><ele>17.8</ele><time>2026-04-05T09:07:57.999Z</time></trkpt><trkpt lat="48.57412556580033" lon="-2.2167993185628054"><ele>17.6</ele><time>2026-04-05T09:08:00.999Z</time></trkpt><trkpt lat="48.5741845761021" lon="-2.2166905113611888"><ele>17.4</ele><time>2026-04-05T09:08:02.999Z</time></trkpt><trkpt lat="48.574205410410556" lon="-2.21651452982771"><ele>17.2</ele><time>2026-04-05T09:08:04.999Z</time></trkpt><trkpt lat="48.57425623222192" lon="-2.2163753009324387"><ele>17.0</ele><time>2026-04-05T09:08:06.999Z</time></trkpt><trkpt lat="48.574279419747825" lon="-2.2162310070177496"><ele>16.2</ele><time>2026-04-05T09:08:08.999Z</time></trkpt><trkpt lat="48.57430932125016" lon="-2.2160796368049436"><ele>15.399999999999999</ele><time>2026-04-05T09:08:10.999Z</time></trkpt><trkpt lat="48.574324248737476" lon="-2.21592004916926"><ele>14.600000000000001</ele><time>2026-04-05T09:08:12.999Z</time></trkpt><trkpt lat="48.57432505364934" lon="-2.215755116393479"><ele>13.8</ele><time>2026-04-05T09:08:17.999Z</time></trkpt><trkpt lat="48.574306834052" lon="-2.2155844898177874"><ele>13.0</ele><time>2026-04-05T09:08:18.999Z</time></trkpt><trkpt lat="48.57428145720127" lon="-2.2154336473634477"><ele>12.600000000000001</ele><time>2026-04-05T09:08:19.999Z</time></trkpt><trkpt lat="48.57423939060915" lon="-2.2152904529692"><ele>12.200000000000001</ele><time>2026-04-05T09:08:21.999Z</time></trkpt><trkpt lat="48.57418283938184" lon="-2.2151470404459954"><ele>11.8</ele><time>2026-04-05T09:08:23.999Z</time></trkpt><trkpt lat="48.574176945211704" lon="-2.215004195910986"><ele>11.4</ele><time>2026-04-05T09:08:25.999Z</time></trkpt><trkpt lat="48.57426247376493" lon="-2.2149087378024417"><ele>11.0</ele><time>2026-04-05T09:08:27.999Z</time></trkpt><trkpt lat="48.57432979749614" lon="-2.2148453052313717"><ele>11.0</ele><time>2026-04-05T09:08:30.999Z</time></trkpt><trkpt lat="48.57428122419805" lon="-2.2149902236546883"><ele>11.0</ele><time>2026-04-05T09:08:39Z</time></trkpt><trkpt lat="48.57430373091806" lon="-2.214869994938884"><ele>11.0</ele><time>2026-04-05T09:09:00Z</time></trkpt><trkpt lat="48.57436677119984" lon="-2.2147782381849535"><ele>11.0</ele><time>2026-04-05T09:09:02Z</time></trkpt><trkpt lat="48.57441662927384" lon="-2.2146873012088344"><ele>11.0</ele><time>2026-04-05T09:09:04Z</time></trkpt><trkpt lat="48.57444199278776" lon="-2.214598383069663"><ele>11.0</ele><time>2026-04-05T09:09:06Z</time></trkpt><trkpt lat="48.57444923806327" lon="-2.214499922321542"><ele>9.8</ele><time>2026-04-05T09:09:08Z</time></trkpt><trkpt lat="48.57438134987952" lon="-2.2143980025788905"><ele>8.600000000000001</ele><time>2026-04-05T09:09:11Z</time></trkpt><trkpt lat="48.574295486744205" lon="-2.214331037451308"><ele>7.4</ele><time>2026-04-05T09:09:13Z</time></trkpt><trkpt lat="48.57419579922612" lon="-2.2142514042020096"><ele>6.2</ele><time>2026-04-05T09:09:15Z</time></trkpt><trkpt lat="48.57410155551839" lon="-2.2141607356111512"><ele>5.0</ele><time>2026-04-05T09:09:17Z</time></trkpt><trkpt lat="48.57399140889048" lon="-2.214099927350023"><ele>5.0</ele><time>2026-04-05T09:09:19Z</time></trkpt><trkpt lat="48.57393388963529" lon="-2.214058004372791"><ele>5.0</ele><time>2026-04-05T09:09:20Z</time></trkpt><trkpt lat="48.573882049294255" lon="-2.213998824126904"><ele>5.0</ele><time>2026-04-05T09:09:21Z</time></trkpt><trkpt lat="48.57382469974444" lon="-2.2139563103355973"><ele>5.0</ele><time>2026-04-05T09:09:22Z</time></trkpt><trkpt lat="48.57376817425303" lon="-2.213911841633022"><ele>5.0</ele><time>2026-04-05T09:09:23Z</time></trkpt><trkpt lat="48.57370721812827" lon="-2.2138740114345334"><ele>5.0</ele><time>2026-04-05T09:09:24Z</time></trkpt><trkpt lat="48.57364748711563" lon="-2.2138345859989896"><ele>5.0</ele><time>2026-04-05T09:09:25Z</time></trkpt><trkpt lat="48.57358398232836" lon="-2.2137942815156704"><ele>4.714285714285714</ele><time>2026-04-05T09:09:26Z</time></trkpt><trkpt lat="48.57352686073149" lon="-2.2137513678109553"><ele>4.428571428571429</ele><time>2026-04-05T09:09:27Z</time></trkpt><trkpt lat="48.57346901792649" lon="-2.2137136390041987"><ele>4.142857142857142</ele><time>2026-04-05T09:09:28Z</time></trkpt><trkpt lat="48.57340999165103" lon="-2.213673565109363"><ele>3.8571428571428568</ele><time>2026-04-05T09:09:29Z</time></trkpt><trkpt lat="48.57329094630614" lon="-2.2136036574053004"><ele>3.571428571428571</ele><time>2026-04-05T09:09:31Z</time></trkpt><trkpt lat="48.57323395268526" lon="-2.213559148064194"><ele>3.2857142857142856</ele><time>2026-04-05T09:09:32Z</time></trkpt><trkpt lat="48.573175851110186" lon="-2.21351846989078"><ele>3.0</ele><time>2026-04-05T09:09:33Z</time></trkpt><trkpt lat="48.57311786880248" lon="-2.2134711484342002"><ele>2.9999999999999996</ele><time>2026-04-05T09:09:34Z</time></trkpt><trkpt lat="48.57305879923306" lon="-2.2134279820203946"><ele>3.0</ele><time>2026-04-05T09:09:35Z</time></trkpt><trkpt lat="48.57299930258681" lon="-2.2133817733032304"><ele>3.0</ele><time>2026-04-05T09:09:36Z</time></trkpt><trkpt lat="48.57293987421493" lon="-2.213337748405527"><ele>3.0</ele><time>2026-04-05T09:09:37Z</time></trkpt><trkpt lat="48.57288104993823" lon="-2.2132949727102997"><ele>3.0</ele><time>2026-04-05T09:09:38Z</time></trkpt><trkpt lat="48.57282144315226" lon="-2.213262566523524"><ele>2.9999999999999996</ele><time>2026-04-05T09:09:39Z</time></trkpt><trkpt lat="48.5727576374471" lon="-2.213225549297443"><ele>3.0</ele><time>2026-04-05T09:09:40Z</time></trkpt><trkpt lat="48.5726968145616" lon="-2.213181577228845"><ele>4.2</ele><time>2026-04-05T09:09:41Z</time></trkpt><trkpt lat="48.57263870563941" lon="-2.213135676360635"><ele>5.4</ele><time>2026-04-05T09:09:42Z</time></trkpt><trkpt lat="48.572530460382474" lon="-2.2130379743641106"><ele>6.6000000000000005</ele><time>2026-04-05T09:09:44Z</time></trkpt><trkpt lat="48.57247282180026" lon="-2.2129975535803497"><ele>7.8</ele><time>2026-04-05T09:09:45Z</time></trkpt><trkpt lat="48.57235292970566" lon="-2.2129417970237744"><ele>9.0</ele><time>2026-04-05T09:09:47Z</time></trkpt><trkpt lat="48.57224411150127" lon="-2.2128561173398706"><ele>9.0</ele><time>2026-04-05T09:09:49Z</time></trkpt><trkpt lat="48.57213395056455" lon="-2.212793288582728"><ele>9.0</ele><time>2026-04-05T09:09:51Z</time></trkpt><trkpt lat="48.57204200619031" lon="-2.2127303314896585"><ele>9.0</ele><time>2026-04-05T09:09:53Z</time></trkpt><trkpt lat="48.57195764640432" lon="-2.212679099418147"><ele>9.0</ele><time>2026-04-05T09:09:55Z</time></trkpt><trkpt lat="48.57189094064927" lon="-2.2126471081310517"><ele>9.0</ele><time>2026-04-05T09:09:57Z</time></trkpt><trkpt lat="48.571830655576235" lon="-2.2126141272090374"><ele>9.0</ele><time>2026-04-05T09:10:02.999Z</time></trkpt><trkpt lat="48.571856819078185" lon="-2.212508455197392"><ele>9.4</ele><time>2026-04-05T09:10:16.999Z</time></trkpt><trkpt lat="48.571783253742126" lon="-2.212557887245435"><ele>9.8</ele><time>2026-04-05T09:19:12Z</time></trkpt><trkpt lat="48.57169883795284" lon="-2.2125512949468855"><ele>10.200000000000001</ele><time>2026-04-05T09:19:15Z</time></trkpt><trkpt lat="48.571771349695936" lon="-2.212268684572103"><ele>10.600000000000001</ele><time>2026-04-05T09:19:30Z</time></trkpt><trkpt lat="48.57180852582104" lon="-2.2121853620574896"><ele>11.0</ele><time>2026-04-05T09:19:31Z</time></trkpt><trkpt lat="48.57185079576731" lon="-2.2120981547797487"><ele>11.0</ele><time>2026-04-05T09:19:32Z</time></trkpt><trkpt lat="48.5718877528498" lon="-2.2120127874477045"><ele>11.0</ele><time>2026-04-05T09:19:33Z</time></trkpt><trkpt lat="48.57192338899023" lon="-2.2119170329323494"><ele>11.0</ele><time>2026-04-05T09:19:34Z</time></trkpt><trkpt lat="48.5719591658534" lon="-2.2118197775762014"><ele>11.0</ele><time>2026-04-05T09:19:35Z</time></trkpt><trkpt lat="48.571993191092204" lon="-2.211730756411612"><ele>11.0</ele><time>2026-04-05T09:19:36Z</time></trkpt><trkpt lat="48.57207590996706" lon="-2.2115959387538657"><ele>11.0</ele><time>2026-04-05T09:19:38Z</time></trkpt><trkpt lat="48.57213005864476" lon="-2.2115221103900495"><ele>12.333333333333332</ele><time>2026-04-05T09:19:39Z</time></trkpt><trkpt lat="48.572188919157234" lon="-2.21147303241029"><ele>13.666666666666666</ele><time>2026-04-05T09:19:40Z</time></trkpt><trkpt lat="48.57224573135069" lon="-2.211422760076685"><ele>15.0</ele><time>2026-04-05T09:19:41Z</time></trkpt><trkpt lat="48.57230823272685" lon="-2.2114413027988933"><ele>16.333333333333332</ele><time>2026-04-05T09:19:42Z</time></trkpt><trkpt lat="48.572394332700455" lon="-2.2114056965118065"><ele>17.666666666666664</ele><time>2026-04-05T09:19:44Z</time></trkpt><trkpt lat="48.57249543944944" lon="-2.2114053939193288"><ele>19.0</ele><time>2026-04-05T09:19:47Z</time></trkpt><trkpt lat="48.57257214831325" lon="-2.2113772178027022"><ele>19.0</ele><time>2026-04-05T09:19:50Z</time></trkpt><trkpt lat="48.57268225889426" lon="-2.211328479889089"><ele>19.0</ele><time>2026-04-05T09:19:54Z</time></trkpt><trkpt lat="48.57276224167637" lon="-2.211260025817812"><ele>19.0</ele><time>2026-04-05T09:19:57Z</time></trkpt><trkpt lat="48.572854887489186" lon="-2.21123728764144"><ele>19.0</ele><time>2026-04-05T09:20:00Z</time></trkpt><trkpt lat="48.57293092029909" lon="-2.211199470456508"><ele>19.0</ele><time>2026-04-05T09:20:03Z</time></trkpt><trkpt lat="48.57294454442611" lon="-2.2110808454559048"><ele>17.4</ele><time>2026-04-05T09:20:06Z</time></trkpt><trkpt lat="48.57295542284661" lon="-2.2109715100259524"><ele>15.799999999999999</ele><time>2026-04-05T09:20:09Z</time></trkpt><trkpt lat="48.57293452344225" lon="-2.2108720109806916"><ele>14.2</ele><time>2026-04-05T09:20:13Z</time></trkpt><trkpt lat="48.57290482604949" lon="-2.2105417324943466"><ele>12.600000000000001</ele><time>2026-04-05T09:20:25Z</time></trkpt><trkpt lat="48.57289365692743" lon="-2.210447590300484"><ele>11.0</ele><time>2026-04-05T09:20:30Z</time></trkpt><trkpt lat="48.572879979559154" lon="-2.2103463957132092"><ele>11.0</ele><time>2026-04-05T09:20:34Z</time></trkpt><trkpt lat="48.572869630841026" lon="-2.2102499307246677"><ele>11.0</ele><time>2026-04-05T09:20:37Z</time></trkpt><trkpt lat="48.57285208396046" lon="-2.2101558047329926"><ele>11.0</ele><time>2026-04-05T09:20:41Z</time></trkpt><trkpt lat="48.57286507064939" lon="-2.2100600650764517"><ele>11.0</ele><time>2026-04-05T09:20:44Z</time></trkpt><trkpt lat="48.57288274718995" lon="-2.2099353092488823"><ele>11.0</ele><time>2026-04-05T09:20:47Z</time></trkpt><trkpt lat="48.57287828598323" lon="-2.209828333925576"><ele>11.0</ele><time>2026-04-05T09:20:50Z</time></trkpt><trkpt lat="48.57290263911539" lon="-2.2096830603266127"><ele>11.0</ele><time>2026-04-05T09:20:54Z</time></trkpt><trkpt lat="48.57291648995467" lon="-2.209544381909524"><ele>12.0</ele><time>2026-04-05T09:20:57Z</time></trkpt><trkpt lat="48.57293048955359" lon="-2.209402803651365"><ele>13.0</ele><time>2026-04-05T09:21:00Z</time></trkpt><trkpt lat="48.57292136492613" lon="-2.209307201685835"><ele>14.0</ele><time>2026-04-05T09:21:02Z</time></trkpt><trkpt lat="48.57291329540217" lon="-2.2092111375865517"><ele>15.0</ele><time>2026-04-05T09:21:04Z</time></trkpt><trkpt lat="48.57290948903381" lon="-2.2091090973768033"><ele>16.0</ele><time>2026-04-05T09:21:06Z</time></trkpt><trkpt lat="48.57289702937331" lon="-2.209001354209043"><ele>17.000000000000004</ele><time>2026-04-05T09:21:08Z</time></trkpt><trkpt lat="48.57288296583359" lon="-2.208877660684525"><ele>18.0</ele><time>2026-04-05T09:21:10Z</time></trkpt><trkpt lat="48.57287618849404" lon="-2.2087419891839075"><ele>18.4</ele><time>2026-04-05T09:21:12Z</time></trkpt><trkpt lat="48.572897228536235" lon="-2.208597771451755"><ele>18.8</ele><time>2026-04-05T09:21:14Z</time></trkpt><trkpt lat="48.57286998557966" lon="-2.208488612384108"><ele>19.2</ele><time>2026-04-05T09:21:16Z</time></trkpt><trkpt lat="48.57284431235499" lon="-2.208338060066802"><ele>19.6</ele><time>2026-04-05T09:21:18Z</time></trkpt><trkpt lat="48.572812316000494" lon="-2.208236132362295"><ele>20.0</ele><time>2026-04-05T09:21:20Z</time></trkpt><trkpt lat="48.572998532917794" lon="-2.208207056266933"><ele>20.0</ele><time>2026-04-05T09:21:36Z</time></trkpt><trkpt lat="48.57307862226109" lon="-2.2081960211775606"><ele>20.0</ele><time>2026-04-05T09:21:56Z</time></trkpt><trkpt lat="48.573149333467605" lon="-2.2081279615145784"><ele>20.0</ele><time>2026-04-05T09:22:01Z</time></trkpt><trkpt lat="48.57322480105297" lon="-2.20809660919257"><ele>20.0</ele><time>2026-04-05T09:22:06Z</time></trkpt><trkpt lat="48.57325293223653" lon="-2.2080066069777518"><ele>20.0</ele><time>2026-04-05T09:22:12Z</time></trkpt><trkpt lat="48.57324411615757" lon="-2.2078962806197318"><ele>20.0</ele><time>2026-04-05T09:22:15Z</time></trkpt><trkpt lat="48.57322757905737" lon="-2.2077903243099004"><ele>20.666666666666668</ele><time>2026-04-05T09:22:19Z</time></trkpt><trkpt lat="48.57324078059609" lon="-2.2076714728089843"><ele>21.333333333333336</ele><time>2026-04-05T09:22:22Z</time></trkpt><trkpt lat="48.573253516834264" lon="-2.2075488994616843"><ele>22.0</ele><time>2026-04-05T09:22:25Z</time></trkpt><trkpt lat="48.57327726349806" lon="-2.2074554426479107"><ele>22.666666666666668</ele><time>2026-04-05T09:22:28Z</time></trkpt><trkpt lat="48.57322393636096" lon="-2.207513077003685"><ele>23.333333333333332</ele><time>2026-04-05T09:23:00Z</time></trkpt><trkpt lat="48.57315193459144" lon="-2.2076085607287683"><ele>24.0</ele><time>2026-04-05T09:23:02Z</time></trkpt><trkpt lat="48.573085050504474" lon="-2.207700476339346"><ele>23.999999999999996</ele><time>2026-04-05T09:23:04Z</time></trkpt><trkpt lat="48.573031821697334" lon="-2.2077901306685064"><ele>24.0</ele><time>2026-04-05T09:23:06Z</time></trkpt><trkpt lat="48.572978980506065" lon="-2.2078693904065188"><ele>24.0</ele><time>2026-04-05T09:23:08Z</time></trkpt><trkpt lat="48.572925849866714" lon="-2.2079209555402795"><ele>24.0</ele><time>2026-04-05T09:23:10Z</time></trkpt><trkpt lat="48.57286885900744" lon="-2.2079624851977373"><ele>24.0</ele><time>2026-04-05T09:23:21Z</time></trkpt><trkpt lat="48.57279977563793" lon="-2.207951142909879"><ele>23.999999999999996</ele><time>2026-04-05T09:23:29Z</time></trkpt><trkpt lat="48.572771184534616" lon="-2.2078572552632645"><ele>24.0</ele><time>2026-04-05T09:23:31Z</time></trkpt><trkpt lat="48.57274095895863" lon="-2.2077277626905736"><ele>24.4</ele><time>2026-04-05T09:23:33Z</time></trkpt><trkpt lat="48.57270442257407" lon="-2.207564845177971"><ele>24.799999999999997</ele><time>2026-04-05T09:23:35Z</time></trkpt><trkpt lat="48.57267561551115" lon="-2.207389609153099"><ele>25.200000000000003</ele><time>2026-04-05T09:23:37Z</time></trkpt><trkpt lat="48.572624399548815" lon="-2.2072596873129617"><ele>25.6</ele><time>2026-04-05T09:23:39Z</time></trkpt><trkpt lat="48.57258966656662" lon="-2.2071099361191995"><ele>26.0</ele><time>2026-04-05T09:23:41Z</time></trkpt><trkpt lat="48.572553300734704" lon="-2.2069855083916483"><ele>26.0</ele><time>2026-04-05T09:23:43Z</time></trkpt><trkpt lat="48.57250227521666" lon="-2.206884860050474"><ele>26.0</ele><time>2026-04-05T09:23:45Z</time></trkpt><trkpt lat="48.572461755748044" lon="-2.2067829836363186"><ele>26.0</ele><time>2026-04-05T09:23:47Z</time></trkpt><trkpt lat="48.57240759775449" lon="-2.206670424931212"><ele>26.0</ele><time>2026-04-05T09:23:49Z</time></trkpt><trkpt lat="48.572341892301004" lon="-2.2065519202787205"><ele>26.0</ele><time>2026-04-05T09:23:51Z</time></trkpt><trkpt lat="48.57228147996335" lon="-2.206427112173904"><ele>26.200000000000003</ele><time>2026-04-05T09:23:53Z</time></trkpt><trkpt lat="48.57224900220355" lon="-2.2062488364382657"><ele>26.400000000000002</ele><time>2026-04-05T09:23:55Z</time></trkpt><trkpt lat="48.572247181139105" lon="-2.206152181850943"><ele>26.6</ele><time>2026-04-05T09:23:56Z</time></trkpt><trkpt lat="48.572251964707526" lon="-2.20596629808911"><ele>26.8</ele><time>2026-04-05T09:23:58Z</time></trkpt><trkpt lat="48.57227897847131" lon="-2.205798342521609"><ele>27.0</ele><time>2026-04-05T09:24:00Z</time></trkpt><trkpt lat="48.572329432958554" lon="-2.2056449109451237"><ele>27.166666666666668</ele><time>2026-04-05T09:24:02Z</time></trkpt><trkpt lat="48.572360849693915" lon="-2.2054905365924777"><ele>27.333333333333336</ele><time>2026-04-05T09:24:04Z</time></trkpt><trkpt lat="48.57240255799657" lon="-2.2053802293727025"><ele>27.5</ele><time>2026-04-05T09:24:06Z</time></trkpt><trkpt lat="48.57242638131056" lon="-2.2052568485951163"><ele>27.666666666666668</ele><time>2026-04-05T09:24:08Z</time></trkpt><trkpt lat="48.572436430987494" lon="-2.205145337426606"><ele>27.833333333333336</ele><time>2026-04-05T09:24:10Z</time></trkpt><trkpt lat="48.572445406678554" lon="-2.2050260798051844"><ele>28.0</ele><time>2026-04-05T09:24:12Z</time></trkpt><trkpt lat="48.57244579342566" lon="-2.204889292677097"><ele>28.599999999999998</ele><time>2026-04-05T09:24:14Z</time></trkpt><trkpt lat="48.57243953682325" lon="-2.2047445016922667"><ele>29.199999999999996</ele><time>2026-04-05T09:24:16Z</time></trkpt><trkpt lat="48.572428106416886" lon="-2.204598027031135"><ele>29.8</ele><time>2026-04-05T09:24:18Z</time></trkpt><trkpt lat="48.572412920147265" lon="-2.204445969312793"><ele>30.4</ele><time>2026-04-05T09:24:20Z</time></trkpt><trkpt lat="48.57239110150947" lon="-2.204305334391212"><ele>31.0</ele><time>2026-04-05T09:24:22Z</time></trkpt><trkpt lat="48.57238270430906" lon="-2.2041444593731945"><ele>31.000000000000004</ele><time>2026-04-05T09:24:24Z</time></trkpt><trkpt lat="48.572394998500904" lon="-2.20400157284331"><ele>31.0</ele><time>2026-04-05T09:24:26Z</time></trkpt><trkpt lat="48.572396627197946" lon="-2.203870135227058"><ele>31.0</ele><time>2026-04-05T09:24:28Z</time></trkpt><trkpt lat="48.57240125289869" lon="-2.2037338748823276"><ele>31.0</ele><time>2026-04-05T09:24:30Z</time></trkpt><trkpt lat="48.572395570492056" lon="-2.203621962064828"><ele>31.000000000000004</ele><time>2026-04-05T09:24:32Z</time></trkpt><trkpt lat="48.57238546831804" lon="-2.203487668533431"><ele>31.0</ele><time>2026-04-05T09:24:34Z</time></trkpt><trkpt lat="48.57239361764149" lon="-2.203370439122516"><ele>31.714285714285715</ele><time>2026-04-05T09:24:36Z</time></trkpt><trkpt lat="48.572392889188436" lon="-2.203257407906673"><ele>32.42857142857143</ele><time>2026-04-05T09:24:38Z</time></trkpt><trkpt lat="48.572385840921136" lon="-2.2031500915712714"><ele>33.142857142857146</ele><time>2026-04-05T09:24:40Z</time></trkpt><trkpt lat="48.57236969081255" lon="-2.203040199136821"><ele>33.85714285714286</ele><time>2026-04-05T09:24:42Z</time></trkpt><trkpt lat="48.572379505416805" lon="-2.202944509006726"><ele>34.57142857142857</ele><time>2026-04-05T09:24:44Z</time></trkpt><trkpt lat="48.57238643781648" lon="-2.202834470121958"><ele>35.28571428571429</ele><time>2026-04-05T09:24:46Z</time></trkpt><trkpt lat="48.572396730311596" lon="-2.2027144046530585"><ele>36.0</ele><time>2026-04-05T09:24:48Z</time></trkpt><trkpt lat="48.572401211252064" lon="-2.20258253659305"><ele>36.166666666666664</ele><time>2026-04-05T09:24:50Z</time></trkpt><trkpt lat="48.5723979900787" lon="-2.2024516973437427"><ele>36.333333333333336</ele><time>2026-04-05T09:24:53Z</time></trkpt><trkpt lat="48.572397189569536" lon="-2.202326914637195"><ele>36.5</ele><time>2026-04-05T09:24:56Z</time></trkpt><trkpt lat="48.572376022734296" lon="-2.2022164111038434"><ele>36.66666666666667</ele><time>2026-04-05T09:24:58Z</time></trkpt><trkpt lat="48.57235556146639" lon="-2.202108880877062"><ele>36.833333333333336</ele><time>2026-04-05T09:25:00Z</time></trkpt><trkpt lat="48.5723366702277" lon="-2.202011578599815"><ele>37.0</ele><time>2026-04-05T09:25:02Z</time></trkpt><trkpt lat="48.57231850841791" lon="-2.2018844092704124"><ele>37.0</ele><time>2026-04-05T09:25:04Z</time></trkpt><trkpt lat="48.572311232708095" lon="-2.2017851465430898"><ele>37.0</ele><time>2026-04-05T09:25:06Z</time></trkpt><trkpt lat="48.57230783103896" lon="-2.2016388470332244"><ele>37.0</ele><time>2026-04-05T09:25:09Z</time></trkpt><trkpt lat="48.572294593939446" lon="-2.2015426279541814"><ele>37.0</ele><time>2026-04-05T09:25:11Z</time></trkpt><trkpt lat="48.57227411494463" lon="-2.20142847359471"><ele>37.0</ele><time>2026-04-05T09:25:13Z</time></trkpt><trkpt lat="48.57225483012191" lon="-2.2012832647165617"><ele>37.0</ele><time>2026-04-05T09:25:15Z</time></trkpt><trkpt lat="48.57222997145213" lon="-2.201126205013898"><ele>36.800000000000004</ele><time>2026-04-05T09:25:17Z</time></trkpt><trkpt lat="48.5722177840559" lon="-2.200955554484641"><ele>36.6</ele><time>2026-04-05T09:25:19Z</time></trkpt><trkpt lat="48.57215618364058" lon="-2.2008182994915617"><ele>36.400000000000006</ele><time>2026-04-05T09:25:21Z</time></trkpt><trkpt lat="48.57213490756092" lon="-2.200666550900843"><ele>36.2</ele><time>2026-04-05T09:25:23Z</time></trkpt><trkpt lat="48.572136492478705" lon="-2.200493335844934"><ele>36.0</ele><time>2026-04-05T09:25:25Z</time></trkpt><trkpt lat="48.57214967105337" lon="-2.2003998238654843"><ele>35.75</ele><time>2026-04-05T09:25:26Z</time></trkpt><trkpt lat="48.57220667572915" lon="-2.200245976257784"><ele>35.5</ele><time>2026-04-05T09:25:28Z</time></trkpt><trkpt lat="48.57229283394075" lon="-2.2000956242498106"><ele>35.25</ele><time>2026-04-05T09:25:30Z</time></trkpt><trkpt lat="48.5723961510297" lon="-2.199966573643924"><ele>35.0</ele><time>2026-04-05T09:25:32Z</time></trkpt><trkpt lat="48.57246035307002" lon="-2.1999040492953332"><ele>35.166666666666664</ele><time>2026-04-05T09:25:33Z</time></trkpt><trkpt lat="48.57249129661661" lon="-2.199812480600685"><ele>35.33333333333333</ele><time>2026-04-05T09:25:34Z</time></trkpt><trkpt lat="48.572547982048285" lon="-2.1996779945524803"><ele>35.5</ele><time>2026-04-05T09:25:36Z</time></trkpt><trkpt lat="48.57258221416179" lon="-2.1995910946924098"><ele>35.666666666666664</ele><time>2026-04-05T09:25:37Z</time></trkpt><trkpt lat="48.57261440132393" lon="-2.19950898341347"><ele>35.833333333333336</ele><time>2026-04-05T09:25:38Z</time></trkpt><trkpt lat="48.57266773907612" lon="-2.199358589456512"><ele>36.0</ele><time>2026-04-05T09:25:40Z</time></trkpt><trkpt lat="48.57271339031766" lon="-2.199205247044066"><ele>36.0</ele><time>2026-04-05T09:25:42Z</time></trkpt><trkpt lat="48.57275937293662" lon="-2.1990958961318285"><ele>36.0</ele><time>2026-04-05T09:25:44Z</time></trkpt><trkpt lat="48.57278526059295" lon="-2.1989713542341454"><ele>36.0</ele><time>2026-04-05T09:25:46Z</time></trkpt><trkpt lat="48.572830921442716" lon="-2.198867051174847"><ele>36.0</ele><time>2026-04-05T09:25:48Z</time></trkpt><trkpt lat="48.572843875034195" lon="-2.1987366606480254"><ele>36.0</ele><time>2026-04-05T09:25:50Z</time></trkpt><trkpt lat="48.57289198624843" lon="-2.198620855572045"><ele>36.0</ele><time>2026-04-05T09:25:52Z</time></trkpt><trkpt lat="48.572932743850856" lon="-2.198507657031869"><ele>36.333333333333336</ele><time>2026-04-05T09:25:54Z</time></trkpt><trkpt lat="48.57297176915947" lon="-2.1983947458552766"><ele>36.666666666666664</ele><time>2026-04-05T09:25:56Z</time></trkpt><trkpt lat="48.573003455591355" lon="-2.1982738972076383"><ele>37.0</ele><time>2026-04-05T09:25:58Z</time></trkpt><trkpt lat="48.57304720432058" lon="-2.198169962132432"><ele>37.33333333333333</ele><time>2026-04-05T09:26:00Z</time></trkpt><trkpt lat="48.5730796265405" lon="-2.1980509057189037"><ele>37.666666666666664</ele><time>2026-04-05T09:26:02Z</time></trkpt><trkpt lat="48.573112630115574" lon="-2.197948145226351"><ele>38.0</ele><time>2026-04-05T09:26:04Z</time></trkpt><trkpt lat="48.573156535098775" lon="-2.1978546476015692"><ele>38.4</ele><time>2026-04-05T09:26:06Z</time></trkpt><trkpt lat="48.573196082343486" lon="-2.1977534012937205"><ele>38.8</ele><time>2026-04-05T09:26:08Z</time></trkpt><trkpt lat="48.57324508560666" lon="-2.1976322043028502"><ele>39.2</ele><time>2026-04-05T09:26:10Z</time></trkpt><trkpt lat="48.57328289409798" lon="-2.1975095597872643"><ele>39.6</ele><time>2026-04-05T09:26:12Z</time></trkpt><trkpt lat="48.573324269547264" lon="-2.1973735032193966"><ele>40.0</ele><time>2026-04-05T09:26:14Z</time></trkpt><trkpt lat="48.5733607570989" lon="-2.197221931341484"><ele>40.0</ele><time>2026-04-05T09:26:16Z</time></trkpt><trkpt lat="48.57340405117083" lon="-2.1970440828312197"><ele>40.0</ele><time>2026-04-05T09:26:18Z</time></trkpt><trkpt lat="48.57345208889307" lon="-2.1968895525096688"><ele>40.0</ele><time>2026-04-05T09:26:20Z</time></trkpt><trkpt lat="48.57351410207811" lon="-2.1967358616897905"><ele>40.0</ele><time>2026-04-05T09:26:22Z</time></trkpt><trkpt lat="48.573581849306834" lon="-2.19658142425137"><ele>40.5</ele><time>2026-04-05T09:26:24Z</time></trkpt><trkpt lat="48.57364862820997" lon="-2.19643297516331"><ele>41.0</ele><time>2026-04-05T09:26:26Z</time></trkpt><trkpt lat="48.573700928574475" lon="-2.1962787064279397"><ele>41.5</ele><time>2026-04-05T09:26:28Z</time></trkpt><trkpt lat="48.57375511399645" lon="-2.1961219628622657"><ele>42.0</ele><time>2026-04-05T09:26:30Z</time></trkpt><trkpt lat="48.57380371874425" lon="-2.195962955980069"><ele>42.25</ele><time>2026-04-05T09:26:32Z</time></trkpt><trkpt lat="48.57386244458752" lon="-2.1958098047852475"><ele>42.5</ele><time>2026-04-05T09:26:34Z</time></trkpt><trkpt lat="48.57392070408232" lon="-2.1956546405128003"><ele>42.75</ele><time>2026-04-05T09:26:36Z</time></trkpt><trkpt lat="48.57397453081209" lon="-2.195494441416955"><ele>43.0</ele><time>2026-04-05T09:26:38Z</time></trkpt><trkpt lat="48.574028808422554" lon="-2.195331848677925"><ele>43.0</ele><time>2026-04-05T09:26:40Z</time></trkpt><trkpt lat="48.574073315040415" lon="-2.1951690050952872"><ele>43.0</ele><time>2026-04-05T09:26:42Z</time></trkpt><trkpt lat="48.57412130106416" lon="-2.195003832892626"><ele>43.0</ele><time>2026-04-05T09:26:44Z</time></trkpt><trkpt lat="48.574167272045244" lon="-2.194840170595635"><ele>43.0</ele><time>2026-04-05T09:26:46Z</time></trkpt><trkpt lat="48.5742108083947" lon="-2.1946708883122765"><ele>42.599999999999994</ele><time>2026-04-05T09:26:48Z</time></trkpt><trkpt lat="48.57426708159759" lon="-2.1945097031147798"><ele>42.199999999999996</ele><time>2026-04-05T09:26:50Z</time></trkpt><trkpt lat="48.5743314484001" lon="-2.194348619077693"><ele>41.8</ele><time>2026-04-05T09:26:52Z</time></trkpt><trkpt lat="48.57436583760283" lon="-2.194263930674297"><ele>41.4</ele><time>2026-04-05T09:26:53Z</time></trkpt><trkpt lat="48.57443148355416" lon="-2.19410182948338"><ele>41.0</ele><time>2026-04-05T09:26:55Z</time></trkpt><trkpt lat="48.57446486610555" lon="-2.194018074840677"><ele>40.8</ele><time>2026-04-05T09:26:56Z</time></trkpt><trkpt lat="48.57453145127106" lon="-2.1938629276855175"><ele>40.599999999999994</ele><time>2026-04-05T09:26:58Z</time></trkpt><trkpt lat="48.57457043731263" lon="-2.1937830725157235"><ele>40.4</ele><time>2026-04-05T09:26:59Z</time></trkpt><trkpt lat="48.57463789558087" lon="-2.193621526210727"><ele>40.2</ele><time>2026-04-05T09:27:01Z</time></trkpt><trkpt lat="48.574667292553166" lon="-2.19353487140019"><ele>40.0</ele><time>2026-04-05T09:27:02Z</time></trkpt><trkpt lat="48.57472088557368" lon="-2.1933824382849347"><ele>40.0</ele><time>2026-04-05T09:27:04Z</time></trkpt><trkpt lat="48.57475363988617" lon="-2.1932917434891275"><ele>40.0</ele><time>2026-04-05T09:27:05Z</time></trkpt><trkpt lat="48.57478654985533" lon="-2.1932007386936996"><ele>40.0</ele><time>2026-04-05T09:27:06Z</time></trkpt><trkpt lat="48.574815968087655" lon="-2.193105683847197"><ele>40.0</ele><time>2026-04-05T09:27:07Z</time></trkpt><trkpt lat="48.57484743932235" lon="-2.193015122507356"><ele>40.0</ele><time>2026-04-05T09:27:08Z</time></trkpt><trkpt lat="48.57487548892341" lon="-2.1929186250117123"><ele>40.0</ele><time>2026-04-05T09:27:09Z</time></trkpt><trkpt lat="48.57490617117655" lon="-2.1928235797763875"><ele>40.0</ele><time>2026-04-05T09:27:10Z</time></trkpt><trkpt lat="48.574936544140805" lon="-2.192723499564838"><ele>39.857142857142854</ele><time>2026-04-05T09:27:11Z</time></trkpt><trkpt lat="48.574977937934" lon="-2.192637710939585"><ele>39.714285714285715</ele><time>2026-04-05T09:27:12Z</time></trkpt><trkpt lat="48.575006383024466" lon="-2.192535556410851"><ele>39.57142857142857</ele><time>2026-04-05T09:27:13Z</time></trkpt><trkpt lat="48.57502712196051" lon="-2.192432116663935"><ele>39.42857142857143</ele><time>2026-04-05T09:27:14Z</time></trkpt><trkpt lat="48.575054044270004" lon="-2.192329970754344"><ele>39.285714285714285</ele><time>2026-04-05T09:27:15Z</time></trkpt><trkpt lat="48.57508206873983" lon="-2.192227366782717"><ele>39.142857142857146</ele><time>2026-04-05T09:27:16Z</time></trkpt><trkpt lat="48.575111588546505" lon="-2.192126427646708"><ele>39.0</ele><time>2026-04-05T09:27:17Z</time></trkpt><trkpt lat="48.57513885405642" lon="-2.1920298513720473"><ele>38.85714285714286</ele><time>2026-04-05T09:27:18Z</time></trkpt><trkpt lat="48.575160299178506" lon="-2.1919191275748426"><ele>38.71428571428571</ele><time>2026-04-05T09:27:19Z</time></trkpt><trkpt lat="48.57518215659009" lon="-2.1918098760646445"><ele>38.57142857142857</ele><time>2026-04-05T09:27:20Z</time></trkpt><trkpt lat="48.57520700497425" lon="-2.1917049522417087"><ele>38.42857142857143</ele><time>2026-04-05T09:27:21Z</time></trkpt><trkpt lat="48.57522607730151" lon="-2.191599219771417"><ele>38.28571428571429</ele><time>2026-04-05T09:27:22Z</time></trkpt><trkpt lat="48.57523893288398" lon="-2.191492271279974"><ele>38.14285714285714</ele><time>2026-04-05T09:27:23Z</time></trkpt><trkpt lat="48.57525993702538" lon="-2.191379234263931"><ele>38.0</ele><time>2026-04-05T09:27:24Z</time></trkpt><trkpt lat="48.575271690020124" lon="-2.19127496639935"><ele>37.8</ele><time>2026-04-05T09:27:25Z</time></trkpt><trkpt lat="48.57529088587225" lon="-2.1911698811933875"><ele>37.599999999999994</ele><time>2026-04-05T09:27:26Z</time></trkpt><trkpt lat="48.575300535124065" lon="-2.191068345406985"><ele>37.400000000000006</ele><time>2026-04-05T09:27:27Z</time></trkpt><trkpt lat="48.575316293277986" lon="-2.190917191980519"><ele>37.2</ele><time>2026-04-05T09:27:29Z</time></trkpt><trkpt lat="48.575172654484255" lon="-2.1907745539510484"><ele>37.0</ele><time>2026-04-05T09:27:32Z</time></trkpt><trkpt lat="48.57506384789187" lon="-2.1907294817366028"><ele>37.0</ele><time>2026-04-05T09:27:34Z</time></trkpt><trkpt lat="48.57500492133664" lon="-2.1906901793851867"><ele>37.0</ele><time>2026-04-05T09:27:35Z</time></trkpt><trkpt lat="48.574889764350296" lon="-2.190629395544778"><ele>37.0</ele><time>2026-04-05T09:27:37Z</time></trkpt><trkpt lat="48.574829614489204" lon="-2.1906003600480863"><ele>37.0</ele><time>2026-04-05T09:27:38Z</time></trkpt><trkpt lat="48.574769722780054" lon="-2.1905637055492537"><ele>37.0</ele><time>2026-04-05T09:27:39Z</time></trkpt><trkpt lat="48.57470637774392" lon="-2.1905227620016707"><ele>37.0</ele><time>2026-04-05T09:27:40Z</time></trkpt><trkpt lat="48.574590947669584" lon="-2.1904556409207174"><ele>36.6</ele><time>2026-04-05T09:27:42Z</time></trkpt><trkpt lat="48.574529342407274" lon="-2.190431155010776"><ele>36.2</ele><time>2026-04-05T09:27:43Z</time></trkpt><trkpt lat="48.574410390491344" lon="-2.1903869628679558"><ele>35.8</ele><time>2026-04-05T09:27:45Z</time></trkpt><trkpt lat="48.57434817756161" lon="-2.1903650810640047"><ele>35.4</ele><time>2026-04-05T09:27:46Z</time></trkpt><trkpt lat="48.57423214662663" lon="-2.1903336958287545"><ele>35.0</ele><time>2026-04-05T09:27:48Z</time></trkpt><trkpt lat="48.574115155307176" lon="-2.1903087228395814"><ele>35.0</ele><time>2026-04-05T09:27:50Z</time></trkpt><trkpt lat="48.57399931288852" lon="-2.190270229663821"><ele>35.0</ele><time>2026-04-05T09:27:52Z</time></trkpt><trkpt lat="48.573880296071806" lon="-2.1902469812737166"><ele>35.0</ele><time>2026-04-05T09:27:54Z</time></trkpt><trkpt lat="48.57376403233522" lon="-2.190219637366887"><ele>35.0</ele><time>2026-04-05T09:27:56Z</time></trkpt><trkpt lat="48.573644336441944" lon="-2.190188922372548"><ele>35.4</ele><time>2026-04-05T09:27:58Z</time></trkpt><trkpt lat="48.57353563721675" lon="-2.1901577883577636"><ele>35.8</ele><time>2026-04-05T09:28:00Z</time></trkpt><trkpt lat="48.57342914264386" lon="-2.1901357785033246"><ele>36.2</ele><time>2026-04-05T09:28:02Z</time></trkpt><trkpt lat="48.573326235427075" lon="-2.1900799564846958"><ele>36.6</ele><time>2026-04-05T09:28:04Z</time></trkpt><trkpt lat="48.57322447505517" lon="-2.1900363413583506"><ele>37.0</ele><time>2026-04-05T09:28:06Z</time></trkpt><trkpt lat="48.57312367773948" lon="-2.1899512313327154"><ele>37.0</ele><time>2026-04-05T09:28:08Z</time></trkpt><trkpt lat="48.573060280138336" lon="-2.1899248792458894"><ele>37.0</ele><time>2026-04-05T09:28:09Z</time></trkpt><trkpt lat="48.57299573460323" lon="-2.189870875287475"><ele>37.0</ele><time>2026-04-05T09:28:10Z</time></trkpt><trkpt lat="48.5729417610154" lon="-2.1898042699645774"><ele>37.0</ele><time>2026-04-05T09:28:11Z</time></trkpt><trkpt lat="48.57287188038083" lon="-2.189750358794523"><ele>37.0</ele><time>2026-04-05T09:28:12Z</time></trkpt><trkpt lat="48.57279921210629" lon="-2.189721306362779"><ele>37.0</ele><time>2026-04-05T09:28:13Z</time></trkpt><trkpt lat="48.572742553921366" lon="-2.189651645188736"><ele>37.0</ele><time>2026-04-05T09:28:14Z</time></trkpt><trkpt lat="48.572683290376304" lon="-2.1895888567657864"><ele>36.714285714285715</ele><time>2026-04-05T09:28:15Z</time></trkpt><trkpt lat="48.572620776951716" lon="-2.1895140299924383"><ele>36.42857142857143</ele><time>2026-04-05T09:28:16Z</time></trkpt><trkpt lat="48.57255755861375" lon="-2.189461832424756"><ele>36.14285714285714</ele><time>2026-04-05T09:28:17Z</time></trkpt><trkpt lat="48.57252768357671" lon="-2.189361601433226"><ele>35.85714285714286</ele><time>2026-04-05T09:28:18Z</time></trkpt><trkpt lat="48.57247353094518" lon="-2.1892732108636417"><ele>35.57142857142857</ele><time>2026-04-05T09:28:19Z</time></trkpt><trkpt lat="48.57243602830576" lon="-2.18918910514391"><ele>35.285714285714285</ele><time>2026-04-05T09:28:20Z</time></trkpt><trkpt lat="48.572399573859514" lon="-2.1891028416506857"><ele>35.0</ele><time>2026-04-05T09:28:21Z</time></trkpt><trkpt lat="48.572365429670114" lon="-2.189015446650678"><ele>35.0</ele><time>2026-04-05T09:28:22Z</time></trkpt><trkpt lat="48.57232231406033" lon="-2.188945225952417"><ele>35.0</ele><time>2026-04-05T09:28:23Z</time></trkpt><trkpt lat="48.572267579620025" lon="-2.1888554651821392"><ele>35.0</ele><time>2026-04-05T09:28:24Z</time></trkpt><trkpt lat="48.57222142424561" lon="-2.1887906761817453"><ele>35.0</ele><time>2026-04-05T09:28:25Z</time></trkpt><trkpt lat="48.57210966698119" lon="-2.1887109331818677"><ele>35.0</ele><time>2026-04-05T09:28:27Z</time></trkpt><trkpt lat="48.5719983689201" lon="-2.1886585846589983"><ele>35.0</ele><time>2026-04-05T09:28:29Z</time></trkpt><trkpt lat="48.571892051408724" lon="-2.188594168230587"><ele>35.4</ele><time>2026-04-05T09:28:31Z</time></trkpt><trkpt lat="48.57184322524509" lon="-2.1885281001354264"><ele>35.8</ele><time>2026-04-05T09:28:32Z</time></trkpt><trkpt lat="48.571746375458225" lon="-2.1884360032347248"><ele>36.2</ele><time>2026-04-05T09:28:34Z</time></trkpt><trkpt lat="48.57164540981239" lon="-2.188359931480136"><ele>36.6</ele><time>2026-04-05T09:28:36Z</time></trkpt><trkpt lat="48.57154780826523" lon="-2.1882762443230166"><ele>37.0</ele><time>2026-04-05T09:28:38Z</time></trkpt><trkpt lat="48.57145362989651" lon="-2.1882018143774715"><ele>37.0</ele><time>2026-04-05T09:28:40Z</time></trkpt><trkpt lat="48.57137064143725" lon="-2.188134173499818"><ele>37.0</ele><time>2026-04-05T09:28:42Z</time></trkpt><trkpt lat="48.57130385899187" lon="-2.1880761161016946"><ele>37.0</ele><time>2026-04-05T09:28:44Z</time></trkpt><trkpt lat="48.57127981401433" lon="-2.187961439251969"><ele>37.0</ele><time>2026-04-05T09:28:46Z</time></trkpt><trkpt lat="48.57129999371644" lon="-2.1878307849071508"><ele>37.0</ele><time>2026-04-05T09:28:48Z</time></trkpt><trkpt lat="48.57130244260412" lon="-2.1876673662231467"><ele>37.0</ele><time>2026-04-05T09:28:50Z</time></trkpt><trkpt lat="48.57130564954111" lon="-2.1874888025735193"><ele>36.6</ele><time>2026-04-05T09:28:52Z</time></trkpt><trkpt lat="48.571315391646756" lon="-2.1873154004205713"><ele>36.2</ele><time>2026-04-05T09:28:54Z</time></trkpt><trkpt lat="48.571319109412435" lon="-2.1872172562536405"><ele>35.8</ele><time>2026-04-05T09:28:55Z</time></trkpt><trkpt lat="48.571327027213734" lon="-2.187060436961209"><ele>35.4</ele><time>2026-04-05T09:28:57Z</time></trkpt><trkpt lat="48.57132505024263" lon="-2.186915935931522"><ele>35.0</ele><time>2026-04-05T09:28:59Z</time></trkpt><trkpt lat="48.5713381385608" lon="-2.1867381773350476"><ele>35.0</ele><time>2026-04-05T09:29:01Z</time></trkpt><trkpt lat="48.571348902663814" lon="-2.1865666606668355"><ele>35.0</ele><time>2026-04-05T09:29:03Z</time></trkpt><trkpt lat="48.5713412368586" lon="-2.186470695532632"><ele>35.0</ele><time>2026-04-05T09:29:04Z</time></trkpt><trkpt lat="48.57134894318314" lon="-2.186304521462113"><ele>35.0</ele><time>2026-04-05T09:29:06Z</time></trkpt><trkpt lat="48.57134780832113" lon="-2.1861203582529902"><ele>35.0</ele><time>2026-04-05T09:29:08Z</time></trkpt><trkpt lat="48.571348127400626" lon="-2.1860236811482663"><ele>35.0</ele><time>2026-04-05T09:29:09Z</time></trkpt><trkpt lat="48.571347234326154" lon="-2.1858362701088336"><ele>35.0</ele><time>2026-04-05T09:29:11Z</time></trkpt><trkpt lat="48.571335118358895" lon="-2.185665706335636"><ele>35.0</ele><time>2026-04-05T09:29:13Z</time></trkpt><trkpt lat="48.57137078445735" lon="-2.185495788379629"><ele>35.0</ele><time>2026-04-05T09:29:15Z</time></trkpt><trkpt lat="48.571389334347316" lon="-2.1853958472454957"><ele>35.0</ele><time>2026-04-05T09:29:16Z</time></trkpt><trkpt lat="48.57141499899245" lon="-2.185233893766291"><ele>34.83333333333333</ele><time>2026-04-05T09:29:18Z</time></trkpt><trkpt lat="48.57141771117916" lon="-2.1851360842683665"><ele>34.666666666666664</ele><time>2026-04-05T09:29:19Z</time></trkpt><trkpt lat="48.57145477382113" lon="-2.1849554307964163"><ele>34.5</ele><time>2026-04-05T09:29:21Z</time></trkpt><trkpt lat="48.57147269541985" lon="-2.184856052459002"><ele>34.333333333333336</ele><time>2026-04-05T09:29:22Z</time></trkpt><trkpt lat="48.5715021876477" lon="-2.184691953403804"><ele>34.16666666666667</ele><time>2026-04-05T09:29:24Z</time></trkpt><trkpt lat="48.571520273190814" lon="-2.1845908087127297"><ele>34.0</ele><time>2026-04-05T09:29:25Z</time></trkpt><trkpt lat="48.57154559917963" lon="-2.1844184382467975"><ele>33.8</ele><time>2026-04-05T09:29:27Z</time></trkpt><trkpt lat="48.571567348435515" lon="-2.184253936267983"><ele>33.599999999999994</ele><time>2026-04-05T09:29:29Z</time></trkpt><trkpt lat="48.57159530366595" lon="-2.1841043990841675"><ele>33.4</ele><time>2026-04-05T09:29:31Z</time></trkpt><trkpt lat="48.57160352576004" lon="-2.1839449135623705"><ele>33.199999999999996</ele><time>2026-04-05T09:29:33Z</time></trkpt><trkpt lat="48.57160838367454" lon="-2.1837915797952445"><ele>33.0</ele><time>2026-04-05T09:29:35Z</time></trkpt><trkpt lat="48.57160841302783" lon="-2.18364788132159"><ele>33.0</ele><time>2026-04-05T09:29:37Z</time></trkpt><trkpt lat="48.57163468393563" lon="-2.1834868209015204"><ele>33.0</ele><time>2026-04-05T09:29:39Z</time></trkpt><trkpt lat="48.57165995898815" lon="-2.183398341261622"><ele>33.0</ele><time>2026-04-05T09:29:40Z</time></trkpt><trkpt lat="48.57168975241909" lon="-2.183238961685236"><ele>33.0</ele><time>2026-04-05T09:29:42Z</time></trkpt><trkpt lat="48.57172115194918" lon="-2.1830630531221082"><ele>33.0</ele><time>2026-04-05T09:29:44Z</time></trkpt><trkpt lat="48.57171144151574" lon="-2.1829363751697892"><ele>32.833333333333336</ele><time>2026-04-05T09:29:46Z</time></trkpt><trkpt lat="48.57160971997916" lon="-2.1829125909769442"><ele>32.666666666666664</ele><time>2026-04-05T09:29:48Z</time></trkpt><trkpt lat="48.571538861996" lon="-2.1828263944963626"><ele>32.5</ele><time>2026-04-05T09:29:50Z</time></trkpt><trkpt lat="48.57149329929557" lon="-2.1827215059503566"><ele>32.33333333333333</ele><time>2026-04-05T09:29:53Z</time></trkpt><trkpt lat="48.57148501147981" lon="-2.182610620126891"><ele>32.166666666666664</ele><time>2026-04-05T09:29:55Z</time></trkpt><trkpt lat="48.571459507434774" lon="-2.1825235669503678"><ele>32.0</ele><time>2026-04-05T09:29:57Z</time></trkpt><trkpt lat="48.571371955385075" lon="-2.182433626311286"><ele>32.0</ele><time>2026-04-05T09:30:00Z</time></trkpt><trkpt lat="48.57131100599942" lon="-2.1823732209178637"><ele>32.0</ele><time>2026-04-05T09:30:03Z</time></trkpt><trkpt lat="48.57131032780483" lon="-2.182104875032843"><ele>32.0</ele><time>2026-04-05T09:30:06Z</time></trkpt><trkpt lat="48.571338157153285" lon="-2.1819197436600835"><ele>32.0</ele><time>2026-04-05T09:30:08Z</time></trkpt><trkpt lat="48.5713640241691" lon="-2.181742769506609"><ele>31.8</ele><time>2026-04-05T09:30:10Z</time></trkpt><trkpt lat="48.57137980835674" lon="-2.181639923566752"><ele>31.6</ele><time>2026-04-05T09:30:11Z</time></trkpt><trkpt lat="48.57140820140368" lon="-2.1814420778190144"><ele>31.400000000000002</ele><time>2026-04-05T09:30:13Z</time></trkpt><trkpt lat="48.57140961642037" lon="-2.181339874633695"><ele>31.200000000000003</ele><time>2026-04-05T09:30:14Z</time></trkpt><trkpt lat="48.57143455360122" lon="-2.1811630831961457"><ele>31.0</ele><time>2026-04-05T09:30:16Z</time></trkpt><trkpt lat="48.57148453162171" lon="-2.1809952371390398"><ele>31.0</ele><time>2026-04-05T09:30:18Z</time></trkpt><trkpt lat="48.57155593229328" lon="-2.180863170525177"><ele>31.0</ele><time>2026-04-05T09:30:20Z</time></trkpt><trkpt lat="48.57160871713425" lon="-2.180735555706064"><ele>31.0</ele><time>2026-04-05T09:30:22Z</time></trkpt><trkpt lat="48.57166309725271" lon="-2.1806036008554766"><ele>31.0</ele><time>2026-04-05T09:30:24Z</time></trkpt><trkpt lat="48.57173214824879" lon="-2.1804920612032297"><ele>31.0</ele><time>2026-04-05T09:30:26Z</time></trkpt><trkpt lat="48.57179172097092" lon="-2.180357572963456"><ele>31.166666666666668</ele><time>2026-04-05T09:30:28Z</time></trkpt><trkpt lat="48.571815914195234" lon="-2.1802023290856622"><ele>31.333333333333336</ele><time>2026-04-05T09:30:30Z</time></trkpt><trkpt lat="48.57183164837064" lon="-2.1800755378746026"><ele>31.5</ele><time>2026-04-05T09:30:32Z</time></trkpt><trkpt lat="48.57183636036541" lon="-2.1799344107622685"><ele>31.666666666666664</ele><time>2026-04-05T09:30:34Z</time></trkpt><trkpt lat="48.57185807040323" lon="-2.179821251509188"><ele>31.833333333333332</ele><time>2026-04-05T09:30:36Z</time></trkpt><trkpt lat="48.571874092515074" lon="-2.1797030926302448"><ele>32.0</ele><time>2026-04-05T09:30:38Z</time></trkpt><trkpt lat="48.571892776198695" lon="-2.1795762534173804"><ele>31.999999999999996</ele><time>2026-04-05T09:30:40Z</time></trkpt><trkpt lat="48.57191667758767" lon="-2.1794604218064255"><ele>32.0</ele><time>2026-04-05T09:30:42Z</time></trkpt><trkpt lat="48.57194529164635" lon="-2.1793259423893234"><ele>32.0</ele><time>2026-04-05T09:30:44Z</time></trkpt><trkpt lat="48.571966787871304" lon="-2.1791957905463097"><ele>32.0</ele><time>2026-04-05T09:30:46Z</time></trkpt><trkpt lat="48.57199562683899" lon="-2.179077291474894"><ele>31.999999999999996</ele><time>2026-04-05T09:30:48Z</time></trkpt><trkpt lat="48.57203013314937" lon="-2.17895187499534"><ele>32.0</ele><time>2026-04-05T09:30:50Z</time></trkpt><trkpt lat="48.57206663738158" lon="-2.1788226063871825"><ele>31.499999999999996</ele><time>2026-04-05T09:30:52Z</time></trkpt><trkpt lat="48.57211252925111" lon="-2.178696132271239"><ele>31.0</ele><time>2026-04-05T09:30:54Z</time></trkpt><trkpt lat="48.57214568108776" lon="-2.1785743401568967"><ele>30.5</ele><time>2026-04-05T09:30:56Z</time></trkpt><trkpt lat="48.57217456705034" lon="-2.1784638113844323"><ele>30.0</ele><time>2026-04-05T09:30:58Z</time></trkpt><trkpt lat="48.57220937202367" lon="-2.1783513574595217"><ele>29.499999999999996</ele><time>2026-04-05T09:31:00Z</time></trkpt><trkpt lat="48.572238720065585" lon="-2.178257767127262"><ele>29.0</ele><time>2026-04-05T09:31:03Z</time></trkpt><trkpt lat="48.57228975843926" lon="-2.178170507335715"><ele>28.999999999999996</ele><time>2026-04-05T09:31:14Z</time></trkpt><trkpt lat="48.572344245418286" lon="-2.1781044432381345"><ele>29.0</ele><time>2026-04-05T09:31:16Z</time></trkpt><trkpt lat="48.57240150553233" lon="-2.1780104538489637"><ele>29.0</ele><time>2026-04-05T09:31:18Z</time></trkpt><trkpt lat="48.57247176491221" lon="-2.177942903766623"><ele>29.0</ele><time>2026-04-05T09:31:20Z</time></trkpt><trkpt lat="48.572552633600594" lon="-2.1778693575858608"><ele>28.999999999999996</ele><time>2026-04-05T09:31:22Z</time></trkpt><trkpt lat="48.572609730754756" lon="-2.177804675370633"><ele>29.0</ele><time>2026-04-05T09:31:23Z</time></trkpt><trkpt lat="48.572674110215026" lon="-2.1777229801095346"><ele>29.0</ele><time>2026-04-05T09:31:24.999Z</time></trkpt><trkpt lat="48.57277668213499" lon="-2.1776526286091054"><ele>29.0</ele><time>2026-04-05T09:31:26.999Z</time></trkpt><trkpt lat="48.5728722256383" lon="-2.17758668739141"><ele>29.0</ele><time>2026-04-05T09:31:28.999Z</time></trkpt><trkpt lat="48.57296515186033" lon="-2.177499252120344"><ele>29.0</ele><time>2026-04-05T09:31:30.999Z</time></trkpt><trkpt lat="48.57302209381664" lon="-2.177456830184567"><ele>29.0</ele><time>2026-04-05T09:31:31.999Z</time></trkpt><trkpt lat="48.573122573038304" lon="-2.1773861209040257"><ele>28.75</ele><time>2026-04-05T09:31:33.999Z</time></trkpt><trkpt lat="48.57323066852227" lon="-2.177319316789976"><ele>28.5</ele><time>2026-04-05T09:31:35.999Z</time></trkpt><trkpt lat="48.57327796536063" lon="-2.177082326677222"><ele>28.25</ele><time>2026-04-05T09:31:37.999Z</time></trkpt><trkpt lat="48.57335435883702" lon="-2.177018978968505"><ele>28.0</ele><time>2026-04-05T09:31:40Z</time></trkpt><trkpt lat="48.57344497324666" lon="-2.176945910006362"><ele>28.0</ele><time>2026-04-05T09:31:42Z</time></trkpt><trkpt lat="48.5735377672051" lon="-2.1768719527752385"><ele>27.999999999999996</ele><time>2026-04-05T09:31:44Z</time></trkpt><trkpt lat="48.57361375332087" lon="-2.176811391446162"><ele>27.999999999999996</ele><time>2026-04-05T09:31:46Z</time></trkpt><trkpt lat="48.57367854367095" lon="-2.176759753213684"><ele>28.0</ele><time>2026-04-05T09:31:48Z</time></trkpt><trkpt lat="48.57374727573734" lon="-2.1767049734111166"><ele>28.0</ele><time>2026-04-05T09:31:50Z</time></trkpt><trkpt lat="48.57393056813836" lon="-2.176717583608801"><ele>28.000000000000004</ele><time>2026-04-05T09:32:05Z</time></trkpt><trkpt lat="48.57385275174472" lon="-2.176673236769975"><ele>28.0</ele><time>2026-04-05T09:32:10Z</time></trkpt><trkpt lat="48.5737839789198" lon="-2.176755011203035"><ele>28.0</ele><time>2026-04-05T09:32:12Z</time></trkpt><trkpt lat="48.573703785016185" lon="-2.1768271511125072"><ele>28.0</ele><time>2026-04-05T09:32:14Z</time></trkpt><trkpt lat="48.57362877842652" lon="-2.176896259583315"><ele>28.000000000000004</ele><time>2026-04-05T09:32:16Z</time></trkpt><trkpt lat="48.57354768474833" lon="-2.176953322315278"><ele>28.0</ele><time>2026-04-05T09:32:18Z</time></trkpt><trkpt lat="48.57347522877995" lon="-2.1770241622549915"><ele>28.0</ele><time>2026-04-05T09:32:20Z</time></trkpt><trkpt lat="48.573385254118364" lon="-2.1770889616935367"><ele>27.999999999999996</ele><time>2026-04-05T09:32:22Z</time></trkpt><trkpt lat="48.57329929073971" lon="-2.177150490318398"><ele>27.999999999999996</ele><time>2026-04-05T09:32:24Z</time></trkpt><trkpt lat="48.57321794413781" lon="-2.1772192592786666"><ele>28.0</ele><time>2026-04-05T09:32:26Z</time></trkpt><trkpt lat="48.57314318546053" lon="-2.177299849825724"><ele>28.0</ele><time>2026-04-05T09:32:28Z</time></trkpt><trkpt lat="48.57306017216613" lon="-2.177364517223828"><ele>28.2</ele><time>2026-04-05T09:32:30Z</time></trkpt><trkpt lat="48.57297833732419" lon="-2.177438004757275"><ele>28.4</ele><time>2026-04-05T09:32:32Z</time></trkpt><trkpt lat="48.57289065196614" lon="-2.177497984857103"><ele>28.599999999999998</ele><time>2026-04-05T09:32:34Z</time></trkpt><trkpt lat="48.57281373823" lon="-2.177576335052248"><ele>28.799999999999997</ele><time>2026-04-05T09:32:36Z</time></trkpt><trkpt lat="48.57273367625294" lon="-2.177646934291517"><ele>29.0</ele><time>2026-04-05T09:32:38Z</time></trkpt><trkpt lat="48.572655456967" lon="-2.1776987978958613"><ele>28.999999999999996</ele><time>2026-04-05T09:32:40Z</time></trkpt><trkpt lat="48.572593766690616" lon="-2.1777816386239333"><ele>29.0</ele><time>2026-04-05T09:32:44Z</time></trkpt><trkpt lat="48.57252565248177" lon="-2.177866310541783"><ele>29.0</ele><time>2026-04-05T09:32:47Z</time></trkpt><trkpt lat="48.57245249185534" lon="-2.177966483728442"><ele>29.0</ele><time>2026-04-05T09:32:50Z</time></trkpt><trkpt lat="48.572394536545296" lon="-2.1780497624543576"><ele>28.999999999999996</ele><time>2026-04-05T09:32:53Z</time></trkpt><trkpt lat="48.57233216815616" lon="-2.178114833470367"><ele>29.0</ele><time>2026-04-05T09:32:55Z</time></trkpt><trkpt lat="48.57227409681281" lon="-2.1781682343138566"><ele>28.999999999999996</ele><time>2026-04-05T09:33:53Z</time></trkpt><trkpt lat="48.57228364416582" lon="-2.178051992574294"><ele>29.0</ele><time>2026-04-05T09:33:56Z</time></trkpt><trkpt lat="48.572305421356475" lon="-2.177934336456492"><ele>29.0</ele><time>2026-04-05T09:33:58Z</time></trkpt><trkpt lat="48.57236949422934" lon="-2.177847317685983"><ele>29.0</ele><time>2026-04-05T09:34:00Z</time></trkpt><trkpt lat="48.57243865097887" lon="-2.1777739921544548"><ele>28.999999999999996</ele><time>2026-04-05T09:34:02Z</time></trkpt><trkpt lat="48.572484304636454" lon="-2.1776851724210244"><ele>29.0</ele><time>2026-04-05T09:34:04Z</time></trkpt><trkpt lat="48.57247494588199" lon="-2.1775806033836544"><ele>29.0</ele><time>2026-04-05T09:34:06Z</time></trkpt><trkpt lat="48.57245003104474" lon="-2.1773761675540912"><ele>29.0</ele><time>2026-04-05T09:34:08Z</time></trkpt><trkpt lat="48.57244846591148" lon="-2.177267051457359"><ele>29.0</ele><time>2026-04-05T09:34:09Z</time></trkpt><trkpt lat="48.572471335146965" lon="-2.1771452307397103"><ele>29.0</ele><time>2026-04-05T09:34:10Z</time></trkpt><trkpt lat="48.57252716992099" lon="-2.1769823307563225"><ele>29.0</ele><time>2026-04-05T09:34:12Z</time></trkpt><trkpt lat="48.5725791062061" lon="-2.1768639136778045"><ele>28.799999999999997</ele><time>2026-04-05T09:34:14Z</time></trkpt><trkpt lat="48.57261708067152" lon="-2.1767280929705826"><ele>28.599999999999998</ele><time>2026-04-05T09:34:16Z</time></trkpt><trkpt lat="48.57266433044126" lon="-2.176582033984385"><ele>28.4</ele><time>2026-04-05T09:34:18Z</time></trkpt><trkpt lat="48.57270795642626" lon="-2.1764196628364787"><ele>28.2</ele><time>2026-04-05T09:34:20Z</time></trkpt><trkpt lat="48.5727225967572" lon="-2.1762388845723377"><ele>28.0</ele><time>2026-04-05T09:34:22Z</time></trkpt><trkpt lat="48.57275341448671" lon="-2.1761478730841284"><ele>27.166666666666668</ele><time>2026-04-05T09:34:23Z</time></trkpt><trkpt lat="48.57274976502699" lon="-2.176034122724426"><ele>26.333333333333336</ele><time>2026-04-05T09:34:24Z</time></trkpt><trkpt lat="48.572804104075125" lon="-2.1758893619586215"><ele>25.5</ele><time>2026-04-05T09:34:26Z</time></trkpt><trkpt lat="48.57283578697331" lon="-2.1757477957747633"><ele>24.666666666666668</ele><time>2026-04-05T09:34:28Z</time></trkpt><trkpt lat="48.57287948588851" lon="-2.175669773958595"><ele>23.833333333333336</ele><time>2026-04-05T09:34:30Z</time></trkpt><trkpt lat="48.57289022648476" lon="-2.1755305265418188"><ele>23.0</ele><time>2026-04-05T09:34:33Z</time></trkpt><trkpt lat="48.57289733162082" lon="-2.175435674459801"><ele>21.4</ele><time>2026-04-05T09:34:35Z</time></trkpt><trkpt lat="48.57284006971141" lon="-2.175373561990533"><ele>19.799999999999997</ele><time>2026-04-05T09:34:48Z</time></trkpt><trkpt lat="48.57276769828302" lon="-2.175353190162398"><ele>18.2</ele><time>2026-04-05T09:34:50Z</time></trkpt><trkpt lat="48.57266454980858" lon="-2.175317223327644"><ele>16.6</ele><time>2026-04-05T09:34:52Z</time></trkpt><trkpt lat="48.57256392587012" lon="-2.1752726799822506"><ele>15.0</ele><time>2026-04-05T09:34:54Z</time></trkpt><trkpt lat="48.57246277997938" lon="-2.1752142786160094"><ele>15.0</ele><time>2026-04-05T09:34:56Z</time></trkpt><trkpt lat="48.57234891706507" lon="-2.1751683197616867"><ele>15.0</ele><time>2026-04-05T09:34:58Z</time></trkpt><trkpt lat="48.5722877539143" lon="-2.1751453920626056"><ele>15.0</ele><time>2026-04-05T09:34:59Z</time></trkpt><trkpt lat="48.57222488340324" lon="-2.1751155071221366"><ele>15.0</ele><time>2026-04-05T09:35:00Z</time></trkpt><trkpt lat="48.57216128032228" lon="-2.1750853769757397"><ele>15.0</ele><time>2026-04-05T09:35:01Z</time></trkpt><trkpt lat="48.57209870837927" lon="-2.1750583260868375"><ele>15.0</ele><time>2026-04-05T09:35:02Z</time></trkpt><trkpt lat="48.57203647975369" lon="-2.1750292952665413"><ele>15.0</ele><time>2026-04-05T09:35:03Z</time></trkpt><trkpt lat="48.57197348869635" lon="-2.175002796233931"><ele>15.0</ele><time>2026-04-05T09:35:04Z</time></trkpt><trkpt lat="48.57191099239589" lon="-2.1749804281599108"><ele>15.0</ele><time>2026-04-05T09:35:05Z</time></trkpt><trkpt lat="48.571849581933385" lon="-2.1749555975382258"><ele>15.0</ele><time>2026-04-05T09:35:06Z</time></trkpt><trkpt lat="48.57173076329438" lon="-2.1748997410454485"><ele>15.0</ele><time>2026-04-05T09:35:08Z</time></trkpt><trkpt lat="48.57167085926005" lon="-2.1748692090857147"><ele>15.0</ele><time>2026-04-05T09:35:09Z</time></trkpt><trkpt lat="48.571607611784444" lon="-2.174839254502888"><ele>15.0</ele><time>2026-04-05T09:35:10Z</time></trkpt><trkpt lat="48.57154367755052" lon="-2.1748136033591576"><ele>15.0</ele><time>2026-04-05T09:35:11Z</time></trkpt><trkpt lat="48.57147261216812" lon="-2.17479174180339"><ele>14.666666666666666</ele><time>2026-04-05T09:35:12Z</time></trkpt><trkpt lat="48.571399148761415" lon="-2.174754335146805"><ele>14.333333333333332</ele><time>2026-04-05T09:35:13Z</time></trkpt><trkpt lat="48.5713313512099" lon="-2.174715606869099"><ele>14.0</ele><time>2026-04-05T09:35:14Z</time></trkpt><trkpt lat="48.57126453932126" lon="-2.1746863288976397"><ele>13.666666666666666</ele><time>2026-04-05T09:35:15Z</time></trkpt><trkpt lat="48.571185697558406" lon="-2.1746590393823158"><ele>13.333333333333332</ele><time>2026-04-05T09:35:16Z</time></trkpt><trkpt lat="48.571106495667905" lon="-2.174627080842777"><ele>13.0</ele><time>2026-04-05T09:35:17Z</time></trkpt><trkpt lat="48.57103090563768" lon="-2.1746004139756465"><ele>12.714285714285714</ele><time>2026-04-05T09:35:18Z</time></trkpt><trkpt lat="48.570960210002546" lon="-2.1745636241207924"><ele>12.428571428571429</ele><time>2026-04-05T09:35:19Z</time></trkpt><trkpt lat="48.570888503673956" lon="-2.174535711356651"><ele>12.142857142857142</ele><time>2026-04-05T09:35:20Z</time></trkpt><trkpt lat="48.57081637414333" lon="-2.1745104726526914"><ele>11.857142857142858</ele><time>2026-04-05T09:35:21Z</time></trkpt><trkpt lat="48.57074467219542" lon="-2.174476890314565"><ele>11.571428571428571</ele><time>2026-04-05T09:35:22Z</time></trkpt><trkpt lat="48.57067267678988" lon="-2.1744484276047253"><ele>11.285714285714286</ele><time>2026-04-05T09:35:23Z</time></trkpt><trkpt lat="48.57060026631344" lon="-2.1744200748569877"><ele>11.0</ele><time>2026-04-05T09:35:24Z</time></trkpt><trkpt lat="48.570528541657396" lon="-2.174390637483795"><ele>11.0</ele><time>2026-04-05T09:35:25Z</time></trkpt><trkpt lat="48.570457192939216" lon="-2.174365032552408"><ele>11.0</ele><time>2026-04-05T09:35:26Z</time></trkpt><trkpt lat="48.57038967586404" lon="-2.1743327855000807"><ele>11.0</ele><time>2026-04-05T09:35:27Z</time></trkpt><trkpt lat="48.57032011125975" lon="-2.174302919401185"><ele>11.0</ele><time>2026-04-05T09:35:28Z</time></trkpt><trkpt lat="48.570254220357874" lon="-2.1742681269647033"><ele>11.0</ele><time>2026-04-05T09:35:29Z</time></trkpt><trkpt lat="48.57018978366631" lon="-2.1742436490949757"><ele>11.0</ele><time>2026-04-05T09:35:30Z</time></trkpt><trkpt lat="48.570126780793494" lon="-2.174204828609831"><ele>11.0</ele><time>2026-04-05T09:35:31Z</time></trkpt><trkpt lat="48.57006173234993" lon="-2.1741637880385003"><ele>10.857142857142858</ele><time>2026-04-05T09:35:32Z</time></trkpt><trkpt lat="48.56999928796625" lon="-2.1741205018077583"><ele>10.714285714285714</ele><time>2026-04-05T09:35:33Z</time></trkpt><trkpt lat="48.56993894414579" lon="-2.1740617135797407"><ele>10.571428571428571</ele><time>2026-04-05T09:35:33.999Z</time></trkpt><trkpt lat="48.569888621895466" lon="-2.1739900031558705"><ele>10.428571428571429</ele><time>2026-04-05T09:35:34.999Z</time></trkpt><trkpt lat="48.56984384077942" lon="-2.1738974863950826"><ele>10.285714285714286</ele><time>2026-04-05T09:35:35.999Z</time></trkpt><trkpt lat="48.56980825489002" lon="-2.173792022339478"><ele>10.142857142857142</ele><time>2026-04-05T09:35:36.999Z</time></trkpt><trkpt lat="48.56978540433438" lon="-2.173673642392012"><ele>10.0</ele><time>2026-04-05T09:35:37.999Z</time></trkpt><trkpt lat="48.56977784378192" lon="-2.1735516678319935"><ele>9.5</ele><time>2026-04-05T09:35:38.999Z</time></trkpt><trkpt lat="48.569774433046916" lon="-2.1734329264752823"><ele>9.0</ele><time>2026-04-05T09:35:39.999Z</time></trkpt><trkpt lat="48.56977455648651" lon="-2.173307781311266"><ele>8.5</ele><time>2026-04-05T09:35:40.999Z</time></trkpt><trkpt lat="48.56977729901216" lon="-2.173182954346045"><ele>8.0</ele><time>2026-04-05T09:35:41.999Z</time></trkpt><trkpt lat="48.56978115009648" lon="-2.173062384693756"><ele>7.500000000000001</ele><time>2026-04-05T09:35:42.999Z</time></trkpt><trkpt lat="48.569784244983694" lon="-2.172935313501963"><ele>7.0</ele><time>2026-04-05T09:35:43.999Z</time></trkpt><trkpt lat="48.569784205108654" lon="-2.172806725709403"><ele>7.000000000000001</ele><time>2026-04-05T09:35:44.999Z</time></trkpt><trkpt lat="48.569786630114656" lon="-2.1726792160180404"><ele>7.0</ele><time>2026-04-05T09:35:45.999Z</time></trkpt><trkpt lat="48.569787680126844" lon="-2.172550545622024"><ele>7.0</ele><time>2026-04-05T09:35:46.999Z</time></trkpt><trkpt lat="48.569786909895726" lon="-2.1724189391883124"><ele>7.0</ele><time>2026-04-05T09:35:47.999Z</time></trkpt><trkpt lat="48.56978404948006" lon="-2.1722832054969965"><ele>7.000000000000001</ele><time>2026-04-05T09:35:48.999Z</time></trkpt><trkpt lat="48.5697864438782" lon="-2.1721523555213786"><ele>7.0</ele><time>2026-04-05T09:35:49.999Z</time></trkpt><trkpt lat="48.56979311262426" lon="-2.172018957156048"><ele>6.666666666666667</ele><time>2026-04-05T09:35:51Z</time></trkpt><trkpt lat="48.56979441565162" lon="-2.171887904865504"><ele>6.333333333333334</ele><time>2026-04-05T09:35:52Z</time></trkpt><trkpt lat="48.56979328552176" lon="-2.1717554950809075"><ele>6.0</ele><time>2026-04-05T09:35:53Z</time></trkpt><trkpt lat="48.569792198549294" lon="-2.171622040567877"><ele>5.666666666666667</ele><time>2026-04-05T09:35:54Z</time></trkpt><trkpt lat="48.56979293266761" lon="-2.171492840416158"><ele>5.333333333333334</ele><time>2026-04-05T09:35:55Z</time></trkpt><trkpt lat="48.56979290169931" lon="-2.171363174477436"><ele>5.0</ele><time>2026-04-05T09:35:56Z</time></trkpt><trkpt lat="48.56979443142392" lon="-2.17123560721339"><ele>5.0</ele><time>2026-04-05T09:35:57Z</time></trkpt><trkpt lat="48.569796363909916" lon="-2.1711077100783704"><ele>5.0</ele><time>2026-04-05T09:35:58Z</time></trkpt><trkpt lat="48.56979845148818" lon="-2.1709804057494666"><ele>5.0</ele><time>2026-04-05T09:35:59Z</time></trkpt><trkpt lat="48.5698024039765" lon="-2.170854011782727"><ele>5.0</ele><time>2026-04-05T09:36:00Z</time></trkpt><trkpt lat="48.56980195669419" lon="-2.1707320575233293"><ele>5.0</ele><time>2026-04-05T09:36:01Z</time></trkpt><trkpt lat="48.569805350351054" lon="-2.1706128107613836"><ele>5.0</ele><time>2026-04-05T09:36:02Z</time></trkpt><trkpt lat="48.569808257635756" lon="-2.1704895662372805"><ele>5.0</ele><time>2026-04-05T09:36:03Z</time></trkpt><trkpt lat="48.56981008773277" lon="-2.17037226929564"><ele>5.0</ele><time>2026-04-05T09:36:04Z</time></trkpt><trkpt lat="48.56981323456202" lon="-2.1702556235038277"><ele>5.0</ele><time>2026-04-05T09:36:05Z</time></trkpt><trkpt lat="48.56981251654894" lon="-2.1701374737162404"><ele>5.0</ele><time>2026-04-05T09:36:06Z</time></trkpt><trkpt lat="48.56981424231424" lon="-2.1700267569882827"><ele>5.0</ele><time>2026-04-05T09:36:07Z</time></trkpt><trkpt lat="48.569815167689235" lon="-2.169912546841513"><ele>5.0</ele><time>2026-04-05T09:36:08Z</time></trkpt><trkpt lat="48.56981601792403" lon="-2.169799254922472"><ele>5.142857142857142</ele><time>2026-04-05T09:36:09Z</time></trkpt><trkpt lat="48.569816474610704" lon="-2.1696872968865"><ele>5.285714285714286</ele><time>2026-04-05T09:36:10Z</time></trkpt><trkpt lat="48.56981881498854" lon="-2.1695818632161505"><ele>5.428571428571429</ele><time>2026-04-05T09:36:11Z</time></trkpt><trkpt lat="48.569818215393724" lon="-2.169476094337453"><ele>5.571428571428571</ele><time>2026-04-05T09:36:12Z</time></trkpt><trkpt lat="48.5698178148225" lon="-2.169366944293328"><ele>5.714285714285714</ele><time>2026-04-05T09:36:13Z</time></trkpt><trkpt lat="48.56981934264904" lon="-2.169266281601635"><ele>5.857142857142857</ele><time>2026-04-05T09:36:14Z</time></trkpt><trkpt lat="48.5698204914643" lon="-2.1691675126444214"><ele>6.0</ele><time>2026-04-05T09:36:15Z</time></trkpt><trkpt lat="48.56981869093872" lon="-2.169060439350087"><ele>5.857142857142857</ele><time>2026-04-05T09:36:16Z</time></trkpt><trkpt lat="48.56981491837784" lon="-2.168957954958754"><ele>5.714285714285714</ele><time>2026-04-05T09:36:17Z</time></trkpt><trkpt lat="48.569805582849504" lon="-2.1688544002478105"><ele>5.571428571428571</ele><time>2026-04-05T09:36:18Z</time></trkpt><trkpt lat="48.56979695675741" lon="-2.1687488952129916"><ele>5.428571428571429</ele><time>2026-04-05T09:36:19Z</time></trkpt><trkpt lat="48.56978357819818" lon="-2.168645243809385"><ele>5.285714285714286</ele><time>2026-04-05T09:36:20Z</time></trkpt><trkpt lat="48.56976616588456" lon="-2.168541530821301"><ele>5.142857142857142</ele><time>2026-04-05T09:36:21Z</time></trkpt><trkpt lat="48.56974372926174" lon="-2.1684394558202937"><ele>5.0</ele><time>2026-04-05T09:36:22Z</time></trkpt><trkpt lat="48.56971248808116" lon="-2.168335197871611"><ele>5.0</ele><time>2026-04-05T09:36:23Z</time></trkpt><trkpt lat="48.56968222722718" lon="-2.16824383944527"><ele>5.0</ele><time>2026-04-05T09:36:24Z</time></trkpt><trkpt lat="48.56964631690573" lon="-2.1681550475100053"><ele>5.0</ele><time>2026-04-05T09:36:25Z</time></trkpt><trkpt lat="48.56960603140471" lon="-2.1680647390030727"><ele>5.0</ele><time>2026-04-05T09:36:26Z</time></trkpt><trkpt lat="48.569561206218545" lon="-2.167976217982913"><ele>5.0</ele><time>2026-04-05T09:36:27Z</time></trkpt><trkpt lat="48.56951060602594" lon="-2.167894753892952"><ele>5.0</ele><time>2026-04-05T09:36:28Z</time></trkpt><trkpt lat="48.56945874625663" lon="-2.167817847377632"><ele>5.0</ele><time>2026-04-05T09:36:29Z</time></trkpt><trkpt lat="48.569399991849046" lon="-2.1677535447347838"><ele>5.0</ele><time>2026-04-05T09:36:30Z</time></trkpt><trkpt lat="48.569343370801164" lon="-2.167688286477739"><ele>5.0</ele><time>2026-04-05T09:36:31Z</time></trkpt><trkpt lat="48.5692870415543" lon="-2.167623363024584"><ele>5.0</ele><time>2026-04-05T09:36:32Z</time></trkpt><trkpt lat="48.569229176735305" lon="-2.167566258667398"><ele>5.0</ele><time>2026-04-05T09:36:33Z</time></trkpt><trkpt lat="48.56916726372261" lon="-2.167508848556193"><ele>5.0</ele><time>2026-04-05T09:36:34Z</time></trkpt><trkpt lat="48.56910694088053" lon="-2.167453637742693"><ele>5.0</ele><time>2026-04-05T09:36:35Z</time></trkpt><trkpt lat="48.56904623955393" lon="-2.1673956125582516"><ele>5.0</ele><time>2026-04-05T09:36:36Z</time></trkpt><trkpt lat="48.56898781246372" lon="-2.1673428347346966"><ele>4.833333333333334</ele><time>2026-04-05T09:36:37Z</time></trkpt><trkpt lat="48.56892602771874" lon="-2.167292555743065"><ele>4.666666666666667</ele><time>2026-04-05T09:36:38Z</time></trkpt><trkpt lat="48.568864563495545" lon="-2.1672397081564716"><ele>4.5</ele><time>2026-04-05T09:36:39Z</time></trkpt><trkpt lat="48.568803819154134" lon="-2.1671825159022027"><ele>4.333333333333333</ele><time>2026-04-05T09:36:40Z</time></trkpt><trkpt lat="48.568741845117366" lon="-2.1671267289094622"><ele>4.166666666666666</ele><time>2026-04-05T09:36:41Z</time></trkpt><trkpt lat="48.56862114847011" lon="-2.16702119799801"><ele>4.0</ele><time>2026-04-05T09:36:43Z</time></trkpt><trkpt lat="48.568557181604525" lon="-2.166969852907096"><ele>4.0</ele><time>2026-04-05T09:36:44Z</time></trkpt><trkpt lat="48.56849145125706" lon="-2.1669217172315927"><ele>3.9999999999999996</ele><time>2026-04-05T09:36:45Z</time></trkpt><trkpt lat="48.5684286678486" lon="-2.1668634930384996"><ele>4.0</ele><time>2026-04-05T09:36:46Z</time></trkpt><trkpt lat="48.56836642357272" lon="-2.166810586640215"><ele>4.0</ele><time>2026-04-05T09:36:47Z</time></trkpt><trkpt lat="48.56830424393801" lon="-2.166758065910186"><ele>3.9999999999999996</ele><time>2026-04-05T09:36:48Z</time></trkpt><trkpt lat="48.568242907553646" lon="-2.166702354439586"><ele>4.0</ele><time>2026-04-05T09:36:49Z</time></trkpt><trkpt lat="48.56818164507315" lon="-2.1666554140379994"><ele>4.0</ele><time>2026-04-05T09:36:50Z</time></trkpt><trkpt lat="48.568121666987565" lon="-2.1666028397546175"><ele>3.9999999999999996</ele><time>2026-04-05T09:36:51Z</time></trkpt><trkpt lat="48.56806192460916" lon="-2.166553480043905"><ele>4.0</ele><time>2026-04-05T09:36:52Z</time></trkpt><trkpt lat="48.568002353199816" lon="-2.1665035091533658"><ele>4.0</ele><time>2026-04-05T09:36:53Z</time></trkpt><trkpt lat="48.56794539596473" lon="-2.166450707436687"><ele>4.0</ele><time>2026-04-05T09:36:54Z</time></trkpt><trkpt lat="48.567889389415555" lon="-2.1663994750238693"><ele>3.9999999999999996</ele><time>2026-04-05T09:36:55Z</time></trkpt><trkpt lat="48.567831902703695" lon="-2.166347981044121"><ele>4.0</ele><time>2026-04-05T09:36:56Z</time></trkpt><trkpt lat="48.567721000054874" lon="-2.166243638173504"><ele>3.8571428571428568</ele><time>2026-04-05T09:36:58Z</time></trkpt><trkpt lat="48.5676625196105" lon="-2.166196877972085"><ele>3.714285714285714</ele><time>2026-04-05T09:36:59Z</time></trkpt><trkpt lat="48.5676037517448" lon="-2.166145787650143"><ele>3.571428571428571</ele><time>2026-04-05T09:37:00Z</time></trkpt><trkpt lat="48.56754221619448" lon="-2.166092070841517"><ele>3.4285714285714284</ele><time>2026-04-05T09:37:01Z</time></trkpt><trkpt lat="48.567484098819925" lon="-2.166051068729999"><ele>3.2857142857142856</ele><time>2026-04-05T09:37:02Z</time></trkpt><trkpt lat="48.567427395291226" lon="-2.1660014460032295"><ele>3.1428571428571423</ele><time>2026-04-05T09:37:03Z</time></trkpt><trkpt lat="48.56737185955596" lon="-2.165951446174608"><ele>3.0</ele><time>2026-04-05T09:37:04Z</time></trkpt><trkpt lat="48.567264858914484" lon="-2.165854650087925"><ele>3.0</ele><time>2026-04-05T09:37:06Z</time></trkpt><trkpt lat="48.56715788738803" lon="-2.1657661589698876"><ele>3.0</ele><time>2026-04-05T09:37:08Z</time></trkpt><trkpt lat="48.56709352018739" lon="-2.1657002556837823"><ele>3.0</ele><time>2026-04-05T09:37:10Z</time></trkpt><trkpt lat="48.56714096618657" lon="-2.165509444699029"><ele>3.0</ele><time>2026-04-05T09:37:11Z</time></trkpt><trkpt lat="48.567241023128105" lon="-2.165507908073846"><ele>3.0</ele><time>2026-04-05T09:37:12Z</time></trkpt><trkpt lat="48.56730422872533" lon="-2.1654952712417406"><ele>2.75</ele><time>2026-04-05T09:37:13Z</time></trkpt><trkpt lat="48.567416347393134" lon="-2.165422429903104"><ele>2.5</ele><time>2026-04-05T09:37:15Z</time></trkpt><trkpt lat="48.567503604105454" lon="-2.165285178190215"><ele>2.25</ele><time>2026-04-05T09:37:17Z</time></trkpt><trkpt lat="48.56756042640237" lon="-2.165126409288755"><ele>2.0</ele><time>2026-04-05T09:37:19Z</time></trkpt><trkpt lat="48.56760504708598" lon="-2.1649637550040923"><ele>2.0</ele><time>2026-04-05T09:37:21Z</time></trkpt><trkpt lat="48.567654287842785" lon="-2.1648097403263966"><ele>2.0</ele><time>2026-04-05T09:37:23Z</time></trkpt><trkpt lat="48.567710574488466" lon="-2.1646701284262764"><ele>2.0</ele><time>2026-04-05T09:37:25Z</time></trkpt><trkpt lat="48.56776553904236" lon="-2.164538288267009"><ele>2.0</ele><time>2026-04-05T09:37:27Z</time></trkpt><trkpt lat="48.5678187075762" lon="-2.1644784592170883"><ele>2.0</ele><time>2026-04-05T09:37:30Z</time></trkpt><trkpt lat="48.56785826016486" lon="-2.164394654714627"><ele>2.4000000000000004</ele><time>2026-04-05T09:37:34Z</time></trkpt><trkpt lat="48.56790993917654" lon="-2.1643165755714526"><ele>2.8000000000000003</ele><time>2026-04-05T09:37:36Z</time></trkpt><trkpt lat="48.567967492441454" lon="-2.1642132579965994"><ele>3.2</ele><time>2026-04-05T09:37:38Z</time></trkpt><trkpt lat="48.56802527119422" lon="-2.164086954346743"><ele>3.6</ele><time>2026-04-05T09:37:40Z</time></trkpt><trkpt lat="48.56806460575257" lon="-2.1639307770262137"><ele>4.0</ele><time>2026-04-05T09:37:42Z</time></trkpt><trkpt lat="48.56809948120867" lon="-2.1637667352123993"><ele>4.0</ele><time>2026-04-05T09:37:43.999Z</time></trkpt><trkpt lat="48.568139084588395" lon="-2.1635938079396806"><ele>4.0</ele><time>2026-04-05T09:37:45.999Z</time></trkpt><trkpt lat="48.568179427852336" lon="-2.1634205221659704"><ele>4.0</ele><time>2026-04-05T09:37:47.999Z</time></trkpt><trkpt lat="48.568221046650336" lon="-2.1632401497662253"><ele>4.0</ele><time>2026-04-05T09:37:49.999Z</time></trkpt><trkpt lat="48.56822908499117" lon="-2.1631384764983035"><ele>4.0</ele><time>2026-04-05T09:37:50.999Z</time></trkpt><trkpt lat="48.568251726544005" lon="-2.163041622513437"><ele>4.0</ele><time>2026-04-05T09:37:51.999Z</time></trkpt><trkpt lat="48.568290384297825" lon="-2.162954649868027"><ele>3.9999999999999996</ele><time>2026-04-05T09:37:52.999Z</time></trkpt><trkpt lat="48.568315644721274" lon="-2.1628606643902186"><ele>4.0</ele><time>2026-04-05T09:37:53.999Z</time></trkpt><trkpt lat="48.56832793918657" lon="-2.162762478025232"><ele>4.0</ele><time>2026-04-05T09:37:54.999Z</time></trkpt><trkpt lat="48.568373679730676" lon="-2.162682903577786"><ele>3.9999999999999996</ele><time>2026-04-05T09:37:55.999Z</time></trkpt><trkpt lat="48.568405948706534" lon="-2.162592201341367"><ele>4.0</ele><time>2026-04-05T09:37:57Z</time></trkpt><trkpt lat="48.56844023776267" lon="-2.1625093766748154"><ele>4.0</ele><time>2026-04-05T09:37:58Z</time></trkpt><trkpt lat="48.56848300011043" lon="-2.1624295825416016"><ele>3.8571428571428568</ele><time>2026-04-05T09:37:59Z</time></trkpt><trkpt lat="48.568529274774086" lon="-2.162353713617964"><ele>3.714285714285714</ele><time>2026-04-05T09:38:00Z</time></trkpt><trkpt lat="48.56858422923871" lon="-2.1622862126281075"><ele>3.571428571428571</ele><time>2026-04-05T09:38:01Z</time></trkpt><trkpt lat="48.568637314608" lon="-2.1622263224530647"><ele>3.4285714285714284</ele><time>2026-04-05T09:38:02Z</time></trkpt><trkpt lat="48.56869589334969" lon="-2.162173017769074"><ele>3.2857142857142856</ele><time>2026-04-05T09:38:03Z</time></trkpt><trkpt lat="48.56875603767335" lon="-2.1621253741310467"><ele>3.1428571428571423</ele><time>2026-04-05T09:38:04Z</time></trkpt><trkpt lat="48.568818463299834" lon="-2.162080968677495"><ele>3.0</ele><time>2026-04-05T09:38:05Z</time></trkpt><trkpt lat="48.56888358163496" lon="-2.1620478449800684"><ele>2.9999999999999996</ele><time>2026-04-05T09:38:06Z</time></trkpt><trkpt lat="48.56894918947862" lon="-2.1620181787581823"><ele>3.0</ele><time>2026-04-05T09:38:07Z</time></trkpt><trkpt lat="48.569014327737115" lon="-2.161988451018165"><ele>3.0</ele><time>2026-04-05T09:38:08Z</time></trkpt><trkpt lat="48.56907599657684" lon="-2.1619544927575998"><ele>3.0</ele><time>2026-04-05T09:38:09Z</time></trkpt><trkpt lat="48.56914067451576" lon="-2.16192714761356"><ele>3.0</ele><time>2026-04-05T09:38:10Z</time></trkpt><trkpt lat="48.56920569373776" lon="-2.161903423618543"><ele>2.9999999999999996</ele><time>2026-04-05T09:38:11Z</time></trkpt><trkpt lat="48.56926755679535" lon="-2.1618762925905006"><ele>3.0</ele><time>2026-04-05T09:38:12Z</time></trkpt><trkpt lat="48.56933016679984" lon="-2.161857729527667"><ele>2.9999999999999996</ele><time>2026-04-05T09:38:13Z</time></trkpt><trkpt lat="48.56939459439989" lon="-2.161828242844323"><ele>3.0</ele><time>2026-04-05T09:38:14Z</time></trkpt><trkpt lat="48.569455418173256" lon="-2.161794566654472"><ele>3.0</ele><time>2026-04-05T09:38:15Z</time></trkpt><trkpt lat="48.569516489728855" lon="-2.161762680135052"><ele>3.0</ele><time>2026-04-05T09:38:16Z</time></trkpt><trkpt lat="48.569577123748786" lon="-2.1617319231096905"><ele>3.0</ele><time>2026-04-05T09:38:17Z</time></trkpt><trkpt lat="48.569638521780796" lon="-2.161708275251518"><ele>2.9999999999999996</ele><time>2026-04-05T09:38:18Z</time></trkpt><trkpt lat="48.56970074486295" lon="-2.161682085296393"><ele>3.0</ele><time>2026-04-05T09:38:19Z</time></trkpt><trkpt lat="48.56976286210452" lon="-2.1616501636542824"><ele>3.1666666666666665</ele><time>2026-04-05T09:38:20Z</time></trkpt><trkpt lat="48.56982448550651" lon="-2.161623947405659"><ele>3.333333333333333</ele><time>2026-04-05T09:38:21Z</time></trkpt><trkpt lat="48.56988741012359" lon="-2.161597860774537"><ele>3.5</ele><time>2026-04-05T09:38:22Z</time></trkpt><trkpt lat="48.56995121211681" lon="-2.161570997011838"><ele>3.6666666666666665</ele><time>2026-04-05T09:38:23Z</time></trkpt><trkpt lat="48.5700159855728" lon="-2.161547709231228"><ele>3.833333333333333</ele><time>2026-04-05T09:38:24Z</time></trkpt><trkpt lat="48.57008008644683" lon="-2.1615281884091004"><ele>4.0</ele><time>2026-04-05T09:38:25Z</time></trkpt><trkpt lat="48.57020019727522" lon="-2.1614830745307474"><ele>4.0</ele><time>2026-04-05T09:38:27Z</time></trkpt><trkpt lat="48.57031960579994" lon="-2.16143463805093"><ele>4.0</ele><time>2026-04-05T09:38:29Z</time></trkpt><trkpt lat="48.570379681926845" lon="-2.161406067064592"><ele>4.0</ele><time>2026-04-05T09:38:30Z</time></trkpt><trkpt lat="48.57043939332737" lon="-2.161373782407378"><ele>4.0</ele><time>2026-04-05T09:38:31Z</time></trkpt><trkpt lat="48.57054910896686" lon="-2.1612936996158636"><ele>4.0</ele><time>2026-04-05T09:38:33Z</time></trkpt><trkpt lat="48.57065056919628" lon="-2.1612013580132694"><ele>4.5</ele><time>2026-04-05T09:38:35Z</time></trkpt><trkpt lat="48.5707479022103" lon="-2.16109942040957"><ele>5.0</ele><time>2026-04-05T09:38:37Z</time></trkpt><trkpt lat="48.57084860687603" lon="-2.1610055438873794"><ele>5.5</ele><time>2026-04-05T09:38:39Z</time></trkpt><trkpt lat="48.5709492214413" lon="-2.1609194519946207"><ele>6.0</ele><time>2026-04-05T09:38:41Z</time></trkpt><trkpt lat="48.5710536691052" lon="-2.1608405717711614"><ele>6.0</ele><time>2026-04-05T09:38:43Z</time></trkpt><trkpt lat="48.57115586109752" lon="-2.16075872780075"><ele>6.0</ele><time>2026-04-05T09:38:45Z</time></trkpt><trkpt lat="48.57125576512247" lon="-2.160676342166333"><ele>6.0</ele><time>2026-04-05T09:38:47Z</time></trkpt><trkpt lat="48.571355329500236" lon="-2.160584770145357"><ele>6.0</ele><time>2026-04-05T09:38:49Z</time></trkpt><trkpt lat="48.57145538365035" lon="-2.1604901366192455"><ele>6.25</ele><time>2026-04-05T09:38:51Z</time></trkpt><trkpt lat="48.571560348485846" lon="-2.1604024441847516"><ele>6.5</ele><time>2026-04-05T09:38:53Z</time></trkpt><trkpt lat="48.57166370079909" lon="-2.16031191185068"><ele>6.75</ele><time>2026-04-05T09:38:55Z</time></trkpt><trkpt lat="48.57176926087545" lon="-2.1602304745183325"><ele>7.0</ele><time>2026-04-05T09:38:57Z</time></trkpt><trkpt lat="48.571878741957704" lon="-2.1601750994192113"><ele>7.0</ele><time>2026-04-05T09:38:59Z</time></trkpt><trkpt lat="48.57198749334556" lon="-2.160119053043134"><ele>6.999999999999999</ele><time>2026-04-05T09:39:01Z</time></trkpt><trkpt lat="48.572086626530286" lon="-2.1600519090601633"><ele>6.999999999999999</ele><time>2026-04-05T09:39:03Z</time></trkpt><trkpt lat="48.57217974392251" lon="-2.15997804145098"><ele>7.0</ele><time>2026-04-05T09:39:05Z</time></trkpt><trkpt lat="48.572262402311914" lon="-2.1598767647138786"><ele>7.0</ele><time>2026-04-05T09:39:07Z</time></trkpt><trkpt lat="48.57231739925508" lon="-2.159794088154029"><ele>7.199999999999999</ele><time>2026-04-05T09:39:10Z</time></trkpt><trkpt lat="48.572368284656854" lon="-2.1597006836350623"><ele>7.3999999999999995</ele><time>2026-04-05T09:39:12Z</time></trkpt><trkpt lat="48.57242090618957" lon="-2.159632027186213"><ele>7.6000000000000005</ele><time>2026-04-05T09:39:13Z</time></trkpt><trkpt lat="48.572482729843564" lon="-2.1595631428000375"><ele>7.800000000000001</ele><time>2026-04-05T09:39:14Z</time></trkpt><trkpt lat="48.572583328031" lon="-2.159479074280902"><ele>8.0</ele><time>2026-04-05T09:39:16Z</time></trkpt><trkpt lat="48.572689370288884" lon="-2.159400865771206"><ele>8.0</ele><time>2026-04-05T09:39:18Z</time></trkpt><trkpt lat="48.57279470745972" lon="-2.159327261322329"><ele>8.0</ele><time>2026-04-05T09:39:20Z</time></trkpt><trkpt lat="48.57289718738843" lon="-2.159239447798484"><ele>8.0</ele><time>2026-04-05T09:39:22Z</time></trkpt><trkpt lat="48.57299052005996" lon="-2.1591307481704907"><ele>8.0</ele><time>2026-04-05T09:39:24Z</time></trkpt><trkpt lat="48.57307503911128" lon="-2.1590109918925835"><ele>8.4</ele><time>2026-04-05T09:39:26Z</time></trkpt><trkpt lat="48.57314530152197" lon="-2.158903107528009"><ele>8.8</ele><time>2026-04-05T09:39:28Z</time></trkpt><trkpt lat="48.57323206108352" lon="-2.1588208867100187"><ele>9.2</ele><time>2026-04-05T09:39:30Z</time></trkpt><trkpt lat="48.57330378555596" lon="-2.1587413866283978"><ele>9.6</ele><time>2026-04-05T09:39:32Z</time></trkpt><trkpt lat="48.573296320786326" lon="-2.1585848273056665"><ele>10.0</ele><time>2026-04-05T09:39:34Z</time></trkpt><trkpt lat="48.57328285944038" lon="-2.158409518464135"><ele>10.0</ele><time>2026-04-05T09:39:36Z</time></trkpt><trkpt lat="48.57325375346234" lon="-2.1582353657961284"><ele>10.0</ele><time>2026-04-05T09:39:38Z</time></trkpt><trkpt lat="48.57322601033355" lon="-2.1580577684943383"><ele>10.0</ele><time>2026-04-05T09:39:40Z</time></trkpt><trkpt lat="48.573206597349284" lon="-2.1578729952413203"><ele>10.0</ele><time>2026-04-05T09:39:42Z</time></trkpt><trkpt lat="48.57319660662165" lon="-2.1577763272660846"><ele>10.0</ele><time>2026-04-05T09:39:43Z</time></trkpt><trkpt lat="48.57318606067927" lon="-2.157677512070157"><ele>9.857142857142858</ele><time>2026-04-05T09:39:44Z</time></trkpt><trkpt lat="48.57317550958244" lon="-2.1575788060040075"><ele>9.714285714285715</ele><time>2026-04-05T09:39:44.999Z</time></trkpt><trkpt lat="48.573163846471616" lon="-2.1574814564321803"><ele>9.571428571428573</ele><time>2026-04-05T09:39:45.999Z</time></trkpt><trkpt lat="48.57315594984708" lon="-2.1573817986319126"><ele>9.428571428571429</ele><time>2026-04-05T09:39:46.999Z</time></trkpt><trkpt lat="48.57314734801528" lon="-2.1572825766165096"><ele>9.285714285714286</ele><time>2026-04-05T09:39:47.999Z</time></trkpt><trkpt lat="48.573135953887636" lon="-2.1571842687514167"><ele>9.142857142857144</ele><time>2026-04-05T09:39:48.999Z</time></trkpt><trkpt lat="48.57312917744363" lon="-2.15708867086299"><ele>9.0</ele><time>2026-04-05T09:39:49.999Z</time></trkpt><trkpt lat="48.573120031812124" lon="-2.1569818932851286"><ele>9.000000000000002</ele><time>2026-04-05T09:39:50.999Z</time></trkpt><trkpt lat="48.57311090076798" lon="-2.156874875854735"><ele>9.0</ele><time>2026-04-05T09:39:51.999Z</time></trkpt><trkpt lat="48.573105425146665" lon="-2.1567707339393314"><ele>9.0</ele><time>2026-04-05T09:39:52.999Z</time></trkpt><trkpt lat="48.57310100356008" lon="-2.156667035286805"><ele>9.0</ele><time>2026-04-05T09:39:53.999Z</time></trkpt><trkpt lat="48.5731010156923" lon="-2.1565654537719383"><ele>9.0</ele><time>2026-04-05T09:39:54.999Z</time></trkpt><trkpt lat="48.57310250422367" lon="-2.1564643999651767"><ele>9.000000000000002</ele><time>2026-04-05T09:39:55.999Z</time></trkpt><trkpt lat="48.573106205651094" lon="-2.156368332951542"><ele>9.0</ele><time>2026-04-05T09:39:56.999Z</time></trkpt><trkpt lat="48.57311380022135" lon="-2.156271988716641"><ele>9.0</ele><time>2026-04-05T09:39:57.999Z</time></trkpt><trkpt lat="48.573129134388296" lon="-2.1561763569404797"><ele>9.0</ele><time>2026-04-05T09:39:58.999Z</time></trkpt><trkpt lat="48.57313346547915" lon="-2.155988086915095"><ele>9.0</ele><time>2026-04-05T09:40:00.999Z</time></trkpt><trkpt lat="48.57314654654664" lon="-2.1558021823825055"><ele>9.0</ele><time>2026-04-05T09:40:03Z</time></trkpt><trkpt lat="48.57315350526034" lon="-2.155707176734615"><ele>9.0</ele><time>2026-04-05T09:40:04Z</time></trkpt><trkpt lat="48.57316081376674" lon="-2.1556113657076907"><ele>9.0</ele><time>2026-04-05T09:40:05Z</time></trkpt><trkpt lat="48.57317733598033" lon="-2.155424190239088"><ele>9.166666666666666</ele><time>2026-04-05T09:40:07Z</time></trkpt><trkpt lat="48.57319534043317" lon="-2.155320336094431"><ele>9.333333333333334</ele><time>2026-04-05T09:40:08Z</time></trkpt><trkpt lat="48.573212610406216" lon="-2.155224845954336"><ele>9.5</ele><time>2026-04-05T09:40:09Z</time></trkpt><trkpt lat="48.573237055994255" lon="-2.155120358520907"><ele>9.666666666666668</ele><time>2026-04-05T09:40:10Z</time></trkpt><trkpt lat="48.57326936005686" lon="-2.155026049945461"><ele>9.833333333333334</ele><time>2026-04-05T09:40:11Z</time></trkpt><trkpt lat="48.57331754375463" lon="-2.154846675562239"><ele>10.0</ele><time>2026-04-05T09:40:13Z</time></trkpt><trkpt lat="48.573366204576566" lon="-2.1546744717697224"><ele>10.2</ele><time>2026-04-05T09:40:15Z</time></trkpt><trkpt lat="48.57338248474662" lon="-2.1545814075993035"><ele>10.4</ele><time>2026-04-05T09:40:16Z</time></trkpt><trkpt lat="48.57343504016506" lon="-2.1544092591675597"><ele>10.600000000000001</ele><time>2026-04-05T09:40:18Z</time></trkpt><trkpt lat="48.57344978339868" lon="-2.154252733819388"><ele>10.8</ele><time>2026-04-05T09:40:20Z</time></trkpt><trkpt lat="48.57335605693168" lon="-2.154153488519098"><ele>11.0</ele><time>2026-04-05T09:40:22Z</time></trkpt><trkpt lat="48.57328755620655" lon="-2.154195386368516"><ele>11.0</ele><time>2026-04-05T09:40:23Z</time></trkpt><trkpt lat="48.57322447145913" lon="-2.154197991991864"><ele>11.0</ele><time>2026-04-05T09:40:24Z</time></trkpt><trkpt lat="48.57315994609641" lon="-2.154176310301356"><ele>11.0</ele><time>2026-04-05T09:40:25Z</time></trkpt><trkpt lat="48.57302953622556" lon="-2.154190507676613"><ele>11.0</ele><time>2026-04-05T09:40:27Z</time></trkpt><trkpt lat="48.57296432442735" lon="-2.154192448505978"><ele>11.0</ele><time>2026-04-05T09:40:28Z</time></trkpt><trkpt lat="48.572896494338536" lon="-2.154191963552884"><ele>11.0</ele><time>2026-04-05T09:40:29Z</time></trkpt><trkpt lat="48.57275937825407" lon="-2.1541979970494647"><ele>10.714285714285715</ele><time>2026-04-05T09:40:31Z</time></trkpt><trkpt lat="48.572694471343986" lon="-2.154203612651008"><ele>10.428571428571429</ele><time>2026-04-05T09:40:32Z</time></trkpt><trkpt lat="48.572626320288684" lon="-2.1542100705183795"><ele>10.142857142857142</ele><time>2026-04-05T09:40:33Z</time></trkpt><trkpt lat="48.57255552203475" lon="-2.154217667361053"><ele>9.857142857142858</ele><time>2026-04-05T09:40:34Z</time></trkpt><trkpt lat="48.57248792950803" lon="-2.154221018648335"><ele>9.571428571428571</ele><time>2026-04-05T09:40:35Z</time></trkpt><trkpt lat="48.57242156446883" lon="-2.154219114469911"><ele>9.285714285714286</ele><time>2026-04-05T09:40:36Z</time></trkpt><trkpt lat="48.57235116519023" lon="-2.154218031267102"><ele>9.0</ele><time>2026-04-05T09:40:37Z</time></trkpt><trkpt lat="48.57227881871033" lon="-2.1542007300275854"><ele>9.0</ele><time>2026-04-05T09:40:38Z</time></trkpt><trkpt lat="48.572214327792516" lon="-2.154147062132809"><ele>9.0</ele><time>2026-04-05T09:40:39Z</time></trkpt><trkpt lat="48.57216476699113" lon="-2.154061117865123"><ele>9.0</ele><time>2026-04-05T09:40:40Z</time></trkpt><trkpt lat="48.5721393734754" lon="-2.1539457235964683"><ele>9.0</ele><time>2026-04-05T09:40:41Z</time></trkpt><trkpt lat="48.572122030871874" lon="-2.1538344873713933"><ele>9.0</ele><time>2026-04-05T09:40:42Z</time></trkpt><trkpt lat="48.5721105273811" lon="-2.1537243884608936"><ele>9.0</ele><time>2026-04-05T09:40:43Z</time></trkpt><trkpt lat="48.57209556017948" lon="-2.153617216290172"><ele>9.000000000000002</ele><time>2026-04-05T09:40:44Z</time></trkpt><trkpt lat="48.572073171371656" lon="-2.1535119261054145"><ele>9.0</ele><time>2026-04-05T09:40:45Z</time></trkpt><trkpt lat="48.572052524584976" lon="-2.1534079979821854"><ele>9.0</ele><time>2026-04-05T09:40:46Z</time></trkpt><trkpt lat="48.572027653534015" lon="-2.153308623437921"><ele>9.0</ele><time>2026-04-05T09:40:47Z</time></trkpt><trkpt lat="48.57199588659658" lon="-2.1532124710163596"><ele>9.0</ele><time>2026-04-05T09:40:48Z</time></trkpt><trkpt lat="48.571965704914994" lon="-2.1531134711807427"><ele>9.000000000000002</ele><time>2026-04-05T09:40:49Z</time></trkpt><trkpt lat="48.57192976070492" lon="-2.1530234561986257"><ele>9.0</ele><time>2026-04-05T09:40:50Z</time></trkpt><trkpt lat="48.57189232735015" lon="-2.1529351815740223"><ele>8.857142857142858</ele><time>2026-04-05T09:40:51Z</time></trkpt><trkpt lat="48.571851652682206" lon="-2.152847396227643"><ele>8.714285714285715</ele><time>2026-04-05T09:40:52Z</time></trkpt><trkpt lat="48.57181247936063" lon="-2.1527686633502827"><ele>8.571428571428571</ele><time>2026-04-05T09:40:53Z</time></trkpt><trkpt lat="48.57177178261951" lon="-2.152683339769863"><ele>8.428571428571429</ele><time>2026-04-05T09:40:54Z</time></trkpt><trkpt lat="48.57173075195058" lon="-2.1526054707097337"><ele>8.285714285714285</ele><time>2026-04-05T09:40:55Z</time></trkpt><trkpt lat="48.57168728309654" lon="-2.1525244064030775"><ele>8.142857142857142</ele><time>2026-04-05T09:40:56Z</time></trkpt><trkpt lat="48.5716449151431" lon="-2.1524478802529385"><ele>8.0</ele><time>2026-04-05T09:40:57Z</time></trkpt><trkpt lat="48.57159686598851" lon="-2.1523780773498045"><ele>8.333333333333332</ele><time>2026-04-05T09:40:58Z</time></trkpt><trkpt lat="48.57154726159293" lon="-2.1523099112146222"><ele>8.666666666666666</ele><time>2026-04-05T09:40:59Z</time></trkpt><trkpt lat="48.57149742578293" lon="-2.152239737393233"><ele>9.0</ele><time>2026-04-05T09:41:00Z</time></trkpt><trkpt lat="48.57144727986732" lon="-2.1521715032046647"><ele>9.333333333333334</ele><time>2026-04-05T09:41:01Z</time></trkpt><trkpt lat="48.57139410138757" lon="-2.1521156924768685"><ele>9.666666666666668</ele><time>2026-04-05T09:41:02Z</time></trkpt><trkpt lat="48.57134409975034" lon="-2.152055235464094"><ele>10.0</ele><time>2026-04-05T09:41:03Z</time></trkpt><trkpt lat="48.57122796509733" lon="-2.151953347304919"><ele>9.666666666666668</ele><time>2026-04-05T09:41:05Z</time></trkpt><trkpt lat="48.571172354384636" lon="-2.1519011742897067"><ele>9.333333333333334</ele><time>2026-04-05T09:41:06Z</time></trkpt><trkpt lat="48.57111717807246" lon="-2.151844573991861"><ele>9.0</ele><time>2026-04-05T09:41:07Z</time></trkpt><trkpt lat="48.571063566908336" lon="-2.1517881084793955"><ele>8.666666666666666</ele><time>2026-04-05T09:41:08Z</time></trkpt><trkpt lat="48.57101208192604" lon="-2.151727589559051"><ele>8.333333333333332</ele><time>2026-04-05T09:41:09Z</time></trkpt><trkpt lat="48.5709565382125" lon="-2.1516743970546464"><ele>8.0</ele><time>2026-04-05T09:41:10Z</time></trkpt><trkpt lat="48.5708494400291" lon="-2.1515695166117714"><ele>8.142857142857142</ele><time>2026-04-05T09:41:12Z</time></trkpt><trkpt lat="48.570792880461376" lon="-2.1515177464737496"><ele>8.285714285714285</ele><time>2026-04-05T09:41:13Z</time></trkpt><trkpt lat="48.57073695108741" lon="-2.1514692710222074"><ele>8.428571428571429</ele><time>2026-04-05T09:41:14Z</time></trkpt><trkpt lat="48.57068015141674" lon="-2.1514204899599454"><ele>8.571428571428571</ele><time>2026-04-05T09:41:15Z</time></trkpt><trkpt lat="48.570569181468244" lon="-2.1513354473494104"><ele>8.714285714285715</ele><time>2026-04-05T09:41:17Z</time></trkpt><trkpt lat="48.57051376642515" lon="-2.151287554872484"><ele>8.857142857142858</ele><time>2026-04-05T09:41:18Z</time></trkpt><trkpt lat="48.57045761414616" lon="-2.1512389918530106"><ele>9.0</ele><time>2026-04-05T09:41:19Z</time></trkpt><trkpt lat="48.570400518052914" lon="-2.15119456816463"><ele>8.8</ele><time>2026-04-05T09:41:20Z</time></trkpt><trkpt lat="48.57034721343206" lon="-2.1511405464894864"><ele>8.600000000000001</ele><time>2026-04-05T09:41:21Z</time></trkpt><trkpt lat="48.57024184683426" lon="-2.1510460434361582"><ele>8.4</ele><time>2026-04-05T09:41:23Z</time></trkpt><trkpt lat="48.570132352408066" lon="-2.1509524975509415"><ele>8.200000000000001</ele><time>2026-04-05T09:41:25Z</time></trkpt><trkpt lat="48.5700798602716" lon="-2.1508878244422838"><ele>8.0</ele><time>2026-04-05T09:41:26Z</time></trkpt><trkpt lat="48.5699713030152" lon="-2.1507878178393107"><ele>8.0</ele><time>2026-04-05T09:41:28Z</time></trkpt><trkpt lat="48.56991811940004" lon="-2.1507321313471026"><ele>7.999999999999999</ele><time>2026-04-05T09:41:29Z</time></trkpt><trkpt lat="48.5698642317807" lon="-2.150673367250898"><ele>8.0</ele><time>2026-04-05T09:41:30Z</time></trkpt><trkpt lat="48.56981538861633" lon="-2.150608432596294"><ele>8.0</ele><time>2026-04-05T09:41:31Z</time></trkpt><trkpt lat="48.569761029279306" lon="-2.150548175652282"><ele>7.999999999999999</ele><time>2026-04-05T09:41:32Z</time></trkpt><trkpt lat="48.5697089560337" lon="-2.150483327496356"><ele>8.0</ele><time>2026-04-05T09:41:33Z</time></trkpt><trkpt lat="48.56965440984141" lon="-2.150422014101878"><ele>8.0</ele><time>2026-04-05T09:41:34Z</time></trkpt><trkpt lat="48.569604656480955" lon="-2.1503425850429143"><ele>8.0</ele><time>2026-04-05T09:41:35Z</time></trkpt><trkpt lat="48.5695562369529" lon="-2.1502675699639884"><ele>7.999999999999999</ele><time>2026-04-05T09:41:36Z</time></trkpt><trkpt lat="48.569510253799585" lon="-2.1501917035743925"><ele>8.0</ele><time>2026-04-05T09:41:37Z</time></trkpt><trkpt lat="48.5694652646707" lon="-2.1501128329857138"><ele>8.0</ele><time>2026-04-05T09:41:38Z</time></trkpt><trkpt lat="48.56942771409583" lon="-2.1500210856850357"><ele>7.999999999999999</ele><time>2026-04-05T09:41:39Z</time></trkpt><trkpt lat="48.56939089403954" lon="-2.149924611270812"><ele>8.0</ele><time>2026-04-05T09:41:40Z</time></trkpt><trkpt lat="48.569364628814306" lon="-2.1498209356194558"><ele>8.0</ele><time>2026-04-05T09:41:41Z</time></trkpt><trkpt lat="48.569340081136275" lon="-2.14971551207442"><ele>7.857142857142857</ele><time>2026-04-05T09:41:42Z</time></trkpt><trkpt lat="48.56932394975914" lon="-2.1496075967921437"><ele>7.7142857142857135</ele><time>2026-04-05T09:41:43Z</time></trkpt><trkpt lat="48.56931026009591" lon="-2.14949550183335"><ele>7.571428571428571</ele><time>2026-04-05T09:41:44Z</time></trkpt><trkpt lat="48.56929965038598" lon="-2.1493860508476086"><ele>7.428571428571429</ele><time>2026-04-05T09:41:45Z</time></trkpt><trkpt lat="48.56928744560966" lon="-2.1492777194042723"><ele>7.285714285714286</ele><time>2026-04-05T09:41:46Z</time></trkpt><trkpt lat="48.56927083038418" lon="-2.149167716012368"><ele>7.142857142857142</ele><time>2026-04-05T09:41:47Z</time></trkpt><trkpt lat="48.56925857068343" lon="-2.149062400661775"><ele>7.0</ele><time>2026-04-05T09:41:48Z</time></trkpt><trkpt lat="48.56924490070639" lon="-2.148960559232156"><ele>7.0</ele><time>2026-04-05T09:41:49Z</time></trkpt><trkpt lat="48.569234818723004" lon="-2.1488542103652244"><ele>7.0</ele><time>2026-04-05T09:41:50Z</time></trkpt><trkpt lat="48.569220421227634" lon="-2.148748146021808"><ele>7.0</ele><time>2026-04-05T09:41:51Z</time></trkpt><trkpt lat="48.569210385613374" lon="-2.148638090677448"><ele>7.0</ele><time>2026-04-05T09:41:52Z</time></trkpt><trkpt lat="48.56919622718567" lon="-2.1485296751414573"><ele>7.0</ele><time>2026-04-05T09:41:53Z</time></trkpt><trkpt lat="48.56917837354304" lon="-2.148418515420878"><ele>7.0</ele><time>2026-04-05T09:41:54Z</time></trkpt><trkpt lat="48.569156483522455" lon="-2.1483088269454917"><ele>7.0</ele><time>2026-04-05T09:41:55Z</time></trkpt><trkpt lat="48.56914101894784" lon="-2.148199200221945"><ele>7.142857142857142</ele><time>2026-04-05T09:41:56Z</time></trkpt><trkpt lat="48.56912654890869" lon="-2.1480929792100936"><ele>7.285714285714286</ele><time>2026-04-05T09:41:57Z</time></trkpt><trkpt lat="48.56910157545021" lon="-2.147987334440603"><ele>7.428571428571429</ele><time>2026-04-05T09:41:58Z</time></trkpt><trkpt lat="48.569080222370395" lon="-2.1478889046502454"><ele>7.571428571428571</ele><time>2026-04-05T09:41:59Z</time></trkpt><trkpt lat="48.56905198746149" lon="-2.147794882196589"><ele>7.7142857142857135</ele><time>2026-04-05T09:42:00Z</time></trkpt><trkpt lat="48.56903021947009" lon="-2.147693708287618"><ele>7.857142857142857</ele><time>2026-04-05T09:42:00.999Z</time></trkpt><trkpt lat="48.56900166224075" lon="-2.1475958061068434"><ele>8.0</ele><time>2026-04-05T09:42:01.999Z</time></trkpt><trkpt lat="48.568985638032224" lon="-2.1474941227467688"><ele>8.0</ele><time>2026-04-05T09:42:02.999Z</time></trkpt><trkpt lat="48.56896381815362" lon="-2.1473932596809595"><ele>7.999999999999999</ele><time>2026-04-05T09:42:03.999Z</time></trkpt><trkpt lat="48.5689390503597" lon="-2.147289396561035"><ele>8.0</ele><time>2026-04-05T09:42:04.999Z</time></trkpt><trkpt lat="48.56891653584764" lon="-2.1471941931187533"><ele>8.0</ele><time>2026-04-05T09:42:05.999Z</time></trkpt><trkpt lat="48.5688978040757" lon="-2.14709506038682"><ele>7.999999999999999</ele><time>2026-04-05T09:42:06.999Z</time></trkpt><trkpt lat="48.56888224248452" lon="-2.1469968186497823"><ele>8.0</ele><time>2026-04-05T09:42:07.999Z</time></trkpt><trkpt lat="48.56886376922142" lon="-2.1469048975497085"><ele>8.0</ele><time>2026-04-05T09:42:09Z</time></trkpt><trkpt lat="48.56884942875028" lon="-2.146797020933297"><ele>7.999999999999999</ele><time>2026-04-05T09:42:10Z</time></trkpt><trkpt lat="48.56883382416671" lon="-2.1466887979986686"><ele>8.0</ele><time>2026-04-05T09:42:11Z</time></trkpt><trkpt lat="48.568816044315476" lon="-2.146592179778821"><ele>8.0</ele><time>2026-04-05T09:42:12Z</time></trkpt><trkpt lat="48.56878517672523" lon="-2.146397241562422"><ele>8.0</ele><time>2026-04-05T09:42:14Z</time></trkpt><trkpt lat="48.56876720652612" lon="-2.1462956224249035"><ele>7.999999999999999</ele><time>2026-04-05T09:42:15Z</time></trkpt><trkpt lat="48.56874507521328" lon="-2.146197522648935"><ele>8.0</ele><time>2026-04-05T09:42:16Z</time></trkpt><trkpt lat="48.56871127394001" lon="-2.146115137914344"><ele>8.0</ele><time>2026-04-05T09:42:17Z</time></trkpt><trkpt lat="48.56868396009337" lon="-2.146021165410027"><ele>8.0</ele><time>2026-04-05T09:42:18Z</time></trkpt><trkpt lat="48.56863761964521" lon="-2.1458399241562676"><ele>8.0</ele><time>2026-04-05T09:42:20Z</time></trkpt><trkpt lat="48.56861998473019" lon="-2.1457385816168397"><ele>8.0</ele><time>2026-04-05T09:42:21Z</time></trkpt><trkpt lat="48.5686034551741" lon="-2.1456384497931915"><ele>8.0</ele><time>2026-04-05T09:42:22Z</time></trkpt><trkpt lat="48.56857640828741" lon="-2.1454583974675385"><ele>8.166666666666666</ele><time>2026-04-05T09:42:24Z</time></trkpt><trkpt lat="48.56856478729413" lon="-2.145359783953691"><ele>8.333333333333332</ele><time>2026-04-05T09:42:25Z</time></trkpt><trkpt lat="48.568546032176435" lon="-2.1452613829596126"><ele>8.5</ele><time>2026-04-05T09:42:26Z</time></trkpt><trkpt lat="48.56854227024116" lon="-2.145163676041743"><ele>8.666666666666666</ele><time>2026-04-05T09:42:27Z</time></trkpt><trkpt lat="48.56852680180946" lon="-2.1449685619549252"><ele>8.833333333333334</ele><time>2026-04-05T09:42:29Z</time></trkpt><trkpt lat="48.56851925267417" lon="-2.144867296048446"><ele>9.0</ele><time>2026-04-05T09:42:30Z</time></trkpt><trkpt lat="48.56850241748992" lon="-2.144677494045798"><ele>9.2</ele><time>2026-04-05T09:42:32Z</time></trkpt><trkpt lat="48.56848664201989" lon="-2.144508205033486"><ele>9.4</ele><time>2026-04-05T09:42:34Z</time></trkpt><trkpt lat="48.56846953220829" lon="-2.1443359180580743"><ele>9.6</ele><time>2026-04-05T09:42:36Z</time></trkpt><trkpt lat="48.56845308141018" lon="-2.1441806121673066"><ele>9.8</ele><time>2026-04-05T09:42:38Z</time></trkpt><trkpt lat="48.568428020797555" lon="-2.1440084104850774"><ele>10.0</ele><time>2026-04-05T09:42:40Z</time></trkpt><trkpt lat="48.568390749077246" lon="-2.1438645268299132"><ele>10.2</ele><time>2026-04-05T09:42:42Z</time></trkpt><trkpt lat="48.56835156028932" lon="-2.1437006711492272"><ele>10.4</ele><time>2026-04-05T09:42:44Z</time></trkpt><trkpt lat="48.568303811671" lon="-2.1435521149246237"><ele>10.600000000000001</ele><time>2026-04-05T09:42:46Z</time></trkpt><trkpt lat="48.56823699427082" lon="-2.143422202440381"><ele>10.8</ele><time>2026-04-05T09:42:48Z</time></trkpt><trkpt lat="48.56817260580263" lon="-2.143300062122702"><ele>11.0</ele><time>2026-04-05T09:42:50Z</time></trkpt><trkpt lat="48.568088581302106" lon="-2.1431851442250847"><ele>11.4</ele><time>2026-04-05T09:42:52Z</time></trkpt><trkpt lat="48.56801360035835" lon="-2.1430800685375178"><ele>11.8</ele><time>2026-04-05T09:42:54Z</time></trkpt><trkpt lat="48.56793885132161" lon="-2.1429673387596577"><ele>12.200000000000001</ele><time>2026-04-05T09:42:56Z</time></trkpt><trkpt lat="48.567866900018956" lon="-2.142867299397244"><ele>12.600000000000001</ele><time>2026-04-05T09:42:58Z</time></trkpt><trkpt lat="48.567790764240655" lon="-2.142773425034113"><ele>13.0</ele><time>2026-04-05T09:43:00Z</time></trkpt><trkpt lat="48.567733584885794" lon="-2.1427298964944224"><ele>13.166666666666666</ele><time>2026-04-05T09:43:03Z</time></trkpt><trkpt lat="48.56767091269472" lon="-2.1426677205952984"><ele>13.333333333333332</ele><time>2026-04-05T09:43:05Z</time></trkpt><trkpt lat="48.567611397196536" lon="-2.142588340872797"><ele>13.5</ele><time>2026-04-05T09:43:07Z</time></trkpt><trkpt lat="48.56756026975262" lon="-2.1425241481177206"><ele>13.666666666666668</ele><time>2026-04-05T09:43:09Z</time></trkpt><trkpt lat="48.567503314231146" lon="-2.1424569155290056"><ele>13.833333333333334</ele><time>2026-04-05T09:43:11Z</time></trkpt><trkpt lat="48.56744631079466" lon="-2.1423798986331595"><ele>14.0</ele><time>2026-04-05T09:43:13Z</time></trkpt><trkpt lat="48.5674193484787" lon="-2.141934058815466"><ele>14.166666666666668</ele><time>2026-04-05T09:43:16Z</time></trkpt><trkpt lat="48.56744188412232" lon="-2.141805072129017"><ele>14.333333333333334</ele><time>2026-04-05T09:43:18Z</time></trkpt><trkpt lat="48.567470182512224" lon="-2.141676520248267"><ele>14.5</ele><time>2026-04-05T09:43:20Z</time></trkpt><trkpt lat="48.56749270891546" lon="-2.141539212214184"><ele>14.666666666666668</ele><time>2026-04-05T09:43:22Z</time></trkpt><trkpt lat="48.56751366909194" lon="-2.141404569137991"><ele>14.833333333333334</ele><time>2026-04-05T09:43:24Z</time></trkpt><trkpt lat="48.567530228190726" lon="-2.1412803369759095"><ele>15.0</ele><time>2026-04-05T09:43:26Z</time></trkpt><trkpt lat="48.56755006074656" lon="-2.1411444742122465"><ele>15.5</ele><time>2026-04-05T09:43:28Z</time></trkpt><trkpt lat="48.567560372899806" lon="-2.1410159293463007"><ele>16.0</ele><time>2026-04-05T09:43:30Z</time></trkpt><trkpt lat="48.56756436277795" lon="-2.1408799234169833"><ele>16.5</ele><time>2026-04-05T09:43:32Z</time></trkpt><trkpt lat="48.56757291231775" lon="-2.1407480760883857"><ele>17.0</ele><time>2026-04-05T09:43:34Z</time></trkpt><trkpt lat="48.56758374727594" lon="-2.1406162459805644"><ele>17.5</ele><time>2026-04-05T09:43:36Z</time></trkpt><trkpt lat="48.567588225685185" lon="-2.1404917201310276"><ele>18.0</ele><time>2026-04-05T09:43:38Z</time></trkpt><trkpt lat="48.56759294420127" lon="-2.1403859998745887"><ele>18.666666666666668</ele><time>2026-04-05T09:43:40Z</time></trkpt><trkpt lat="48.567599334278995" lon="-2.140263702475323"><ele>19.333333333333332</ele><time>2026-04-05T09:43:42Z</time></trkpt><trkpt lat="48.567603644184615" lon="-2.14014519321471"><ele>20.0</ele><time>2026-04-05T09:43:44Z</time></trkpt><trkpt lat="48.56760712025219" lon="-2.1400210871649294"><ele>20.666666666666664</ele><time>2026-04-05T09:43:46Z</time></trkpt><trkpt lat="48.56761645161453" lon="-2.13989462399055"><ele>21.333333333333332</ele><time>2026-04-05T09:43:48Z</time></trkpt><trkpt lat="48.56763097754122" lon="-2.1397639161839597"><ele>22.0</ele><time>2026-04-05T09:43:49.999Z</time></trkpt><trkpt lat="48.56764710514576" lon="-2.1396321756189374"><ele>22.0</ele><time>2026-04-05T09:43:51.999Z</time></trkpt><trkpt lat="48.56766828941174" lon="-2.1395016752604543"><ele>22.0</ele><time>2026-04-05T09:43:53.999Z</time></trkpt><trkpt lat="48.56770080955724" lon="-2.139367922136896"><ele>22.0</ele><time>2026-04-05T09:43:55.999Z</time></trkpt><trkpt lat="48.567724771495506" lon="-2.1392374410231048"><ele>22.0</ele><time>2026-04-05T09:43:57.999Z</time></trkpt><trkpt lat="48.56775336134294" lon="-2.139113686714934"><ele>22.0</ele><time>2026-04-05T09:43:59.999Z</time></trkpt><trkpt lat="48.567796948421126" lon="-2.138966795057622"><ele>22.200000000000003</ele><time>2026-04-05T09:44:01.999Z</time></trkpt><trkpt lat="48.56782174252028" lon="-2.138837311581398"><ele>22.4</ele><time>2026-04-05T09:44:03.999Z</time></trkpt><trkpt lat="48.567784646207244" lon="-2.138662521926895"><ele>22.6</ele><time>2026-04-05T09:44:05.999Z</time></trkpt><trkpt lat="48.56778821665717" lon="-2.138499917389271"><ele>22.799999999999997</ele><time>2026-04-05T09:44:07.999Z</time></trkpt><trkpt lat="48.56778638484961" lon="-2.1383358413297815"><ele>23.0</ele><time>2026-04-05T09:44:09.999Z</time></trkpt><trkpt lat="48.56778189476841" lon="-2.1381714981440805"><ele>23.4</ele><time>2026-04-05T09:44:11.999Z</time></trkpt><trkpt lat="48.56778993585143" lon="-2.138005795483432"><ele>23.799999999999997</ele><time>2026-04-05T09:44:13.999Z</time></trkpt><trkpt lat="48.567782025621106" lon="-2.137845050979659"><ele>24.2</ele><time>2026-04-05T09:44:16Z</time></trkpt><trkpt lat="48.567781871929455" lon="-2.137659980205332"><ele>24.6</ele><time>2026-04-05T09:44:19Z</time></trkpt><trkpt lat="48.56777653730395" lon="-2.1375185336109284"><ele>25.0</ele><time>2026-04-05T09:44:20Z</time></trkpt><trkpt lat="48.56777614420868" lon="-2.1373397474108926"><ele>25.2</ele><time>2026-04-05T09:44:22Z</time></trkpt><trkpt lat="48.56778083604519" lon="-2.137169538911735"><ele>25.4</ele><time>2026-04-05T09:44:24Z</time></trkpt><trkpt lat="48.56778701671573" lon="-2.137000541020816"><ele>25.6</ele><time>2026-04-05T09:44:26Z</time></trkpt><trkpt lat="48.56780529324562" lon="-2.1368378109211834"><ele>25.8</ele><time>2026-04-05T09:44:28Z</time></trkpt><trkpt lat="48.567829262616556" lon="-2.1366786123390598"><ele>26.0</ele><time>2026-04-05T09:44:30Z</time></trkpt><trkpt lat="48.56786181845494" lon="-2.136518675563079"><ele>26.0</ele><time>2026-04-05T09:44:32Z</time></trkpt><trkpt lat="48.567903162572165" lon="-2.1363727789890254"><ele>26.0</ele><time>2026-04-05T09:44:34Z</time></trkpt><trkpt lat="48.56793562060846" lon="-2.1362238963151396"><ele>26.0</ele><time>2026-04-05T09:44:36Z</time></trkpt><trkpt lat="48.56800363725516" lon="-2.1361204213490237"><ele>26.0</ele><time>2026-04-05T09:44:38Z</time></trkpt><trkpt lat="48.568093213880466" lon="-2.136021737292527"><ele>26.0</ele><time>2026-04-05T09:44:41Z</time></trkpt><trkpt lat="48.56816737390386" lon="-2.1359820259733544"><ele>26.0</ele><time>2026-04-05T09:44:43Z</time></trkpt><trkpt lat="48.56825304912835" lon="-2.1359090415288535"><ele>26.0</ele><time>2026-04-05T09:44:45Z</time></trkpt><trkpt lat="48.56837335985207" lon="-2.135813586160179"><ele>26.0</ele><time>2026-04-05T09:44:47Z</time></trkpt><trkpt lat="48.56842473881274" lon="-2.1356627976722193"><ele>26.0</ele><time>2026-04-05T09:44:49Z</time></trkpt><trkpt lat="48.568485296032186" lon="-2.1355238059717"><ele>26.4</ele><time>2026-04-05T09:44:51Z</time></trkpt><trkpt lat="48.568531885758745" lon="-2.1353664981145917"><ele>26.8</ele><time>2026-04-05T09:44:53Z</time></trkpt><trkpt lat="48.56855820007824" lon="-2.1351973657038408"><ele>27.199999999999996</ele><time>2026-04-05T09:44:55Z</time></trkpt><trkpt lat="48.56865583314701" lon="-2.135085646213453"><ele>27.599999999999998</ele><time>2026-04-05T09:44:57Z</time></trkpt><trkpt lat="48.56864093076211" lon="-2.134989402777119"><ele>28.0</ele><time>2026-04-05T09:44:58Z</time></trkpt><trkpt lat="48.56867023597278" lon="-2.1348759277260014"><ele>28.2</ele><time>2026-04-05T09:44:59Z</time></trkpt><trkpt lat="48.5687231540305" lon="-2.1347278174601487"><ele>28.4</ele><time>2026-04-05T09:45:01Z</time></trkpt><trkpt lat="48.568730915234326" lon="-2.1345551466888586"><ele>28.599999999999998</ele><time>2026-04-05T09:45:03Z</time></trkpt><trkpt lat="48.5687413641072" lon="-2.134384062911089"><ele>28.799999999999997</ele><time>2026-04-05T09:45:05Z</time></trkpt><trkpt lat="48.568764143632976" lon="-2.1342774240775526"><ele>29.0</ele><time>2026-04-05T09:45:06Z</time></trkpt><trkpt lat="48.568794394985254" lon="-2.1341229779563635"><ele>28.6</ele><time>2026-04-05T09:45:08Z</time></trkpt><trkpt lat="48.5688204150749" lon="-2.1339683129775513"><ele>28.2</ele><time>2026-04-05T09:45:10Z</time></trkpt><trkpt lat="48.56884891897011" lon="-2.133799539714796"><ele>27.800000000000004</ele><time>2026-04-05T09:45:12Z</time></trkpt><trkpt lat="48.56888706444538" lon="-2.133614098849252"><ele>27.400000000000002</ele><time>2026-04-05T09:45:14Z</time></trkpt><trkpt lat="48.56890334003277" lon="-2.1335106482620185"><ele>27.0</ele><time>2026-04-05T09:45:15Z</time></trkpt><trkpt lat="48.56891605005282" lon="-2.13340930781973"><ele>27.0</ele><time>2026-04-05T09:45:16Z</time></trkpt><trkpt lat="48.56892847446038" lon="-2.1333069753006826"><ele>27.0</ele><time>2026-04-05T09:45:17Z</time></trkpt><trkpt lat="48.56894830012006" lon="-2.1332015166927976"><ele>27.0</ele><time>2026-04-05T09:45:18Z</time></trkpt><trkpt lat="48.56894119625423" lon="-2.1330966343811935"><ele>27.0</ele><time>2026-04-05T09:45:19Z</time></trkpt><trkpt lat="48.568947335296556" lon="-2.1329965099535144"><ele>27.0</ele><time>2026-04-05T09:45:20Z</time></trkpt><trkpt lat="48.568961844465896" lon="-2.1328872341676837"><ele>27.0</ele><time>2026-04-05T09:45:21Z</time></trkpt><trkpt lat="48.568932463515985" lon="-2.132787811579993"><ele>27.0</ele><time>2026-04-05T09:45:22Z</time></trkpt><trkpt lat="48.56894591873889" lon="-2.1326834815801097"><ele>26.714285714285715</ele><time>2026-04-05T09:45:23Z</time></trkpt><trkpt lat="48.568966924851466" lon="-2.1325754635898475"><ele>26.428571428571427</ele><time>2026-04-05T09:45:24Z</time></trkpt><trkpt lat="48.56898481332962" lon="-2.132472511183048"><ele>26.142857142857146</ele><time>2026-04-05T09:45:25Z</time></trkpt><trkpt lat="48.568996935491406" lon="-2.1323736241694378"><ele>25.857142857142858</ele><time>2026-04-05T09:45:26Z</time></trkpt><trkpt lat="48.569004224143576" lon="-2.1322731331033946"><ele>25.571428571428573</ele><time>2026-04-05T09:45:27Z</time></trkpt><trkpt lat="48.56900854106386" lon="-2.1321763066081263"><ele>25.28571428571429</ele><time>2026-04-05T09:45:28Z</time></trkpt><trkpt lat="48.569035058079145" lon="-2.132084649096852"><ele>25.0</ele><time>2026-04-05T09:45:29Z</time></trkpt><trkpt lat="48.56904793470309" lon="-2.1319828577553115"><ele>25.000000000000004</ele><time>2026-04-05T09:45:30Z</time></trkpt><trkpt lat="48.56906017976849" lon="-2.1318860599241156"><ele>25.0</ele><time>2026-04-05T09:45:31Z</time></trkpt><trkpt lat="48.56907231580027" lon="-2.131790123791464"><ele>25.0</ele><time>2026-04-05T09:45:32Z</time></trkpt><trkpt lat="48.56908295954776" lon="-2.131609007378387"><ele>25.0</ele><time>2026-04-05T09:45:34Z</time></trkpt><trkpt lat="48.569095852445884" lon="-2.1315149875852986"><ele>25.000000000000004</ele><time>2026-04-05T09:45:35Z</time></trkpt><trkpt lat="48.56912982686271" lon="-2.13143047125202"><ele>25.0</ele><time>2026-04-05T09:45:36Z</time></trkpt><trkpt lat="48.56915418077271" lon="-2.131273437241689"><ele>25.0</ele><time>2026-04-05T09:45:38Z</time></trkpt><trkpt lat="48.569200341472246" lon="-2.1311604891808265"><ele>25.0</ele><time>2026-04-05T09:45:40Z</time></trkpt><trkpt lat="48.56925610390148" lon="-2.130998494161046"><ele>25.0</ele><time>2026-04-05T09:45:42Z</time></trkpt><trkpt lat="48.56928107654085" lon="-2.130904493870786"><ele>25.0</ele><time>2026-04-05T09:45:43Z</time></trkpt><trkpt lat="48.56933518462138" lon="-2.1307296060867933"><ele>25.0</ele><time>2026-04-05T09:45:45Z</time></trkpt><trkpt lat="48.56935057618269" lon="-2.1306312125061018"><ele>25.2</ele><time>2026-04-05T09:45:46Z</time></trkpt><trkpt lat="48.569403043435294" lon="-2.1304626817036443"><ele>25.4</ele><time>2026-04-05T09:45:48Z</time></trkpt><trkpt lat="48.569433043639954" lon="-2.1303747532323474"><ele>25.6</ele><time>2026-04-05T09:45:49Z</time></trkpt><trkpt lat="48.56946396983916" lon="-2.130290334677851"><ele>25.8</ele><time>2026-04-05T09:45:50Z</time></trkpt><trkpt lat="48.56952464616717" lon="-2.1301289880111844"><ele>26.0</ele><time>2026-04-05T09:45:52Z</time></trkpt><trkpt lat="48.56956566460182" lon="-2.129970625018072"><ele>26.4</ele><time>2026-04-05T09:45:54Z</time></trkpt><trkpt lat="48.569599050887916" lon="-2.129809405302742"><ele>26.8</ele><time>2026-04-05T09:45:56Z</time></trkpt><trkpt lat="48.569618112071645" lon="-2.1296585361929004"><ele>27.199999999999996</ele><time>2026-04-05T09:45:57.999Z</time></trkpt><trkpt lat="48.56964911063309" lon="-2.1295261378934467"><ele>27.599999999999998</ele><time>2026-04-05T09:45:59.999Z</time></trkpt><trkpt lat="48.569690255499715" lon="-2.12938947414362"><ele>28.0</ele><time>2026-04-05T09:46:01.999Z</time></trkpt><trkpt lat="48.569720918510264" lon="-2.129281063566513"><ele>28.0</ele><time>2026-04-05T09:46:03.999Z</time></trkpt><trkpt lat="48.569744807639246" lon="-2.129156591286408"><ele>27.999999999999996</ele><time>2026-04-05T09:46:05.999Z</time></trkpt><trkpt lat="48.56979185645299" lon="-2.1290213969684664"><ele>27.999999999999996</ele><time>2026-04-05T09:46:07.999Z</time></trkpt><trkpt lat="48.56981502306679" lon="-2.128872107659351"><ele>28.0</ele><time>2026-04-05T09:46:09.999Z</time></trkpt><trkpt lat="48.569869672909114" lon="-2.1287165422497663"><ele>28.0</ele><time>2026-04-05T09:46:11.999Z</time></trkpt><trkpt lat="48.56990936597271" lon="-2.128552652292748"><ele>27.833333333333336</ele><time>2026-04-05T09:46:13.999Z</time></trkpt><trkpt lat="48.56995507757969" lon="-2.12838939375899"><ele>27.666666666666668</ele><time>2026-04-05T09:46:15.999Z</time></trkpt><trkpt lat="48.5700038810669" lon="-2.1282171004505295"><ele>27.5</ele><time>2026-04-05T09:46:17.999Z</time></trkpt><trkpt lat="48.57002518020982" lon="-2.128125228745894"><ele>27.333333333333336</ele><time>2026-04-05T09:46:18.999Z</time></trkpt><trkpt lat="48.57005088015219" lon="-2.128033480178619"><ele>27.166666666666668</ele><time>2026-04-05T09:46:19.999Z</time></trkpt><trkpt lat="48.570074936443035" lon="-2.127940312209719"><ele>27.0</ele><time>2026-04-05T09:46:21Z</time></trkpt><trkpt lat="48.570087405031266" lon="-2.1278422968787414"><ele>26.857142857142858</ele><time>2026-04-05T09:46:22Z</time></trkpt><trkpt lat="48.57012456400639" lon="-2.12776184025097"><ele>26.714285714285715</ele><time>2026-04-05T09:46:23Z</time></trkpt><trkpt lat="48.57015143083012" lon="-2.1276682589382947"><ele>26.57142857142857</ele><time>2026-04-05T09:46:24Z</time></trkpt><trkpt lat="48.570166657894454" lon="-2.1275515790594572"><ele>26.42857142857143</ele><time>2026-04-05T09:46:25Z</time></trkpt><trkpt lat="48.57020701243199" lon="-2.127458526359244"><ele>26.28571428571429</ele><time>2026-04-05T09:46:26Z</time></trkpt><trkpt lat="48.570235776344376" lon="-2.1273515713807143"><ele>26.142857142857142</ele><time>2026-04-05T09:46:27Z</time></trkpt><trkpt lat="48.570265874356515" lon="-2.127239724243079"><ele>26.0</ele><time>2026-04-05T09:46:28Z</time></trkpt><trkpt lat="48.57029474666753" lon="-2.1271244556377935"><ele>25.999999999999996</ele><time>2026-04-05T09:46:29Z</time></trkpt><trkpt lat="48.57032846036983" lon="-2.127006308561992"><ele>26.0</ele><time>2026-04-05T09:46:30Z</time></trkpt><trkpt lat="48.57036543898788" lon="-2.126882629041219"><ele>26.0</ele><time>2026-04-05T09:46:31Z</time></trkpt><trkpt lat="48.570406162766865" lon="-2.1267682685813787"><ele>26.0</ele><time>2026-04-05T09:46:32Z</time></trkpt><trkpt lat="48.57044373802176" lon="-2.1266416469807368"><ele>25.999999999999996</ele><time>2026-04-05T09:46:33Z</time></trkpt><trkpt lat="48.57046617895843" lon="-2.1265153515726074"><ele>26.0</ele><time>2026-04-05T09:46:34Z</time></trkpt><trkpt lat="48.5705006190016" lon="-2.1264010122197927"><ele>25.999999999999996</ele><time>2026-04-05T09:46:35Z</time></trkpt><trkpt lat="48.57054396830943" lon="-2.1263098508864706"><ele>26.0</ele><time>2026-04-05T09:46:36Z</time></trkpt><trkpt lat="48.57055201770336" lon="-2.126206552160703"><ele>26.0</ele><time>2026-04-05T09:46:37Z</time></trkpt><trkpt lat="48.57058961032341" lon="-2.1260419556458108"><ele>26.0</ele><time>2026-04-05T09:46:39Z</time></trkpt><trkpt lat="48.570616088212844" lon="-2.1259252159902338"><ele>25.999999999999996</ele><time>2026-04-05T09:46:41Z</time></trkpt><trkpt lat="48.5706507029548" lon="-2.1258389791427645"><ele>26.0</ele><time>2026-04-05T09:46:43Z</time></trkpt><trkpt lat="48.570661679749044" lon="-2.1257446216879816"><ele>25.999999999999996</ele><time>2026-04-05T09:46:45Z</time></trkpt><trkpt lat="48.570613328329735" lon="-2.125650264738745"><ele>26.0</ele><time>2026-04-05T09:46:48Z</time></trkpt><trkpt lat="48.57068709716812" lon="-2.125706448320704"><ele>26.0</ele><time>2026-04-05T09:47:00Z</time></trkpt><trkpt lat="48.57074925029517" lon="-2.125767981979289"><ele>26.0</ele><time>2026-04-05T09:47:02Z</time></trkpt><trkpt lat="48.57082067062537" lon="-2.1258348963776994"><ele>25.999999999999996</ele><time>2026-04-05T09:47:04Z</time></trkpt><trkpt lat="48.57089772517291" lon="-2.125902920570216"><ele>26.0</ele><time>2026-04-05T09:47:06Z</time></trkpt><trkpt lat="48.57097956793127" lon="-2.1259651171388465"><ele>25.999999999999996</ele><time>2026-04-05T09:47:08Z</time></trkpt><trkpt lat="48.57106141369943" lon="-2.1260329923433257"><ele>26.0</ele><time>2026-04-05T09:47:10Z</time></trkpt><trkpt lat="48.57113968300351" lon="-2.1261041636459757"><ele>26.0</ele><time>2026-04-05T09:47:12Z</time></trkpt><trkpt lat="48.57122754727804" lon="-2.1261671807130957"><ele>26.0</ele><time>2026-04-05T09:47:14Z</time></trkpt><trkpt lat="48.57129852974175" lon="-2.126251254322656"><ele>25.999999999999996</ele><time>2026-04-05T09:47:17Z</time></trkpt><trkpt lat="48.571352139990246" lon="-2.126313339381165"><ele>26.0</ele><time>2026-04-05T09:47:20Z</time></trkpt><trkpt lat="48.57139752597583" lon="-2.1264114846939535"><ele>26.428571428571427</ele><time>2026-04-05T09:47:23Z</time></trkpt><trkpt lat="48.5714716381557" lon="-2.1264191025101407"><ele>26.85714285714286</ele><time>2026-04-05T09:47:25Z</time></trkpt><trkpt lat="48.57153246736197" lon="-2.1263752142546792"><ele>27.28571428571429</ele><time>2026-04-05T09:47:26Z</time></trkpt><trkpt lat="48.57160982680697" lon="-2.1263096800361607"><ele>27.714285714285715</ele><time>2026-04-05T09:47:28Z</time></trkpt><trkpt lat="48.57166148132634" lon="-2.126239654956653"><ele>28.142857142857146</ele><time>2026-04-05T09:47:29Z</time></trkpt><trkpt lat="48.57171489531513" lon="-2.1261863369250724"><ele>28.571428571428577</ele><time>2026-04-05T09:47:32Z</time></trkpt><trkpt lat="48.571782601751416" lon="-2.1261266568332613"><ele>29.000000000000004</ele><time>2026-04-05T09:47:35Z</time></trkpt><trkpt lat="48.57184349267366" lon="-2.1260522053930746"><ele>29.000000000000004</ele><time>2026-04-05T09:47:36Z</time></trkpt><trkpt lat="48.571916706637495" lon="-2.1259602634089245"><ele>29.0</ele><time>2026-04-05T09:47:39Z</time></trkpt><trkpt lat="48.57196905074551" lon="-2.1258865469923403"><ele>29.000000000000004</ele><time>2026-04-05T09:47:41Z</time></trkpt><trkpt lat="48.57201540799857" lon="-2.1258144477231578"><ele>29.000000000000004</ele><time>2026-04-05T09:47:43Z</time></trkpt><trkpt lat="48.57206743300512" lon="-2.1257378518313224"><ele>29.0</ele><time>2026-04-05T09:47:45Z</time></trkpt><trkpt lat="48.57211076001725" lon="-2.1256595771487463"><ele>29.000000000000004</ele><time>2026-04-05T09:47:48Z</time></trkpt><trkpt lat="48.57215804645377" lon="-2.1255966638715917"><ele>29.000000000000004</ele><time>2026-04-05T09:47:50Z</time></trkpt><trkpt lat="48.57220535612204" lon="-2.1255294177400077"><ele>30.0</ele><time>2026-04-05T09:47:52Z</time></trkpt><trkpt lat="48.57225934267971" lon="-2.1254466145975606"><ele>31.0</ele><time>2026-04-05T09:47:54Z</time></trkpt><trkpt lat="48.57232203424196" lon="-2.1253538841322435"><ele>32.0</ele><time>2026-04-05T09:47:57Z</time></trkpt><trkpt lat="48.57237122879317" lon="-2.125291358938703"><ele>33.0</ele><time>2026-04-05T09:47:59Z</time></trkpt><trkpt lat="48.572446941197" lon="-2.125173158674025"><ele>34.0</ele><time>2026-04-05T09:48:01.999Z</time></trkpt><trkpt lat="48.57253531616069" lon="-2.1250475053425766"><ele>34.0</ele><time>2026-04-05T09:48:05.999Z</time></trkpt><trkpt lat="48.57259158251787" lon="-2.1249871543300025"><ele>34.0</ele><time>2026-04-05T09:48:08.999Z</time></trkpt><trkpt lat="48.57264355895731" lon="-2.1248983326730984"><ele>34.0</ele><time>2026-04-05T09:48:11.999Z</time></trkpt><trkpt lat="48.572710307395155" lon="-2.124819643681535"><ele>34.0</ele><time>2026-04-05T09:48:14.999Z</time></trkpt><trkpt lat="48.57275912664672" lon="-2.124711493995267"><ele>34.0</ele><time>2026-04-05T09:48:17.999Z</time></trkpt><trkpt lat="48.57281893255087" lon="-2.1246189885803384"><ele>34.0</ele><time>2026-04-05T09:48:20.999Z</time></trkpt><trkpt lat="48.572871149461584" lon="-2.124558155869172"><ele>34.2</ele><time>2026-04-05T09:48:22.999Z</time></trkpt><trkpt lat="48.57292535302919" lon="-2.124453863195098"><ele>34.4</ele><time>2026-04-05T09:48:25.999Z</time></trkpt><trkpt lat="48.57289479678027" lon="-2.124258812537899"><ele>34.6</ele><time>2026-04-05T09:48:28Z</time></trkpt><trkpt lat="48.57288053088365" lon="-2.1241008670252084"><ele>34.8</ele><time>2026-04-05T09:48:30Z</time></trkpt><trkpt lat="48.572850271224695" lon="-2.1239378719516937"><ele>35.0</ele><time>2026-04-05T09:48:32Z</time></trkpt><trkpt lat="48.5728331664333" lon="-2.1237502674853728"><ele>35.0</ele><time>2026-04-05T09:48:34Z</time></trkpt><trkpt lat="48.57283581869768" lon="-2.123652551427125"><ele>35.0</ele><time>2026-04-05T09:48:35Z</time></trkpt><trkpt lat="48.572783972528256" lon="-2.123500604766031"><ele>35.0</ele><time>2026-04-05T09:48:37Z</time></trkpt><trkpt lat="48.57273032221861" lon="-2.1233471259260193"><ele>35.0</ele><time>2026-04-05T09:48:39Z</time></trkpt><trkpt lat="48.57275169447063" lon="-2.1232097773909646"><ele>35.0</ele><time>2026-04-05T09:48:41Z</time></trkpt><trkpt lat="48.57273604960709" lon="-2.1231082720726007"><ele>35.5</ele><time>2026-04-05T09:48:44Z</time></trkpt><trkpt lat="48.57261407168366" lon="-2.1228646330050935"><ele>36.0</ele><time>2026-04-05T09:48:46Z</time></trkpt><trkpt lat="48.57258971014694" lon="-2.122706067223537"><ele>36.5</ele><time>2026-04-05T09:48:47Z</time></trkpt><trkpt lat="48.572585772160366" lon="-2.122523925011647"><ele>37.0</ele><time>2026-04-05T09:48:48Z</time></trkpt><trkpt lat="48.57252512844861" lon="-2.1224550437914846"><ele>37.16666666666667</ele><time>2026-04-05T09:48:49Z</time></trkpt><trkpt lat="48.57246946630424" lon="-2.1223971033638893"><ele>37.333333333333336</ele><time>2026-04-05T09:48:50Z</time></trkpt><trkpt lat="48.57240450374097" lon="-2.12235781800237"><ele>37.5</ele><time>2026-04-05T09:48:51Z</time></trkpt><trkpt lat="48.57232219565726" lon="-2.1222195703820548"><ele>37.666666666666664</ele><time>2026-04-05T09:48:53Z</time></trkpt><trkpt lat="48.57226648030359" lon="-2.122171203293226"><ele>37.83333333333333</ele><time>2026-04-05T09:48:54Z</time></trkpt><trkpt lat="48.572206192970434" lon="-2.1221204846155297"><ele>38.0</ele><time>2026-04-05T09:48:55Z</time></trkpt><trkpt lat="48.57210545487289" lon="-2.122014211627825"><ele>38.0</ele><time>2026-04-05T09:48:57Z</time></trkpt><trkpt lat="48.572004913191996" lon="-2.121912566772689"><ele>38.0</ele><time>2026-04-05T09:48:59Z</time></trkpt><trkpt lat="48.571952663111745" lon="-2.121855392572826"><ele>38.0</ele><time>2026-04-05T09:49:00Z</time></trkpt><trkpt lat="48.57188000460799" lon="-2.1218076669237216"><ele>38.0</ele><time>2026-04-05T09:49:01Z</time></trkpt><trkpt lat="48.57182481296551" lon="-2.1217131784980454"><ele>38.0</ele><time>2026-04-05T09:49:03Z</time></trkpt><trkpt lat="48.57172679238943" lon="-2.121654545935293"><ele>38.4</ele><time>2026-04-05T09:49:05Z</time></trkpt><trkpt lat="48.57164042918944" lon="-2.121556554959857"><ele>38.8</ele><time>2026-04-05T09:49:07Z</time></trkpt><trkpt lat="48.5715576891099" lon="-2.1214699284632084"><ele>39.2</ele><time>2026-04-05T09:49:09Z</time></trkpt><trkpt lat="48.5714805361446" lon="-2.121377298309258"><ele>39.6</ele><time>2026-04-05T09:49:12Z</time></trkpt><trkpt lat="48.57141719885828" lon="-2.1212654766531873"><ele>40.0</ele><time>2026-04-05T09:49:14Z</time></trkpt><trkpt lat="48.571361470625774" lon="-2.1211973546647043"><ele>40.0</ele><time>2026-04-05T09:49:17Z</time></trkpt><trkpt lat="48.57131608279841" lon="-2.1211231169735902"><ele>40.0</ele><time>2026-04-05T09:49:19Z</time></trkpt><trkpt lat="48.571271301722575" lon="-2.1210246035660067"><ele>40.0</ele><time>2026-04-05T09:49:22Z</time></trkpt><trkpt lat="48.571225470304555" lon="-2.1209165113572097"><ele>40.0</ele><time>2026-04-05T09:49:25Z</time></trkpt><trkpt lat="48.571191702826624" lon="-2.120830132685013"><ele>40.0</ele><time>2026-04-05T09:49:27Z</time></trkpt><trkpt lat="48.57113411587343" lon="-2.1206837885655485"><ele>40.0</ele><time>2026-04-05T09:49:31Z</time></trkpt><trkpt lat="48.57082564933054" lon="-2.1197881576586104"><ele>40.2</ele><time>2026-04-05T09:49:34Z</time></trkpt><trkpt lat="48.57090184005686" lon="-2.11968737236554"><ele>40.4</ele><time>2026-04-05T09:49:35Z</time></trkpt><trkpt lat="48.570925757023836" lon="-2.11959497556127"><ele>40.599999999999994</ele><time>2026-04-05T09:49:36Z</time></trkpt><trkpt lat="48.570952259995174" lon="-2.1194153785681875"><ele>40.8</ele><time>2026-04-05T09:49:38Z</time></trkpt><trkpt lat="48.57097559323357" lon="-2.119253428014781"><ele>41.0</ele><time>2026-04-05T09:49:40Z</time></trkpt><trkpt lat="48.571027118231456" lon="-2.119100641228383"><ele>41.4</ele><time>2026-04-05T09:49:42Z</time></trkpt><trkpt lat="48.57104137310472" lon="-2.118942411556526"><ele>41.8</ele><time>2026-04-05T09:49:44Z</time></trkpt><trkpt lat="48.57106914084008" lon="-2.118783925140668"><ele>42.199999999999996</ele><time>2026-04-05T09:49:46Z</time></trkpt><trkpt lat="48.57110465833913" lon="-2.1186614268516557"><ele>42.599999999999994</ele><time>2026-04-05T09:49:48Z</time></trkpt><trkpt lat="48.571114348041306" lon="-2.1185246070802535"><ele>43.0</ele><time>2026-04-05T09:49:50Z</time></trkpt><trkpt lat="48.57114759649077" lon="-2.1183998425473214"><ele>43.0</ele><time>2026-04-05T09:49:52Z</time></trkpt><trkpt lat="48.571163188676" lon="-2.1182979981828014"><ele>43.0</ele><time>2026-04-05T09:49:53Z</time></trkpt><trkpt lat="48.57118944956175" lon="-2.1181591893521348"><ele>43.0</ele><time>2026-04-05T09:49:55Z</time></trkpt><trkpt lat="48.571211984756474" lon="-2.1180410602435185"><ele>43.0</ele><time>2026-04-05T09:49:57Z</time></trkpt><trkpt lat="48.571238450374516" lon="-2.1178990427397317"><ele>43.0</ele><time>2026-04-05T09:50:00Z</time></trkpt><trkpt lat="48.57126139488325" lon="-2.1177715710644582"><ele>43.0</ele><time>2026-04-05T09:50:03Z</time></trkpt><trkpt lat="48.57129731317212" lon="-2.1175389185965847"><ele>43.2</ele><time>2026-04-05T09:50:06Z</time></trkpt><trkpt lat="48.57131510348058" lon="-2.117366091999645"><ele>43.4</ele><time>2026-04-05T09:50:08Z</time></trkpt><trkpt lat="48.57132527238109" lon="-2.1171851232631136"><ele>43.6</ele><time>2026-04-05T09:50:09.999Z</time></trkpt><trkpt lat="48.57132310722564" lon="-2.1170890351331497"><ele>43.800000000000004</ele><time>2026-04-05T09:50:10.999Z</time></trkpt><trkpt lat="48.57131501977054" lon="-2.1169136237315627"><ele>44.0</ele><time>2026-04-05T09:50:12.999Z</time></trkpt><trkpt lat="48.571289440409814" lon="-2.11682554569738"><ele>44.0</ele><time>2026-04-05T09:50:13.999Z</time></trkpt><trkpt lat="48.571255521196534" lon="-2.116643776419205"><ele>44.0</ele><time>2026-04-05T09:50:15.999Z</time></trkpt><trkpt lat="48.571206434698276" lon="-2.1164696820399094"><ele>44.0</ele><time>2026-04-05T09:50:17.999Z</time></trkpt><trkpt lat="48.571177166370425" lon="-2.1163840904371187"><ele>44.0</ele><time>2026-04-05T09:50:18.999Z</time></trkpt><trkpt lat="48.57115214960618" lon="-2.1162963649679103"><ele>44.0</ele><time>2026-04-05T09:50:19.999Z</time></trkpt><trkpt lat="48.57109262514267" lon="-2.1161120508513793"><ele>43.85714285714286</ele><time>2026-04-05T09:50:21.999Z</time></trkpt><trkpt lat="48.57106187522197" lon="-2.1160204644812155"><ele>43.714285714285715</ele><time>2026-04-05T09:50:22.999Z</time></trkpt><trkpt lat="48.57102958930221" lon="-2.1159320625625875"><ele>43.57142857142857</ele><time>2026-04-05T09:50:23.999Z</time></trkpt><trkpt lat="48.57099676657041" lon="-2.115839620808256"><ele>43.42857142857143</ele><time>2026-04-05T09:50:24.999Z</time></trkpt><trkpt lat="48.570966022846775" lon="-2.1157494549577773"><ele>43.285714285714285</ele><time>2026-04-05T09:50:25.999Z</time></trkpt><trkpt lat="48.570932995607976" lon="-2.115662729148053"><ele>43.142857142857146</ele><time>2026-04-05T09:50:26.999Z</time></trkpt><trkpt lat="48.570905718839434" lon="-2.1155691278532713"><ele>43.0</ele><time>2026-04-05T09:50:27.999Z</time></trkpt><trkpt lat="48.57087338011776" lon="-2.1154805089992847"><ele>43.0</ele><time>2026-04-05T09:50:28.999Z</time></trkpt><trkpt lat="48.57084287888699" lon="-2.1153923200057836"><ele>43.0</ele><time>2026-04-05T09:50:29.999Z</time></trkpt><trkpt lat="48.57080995383702" lon="-2.115306189962135"><ele>43.0</ele><time>2026-04-05T09:50:30.999Z</time></trkpt><trkpt lat="48.570784567839596" lon="-2.115218071519042"><ele>43.0</ele><time>2026-04-05T09:50:31.999Z</time></trkpt><trkpt lat="48.57073180177938" lon="-2.1150456389896233"><ele>43.0</ele><time>2026-04-05T09:50:34Z</time></trkpt><trkpt lat="48.57070276782371" lon="-2.114955703329948"><ele>43.0</ele><time>2026-04-05T09:50:35Z</time></trkpt><trkpt lat="48.57064692204726" lon="-2.114790269657691"><ele>43.2</ele><time>2026-04-05T09:50:37Z</time></trkpt><trkpt lat="48.570588881351995" lon="-2.114630979817326"><ele>43.4</ele><time>2026-04-05T09:50:39Z</time></trkpt><trkpt lat="48.57055910409333" lon="-2.1145464675709045"><ele>43.6</ele><time>2026-04-05T09:50:40Z</time></trkpt><trkpt lat="48.570500781336904" lon="-2.1143779415982085"><ele>43.800000000000004</ele><time>2026-04-05T09:50:42Z</time></trkpt><trkpt lat="48.570448020733124" lon="-2.114216145806019"><ele>44.0</ele><time>2026-04-05T09:50:44Z</time></trkpt><trkpt lat="48.57039068132806" lon="-2.1140560211305903"><ele>44.400000000000006</ele><time>2026-04-05T09:50:46Z</time></trkpt><trkpt lat="48.570358026064746" lon="-2.113974583728926"><ele>44.8</ele><time>2026-04-05T09:50:47Z</time></trkpt><trkpt lat="48.570304588670076" lon="-2.1138144833460517"><ele>45.2</ele><time>2026-04-05T09:50:49Z</time></trkpt><trkpt lat="48.57026671433712" lon="-2.1136489541063006"><ele>45.599999999999994</ele><time>2026-04-05T09:50:51Z</time></trkpt><trkpt lat="48.57023206585075" lon="-2.113486594066258"><ele>46.0</ele><time>2026-04-05T09:50:53Z</time></trkpt><trkpt lat="48.57019260693537" lon="-2.113324307803757"><ele>45.833333333333336</ele><time>2026-04-05T09:50:55Z</time></trkpt><trkpt lat="48.57016845687034" lon="-2.1131626328474513"><ele>45.66666666666667</ele><time>2026-04-05T09:50:57Z</time></trkpt><trkpt lat="48.57010927202557" lon="-2.1130026202514705"><ele>45.5</ele><time>2026-04-05T09:50:59Z</time></trkpt><trkpt lat="48.57009200471477" lon="-2.1128999231762338"><ele>45.333333333333336</ele><time>2026-04-05T09:51:00Z</time></trkpt><trkpt lat="48.57008065238509" lon="-2.1127969469536922"><ele>45.166666666666664</ele><time>2026-04-05T09:51:01Z</time></trkpt><trkpt lat="48.570059337210765" lon="-2.1126977383768515"><ele>45.0</ele><time>2026-04-05T09:51:02Z</time></trkpt><trkpt lat="48.57004097384865" lon="-2.1126019370628417"><ele>45.0</ele><time>2026-04-05T09:51:03Z</time></trkpt><trkpt lat="48.570021665538704" lon="-2.1125090010288927"><ele>45.0</ele><time>2026-04-05T09:51:04Z</time></trkpt><trkpt lat="48.56998462331776" lon="-2.112345554403789"><ele>45.0</ele><time>2026-04-05T09:51:06Z</time></trkpt><trkpt lat="48.569961129332356" lon="-2.1122460228341646"><ele>45.0</ele><time>2026-04-05T09:51:08Z</time></trkpt><trkpt lat="48.569926437250416" lon="-2.112122478903749"><ele>45.0</ele><time>2026-04-05T09:51:09Z</time></trkpt><trkpt lat="48.56987463520994" lon="-2.1119707664543843"><ele>45.0</ele><time>2026-04-05T09:51:11Z</time></trkpt><trkpt lat="48.56981458112174" lon="-2.111828160180722"><ele>45.0</ele><time>2026-04-05T09:51:13Z</time></trkpt><trkpt lat="48.56973452364138" lon="-2.111705250375509"><ele>45.0</ele><time>2026-04-05T09:51:15Z</time></trkpt><trkpt lat="48.5696494622357" lon="-2.111584291465115"><ele>45.0</ele><time>2026-04-05T09:51:17Z</time></trkpt><trkpt lat="48.56957054713032" lon="-2.111456029410975"><ele>45.25</ele><time>2026-04-05T09:51:19Z</time></trkpt><trkpt lat="48.56948575806725" lon="-2.1113377206136055"><ele>45.5</ele><time>2026-04-05T09:51:21Z</time></trkpt><trkpt lat="48.56941067735756" lon="-2.1111994251927015"><ele>45.75</ele><time>2026-04-05T09:51:23Z</time></trkpt><trkpt lat="48.56934717235279" lon="-2.1110464863965457"><ele>46.0</ele><time>2026-04-05T09:51:25Z</time></trkpt><trkpt lat="48.569319257969674" lon="-2.1108749168041134"><ele>46.0</ele><time>2026-04-05T09:51:27Z</time></trkpt><trkpt lat="48.569305380268936" lon="-2.110700102000924"><ele>46.0</ele><time>2026-04-05T09:51:29Z</time></trkpt><trkpt lat="48.5692882335484" lon="-2.110530521774091"><ele>46.0</ele><time>2026-04-05T09:51:31Z</time></trkpt><trkpt lat="48.56927166263653" lon="-2.1103654472028004"><ele>46.0</ele><time>2026-04-05T09:51:33Z</time></trkpt><trkpt lat="48.56925635045215" lon="-2.1102086841480325"><ele>46.0</ele><time>2026-04-05T09:51:35Z</time></trkpt><trkpt lat="48.5692416858221" lon="-2.109995307645665"><ele>46.75</ele><time>2026-04-05T09:51:38Z</time></trkpt><trkpt lat="48.56922380633574" lon="-2.109747061419141"><ele>47.5</ele><time>2026-04-05T09:51:41Z</time></trkpt><trkpt lat="48.56920052567234" lon="-2.109594341461151"><ele>48.25</ele><time>2026-04-05T09:51:43Z</time></trkpt><trkpt lat="48.5692077426826" lon="-2.1094462879307376"><ele>49.0</ele><time>2026-04-05T09:51:45Z</time></trkpt><trkpt lat="48.569204661652236" lon="-2.1092965212300676"><ele>49.0</ele><time>2026-04-05T09:51:47Z</time></trkpt><trkpt lat="48.56920603431025" lon="-2.1091510500105217"><ele>49.0</ele><time>2026-04-05T09:51:49Z</time></trkpt><trkpt lat="48.5692075903693" lon="-2.109005859056103"><ele>49.0</ele><time>2026-04-05T09:51:51Z</time></trkpt><trkpt lat="48.56921553811039" lon="-2.1088613100254006"><ele>49.0</ele><time>2026-04-05T09:51:53Z</time></trkpt><trkpt lat="48.569235006873" lon="-2.1087264477530803"><ele>49.0</ele><time>2026-04-05T09:51:55Z</time></trkpt><trkpt lat="48.56924249297483" lon="-2.1085729700541433"><ele>49.0</ele><time>2026-04-05T09:51:57Z</time></trkpt><trkpt lat="48.56928396772734" lon="-2.1084318241098856"><ele>49.0</ele><time>2026-04-05T09:51:59Z</time></trkpt><trkpt lat="48.56933837620644" lon="-2.1083007660238664"><ele>49.0</ele><time>2026-04-05T09:52:01Z</time></trkpt><trkpt lat="48.569401215174004" lon="-2.108179984207838"><ele>49.0</ele><time>2026-04-05T09:52:03Z</time></trkpt><trkpt lat="48.569455539540364" lon="-2.108048370972861"><ele>49.0</ele><time>2026-04-05T09:52:05Z</time></trkpt><trkpt lat="48.56945587243006" lon="-2.1079449532425696"><ele>49.2</ele><time>2026-04-05T09:52:06Z</time></trkpt><trkpt lat="48.56936495388828" lon="-2.107964143116349"><ele>49.400000000000006</ele><time>2026-04-05T09:52:55Z</time></trkpt><trkpt lat="48.56928369734871" lon="-2.107905543779236"><ele>49.6</ele><time>2026-04-05T09:52:57Z</time></trkpt><trkpt lat="48.56921191979076" lon="-2.1078319393389373"><ele>49.8</ele><time>2026-04-05T09:52:59Z</time></trkpt><trkpt lat="48.569150279485335" lon="-2.1077466963860507"><ele>50.0</ele><time>2026-04-05T09:53:01Z</time></trkpt><trkpt lat="48.56907632120164" lon="-2.1076421540162964"><ele>50.0</ele><time>2026-04-05T09:53:03Z</time></trkpt><trkpt lat="48.56900044462834" lon="-2.1075578180499566"><ele>50.0</ele><time>2026-04-05T09:53:05Z</time></trkpt><trkpt lat="48.56892118594204" lon="-2.1074571083348923"><ele>50.0</ele><time>2026-04-05T09:53:07Z</time></trkpt><trkpt lat="48.568840928722665" lon="-2.107354458394985"><ele>50.0</ele><time>2026-04-05T09:53:09Z</time></trkpt><trkpt lat="48.56876516637332" lon="-2.10724773867824"><ele>50.0</ele><time>2026-04-05T09:53:11Z</time></trkpt><trkpt lat="48.568678235560704" lon="-2.107149060071791"><ele>50.25</ele><time>2026-04-05T09:53:13Z</time></trkpt><trkpt lat="48.56859356538785" lon="-2.107039610223128"><ele>50.5</ele><time>2026-04-05T09:53:15Z</time></trkpt><trkpt lat="48.568506323014624" lon="-2.106933660761632"><ele>50.75</ele><time>2026-04-05T09:53:17Z</time></trkpt><trkpt lat="48.56841339822531" lon="-2.1068281402124884"><ele>51.0</ele><time>2026-04-05T09:53:19Z</time></trkpt><trkpt lat="48.56831468386879" lon="-2.1067391818008665"><ele>51.0</ele><time>2026-04-05T09:53:21Z</time></trkpt><trkpt lat="48.56820720236472" lon="-2.1066658132140814"><ele>51.0</ele><time>2026-04-05T09:53:23Z</time></trkpt><trkpt lat="48.56810348979783" lon="-2.1065882998330205"><ele>51.0</ele><time>2026-04-05T09:53:25Z</time></trkpt><trkpt lat="48.5679954935918" lon="-2.1065149214736913"><ele>51.0</ele><time>2026-04-05T09:53:27Z</time></trkpt><trkpt lat="48.56788546890767" lon="-2.1064387252708254"><ele>51.0</ele><time>2026-04-05T09:53:29Z</time></trkpt><trkpt lat="48.56778158687475" lon="-2.10636454059845"><ele>51.0</ele><time>2026-04-05T09:53:31Z</time></trkpt><trkpt lat="48.56767373621927" lon="-2.106288503862463"><ele>51.0</ele><time>2026-04-05T09:53:33Z</time></trkpt><trkpt lat="48.567565722549496" lon="-2.106208085061988"><ele>51.0</ele><time>2026-04-05T09:53:35Z</time></trkpt><trkpt lat="48.56745900896489" lon="-2.1061353681966968"><ele>51.0</ele><time>2026-04-05T09:53:37Z</time></trkpt><trkpt lat="48.56735001998537" lon="-2.106054732978596"><ele>51.0</ele><time>2026-04-05T09:53:39Z</time></trkpt><trkpt lat="48.56729293564963" lon="-2.1060144935122267"><ele>51.0</ele><time>2026-04-05T09:53:40Z</time></trkpt><trkpt lat="48.56718138558228" lon="-2.105940056851359"><ele>51.0</ele><time>2026-04-05T09:53:42Z</time></trkpt><trkpt lat="48.567070124167145" lon="-2.1058630361611708"><ele>51.0</ele><time>2026-04-05T09:53:44Z</time></trkpt><trkpt lat="48.56701172630193" lon="-2.105825923998943"><ele>51.0</ele><time>2026-04-05T09:53:45Z</time></trkpt><trkpt lat="48.56695444743513" lon="-2.1057852792165277"><ele>51.0</ele><time>2026-04-05T09:53:46Z</time></trkpt><trkpt lat="48.56689767491481" lon="-2.1057400296459585"><ele>51.0</ele><time>2026-04-05T09:53:47Z</time></trkpt><trkpt lat="48.56684131431648" lon="-2.1056936625942813"><ele>51.0</ele><time>2026-04-05T09:53:48Z</time></trkpt><trkpt lat="48.56678503998609" lon="-2.1056441580002048"><ele>51.0</ele><time>2026-04-05T09:53:49Z</time></trkpt><trkpt lat="48.566731055402585" lon="-2.105588028325877"><ele>51.0</ele><time>2026-04-05T09:53:50Z</time></trkpt><trkpt lat="48.56667734729705" lon="-2.105526990282323"><ele>51.0</ele><time>2026-04-05T09:53:51Z</time></trkpt><trkpt lat="48.56662966764867" lon="-2.1054622549101643"><ele>51.0</ele><time>2026-04-05T09:53:52Z</time></trkpt><trkpt lat="48.5665524686028" lon="-2.105316000243019"><ele>51.0</ele><time>2026-04-05T09:53:54Z</time></trkpt><trkpt lat="48.56647603592032" lon="-2.105163376031747"><ele>51.0</ele><time>2026-04-05T09:53:56Z</time></trkpt><trkpt lat="48.56642263696307" lon="-2.1049994588520886"><ele>51.0</ele><time>2026-04-05T09:53:58Z</time></trkpt><trkpt lat="48.56639573143926" lon="-2.104907585258092"><ele>51.0</ele><time>2026-04-05T09:53:59Z</time></trkpt><trkpt lat="48.56636386184198" lon="-2.1047291793242056"><ele>50.5</ele><time>2026-04-05T09:54:01Z</time></trkpt><trkpt lat="48.566333015475045" lon="-2.104562873820522"><ele>50.0</ele><time>2026-04-05T09:54:03Z</time></trkpt><trkpt lat="48.5662953405772" lon="-2.1043915453852433"><ele>49.5</ele><time>2026-04-05T09:54:05Z</time></trkpt><trkpt lat="48.56627311331022" lon="-2.104218327094384"><ele>49.0</ele><time>2026-04-05T09:54:06.999Z</time></trkpt><trkpt lat="48.56624119972623" lon="-2.104048305532779"><ele>49.0</ele><time>2026-04-05T09:54:08.999Z</time></trkpt><trkpt lat="48.56622020286628" lon="-2.103903135786971"><ele>49.0</ele><time>2026-04-05T09:54:10.999Z</time></trkpt><trkpt lat="48.566191392200565" lon="-2.103752247517159"><ele>49.0</ele><time>2026-04-05T09:54:12.999Z</time></trkpt><trkpt lat="48.56615916203695" lon="-2.1035934487000056"><ele>49.0</ele><time>2026-04-05T09:54:14.999Z</time></trkpt><trkpt lat="48.56613075860378" lon="-2.1034286448402715"><ele>49.0</ele><time>2026-04-05T09:54:16.999Z</time></trkpt><trkpt lat="48.566093718609125" lon="-2.1032646358845817"><ele>49.75</ele><time>2026-04-05T09:54:18.999Z</time></trkpt><trkpt lat="48.56604916193925" lon="-2.1031061720676356"><ele>50.5</ele><time>2026-04-05T09:54:20.999Z</time></trkpt><trkpt lat="48.56600085856299" lon="-2.102940637424226"><ele>51.25</ele><time>2026-04-05T09:54:22.999Z</time></trkpt><trkpt lat="48.56593787483172" lon="-2.1027908871188763"><ele>52.0</ele><time>2026-04-05T09:54:24.999Z</time></trkpt><trkpt lat="48.56585681938355" lon="-2.1026588482470356"><ele>52.0</ele><time>2026-04-05T09:54:26.999Z</time></trkpt><trkpt lat="48.565764282891976" lon="-2.1025497558861788"><ele>52.0</ele><time>2026-04-05T09:54:28.999Z</time></trkpt><trkpt lat="48.565661603502846" lon="-2.102462028335756"><ele>52.0</ele><time>2026-04-05T09:54:30.999Z</time></trkpt><trkpt lat="48.56555926806774" lon="-2.102376081845854"><ele>52.0</ele><time>2026-04-05T09:54:32.999Z</time></trkpt><trkpt lat="48.56546319447505" lon="-2.1022944641854546"><ele>51.75</ele><time>2026-04-05T09:54:34.999Z</time></trkpt><trkpt lat="48.565362566783705" lon="-2.1022120036990324"><ele>51.5</ele><time>2026-04-05T09:54:36.999Z</time></trkpt><trkpt lat="48.5652593913206" lon="-2.1021320605208644"><ele>51.25</ele><time>2026-04-05T09:54:38.999Z</time></trkpt><trkpt lat="48.565157771340274" lon="-2.102051664657753"><ele>51.0</ele><time>2026-04-05T09:54:40.999Z</time></trkpt><trkpt lat="48.56505772241394" lon="-2.1019686677992513"><ele>51.75</ele><time>2026-04-05T09:54:42.999Z</time></trkpt><trkpt lat="48.56495581984431" lon="-2.10188646348823"><ele>52.5</ele><time>2026-04-05T09:54:45Z</time></trkpt><trkpt lat="48.56485105809512" lon="-2.101808530653631"><ele>53.25</ele><time>2026-04-05T09:54:47Z</time></trkpt><trkpt lat="48.56474820519647" lon="-2.1017274030585673"><ele>54.0</ele><time>2026-04-05T09:54:49Z</time></trkpt><trkpt lat="48.564647326446114" lon="-2.1016422862660846"><ele>54.0</ele><time>2026-04-05T09:54:51Z</time></trkpt><trkpt lat="48.564547033225004" lon="-2.1015614597946897"><ele>54.0</ele><time>2026-04-05T09:54:53Z</time></trkpt><trkpt lat="48.56444614781429" lon="-2.1014811341606467"><ele>54.0</ele><time>2026-04-05T09:54:55Z</time></trkpt><trkpt lat="48.56433912537412" lon="-2.1014041873969522"><ele>54.0</ele><time>2026-04-05T09:54:57Z</time></trkpt><trkpt lat="48.5642405193849" lon="-2.1013144123425866"><ele>54.0</ele><time>2026-04-05T09:54:59Z</time></trkpt><trkpt lat="48.56414289101827" lon="-2.101240944056411"><ele>54.0</ele><time>2026-04-05T09:55:01Z</time></trkpt><trkpt lat="48.56403976439091" lon="-2.1011664707769087"><ele>54.0</ele><time>2026-04-05T09:55:03Z</time></trkpt><trkpt lat="48.56393067182732" lon="-2.101113806967768"><ele>54.0</ele><time>2026-04-05T09:55:05Z</time></trkpt><trkpt lat="48.56379804758437" lon="-2.101064556618668"><ele>54.0</ele><time>2026-04-05T09:55:07Z</time></trkpt><trkpt lat="48.563700879637516" lon="-2.1010199501383835"><ele>54.00000000000001</ele><time>2026-04-05T09:55:09Z</time></trkpt><trkpt lat="48.56359668017991" lon="-2.100967362624584"><ele>54.00000000000001</ele><time>2026-04-05T09:55:11Z</time></trkpt><trkpt lat="48.5634847842947" lon="-2.10090759999542"><ele>54.0</ele><time>2026-04-05T09:55:13Z</time></trkpt><trkpt lat="48.563386977379444" lon="-2.100860642018445"><ele>54.0</ele><time>2026-04-05T09:55:15Z</time></trkpt><trkpt lat="48.56327144721376" lon="-2.10081792249627"><ele>54.2</ele><time>2026-04-05T09:55:17Z</time></trkpt><trkpt lat="48.56315984570931" lon="-2.1007835103889136"><ele>54.400000000000006</ele><time>2026-04-05T09:55:19Z</time></trkpt><trkpt lat="48.563076985637856" lon="-2.100725415177028"><ele>54.6</ele><time>2026-04-05T09:55:21Z</time></trkpt><trkpt lat="48.563008422598486" lon="-2.1006891021374807"><ele>54.8</ele><time>2026-04-05T09:55:22Z</time></trkpt><trkpt lat="48.562914688896" lon="-2.1006497688270036"><ele>55.0</ele><time>2026-04-05T09:55:24Z</time></trkpt><trkpt lat="48.56281394213737" lon="-2.100606899675292"><ele>55.2</ele><time>2026-04-05T09:55:26Z</time></trkpt><trkpt lat="48.562724935916066" lon="-2.1005627478431372"><ele>55.4</ele><time>2026-04-05T09:55:28Z</time></trkpt><trkpt lat="48.56266305238823" lon="-2.1005253870393528"><ele>55.599999999999994</ele><time>2026-04-05T09:55:30Z</time></trkpt><trkpt lat="48.5626022801497" lon="-2.100491276394443"><ele>55.8</ele><time>2026-04-05T09:55:32Z</time></trkpt><trkpt lat="48.56258959339167" lon="-2.1002817424967115"><ele>56.0</ele><time>2026-04-05T09:55:34Z</time></trkpt><trkpt lat="48.562637595766" lon="-2.100131724758184"><ele>56.0</ele><time>2026-04-05T09:55:36Z</time></trkpt><trkpt lat="48.56267760112807" lon="-2.099972668931086"><ele>56.0</ele><time>2026-04-05T09:55:38Z</time></trkpt><trkpt lat="48.56271198367969" lon="-2.099813580494636"><ele>56.0</ele><time>2026-04-05T09:55:40Z</time></trkpt><trkpt lat="48.562752992089976" lon="-2.0996498995048976"><ele>56.0</ele><time>2026-04-05T09:55:42Z</time></trkpt><trkpt lat="48.56278910269162" lon="-2.0994856588017154"><ele>56.0</ele><time>2026-04-05T09:55:44Z</time></trkpt><trkpt lat="48.562829570466285" lon="-2.099316742112781"><ele>56.0</ele><time>2026-04-05T09:55:46Z</time></trkpt><trkpt lat="48.56286839488088" lon="-2.099146673517"><ele>56.0</ele><time>2026-04-05T09:55:48Z</time></trkpt><trkpt lat="48.562907420515245" lon="-2.0989749631931485"><ele>56.0</ele><time>2026-04-05T09:55:50Z</time></trkpt><trkpt lat="48.56294496190096" lon="-2.0987941192327524"><ele>55.714285714285715</ele><time>2026-04-05T09:55:52Z</time></trkpt><trkpt lat="48.56295874698326" lon="-2.0986972829063695"><ele>55.42857142857143</ele><time>2026-04-05T09:55:53Z</time></trkpt><trkpt lat="48.56296924607507" lon="-2.0985973199351102"><ele>55.14285714285714</ele><time>2026-04-05T09:55:54Z</time></trkpt><trkpt lat="48.56297822292885" lon="-2.0984971002566146"><ele>54.85714285714286</ele><time>2026-04-05T09:55:55Z</time></trkpt><trkpt lat="48.562987616751094" lon="-2.0983956933852665"><ele>54.57142857142857</ele><time>2026-04-05T09:55:56Z</time></trkpt><trkpt lat="48.56299527556902" lon="-2.0982898998797315"><ele>54.285714285714285</ele><time>2026-04-05T09:55:57Z</time></trkpt><trkpt lat="48.563005089809245" lon="-2.098184001962419"><ele>54.0</ele><time>2026-04-05T09:55:58Z</time></trkpt><trkpt lat="48.56301258539356" lon="-2.098078130663059"><ele>53.857142857142854</ele><time>2026-04-05T09:55:59Z</time></trkpt><trkpt lat="48.56301494162605" lon="-2.0979726468784663"><ele>53.71428571428571</ele><time>2026-04-05T09:56:00Z</time></trkpt><trkpt lat="48.5630253826806" lon="-2.097860277381203"><ele>53.57142857142857</ele><time>2026-04-05T09:56:01Z</time></trkpt><trkpt lat="48.56302719605393" lon="-2.097736491951312"><ele>53.42857142857143</ele><time>2026-04-05T09:56:02Z</time></trkpt><trkpt lat="48.56303501210425" lon="-2.0976394774200475"><ele>53.285714285714285</ele><time>2026-04-05T09:56:03Z</time></trkpt><trkpt lat="48.56305018823306" lon="-2.0975332310316457"><ele>53.142857142857146</ele><time>2026-04-05T09:56:04Z</time></trkpt><trkpt lat="48.56306263756932" lon="-2.097411813624828"><ele>53.0</ele><time>2026-04-05T09:56:05Z</time></trkpt><trkpt lat="48.56308182328796" lon="-2.0973007998042736"><ele>52.833333333333336</ele><time>2026-04-05T09:56:06Z</time></trkpt><trkpt lat="48.5631113433191" lon="-2.0971973639531902"><ele>52.66666666666667</ele><time>2026-04-05T09:56:07Z</time></trkpt><trkpt lat="48.563136973910915" lon="-2.097090373508656"><ele>52.5</ele><time>2026-04-05T09:56:08Z</time></trkpt><trkpt lat="48.56314465753123" lon="-2.096976336767614"><ele>52.33333333333333</ele><time>2026-04-05T09:56:09Z</time></trkpt><trkpt lat="48.563162122134194" lon="-2.0968253828587557"><ele>52.166666666666664</ele><time>2026-04-05T09:56:10Z</time></trkpt><trkpt lat="48.56317638813235" lon="-2.096718205412404"><ele>52.0</ele><time>2026-04-05T09:56:11Z</time></trkpt><trkpt lat="48.563188259479155" lon="-2.09660025726328"><ele>51.83333333333333</ele><time>2026-04-05T09:56:12Z</time></trkpt><trkpt lat="48.56320000565808" lon="-2.0964747950834925"><ele>51.666666666666664</ele><time>2026-04-05T09:56:13Z</time></trkpt><trkpt lat="48.56320455166773" lon="-2.096356261959202"><ele>51.5</ele><time>2026-04-05T09:56:14Z</time></trkpt><trkpt lat="48.56321917836423" lon="-2.0962296998895398"><ele>51.33333333333333</ele><time>2026-04-05T09:56:15Z</time></trkpt><trkpt lat="48.56322526835931" lon="-2.096097556080869"><ele>51.166666666666664</ele><time>2026-04-05T09:56:16Z</time></trkpt><trkpt lat="48.56322360350994" lon="-2.0959714169117136"><ele>51.0</ele><time>2026-04-05T09:56:16.999Z</time></trkpt><trkpt lat="48.563219564352536" lon="-2.0958420117852126"><ele>50.833333333333336</ele><time>2026-04-05T09:56:17.999Z</time></trkpt><trkpt lat="48.56321136410014" lon="-2.095720839702869"><ele>50.66666666666667</ele><time>2026-04-05T09:56:18.999Z</time></trkpt><trkpt lat="48.56320332110944" lon="-2.0955796413668515"><ele>50.5</ele><time>2026-04-05T09:56:19.999Z</time></trkpt><trkpt lat="48.563202935256164" lon="-2.0954395505996986"><ele>50.333333333333336</ele><time>2026-04-05T09:56:20.999Z</time></trkpt><trkpt lat="48.563192647432366" lon="-2.0952842821724262"><ele>50.16666666666667</ele><time>2026-04-05T09:56:21.999Z</time></trkpt><trkpt lat="48.56319529199542" lon="-2.095165668674516"><ele>50.0</ele><time>2026-04-05T09:56:22.999Z</time></trkpt><trkpt lat="48.56319337656007" lon="-2.0950239037883582"><ele>49.4</ele><time>2026-04-05T09:56:23.999Z</time></trkpt><trkpt lat="48.5632008722161" lon="-2.0948827534465964"><ele>48.8</ele><time>2026-04-05T09:56:24.999Z</time></trkpt><trkpt lat="48.56321744460888" lon="-2.094734916886644"><ele>48.2</ele><time>2026-04-05T09:56:25.999Z</time></trkpt><trkpt lat="48.56322634646872" lon="-2.0945986808905257"><ele>47.6</ele><time>2026-04-05T09:56:26.999Z</time></trkpt><trkpt lat="48.5632245859207" lon="-2.0944518046727354"><ele>47.0</ele><time>2026-04-05T09:56:27.999Z</time></trkpt><trkpt lat="48.563232943171236" lon="-2.0943092651905446"><ele>47.0</ele><time>2026-04-05T09:56:28.999Z</time></trkpt><trkpt lat="48.563253014017185" lon="-2.094179591289169"><ele>47.0</ele><time>2026-04-05T09:56:29.999Z</time></trkpt><trkpt lat="48.56327802910682" lon="-2.094049776126476"><ele>47.0</ele><time>2026-04-05T09:56:30.999Z</time></trkpt><trkpt lat="48.563313035274284" lon="-2.0939118944865194"><ele>47.0</ele><time>2026-04-05T09:56:31.999Z</time></trkpt><trkpt lat="48.563355125581595" lon="-2.093786522923847"><ele>47.0</ele><time>2026-04-05T09:56:32.999Z</time></trkpt><trkpt lat="48.56339972649902" lon="-2.0936609807256867"><ele>46.5</ele><time>2026-04-05T09:56:33.999Z</time></trkpt><trkpt lat="48.56344239679839" lon="-2.0935435850438924"><ele>46.0</ele><time>2026-04-05T09:56:34.999Z</time></trkpt><trkpt lat="48.56347881199669" lon="-2.093435251359571"><ele>45.5</ele><time>2026-04-05T09:56:35.999Z</time></trkpt><trkpt lat="48.563511774485065" lon="-2.093321544095263"><ele>45.0</ele><time>2026-04-05T09:56:36.999Z</time></trkpt><trkpt lat="48.563518460340724" lon="-2.0931967026935263"><ele>44.5</ele><time>2026-04-05T09:56:37.999Z</time></trkpt><trkpt lat="48.56347588448255" lon="-2.093055518467301"><ele>44.0</ele><time>2026-04-05T09:56:38.999Z</time></trkpt><trkpt lat="48.563424134089516" lon="-2.092953404132194"><ele>42.800000000000004</ele><time>2026-04-05T09:56:39.999Z</time></trkpt><trkpt lat="48.56336975937973" lon="-2.092830710444593"><ele>41.6</ele><time>2026-04-05T09:56:40.999Z</time></trkpt><trkpt lat="48.563328147413486" lon="-2.09271042898324"><ele>40.4</ele><time>2026-04-05T09:56:41.999Z</time></trkpt><trkpt lat="48.56327631010806" lon="-2.0926071777124085"><ele>39.2</ele><time>2026-04-05T09:56:42.999Z</time></trkpt><trkpt lat="48.563212412402954" lon="-2.0925048568361566"><ele>38.0</ele><time>2026-04-05T09:56:43.999Z</time></trkpt><trkpt lat="48.563171070090604" lon="-2.092383740316795"><ele>37.4</ele><time>2026-04-05T09:56:44.999Z</time></trkpt><trkpt lat="48.563109381467484" lon="-2.092268777456739"><ele>36.8</ele><time>2026-04-05T09:56:45.999Z</time></trkpt><trkpt lat="48.56306354761623" lon="-2.092148764438527"><ele>36.2</ele><time>2026-04-05T09:56:46.999Z</time></trkpt><trkpt lat="48.56299771043237" lon="-2.0920039861734665"><ele>35.6</ele><time>2026-04-05T09:56:47.999Z</time></trkpt><trkpt lat="48.56293410726749" lon="-2.0918830459998454"><ele>35.0</ele><time>2026-04-05T09:56:48.999Z</time></trkpt><trkpt lat="48.56287045177154" lon="-2.0917800868231304"><ele>35.4</ele><time>2026-04-05T09:56:49.999Z</time></trkpt><trkpt lat="48.56279381418044" lon="-2.091688919269909"><ele>35.8</ele><time>2026-04-05T09:56:51Z</time></trkpt><trkpt lat="48.562709834287695" lon="-2.091602850784216"><ele>36.2</ele><time>2026-04-05T09:56:52Z</time></trkpt><trkpt lat="48.562628967377606" lon="-2.091528674543164"><ele>36.6</ele><time>2026-04-05T09:56:53Z</time></trkpt><trkpt lat="48.56256020852813" lon="-2.0914575262362747"><ele>37.0</ele><time>2026-04-05T09:56:54Z</time></trkpt><trkpt lat="48.56249577310943" lon="-2.0913743766641146"><ele>37.0</ele><time>2026-04-05T09:56:55Z</time></trkpt><trkpt lat="48.56245803024459" lon="-2.0912627848420806"><ele>37.0</ele><time>2026-04-05T09:56:56Z</time></trkpt><trkpt lat="48.56244561300538" lon="-2.0911406487830586"><ele>37.0</ele><time>2026-04-05T09:56:57Z</time></trkpt><trkpt lat="48.56244941856498" lon="-2.091012885453708"><ele>37.0</ele><time>2026-04-05T09:56:58Z</time></trkpt><trkpt lat="48.562461426736725" lon="-2.090895753144544"><ele>37.0</ele><time>2026-04-05T09:56:59Z</time></trkpt><trkpt lat="48.56247589565022" lon="-2.0907891718551324"><ele>37.0</ele><time>2026-04-05T09:57:00Z</time></trkpt><trkpt lat="48.562500807169314" lon="-2.090694327851644"><ele>37.66666666666667</ele><time>2026-04-05T09:57:01Z</time></trkpt><trkpt lat="48.56254388895448" lon="-2.0905937119311746"><ele>38.333333333333336</ele><time>2026-04-05T09:57:02Z</time></trkpt><trkpt lat="48.56258792909114" lon="-2.0905103473230437"><ele>39.0</ele><time>2026-04-05T09:57:03Z</time></trkpt><trkpt lat="48.56263005264015" lon="-2.090408257773226"><ele>39.666666666666664</ele><time>2026-04-05T09:57:05Z</time></trkpt><trkpt lat="48.5626688495805" lon="-2.0903187948915325"><ele>40.33333333333333</ele><time>2026-04-05T09:57:07Z</time></trkpt><trkpt lat="48.56271591097781" lon="-2.0902321570804867"><ele>41.0</ele><time>2026-04-05T09:57:09Z</time></trkpt><trkpt lat="48.5627721277801" lon="-2.09015540184642"><ele>41.0</ele><time>2026-04-05T09:57:11Z</time></trkpt><trkpt lat="48.562826753529386" lon="-2.0900582693343916"><ele>41.0</ele><time>2026-04-05T09:57:13Z</time></trkpt><trkpt lat="48.56286507102916" lon="-2.0899563766084754"><ele>41.0</ele><time>2026-04-05T09:57:15Z</time></trkpt><trkpt lat="48.56290382221473" lon="-2.0898510949645295"><ele>41.0</ele><time>2026-04-05T09:57:17Z</time></trkpt><trkpt lat="48.562934692273195" lon="-2.0897432396242954"><ele>41.0</ele><time>2026-04-05T09:57:21Z</time></trkpt><trkpt lat="48.5629732557929" lon="-2.08962019835411"><ele>41.0</ele><time>2026-04-05T09:57:24Z</time></trkpt><trkpt lat="48.56299914551573" lon="-2.0895199856627333"><ele>41.666666666666664</ele><time>2026-04-05T09:57:26Z</time></trkpt><trkpt lat="48.563032744686566" lon="-2.0894202877018015"><ele>42.33333333333333</ele><time>2026-04-05T09:57:28Z</time></trkpt><trkpt lat="48.563057716173496" lon="-2.089291007915452"><ele>43.0</ele><time>2026-04-05T09:57:31Z</time></trkpt><trkpt lat="48.563083368800626" lon="-2.089194289052836"><ele>43.666666666666664</ele><time>2026-04-05T09:57:33Z</time></trkpt><trkpt lat="48.56310634148824" lon="-2.0891005238676117"><ele>44.333333333333336</ele><time>2026-04-05T09:57:35Z</time></trkpt><trkpt lat="48.56315942622191" lon="-2.0889416927536453"><ele>45.0</ele><time>2026-04-05T09:57:38Z</time></trkpt><trkpt lat="48.56319511478899" lon="-2.088846838906115"><ele>45.333333333333336</ele><time>2026-04-05T09:57:40Z</time></trkpt><trkpt lat="48.563381366179456" lon="-2.088444061696601"><ele>45.66666666666667</ele><time>2026-04-05T09:57:42Z</time></trkpt><trkpt lat="48.563416506376704" lon="-2.0883394786071356"><ele>46.0</ele><time>2026-04-05T09:57:44Z</time></trkpt><trkpt lat="48.563462385317145" lon="-2.088240416259627"><ele>46.333333333333336</ele><time>2026-04-05T09:57:46Z</time></trkpt><trkpt lat="48.56351026526958" lon="-2.0881392219109243"><ele>46.66666666666667</ele><time>2026-04-05T09:57:48Z</time></trkpt><trkpt lat="48.56354259125194" lon="-2.0880255103786958"><ele>47.0</ele><time>2026-04-05T09:57:50Z</time></trkpt><trkpt lat="48.56357837863858" lon="-2.087909050165395"><ele>47.333333333333336</ele><time>2026-04-05T09:57:52Z</time></trkpt><trkpt lat="48.56361026635196" lon="-2.087795169159577"><ele>47.666666666666664</ele><time>2026-04-05T09:57:54Z</time></trkpt><trkpt lat="48.563650194464586" lon="-2.0876846864817256"><ele>48.0</ele><time>2026-04-05T09:57:56Z</time></trkpt><trkpt lat="48.56368957208216" lon="-2.087574699437695"><ele>48.0</ele><time>2026-04-05T09:57:58Z</time></trkpt><trkpt lat="48.563713982303135" lon="-2.0874471074771703"><ele>48.0</ele><time>2026-04-05T09:58:00Z</time></trkpt><trkpt lat="48.56377729902523" lon="-2.0873460213244925"><ele>48.0</ele><time>2026-04-05T09:58:02Z</time></trkpt><trkpt lat="48.563813295641026" lon="-2.087240872654257"><ele>48.0</ele><time>2026-04-05T09:58:04Z</time></trkpt><trkpt lat="48.563855944388564" lon="-2.087167922473608"><ele>48.0</ele><time>2026-04-05T09:58:06Z</time></trkpt><trkpt lat="48.56389389033007" lon="-2.0870593201546734"><ele>48.0</ele><time>2026-04-05T09:58:09Z</time></trkpt><trkpt lat="48.56394482312404" lon="-2.086974741857"><ele>48.2</ele><time>2026-04-05T09:58:11Z</time></trkpt><trkpt lat="48.564024046644526" lon="-2.0868567955579835"><ele>48.4</ele><time>2026-04-05T09:58:13Z</time></trkpt><trkpt lat="48.564096642566525" lon="-2.086728834324015"><ele>48.6</ele><time>2026-04-05T09:58:15Z</time></trkpt><trkpt lat="48.564150813788615" lon="-2.0866091902171338"><ele>48.800000000000004</ele><time>2026-04-05T09:58:17Z</time></trkpt><trkpt lat="48.564178341220895" lon="-2.086506444488159"><ele>49.0</ele><time>2026-04-05T09:58:18Z</time></trkpt><trkpt lat="48.56421043748747" lon="-2.0863575607151748"><ele>49.0</ele><time>2026-04-05T09:58:20Z</time></trkpt><trkpt lat="48.56421644084887" lon="-2.086186810991907"><ele>49.0</ele><time>2026-04-05T09:58:22Z</time></trkpt><trkpt lat="48.564221076903394" lon="-2.086035343697958"><ele>49.0</ele><time>2026-04-05T09:58:24Z</time></trkpt><trkpt lat="48.56422489954052" lon="-2.085876053037808"><ele>49.0</ele><time>2026-04-05T09:58:26Z</time></trkpt><trkpt lat="48.56423246297465" lon="-2.085726564260062"><ele>49.0</ele><time>2026-04-05T09:58:28Z</time></trkpt><trkpt lat="48.56425066426586" lon="-2.0855634774201612"><ele>49.2</ele><time>2026-04-05T09:58:29.999Z</time></trkpt><trkpt lat="48.564267415908674" lon="-2.0853914402195124"><ele>49.400000000000006</ele><time>2026-04-05T09:58:31.999Z</time></trkpt><trkpt lat="48.56429668537678" lon="-2.0852117383381983"><ele>49.6</ele><time>2026-04-05T09:58:33.999Z</time></trkpt><trkpt lat="48.56431948328796" lon="-2.085026912880185"><ele>49.8</ele><time>2026-04-05T09:58:35.999Z</time></trkpt><trkpt lat="48.56433035107037" lon="-2.0849277666174384"><ele>50.0</ele><time>2026-04-05T09:58:36.999Z</time></trkpt><trkpt lat="48.56434154266765" lon="-2.0848227098096714"><ele>50.00000000000001</ele><time>2026-04-05T09:58:37.999Z</time></trkpt><trkpt lat="48.56435434044503" lon="-2.0847188115743984"><ele>50.0</ele><time>2026-04-05T09:58:38.999Z</time></trkpt><trkpt lat="48.5643690770848" lon="-2.0846124000858466"><ele>50.0</ele><time>2026-04-05T09:58:39.999Z</time></trkpt><trkpt lat="48.56438821318668" lon="-2.084512499366718"><ele>50.0</ele><time>2026-04-05T09:58:40.999Z</time></trkpt><trkpt lat="48.56440778104831" lon="-2.084410636281618"><ele>50.00000000000001</ele><time>2026-04-05T09:58:41.999Z</time></trkpt><trkpt lat="48.564435547343706" lon="-2.084294653720791"><ele>50.0</ele><time>2026-04-05T09:58:42.999Z</time></trkpt><trkpt lat="48.564470012422795" lon="-2.084172238482403"><ele>49.6</ele><time>2026-04-05T09:58:43.999Z</time></trkpt><trkpt lat="48.564511763385276" lon="-2.084053178757145"><ele>49.2</ele><time>2026-04-05T09:58:44.999Z</time></trkpt><trkpt lat="48.564567342667864" lon="-2.083933542469486"><ele>48.8</ele><time>2026-04-05T09:58:45.999Z</time></trkpt><trkpt lat="48.56462685847239" lon="-2.0838028897694088"><ele>48.4</ele><time>2026-04-05T09:58:46.999Z</time></trkpt><trkpt lat="48.564680605598305" lon="-2.0836715386291647"><ele>48.0</ele><time>2026-04-05T09:58:47.999Z</time></trkpt><trkpt lat="48.564727565058334" lon="-2.0835601919461784"><ele>46.8</ele><time>2026-04-05T09:58:48.999Z</time></trkpt><trkpt lat="48.56478010808471" lon="-2.0834452042094584"><ele>45.599999999999994</ele><time>2026-04-05T09:58:49.999Z</time></trkpt><trkpt lat="48.56483528959499" lon="-2.0833234588815035"><ele>44.400000000000006</ele><time>2026-04-05T09:58:50.999Z</time></trkpt><trkpt lat="48.564880907241914" lon="-2.0831761754712503"><ele>43.2</ele><time>2026-04-05T09:58:51.999Z</time></trkpt><trkpt lat="48.564935600315565" lon="-2.0830323670516435"><ele>42.0</ele><time>2026-04-05T09:58:52.999Z</time></trkpt><trkpt lat="48.56499227515236" lon="-2.082883348480051"><ele>40.5</ele><time>2026-04-05T09:58:53.999Z</time></trkpt><trkpt lat="48.56506177039309" lon="-2.0827463670477044"><ele>39.0</ele><time>2026-04-05T09:58:54.999Z</time></trkpt><trkpt lat="48.56512443823846" lon="-2.0825970068904653"><ele>37.5</ele><time>2026-04-05T09:58:55.999Z</time></trkpt><trkpt lat="48.56518954280386" lon="-2.082458329271249"><ele>36.0</ele><time>2026-04-05T09:58:57Z</time></trkpt><trkpt lat="48.56525803870242" lon="-2.082312478816586"><ele>35.4</ele><time>2026-04-05T09:58:58Z</time></trkpt><trkpt lat="48.565332358162934" lon="-2.08217477280164"><ele>34.8</ele><time>2026-04-05T09:58:59Z</time></trkpt><trkpt lat="48.565405631255295" lon="-2.082047890213698"><ele>34.199999999999996</ele><time>2026-04-05T09:59:00Z</time></trkpt><trkpt lat="48.565479403879664" lon="-2.0819321422477874"><ele>33.6</ele><time>2026-04-05T09:59:01Z</time></trkpt><trkpt lat="48.565544493929366" lon="-2.0818079825417937"><ele>33.0</ele><time>2026-04-05T09:59:02Z</time></trkpt><trkpt lat="48.56561677865752" lon="-2.0817041879309097"><ele>32.166666666666664</ele><time>2026-04-05T09:59:03Z</time></trkpt><trkpt lat="48.56568075582305" lon="-2.081607927119"><ele>31.333333333333336</ele><time>2026-04-05T09:59:04Z</time></trkpt><trkpt lat="48.565747847705794" lon="-2.0815102310113764"><ele>30.5</ele><time>2026-04-05T09:59:05Z</time></trkpt><trkpt lat="48.56581044279032" lon="-2.081412624455686"><ele>29.666666666666668</ele><time>2026-04-05T09:59:06Z</time></trkpt><trkpt lat="48.56587449051147" lon="-2.081325129162431"><ele>28.833333333333336</ele><time>2026-04-05T09:59:07Z</time></trkpt><trkpt lat="48.56593383691391" lon="-2.0812497689677323"><ele>28.0</ele><time>2026-04-05T09:59:08Z</time></trkpt><trkpt lat="48.565996388910335" lon="-2.081159934301032"><ele>28.0</ele><time>2026-04-05T09:59:09Z</time></trkpt><trkpt lat="48.56605458423326" lon="-2.0810729157415424"><ele>28.0</ele><time>2026-04-05T09:59:10Z</time></trkpt><trkpt lat="48.56610696520878" lon="-2.0809905987849344"><ele>28.0</ele><time>2026-04-05T09:59:11Z</time></trkpt><trkpt lat="48.56615451473651" lon="-2.080908420109893"><ele>28.0</ele><time>2026-04-05T09:59:12Z</time></trkpt><trkpt lat="48.56620682722672" lon="-2.080829725896872"><ele>28.0</ele><time>2026-04-05T09:59:13Z</time></trkpt><trkpt lat="48.56625786768742" lon="-2.0807540749118587"><ele>28.0</ele><time>2026-04-05T09:59:14Z</time></trkpt><trkpt lat="48.566306374576136" lon="-2.080671405175245"><ele>28.0</ele><time>2026-04-05T09:59:15Z</time></trkpt><trkpt lat="48.56636086116947" lon="-2.080603745637557"><ele>28.857142857142858</ele><time>2026-04-05T09:59:16Z</time></trkpt><trkpt lat="48.56640931872132" lon="-2.080528948884549"><ele>29.714285714285715</ele><time>2026-04-05T09:59:17Z</time></trkpt><trkpt lat="48.56645884797381" lon="-2.0804496448818393"><ele>30.57142857142857</ele><time>2026-04-05T09:59:18Z</time></trkpt><trkpt lat="48.56651082146803" lon="-2.080387453862024"><ele>31.428571428571427</ele><time>2026-04-05T09:59:19Z</time></trkpt><trkpt lat="48.56656287848434" lon="-2.0803232363268798"><ele>32.285714285714285</ele><time>2026-04-05T09:59:20Z</time></trkpt><trkpt lat="48.566615356095156" lon="-2.0802588358452576"><ele>33.14285714285714</ele><time>2026-04-05T09:59:21Z</time></trkpt><trkpt lat="48.56666019510756" lon="-2.0801917384832533"><ele>34.0</ele><time>2026-04-05T09:59:22Z</time></trkpt><trkpt lat="48.5667044895946" lon="-2.080119590953201"><ele>34.0</ele><time>2026-04-05T09:59:23Z</time></trkpt><trkpt lat="48.566749097911014" lon="-2.080042557451808"><ele>34.0</ele><time>2026-04-05T09:59:24Z</time></trkpt><trkpt lat="48.56683134660323" lon="-2.079892274431428"><ele>34.0</ele><time>2026-04-05T09:59:26Z</time></trkpt><trkpt lat="48.56687442954638" lon="-2.0798141761121975"><ele>34.0</ele><time>2026-04-05T09:59:27Z</time></trkpt><trkpt lat="48.566940636967026" lon="-2.079640199342733"><ele>34.0</ele><time>2026-04-05T09:59:29Z</time></trkpt><trkpt lat="48.56694855286177" lon="-2.0795405788117294"><ele>35.0</ele><time>2026-04-05T09:59:30Z</time></trkpt><trkpt lat="48.566956804156135" lon="-2.079362310628665"><ele>36.0</ele><time>2026-04-05T09:59:32Z</time></trkpt><trkpt lat="48.56694702655444" lon="-2.079209379657675"><ele>37.0</ele><time>2026-04-05T09:59:34Z</time></trkpt><trkpt lat="48.56695120207963" lon="-2.079075259690562"><ele>38.0</ele><time>2026-04-05T09:59:36Z</time></trkpt><trkpt lat="48.566926288204634" lon="-2.0789548789858983"><ele>39.0</ele><time>2026-04-05T09:59:40Z</time></trkpt><trkpt lat="48.56691508472314" lon="-2.0788592500035503"><ele>39.57142857142858</ele><time>2026-04-05T09:59:43Z</time></trkpt><trkpt lat="48.56689769473558" lon="-2.078758326151656"><ele>40.14285714285714</ele><time>2026-04-05T09:59:47Z</time></trkpt><trkpt lat="48.56686540511114" lon="-2.078649968594993"><ele>40.714285714285715</ele><time>2026-04-05T09:59:50Z</time></trkpt><trkpt lat="48.56685458946897" lon="-2.078549849441017"><ele>41.28571428571429</ele><time>2026-04-05T09:59:54Z</time></trkpt><trkpt lat="48.566826810763494" lon="-2.0784455383843343"><ele>41.85714285714286</ele><time>2026-04-05T09:59:56Z</time></trkpt><trkpt lat="48.56680502121872" lon="-2.0783554898338954"><ele>42.42857142857143</ele><time>2026-04-05T09:59:59Z</time></trkpt><trkpt lat="48.56680287412915" lon="-2.0782412185613355"><ele>43.0</ele><time>2026-04-05T10:00:02Z</time></trkpt><trkpt lat="48.56681311692907" lon="-2.078114874221866"><ele>43.66666666666667</ele><time>2026-04-05T10:00:05Z</time></trkpt><trkpt lat="48.56677168557181" lon="-2.07802953621584"><ele>44.333333333333336</ele><time>2026-04-05T10:00:08Z</time></trkpt><trkpt lat="48.566763135373904" lon="-2.0778989896178164"><ele>45.0</ele><time>2026-04-05T10:00:11Z</time></trkpt><trkpt lat="48.56670928185468" lon="-2.077794854383234"><ele>45.666666666666664</ele><time>2026-04-05T10:00:14Z</time></trkpt><trkpt lat="48.566651040694445" lon="-2.077701402347153"><ele>46.33333333333333</ele><time>2026-04-05T10:00:18Z</time></trkpt><trkpt lat="48.56657808529398" lon="-2.077667739280868"><ele>47.0</ele><time>2026-04-05T10:00:21Z</time></trkpt><trkpt lat="48.56651556655959" lon="-2.0776382555541595"><ele>47.0</ele><time>2026-04-05T10:00:24Z</time></trkpt><trkpt lat="48.56644102331358" lon="-2.077601703521193"><ele>47.0</ele><time>2026-04-05T10:00:27Z</time></trkpt><trkpt lat="48.56636889775496" lon="-2.0775755885851597"><ele>47.0</ele><time>2026-04-05T10:00:30Z</time></trkpt><trkpt lat="48.56628057551933" lon="-2.0775571570785645"><ele>47.0</ele><time>2026-04-05T10:00:32.999Z</time></trkpt><trkpt lat="48.566181997127615" lon="-2.0775387970444177"><ele>47.0</ele><time>2026-04-05T10:00:35.999Z</time></trkpt><trkpt lat="48.56610458711369" lon="-2.07751609650017"><ele>47.0</ele><time>2026-04-05T10:00:39.999Z</time></trkpt><trkpt lat="48.566029830038005" lon="-2.077511237047146"><ele>47.5</ele><time>2026-04-05T10:00:42.999Z</time></trkpt><trkpt lat="48.56593493196402" lon="-2.0774868071388686"><ele>48.0</ele><time>2026-04-05T10:00:45.999Z</time></trkpt><trkpt lat="48.5658656765202" lon="-2.0774647798680452"><ele>48.5</ele><time>2026-04-05T10:00:48.999Z</time></trkpt><trkpt lat="48.56579227282438" lon="-2.077443599136583"><ele>49.0</ele><time>2026-04-05T10:00:51.999Z</time></trkpt><trkpt lat="48.56570899159041" lon="-2.0774219402484584"><ele>49.50000000000001</ele><time>2026-04-05T10:00:54.999Z</time></trkpt><trkpt lat="48.565625738628256" lon="-2.077376384160161"><ele>50.0</ele><time>2026-04-05T10:00:57.999Z</time></trkpt><trkpt lat="48.56555467153919" lon="-2.0773165156043465"><ele>50.833333333333336</ele><time>2026-04-05T10:01:00.999Z</time></trkpt><trkpt lat="48.56549775311265" lon="-2.0772756452084655"><ele>51.66666666666667</ele><time>2026-04-05T10:01:04Z</time></trkpt><trkpt lat="48.565397039097085" lon="-2.077218575524325"><ele>52.5</ele><time>2026-04-05T10:01:07Z</time></trkpt><trkpt lat="48.56533005260831" lon="-2.077112498493953"><ele>53.33333333333333</ele><time>2026-04-05T10:01:11Z</time></trkpt><trkpt lat="48.56525682280562" lon="-2.077125135420024"><ele>54.166666666666664</ele><time>2026-04-05T10:01:13Z</time></trkpt><trkpt lat="48.565187816741236" lon="-2.0770344628163655"><ele>55.0</ele><time>2026-04-05T10:01:15Z</time></trkpt><trkpt lat="48.565138116296055" lon="-2.076965237175261"><ele>55.5</ele><time>2026-04-05T10:01:18Z</time></trkpt><trkpt lat="48.56507748942241" lon="-2.0768782787474223"><ele>56.0</ele><time>2026-04-05T10:01:20Z</time></trkpt><trkpt lat="48.5650129153819" lon="-2.0768037097437384"><ele>56.5</ele><time>2026-04-05T10:01:22Z</time></trkpt><trkpt lat="48.5648059937935" lon="-2.0765861653127944"><ele>57.0</ele><time>2026-04-05T10:01:24Z</time></trkpt><trkpt lat="48.56466300496132" lon="-2.0764033867078604"><ele>57.2</ele><time>2026-04-05T10:01:25Z</time></trkpt><trkpt lat="48.56458123245645" lon="-2.0763139782085847"><ele>57.400000000000006</ele><time>2026-04-05T10:01:27Z</time></trkpt><trkpt lat="48.564498013054255" lon="-2.0762084955394133"><ele>57.599999999999994</ele><time>2026-04-05T10:01:29Z</time></trkpt><trkpt lat="48.56441363380842" lon="-2.076101058923811"><ele>57.8</ele><time>2026-04-05T10:01:31Z</time></trkpt><trkpt lat="48.56433854854078" lon="-2.075995096511951"><ele>58.0</ele><time>2026-04-05T10:01:33Z</time></trkpt><trkpt lat="48.564236506014026" lon="-2.075913692384268"><ele>58.0</ele><time>2026-04-05T10:01:35Z</time></trkpt><trkpt lat="48.56414109632644" lon="-2.075822955886185"><ele>58.0</ele><time>2026-04-05T10:01:37Z</time></trkpt><trkpt lat="48.564050156153115" lon="-2.075754292899126"><ele>58.0</ele><time>2026-04-05T10:01:39Z</time></trkpt><trkpt lat="48.56395219607114" lon="-2.075703743579453"><ele>58.0</ele><time>2026-04-05T10:01:41Z</time></trkpt><trkpt lat="48.56384073968662" lon="-2.075674706961659"><ele>58.0</ele><time>2026-04-05T10:01:43Z</time></trkpt><trkpt lat="48.563777711957755" lon="-2.07565866746723"><ele>57.75</ele><time>2026-04-05T10:01:44Z</time></trkpt><trkpt lat="48.5636567383139" lon="-2.0756231635939604"><ele>57.5</ele><time>2026-04-05T10:01:46Z</time></trkpt><trkpt lat="48.56353998638654" lon="-2.075587280023303"><ele>57.25</ele><time>2026-04-05T10:01:48Z</time></trkpt><trkpt lat="48.563426772503654" lon="-2.0755453858518633"><ele>57.0</ele><time>2026-04-05T10:01:50Z</time></trkpt><trkpt lat="48.56331689917817" lon="-2.075513642361626"><ele>57.0</ele><time>2026-04-05T10:01:52Z</time></trkpt><trkpt lat="48.56321187786166" lon="-2.075498326538393"><ele>57.0</ele><time>2026-04-05T10:01:54Z</time></trkpt><trkpt lat="48.56310934441972" lon="-2.0754597812991"><ele>57.0</ele><time>2026-04-05T10:01:56Z</time></trkpt><trkpt lat="48.56299396396453" lon="-2.0754449706606106"><ele>57.0</ele><time>2026-04-05T10:01:58Z</time></trkpt><trkpt lat="48.5628906955345" lon="-2.075403691290853"><ele>57.0</ele><time>2026-04-05T10:02:00Z</time></trkpt><trkpt lat="48.562797075499546" lon="-2.0753675546010815"><ele>56.75</ele><time>2026-04-05T10:02:03Z</time></trkpt><trkpt lat="48.56272508021067" lon="-2.0753257261151954"><ele>56.5</ele><time>2026-04-05T10:02:06Z</time></trkpt><trkpt lat="48.562543300488336" lon="-2.075168356042874"><ele>56.25</ele><time>2026-04-05T10:02:08Z</time></trkpt><trkpt lat="48.562515337077244" lon="-2.0750412251225296"><ele>56.0</ele><time>2026-04-05T10:02:10Z</time></trkpt><trkpt lat="48.562478106979626" lon="-2.074931826273344"><ele>56.599999999999994</ele><time>2026-04-05T10:02:12Z</time></trkpt><trkpt lat="48.56240231382657" lon="-2.074840349961878"><ele>57.199999999999996</ele><time>2026-04-05T10:02:14Z</time></trkpt><trkpt lat="48.56231588113768" lon="-2.0747989214535085"><ele>57.800000000000004</ele><time>2026-04-05T10:02:16Z</time></trkpt><trkpt lat="48.56223516339631" lon="-2.0747416730865544"><ele>58.400000000000006</ele><time>2026-04-05T10:02:18Z</time></trkpt><trkpt lat="48.56214750775078" lon="-2.0746940329920465"><ele>59.0</ele><time>2026-04-05T10:02:20Z</time></trkpt><trkpt lat="48.56205675365363" lon="-2.074647922027249"><ele>58.50000000000001</ele><time>2026-04-05T10:02:22Z</time></trkpt><trkpt lat="48.561966893198004" lon="-2.0745849077711935"><ele>58.0</ele><time>2026-04-05T10:02:24Z</time></trkpt><trkpt lat="48.56188605598465" lon="-2.0745047799732346"><ele>57.5</ele><time>2026-04-05T10:02:26Z</time></trkpt><trkpt lat="48.561798458721405" lon="-2.0744299468534084"><ele>57.0</ele><time>2026-04-05T10:02:28Z</time></trkpt><trkpt lat="48.561734397425234" lon="-2.0743905886047638"><ele>56.50000000000001</ele><time>2026-04-05T10:02:31Z</time></trkpt><trkpt lat="48.56167158893097" lon="-2.0743233499931475"><ele>56.0</ele><time>2026-04-05T10:02:33Z</time></trkpt><trkpt lat="48.56161061357993" lon="-2.074248198337274"><ele>56.00000000000001</ele><time>2026-04-05T10:02:35Z</time></trkpt><trkpt lat="48.56155526615979" lon="-2.074156876705237"><ele>56.0</ele><time>2026-04-05T10:02:37Z</time></trkpt><trkpt lat="48.56147459725201" lon="-2.074057445892695"><ele>56.0</ele><time>2026-04-05T10:02:39Z</time></trkpt><trkpt lat="48.56141859563272" lon="-2.073993808612343"><ele>56.0</ele><time>2026-04-05T10:02:40.999Z</time></trkpt><trkpt lat="48.561375769468356" lon="-2.073908225860222"><ele>56.00000000000001</ele><time>2026-04-05T10:02:42.999Z</time></trkpt><trkpt lat="48.5613196764565" lon="-2.0738130856597294"><ele>56.0</ele><time>2026-04-05T10:02:44.999Z</time></trkpt><trkpt lat="48.56126056137321" lon="-2.0736939369046654"><ele>56.5</ele><time>2026-04-05T10:02:47.999Z</time></trkpt><trkpt lat="48.56123189627795" lon="-2.0736021310319943"><ele>57.0</ele><time>2026-04-05T10:02:49.999Z</time></trkpt><trkpt lat="48.561137028931064" lon="-2.073326674336655"><ele>57.5</ele><time>2026-04-05T10:02:51.999Z</time></trkpt><trkpt lat="48.561101212113336" lon="-2.0731859128849988"><ele>58.0</ele><time>2026-04-05T10:02:53.999Z</time></trkpt><trkpt lat="48.56106681082727" lon="-2.073024385101834"><ele>58.0</ele><time>2026-04-05T10:02:55.999Z</time></trkpt><trkpt lat="48.56102708524614" lon="-2.0728635934756414"><ele>58.0</ele><time>2026-04-05T10:02:57.999Z</time></trkpt><trkpt lat="48.560991786257134" lon="-2.0726895432804633"><ele>58.0</ele><time>2026-04-05T10:02:59.999Z</time></trkpt><trkpt lat="48.56094907758191" lon="-2.0725423699402077"><ele>58.0</ele><time>2026-04-05T10:03:01.999Z</time></trkpt><trkpt lat="48.560914701748125" lon="-2.072388652784295"><ele>58.0</ele><time>2026-04-05T10:03:03.999Z</time></trkpt><trkpt lat="48.56086444515554" lon="-2.0722650253897106"><ele>57.99999999999999</ele><time>2026-04-05T10:03:05.999Z</time></trkpt><trkpt lat="48.56081975535302" lon="-2.0721392323127867"><ele>58.0</ele><time>2026-04-05T10:03:07.999Z</time></trkpt><trkpt lat="48.560770485786975" lon="-2.0720402682836596"><ele>58.0</ele><time>2026-04-05T10:03:10Z</time></trkpt><trkpt lat="48.5607227661572" lon="-2.071939612856903"><ele>58.0</ele><time>2026-04-05T10:03:12Z</time></trkpt><trkpt lat="48.560673663445634" lon="-2.071838141627377"><ele>57.99999999999999</ele><time>2026-04-05T10:03:14Z</time></trkpt><trkpt lat="48.560614604864945" lon="-2.0717287282006382"><ele>58.0</ele><time>2026-04-05T10:03:16Z</time></trkpt><trkpt lat="48.560559331851245" lon="-2.071610765577465"><ele>58.0</ele><time>2026-04-05T10:03:18Z</time></trkpt><trkpt lat="48.56050153785499" lon="-2.071486037552042"><ele>58.0</ele><time>2026-04-05T10:03:20Z</time></trkpt><trkpt lat="48.560433542047384" lon="-2.07135887445301"><ele>58.0</ele><time>2026-04-05T10:03:22Z</time></trkpt><trkpt lat="48.56036974790597" lon="-2.071241782934341"><ele>58.0</ele><time>2026-04-05T10:03:24Z</time></trkpt><trkpt lat="48.560322758179716" lon="-2.0711436748202523"><ele>58.0</ele><time>2026-04-05T10:03:27Z</time></trkpt><trkpt lat="48.560277472433334" lon="-2.0710310843496473"><ele>57.2</ele><time>2026-04-05T10:03:30Z</time></trkpt><trkpt lat="48.56022370328376" lon="-2.0709325136520085"><ele>56.4</ele><time>2026-04-05T10:03:32Z</time></trkpt><trkpt lat="48.56016994997142" lon="-2.0707956708619255"><ele>55.60000000000001</ele><time>2026-04-05T10:03:34Z</time></trkpt><trkpt lat="48.560136660290276" lon="-2.070714364725713"><ele>54.800000000000004</ele><time>2026-04-05T10:03:35Z</time></trkpt><trkpt lat="48.56008124489043" lon="-2.0705477017318357"><ele>54.0</ele><time>2026-04-05T10:03:37Z</time></trkpt><trkpt lat="48.560043120497696" lon="-2.0704532131857887"><ele>53.833333333333336</ele><time>2026-04-05T10:03:38Z</time></trkpt><trkpt lat="48.56000883846119" lon="-2.0703472091250603"><ele>53.66666666666667</ele><time>2026-04-05T10:03:39Z</time></trkpt><trkpt lat="48.55997300368657" lon="-2.0702362199128492"><ele>53.5</ele><time>2026-04-05T10:03:40Z</time></trkpt><trkpt lat="48.55993888725972" lon="-2.0701199223905915"><ele>53.333333333333336</ele><time>2026-04-05T10:03:41Z</time></trkpt><trkpt lat="48.55990525879838" lon="-2.0700033020389763"><ele>53.16666666666667</ele><time>2026-04-05T10:03:42Z</time></trkpt><trkpt lat="48.5598901284862" lon="-2.0698603957823636"><ele>53.0</ele><time>2026-04-05T10:03:43Z</time></trkpt><trkpt lat="48.55987796898418" lon="-2.069728243709691"><ele>53.0</ele><time>2026-04-05T10:03:44Z</time></trkpt><trkpt lat="48.55986478610504" lon="-2.0696005045364716"><ele>53.0</ele><time>2026-04-05T10:03:45Z</time></trkpt><trkpt lat="48.55984709813513" lon="-2.0693691992471814"><ele>53.0</ele><time>2026-04-05T10:03:47Z</time></trkpt><trkpt lat="48.55982985519295" lon="-2.069237134042371"><ele>53.0</ele><time>2026-04-05T10:03:48Z</time></trkpt><trkpt lat="48.55979680065615" lon="-2.0691261732840633"><ele>53.0</ele><time>2026-04-05T10:03:49Z</time></trkpt><trkpt lat="48.55977212926442" lon="-2.069017037700991"><ele>53.599999999999994</ele><time>2026-04-05T10:03:50Z</time></trkpt><trkpt lat="48.55974730246289" lon="-2.068888724820731"><ele>54.199999999999996</ele><time>2026-04-05T10:03:51Z</time></trkpt><trkpt lat="48.559743898543346" lon="-2.0687231533983055"><ele>54.8</ele><time>2026-04-05T10:03:53Z</time></trkpt><trkpt lat="48.55972142069195" lon="-2.06858781369435"><ele>55.4</ele><time>2026-04-05T10:03:55Z</time></trkpt><trkpt lat="48.559659560820535" lon="-2.0684777989854046"><ele>56.0</ele><time>2026-04-05T10:03:57Z</time></trkpt><trkpt lat="48.55960708548365" lon="-2.068410251179352"><ele>56.00000000000001</ele><time>2026-04-05T10:03:59Z</time></trkpt><trkpt lat="48.559520840008254" lon="-2.068338429515411"><ele>56.0</ele><time>2026-04-05T10:04:02Z</time></trkpt><trkpt lat="48.559445343687194" lon="-2.0682690233043775"><ele>56.0</ele><time>2026-04-05T10:04:05Z</time></trkpt><trkpt lat="48.55938461134357" lon="-2.068231442866459"><ele>56.0</ele><time>2026-04-05T10:04:07Z</time></trkpt><trkpt lat="48.55931827365941" lon="-2.0681599275299436"><ele>56.00000000000001</ele><time>2026-04-05T10:04:09Z</time></trkpt><trkpt lat="48.55924568062544" lon="-2.0680585803776323"><ele>56.0</ele><time>2026-04-05T10:04:12Z</time></trkpt><trkpt lat="48.559198712608655" lon="-2.0679775916581535"><ele>56.333333333333336</ele><time>2026-04-05T10:04:14Z</time></trkpt><trkpt lat="48.5591950798861" lon="-2.0678619768956414"><ele>56.66666666666667</ele><time>2026-04-05T10:04:18Z</time></trkpt><trkpt lat="48.55915950352738" lon="-2.0677409073396156"><ele>57.0</ele><time>2026-04-05T10:04:21Z</time></trkpt><trkpt lat="48.55914479410042" lon="-2.067619744893183"><ele>57.33333333333333</ele><time>2026-04-05T10:04:23Z</time></trkpt><trkpt lat="48.559141526947215" lon="-2.0674852106661192"><ele>57.666666666666664</ele><time>2026-04-05T10:04:26Z</time></trkpt><trkpt lat="48.559153992510325" lon="-2.067371302763992"><ele>58.0</ele><time>2026-04-05T10:04:28Z</time></trkpt><trkpt lat="48.55913605907494" lon="-2.0672184818775485"><ele>58.571428571428584</ele><time>2026-04-05T10:04:31Z</time></trkpt><trkpt lat="48.559128656675284" lon="-2.067109315845513"><ele>59.142857142857146</ele><time>2026-04-05T10:04:33Z</time></trkpt><trkpt lat="48.55912020838872" lon="-2.0669983724721286"><ele>59.71428571428572</ele><time>2026-04-05T10:04:35Z</time></trkpt><trkpt lat="48.55911943563351" lon="-2.0668787614639736"><ele>60.28571428571429</ele><time>2026-04-05T10:04:37Z</time></trkpt><trkpt lat="48.5591183996688" lon="-2.066776565889566"><ele>60.85714285714286</ele><time>2026-04-05T10:04:39Z</time></trkpt><trkpt lat="48.559123079299894" lon="-2.0666690941391397"><ele>61.42857142857143</ele><time>2026-04-05T10:04:40.999Z</time></trkpt><trkpt lat="48.55914315604769" lon="-2.066547666743606"><ele>62.0</ele><time>2026-04-05T10:04:43.999Z</time></trkpt><trkpt lat="48.55915723230111" lon="-2.0664327571109093"><ele>62.57142857142858</ele><time>2026-04-05T10:04:45.999Z</time></trkpt><trkpt lat="48.559162179838864" lon="-2.066326669911795"><ele>63.14285714285715</ele><time>2026-04-05T10:04:47.999Z</time></trkpt><trkpt lat="48.55915371721675" lon="-2.0662202623361665"><ele>63.714285714285715</ele><time>2026-04-05T10:04:49.999Z</time></trkpt><trkpt lat="48.559173797647865" lon="-2.066116725411732"><ele>64.28571428571429</ele><time>2026-04-05T10:04:51.999Z</time></trkpt><trkpt lat="48.559168911811255" lon="-2.0660186474234097"><ele>64.85714285714286</ele><time>2026-04-05T10:04:54.999Z</time></trkpt><trkpt lat="48.55920060834397" lon="-2.0659060207851816"><ele>65.42857142857143</ele><time>2026-04-05T10:04:56.999Z</time></trkpt><trkpt lat="48.55921362559394" lon="-2.0658070399717534"><ele>66.0</ele><time>2026-04-05T10:04:58.999Z</time></trkpt><trkpt lat="48.55921799884735" lon="-2.0657100126351424"><ele>66.5</ele><time>2026-04-05T10:05:00.999Z</time></trkpt><trkpt lat="48.559227248481555" lon="-2.0655631703580215"><ele>67.0</ele><time>2026-04-05T10:05:03.999Z</time></trkpt><trkpt lat="48.55924240657535" lon="-2.065428565756414"><ele>67.5</ele><time>2026-04-05T10:05:06.999Z</time></trkpt><trkpt lat="48.55925621271411" lon="-2.0653093628578416"><ele>68.0</ele><time>2026-04-05T10:05:08.999Z</time></trkpt><trkpt lat="48.55928274876985" lon="-2.0651908599659183"><ele>68.5</ele><time>2026-04-05T10:05:11.999Z</time></trkpt><trkpt lat="48.559288911752" lon="-2.065047027157988"><ele>69.0</ele><time>2026-04-05T10:05:15Z</time></trkpt><trkpt lat="48.55929888896606" lon="-2.0649049018817967"><ele>69.16666666666667</ele><time>2026-04-05T10:05:17Z</time></trkpt><trkpt lat="48.559313079077775" lon="-2.0647887581258337"><ele>69.33333333333333</ele><time>2026-04-05T10:05:19Z</time></trkpt><trkpt lat="48.559328248442874" lon="-2.0646485819553946"><ele>69.5</ele><time>2026-04-05T10:05:21Z</time></trkpt><trkpt lat="48.559337640914435" lon="-2.0645167714217645"><ele>69.66666666666666</ele><time>2026-04-05T10:05:23Z</time></trkpt><trkpt lat="48.55934893813667" lon="-2.064409700353311"><ele>69.83333333333333</ele><time>2026-04-05T10:05:25Z</time></trkpt><trkpt lat="48.55936907517106" lon="-2.0642450547708773"><ele>70.0</ele><time>2026-04-05T10:05:27Z</time></trkpt><trkpt lat="48.55939494961811" lon="-2.06415196098661"><ele>70.16666666666666</ele><time>2026-04-05T10:05:30Z</time></trkpt><trkpt lat="48.55940996184251" lon="-2.06403275541417"><ele>70.33333333333333</ele><time>2026-04-05T10:05:32Z</time></trkpt><trkpt lat="48.55943518949856" lon="-2.0638927897055557"><ele>70.5</ele><time>2026-04-05T10:05:35Z</time></trkpt><trkpt lat="48.55946851938247" lon="-2.0637795860582973"><ele>70.66666666666667</ele><time>2026-04-05T10:05:37Z</time></trkpt><trkpt lat="48.559481457990785" lon="-2.063680738760976"><ele>70.83333333333334</ele><time>2026-04-05T10:05:40Z</time></trkpt><trkpt lat="48.55945985321592" lon="-2.0635637921407857"><ele>71.0</ele><time>2026-04-05T10:05:44Z</time></trkpt><trkpt lat="48.55938778572702" lon="-2.0634595799803903"><ele>71.0</ele><time>2026-04-05T10:05:47Z</time></trkpt><trkpt lat="48.55939254743226" lon="-2.063315848948497"><ele>71.0</ele><time>2026-04-05T10:05:50Z</time></trkpt><trkpt lat="48.55939228097928" lon="-2.0631718008451903"><ele>71.0</ele><time>2026-04-05T10:05:52Z</time></trkpt><trkpt lat="48.55939947587807" lon="-2.0630494334153657"><ele>71.0</ele><time>2026-04-05T10:05:54Z</time></trkpt><trkpt lat="48.559406938678514" lon="-2.0629415322988294"><ele>71.0</ele><time>2026-04-05T10:05:57Z</time></trkpt><trkpt lat="48.55940529440656" lon="-2.062650064733916"><ele>71.33333333333334</ele><time>2026-04-05T10:05:58Z</time></trkpt><trkpt lat="48.55940846956116" lon="-2.0625157810227703"><ele>71.66666666666667</ele><time>2026-04-05T10:06:00Z</time></trkpt><trkpt lat="48.559414833968006" lon="-2.062388822927321"><ele>72.0</ele><time>2026-04-05T10:06:02Z</time></trkpt><trkpt lat="48.5594193614913" lon="-2.0622635180489066"><ele>72.33333333333333</ele><time>2026-04-05T10:06:04Z</time></trkpt><trkpt lat="48.5594262752016" lon="-2.062134992404147"><ele>72.66666666666666</ele><time>2026-04-05T10:06:06Z</time></trkpt><trkpt lat="48.559435571239476" lon="-2.0620157981919043"><ele>73.0</ele><time>2026-04-05T10:06:08Z</time></trkpt><trkpt lat="48.559440650204834" lon="-2.0619181407904117"><ele>73.16666666666666</ele><time>2026-04-05T10:06:10Z</time></trkpt><trkpt lat="48.55945071667301" lon="-2.0618078891286467"><ele>73.33333333333333</ele><time>2026-04-05T10:06:12Z</time></trkpt><trkpt lat="48.55945890021101" lon="-2.061699183995594"><ele>73.5</ele><time>2026-04-05T10:06:14Z</time></trkpt><trkpt lat="48.55947845276197" lon="-2.061591759279434"><ele>73.66666666666667</ele><time>2026-04-05T10:06:17Z</time></trkpt><trkpt lat="48.55951023525263" lon="-2.061488718228336"><ele>73.83333333333334</ele><time>2026-04-05T10:06:19Z</time></trkpt><trkpt lat="48.55953586517674" lon="-2.0613873167649786"><ele>74.0</ele><time>2026-04-05T10:06:21Z</time></trkpt><trkpt lat="48.559577132707815" lon="-2.0612532183293113"><ele>74.2</ele><time>2026-04-05T10:06:23Z</time></trkpt><trkpt lat="48.55959375035308" lon="-2.0611248813658314"><ele>74.4</ele><time>2026-04-05T10:06:25Z</time></trkpt><trkpt lat="48.55962259529488" lon="-2.060987898901251"><ele>74.6</ele><time>2026-04-05T10:06:27Z</time></trkpt><trkpt lat="48.55964510634572" lon="-2.0608906373324394"><ele>74.8</ele><time>2026-04-05T10:06:29Z</time></trkpt><trkpt lat="48.55968897952167" lon="-2.0606971318962186"><ele>75.0</ele><time>2026-04-05T10:06:31Z</time></trkpt><trkpt lat="48.55971500307679" lon="-2.0605498893123038"><ele>75.0</ele><time>2026-04-05T10:06:33Z</time></trkpt><trkpt lat="48.55973208329934" lon="-2.0603842721594785"><ele>75.0</ele><time>2026-04-05T10:06:35Z</time></trkpt><trkpt lat="48.55976384215963" lon="-2.060223655651652"><ele>75.0</ele><time>2026-04-05T10:06:37Z</time></trkpt><trkpt lat="48.559794816023384" lon="-2.0600584226423684"><ele>75.0</ele><time>2026-04-05T10:06:39Z</time></trkpt><trkpt lat="48.55982232354667" lon="-2.05990316013539"><ele>75.0</ele><time>2026-04-05T10:06:41Z</time></trkpt><trkpt lat="48.559852582260056" lon="-2.0597406609794224"><ele>75.2</ele><time>2026-04-05T10:06:42.999Z</time></trkpt><trkpt lat="48.559883613419366" lon="-2.059546203845432"><ele>75.4</ele><time>2026-04-05T10:06:44.999Z</time></trkpt><trkpt lat="48.55989771508478" lon="-2.059416289742388"><ele>75.6</ele><time>2026-04-05T10:06:46.999Z</time></trkpt><trkpt lat="48.55992547392897" lon="-2.059253987797825"><ele>75.8</ele><time>2026-04-05T10:06:48.999Z</time></trkpt><trkpt lat="48.55992600465074" lon="-2.0590969572261173"><ele>76.0</ele><time>2026-04-05T10:06:50.999Z</time></trkpt><trkpt lat="48.55993832097986" lon="-2.0589294003984646"><ele>76.5</ele><time>2026-04-05T10:06:52.999Z</time></trkpt><trkpt lat="48.55994746923822" lon="-2.058767449893152"><ele>77.0</ele><time>2026-04-05T10:06:54.999Z</time></trkpt><trkpt lat="48.559957732843635" lon="-2.0586073502660223"><ele>77.5</ele><time>2026-04-05T10:06:56.999Z</time></trkpt><trkpt lat="48.559989178606074" lon="-2.0584996517551013"><ele>78.0</ele><time>2026-04-05T10:06:59.999Z</time></trkpt><trkpt lat="48.5600096848553" lon="-2.0584077647795973"><ele>78.5</ele><time>2026-04-05T10:07:01.999Z</time></trkpt><trkpt lat="48.56000724959869" lon="-2.0583011727321656"><ele>79.0</ele><time>2026-04-05T10:07:05.999Z</time></trkpt><trkpt lat="48.55993723918957" lon="-2.058341885230817"><ele>79.0</ele><time>2026-04-05T10:07:08.999Z</time></trkpt><trkpt lat="48.55985147533061" lon="-2.0583184157068812"><ele>79.0</ele><time>2026-04-05T10:07:11.999Z</time></trkpt><trkpt lat="48.55977642495845" lon="-2.058317660726025"><ele>79.0</ele><time>2026-04-05T10:07:13.999Z</time></trkpt><trkpt lat="48.55971242141042" lon="-2.0583034114635845"><ele>79.0</ele><time>2026-04-05T10:07:15.999Z</time></trkpt><trkpt lat="48.55963232276604" lon="-2.0583070059433326"><ele>79.0</ele><time>2026-04-05T10:07:18.999Z</time></trkpt><trkpt lat="48.559734363456506" lon="-2.058310199177647"><ele>79.0</ele><time>2026-04-05T10:08:13Z</time></trkpt><trkpt lat="48.559826268376064" lon="-2.0583052134978077"><ele>79.0</ele><time>2026-04-05T10:08:16Z</time></trkpt><trkpt lat="48.56004516472071" lon="-2.058302958458863"><ele>79.0</ele><time>2026-04-05T10:08:22Z</time></trkpt><trkpt lat="48.56017115199378" lon="-2.0582991651923996"><ele>79.0</ele><time>2026-04-05T10:08:25Z</time></trkpt><trkpt lat="48.56026339958357" lon="-2.05830670033697"><ele>79.0</ele><time>2026-04-05T10:08:27Z</time></trkpt><trkpt lat="48.56035625125204" lon="-2.058327601528357"><ele>78.8</ele><time>2026-04-05T10:08:29Z</time></trkpt><trkpt lat="48.560448304186814" lon="-2.0583510851547206"><ele>78.60000000000001</ele><time>2026-04-05T10:08:31Z</time></trkpt><trkpt lat="48.56055376103321" lon="-2.0583662250053"><ele>78.4</ele><time>2026-04-05T10:08:33Z</time></trkpt><trkpt lat="48.56064799242731" lon="-2.0583572858960015"><ele>78.2</ele><time>2026-04-05T10:08:35Z</time></trkpt><trkpt lat="48.56074966275797" lon="-2.058366962663598"><ele>78.0</ele><time>2026-04-05T10:08:37Z</time></trkpt><trkpt lat="48.56085213063164" lon="-2.058377227521917"><ele>78.0</ele><time>2026-04-05T10:08:39Z</time></trkpt><trkpt lat="48.56092747471693" lon="-2.058364821960732"><ele>78.0</ele><time>2026-04-05T10:08:42Z</time></trkpt><trkpt lat="48.56102460348159" lon="-2.058440016883974"><ele>78.0</ele><time>2026-04-05T10:08:45Z</time></trkpt><trkpt lat="48.561101739196815" lon="-2.0584092043841697"><ele>78.0</ele><time>2026-04-05T10:08:49Z</time></trkpt><trkpt lat="48.56116687071462" lon="-2.0583929551095825"><ele>78.0</ele><time>2026-04-05T10:09:48Z</time></trkpt><trkpt lat="48.56125951631869" lon="-2.0583863366184563"><ele>78.0</ele><time>2026-04-05T10:09:53Z</time></trkpt><trkpt lat="48.56136422874846" lon="-2.058387877167284"><ele>77.6</ele><time>2026-04-05T10:09:56Z</time></trkpt><trkpt lat="48.56144127394088" lon="-2.0583916715658805"><ele>77.19999999999999</ele><time>2026-04-05T10:09:58Z</time></trkpt><trkpt lat="48.56153626797009" lon="-2.058396927885674"><ele>76.8</ele><time>2026-04-05T10:10:00Z</time></trkpt><trkpt lat="48.56163789825441" lon="-2.058396559866889"><ele>76.39999999999999</ele><time>2026-04-05T10:10:02Z</time></trkpt><trkpt lat="48.5617374313596" lon="-2.0583932807603325"><ele>76.0</ele><time>2026-04-05T10:10:04Z</time></trkpt><trkpt lat="48.5618509932284" lon="-2.0584070381273634"><ele>76.0</ele><time>2026-04-05T10:10:06Z</time></trkpt><trkpt lat="48.561962718122615" lon="-2.058422662333211"><ele>76.0</ele><time>2026-04-05T10:10:08Z</time></trkpt><trkpt lat="48.562079805583" lon="-2.0584291078204666"><ele>76.0</ele><time>2026-04-05T10:10:10Z</time></trkpt><trkpt lat="48.562205144441" lon="-2.058439423152431"><ele>76.0</ele><time>2026-04-05T10:10:12Z</time></trkpt><trkpt lat="48.56227363182845" lon="-2.058445934940544"><ele>76.0</ele><time>2026-04-05T10:10:13Z</time></trkpt><trkpt lat="48.56239668690365" lon="-2.058456559632371"><ele>76.39999999999999</ele><time>2026-04-05T10:10:15Z</time></trkpt><trkpt lat="48.56246181996931" lon="-2.058456009194039"><ele>76.8</ele><time>2026-04-05T10:10:16Z</time></trkpt><trkpt lat="48.56258475915107" lon="-2.058467991993992"><ele>77.19999999999999</ele><time>2026-04-05T10:10:18Z</time></trkpt><trkpt lat="48.56270772855495" lon="-2.0584772763404056"><ele>77.6</ele><time>2026-04-05T10:10:20Z</time></trkpt><trkpt lat="48.56277379206852" lon="-2.058477493886453"><ele>78.0</ele><time>2026-04-05T10:10:21Z</time></trkpt><trkpt lat="48.56289866035884" lon="-2.0584838735846605"><ele>78.0</ele><time>2026-04-05T10:10:23Z</time></trkpt><trkpt lat="48.562966578318736" lon="-2.058506423432643"><ele>78.0</ele><time>2026-04-05T10:10:24Z</time></trkpt><trkpt lat="48.56308302872078" lon="-2.0585378771601444"><ele>78.0</ele><time>2026-04-05T10:10:26Z</time></trkpt><trkpt lat="48.56314846244388" lon="-2.0585166987433143"><ele>78.0</ele><time>2026-04-05T10:10:27Z</time></trkpt><trkpt lat="48.5632142183369" lon="-2.0585130949717736"><ele>78.0</ele><time>2026-04-05T10:10:28Z</time></trkpt><trkpt lat="48.56328333339159" lon="-2.058523358443171"><ele>78.0</ele><time>2026-04-05T10:10:29Z</time></trkpt><trkpt lat="48.56340702656052" lon="-2.058520105135398"><ele>78.0</ele><time>2026-04-05T10:10:31Z</time></trkpt><trkpt lat="48.56352155377718" lon="-2.0585540675359457"><ele>78.0</ele><time>2026-04-05T10:10:33Z</time></trkpt><trkpt lat="48.56359160821868" lon="-2.058548514740246"><ele>78.0</ele><time>2026-04-05T10:10:34Z</time></trkpt><trkpt lat="48.5637217170417" lon="-2.0585533514653527"><ele>78.0</ele><time>2026-04-05T10:10:36Z</time></trkpt><trkpt lat="48.56379321045083" lon="-2.0585580148857257"><ele>78.0</ele><time>2026-04-05T10:10:37Z</time></trkpt><trkpt lat="48.563857122772255" lon="-2.058574844649436"><ele>77.8</ele><time>2026-04-05T10:10:38Z</time></trkpt><trkpt lat="48.56392568178103" lon="-2.0585774992886883"><ele>77.6</ele><time>2026-04-05T10:10:39Z</time></trkpt><trkpt lat="48.5639901267027" lon="-2.0585821367582597"><ele>77.4</ele><time>2026-04-05T10:10:40Z</time></trkpt><trkpt lat="48.56412288575308" lon="-2.0585820987775607"><ele>77.2</ele><time>2026-04-05T10:10:42Z</time></trkpt><trkpt lat="48.56420535648273" lon="-2.0585976734571876"><ele>77.0</ele><time>2026-04-05T10:10:43Z</time></trkpt><trkpt lat="48.564306154211685" lon="-2.058608651064433"><ele>77.0</ele><time>2026-04-05T10:10:45Z</time></trkpt><trkpt lat="48.56438712889287" lon="-2.058623473487526"><ele>77.0</ele><time>2026-04-05T10:10:46Z</time></trkpt><trkpt lat="48.56445257859367" lon="-2.058622461855352"><ele>77.0</ele><time>2026-04-05T10:10:47Z</time></trkpt><trkpt lat="48.56451548648385" lon="-2.058585085175079"><ele>77.0</ele><time>2026-04-05T10:10:48Z</time></trkpt><trkpt lat="48.564635190822926" lon="-2.0586127207010074"><ele>77.0</ele><time>2026-04-05T10:10:50Z</time></trkpt><trkpt lat="48.564744600459356" lon="-2.0586286526946944"><ele>77.0</ele><time>2026-04-05T10:10:52Z</time></trkpt><trkpt lat="48.56480823033145" lon="-2.0586589360233787"><ele>77.2</ele><time>2026-04-05T10:10:53Z</time></trkpt><trkpt lat="48.56487258926186" lon="-2.058639053452096"><ele>77.4</ele><time>2026-04-05T10:10:54Z</time></trkpt><trkpt lat="48.56501290605469" lon="-2.058643562991395"><ele>77.6</ele><time>2026-04-05T10:10:56Z</time></trkpt><trkpt lat="48.56512272289318" lon="-2.0586608363021934"><ele>77.8</ele><time>2026-04-05T10:10:58Z</time></trkpt><trkpt lat="48.56524634264859" lon="-2.0586453605106296"><ele>78.0</ele><time>2026-04-05T10:10:59.999Z</time></trkpt><trkpt lat="48.56535436440882" lon="-2.0586442518888997"><ele>78.25</ele><time>2026-04-05T10:11:01.999Z</time></trkpt><trkpt lat="48.56553638614357" lon="-2.0587086875328287"><ele>78.5</ele><time>2026-04-05T10:11:06.999Z</time></trkpt><trkpt lat="48.56572580332929" lon="-2.05870307493905"><ele>78.75</ele><time>2026-04-05T10:11:10.999Z</time></trkpt><trkpt lat="48.56578973036084" lon="-2.058689967772392"><ele>79.0</ele><time>2026-04-05T10:11:11.999Z</time></trkpt><trkpt lat="48.56586750761256" lon="-2.0586841114288688"><ele>79.0</ele><time>2026-04-05T10:11:12.999Z</time></trkpt><trkpt lat="48.56594075607348" lon="-2.0586676181008436"><ele>79.0</ele><time>2026-04-05T10:11:13.999Z</time></trkpt><trkpt lat="48.56600965641383" lon="-2.0586627741198558"><ele>79.0</ele><time>2026-04-05T10:11:14.999Z</time></trkpt><trkpt lat="48.56608111969097" lon="-2.0586772401488664"><ele>79.0</ele><time>2026-04-05T10:11:15.999Z</time></trkpt><trkpt lat="48.56624678805859" lon="-2.0587049517193834"><ele>79.0</ele><time>2026-04-05T10:11:16.999Z</time></trkpt><trkpt lat="48.56636503735117" lon="-2.058682933260391"><ele>79.0</ele><time>2026-04-05T10:11:19.024Z</time></trkpt><trkpt lat="48.56650570877694" lon="-2.0587262604404786"><ele>79.0</ele><time>2026-04-05T10:11:20.999Z</time></trkpt><trkpt lat="48.56661467547144" lon="-2.0587370902965167"><ele>79.0</ele><time>2026-04-05T10:11:22.999Z</time></trkpt><trkpt lat="48.566683970652726" lon="-2.0587416190769896"><ele>79.0</ele><time>2026-04-05T10:11:24.999Z</time></trkpt><trkpt lat="48.56675568513413" lon="-2.0587703778153172"><ele>79.0</ele><time>2026-04-05T10:11:26.999Z</time></trkpt><trkpt lat="48.56683551292759" lon="-2.058749652362281"><ele>79.0</ele><time>2026-04-05T10:11:27.999Z</time></trkpt><trkpt lat="48.56694066447787" lon="-2.058808525968979"><ele>79.0</ele><time>2026-04-05T10:11:29.999Z</time></trkpt><trkpt lat="48.56700237472526" lon="-2.058775819162221"><ele>79.0</ele><time>2026-04-05T10:11:30.999Z</time></trkpt><trkpt lat="48.56711818174298" lon="-2.0587745370790715"><ele>79.0</ele><time>2026-04-05T10:11:33Z</time></trkpt><trkpt lat="48.567238225048655" lon="-2.058797436022356"><ele>79.0</ele><time>2026-04-05T10:11:35Z</time></trkpt><trkpt lat="48.5673527803814" lon="-2.058785065487194"><ele>79.0</ele><time>2026-04-05T10:11:37Z</time></trkpt><trkpt lat="48.567419188854146" lon="-2.058771913043996"><ele>79.0</ele><time>2026-04-05T10:11:38Z</time></trkpt><trkpt lat="48.567484649209305" lon="-2.058779649037698"><ele>79.0</ele><time>2026-04-05T10:11:39Z</time></trkpt><trkpt lat="48.567549157262405" lon="-2.058788785141613"><ele>79.0</ele><time>2026-04-05T10:11:40Z</time></trkpt><trkpt lat="48.56761810417016" lon="-2.0588214964406815"><ele>79.0</ele><time>2026-04-05T10:11:41Z</time></trkpt><trkpt lat="48.567732453141005" lon="-2.058817429714533"><ele>79.0</ele><time>2026-04-05T10:11:43Z</time></trkpt><trkpt lat="48.5678619578148" lon="-2.0588177927742266"><ele>79.00000000000001</ele><time>2026-04-05T10:11:45Z</time></trkpt><trkpt lat="48.567928794461736" lon="-2.058821742670379"><ele>79.0</ele><time>2026-04-05T10:11:46Z</time></trkpt><trkpt lat="48.568003945943865" lon="-2.058825373171131"><ele>79.0</ele><time>2026-04-05T10:11:47Z</time></trkpt><trkpt lat="48.568067830295426" lon="-2.0588360837974937"><ele>79.0</ele><time>2026-04-05T10:11:48Z</time></trkpt><trkpt lat="48.56814098145943" lon="-2.058822820695278"><ele>79.0</ele><time>2026-04-05T10:11:49Z</time></trkpt><trkpt lat="48.568207444222594" lon="-2.05882692841494"><ele>79.00000000000001</ele><time>2026-04-05T10:11:50Z</time></trkpt><trkpt lat="48.568272045387765" lon="-2.058830272900555"><ele>79.0</ele><time>2026-04-05T10:11:51Z</time></trkpt><trkpt lat="48.568340141108216" lon="-2.058832001016759"><ele>79.0</ele><time>2026-04-05T10:11:52Z</time></trkpt><trkpt lat="48.568476262250826" lon="-2.0588415052578513"><ele>79.0</ele><time>2026-04-05T10:11:54Z</time></trkpt><trkpt lat="48.56853923714701" lon="-2.058840306078563"><ele>79.0</ele><time>2026-04-05T10:11:55Z</time></trkpt><trkpt lat="48.56864897792586" lon="-2.058817808616362"><ele>79.0</ele><time>2026-04-05T10:11:57Z</time></trkpt><trkpt lat="48.56872908218267" lon="-2.0588362288487603"><ele>79.0</ele><time>2026-04-05T10:11:58Z</time></trkpt><trkpt lat="48.56879877690215" lon="-2.05884471713303"><ele>78.66666666666666</ele><time>2026-04-05T10:11:59Z</time></trkpt><trkpt lat="48.56886758235036" lon="-2.0588526630422113"><ele>78.33333333333333</ele><time>2026-04-05T10:12:00Z</time></trkpt><trkpt lat="48.56893136134327" lon="-2.058852767715957"><ele>78.0</ele><time>2026-04-05T10:12:01Z</time></trkpt><trkpt lat="48.56899562798448" lon="-2.0588630793008993"><ele>77.66666666666667</ele><time>2026-04-05T10:12:02Z</time></trkpt><trkpt lat="48.56912056833642" lon="-2.058860300446964"><ele>77.33333333333334</ele><time>2026-04-05T10:12:04Z</time></trkpt><trkpt lat="48.56918704666759" lon="-2.0588682453402023"><ele>77.0</ele><time>2026-04-05T10:12:05Z</time></trkpt><trkpt lat="48.56931135970426" lon="-2.0588810123162067"><ele>77.0</ele><time>2026-04-05T10:12:07Z</time></trkpt><trkpt lat="48.56938387097155" lon="-2.0588749612800803"><ele>77.0</ele><time>2026-04-05T10:12:08Z</time></trkpt><trkpt lat="48.56950369187324" lon="-2.058900673134309"><ele>77.0</ele><time>2026-04-05T10:12:10Z</time></trkpt><trkpt lat="48.56962556936166" lon="-2.0589014791538682"><ele>77.0</ele><time>2026-04-05T10:12:12Z</time></trkpt><trkpt lat="48.56974925896056" lon="-2.0589223146063422"><ele>77.0</ele><time>2026-04-05T10:12:14Z</time></trkpt><trkpt lat="48.5698184720274" lon="-2.058920782026536"><ele>77.83333333333334</ele><time>2026-04-05T10:12:15Z</time></trkpt><trkpt lat="48.56988508479903" lon="-2.0589253669334906"><ele>78.66666666666667</ele><time>2026-04-05T10:12:16Z</time></trkpt><trkpt lat="48.57001213395201" lon="-2.0589331095830556"><ele>79.5</ele><time>2026-04-05T10:12:18Z</time></trkpt><trkpt lat="48.570070150045574" lon="-2.0589895855900315"><ele>80.33333333333333</ele><time>2026-04-05T10:12:19Z</time></trkpt><trkpt lat="48.570149667217144" lon="-2.0589701373122296"><ele>81.16666666666666</ele><time>2026-04-05T10:12:20Z</time></trkpt><trkpt lat="48.570212570169026" lon="-2.058961545969676"><ele>82.0</ele><time>2026-04-05T10:12:21Z</time></trkpt><trkpt lat="48.570318654535875" lon="-2.0589834642062557"><ele>81.39999999999999</ele><time>2026-04-05T10:12:23Z</time></trkpt><trkpt lat="48.57042973209024" lon="-2.0589922778903524"><ele>80.8</ele><time>2026-04-05T10:12:25Z</time></trkpt><trkpt lat="48.57053117271694" lon="-2.0590136504389784"><ele>80.2</ele><time>2026-04-05T10:12:27Z</time></trkpt><trkpt lat="48.57060699497897" lon="-2.0590268267201046"><ele>79.6</ele><time>2026-04-05T10:12:28Z</time></trkpt><trkpt lat="48.5706716408323" lon="-2.059040251666087"><ele>79.0</ele><time>2026-04-05T10:12:29Z</time></trkpt><trkpt lat="48.57077765619533" lon="-2.059043441682526"><ele>79.0</ele><time>2026-04-05T10:12:31Z</time></trkpt><trkpt lat="48.570840139594935" lon="-2.0590554654103186"><ele>79.0</ele><time>2026-04-05T10:12:32Z</time></trkpt><trkpt lat="48.570928293886496" lon="-2.0590573072900105"><ele>79.0</ele><time>2026-04-05T10:12:34Z</time></trkpt><trkpt lat="48.57104054023262" lon="-2.0590860023077258"><ele>79.0</ele><time>2026-04-05T10:12:37Z</time></trkpt><trkpt lat="48.57109589742302" lon="-2.0593666432441537"><ele>77.5</ele><time>2026-04-05T10:12:39Z</time></trkpt><trkpt lat="48.57118117543792" lon="-2.0594323104169936"><ele>76.0</ele><time>2026-04-05T10:12:41Z</time></trkpt><trkpt lat="48.571547972220394" lon="-2.059171990101943"><ele>75.33333333333333</ele><time>2026-04-05T10:12:44Z</time></trkpt><trkpt lat="48.57131622209077" lon="-2.0594648486369596"><ele>74.66666666666667</ele><time>2026-04-05T10:12:47Z</time></trkpt><trkpt lat="48.571354486766765" lon="-2.0595908894759396"><ele>74.0</ele><time>2026-04-05T10:12:50Z</time></trkpt><trkpt lat="48.571429892928684" lon="-2.0595655181575254"><ele>74.0</ele><time>2026-04-05T10:12:52Z</time></trkpt><trkpt lat="48.571507976574196" lon="-2.059519301683189"><ele>74.0</ele><time>2026-04-05T10:12:54Z</time></trkpt><trkpt lat="48.571583700541034" lon="-2.059457017072321"><ele>74.0</ele><time>2026-04-05T10:12:56Z</time></trkpt><trkpt lat="48.57167132965577" lon="-2.0594014922643185"><ele>74.0</ele><time>2026-04-05T10:12:58Z</time></trkpt><trkpt lat="48.57176558669639" lon="-2.0593331277795763"><ele>74.0</ele><time>2026-04-05T10:13:00Z</time></trkpt><trkpt lat="48.57186921262343" lon="-2.059309631381738"><ele>74.0</ele><time>2026-04-05T10:13:02Z</time></trkpt><trkpt lat="48.5719719575588" lon="-2.0593814477176493"><ele>74.0</ele><time>2026-04-05T10:13:04Z</time></trkpt><trkpt lat="48.572083369420966" lon="-2.0594354359130165"><ele>74.0</ele><time>2026-04-05T10:13:06Z</time></trkpt><trkpt lat="48.5722013059387" lon="-2.0594855159927774"><ele>74.0</ele><time>2026-04-05T10:13:08Z</time></trkpt><trkpt lat="48.57226294335305" lon="-2.0595133918120783"><ele>74.0</ele><time>2026-04-05T10:13:09Z</time></trkpt><trkpt lat="48.572379911881306" lon="-2.059570263653956"><ele>74.0</ele><time>2026-04-05T10:13:11Z</time></trkpt><trkpt lat="48.57250045994471" lon="-2.059613265079301"><ele>74.0</ele><time>2026-04-05T10:13:12.999Z</time></trkpt><trkpt lat="48.57261851756098" lon="-2.059664204913157"><ele>74.0</ele><time>2026-04-05T10:13:14.999Z</time></trkpt><trkpt lat="48.57268090358721" lon="-2.059704284872828"><ele>74.0</ele><time>2026-04-05T10:13:15.999Z</time></trkpt><trkpt lat="48.57279465942779" lon="-2.0597584702583407"><ele>74.0</ele><time>2026-04-05T10:13:17.999Z</time></trkpt><trkpt lat="48.57291012192749" lon="-2.0598219096840302"><ele>74.0</ele><time>2026-04-05T10:13:19.999Z</time></trkpt><trkpt lat="48.57297026712435" lon="-2.059856379582075"><ele>74.0</ele><time>2026-04-05T10:13:20.999Z</time></trkpt><trkpt lat="48.573089116036996" lon="-2.0599184161653006"><ele>74.0</ele><time>2026-04-05T10:13:22.999Z</time></trkpt><trkpt lat="48.5731938875992" lon="-2.0599751058293823"><ele>74.0</ele><time>2026-04-05T10:13:24.999Z</time></trkpt><trkpt lat="48.57325526892663" lon="-2.060010270772342"><ele>74.0</ele><time>2026-04-05T10:13:25.999Z</time></trkpt><trkpt lat="48.57336529385306" lon="-2.0600636936103074"><ele>74.0</ele><time>2026-04-05T10:13:27.999Z</time></trkpt><trkpt lat="48.57347294865804" lon="-2.0601389553460745"><ele>74.0</ele><time>2026-04-05T10:13:29.999Z</time></trkpt><trkpt lat="48.5735827024813" lon="-2.0602063633569867"><ele>74.0</ele><time>2026-04-05T10:13:31.999Z</time></trkpt><trkpt lat="48.57364561082005" lon="-2.0602367552583534"><ele>74.0</ele><time>2026-04-05T10:13:32.999Z</time></trkpt><trkpt lat="48.573710256493634" lon="-2.0602666683903856"><ele>74.0</ele><time>2026-04-05T10:13:33.999Z</time></trkpt><trkpt lat="48.57382430936475" lon="-2.0603051322160617"><ele>74.0</ele><time>2026-04-05T10:13:35.999Z</time></trkpt><trkpt lat="48.573885245898786" lon="-2.0603354966390124"><ele>74.0</ele><time>2026-04-05T10:13:36.999Z</time></trkpt><trkpt lat="48.57398512205735" lon="-2.0604131535608423"><ele>74.0</ele><time>2026-04-05T10:13:39Z</time></trkpt><trkpt lat="48.574107535769365" lon="-2.060480125363838"><ele>74.0</ele><time>2026-04-05T10:13:41Z</time></trkpt><trkpt lat="48.574172994203124" lon="-2.060512114966583"><ele>74.0</ele><time>2026-04-05T10:13:42Z</time></trkpt><trkpt lat="48.57424155846879" lon="-2.0605490207084642"><ele>74.0</ele><time>2026-04-05T10:13:43Z</time></trkpt><trkpt lat="48.574304265608276" lon="-2.0605844024293747"><ele>74.0</ele><time>2026-04-05T10:13:44Z</time></trkpt><trkpt lat="48.574364357932396" lon="-2.060620565422114"><ele>74.0</ele><time>2026-04-05T10:13:45Z</time></trkpt><trkpt lat="48.57448084866165" lon="-2.0606882420759325"><ele>74.0</ele><time>2026-04-05T10:13:47Z</time></trkpt><trkpt lat="48.574546612764685" lon="-2.0607158068777482"><ele>74.0</ele><time>2026-04-05T10:13:48Z</time></trkpt><trkpt lat="48.57460486918731" lon="-2.0607537735767774"><ele>74.0</ele><time>2026-04-05T10:13:49Z</time></trkpt><trkpt lat="48.57466450420978" lon="-2.0607891758916805"><ele>74.0</ele><time>2026-04-05T10:13:50Z</time></trkpt><trkpt lat="48.574778074041156" lon="-2.0608452043268843"><ele>74.0</ele><time>2026-04-05T10:13:52Z</time></trkpt><trkpt lat="48.57483933096283" lon="-2.060885798133251"><ele>74.0</ele><time>2026-04-05T10:13:53Z</time></trkpt><trkpt lat="48.574946719511544" lon="-2.0609412390460338"><ele>74.0</ele><time>2026-04-05T10:13:55Z</time></trkpt><trkpt lat="48.575045869885415" lon="-2.0609954381531637"><ele>74.0</ele><time>2026-04-05T10:13:57Z</time></trkpt><trkpt lat="48.57514595649776" lon="-2.0610521033981595"><ele>74.0</ele><time>2026-04-05T10:13:59Z</time></trkpt><trkpt lat="48.57524298499649" lon="-2.061102431539128"><ele>74.0</ele><time>2026-04-05T10:14:01Z</time></trkpt><trkpt lat="48.5753352929783" lon="-2.0611551405331188"><ele>74.0</ele><time>2026-04-05T10:14:03Z</time></trkpt><trkpt lat="48.5754242782381" lon="-2.0612107478884316"><ele>74.0</ele><time>2026-04-05T10:14:05Z</time></trkpt><trkpt lat="48.575503730035535" lon="-2.0612578291302692"><ele>74.0</ele><time>2026-04-05T10:14:07Z</time></trkpt><trkpt lat="48.575579554816144" lon="-2.061311386276717"><ele>74.0</ele><time>2026-04-05T10:14:09Z</time></trkpt><trkpt lat="48.57565202087572" lon="-2.061366821777277"><ele>74.0</ele><time>2026-04-05T10:14:12Z</time></trkpt><trkpt lat="48.57574785749045" lon="-2.061428944942576"><ele>73.60000000000001</ele><time>2026-04-05T10:14:15Z</time></trkpt><trkpt lat="48.575836314841666" lon="-2.0614610502317072"><ele>73.2</ele><time>2026-04-05T10:14:17Z</time></trkpt><trkpt lat="48.57593289592442" lon="-2.0615171339475404"><ele>72.80000000000001</ele><time>2026-04-05T10:14:19Z</time></trkpt><trkpt lat="48.5760395470352" lon="-2.0615715441937623"><ele>72.4</ele><time>2026-04-05T10:14:21Z</time></trkpt><trkpt lat="48.576144085399044" lon="-2.061624289162536"><ele>72.0</ele><time>2026-04-05T10:14:23Z</time></trkpt><trkpt lat="48.576254167038066" lon="-2.061658800627772"><ele>71.4</ele><time>2026-04-05T10:14:25Z</time></trkpt><trkpt lat="48.576326795833786" lon="-2.061719324367335"><ele>70.80000000000001</ele><time>2026-04-05T10:14:26Z</time></trkpt><trkpt lat="48.57638703106002" lon="-2.0617536741092652"><ele>70.2</ele><time>2026-04-05T10:14:27Z</time></trkpt><trkpt lat="48.57650310400915" lon="-2.0618184543843316"><ele>69.60000000000001</ele><time>2026-04-05T10:14:29Z</time></trkpt><trkpt lat="48.57661455700501" lon="-2.061885734494145"><ele>69.0</ele><time>2026-04-05T10:14:31Z</time></trkpt><trkpt lat="48.57668020787679" lon="-2.0619241065036515"><ele>69.0</ele><time>2026-04-05T10:14:32Z</time></trkpt><trkpt lat="48.576747035042224" lon="-2.0619601019894533"><ele>69.0</ele><time>2026-04-05T10:14:33Z</time></trkpt><trkpt lat="48.576809622178324" lon="-2.0619872666332224"><ele>69.0</ele><time>2026-04-05T10:14:34Z</time></trkpt><trkpt lat="48.576920787312915" lon="-2.0620414715058515"><ele>69.0</ele><time>2026-04-05T10:14:36Z</time></trkpt><trkpt lat="48.57698241944385" lon="-2.0620868152329477"><ele>69.0</ele><time>2026-04-05T10:14:37Z</time></trkpt><trkpt lat="48.5771001250634" lon="-2.0621586320766063"><ele>69.0</ele><time>2026-04-05T10:14:39Z</time></trkpt><trkpt lat="48.57716369711793" lon="-2.0621911869075884"><ele>69.16666666666667</ele><time>2026-04-05T10:14:40Z</time></trkpt><trkpt lat="48.57722462369689" lon="-2.0622273596198877"><ele>69.33333333333333</ele><time>2026-04-05T10:14:41Z</time></trkpt><trkpt lat="48.577324971211745" lon="-2.062308076881683"><ele>69.5</ele><time>2026-04-05T10:14:43Z</time></trkpt><trkpt lat="48.57739484293845" lon="-2.062328650685966"><ele>69.66666666666666</ele><time>2026-04-05T10:14:44Z</time></trkpt><trkpt lat="48.5774547180707" lon="-2.062371984649825"><ele>69.83333333333333</ele><time>2026-04-05T10:14:45Z</time></trkpt><trkpt lat="48.57752207699743" lon="-2.062384471531088"><ele>70.0</ele><time>2026-04-05T10:14:46Z</time></trkpt><trkpt lat="48.57758335495563" lon="-2.06242306282515"><ele>70.0</ele><time>2026-04-05T10:14:47Z</time></trkpt><trkpt lat="48.57764320018309" lon="-2.0624530903509077"><ele>70.0</ele><time>2026-04-05T10:14:48Z</time></trkpt><trkpt lat="48.577682527044196" lon="-2.062618464572264"><ele>70.0</ele><time>2026-04-05T10:14:49Z</time></trkpt><trkpt lat="48.57780002193429" lon="-2.062676102386658"><ele>70.0</ele><time>2026-04-05T10:14:51Z</time></trkpt><trkpt lat="48.577861477763946" lon="-2.0627108683625828"><ele>70.0</ele><time>2026-04-05T10:14:52Z</time></trkpt><trkpt lat="48.57796924865847" lon="-2.0627718348504223"><ele>69.75</ele><time>2026-04-05T10:14:54Z</time></trkpt><trkpt lat="48.578087246068854" lon="-2.062838586390014"><ele>69.5</ele><time>2026-04-05T10:14:56Z</time></trkpt><trkpt lat="48.57820033605931" lon="-2.0629025620091004"><ele>69.25</ele><time>2026-04-05T10:14:58Z</time></trkpt><trkpt lat="48.57831016316027" lon="-2.062964691704026"><ele>69.0</ele><time>2026-04-05T10:15:00Z</time></trkpt><trkpt lat="48.57842635050303" lon="-2.0630304193992"><ele>69.0</ele><time>2026-04-05T10:15:02Z</time></trkpt><trkpt lat="48.578538692483576" lon="-2.0630939717293106"><ele>69.0</ele><time>2026-04-05T10:15:04Z</time></trkpt><trkpt lat="48.57863024126547" lon="-2.063157826732123"><ele>69.0</ele><time>2026-04-05T10:15:06Z</time></trkpt><trkpt lat="48.57871012485139" lon="-2.063236757174534"><ele>69.0</ele><time>2026-04-05T10:15:08Z</time></trkpt><trkpt lat="48.578780594631446" lon="-2.063319799698037"><ele>69.0</ele><time>2026-04-05T10:15:10Z</time></trkpt><trkpt lat="48.578863286437624" lon="-2.063412713925973"><ele>69.16666666666667</ele><time>2026-04-05T10:15:11.999Z</time></trkpt><trkpt lat="48.578937420000116" lon="-2.063485653337399"><ele>69.33333333333333</ele><time>2026-04-05T10:15:14.999Z</time></trkpt><trkpt lat="48.57899787711152" lon="-2.063519672213065"><ele>69.5</ele><time>2026-04-05T10:15:18.999Z</time></trkpt><trkpt lat="48.579038665551955" lon="-2.0636187217230586"><ele>69.66666666666666</ele><time>2026-04-05T10:15:19.999Z</time></trkpt><trkpt lat="48.57911647202782" lon="-2.063714357210591"><ele>69.83333333333333</ele><time>2026-04-05T10:15:22.999Z</time></trkpt><trkpt lat="48.579178664566044" lon="-2.0637908009044885"><ele>70.0</ele><time>2026-04-05T10:15:24.999Z</time></trkpt><trkpt lat="48.57948619741216" lon="-2.0634664169817154"><ele>70.2</ele><time>2026-04-05T10:15:26.999Z</time></trkpt><trkpt lat="48.579586310310376" lon="-2.0635074370387922"><ele>70.4</ele><time>2026-04-05T10:15:29.999Z</time></trkpt><trkpt lat="48.57965293902927" lon="-2.0635288299334085"><ele>70.6</ele><time>2026-04-05T10:15:32.999Z</time></trkpt><trkpt lat="48.579723715617924" lon="-2.0635877566194054"><ele>70.8</ele><time>2026-04-05T10:15:34.999Z</time></trkpt><trkpt lat="48.579775145087055" lon="-2.0636565116089534"><ele>71.0</ele><time>2026-04-05T10:15:36.999Z</time></trkpt><trkpt lat="48.58020139995044" lon="-2.0638708429925257"><ele>71.0</ele><time>2026-04-05T10:15:38.999Z</time></trkpt><trkpt lat="48.58025462424722" lon="-2.0639281194890784"><ele>71.0</ele><time>2026-04-05T10:15:39.999Z</time></trkpt><trkpt lat="48.58036162130628" lon="-2.063956857481669"><ele>71.0</ele><time>2026-04-05T10:15:41.999Z</time></trkpt><trkpt lat="48.580581373759465" lon="-2.0638305721701533"><ele>71.0</ele><time>2026-04-05T10:15:43.999Z</time></trkpt><trkpt lat="48.58063248080156" lon="-2.0639156881493554"><ele>71.0</ele><time>2026-04-05T10:15:46Z</time></trkpt><trkpt lat="48.580727656411206" lon="-2.0639905988347"><ele>71.0</ele><time>2026-04-05T10:15:48Z</time></trkpt><trkpt lat="48.58082308399324" lon="-2.0640606534606394"><ele>71.0</ele><time>2026-04-05T10:15:50Z</time></trkpt><trkpt lat="48.58092375155997" lon="-2.064124219905319"><ele>71.0</ele><time>2026-04-05T10:15:52Z</time></trkpt><trkpt lat="48.5810301981166" lon="-2.064191435014852"><ele>71.0</ele><time>2026-04-05T10:15:54Z</time></trkpt><trkpt lat="48.58109880946958" lon="-2.0643855380977585"><ele>70.6</ele><time>2026-04-05T10:15:56Z</time></trkpt><trkpt lat="48.5811939844133" lon="-2.064419563433972"><ele>70.19999999999999</ele><time>2026-04-05T10:15:58Z</time></trkpt><trkpt lat="48.581302448181084" lon="-2.0644727353827075"><ele>69.80000000000001</ele><time>2026-04-05T10:16:00Z</time></trkpt><trkpt lat="48.58140451958536" lon="-2.064536362775975"><ele>69.4</ele><time>2026-04-05T10:16:02Z</time></trkpt><trkpt lat="48.58150795999268" lon="-2.0646136683633385"><ele>69.0</ele><time>2026-04-05T10:16:04Z</time></trkpt><trkpt lat="48.58161897379356" lon="-2.0646642121822185"><ele>69.0</ele><time>2026-04-05T10:16:06Z</time></trkpt><trkpt lat="48.58173121489164" lon="-2.0647241845133655"><ele>69.0</ele><time>2026-04-05T10:16:08Z</time></trkpt><trkpt lat="48.58183171860741" lon="-2.064777237454498"><ele>69.0</ele><time>2026-04-05T10:16:10Z</time></trkpt><trkpt lat="48.581888711883416" lon="-2.0648225013166344"><ele>69.0</ele><time>2026-04-05T10:16:11Z</time></trkpt><trkpt lat="48.58194684136151" lon="-2.0648631479064323"><ele>69.0</ele><time>2026-04-05T10:16:12Z</time></trkpt><trkpt lat="48.582027385952216" lon="-2.065126179173526"><ele>68.8</ele><time>2026-04-05T10:16:14Z</time></trkpt><trkpt lat="48.582121195143614" lon="-2.0651655671461886"><ele>68.60000000000001</ele><time>2026-04-05T10:16:16Z</time></trkpt><trkpt lat="48.582201584808764" lon="-2.065237367388228"><ele>68.4</ele><time>2026-04-05T10:16:18Z</time></trkpt><trkpt lat="48.58229371174998" lon="-2.0653231118917494"><ele>68.2</ele><time>2026-04-05T10:16:20Z</time></trkpt><trkpt lat="48.58234845091475" lon="-2.0653740587661176"><ele>68.0</ele><time>2026-04-05T10:16:21Z</time></trkpt><trkpt lat="48.58257066266752" lon="-2.065212642065326"><ele>68.0</ele><time>2026-04-05T10:16:23Z</time></trkpt><trkpt lat="48.58268029717824" lon="-2.0652926078034652"><ele>68.0</ele><time>2026-04-05T10:16:25Z</time></trkpt><trkpt lat="48.582789344216685" lon="-2.065348256043968"><ele>68.0</ele><time>2026-04-05T10:16:27Z</time></trkpt><trkpt lat="48.58289625791548" lon="-2.0653829733979703"><ele>68.0</ele><time>2026-04-05T10:16:29Z</time></trkpt><trkpt lat="48.582999603946625" lon="-2.065458727648549"><ele>67.8</ele><time>2026-04-05T10:16:31Z</time></trkpt><trkpt lat="48.58311171153156" lon="-2.065517252255943"><ele>67.6</ele><time>2026-04-05T10:16:33Z</time></trkpt><trkpt lat="48.58322145707492" lon="-2.0655649345325457"><ele>67.4</ele><time>2026-04-05T10:16:35Z</time></trkpt><trkpt lat="48.58332843537881" lon="-2.065630579584754"><ele>67.2</ele><time>2026-04-05T10:16:37Z</time></trkpt><trkpt lat="48.583387438051844" lon="-2.0656695203041653"><ele>67.0</ele><time>2026-04-05T10:16:38Z</time></trkpt><trkpt lat="48.583453251434754" lon="-2.0656914182308306"><ele>67.0</ele><time>2026-04-05T10:16:39Z</time></trkpt><trkpt lat="48.583550064931465" lon="-2.0657317248442597"><ele>67.0</ele><time>2026-04-05T10:16:41Z</time></trkpt><trkpt lat="48.58361258996346" lon="-2.0657695355970067"><ele>67.0</ele><time>2026-04-05T10:16:42Z</time></trkpt><trkpt lat="48.58367580426644" lon="-2.0658131494969383"><ele>67.0</ele><time>2026-04-05T10:16:43Z</time></trkpt><trkpt lat="48.58377867765308" lon="-2.0658848860473418"><ele>67.0</ele><time>2026-04-05T10:16:45Z</time></trkpt><trkpt lat="48.58387522511573" lon="-2.06594179445601"><ele>67.33333333333333</ele><time>2026-04-05T10:16:47Z</time></trkpt><trkpt lat="48.58396388555795" lon="-2.065980915753624"><ele>67.66666666666666</ele><time>2026-04-05T10:16:49Z</time></trkpt><trkpt lat="48.58403764345625" lon="-2.0660339367297254"><ele>68.0</ele><time>2026-04-05T10:16:51Z</time></trkpt><trkpt lat="48.58412173370013" lon="-2.066078497352503"><ele>68.33333333333333</ele><time>2026-04-05T10:16:54Z</time></trkpt><trkpt lat="48.58420042552729" lon="-2.0661185693305675"><ele>68.66666666666667</ele><time>2026-04-05T10:16:56Z</time></trkpt><trkpt lat="48.584281143011346" lon="-2.066168601447964"><ele>69.0</ele><time>2026-04-05T10:16:58Z</time></trkpt><trkpt lat="48.58438141382237" lon="-2.066199758384867"><ele>69.0</ele><time>2026-04-05T10:17:00Z</time></trkpt><trkpt lat="48.584483696184265" lon="-2.0662633220182887"><ele>69.0</ele><time>2026-04-05T10:17:02Z</time></trkpt><trkpt lat="48.584589321418306" lon="-2.0663245284277583"><ele>69.0</ele><time>2026-04-05T10:17:04Z</time></trkpt><trkpt lat="48.584687178862474" lon="-2.0663861993255725"><ele>69.0</ele><time>2026-04-05T10:17:06Z</time></trkpt><trkpt lat="48.58479927229128" lon="-2.0664522169476056"><ele>68.60000000000001</ele><time>2026-04-05T10:17:07.999Z</time></trkpt><trkpt lat="48.58490847803053" lon="-2.0665275395714384"><ele>68.2</ele><time>2026-04-05T10:17:09.999Z</time></trkpt><trkpt lat="48.58496953611502" lon="-2.0665612538631155"><ele>67.80000000000001</ele><time>2026-04-05T10:17:10.999Z</time></trkpt><trkpt lat="48.585031495388534" lon="-2.0666055395728025"><ele>67.4</ele><time>2026-04-05T10:17:11.999Z</time></trkpt><trkpt lat="48.58510619446367" lon="-2.066665605410893"><ele>67.0</ele><time>2026-04-05T10:17:12.999Z</time></trkpt><trkpt lat="48.58521762794073" lon="-2.066704687481937"><ele>66.8</ele><time>2026-04-05T10:17:14.999Z</time></trkpt><trkpt lat="48.58532851507112" lon="-2.0667694981229796"><ele>66.6</ele><time>2026-04-05T10:17:16.999Z</time></trkpt><trkpt lat="48.58539447744828" lon="-2.066800632973606"><ele>66.39999999999999</ele><time>2026-04-05T10:17:17.999Z</time></trkpt><trkpt lat="48.58551415194172" lon="-2.066866948408014"><ele>66.2</ele><time>2026-04-05T10:17:19.999Z</time></trkpt><trkpt lat="48.58558560105054" lon="-2.06690712741987"><ele>66.0</ele><time>2026-04-05T10:17:20.999Z</time></trkpt><trkpt lat="48.58569656394465" lon="-2.066974682854718"><ele>65.83333333333333</ele><time>2026-04-05T10:17:22.999Z</time></trkpt><trkpt lat="48.58576131888005" lon="-2.0670130973569796"><ele>65.66666666666667</ele><time>2026-04-05T10:17:23.999Z</time></trkpt><trkpt lat="48.58582243893856" lon="-2.0670383362637708"><ele>65.5</ele><time>2026-04-05T10:17:24.999Z</time></trkpt><trkpt lat="48.58588489554084" lon="-2.067077422930156"><ele>65.33333333333334</ele><time>2026-04-05T10:17:25.999Z</time></trkpt><trkpt lat="48.585951446624506" lon="-2.0671018083510058"><ele>65.16666666666667</ele><time>2026-04-05T10:17:26.999Z</time></trkpt><trkpt lat="48.58606490709315" lon="-2.0671734197720126"><ele>65.0</ele><time>2026-04-05T10:17:28.999Z</time></trkpt><trkpt lat="48.58612452247671" lon="-2.0672066782479783"><ele>65.33333333333334</ele><time>2026-04-05T10:17:29.999Z</time></trkpt><trkpt lat="48.586194005445435" lon="-2.067250466072038"><ele>65.66666666666667</ele><time>2026-04-05T10:17:30.999Z</time></trkpt><trkpt lat="48.58626167712693" lon="-2.0672905995425306"><ele>66.0</ele><time>2026-04-05T10:17:31.999Z</time></trkpt><trkpt lat="48.586326701187346" lon="-2.0673277464110646"><ele>66.33333333333333</ele><time>2026-04-05T10:17:32.999Z</time></trkpt><trkpt lat="48.586395893233124" lon="-2.067353434650573"><ele>66.66666666666666</ele><time>2026-04-05T10:17:33.999Z</time></trkpt><trkpt lat="48.586456784915924" lon="-2.067387953884116"><ele>67.0</ele><time>2026-04-05T10:17:34.999Z</time></trkpt><trkpt lat="48.58657754439674" lon="-2.067453897979221"><ele>67.0</ele><time>2026-04-05T10:17:36.999Z</time></trkpt><trkpt lat="48.586652494705575" lon="-2.067456457415942"><ele>67.0</ele><time>2026-04-05T10:17:37.999Z</time></trkpt><trkpt lat="48.58675160969728" lon="-2.067519303357136"><ele>67.0</ele><time>2026-04-05T10:17:39.999Z</time></trkpt><trkpt lat="48.586814835270985" lon="-2.067563108878089"><ele>67.0</ele><time>2026-04-05T10:17:40.999Z</time></trkpt><trkpt lat="48.58688026171525" lon="-2.0676101104459046"><ele>67.0</ele><time>2026-04-05T10:17:41.999Z</time></trkpt><trkpt lat="48.58698973425231" lon="-2.06765185897697"><ele>67.0</ele><time>2026-04-05T10:17:43.999Z</time></trkpt><trkpt lat="48.587062832578354" lon="-2.0677101090621193"><ele>66.66666666666666</ele><time>2026-04-05T10:17:44.999Z</time></trkpt><trkpt lat="48.58713003597709" lon="-2.067767411748161"><ele>66.33333333333333</ele><time>2026-04-05T10:17:45.999Z</time></trkpt><trkpt lat="48.58719399257663" lon="-2.0677933838708475"><ele>66.0</ele><time>2026-04-05T10:17:46.999Z</time></trkpt><trkpt lat="48.58725754102811" lon="-2.067831461632804"><ele>65.66666666666667</ele><time>2026-04-05T10:17:47.999Z</time></trkpt><trkpt lat="48.5873176292975" lon="-2.067873412054841"><ele>65.33333333333334</ele><time>2026-04-05T10:17:48.999Z</time></trkpt><trkpt lat="48.587431726968795" lon="-2.0679292140713668"><ele>65.0</ele><time>2026-04-05T10:17:51Z</time></trkpt><trkpt lat="48.58754144514452" lon="-2.0679986350103152"><ele>65.0</ele><time>2026-04-05T10:17:53Z</time></trkpt><trkpt lat="48.58766148375279" lon="-2.068061717673904"><ele>65.0</ele><time>2026-04-05T10:17:55Z</time></trkpt><trkpt lat="48.58772297689118" lon="-2.068094761091811"><ele>65.0</ele><time>2026-04-05T10:17:56Z</time></trkpt><trkpt lat="48.587786586309825" lon="-2.068139033841271"><ele>65.0</ele><time>2026-04-05T10:17:57Z</time></trkpt><trkpt lat="48.587904877540794" lon="-2.0681986771367873"><ele>65.0</ele><time>2026-04-05T10:17:59Z</time></trkpt><trkpt lat="48.587965461764966" lon="-2.068240444957441"><ele>64.85714285714286</ele><time>2026-04-05T10:18:00Z</time></trkpt><trkpt lat="48.58802876553836" lon="-2.0682788178741403"><ele>64.71428571428572</ele><time>2026-04-05T10:18:01Z</time></trkpt><trkpt lat="48.58809427754305" lon="-2.0683043585392906"><ele>64.57142857142857</ele><time>2026-04-05T10:18:02Z</time></trkpt><trkpt lat="48.588158241023955" lon="-2.0683464659405626"><ele>64.42857142857143</ele><time>2026-04-05T10:18:03Z</time></trkpt><trkpt lat="48.588221993945005" lon="-2.068380959242661"><ele>64.28571428571428</ele><time>2026-04-05T10:18:04Z</time></trkpt><trkpt lat="48.58828334566412" lon="-2.0684048724269144"><ele>64.14285714285714</ele><time>2026-04-05T10:18:05Z</time></trkpt><trkpt lat="48.5883474210681" lon="-2.06844182174836"><ele>64.0</ele><time>2026-04-05T10:18:06Z</time></trkpt><trkpt lat="48.588468949922806" lon="-2.06851482932845"><ele>63.99999999999999</ele><time>2026-04-05T10:18:08Z</time></trkpt><trkpt lat="48.58858240329449" lon="-2.0685862981564447"><ele>64.0</ele><time>2026-04-05T10:18:10Z</time></trkpt><trkpt lat="48.58864290685731" lon="-2.0686218471802196"><ele>64.0</ele><time>2026-04-05T10:18:11Z</time></trkpt><trkpt lat="48.588714921502394" lon="-2.068635272416026"><ele>64.0</ele><time>2026-04-05T10:18:12Z</time></trkpt><trkpt lat="48.58878657465" lon="-2.068625867289467"><ele>63.99999999999999</ele><time>2026-04-05T10:18:13Z</time></trkpt><trkpt lat="48.58885483883336" lon="-2.068605762977346"><ele>64.0</ele><time>2026-04-05T10:18:14Z</time></trkpt><trkpt lat="48.5889217372196" lon="-2.068595257768903"><ele>63.400000000000006</ele><time>2026-04-05T10:18:15Z</time></trkpt><trkpt lat="48.588993393284504" lon="-2.068597600654437"><ele>62.800000000000004</ele><time>2026-04-05T10:18:16Z</time></trkpt><trkpt lat="48.58906551188788" lon="-2.068585650621788"><ele>62.199999999999996</ele><time>2026-04-05T10:18:17Z</time></trkpt><trkpt lat="48.58913119735805" lon="-2.068579518240077"><ele>61.599999999999994</ele><time>2026-04-05T10:18:18Z</time></trkpt><trkpt lat="48.589197446910205" lon="-2.0685643645911336"><ele>61.0</ele><time>2026-04-05T10:18:19Z</time></trkpt><trkpt lat="48.58927285509109" lon="-2.0688000679778282"><ele>61.0</ele><time>2026-04-05T10:18:20Z</time></trkpt><trkpt lat="48.589400391946604" lon="-2.068790293031332"><ele>60.99999999999999</ele><time>2026-04-05T10:18:22Z</time></trkpt><trkpt lat="48.589515766699606" lon="-2.0687815977344575"><ele>60.99999999999999</ele><time>2026-04-05T10:18:24Z</time></trkpt><trkpt lat="48.58962015283412" lon="-2.0687737306156126"><ele>61.0</ele><time>2026-04-05T10:18:26Z</time></trkpt><trkpt lat="48.58968429820964" lon="-2.06876889624362"><ele>61.0</ele><time>2026-04-05T10:18:27Z</time></trkpt><trkpt lat="48.58976154065576" lon="-2.068763074830376"><ele>60.99999999999999</ele><time>2026-04-05T10:18:29Z</time></trkpt><trkpt lat="48.5897623035528" lon="-2.068890612961534"><ele>61.0</ele><time>2026-04-05T10:18:35Z</time></trkpt><trkpt lat="48.58976887756194" lon="-2.0690376118367664"><ele>61.0</ele><time>2026-04-05T10:18:38Z</time></trkpt><trkpt lat="48.589782247730426" lon="-2.069168442225604"><ele>61.0</ele><time>2026-04-05T10:18:40Z</time></trkpt><trkpt lat="48.589855239447544" lon="-2.06924464179623"><ele>60.99999999999999</ele><time>2026-04-05T10:18:42Z</time></trkpt><trkpt lat="48.58992101257288" lon="-2.0692596828921044"><ele>61.0</ele><time>2026-04-05T10:18:43Z</time></trkpt><trkpt lat="48.59003444770345" lon="-2.0693192758479557"><ele>60.99999999999999</ele><time>2026-04-05T10:18:45Z</time></trkpt><trkpt lat="48.59010044990158" lon="-2.069380343305714"><ele>61.0</ele><time>2026-04-05T10:18:46Z</time></trkpt><trkpt lat="48.59016345385192" lon="-2.069428675135355"><ele>61.0</ele><time>2026-04-05T10:18:47Z</time></trkpt><trkpt lat="48.59023817110275" lon="-2.0694499430703703"><ele>61.0</ele><time>2026-04-05T10:18:48Z</time></trkpt><trkpt lat="48.59030507526411" lon="-2.0694962338311798"><ele>60.99999999999999</ele><time>2026-04-05T10:18:49Z</time></trkpt><trkpt lat="48.59037676719696" lon="-2.069534955129464"><ele>61.0</ele><time>2026-04-05T10:18:50Z</time></trkpt><trkpt lat="48.590444484127374" lon="-2.0695905268581236"><ele>60.49999999999999</ele><time>2026-04-05T10:18:51Z</time></trkpt><trkpt lat="48.59050900639285" lon="-2.0696418015634106"><ele>60.0</ele><time>2026-04-05T10:18:52Z</time></trkpt><trkpt lat="48.5905779923191" lon="-2.069688446664627"><ele>59.5</ele><time>2026-04-05T10:18:53Z</time></trkpt><trkpt lat="48.5906576797994" lon="-2.069730541573684"><ele>59.0</ele><time>2026-04-05T10:18:54Z</time></trkpt><trkpt lat="48.59072520667412" lon="-2.0697851095520066"><ele>58.49999999999999</ele><time>2026-04-05T10:18:55Z</time></trkpt><trkpt lat="48.59079844000056" lon="-2.0698213849511435"><ele>58.0</ele><time>2026-04-05T10:18:56Z</time></trkpt><trkpt lat="48.590873014343124" lon="-2.069888757119612"><ele>58.00000000000001</ele><time>2026-04-05T10:18:57Z</time></trkpt><trkpt lat="48.59094680562182" lon="-2.069920014025365"><ele>58.0</ele><time>2026-04-05T10:18:58Z</time></trkpt><trkpt lat="48.591009872508124" lon="-2.069919621274188"><ele>58.00000000000001</ele><time>2026-04-05T10:18:59Z</time></trkpt><trkpt lat="48.591077622952945" lon="-2.069959361839537"><ele>58.00000000000001</ele><time>2026-04-05T10:19:00Z</time></trkpt><trkpt lat="48.59114286594807" lon="-2.0700203664872063"><ele>58.0</ele><time>2026-04-05T10:19:01Z</time></trkpt><trkpt lat="48.591218191044625" lon="-2.0700528427138467"><ele>58.00000000000001</ele><time>2026-04-05T10:19:02Z</time></trkpt><trkpt lat="48.591293593770615" lon="-2.0700996549849697"><ele>58.00000000000001</ele><time>2026-04-05T10:19:03Z</time></trkpt><trkpt lat="48.591362469376115" lon="-2.0701547476763866"><ele>57.83333333333333</ele><time>2026-04-05T10:19:04Z</time></trkpt><trkpt lat="48.591425542377095" lon="-2.0701849556041148"><ele>57.666666666666664</ele><time>2026-04-05T10:19:05Z</time></trkpt><trkpt lat="48.591497840209506" lon="-2.070212416438747"><ele>57.5</ele><time>2026-04-05T10:19:06Z</time></trkpt><trkpt lat="48.59157033407257" lon="-2.0702426735177704"><ele>57.33333333333333</ele><time>2026-04-05T10:19:07Z</time></trkpt><trkpt lat="48.591640567949035" lon="-2.070279631055867"><ele>57.166666666666664</ele><time>2026-04-05T10:19:08Z</time></trkpt><trkpt lat="48.59171290618331" lon="-2.0703261964626916"><ele>57.0</ele><time>2026-04-05T10:19:09Z</time></trkpt><trkpt lat="48.59179417342767" lon="-2.070374534447818"><ele>57.0</ele><time>2026-04-05T10:19:10Z</time></trkpt><trkpt lat="48.59185737280947" lon="-2.0704059310754346"><ele>56.99999999999999</ele><time>2026-04-05T10:19:11Z</time></trkpt><trkpt lat="48.59192529176257" lon="-2.070436680612209"><ele>57.0</ele><time>2026-04-05T10:19:11.999Z</time></trkpt><trkpt lat="48.5920047776735" lon="-2.070473012583773"><ele>57.0</ele><time>2026-04-05T10:19:12.999Z</time></trkpt><trkpt lat="48.59207108199323" lon="-2.0705276672471546"><ele>56.99999999999999</ele><time>2026-04-05T10:19:13.999Z</time></trkpt><trkpt lat="48.59213432269582" lon="-2.070575554351453"><ele>57.0</ele><time>2026-04-05T10:19:14.999Z</time></trkpt><trkpt lat="48.59220806917312" lon="-2.0706163464603726"><ele>57.0</ele><time>2026-04-05T10:19:15.999Z</time></trkpt><trkpt lat="48.59227998074632" lon="-2.070659288844562"><ele>57.0</ele><time>2026-04-05T10:19:16.999Z</time></trkpt><trkpt lat="48.592344389263694" lon="-2.070699572693402"><ele>56.99999999999999</ele><time>2026-04-05T10:19:17.999Z</time></trkpt><trkpt lat="48.59241331737966" lon="-2.0707412888826986"><ele>57.0</ele><time>2026-04-05T10:19:18.999Z</time></trkpt><trkpt lat="48.592481551800695" lon="-2.0707710201918776"><ele>57.0</ele><time>2026-04-05T10:19:19.999Z</time></trkpt><trkpt lat="48.59254887651632" lon="-2.070814978778056"><ele>56.99999999999999</ele><time>2026-04-05T10:19:20.999Z</time></trkpt><trkpt lat="48.592624616156655" lon="-2.0708566953796756"><ele>57.0</ele><time>2026-04-05T10:19:21.999Z</time></trkpt><trkpt lat="48.59269353402991" lon="-2.0709169933800444"><ele>57.0</ele><time>2026-04-05T10:19:22.999Z</time></trkpt><trkpt lat="48.59276235139847" lon="-2.0709359800039233"><ele>57.0</ele><time>2026-04-05T10:19:23.999Z</time></trkpt><trkpt lat="48.59283030210118" lon="-2.0709669432158595"><ele>56.99999999999999</ele><time>2026-04-05T10:19:24.999Z</time></trkpt><trkpt lat="48.59290433512482" lon="-2.0710119009991517"><ele>57.0</ele><time>2026-04-05T10:19:25.999Z</time></trkpt><trkpt lat="48.592965935362756" lon="-2.071038727941377"><ele>57.0</ele><time>2026-04-05T10:19:26.999Z</time></trkpt><trkpt lat="48.593030212606664" lon="-2.071073676222205"><ele>56.99999999999999</ele><time>2026-04-05T10:19:27.999Z</time></trkpt><trkpt lat="48.59309876638192" lon="-2.0711260843039025"><ele>57.0</ele><time>2026-04-05T10:19:28.999Z</time></trkpt><trkpt lat="48.593165225762576" lon="-2.0711578857175725"><ele>57.0</ele><time>2026-04-05T10:19:29.999Z</time></trkpt><trkpt lat="48.59323092171381" lon="-2.07120218808946"><ele>56.71428571428571</ele><time>2026-04-05T10:19:30.999Z</time></trkpt><trkpt lat="48.593304644135934" lon="-2.0712354918053557"><ele>56.42857142857142</ele><time>2026-04-05T10:19:31.999Z</time></trkpt><trkpt lat="48.59336968183492" lon="-2.071282957409824"><ele>56.14285714285714</ele><time>2026-04-05T10:19:32.999Z</time></trkpt><trkpt lat="48.59343548685296" lon="-2.0713187268091664"><ele>55.857142857142854</ele><time>2026-04-05T10:19:33.999Z</time></trkpt><trkpt lat="48.59350568579792" lon="-2.0713556535602446"><ele>55.57142857142857</ele><time>2026-04-05T10:19:34.999Z</time></trkpt><trkpt lat="48.59357478758148" lon="-2.071387615380657"><ele>55.28571428571428</ele><time>2026-04-05T10:19:35.999Z</time></trkpt><trkpt lat="48.59364266769331" lon="-2.0714159332108113"><ele>55.0</ele><time>2026-04-05T10:19:36.999Z</time></trkpt><trkpt lat="48.593708031293886" lon="-2.071441430707269"><ele>54.857142857142854</ele><time>2026-04-05T10:19:37.999Z</time></trkpt><trkpt lat="48.593778173589435" lon="-2.0714444000519068"><ele>54.714285714285715</ele><time>2026-04-05T10:19:38.999Z</time></trkpt><trkpt lat="48.59384465061123" lon="-2.0714938904377056"><ele>54.57142857142857</ele><time>2026-04-05T10:19:39.999Z</time></trkpt><trkpt lat="48.59391235134568" lon="-2.071551074619497"><ele>54.42857142857143</ele><time>2026-04-05T10:19:40.999Z</time></trkpt><trkpt lat="48.59397719732707" lon="-2.0716020750812887"><ele>54.285714285714285</ele><time>2026-04-05T10:19:41.999Z</time></trkpt><trkpt lat="48.594048194259834" lon="-2.0716318210999227"><ele>54.14285714285714</ele><time>2026-04-05T10:19:42.999Z</time></trkpt><trkpt lat="48.594119607593456" lon="-2.071663768992891"><ele>54.0</ele><time>2026-04-05T10:19:43.999Z</time></trkpt><trkpt lat="48.59419326840307" lon="-2.0717035071521424"><ele>54.0</ele><time>2026-04-05T10:19:44.999Z</time></trkpt><trkpt lat="48.59432267817358" lon="-2.071751412113571"><ele>54.00000000000001</ele><time>2026-04-05T10:19:46.999Z</time></trkpt><trkpt lat="48.59439323358378" lon="-2.0718036755897216"><ele>54.00000000000001</ele><time>2026-04-05T10:19:47.999Z</time></trkpt><trkpt lat="48.5944533194831" lon="-2.0718401702695757"><ele>54.0</ele><time>2026-04-05T10:19:48.999Z</time></trkpt><trkpt lat="48.594574153630006" lon="-2.0718829970284225"><ele>54.0</ele><time>2026-04-05T10:19:50.999Z</time></trkpt><trkpt lat="48.594695851535405" lon="-2.0719259943218935"><ele>53.400000000000006</ele><time>2026-04-05T10:19:52.999Z</time></trkpt><trkpt lat="48.59482462430911" lon="-2.071980437079904"><ele>52.800000000000004</ele><time>2026-04-05T10:19:54.999Z</time></trkpt><trkpt lat="48.59494385575524" lon="-2.072013544712326"><ele>52.2</ele><time>2026-04-05T10:19:57Z</time></trkpt><trkpt lat="48.59503733436751" lon="-2.072011274763988"><ele>51.599999999999994</ele><time>2026-04-05T10:19:59Z</time></trkpt><trkpt lat="48.59513193311631" lon="-2.072047712099246"><ele>51.0</ele><time>2026-04-05T10:20:01Z</time></trkpt><trkpt lat="48.595239500607946" lon="-2.0720395983749205"><ele>51.0</ele><time>2026-04-05T10:20:05Z</time></trkpt><trkpt lat="48.59530533852862" lon="-2.072062681509014"><ele>51.0</ele><time>2026-04-05T10:20:12Z</time></trkpt><trkpt lat="48.59536917307156" lon="-2.0720602077243293"><ele>51.0</ele><time>2026-04-05T10:20:14Z</time></trkpt><trkpt lat="48.595452264369364" lon="-2.0720825594790884"><ele>51.0</ele><time>2026-04-05T10:20:16Z</time></trkpt><trkpt lat="48.59554998825243" lon="-2.072113425774324"><ele>51.0</ele><time>2026-04-05T10:20:18Z</time></trkpt><trkpt lat="48.59566395014263" lon="-2.0721245176973864"><ele>51.0</ele><time>2026-04-05T10:20:20Z</time></trkpt><trkpt lat="48.595782275299015" lon="-2.072125608069415"><ele>50.5</ele><time>2026-04-05T10:20:22Z</time></trkpt><trkpt lat="48.595901124930045" lon="-2.0721147650572513"><ele>50.0</ele><time>2026-04-05T10:20:24Z</time></trkpt><trkpt lat="48.59597667729911" lon="-2.07211528635358"><ele>49.5</ele><time>2026-04-05T10:20:25Z</time></trkpt><trkpt lat="48.5960452362121" lon="-2.072088387671287"><ele>49.0</ele><time>2026-04-05T10:20:26Z</time></trkpt><trkpt lat="48.59611574251543" lon="-2.072088155029734"><ele>48.5</ele><time>2026-04-05T10:20:27Z</time></trkpt><trkpt lat="48.596190084663" lon="-2.0720683391757446"><ele>48.0</ele><time>2026-04-05T10:20:28Z</time></trkpt><trkpt lat="48.596269497883995" lon="-2.0720793439975163"><ele>48.0</ele><time>2026-04-05T10:20:29Z</time></trkpt><trkpt lat="48.596335950136165" lon="-2.07204452899503"><ele>48.0</ele><time>2026-04-05T10:20:30Z</time></trkpt><trkpt lat="48.596453074820225" lon="-2.0719936853329517"><ele>48.0</ele><time>2026-04-05T10:20:32Z</time></trkpt><trkpt lat="48.59651834546544" lon="-2.0719787140775914"><ele>48.0</ele><time>2026-04-05T10:20:33Z</time></trkpt><trkpt lat="48.59658658401966" lon="-2.0719582684170956"><ele>48.0</ele><time>2026-04-05T10:20:34Z</time></trkpt><trkpt lat="48.59665279705804" lon="-2.0719460496943096"><ele>48.0</ele><time>2026-04-05T10:20:35Z</time></trkpt><trkpt lat="48.59677468506883" lon="-2.0718878639549128"><ele>48.0</ele><time>2026-04-05T10:20:37Z</time></trkpt><trkpt lat="48.59683851762986" lon="-2.071841853824129"><ele>48.0</ele><time>2026-04-05T10:20:38Z</time></trkpt><trkpt lat="48.59690735415682" lon="-2.0718254906790903"><ele>48.0</ele><time>2026-04-05T10:20:39Z</time></trkpt><trkpt lat="48.59697214648204" lon="-2.0718064596752335"><ele>48.0</ele><time>2026-04-05T10:20:40Z</time></trkpt><trkpt lat="48.59709284330915" lon="-2.0717575980352145"><ele>48.0</ele><time>2026-04-05T10:20:42Z</time></trkpt><trkpt lat="48.59716756535844" lon="-2.0717457916650224"><ele>48.0</ele><time>2026-04-05T10:20:43Z</time></trkpt><trkpt lat="48.59723382806068" lon="-2.0717270799292864"><ele>48.2</ele><time>2026-04-05T10:20:44Z</time></trkpt><trkpt lat="48.59729467407791" lon="-2.07169620714991"><ele>48.4</ele><time>2026-04-05T10:20:45Z</time></trkpt><trkpt lat="48.59740581873637" lon="-2.0716431551250483"><ele>48.6</ele><time>2026-04-05T10:20:47Z</time></trkpt><trkpt lat="48.597531885136384" lon="-2.07159275605262"><ele>48.800000000000004</ele><time>2026-04-05T10:20:49Z</time></trkpt><trkpt lat="48.59760063885737" lon="-2.071573101872895"><ele>49.0</ele><time>2026-04-05T10:20:50Z</time></trkpt><trkpt lat="48.59771987481959" lon="-2.0715148025545242"><ele>49.0</ele><time>2026-04-05T10:20:52Z</time></trkpt><trkpt lat="48.59778369497033" lon="-2.0714825067660985"><ele>49.0</ele><time>2026-04-05T10:20:53Z</time></trkpt><trkpt lat="48.59790601289954" lon="-2.071439209196645"><ele>49.0</ele><time>2026-04-05T10:20:55Z</time></trkpt><trkpt lat="48.59803153799865" lon="-2.0713890013619936"><ele>49.0</ele><time>2026-04-05T10:20:57Z</time></trkpt><trkpt lat="48.59809523382775" lon="-2.071364104185413"><ele>49.0</ele><time>2026-04-05T10:20:58Z</time></trkpt><trkpt lat="48.598156983250206" lon="-2.0713418863878585"><ele>49.0</ele><time>2026-04-05T10:20:59Z</time></trkpt><trkpt lat="48.598280578429005" lon="-2.071291032531506"><ele>49.0</ele><time>2026-04-05T10:21:01Z</time></trkpt><trkpt lat="48.59839766394516" lon="-2.071246798280578"><ele>49.0</ele><time>2026-04-05T10:21:03Z</time></trkpt><trkpt lat="48.5985126064126" lon="-2.071193155916013"><ele>49.0</ele><time>2026-04-05T10:21:05Z</time></trkpt><trkpt lat="48.59863537393408" lon="-2.0711536064521523"><ele>49.0</ele><time>2026-04-05T10:21:07Z</time></trkpt><trkpt lat="48.598750185610974" lon="-2.071104345127164"><ele>49.0</ele><time>2026-04-05T10:21:09Z</time></trkpt><trkpt lat="48.59881463862795" lon="-2.0710818686489496"><ele>49.0</ele><time>2026-04-05T10:21:10Z</time></trkpt><trkpt lat="48.59893268431077" lon="-2.071031049085479"><ele>49.0</ele><time>2026-04-05T10:21:12Z</time></trkpt><trkpt lat="48.59895815269819" lon="-2.0706300212658775"><ele>49.0</ele><time>2026-04-05T10:21:13Z</time></trkpt><trkpt lat="48.59906993788922" lon="-2.0706040801795202"><ele>49.0</ele><time>2026-04-05T10:21:15Z</time></trkpt><trkpt lat="48.599169419982985" lon="-2.070575945195572"><ele>49.0</ele><time>2026-04-05T10:21:17Z</time></trkpt><trkpt lat="48.5992908099086" lon="-2.070536121039107"><ele>49.0</ele><time>2026-04-05T10:21:18.999Z</time></trkpt><trkpt lat="48.59935605682135" lon="-2.0705126309899744"><ele>49.0</ele><time>2026-04-05T10:21:19.999Z</time></trkpt><trkpt lat="48.59942157558317" lon="-2.0704890430731786"><ele>49.0</ele><time>2026-04-05T10:21:20.999Z</time></trkpt><trkpt lat="48.59948570297166" lon="-2.0704653683646077"><ele>49.0</ele><time>2026-04-05T10:21:21.999Z</time></trkpt><trkpt lat="48.599564288759716" lon="-2.0704353053589895"><ele>49.0</ele><time>2026-04-05T10:21:22.999Z</time></trkpt><trkpt lat="48.59962578292266" lon="-2.070411780759956"><ele>49.0</ele><time>2026-04-05T10:21:23.999Z</time></trkpt><trkpt lat="48.59974954439181" lon="-2.070364435756718"><ele>49.0</ele><time>2026-04-05T10:21:25.999Z</time></trkpt><trkpt lat="48.599868468146" lon="-2.0703189414295835"><ele>49.166666666666664</ele><time>2026-04-05T10:21:27.999Z</time></trkpt><trkpt lat="48.59993290100812" lon="-2.0702942926021564"><ele>49.33333333333333</ele><time>2026-04-05T10:21:28.999Z</time></trkpt><trkpt lat="48.60004156523566" lon="-2.0702527231192804"><ele>49.5</ele><time>2026-04-05T10:21:30.999Z</time></trkpt><trkpt lat="48.60015477078234" lon="-2.070210001577015"><ele>49.66666666666667</ele><time>2026-04-05T10:21:32.999Z</time></trkpt><trkpt lat="48.60021863034906" lon="-2.0701859487091623"><ele>49.833333333333336</ele><time>2026-04-05T10:21:33.999Z</time></trkpt><trkpt lat="48.60028872981379" lon="-2.0701595456143873"><ele>50.0</ele><time>2026-04-05T10:21:34.999Z</time></trkpt><trkpt lat="48.60035740513182" lon="-2.0701336789101203"><ele>50.2</ele><time>2026-04-05T10:21:35.999Z</time></trkpt><trkpt lat="48.600478869357126" lon="-2.0700879291400125"><ele>50.4</ele><time>2026-04-05T10:21:37.999Z</time></trkpt><trkpt lat="48.60054659383372" lon="-2.0700624205536977"><ele>50.599999999999994</ele><time>2026-04-05T10:21:38.999Z</time></trkpt><trkpt lat="48.60061159409569" lon="-2.0700379380674763"><ele>50.8</ele><time>2026-04-05T10:21:39.999Z</time></trkpt><trkpt lat="48.600736515223744" lon="-2.0699908862878114"><ele>51.0</ele><time>2026-04-05T10:21:41.999Z</time></trkpt><trkpt lat="48.600850794774324" lon="-2.069947842628727"><ele>50.599999999999994</ele><time>2026-04-05T10:21:43.999Z</time></trkpt><trkpt lat="48.60091349231299" lon="-2.069924227475075"><ele>50.2</ele><time>2026-04-05T10:21:44.999Z</time></trkpt><trkpt lat="48.601027762718935" lon="-2.0698811872933334"><ele>49.8</ele><time>2026-04-05T10:21:46.999Z</time></trkpt><trkpt lat="48.60113165399595" lon="-2.0698420564143065"><ele>49.400000000000006</ele><time>2026-04-05T10:21:48.999Z</time></trkpt><trkpt lat="48.60125128650896" lon="-2.069796996570639"><ele>49.0</ele><time>2026-04-05T10:21:50.999Z</time></trkpt><trkpt lat="48.601313589939124" lon="-2.0697735298366435"><ele>48.99999999999999</ele><time>2026-04-05T10:21:51.999Z</time></trkpt><trkpt lat="48.60143359228308" lon="-2.0697283307086294"><ele>49.0</ele><time>2026-04-05T10:21:53.999Z</time></trkpt><trkpt lat="48.601530108263034" lon="-2.06969162106011"><ele>49.0</ele><time>2026-04-05T10:21:55.999Z</time></trkpt><trkpt lat="48.60159146371656" lon="-2.069668219085045"><ele>49.0</ele><time>2026-04-05T10:21:58.999Z</time></trkpt><trkpt lat="48.60166547144189" lon="-2.069639991351996"><ele>48.99999999999999</ele><time>2026-04-05T10:22:00.999Z</time></trkpt><trkpt lat="48.60173410411632" lon="-2.0696138137321696"><ele>49.0</ele><time>2026-04-05T10:22:03Z</time></trkpt><trkpt lat="48.60181731914037" lon="-2.0695820741902713"><ele>49.0</ele><time>2026-04-05T10:22:05Z</time></trkpt><trkpt lat="48.60191682198772" lon="-2.069544119724063"><ele>49.0</ele><time>2026-04-05T10:22:07Z</time></trkpt><trkpt lat="48.60201539540536" lon="-2.0695065221676363"><ele>49.0</ele><time>2026-04-05T10:22:09Z</time></trkpt><trkpt lat="48.60209592733751" lon="-2.0694758060750735"><ele>49.0</ele><time>2026-04-05T10:22:11Z</time></trkpt><trkpt lat="48.6021734820676" lon="-2.0694462253790564"><ele>49.0</ele><time>2026-04-05T10:22:13Z</time></trkpt><trkpt lat="48.602256517807135" lon="-2.0694145542103626"><ele>49.25</ele><time>2026-04-05T10:22:15Z</time></trkpt><trkpt lat="48.60233525479256" lon="-2.0693845226122916"><ele>49.5</ele><time>2026-04-05T10:22:17Z</time></trkpt><trkpt lat="48.602426493235285" lon="-2.0693499599919427"><ele>49.75</ele><time>2026-04-05T10:22:19Z</time></trkpt><trkpt lat="48.602563997657235" lon="-2.0696963078354984"><ele>50.0</ele><time>2026-04-05T10:22:21Z</time></trkpt><trkpt lat="48.60263393192241" lon="-2.069667601595356"><ele>50.0</ele><time>2026-04-05T10:22:24Z</time></trkpt><trkpt lat="48.602698741078505" lon="-2.0696502655877556"><ele>50.0</ele><time>2026-04-05T10:22:25Z</time></trkpt><trkpt lat="48.60277810406798" lon="-2.069612955664024"><ele>50.0</ele><time>2026-04-05T10:22:26Z</time></trkpt><trkpt lat="48.60286870315445" lon="-2.0695768659395606"><ele>50.0</ele><time>2026-04-05T10:22:29Z</time></trkpt><trkpt lat="48.60289012160813" lon="-2.069174363573197"><ele>50.16666666666667</ele><time>2026-04-05T10:22:31Z</time></trkpt><trkpt lat="48.60297023141266" lon="-2.0691440225033757"><ele>50.333333333333336</ele><time>2026-04-05T10:22:33Z</time></trkpt><trkpt lat="48.603058372354425" lon="-2.0691106396860275"><ele>50.5</ele><time>2026-04-05T10:22:35Z</time></trkpt><trkpt lat="48.603134623637395" lon="-2.06908175994506"><ele>50.66666666666667</ele><time>2026-04-05T10:22:37Z</time></trkpt><trkpt lat="48.60320385007109" lon="-2.0690555408524367"><ele>50.833333333333336</ele><time>2026-04-05T10:22:39Z</time></trkpt><trkpt lat="48.60327503540593" lon="-2.069028579845199"><ele>51.0</ele><time>2026-04-05T10:22:41Z</time></trkpt><trkpt lat="48.6033498605984" lon="-2.0690002402919827"><ele>50.833333333333336</ele><time>2026-04-05T10:22:43Z</time></trkpt><trkpt lat="48.60341979187168" lon="-2.0689737541873208"><ele>50.66666666666667</ele><time>2026-04-05T10:22:45Z</time></trkpt><trkpt lat="48.603492826616296" lon="-2.0689460927409633"><ele>50.5</ele><time>2026-04-05T10:22:47Z</time></trkpt><trkpt lat="48.603571828533546" lon="-2.068916171261041"><ele>50.333333333333336</ele><time>2026-04-05T10:22:49Z</time></trkpt><trkpt lat="48.60366181722322" lon="-2.0688820885880563"><ele>50.16666666666667</ele><time>2026-04-05T10:22:52Z</time></trkpt><trkpt lat="48.60375394458239" lon="-2.0688471958896124"><ele>50.0</ele><time>2026-04-05T10:22:55Z</time></trkpt><trkpt lat="48.6038612393489" lon="-2.0690898520777035"><ele>50.0</ele><time>2026-04-05T10:22:57Z</time></trkpt><trkpt lat="48.60417563760828" lon="-2.0690130991503644"><ele>50.0</ele><time>2026-04-05T10:22:59Z</time></trkpt><trkpt lat="48.6042226163048" lon="-2.0686673817750494"><ele>50.0</ele><time>2026-04-05T10:23:00Z</time></trkpt><trkpt lat="48.60492871474233" lon="-2.068404033057173"><ele>50.0</ele><time>2026-04-05T10:23:01Z</time></trkpt><trkpt lat="48.6050445244325" lon="-2.068359143452241"><ele>50.0</ele><time>2026-04-05T10:23:03Z</time></trkpt><trkpt lat="48.60516658575681" lon="-2.068311902094452"><ele>50.0</ele><time>2026-04-05T10:23:05Z</time></trkpt><trkpt lat="48.60527923188206" lon="-2.0682683046239076"><ele>50.0</ele><time>2026-04-05T10:23:07Z</time></trkpt><trkpt lat="48.6053942812992" lon="-2.068223777204399"><ele>50.0</ele><time>2026-04-05T10:23:09Z</time></trkpt><trkpt lat="48.605503380113454" lon="-2.0681815526809224"><ele>50.0</ele><time>2026-04-05T10:23:11Z</time></trkpt><trkpt lat="48.605583478309626" lon="-2.0681505523881865"><ele>50.0</ele><time>2026-04-05T10:23:13Z</time></trkpt><trkpt lat="48.605654996479096" lon="-2.0681248908403074"><ele>50.0</ele><time>2026-04-05T10:23:17Z</time></trkpt><trkpt lat="48.60568233839285" lon="-2.0683585843097774"><ele>50.0</ele><time>2026-04-05T10:23:18Z</time></trkpt><trkpt lat="48.605581530935" lon="-2.068035323519437"><ele>50.00000000000001</ele><time>2026-04-05T10:23:23Z</time></trkpt><trkpt lat="48.60554799141091" lon="-2.0679474974318364"><ele>50.0</ele><time>2026-04-05T10:23:24Z</time></trkpt><trkpt lat="48.60557062292661" lon="-2.067834087331758"><ele>50.0</ele><time>2026-04-05T10:23:25Z</time></trkpt><trkpt lat="48.60562098297515" lon="-2.067772174698479"><ele>50.0</ele><time>2026-04-05T10:23:26Z</time></trkpt><trkpt lat="48.60570981201875" lon="-2.067650346798041"><ele>50.00000000000001</ele><time>2026-04-05T10:23:28Z</time></trkpt><trkpt lat="48.605768332400906" lon="-2.0675025954849278"><ele>50.0</ele><time>2026-04-05T10:23:29.999Z</time></trkpt><trkpt lat="48.60579816814811" lon="-2.0673191589573277"><ele>49.833333333333336</ele><time>2026-04-05T10:23:31.999Z</time></trkpt><trkpt lat="48.60582864873098" lon="-2.067225456840811"><ele>49.66666666666667</ele><time>2026-04-05T10:23:32.999Z</time></trkpt><trkpt lat="48.60586787579463" lon="-2.0671371495404465"><ele>49.5</ele><time>2026-04-05T10:23:33.999Z</time></trkpt><trkpt lat="48.60591039645919" lon="-2.067054409909175"><ele>49.33333333333333</ele><time>2026-04-05T10:23:34.999Z</time></trkpt><trkpt lat="48.605963095034525" lon="-2.066976716919693"><ele>49.166666666666664</ele><time>2026-04-05T10:23:35.999Z</time></trkpt><trkpt lat="48.606012907232305" lon="-2.0669073586657363"><ele>49.0</ele><time>2026-04-05T10:23:36.999Z</time></trkpt><trkpt lat="48.60610816384914" lon="-2.066780003941684"><ele>49.0</ele><time>2026-04-05T10:23:38.999Z</time></trkpt><trkpt lat="48.60616912985224" lon="-2.066725481484491"><ele>49.0</ele><time>2026-04-05T10:23:39.999Z</time></trkpt><trkpt lat="48.606230774177085" lon="-2.0666754400073977"><ele>49.0</ele><time>2026-04-05T10:23:40.999Z</time></trkpt><trkpt lat="48.606295687225895" lon="-2.0666336993578467"><ele>49.0</ele><time>2026-04-05T10:23:41.999Z</time></trkpt><trkpt lat="48.60635991754495" lon="-2.066596149436024"><ele>49.0</ele><time>2026-04-05T10:23:42.999Z</time></trkpt><trkpt lat="48.60642357416539" lon="-2.06656423550675"><ele>49.0</ele><time>2026-04-05T10:23:43.999Z</time></trkpt><trkpt lat="48.60649227662073" lon="-2.0665446501046896"><ele>49.0</ele><time>2026-04-05T10:23:44.999Z</time></trkpt><trkpt lat="48.60655939303352" lon="-2.0665342103105635"><ele>49.0</ele><time>2026-04-05T10:23:45.999Z</time></trkpt><trkpt lat="48.60662873582606" lon="-2.066521830456026"><ele>49.0</ele><time>2026-04-05T10:23:46.999Z</time></trkpt><trkpt lat="48.606695359163965" lon="-2.066504641353451"><ele>49.0</ele><time>2026-04-05T10:23:47.999Z</time></trkpt><trkpt lat="48.60675624616808" lon="-2.066465964509604"><ele>49.0</ele><time>2026-04-05T10:23:48.999Z</time></trkpt><trkpt lat="48.6068094558714" lon="-2.066396308218315"><ele>49.0</ele><time>2026-04-05T10:23:49.999Z</time></trkpt><trkpt lat="48.60686750368817" lon="-2.06633513861767"><ele>49.0</ele><time>2026-04-05T10:23:50.999Z</time></trkpt><trkpt lat="48.60692725579584" lon="-2.0662831507087356"><ele>49.0</ele><time>2026-04-05T10:23:51.999Z</time></trkpt><trkpt lat="48.6069931267396" lon="-2.066250387151058"><ele>48.99999999999999</ele><time>2026-04-05T10:23:52.999Z</time></trkpt><trkpt lat="48.60706192395894" lon="-2.0662360463522402"><ele>49.0</ele><time>2026-04-05T10:23:53.999Z</time></trkpt><trkpt lat="48.607127625513954" lon="-2.066218179794035"><ele>49.0</ele><time>2026-04-05T10:23:54.999Z</time></trkpt><trkpt lat="48.607240986708476" lon="-2.0661363858506197"><ele>49.0</ele><time>2026-04-05T10:23:56.999Z</time></trkpt><trkpt lat="48.60729182328453" lon="-2.0660789800847192"><ele>48.99999999999999</ele><time>2026-04-05T10:23:57.999Z</time></trkpt><trkpt lat="48.60733443141618" lon="-2.0660017277383362"><ele>49.0</ele><time>2026-04-05T10:23:58.999Z</time></trkpt><trkpt lat="48.607363768248234" lon="-2.0659054774829135"><ele>49.0</ele><time>2026-04-05T10:23:59.999Z</time></trkpt><trkpt lat="48.607392888359215" lon="-2.065814632734565"><ele>49.0</ele><time>2026-04-05T10:24:00.999Z</time></trkpt><trkpt lat="48.607417736392925" lon="-2.065722177858465"><ele>49.0</ele><time>2026-04-05T10:24:01.999Z</time></trkpt><trkpt lat="48.607444183515476" lon="-2.065627554784728"><ele>49.0</ele><time>2026-04-05T10:24:02.999Z</time></trkpt><trkpt lat="48.6074840521906" lon="-2.065544955407812"><ele>49.0</ele><time>2026-04-05T10:24:03.999Z</time></trkpt><trkpt lat="48.60753709539122" lon="-2.0654847479222536"><ele>49.0</ele><time>2026-04-05T10:24:04.999Z</time></trkpt><trkpt lat="48.60759523971932" lon="-2.0654385226164105"><ele>49.0</ele><time>2026-04-05T10:24:05.999Z</time></trkpt><trkpt lat="48.60766307842525" lon="-2.065410382493227"><ele>48.83333333333333</ele><time>2026-04-05T10:24:06.999Z</time></trkpt><trkpt lat="48.607729603460385" lon="-2.065405584181105"><ele>48.666666666666664</ele><time>2026-04-05T10:24:07.999Z</time></trkpt><trkpt lat="48.6077955170257" lon="-2.065400900442473"><ele>48.5</ele><time>2026-04-05T10:24:09Z</time></trkpt><trkpt lat="48.607913894593146" lon="-2.0653679203513913"><ele>48.33333333333333</ele><time>2026-04-05T10:24:11Z</time></trkpt><trkpt lat="48.607978032265606" lon="-2.0653550777447074"><ele>48.166666666666664</ele><time>2026-04-05T10:24:12Z</time></trkpt><trkpt lat="48.608090693067076" lon="-2.065291449164194"><ele>48.0</ele><time>2026-04-05T10:24:14Z</time></trkpt><trkpt lat="48.60818341472494" lon="-2.065207655913127"><ele>48.0</ele><time>2026-04-05T10:24:16Z</time></trkpt><trkpt lat="48.60826897140213" lon="-2.0651269904622445"><ele>48.0</ele><time>2026-04-05T10:24:18Z</time></trkpt><trkpt lat="48.60832936413301" lon="-2.0650552973163627"><ele>48.0</ele><time>2026-04-05T10:24:20Z</time></trkpt><trkpt lat="48.608393733723496" lon="-2.064978907474517"><ele>48.0</ele><time>2026-04-05T10:24:23Z</time></trkpt><trkpt lat="48.6084595795179" lon="-2.064949324201817"><ele>48.0</ele><time>2026-04-05T10:24:25Z</time></trkpt><trkpt lat="48.60852194461715" lon="-2.0649029407314323"><ele>48.0</ele><time>2026-04-05T10:24:27Z</time></trkpt><trkpt lat="48.608593781579685" lon="-2.0648764471473715"><ele>47.8</ele><time>2026-04-05T10:24:29Z</time></trkpt><trkpt lat="48.60866878028605" lon="-2.0648753915692093"><ele>47.599999999999994</ele><time>2026-04-05T10:24:31Z</time></trkpt><trkpt lat="48.608728098706145" lon="-2.064921790214421"><ele>47.400000000000006</ele><time>2026-04-05T10:24:33Z</time></trkpt><trkpt lat="48.608834020908795" lon="-2.0649327103464845"><ele>47.2</ele><time>2026-04-05T10:24:37Z</time></trkpt><trkpt lat="48.60896429576735" lon="-2.064879844084156"><ele>47.0</ele><time>2026-04-05T10:24:40Z</time></trkpt><trkpt lat="48.60906341790783" lon="-2.0648326356154234"><ele>47.0</ele><time>2026-04-05T10:24:42Z</time></trkpt><trkpt lat="48.609149383909475" lon="-2.0647956568064134"><ele>47.0</ele><time>2026-04-05T10:24:44Z</time></trkpt><trkpt lat="48.60925872916591" lon="-2.0647968774745435"><ele>47.0</ele><time>2026-04-05T10:24:46Z</time></trkpt><trkpt lat="48.6093743885696" lon="-2.064793406027469"><ele>47.0</ele><time>2026-04-05T10:24:48Z</time></trkpt><trkpt lat="48.609474735906105" lon="-2.064789714123575"><ele>47.0</ele><time>2026-04-05T10:24:50Z</time></trkpt><trkpt lat="48.609579621792356" lon="-2.0647544925944086"><ele>46.8</ele><time>2026-04-05T10:24:52Z</time></trkpt><trkpt lat="48.60967186105459" lon="-2.064734579351268"><ele>46.6</ele><time>2026-04-05T10:24:54Z</time></trkpt><trkpt lat="48.609782671954775" lon="-2.064708197611669"><ele>46.4</ele><time>2026-04-05T10:24:56Z</time></trkpt><trkpt lat="48.60988243438911" lon="-2.064685378185268"><ele>46.199999999999996</ele><time>2026-04-05T10:24:58Z</time></trkpt><trkpt lat="48.609980896319804" lon="-2.0646778956733267"><ele>46.0</ele><time>2026-04-05T10:25:00Z</time></trkpt><trkpt lat="48.61009095962387" lon="-2.0646443216920076"><ele>46.0</ele><time>2026-04-05T10:25:02Z</time></trkpt><trkpt lat="48.61018811780863" lon="-2.064581247722075"><ele>46.0</ele><time>2026-04-05T10:25:04Z</time></trkpt><trkpt lat="48.61029245764609" lon="-2.0645110851067545"><ele>46.0</ele><time>2026-04-05T10:25:06Z</time></trkpt><trkpt lat="48.610405923946075" lon="-2.064497276590932"><ele>46.0</ele><time>2026-04-05T10:25:08Z</time></trkpt><trkpt lat="48.61052050677359" lon="-2.0645140106957154"><ele>46.0</ele><time>2026-04-05T10:25:10Z</time></trkpt><trkpt lat="48.61063091139557" lon="-2.06450020620364"><ele>45.75</ele><time>2026-04-05T10:25:12Z</time></trkpt><trkpt lat="48.610729200180174" lon="-2.0644921842954864"><ele>45.5</ele><time>2026-04-05T10:25:14Z</time></trkpt><trkpt lat="48.61083158345648" lon="-2.064456815841247"><ele>45.25</ele><time>2026-04-05T10:25:16Z</time></trkpt><trkpt lat="48.61097091506605" lon="-2.064374322278645"><ele>45.0</ele><time>2026-04-05T10:25:19Z</time></trkpt><trkpt lat="48.611084416738926" lon="-2.0643402303566636"><ele>44.5</ele><time>2026-04-05T10:25:21Z</time></trkpt><trkpt lat="48.61119231276071" lon="-2.064326166378853"><ele>44.0</ele><time>2026-04-05T10:25:23Z</time></trkpt><trkpt lat="48.611298612866406" lon="-2.0643271398879466"><ele>43.5</ele><time>2026-04-05T10:25:25Z</time></trkpt><trkpt lat="48.61147559345994" lon="-2.0644880662673986"><ele>43.0</ele><time>2026-04-05T10:25:27Z</time></trkpt><trkpt lat="48.61159738637331" lon="-2.064377946321858"><ele>43.0</ele><time>2026-04-05T10:25:29Z</time></trkpt><trkpt lat="48.61168008477767" lon="-2.0642818134782543"><ele>43.0</ele><time>2026-04-05T10:25:31Z</time></trkpt><trkpt lat="48.6117407180274" lon="-2.0642429213629265"><ele>43.0</ele><time>2026-04-05T10:25:33Z</time></trkpt><trkpt lat="48.61187489267012" lon="-2.0644250087585982"><ele>43.0</ele><time>2026-04-05T10:25:35Z</time></trkpt><trkpt lat="48.61197685388503" lon="-2.06450424114215"><ele>44.0</ele><time>2026-04-05T10:25:36.999Z</time></trkpt><trkpt lat="48.61207812944022" lon="-2.0645794719286723"><ele>45.0</ele><time>2026-04-05T10:25:38.999Z</time></trkpt><trkpt lat="48.612174391717666" lon="-2.0646584310568383"><ele>46.0</ele><time>2026-04-05T10:25:40.999Z</time></trkpt><trkpt lat="48.612267034581755" lon="-2.0647402102495103"><ele>47.0</ele><time>2026-04-05T10:25:42.999Z</time></trkpt><trkpt lat="48.61235914590179" lon="-2.064825149632965"><ele>48.0</ele><time>2026-04-05T10:25:44.999Z</time></trkpt><trkpt lat="48.61240951747738" lon="-2.064927196526852"><ele>48.25</ele><time>2026-04-05T10:25:47.999Z</time></trkpt><trkpt lat="48.61248464384505" lon="-2.0651000993052286"><ele>48.5</ele><time>2026-04-05T10:25:50.999Z</time></trkpt><trkpt lat="48.61255631525478" lon="-2.0651874177708565"><ele>48.75</ele><time>2026-04-05T10:25:53.999Z</time></trkpt><trkpt lat="48.61264536491507" lon="-2.0652517439194202"><ele>49.0</ele><time>2026-04-05T10:25:56.999Z</time></trkpt><trkpt lat="48.61284338533408" lon="-2.0653995424036884"><ele>48.400000000000006</ele><time>2026-04-05T10:26:02.999Z</time></trkpt><trkpt lat="48.61295205975525" lon="-2.0654394901280657"><ele>47.8</ele><time>2026-04-05T10:26:03.999Z</time></trkpt><trkpt lat="48.613073361087075" lon="-2.0654582100476686"><ele>47.2</ele><time>2026-04-05T10:26:04.999Z</time></trkpt><trkpt lat="48.61315277787317" lon="-2.065456293954146"><ele>46.599999999999994</ele><time>2026-04-05T10:26:05.999Z</time></trkpt><trkpt lat="48.61325938309124" lon="-2.0654411365719945"><ele>46.0</ele><time>2026-04-05T10:26:07.999Z</time></trkpt><trkpt lat="48.613373852533606" lon="-2.0654245932853943"><ele>46.0</ele><time>2026-04-05T10:26:09.999Z</time></trkpt><trkpt lat="48.61345081603388" lon="-2.065428544609719"><ele>46.0</ele><time>2026-04-05T10:26:10.999Z</time></trkpt><trkpt lat="48.61354925126188" lon="-2.065388350661497"><ele>46.0</ele><time>2026-04-05T10:26:12.999Z</time></trkpt><trkpt lat="48.613632526800174" lon="-2.065382420898034"><ele>46.0</ele><time>2026-04-05T10:26:16Z</time></trkpt><trkpt lat="48.61371212660485" lon="-2.0653705755907277"><ele>46.0</ele><time>2026-04-05T10:26:19Z</time></trkpt><trkpt lat="48.613789264984774" lon="-2.065344287112846"><ele>46.0</ele><time>2026-04-05T10:26:21Z</time></trkpt><trkpt lat="48.613857336906186" lon="-2.0653037157623375"><ele>45.8</ele><time>2026-04-05T10:26:24Z</time></trkpt><trkpt lat="48.613922095031526" lon="-2.0652598253390795"><ele>45.599999999999994</ele><time>2026-04-05T10:26:26Z</time></trkpt><trkpt lat="48.614014160619284" lon="-2.065242804412274"><ele>45.4</ele><time>2026-04-05T10:26:27Z</time></trkpt><trkpt lat="48.614090243338424" lon="-2.0651839310915405"><ele>45.2</ele><time>2026-04-05T10:26:29Z</time></trkpt><trkpt lat="48.614178314819135" lon="-2.0651511772860207"><ele>45.0</ele><time>2026-04-05T10:26:33Z</time></trkpt><trkpt lat="48.61427956366893" lon="-2.0650460958630585"><ele>45.0</ele><time>2026-04-05T10:26:36Z</time></trkpt><trkpt lat="48.61478678408443" lon="-2.06497739342392"><ele>45.0</ele><time>2026-04-05T10:26:37Z</time></trkpt><trkpt lat="48.61485285282465" lon="-2.0649602838474017"><ele>45.0</ele><time>2026-04-05T10:26:38Z</time></trkpt><trkpt lat="48.61497936824015" lon="-2.0649021102639207"><ele>45.0</ele><time>2026-04-05T10:26:40Z</time></trkpt><trkpt lat="48.61509598621404" lon="-2.0648724122131834"><ele>45.0</ele><time>2026-04-05T10:26:42Z</time></trkpt><trkpt lat="48.61521498106905" lon="-2.064831835562256"><ele>45.0</ele><time>2026-04-05T10:26:44Z</time></trkpt><trkpt lat="48.615324523194" lon="-2.0647819437206607"><ele>44.8</ele><time>2026-04-05T10:26:46Z</time></trkpt><trkpt lat="48.615443559971354" lon="-2.0647344698355536"><ele>44.6</ele><time>2026-04-05T10:26:48Z</time></trkpt><trkpt lat="48.61550213800664" lon="-2.0646932011109884"><ele>44.400000000000006</ele><time>2026-04-05T10:26:49Z</time></trkpt><trkpt lat="48.61561695692746" lon="-2.064654133715323"><ele>44.2</ele><time>2026-04-05T10:26:51Z</time></trkpt><trkpt lat="48.61572845084928" lon="-2.064631536077719"><ele>44.0</ele><time>2026-04-05T10:26:53Z</time></trkpt><trkpt lat="48.615797593646576" lon="-2.0645921444647946"><ele>44.0</ele><time>2026-04-05T10:26:54Z</time></trkpt><trkpt lat="48.615861497399344" lon="-2.0645771467162186"><ele>44.0</ele><time>2026-04-05T10:26:55Z</time></trkpt><trkpt lat="48.615971857492724" lon="-2.064512166579268"><ele>44.0</ele><time>2026-04-05T10:26:57Z</time></trkpt><trkpt lat="48.61603331929722" lon="-2.0644883815814463"><ele>44.0</ele><time>2026-04-05T10:26:58Z</time></trkpt><trkpt lat="48.616101573766876" lon="-2.0644386640939554"><ele>44.0</ele><time>2026-04-05T10:26:59Z</time></trkpt><trkpt lat="48.616192302390836" lon="-2.064399613648937"><ele>44.0</ele><time>2026-04-05T10:27:01Z</time></trkpt><trkpt lat="48.61626434060648" lon="-2.064359179216564"><ele>44.2</ele><time>2026-04-05T10:27:02Z</time></trkpt><trkpt lat="48.616329020997426" lon="-2.0643361616684217"><ele>44.400000000000006</ele><time>2026-04-05T10:27:03Z</time></trkpt><trkpt lat="48.616445735176185" lon="-2.0642958988141205"><ele>44.6</ele><time>2026-04-05T10:27:05Z</time></trkpt><trkpt lat="48.61659035875868" lon="-2.0642382048493295"><ele>44.8</ele><time>2026-04-05T10:27:09Z</time></trkpt><trkpt lat="48.61665193691272" lon="-2.0641299563726876"><ele>45.0</ele><time>2026-04-05T10:27:11Z</time></trkpt><trkpt lat="48.616759574911086" lon="-2.0641048943798554"><ele>45.0</ele><time>2026-04-05T10:27:13Z</time></trkpt><trkpt lat="48.61686662752066" lon="-2.064094966369681"><ele>45.0</ele><time>2026-04-05T10:27:15Z</time></trkpt><trkpt lat="48.61695265716395" lon="-2.064060164457599"><ele>45.0</ele><time>2026-04-05T10:27:17Z</time></trkpt><trkpt lat="48.61702162096422" lon="-2.0640507737205223"><ele>45.0</ele><time>2026-04-05T10:27:18Z</time></trkpt><trkpt lat="48.617105627030135" lon="-2.063998547697671"><ele>45.0</ele><time>2026-04-05T10:27:20Z</time></trkpt><trkpt lat="48.61717959677079" lon="-2.0639970258747837"><ele>45.0</ele><time>2026-04-05T10:27:22Z</time></trkpt><trkpt lat="48.617275868928516" lon="-2.0639145299061967"><ele>45.0</ele><time>2026-04-05T10:27:26Z</time></trkpt><trkpt lat="48.61731943422011" lon="-2.063844098093948"><ele>45.0</ele><time>2026-04-05T10:27:28Z</time></trkpt><trkpt lat="48.617470646481095" lon="-2.063764028147797"><ele>45.0</ele><time>2026-04-05T10:27:32Z</time></trkpt><trkpt lat="48.61760650034101" lon="-2.0637161351902797"><ele>45.0</ele><time>2026-04-05T10:27:36Z</time></trkpt><trkpt lat="48.617677762461" lon="-2.0636761718042367"><ele>45.0</ele><time>2026-04-05T10:27:38Z</time></trkpt><trkpt lat="48.61788922693284" lon="-2.063657714953342"><ele>45.0</ele><time>2026-04-05T10:27:43.999Z</time></trkpt><trkpt lat="48.61795156294005" lon="-2.063635962507403"><ele>45.0</ele><time>2026-04-05T10:27:45.999Z</time></trkpt><trkpt lat="48.618029448987286" lon="-2.063567258862414"><ele>45.0</ele><time>2026-04-05T10:27:48.999Z</time></trkpt><trkpt lat="48.61813651791772" lon="-2.06352415429095"><ele>45.0</ele><time>2026-04-05T10:27:52.999Z</time></trkpt><trkpt lat="48.61821095760767" lon="-2.063449039414616"><ele>45.0</ele><time>2026-04-05T10:27:55.999Z</time></trkpt><trkpt lat="48.61826975923591" lon="-2.063365372279241"><ele>45.0</ele><time>2026-04-05T10:27:58.999Z</time></trkpt><trkpt lat="48.618352135052184" lon="-2.063347336745636"><ele>45.0</ele><time>2026-04-05T10:28:01.999Z</time></trkpt><trkpt lat="48.61851616005086" lon="-2.0632831684536557"><ele>45.0</ele><time>2026-04-05T10:28:03.999Z</time></trkpt><trkpt lat="48.6185968263099" lon="-2.063246111571582"><ele>45.0</ele><time>2026-04-05T10:28:04.999Z</time></trkpt><trkpt lat="48.61867160441167" lon="-2.063215062080123"><ele>45.0</ele><time>2026-04-05T10:28:05.999Z</time></trkpt><trkpt lat="48.61874298592897" lon="-2.0631938344120586"><ele>45.0</ele><time>2026-04-05T10:28:06.999Z</time></trkpt><trkpt lat="48.61882758833314" lon="-2.063164599461343"><ele>44.666666666666664</ele><time>2026-04-05T10:28:07.999Z</time></trkpt><trkpt lat="48.61890900511955" lon="-2.063139270212783"><ele>44.333333333333336</ele><time>2026-04-05T10:28:08.999Z</time></trkpt><trkpt lat="48.61899359597056" lon="-2.0631051186333678"><ele>44.0</ele><time>2026-04-05T10:28:09.999Z</time></trkpt><trkpt lat="48.61907422215469" lon="-2.063076249235269"><ele>43.66666666666667</ele><time>2026-04-05T10:28:10.999Z</time></trkpt><trkpt lat="48.61915262341195" lon="-2.0630439212171576"><ele>43.333333333333336</ele><time>2026-04-05T10:28:11.999Z</time></trkpt><trkpt lat="48.61922432698202" lon="-2.063009443611316"><ele>43.0</ele><time>2026-04-05T10:28:12.999Z</time></trkpt><trkpt lat="48.61931393926279" lon="-2.0629747131903855"><ele>43.0</ele><time>2026-04-05T10:28:13.999Z</time></trkpt><trkpt lat="48.61940308129131" lon="-2.062944714674292"><ele>43.0</ele><time>2026-04-05T10:28:14.999Z</time></trkpt><trkpt lat="48.61948929680024" lon="-2.0628954711731495"><ele>43.0</ele><time>2026-04-05T10:28:15.999Z</time></trkpt><trkpt lat="48.619563027622675" lon="-2.0628768685148806"><ele>43.0</ele><time>2026-04-05T10:28:16.999Z</time></trkpt><trkpt lat="48.61964278241798" lon="-2.0628469140629777"><ele>43.0</ele><time>2026-04-05T10:28:17.999Z</time></trkpt><trkpt lat="48.61972327933903" lon="-2.0628272436741035"><ele>43.0</ele><time>2026-04-05T10:28:18.999Z</time></trkpt><trkpt lat="48.619799916291356" lon="-2.062799024404882"><ele>42.8</ele><time>2026-04-05T10:28:19.999Z</time></trkpt><trkpt lat="48.61989752223426" lon="-2.062773483963787"><ele>42.599999999999994</ele><time>2026-04-05T10:28:21Z</time></trkpt><trkpt lat="48.619978589544715" lon="-2.0627425123584393"><ele>42.400000000000006</ele><time>2026-04-05T10:28:22Z</time></trkpt><trkpt lat="48.62006397389855" lon="-2.0627306511788737"><ele>42.2</ele><time>2026-04-05T10:28:23Z</time></trkpt><trkpt lat="48.62013476809667" lon="-2.0627158225199294"><ele>42.0</ele><time>2026-04-05T10:28:24Z</time></trkpt><trkpt lat="48.62023615145144" lon="-2.062650317594125"><ele>41.0</ele><time>2026-04-05T10:28:25Z</time></trkpt><trkpt lat="48.620605088420625" lon="-2.0626357039969876"><ele>40.0</ele><time>2026-04-05T10:28:28Z</time></trkpt><trkpt lat="48.6207354142183" lon="-2.06262020174178"><ele>40.0</ele><time>2026-04-05T10:28:29Z</time></trkpt><trkpt lat="48.62083362947305" lon="-2.062604227318156"><ele>40.0</ele><time>2026-04-05T10:28:30Z</time></trkpt><trkpt lat="48.62092115350551" lon="-2.0625932775485207"><ele>40.0</ele><time>2026-04-05T10:28:31Z</time></trkpt><trkpt lat="48.62102433147733" lon="-2.0625909901848205"><ele>40.0</ele><time>2026-04-05T10:28:32Z</time></trkpt><trkpt lat="48.62110235042164" lon="-2.06257248033728"><ele>40.0</ele><time>2026-04-05T10:28:33Z</time></trkpt><trkpt lat="48.62118742603408" lon="-2.0625430409048255"><ele>39.6</ele><time>2026-04-05T10:28:34Z</time></trkpt><trkpt lat="48.62128917510377" lon="-2.0625018020318278"><ele>39.2</ele><time>2026-04-05T10:28:35Z</time></trkpt><trkpt lat="48.621390595217356" lon="-2.0624679527577383"><ele>38.8</ele><time>2026-04-05T10:28:36Z</time></trkpt><trkpt lat="48.62148099561921" lon="-2.0624435809952573"><ele>38.4</ele><time>2026-04-05T10:28:37Z</time></trkpt><trkpt lat="48.62159687483436" lon="-2.062429968777363"><ele>38.0</ele><time>2026-04-05T10:28:38Z</time></trkpt><trkpt lat="48.621712683651204" lon="-2.0623886534666314"><ele>38.0</ele><time>2026-04-05T10:28:39Z</time></trkpt><trkpt lat="48.621793874951834" lon="-2.0623736156158192"><ele>38.0</ele><time>2026-04-05T10:28:40Z</time></trkpt><trkpt lat="48.621873415589356" lon="-2.062322975354766"><ele>38.0</ele><time>2026-04-05T10:28:41Z</time></trkpt><trkpt lat="48.62194195636792" lon="-2.0622927056339955"><ele>38.0</ele><time>2026-04-05T10:28:42Z</time></trkpt><trkpt lat="48.622053531947046" lon="-2.0622677360487494"><ele>38.0</ele><time>2026-04-05T10:28:43Z</time></trkpt><trkpt lat="48.62216719847487" lon="-2.0622540895723502"><ele>37.8</ele><time>2026-04-05T10:28:44Z</time></trkpt><trkpt lat="48.622252934348126" lon="-2.0622043630920355"><ele>37.599999999999994</ele><time>2026-04-05T10:28:45Z</time></trkpt><trkpt lat="48.622352732350514" lon="-2.0621244526048774"><ele>37.400000000000006</ele><time>2026-04-05T10:28:46Z</time></trkpt><trkpt lat="48.622460273636136" lon="-2.0620764982508653"><ele>37.2</ele><time>2026-04-05T10:28:47Z</time></trkpt><trkpt lat="48.62255467849582" lon="-2.0620385103494687"><ele>37.0</ele><time>2026-04-05T10:28:48Z</time></trkpt><trkpt lat="48.6226721176055" lon="-2.061981244090414"><ele>37.0</ele><time>2026-04-05T10:28:49Z</time></trkpt><trkpt lat="48.62273993067192" lon="-2.06195726871295"><ele>37.0</ele><time>2026-04-05T10:28:50Z</time></trkpt><trkpt lat="48.622809334677726" lon="-2.061928641008127"><ele>37.0</ele><time>2026-04-05T10:28:51Z</time></trkpt><trkpt lat="48.62289363403779" lon="-2.061888735399875"><ele>37.0</ele><time>2026-04-05T10:28:52Z</time></trkpt><trkpt lat="48.623003683384674" lon="-2.0618294776814396"><ele>37.0</ele><time>2026-04-05T10:28:53Z</time></trkpt><trkpt lat="48.623064072255936" lon="-2.061788434300363"><ele>37.0</ele><time>2026-04-05T10:28:54Z</time></trkpt><trkpt lat="48.623131749351394" lon="-2.061735112002186"><ele>36.4</ele><time>2026-04-05T10:28:56Z</time></trkpt><trkpt lat="48.62322497049887" lon="-2.0617272911317013"><ele>35.800000000000004</ele><time>2026-04-05T10:28:58Z</time></trkpt><trkpt lat="48.62330953327549" lon="-2.0617030692111964"><ele>35.2</ele><time>2026-04-05T10:29:00Z</time></trkpt><trkpt lat="48.62340897970609" lon="-2.0616740722618254"><ele>34.6</ele><time>2026-04-05T10:29:02Z</time></trkpt><trkpt lat="48.62350439599559" lon="-2.061635390865194"><ele>34.0</ele><time>2026-04-05T10:29:04Z</time></trkpt><trkpt lat="48.62357303602476" lon="-2.061606684348595"><ele>34.0</ele><time>2026-04-05T10:29:05Z</time></trkpt><trkpt lat="48.62364342595993" lon="-2.061590649512358"><ele>34.0</ele><time>2026-04-05T10:29:06Z</time></trkpt><trkpt lat="48.62375797282143" lon="-2.0615371259430737"><ele>34.0</ele><time>2026-04-05T10:29:08Z</time></trkpt><trkpt lat="48.6238182574953" lon="-2.0615092359618075"><ele>34.0</ele><time>2026-04-05T10:29:09Z</time></trkpt><trkpt lat="48.62392651978015" lon="-2.0614656919488814"><ele>34.0</ele><time>2026-04-05T10:29:11Z</time></trkpt><trkpt lat="48.623997914448225" lon="-2.0614367772490736"><ele>34.0</ele><time>2026-04-05T10:29:12Z</time></trkpt><trkpt lat="48.62406102530444" lon="-2.0614047753451405"><ele>33.5</ele><time>2026-04-05T10:29:13Z</time></trkpt><trkpt lat="48.62412943283313" lon="-2.061388205288197"><ele>33.0</ele><time>2026-04-05T10:29:14Z</time></trkpt><trkpt lat="48.624247672773976" lon="-2.061350312661086"><ele>32.5</ele><time>2026-04-05T10:29:16Z</time></trkpt><trkpt lat="48.624297011701586" lon="-2.060987714822825"><ele>32.0</ele><time>2026-04-05T10:29:17Z</time></trkpt><trkpt lat="48.624362016849666" lon="-2.060985668695494"><ele>32.0</ele><time>2026-04-05T10:29:18Z</time></trkpt><trkpt lat="48.624430595578374" lon="-2.060983473018814"><ele>32.0</ele><time>2026-04-05T10:29:19Z</time></trkpt><trkpt lat="48.62455674346544" lon="-2.0609794341780647"><ele>32.0</ele><time>2026-04-05T10:29:21Z</time></trkpt><trkpt lat="48.62467363092093" lon="-2.0609739906238933"><ele>32.0</ele><time>2026-04-05T10:29:23Z</time></trkpt><trkpt lat="48.624737623305904" lon="-2.060969500571926"><ele>32.0</ele><time>2026-04-05T10:29:24Z</time></trkpt><trkpt lat="48.6248548526321" lon="-2.060961275156586"><ele>31.8</ele><time>2026-04-05T10:29:26Z</time></trkpt><trkpt lat="48.62491832798049" lon="-2.060956821387955"><ele>31.6</ele><time>2026-04-05T10:29:27Z</time></trkpt><trkpt lat="48.62499215465681" lon="-2.0609527317238654"><ele>31.400000000000002</ele><time>2026-04-05T10:29:28Z</time></trkpt><trkpt lat="48.62510495420522" lon="-2.06095161404412"><ele>31.200000000000003</ele><time>2026-04-05T10:29:30Z</time></trkpt><trkpt lat="48.62519598723527" lon="-2.060927121224534"><ele>31.0</ele><time>2026-04-05T10:29:32Z</time></trkpt><trkpt lat="48.625319204661096" lon="-2.0608900628718962"><ele>31.0</ele><time>2026-04-05T10:29:34Z</time></trkpt><trkpt lat="48.62545177640602" lon="-2.0607592616423056"><ele>31.0</ele><time>2026-04-05T10:29:35Z</time></trkpt><trkpt lat="48.62553335732418" lon="-2.060772274320264"><ele>31.0</ele><time>2026-04-05T10:29:36Z</time></trkpt><trkpt lat="48.6256356162057" lon="-2.0607890533466184"><ele>31.0</ele><time>2026-04-05T10:29:38Z</time></trkpt><trkpt lat="48.625761906498916" lon="-2.0608047670360534"><ele>31.0</ele><time>2026-04-05T10:29:40Z</time></trkpt><trkpt lat="48.625884823119925" lon="-2.0608200610314102"><ele>31.0</ele><time>2026-04-05T10:29:42Z</time></trkpt><trkpt lat="48.625951707378256" lon="-2.060828383157237"><ele>31.0</ele><time>2026-04-05T10:29:42.999Z</time></trkpt><trkpt lat="48.62604271493843" lon="-2.0613276696833194"><ele>31.0</ele><time>2026-04-05T10:29:44.999Z</time></trkpt><trkpt lat="48.62614901575378" lon="-2.061381613397962"><ele>31.0</ele><time>2026-04-05T10:29:46.999Z</time></trkpt><trkpt lat="48.62621806647559" lon="-2.0613937444404153"><ele>31.0</ele><time>2026-04-05T10:29:47.999Z</time></trkpt><trkpt lat="48.62634241590158" lon="-2.061450439041217"><ele>31.0</ele><time>2026-04-05T10:29:49.999Z</time></trkpt><trkpt lat="48.626449115348976" lon="-2.06150593766301"><ele>31.0</ele><time>2026-04-05T10:29:51.999Z</time></trkpt><trkpt lat="48.62653696658242" lon="-2.0617732863771137"><ele>31.200000000000003</ele><time>2026-04-05T10:29:53.999Z</time></trkpt><trkpt lat="48.626625066540235" lon="-2.061810598736577"><ele>31.400000000000002</ele><time>2026-04-05T10:29:55.999Z</time></trkpt><trkpt lat="48.626714216690345" lon="-2.061869003631329"><ele>31.6</ele><time>2026-04-05T10:29:57.999Z</time></trkpt><trkpt lat="48.62680902491356" lon="-2.0619245717352745"><ele>31.8</ele><time>2026-04-05T10:29:59.999Z</time></trkpt><trkpt lat="48.62689604919949" lon="-2.061974587865692"><ele>32.0</ele><time>2026-04-05T10:30:01.999Z</time></trkpt><trkpt lat="48.62697631506875" lon="-2.062020838074652"><ele>31.6</ele><time>2026-04-05T10:30:03.999Z</time></trkpt><trkpt lat="48.62712959081721" lon="-2.0618276720589983"><ele>31.200000000000003</ele><time>2026-04-05T10:30:05.999Z</time></trkpt><trkpt lat="48.62720804068833" lon="-2.061871397328234"><ele>30.8</ele><time>2026-04-05T10:30:07.999Z</time></trkpt><trkpt lat="48.627284795345886" lon="-2.0618922869283742"><ele>30.4</ele><time>2026-04-05T10:30:09.999Z</time></trkpt><trkpt lat="48.62733578614261" lon="-2.0618097543634284"><ele>30.0</ele><time>2026-04-05T10:30:12.999Z</time></trkpt><trkpt lat="48.627365367730214" lon="-2.0616969708313553"><ele>30.0</ele><time>2026-04-05T10:30:15.999Z</time></trkpt><trkpt lat="48.62743205219155" lon="-2.0617471571118426"><ele>30.0</ele><time>2026-04-05T10:30:19.999Z</time></trkpt><trkpt lat="48.62749824864277" lon="-2.061731073956487"><ele>30.0</ele><time>2026-04-05T10:30:23.999Z</time></trkpt><trkpt lat="48.627604691792655" lon="-2.061778152335092"><ele>30.0</ele><time>2026-04-05T10:30:28Z</time></trkpt><trkpt lat="48.62770488244079" lon="-2.0618449877552574"><ele>30.0</ele><time>2026-04-05T10:30:30Z</time></trkpt><trkpt lat="48.627773473664305" lon="-2.0619008650490738"><ele>30.0</ele><time>2026-04-05T10:30:31Z</time></trkpt><trkpt lat="48.62787371139159" lon="-2.062002994480032"><ele>30.2</ele><time>2026-04-05T10:30:33Z</time></trkpt><trkpt lat="48.627936451831076" lon="-2.0620251189478886"><ele>30.4</ele><time>2026-04-05T10:30:34Z</time></trkpt><trkpt lat="48.628045556336595" lon="-2.062104028566535"><ele>30.6</ele><time>2026-04-05T10:30:36Z</time></trkpt><trkpt lat="48.62815699006608" lon="-2.0621873205052412"><ele>30.8</ele><time>2026-04-05T10:30:38Z</time></trkpt><trkpt lat="48.628214662360904" lon="-2.0622304280247046"><ele>31.0</ele><time>2026-04-05T10:30:39Z</time></trkpt><trkpt lat="48.62831314910733" lon="-2.062304551467255"><ele>31.0</ele><time>2026-04-05T10:30:41Z</time></trkpt><trkpt lat="48.62840861251157" lon="-2.0623767686282717"><ele>31.0</ele><time>2026-04-05T10:30:43Z</time></trkpt><trkpt lat="48.62850280731948" lon="-2.0624477874411746"><ele>31.0</ele><time>2026-04-05T10:30:45Z</time></trkpt><trkpt lat="48.62856585509145" lon="-2.062494816385338"><ele>31.0</ele><time>2026-04-05T10:30:49Z</time></trkpt><trkpt lat="48.62852778507909" lon="-2.062669197754826"><ele>31.0</ele><time>2026-04-05T10:31:00Z</time></trkpt><trkpt lat="48.628466245393454" lon="-2.0627784907805804"><ele>30.857142857142858</ele><time>2026-04-05T10:31:03Z</time></trkpt><trkpt lat="48.62842463616693" lon="-2.0628567561019677"><ele>30.714285714285715</ele><time>2026-04-05T10:31:05Z</time></trkpt><trkpt lat="48.6284253956668" lon="-2.0629708310639336"><ele>30.571428571428573</ele><time>2026-04-05T10:31:08Z</time></trkpt><trkpt lat="48.62847496382426" lon="-2.063065448333024"><ele>30.42857142857143</ele><time>2026-04-05T10:31:10Z</time></trkpt><trkpt lat="48.62850990048621" lon="-2.0631742638668675"><ele>30.285714285714285</ele><time>2026-04-05T10:31:12Z</time></trkpt><trkpt lat="48.62853556775086" lon="-2.0632653850408276"><ele>30.142857142857146</ele><time>2026-04-05T10:31:14Z</time></trkpt><trkpt lat="48.628574154137596" lon="-2.063348679974992"><ele>30.0</ele><time>2026-04-05T10:31:16Z</time></trkpt><trkpt lat="48.628632139183544" lon="-2.063456905581881"><ele>29.857142857142858</ele><time>2026-04-05T10:31:19Z</time></trkpt><trkpt lat="48.628718819787736" lon="-2.063442930610005"><ele>29.714285714285715</ele><time>2026-04-05T10:31:22Z</time></trkpt><trkpt lat="48.62877777038489" lon="-2.0633845414290994"><ele>29.571428571428573</ele><time>2026-04-05T10:31:25Z</time></trkpt><trkpt lat="48.62883790405147" lon="-2.0634227039694295"><ele>29.42857142857143</ele><time>2026-04-05T10:31:27Z</time></trkpt><trkpt lat="48.62887612049752" lon="-2.0635012337096605"><ele>29.285714285714285</ele><time>2026-04-05T10:31:29Z</time></trkpt><trkpt lat="48.62887898126034" lon="-2.063607308639548"><ele>29.142857142857146</ele><time>2026-04-05T10:31:31Z</time></trkpt><trkpt lat="48.62885220146616" lon="-2.063713285503493"><ele>29.000000000000004</ele><time>2026-04-05T10:31:33Z</time></trkpt><trkpt lat="48.62883168117914" lon="-2.0638161427210764"><ele>29.000000000000004</ele><time>2026-04-05T10:31:35Z</time></trkpt><trkpt lat="48.628810704098356" lon="-2.063918261685532"><ele>29.0</ele><time>2026-04-05T10:31:37Z</time></trkpt><trkpt lat="48.628790222819056" lon="-2.0640284115511487"><ele>29.000000000000004</ele><time>2026-04-05T10:31:40Z</time></trkpt><trkpt lat="48.62877272631593" lon="-2.064125338800623"><ele>29.000000000000004</ele><time>2026-04-05T10:31:43Z</time></trkpt><trkpt lat="48.6287724144765" lon="-2.0642225651773227"><ele>29.0</ele><time>2026-04-05T10:31:46Z</time></trkpt><trkpt lat="48.62882677894902" lon="-2.0642881648990064"><ele>29.000000000000004</ele><time>2026-04-05T10:31:47.999Z</time></trkpt><trkpt lat="48.62889995453104" lon="-2.064336878935483"><ele>29.000000000000004</ele><time>2026-04-05T10:31:49.999Z</time></trkpt><trkpt lat="48.62897721895913" lon="-2.0643863142802177"><ele>29.0</ele><time>2026-04-05T10:31:51.999Z</time></trkpt><trkpt lat="48.62906938331006" lon="-2.0644449464589485"><ele>29.0</ele><time>2026-04-05T10:31:53.999Z</time></trkpt><trkpt lat="48.62916706955045" lon="-2.064510266938416"><ele>29.0</ele><time>2026-04-05T10:31:55.999Z</time></trkpt><trkpt lat="48.62924619166588" lon="-2.064595695873554"><ele>29.0</ele><time>2026-04-05T10:31:57.999Z</time></trkpt><trkpt lat="48.629348452931076" lon="-2.0646550789616507"><ele>29.0</ele><time>2026-04-05T10:31:59.999Z</time></trkpt><trkpt lat="48.62944048907296" lon="-2.064724599918689"><ele>28.75</ele><time>2026-04-05T10:32:01.999Z</time></trkpt><trkpt lat="48.62953912580671" lon="-2.064771432732567"><ele>28.5</ele><time>2026-04-05T10:32:03.999Z</time></trkpt><trkpt lat="48.62965438789127" lon="-2.064886093057895"><ele>28.25</ele><time>2026-04-05T10:32:07.999Z</time></trkpt><trkpt lat="48.629728439813114" lon="-2.0649341936337584"><ele>28.0</ele><time>2026-04-05T10:32:10.999Z</time></trkpt><trkpt lat="48.62984448007435" lon="-2.0650234534423295"><ele>28.599999999999998</ele><time>2026-04-05T10:32:12.999Z</time></trkpt><trkpt lat="48.62993622210269" lon="-2.0650593074725934"><ele>29.199999999999996</ele><time>2026-04-05T10:32:14.999Z</time></trkpt><trkpt lat="48.630020025270376" lon="-2.065124750110452"><ele>29.8</ele><time>2026-04-05T10:32:16.999Z</time></trkpt><trkpt lat="48.63010584605176" lon="-2.0651774452530374"><ele>30.4</ele><time>2026-04-05T10:32:18.999Z</time></trkpt><trkpt lat="48.63017058650707" lon="-2.0652471888997597"><ele>31.0</ele><time>2026-04-05T10:32:22.999Z</time></trkpt><trkpt lat="48.6302960149901" lon="-2.065215617132275"><ele>31.166666666666668</ele><time>2026-04-05T10:32:25.999Z</time></trkpt><trkpt lat="48.63039064619289" lon="-2.0651881709963162"><ele>31.333333333333336</ele><time>2026-04-05T10:32:27.999Z</time></trkpt><trkpt lat="48.6304293755256" lon="-2.065076206790058"><ele>31.5</ele><time>2026-04-05T10:32:29.999Z</time></trkpt><trkpt lat="48.63047319045965" lon="-2.064990589533033"><ele>31.666666666666664</ele><time>2026-04-05T10:32:31.999Z</time></trkpt><trkpt lat="48.630513254783295" lon="-2.0648966431007483"><ele>31.833333333333332</ele><time>2026-04-05T10:32:34Z</time></trkpt><trkpt lat="48.630570057198824" lon="-2.064817256500908"><ele>32.0</ele><time>2026-04-05T10:32:36Z</time></trkpt><trkpt lat="48.63060320598724" lon="-2.0647241776377316"><ele>31.666666666666664</ele><time>2026-04-05T10:32:38Z</time></trkpt><trkpt lat="48.63061098405385" lon="-2.064618263921652"><ele>31.333333333333332</ele><time>2026-04-05T10:32:40Z</time></trkpt><trkpt lat="48.63062005573529" lon="-2.064505704393633"><ele>31.0</ele><time>2026-04-05T10:32:42Z</time></trkpt><trkpt lat="48.63060550114929" lon="-2.0643809431648097"><ele>30.666666666666664</ele><time>2026-04-05T10:32:44Z</time></trkpt><trkpt lat="48.63058351129827" lon="-2.064271250765538"><ele>30.333333333333332</ele><time>2026-04-05T10:32:46Z</time></trkpt><trkpt lat="48.63056868735851" lon="-2.0641611184155386"><ele>30.0</ele><time>2026-04-05T10:32:48Z</time></trkpt><trkpt lat="48.63056852937633" lon="-2.0640472401447165"><ele>29.8</ele><time>2026-04-05T10:32:50Z</time></trkpt><trkpt lat="48.63058142042516" lon="-2.063930176241603"><ele>29.6</ele><time>2026-04-05T10:32:52Z</time></trkpt><trkpt lat="48.63055492796173" lon="-2.0638203187157362"><ele>29.4</ele><time>2026-04-05T10:32:54Z</time></trkpt><trkpt lat="48.63057960654674" lon="-2.0637004846778546"><ele>29.2</ele><time>2026-04-05T10:32:56Z</time></trkpt><trkpt lat="48.63060858880726" lon="-2.0635531166610925"><ele>29.0</ele><time>2026-04-05T10:32:58Z</time></trkpt><trkpt lat="48.630602579215754" lon="-2.063382880064824"><ele>28.333333333333332</ele><time>2026-04-05T10:33:00Z</time></trkpt><trkpt lat="48.630613885221834" lon="-2.0632011413521316"><ele>27.666666666666664</ele><time>2026-04-05T10:33:02Z</time></trkpt><trkpt lat="48.63061481957804" lon="-2.0631036402700897"><ele>27.0</ele><time>2026-04-05T10:33:03Z</time></trkpt><trkpt lat="48.63061029310459" lon="-2.0630025582589733"><ele>26.333333333333336</ele><time>2026-04-05T10:33:04Z</time></trkpt><trkpt lat="48.630613142928446" lon="-2.0628940723989655"><ele>25.666666666666668</ele><time>2026-04-05T10:33:05Z</time></trkpt><trkpt lat="48.63061127381353" lon="-2.0627839062199578"><ele>25.0</ele><time>2026-04-05T10:33:06Z</time></trkpt><trkpt lat="48.63061203765233" lon="-2.0626744991702344"><ele>25.000000000000004</ele><time>2026-04-05T10:33:07Z</time></trkpt><trkpt lat="48.63060636362945" lon="-2.0625614427374233"><ele>25.0</ele><time>2026-04-05T10:33:08Z</time></trkpt><trkpt lat="48.63060370412876" lon="-2.0624505454066164"><ele>25.0</ele><time>2026-04-05T10:33:09Z</time></trkpt><trkpt lat="48.63061054876873" lon="-2.0623382926791365"><ele>25.0</ele><time>2026-04-05T10:33:10Z</time></trkpt><trkpt lat="48.630610124034085" lon="-2.062234085603422"><ele>25.0</ele><time>2026-04-05T10:33:11Z</time></trkpt><trkpt lat="48.63060874732668" lon="-2.062121030590202"><ele>25.000000000000004</ele><time>2026-04-05T10:33:12Z</time></trkpt><trkpt lat="48.63060575356917" lon="-2.0620076512060557"><ele>25.0</ele><time>2026-04-05T10:33:13Z</time></trkpt><trkpt lat="48.63060097760931" lon="-2.0619002085796376"><ele>24.28571428571429</ele><time>2026-04-05T10:33:14Z</time></trkpt><trkpt lat="48.6305964776875" lon="-2.0617941769021306"><ele>23.571428571428573</ele><time>2026-04-05T10:33:15Z</time></trkpt><trkpt lat="48.63060379689318" lon="-2.0616929902514993"><ele>22.857142857142858</ele><time>2026-04-05T10:33:16Z</time></trkpt><trkpt lat="48.63059042088024" lon="-2.061591074971983"><ele>22.142857142857146</ele><time>2026-04-05T10:33:17Z</time></trkpt><trkpt lat="48.63059049032681" lon="-2.0614922746654867"><ele>21.42857142857143</ele><time>2026-04-05T10:33:18Z</time></trkpt><trkpt lat="48.630606346713066" lon="-2.0613989768830536"><ele>20.714285714285715</ele><time>2026-04-05T10:33:19Z</time></trkpt><trkpt lat="48.630589449405655" lon="-2.0612899780555196"><ele>20.0</ele><time>2026-04-05T10:33:20Z</time></trkpt><trkpt lat="48.63062066736079" lon="-2.0611328529021775"><ele>19.8</ele><time>2026-04-05T10:33:22Z</time></trkpt><trkpt lat="48.630620328745145" lon="-2.0610001364710335"><ele>19.6</ele><time>2026-04-05T10:33:24Z</time></trkpt><trkpt lat="48.63060928340539" lon="-2.0608625025808838"><ele>19.4</ele><time>2026-04-05T10:33:26Z</time></trkpt><trkpt lat="48.6305844649926" lon="-2.0607256406812"><ele>19.2</ele><time>2026-04-05T10:33:28Z</time></trkpt><trkpt lat="48.6305927203677" lon="-2.060578651505239"><ele>19.0</ele><time>2026-04-05T10:33:30Z</time></trkpt><trkpt lat="48.63060151869743" lon="-2.0604247192006544"><ele>19.0</ele><time>2026-04-05T10:33:32Z</time></trkpt><trkpt lat="48.63059723566683" lon="-2.0602600458695224"><ele>19.0</ele><time>2026-04-05T10:33:34Z</time></trkpt><trkpt lat="48.63059202624223" lon="-2.0600882255887116"><ele>19.0</ele><time>2026-04-05T10:33:36Z</time></trkpt><trkpt lat="48.63058625405556" lon="-2.059914987147902"><ele>19.0</ele><time>2026-04-05T10:33:38Z</time></trkpt><trkpt lat="48.63058107149656" lon="-2.0597357388846564"><ele>18.8</ele><time>2026-04-05T10:33:40Z</time></trkpt><trkpt lat="48.63058310460468" lon="-2.05955815422527"><ele>18.599999999999998</ele><time>2026-04-05T10:33:42Z</time></trkpt><trkpt lat="48.630592037488746" lon="-2.0593749260353884"><ele>18.4</ele><time>2026-04-05T10:33:44Z</time></trkpt><trkpt lat="48.63058857323756" lon="-2.059181252686883"><ele>18.2</ele><time>2026-04-05T10:33:46Z</time></trkpt><trkpt lat="48.63059077160292" lon="-2.0590836209952825"><ele>18.0</ele><time>2026-04-05T10:33:47Z</time></trkpt><trkpt lat="48.63058191912235" lon="-2.058983564606911"><ele>17.4</ele><time>2026-04-05T10:33:48Z</time></trkpt><trkpt lat="48.630573490987956" lon="-2.058888115284076"><ele>16.8</ele><time>2026-04-05T10:33:49Z</time></trkpt><trkpt lat="48.63056460890189" lon="-2.0587000755821907"><ele>16.2</ele><time>2026-04-05T10:33:51Z</time></trkpt><trkpt lat="48.63057267723759" lon="-2.058521009205035"><ele>15.6</ele><time>2026-04-05T10:33:52.999Z</time></trkpt><trkpt lat="48.6305687107306" lon="-2.058378078311662"><ele>15.0</ele><time>2026-04-05T10:33:54.999Z</time></trkpt><trkpt lat="48.630540014012986" lon="-2.0582600035384777"><ele>15.0</ele><time>2026-04-05T10:33:56.999Z</time></trkpt><trkpt lat="48.63051330411326" lon="-2.058134007547448"><ele>15.0</ele><time>2026-04-05T10:33:58.999Z</time></trkpt><trkpt lat="48.63049506501743" lon="-2.0579980704008065"><ele>15.0</ele><time>2026-04-05T10:34:00.999Z</time></trkpt><trkpt lat="48.63047506948523" lon="-2.057861888411261"><ele>15.0</ele><time>2026-04-05T10:34:02.999Z</time></trkpt><trkpt lat="48.6304544657443" lon="-2.0577347837077036"><ele>15.0</ele><time>2026-04-05T10:34:04.999Z</time></trkpt><trkpt lat="48.630424825161356" lon="-2.0576025624189076"><ele>15.0</ele><time>2026-04-05T10:34:06.999Z</time></trkpt><trkpt lat="48.63040485374167" lon="-2.057475127595904"><ele>15.0</ele><time>2026-04-05T10:34:08.999Z</time></trkpt><trkpt lat="48.630402748995465" lon="-2.0573573826326705"><ele>15.0</ele><time>2026-04-05T10:34:10.999Z</time></trkpt><trkpt lat="48.63037039827862" lon="-2.0572181787335766"><ele>15.0</ele><time>2026-04-05T10:34:12.999Z</time></trkpt><trkpt lat="48.63034880184272" lon="-2.0570720671269043"><ele>15.0</ele><time>2026-04-05T10:34:15.999Z</time></trkpt><trkpt lat="48.63032536064072" lon="-2.0569810308303897"><ele>15.0</ele><time>2026-04-05T10:34:18.999Z</time></trkpt><trkpt lat="48.63030403791495" lon="-2.056848256281928"><ele>16.285714285714285</ele><time>2026-04-05T10:34:21.999Z</time></trkpt><trkpt lat="48.63030373700961" lon="-2.0567484594564025"><ele>17.57142857142857</ele><time>2026-04-05T10:34:23.999Z</time></trkpt><trkpt lat="48.63024791868922" lon="-2.0566818845616957"><ele>18.857142857142854</ele><time>2026-04-05T10:34:25.999Z</time></trkpt><trkpt lat="48.630238467694234" lon="-2.0565772327468834"><ele>20.142857142857142</ele><time>2026-04-05T10:34:27.999Z</time></trkpt><trkpt lat="48.63025017498442" lon="-2.056473285271079"><ele>21.428571428571427</ele><time>2026-04-05T10:34:29.999Z</time></trkpt><trkpt lat="48.630237326865135" lon="-2.0563651898118436"><ele>22.71428571428571</ele><time>2026-04-05T10:34:31.999Z</time></trkpt><trkpt lat="48.63021286290332" lon="-2.0562419598644732"><ele>24.0</ele><time>2026-04-05T10:34:33.999Z</time></trkpt><trkpt lat="48.63018989177687" lon="-2.056114087231908"><ele>24.0</ele><time>2026-04-05T10:34:35.999Z</time></trkpt><trkpt lat="48.63016035295086" lon="-2.0559679421604886"><ele>24.0</ele><time>2026-04-05T10:34:39Z</time></trkpt><trkpt lat="48.6301053491309" lon="-2.0558370208185828"><ele>24.0</ele><time>2026-04-05T10:34:42Z</time></trkpt><trkpt lat="48.63008033178878" lon="-2.0557314153441917"><ele>24.0</ele><time>2026-04-05T10:34:44Z</time></trkpt><trkpt lat="48.6301448281843" lon="-2.055675403984087"><ele>24.0</ele><time>2026-04-05T10:34:46Z</time></trkpt><trkpt lat="48.63023310175016" lon="-2.055585645036104"><ele>23.2</ele><time>2026-04-05T10:34:50Z</time></trkpt><trkpt lat="48.63031038822687" lon="-2.055552946303633"><ele>22.4</ele><time>2026-04-05T10:34:51Z</time></trkpt><trkpt lat="48.630387074467876" lon="-2.05551550418483"><ele>21.6</ele><time>2026-04-05T10:34:52Z</time></trkpt><trkpt lat="48.630486966217966" lon="-2.055336505468267"><ele>20.8</ele><time>2026-04-05T10:34:54Z</time></trkpt><trkpt lat="48.63040325009762" lon="-2.055397581134832"><ele>20.0</ele><time>2026-04-05T10:35:34Z</time></trkpt><trkpt lat="48.630323020828364" lon="-2.0554161985797883"><ele>20.333333333333336</ele><time>2026-04-05T10:35:36Z</time></trkpt><trkpt lat="48.63024702834254" lon="-2.0554253767936106"><ele>20.666666666666668</ele><time>2026-04-05T10:35:38Z</time></trkpt><trkpt lat="48.63017378551469" lon="-2.0554436844690107"><ele>21.0</ele><time>2026-04-05T10:35:40Z</time></trkpt><trkpt lat="48.6300922649317" lon="-2.0554886270077604"><ele>21.333333333333332</ele><time>2026-04-05T10:35:43Z</time></trkpt><trkpt lat="48.6300331809704" lon="-2.0554170717730047"><ele>21.666666666666664</ele><time>2026-04-05T10:35:46Z</time></trkpt><trkpt lat="48.6300406564787" lon="-2.0552873010627026"><ele>22.0</ele><time>2026-04-05T10:35:49Z</time></trkpt><trkpt lat="48.63001909573635" lon="-2.055171748077415"><ele>22.0</ele><time>2026-04-05T10:35:50Z</time></trkpt><trkpt lat="48.63000437379379" lon="-2.055079113443412"><ele>22.0</ele><time>2026-04-05T10:35:51Z</time></trkpt><trkpt lat="48.6299772300765" lon="-2.0549245307895347"><ele>22.0</ele><time>2026-04-05T10:35:53Z</time></trkpt><trkpt lat="48.62994708000979" lon="-2.0547540932329182"><ele>22.0</ele><time>2026-04-05T10:35:55Z</time></trkpt><trkpt lat="48.62991293431223" lon="-2.054577728713952"><ele>22.0</ele><time>2026-04-05T10:35:57Z</time></trkpt><trkpt lat="48.62989318349716" lon="-2.0544848763429093"><ele>21.6</ele><time>2026-04-05T10:35:58Z</time></trkpt><trkpt lat="48.629864227130035" lon="-2.0543060487549827"><ele>21.200000000000003</ele><time>2026-04-05T10:36:00Z</time></trkpt><trkpt lat="48.62983008343907" lon="-2.0541381040336137"><ele>20.8</ele><time>2026-04-05T10:36:02Z</time></trkpt><trkpt lat="48.62979307997869" lon="-2.054017416015347"><ele>20.4</ele><time>2026-04-05T10:36:03.999Z</time></trkpt><trkpt lat="48.62986045499912" lon="-2.053897444198485"><ele>20.0</ele><time>2026-04-05T10:36:05.999Z</time></trkpt><trkpt lat="48.62992098528265" lon="-2.0537605064470412"><ele>19.2</ele><time>2026-04-05T10:36:07.999Z</time></trkpt><trkpt lat="48.6299789743041" lon="-2.0536352249723984"><ele>18.4</ele><time>2026-04-05T10:36:09.999Z</time></trkpt><trkpt lat="48.63003746922286" lon="-2.0535064259719076"><ele>17.6</ele><time>2026-04-05T10:36:11.999Z</time></trkpt><trkpt lat="48.630100119484865" lon="-2.0533684163811756"><ele>16.8</ele><time>2026-04-05T10:36:13.999Z</time></trkpt><trkpt lat="48.63016666480958" lon="-2.0532476907166988"><ele>16.0</ele><time>2026-04-05T10:36:15.999Z</time></trkpt><trkpt lat="48.63025389349587" lon="-2.05318580209214"><ele>15.200000000000001</ele><time>2026-04-05T10:36:17.999Z</time></trkpt><trkpt lat="48.63033016741048" lon="-2.053100599002021"><ele>14.400000000000002</ele><time>2026-04-05T10:36:19.999Z</time></trkpt><trkpt lat="48.63040634499272" lon="-2.053017905126379"><ele>13.6</ele><time>2026-04-05T10:36:21.999Z</time></trkpt><trkpt lat="48.63048731643196" lon="-2.052940626777908"><ele>12.8</ele><time>2026-04-05T10:36:23.999Z</time></trkpt><trkpt lat="48.63057727253187" lon="-2.0528668289515557"><ele>12.0</ele><time>2026-04-05T10:36:25.999Z</time></trkpt><trkpt lat="48.63067733699555" lon="-2.052782031532283"><ele>12.0</ele><time>2026-04-05T10:36:27.999Z</time></trkpt><trkpt lat="48.630748132469336" lon="-2.0527108344007123"><ele>12.0</ele><time>2026-04-05T10:36:32.999Z</time></trkpt><trkpt lat="48.630815474569566" lon="-2.0526468444716284"><ele>12.0</ele><time>2026-04-05T10:36:34.999Z</time></trkpt><trkpt lat="48.63088678187649" lon="-2.052567119707955"><ele>12.0</ele><time>2026-04-05T10:36:36.999Z</time></trkpt><trkpt lat="48.630978202713315" lon="-2.052485767526175"><ele>12.0</ele><time>2026-04-05T10:36:38.999Z</time></trkpt><trkpt lat="48.63106930415209" lon="-2.0524247725852613"><ele>12.0</ele><time>2026-04-05T10:36:40.999Z</time></trkpt><trkpt lat="48.63117282844056" lon="-2.0524015011065986"><ele>12.0</ele><time>2026-04-05T10:36:42.999Z</time></trkpt><trkpt lat="48.631266552530604" lon="-2.0523852121949457"><ele>12.0</ele><time>2026-04-05T10:36:45Z</time></trkpt><trkpt lat="48.6313526662667" lon="-2.0523508444359524"><ele>12.0</ele><time>2026-04-05T10:36:47Z</time></trkpt><trkpt lat="48.63142847194696" lon="-2.052321450360317"><ele>12.0</ele><time>2026-04-05T10:36:49Z</time></trkpt><trkpt lat="48.63151787639459" lon="-2.052288212423014"><ele>12.0</ele><time>2026-04-05T10:36:52Z</time></trkpt><trkpt lat="48.63158776171849" lon="-2.052194011581064"><ele>12.0</ele><time>2026-04-05T10:36:55Z</time></trkpt><trkpt lat="48.63175053209935" lon="-2.0521060151266255"><ele>12.0</ele><time>2026-04-05T10:36:57Z</time></trkpt><trkpt lat="48.63182270606078" lon="-2.052037647874427"><ele>12.0</ele><time>2026-04-05T10:36:59Z</time></trkpt><trkpt lat="48.631897170057144" lon="-2.051962035904463"><ele>12.0</ele><time>2026-04-05T10:37:01Z</time></trkpt><trkpt lat="48.6319640800936" lon="-2.051878665429928"><ele>12.0</ele><time>2026-04-05T10:37:03Z</time></trkpt><trkpt lat="48.632023029561964" lon="-2.0517895200976755"><ele>12.0</ele><time>2026-04-05T10:37:05Z</time></trkpt><trkpt lat="48.63208447475378" lon="-2.051700684053217"><ele>12.0</ele><time>2026-04-05T10:37:07Z</time></trkpt><trkpt lat="48.632138147996095" lon="-2.051597816122551"><ele>12.0</ele><time>2026-04-05T10:37:09Z</time></trkpt><trkpt lat="48.63220343160192" lon="-2.0515259339907512"><ele>12.0</ele><time>2026-04-05T10:37:11Z</time></trkpt><trkpt lat="48.632270516836805" lon="-2.0514666084280693"><ele>12.0</ele><time>2026-04-05T10:37:13Z</time></trkpt><trkpt lat="48.632338140239284" lon="-2.0514188378657847"><ele>12.0</ele><time>2026-04-05T10:37:15Z</time></trkpt><trkpt lat="48.63242502227435" lon="-2.051388988774149"><ele>12.0</ele><time>2026-04-05T10:37:17Z</time></trkpt><trkpt lat="48.63249083070924" lon="-2.0514038810951725"><ele>12.0</ele><time>2026-04-05T10:37:21Z</time></trkpt><trkpt lat="48.63256731221559" lon="-2.051411323182129"><ele>12.0</ele><time>2026-04-05T10:37:23Z</time></trkpt><trkpt lat="48.63264206306947" lon="-2.0514327476672074"><ele>12.0</ele><time>2026-04-05T10:37:24Z</time></trkpt><trkpt lat="48.63273641467026" lon="-2.051390195118386"><ele>12.0</ele><time>2026-04-05T10:37:26Z</time></trkpt><trkpt lat="48.632841742218275" lon="-2.0514120103920863"><ele>13.8</ele><time>2026-04-05T10:37:28Z</time></trkpt><trkpt lat="48.63295136430487" lon="-2.0514007047766007"><ele>15.6</ele><time>2026-04-05T10:37:30Z</time></trkpt><trkpt lat="48.63305816430578" lon="-2.0513865035087484"><ele>17.400000000000002</ele><time>2026-04-05T10:37:32Z</time></trkpt><trkpt lat="48.63315897597417" lon="-2.0513513219871937"><ele>19.2</ele><time>2026-04-05T10:37:34Z</time></trkpt><trkpt lat="48.63326666607843" lon="-2.0513438485820275"><ele>21.0</ele><time>2026-04-05T10:37:36Z</time></trkpt><trkpt lat="48.63336508492334" lon="-2.0512797988814206"><ele>21.0</ele><time>2026-04-05T10:37:38Z</time></trkpt><trkpt lat="48.63344953805049" lon="-2.0512088723095028"><ele>21.0</ele><time>2026-04-05T10:37:40Z</time></trkpt><trkpt lat="48.633539852358815" lon="-2.051110429841825"><ele>21.0</ele><time>2026-04-05T10:37:43Z</time></trkpt><trkpt lat="48.6335900034448" lon="-2.0510504685799757"><ele>21.0</ele><time>2026-04-05T10:37:45Z</time></trkpt><trkpt lat="48.63366905938934" lon="-2.050962644342243"><ele>21.0</ele><time>2026-04-05T10:37:47Z</time></trkpt><trkpt lat="48.6337479634501" lon="-2.0509019879467285"><ele>20.833333333333332</ele><time>2026-04-05T10:37:49Z</time></trkpt><trkpt lat="48.63383804156862" lon="-2.050800108500071"><ele>20.666666666666668</ele><time>2026-04-05T10:37:51Z</time></trkpt><trkpt lat="48.63391893567854" lon="-2.0507431633116484"><ele>20.5</ele><time>2026-04-05T10:37:53Z</time></trkpt><trkpt lat="48.63398328604523" lon="-2.0506819357333446"><ele>20.333333333333336</ele><time>2026-04-05T10:37:56Z</time></trkpt><trkpt lat="48.63403222077009" lon="-2.0506084492618992"><ele>20.166666666666668</ele><time>2026-04-05T10:37:58Z</time></trkpt><trkpt lat="48.63409843884967" lon="-2.0504981728218947"><ele>20.0</ele><time>2026-04-05T10:38:01Z</time></trkpt><trkpt lat="48.63420332074365" lon="-2.0504064006079648"><ele>20.0</ele><time>2026-04-05T10:38:03Z</time></trkpt><trkpt lat="48.63423756959179" lon="-2.050268132178257"><ele>20.0</ele><time>2026-04-05T10:38:05Z</time></trkpt><trkpt lat="48.63423491420059" lon="-2.0501073761106876"><ele>20.0</ele><time>2026-04-05T10:38:06.999Z</time></trkpt><trkpt lat="48.634269946715456" lon="-2.049969922340594"><ele>20.0</ele><time>2026-04-05T10:38:08.999Z</time></trkpt><trkpt lat="48.634299079925064" lon="-2.0498355005082773"><ele>20.0</ele><time>2026-04-05T10:38:10.999Z</time></trkpt><trkpt lat="48.63434461923327" lon="-2.0497211667654796"><ele>21.25</ele><time>2026-04-05T10:38:13.999Z</time></trkpt><trkpt lat="48.63438106961289" lon="-2.049586496619291"><ele>22.5</ele><time>2026-04-05T10:38:16.999Z</time></trkpt><trkpt lat="48.63444737793624" lon="-2.0494755528720554"><ele>23.75</ele><time>2026-04-05T10:38:19.999Z</time></trkpt><trkpt lat="48.634618497395735" lon="-2.049261295168358"><ele>25.0</ele><time>2026-04-05T10:38:22.999Z</time></trkpt><trkpt lat="48.63470365057665" lon="-2.0491954199577287"><ele>25.000000000000004</ele><time>2026-04-05T10:38:24.999Z</time></trkpt><trkpt lat="48.63480443426501" lon="-2.0491286171041567"><ele>25.0</ele><time>2026-04-05T10:38:26.999Z</time></trkpt><trkpt lat="48.63490369549141" lon="-2.049057405346171"><ele>25.0</ele><time>2026-04-05T10:38:28.999Z</time></trkpt><trkpt lat="48.63496189017393" lon="-2.049016942833178"><ele>25.0</ele><time>2026-04-05T10:38:29.999Z</time></trkpt><trkpt lat="48.63503761196334" lon="-2.0489663436259136"><ele>25.000000000000004</ele><time>2026-04-05T10:38:30.999Z</time></trkpt><trkpt lat="48.63510771347486" lon="-2.048944749690152"><ele>25.0</ele><time>2026-04-05T10:38:32.999Z</time></trkpt><trkpt lat="48.63520056220116" lon="-2.0489099553280385"><ele>22.2</ele><time>2026-04-05T10:38:34.999Z</time></trkpt><trkpt lat="48.635303165197335" lon="-2.048847634844779"><ele>19.4</ele><time>2026-04-05T10:38:36.999Z</time></trkpt><trkpt lat="48.63536691432042" lon="-2.0488979549535182"><ele>16.6</ele><time>2026-04-05T10:38:37.999Z</time></trkpt><trkpt lat="48.63547275085718" lon="-2.0489200776584875"><ele>13.8</ele><time>2026-04-05T10:38:39.999Z</time></trkpt><trkpt lat="48.63559156230251" lon="-2.048995569251494"><ele>11.0</ele><time>2026-04-05T10:38:41.999Z</time></trkpt><trkpt lat="48.63566243525863" lon="-2.049006660638473"><ele>11.0</ele><time>2026-04-05T10:38:42.999Z</time></trkpt><trkpt lat="48.635719226090245" lon="-2.0490578083369115"><ele>11.0</ele><time>2026-04-05T10:38:43.999Z</time></trkpt><trkpt lat="48.63578701958644" lon="-2.0490790415909843"><ele>11.0</ele><time>2026-04-05T10:38:44.999Z</time></trkpt><trkpt lat="48.635896784832426" lon="-2.049132085548398"><ele>11.0</ele><time>2026-04-05T10:38:46.999Z</time></trkpt><trkpt lat="48.63601104039188" lon="-2.049179370488699"><ele>11.0</ele><time>2026-04-05T10:38:48.999Z</time></trkpt><trkpt lat="48.63610283848601" lon="-2.0491643426668924"><ele>12.166666666666666</ele><time>2026-04-05T10:38:51Z</time></trkpt><trkpt lat="48.63619779766474" lon="-2.0491787650149575"><ele>13.333333333333332</ele><time>2026-04-05T10:38:53Z</time></trkpt><trkpt lat="48.636282996202716" lon="-2.049110072594316"><ele>14.5</ele><time>2026-04-05T10:38:56Z</time></trkpt><trkpt lat="48.636316980724395" lon="-2.0490281131037658"><ele>15.666666666666666</ele><time>2026-04-05T10:38:58Z</time></trkpt><trkpt lat="48.63631298158973" lon="-2.0489069182283357"><ele>16.833333333333332</ele><time>2026-04-05T10:39:00Z</time></trkpt><trkpt lat="48.63629577328721" lon="-2.048792085850253"><ele>18.0</ele><time>2026-04-05T10:39:02Z</time></trkpt><trkpt lat="48.636264238014824" lon="-2.048666964714724"><ele>18.0</ele><time>2026-04-05T10:39:05Z</time></trkpt><trkpt lat="48.63621470656734" lon="-2.0485565050893397"><ele>18.0</ele><time>2026-04-05T10:39:08Z</time></trkpt><trkpt lat="48.63616249877196" lon="-2.0484652859488897"><ele>18.0</ele><time>2026-04-05T10:39:13Z</time></trkpt><trkpt lat="48.63616503923557" lon="-2.0483216088936924"><ele>18.0</ele><time>2026-04-05T10:39:26Z</time></trkpt><trkpt lat="48.63614344925042" lon="-2.048223757135326"><ele>18.0</ele><time>2026-04-05T10:39:32Z</time></trkpt><trkpt lat="48.636098034253266" lon="-2.048156010340337"><ele>18.0</ele><time>2026-04-05T10:39:37Z</time></trkpt><trkpt lat="48.636064419136474" lon="-2.048071884060039"><ele>16.142857142857146</ele><time>2026-04-05T10:39:42Z</time></trkpt><trkpt lat="48.636001645312255" lon="-2.048012425593056"><ele>14.285714285714286</ele><time>2026-04-05T10:39:47Z</time></trkpt><trkpt lat="48.63596457259698" lon="-2.0479282391445093"><ele>12.428571428571429</ele><time>2026-04-05T10:39:52Z</time></trkpt><trkpt lat="48.635967854301214" lon="-2.0478218565144295"><ele>10.571428571428573</ele><time>2026-04-05T10:39:58Z</time></trkpt><trkpt lat="48.63594769600844" lon="-2.047719972566991"><ele>8.714285714285715</ele><time>2026-04-05T10:40:07Z</time></trkpt><trkpt lat="48.63589801307773" lon="-2.0476479720652514"><ele>6.857142857142858</ele><time>2026-04-05T10:40:14.999Z</time></trkpt><trkpt lat="48.63584667305337" lon="-2.0475828911679197"><ele>5.0</ele><time>2026-04-05T10:40:29.999Z</time></trkpt><trkpt lat="48.6358840775656" lon="-2.047659600851816"><ele>5.0</ele><time>2026-04-05T10:43:27Z</time></trkpt><trkpt lat="48.635937545054595" lon="-2.047724033608692"><ele>5.0</ele><time>2026-04-05T10:43:41Z</time></trkpt><trkpt lat="48.63595179951863" lon="-2.0478192585556525"><ele>5.0</ele><time>2026-04-05T10:43:47Z</time></trkpt><trkpt lat="48.63597194824448" lon="-2.0479200356506224"><ele>5.0</ele><time>2026-04-05T10:44:07Z</time></trkpt><trkpt lat="48.636018540572906" lon="-2.0479960655335585"><ele>5.0</ele><time>2026-04-05T10:44:12Z</time></trkpt><trkpt lat="48.63607160040725" lon="-2.0480759895700738"><ele>5.0</ele><time>2026-04-05T10:44:16.999Z</time></trkpt><trkpt lat="48.63611015807949" lon="-2.048154003746884"><ele>5.0</ele><time>2026-04-05T10:44:21.999Z</time></trkpt><trkpt lat="48.63614251637295" lon="-2.048256004837483"><ele>7.166666666666667</ele><time>2026-04-05T10:44:27.999Z</time></trkpt><trkpt lat="48.63614194996759" lon="-2.048356280713468"><ele>9.333333333333334</ele><time>2026-04-05T10:44:32.999Z</time></trkpt><trkpt lat="48.63616289878362" lon="-2.048461777288931"><ele>11.5</ele><time>2026-04-05T10:44:38.999Z</time></trkpt><trkpt lat="48.63620908883793" lon="-2.0485286070940067"><ele>13.666666666666666</ele><time>2026-04-05T10:44:46.999Z</time></trkpt><trkpt lat="48.63626725219631" lon="-2.0486114934160735"><ele>15.833333333333334</ele><time>2026-04-05T10:44:48.999Z</time></trkpt><trkpt lat="48.636323141365445" lon="-2.048723916646771"><ele>18.0</ele><time>2026-04-05T10:44:51.999Z</time></trkpt><trkpt lat="48.63640166359689" lon="-2.048772844537007"><ele>18.0</ele><time>2026-04-05T10:44:54.999Z</time></trkpt><trkpt lat="48.63644321170418" lon="-2.048868385860931"><ele>18.0</ele><time>2026-04-05T10:44:58.999Z</time></trkpt><trkpt lat="48.636490639572806" lon="-2.0487952643437533"><ele>18.0</ele><time>2026-04-05T10:45:09Z</time></trkpt><trkpt lat="48.63644156452472" lon="-2.048879407902626"><ele>18.0</ele><time>2026-04-05T10:46:26Z</time></trkpt><trkpt lat="48.636390532557726" lon="-2.04897929645506"><ele>18.0</ele><time>2026-04-05T10:46:29Z</time></trkpt><trkpt lat="48.636333163408054" lon="-2.04904752399967"><ele>18.0</ele><time>2026-04-05T10:46:31Z</time></trkpt><trkpt lat="48.636282169099644" lon="-2.049152725608801"><ele>18.333333333333332</ele><time>2026-04-05T10:46:33Z</time></trkpt><trkpt lat="48.63620280224578" lon="-2.0492176099180255"><ele>18.666666666666668</ele><time>2026-04-05T10:46:35Z</time></trkpt><trkpt lat="48.636139012992295" lon="-2.0492098373507432"><ele>19.0</ele><time>2026-04-05T10:46:38Z</time></trkpt><trkpt lat="48.636038533104845" lon="-2.049206487511239"><ele>19.333333333333336</ele><time>2026-04-05T10:46:41Z</time></trkpt><trkpt lat="48.63596129646333" lon="-2.0491843728160495"><ele>19.666666666666668</ele><time>2026-04-05T10:46:45Z</time></trkpt><trkpt lat="48.635882277175355" lon="-2.049164398243315"><ele>20.0</ele><time>2026-04-05T10:46:48Z</time></trkpt><trkpt lat="48.63578675549073" lon="-2.049130747063476"><ele>18.2</ele><time>2026-04-05T10:46:51Z</time></trkpt><trkpt lat="48.63571657626706" lon="-2.049105501533546"><ele>16.4</ele><time>2026-04-05T10:46:54Z</time></trkpt><trkpt lat="48.63559452341049" lon="-2.0490467100327954"><ele>14.600000000000001</ele><time>2026-04-05T10:46:59Z</time></trkpt><trkpt lat="48.63551367291807" lon="-2.0489904057825683"><ele>12.8</ele><time>2026-04-05T10:47:02Z</time></trkpt><trkpt lat="48.63543378931776" lon="-2.048935973973668"><ele>11.0</ele><time>2026-04-05T10:47:05Z</time></trkpt><trkpt lat="48.635312159388214" lon="-2.0489874138396407"><ele>10.4</ele><time>2026-04-05T10:47:07Z</time></trkpt><trkpt lat="48.635214402377805" lon="-2.049011233971577"><ele>9.8</ele><time>2026-04-05T10:47:09Z</time></trkpt><trkpt lat="48.63512656975725" lon="-2.0490474753113515"><ele>9.200000000000001</ele><time>2026-04-05T10:47:11Z</time></trkpt><trkpt lat="48.63504647505679" lon="-2.0491240784939344"><ele>8.600000000000001</ele><time>2026-04-05T10:47:13Z</time></trkpt><trkpt lat="48.63498544859365" lon="-2.0491598277711827"><ele>8.0</ele><time>2026-04-05T10:47:14Z</time></trkpt><trkpt lat="48.63487067032837" lon="-2.049210110311281"><ele>8.5</ele><time>2026-04-05T10:47:16Z</time></trkpt><trkpt lat="48.63477128949025" lon="-2.049255270734752"><ele>9.0</ele><time>2026-04-05T10:47:18Z</time></trkpt><trkpt lat="48.634696378585694" lon="-2.0493014844479203"><ele>9.5</ele><time>2026-04-05T10:47:21Z</time></trkpt><trkpt lat="48.63463311453281" lon="-2.0493505747197593"><ele>10.0</ele><time>2026-04-05T10:47:22Z</time></trkpt><trkpt lat="48.634561394995345" lon="-2.0494077029314286"><ele>10.5</ele><time>2026-04-05T10:47:24Z</time></trkpt><trkpt lat="48.63449491235308" lon="-2.0495154345582307"><ele>11.0</ele><time>2026-04-05T10:47:27Z</time></trkpt><trkpt lat="48.63445823703973" lon="-2.049632467927592"><ele>11.0</ele><time>2026-04-05T10:47:29Z</time></trkpt><trkpt lat="48.63443992997616" lon="-2.049738533999795"><ele>11.0</ele><time>2026-04-05T10:47:31Z</time></trkpt><trkpt lat="48.63440560375964" lon="-2.049858218500197"><ele>11.0</ele><time>2026-04-05T10:47:34Z</time></trkpt><trkpt lat="48.634380450057144" lon="-2.0499807326736863"><ele>11.0</ele><time>2026-04-05T10:47:36Z</time></trkpt><trkpt lat="48.63434570126437" lon="-2.050129271848377"><ele>11.0</ele><time>2026-04-05T10:47:38Z</time></trkpt><trkpt lat="48.63431863937073" lon="-2.050240300696514"><ele>11.0</ele><time>2026-04-05T10:47:40Z</time></trkpt><trkpt lat="48.63431484425742" lon="-2.050351870762533"><ele>12.5</ele><time>2026-04-05T10:47:42Z</time></trkpt><trkpt lat="48.634286302956625" lon="-2.050478242907518"><ele>14.0</ele><time>2026-04-05T10:47:44Z</time></trkpt><trkpt lat="48.634279383476304" lon="-2.0505797827404426"><ele>15.5</ele><time>2026-04-05T10:47:48Z</time></trkpt><trkpt lat="48.63434933971117" lon="-2.050661669972259"><ele>17.0</ele><time>2026-04-05T10:47:51Z</time></trkpt><trkpt lat="48.634420109923006" lon="-2.0507238629692144"><ele>18.5</ele><time>2026-04-05T10:47:54Z</time></trkpt><trkpt lat="48.63446251941771" lon="-2.0508161235324653"><ele>20.0</ele><time>2026-04-05T10:47:57Z</time></trkpt><trkpt lat="48.63450960555204" lon="-2.0508906407384866"><ele>21.6</ele><time>2026-04-05T10:48:00Z</time></trkpt><trkpt lat="48.63459887600555" lon="-2.051013218773606"><ele>23.2</ele><time>2026-04-05T10:48:03Z</time></trkpt><trkpt lat="48.6346739239306" lon="-2.051103320656201"><ele>24.799999999999997</ele><time>2026-04-05T10:48:05Z</time></trkpt><trkpt lat="48.63473985191536" lon="-2.051216110349937"><ele>26.4</ele><time>2026-04-05T10:48:07Z</time></trkpt><trkpt lat="48.63478094410845" lon="-2.0512926524432733"><ele>28.0</ele><time>2026-04-05T10:48:09Z</time></trkpt><trkpt lat="48.63481421839144" lon="-2.0514057218813706"><ele>28.000000000000004</ele><time>2026-04-05T10:48:12Z</time></trkpt><trkpt lat="48.63488040643071" lon="-2.051497852135483"><ele>28.0</ele><time>2026-04-05T10:48:13Z</time></trkpt><trkpt lat="48.634926056539" lon="-2.0515678039170613"><ele>28.0</ele><time>2026-04-05T10:48:14Z</time></trkpt><trkpt lat="48.634972526888134" lon="-2.0516386489056067"><ele>28.0</ele><time>2026-04-05T10:48:15Z</time></trkpt><trkpt lat="48.635056060103345" lon="-2.0516810009432174"><ele>28.000000000000004</ele><time>2026-04-05T10:48:17Z</time></trkpt><trkpt lat="48.63510233105116" lon="-2.05174868216997"><ele>28.0</ele><time>2026-04-05T10:48:19Z</time></trkpt><trkpt lat="48.63516012532624" lon="-2.051869199351152"><ele>26.799999999999997</ele><time>2026-04-05T10:48:21Z</time></trkpt><trkpt lat="48.635180861359956" lon="-2.0519788574796256"><ele>25.599999999999998</ele><time>2026-04-05T10:48:22Z</time></trkpt><trkpt lat="48.63518792960727" lon="-2.0521468175307422"><ele>24.4</ele><time>2026-04-05T10:48:24Z</time></trkpt><trkpt lat="48.63519034545852" lon="-2.052318343629264"><ele>23.200000000000003</ele><time>2026-04-05T10:48:26Z</time></trkpt><trkpt lat="48.63519223816353" lon="-2.0525021462053537"><ele>22.0</ele><time>2026-04-05T10:48:28Z</time></trkpt><trkpt lat="48.63519416405529" lon="-2.0526891715822275"><ele>21.666666666666664</ele><time>2026-04-05T10:48:30Z</time></trkpt><trkpt lat="48.63519520536964" lon="-2.052860121672205"><ele>21.333333333333332</ele><time>2026-04-05T10:48:32Z</time></trkpt><trkpt lat="48.6351962011002" lon="-2.052982899253735"><ele>21.0</ele><time>2026-04-05T10:48:34Z</time></trkpt><trkpt lat="48.63519730521598" lon="-2.053108351851055"><ele>20.666666666666668</ele><time>2026-04-05T10:48:36Z</time></trkpt><trkpt lat="48.63519844935772" lon="-2.053238352348771"><ele>20.333333333333336</ele><time>2026-04-05T10:48:38Z</time></trkpt><trkpt lat="48.63519957913366" lon="-2.053366720345245"><ele>20.0</ele><time>2026-04-05T10:48:40Z</time></trkpt><trkpt lat="48.63517924649068" lon="-2.053481197262594"><ele>19.714285714285715</ele><time>2026-04-05T10:48:43Z</time></trkpt><trkpt lat="48.63521692367187" lon="-2.05356367372518"><ele>19.42857142857143</ele><time>2026-04-05T10:48:57Z</time></trkpt><trkpt lat="48.63521232201552" lon="-2.0536757233107417"><ele>19.142857142857146</ele><time>2026-04-05T10:49:00Z</time></trkpt><trkpt lat="48.63521443896724" lon="-2.0537769424096473"><ele>18.857142857142858</ele><time>2026-04-05T10:49:03Z</time></trkpt><trkpt lat="48.63521558304127" lon="-2.0538969013415116"><ele>18.571428571428573</ele><time>2026-04-05T10:49:06Z</time></trkpt><trkpt lat="48.63521585898174" lon="-2.0540113939647284"><ele>18.28571428571429</ele><time>2026-04-05T10:49:09Z</time></trkpt><trkpt lat="48.635211188394564" lon="-2.0541163915844916"><ele>18.0</ele><time>2026-04-05T10:49:12Z</time></trkpt><trkpt lat="48.63521110472343" lon="-2.0542355923708304"><ele>17.714285714285715</ele><time>2026-04-05T10:49:14.999Z</time></trkpt><trkpt lat="48.63520861508549" lon="-2.0543506549082458"><ele>17.42857142857143</ele><time>2026-04-05T10:49:17.999Z</time></trkpt><trkpt lat="48.63521372708728" lon="-2.054462851379195"><ele>17.142857142857142</ele><time>2026-04-05T10:49:21Z</time></trkpt><trkpt lat="48.635252086921554" lon="-2.054545293875183"><ele>16.857142857142858</ele><time>2026-04-05T10:49:25Z</time></trkpt><trkpt lat="48.6351811907978" lon="-2.0545857719362632"><ele>16.57142857142857</ele><time>2026-04-05T10:49:51Z</time></trkpt><trkpt lat="48.635149809278374" lon="-2.054682420034623"><ele>16.285714285714285</ele><time>2026-04-05T10:49:54Z</time></trkpt><trkpt lat="48.635117155978" lon="-2.0547917084116856"><ele>16.0</ele><time>2026-04-05T10:49:57Z</time></trkpt><trkpt lat="48.635105606751594" lon="-2.054907153223362"><ele>15.833333333333332</ele><time>2026-04-05T10:49:59Z</time></trkpt><trkpt lat="48.635095849447595" lon="-2.055008471183741"><ele>15.666666666666666</ele><time>2026-04-05T10:50:07Z</time></trkpt><trkpt lat="48.6351489917896" lon="-2.0550739693283075"><ele>15.5</ele><time>2026-04-05T10:50:15Z</time></trkpt><trkpt lat="48.63522447692548" lon="-2.0550482784835635"><ele>15.333333333333332</ele><time>2026-04-05T10:50:18Z</time></trkpt><trkpt lat="48.63529438785429" lon="-2.0550409651065604"><ele>15.166666666666666</ele><time>2026-04-05T10:50:52Z</time></trkpt><trkpt lat="48.63540575484595" lon="-2.0550151378026538"><ele>15.0</ele><time>2026-04-05T10:51:16.999Z</time></trkpt><trkpt lat="48.63553415060892" lon="-2.0549310908358946"><ele>14.0</ele><time>2026-04-05T10:51:51Z</time></trkpt><trkpt lat="48.6355915918757" lon="-2.0548748836204274"><ele>13.0</ele><time>2026-04-05T10:52:02Z</time></trkpt><trkpt lat="48.635611059688955" lon="-2.054730597808544"><ele>12.0</ele><time>2026-04-05T10:52:15Z</time></trkpt><trkpt lat="48.63558094190939" lon="-2.0546440316798202"><ele>11.0</ele><time>2026-04-05T10:52:38Z</time></trkpt><trkpt lat="48.63557516964023" lon="-2.0545405256476714"><ele>10.0</ele><time>2026-04-05T10:52:52Z</time></trkpt><trkpt lat="48.635559175176105" lon="-2.054438454490013"><ele>9.0</ele><time>2026-04-05T10:52:58Z</time></trkpt><trkpt lat="48.63554662761095" lon="-2.0543344065255655"><ele>8.0</ele><time>2026-04-05T10:53:06.999Z</time></trkpt><trkpt lat="48.635547642436215" lon="-2.054229468464726"><ele>8.0</ele><time>2026-04-05T10:53:12.999Z</time></trkpt><trkpt lat="48.6355290006728" lon="-2.054137191184537"><ele>7.999999999999999</ele><time>2026-04-05T10:53:20.999Z</time></trkpt><trkpt lat="48.635570588812755" lon="-2.0540654334219526"><ele>8.0</ele><time>2026-04-05T10:53:27.999Z</time></trkpt><trkpt lat="48.635580911744256" lon="-2.054168802185327"><ele>8.0</ele><time>2026-04-05T10:53:37Z</time></trkpt><trkpt lat="48.63558247347397" lon="-2.0542874262795436"><ele>7.999999999999999</ele><time>2026-04-05T10:53:45Z</time></trkpt><trkpt lat="48.635576788542174" lon="-2.0543914454915955"><ele>8.0</ele><time>2026-04-05T10:53:51Z</time></trkpt><trkpt lat="48.63557162467922" lon="-2.054489715679351"><ele>8.0</ele><time>2026-04-05T10:53:56Z</time></trkpt><trkpt lat="48.63556640869466" lon="-2.05459278580882"><ele>8.0</ele><time>2026-04-05T10:54:03Z</time></trkpt><trkpt lat="48.63552225599402" lon="-2.054696977469524"><ele>7.999999999999999</ele><time>2026-04-05T10:54:11Z</time></trkpt><trkpt lat="48.63553393400426" lon="-2.0547979045953153"><ele>8.0</ele><time>2026-04-05T10:54:38Z</time></trkpt><trkpt lat="48.635492895019595" lon="-2.0548834520172163"><ele>8.0</ele><time>2026-04-05T10:54:44Z</time></trkpt><trkpt lat="48.63544783292626" lon="-2.054968278439122"><ele>7.999999999999999</ele><time>2026-04-05T10:54:50.999Z</time></trkpt><trkpt lat="48.63539040022324" lon="-2.05501161452521"><ele>8.0</ele><time>2026-04-05T10:54:55.999Z</time></trkpt><trkpt lat="48.635329013487095" lon="-2.0550527869175457"><ele>8.0</ele><time>2026-04-05T10:55:02.999Z</time></trkpt><trkpt lat="48.63526079636885" lon="-2.0550470918689525"><ele>9.0</ele><time>2026-04-05T10:55:08.999Z</time></trkpt><trkpt lat="48.635197444062605" lon="-2.0550577781997235"><ele>10.0</ele><time>2026-04-05T10:55:16.999Z</time></trkpt><trkpt lat="48.63512682653276" lon="-2.0550817037360356"><ele>11.0</ele><time>2026-04-05T10:55:23.999Z</time></trkpt><trkpt lat="48.635057978046866" lon="-2.0550441970140803"><ele>12.0</ele><time>2026-04-05T10:55:30.999Z</time></trkpt><trkpt lat="48.63498783379695" lon="-2.055052691228292"><ele>13.0</ele><time>2026-04-05T10:55:34.999Z</time></trkpt><trkpt lat="48.63492592299012" lon="-2.0550891450590782"><ele>14.0</ele><time>2026-04-05T10:55:40.999Z</time></trkpt><trkpt lat="48.634994902795384" lon="-2.055098761427854"><ele>15.0</ele><time>2026-04-05T10:58:00Z</time></trkpt><trkpt lat="48.63506203393321" lon="-2.0551109041301894"><ele>15.0</ele><time>2026-04-05T10:58:07Z</time></trkpt><trkpt lat="48.635131714971315" lon="-2.0550845561630458"><ele>15.0</ele><time>2026-04-05T10:58:13Z</time></trkpt><trkpt lat="48.635191849559504" lon="-2.0550551522283467"><ele>15.0</ele><time>2026-04-05T10:58:19Z</time></trkpt><trkpt lat="48.635255391760715" lon="-2.055051778418257"><ele>15.0</ele><time>2026-04-05T10:58:42Z</time></trkpt><trkpt lat="48.63533751475885" lon="-2.0550379174578404"><ele>15.0</ele><time>2026-04-05T11:00:08Z</time></trkpt><trkpt lat="48.635420541174305" lon="-2.055057564485026"><ele>15.0</ele><time>2026-04-05T11:00:27Z</time></trkpt><trkpt lat="48.63545493759188" lon="-2.0549746784669045"><ele>15.0</ele><time>2026-04-05T11:01:42Z</time></trkpt><trkpt lat="48.63538253861235" lon="-2.0549505784939504"><ele>15.0</ele><time>2026-04-05T11:01:55.999Z</time></trkpt><trkpt lat="48.635313990183825" lon="-2.0549923838004007"><ele>15.0</ele><time>2026-04-05T11:02:02Z</time></trkpt><trkpt lat="48.635247424760536" lon="-2.0550165259983446"><ele>15.0</ele><time>2026-04-05T11:02:08Z</time></trkpt><trkpt lat="48.63518594001178" lon="-2.0550428449913913"><ele>15.0</ele><time>2026-04-05T11:02:13Z</time></trkpt><trkpt lat="48.63511268967536" lon="-2.0550431150805126"><ele>15.0</ele><time>2026-04-05T11:02:20Z</time></trkpt><trkpt lat="48.6350394506162" lon="-2.0550162290241802"><ele>15.0</ele><time>2026-04-05T11:02:25Z</time></trkpt><trkpt lat="48.63497600658177" lon="-2.0550130724505244"><ele>15.0</ele><time>2026-04-05T11:02:29Z</time></trkpt><trkpt lat="48.63491436184949" lon="-2.0550348966422227"><ele>15.0</ele><time>2026-04-05T11:02:33Z</time></trkpt><trkpt lat="48.634973591473106" lon="-2.055099204703167"><ele>15.0</ele><time>2026-04-05T11:02:45Z</time></trkpt><trkpt lat="48.63503774907817" lon="-2.0551022955873495"><ele>15.0</ele><time>2026-04-05T11:02:49Z</time></trkpt><trkpt lat="48.635108470942576" lon="-2.055113360600521"><ele>15.0</ele><time>2026-04-05T11:02:54Z</time></trkpt><trkpt lat="48.635184321852556" lon="-2.0550905115208358"><ele>15.0</ele><time>2026-04-05T11:02:59Z</time></trkpt><trkpt lat="48.635247589256544" lon="-2.0550701642531015"><ele>15.0</ele><time>2026-04-05T11:03:03Z</time></trkpt><trkpt lat="48.63531097272644" lon="-2.0550390327455803"><ele>15.0</ele><time>2026-04-05T11:03:08Z</time></trkpt><trkpt lat="48.63537615740796" lon="-2.055027960362887"><ele>9.0</ele><time>2026-04-05T11:03:13Z</time></trkpt><trkpt lat="48.63543918906252" lon="-2.0550162712022315"><ele>9.0</ele><time>2026-04-05T11:03:18Z</time></trkpt><trkpt lat="48.635493299829626" lon="-2.054961362742523"><ele>9.0</ele><time>2026-04-05T11:07:24Z</time></trkpt><trkpt lat="48.63546304661296" lon="-2.0548761243756504"><ele>8.0</ele><time>2026-04-05T11:07:33Z</time></trkpt></trkseg><trkseg><trkpt lat="48.63490686793441" lon="-2.0551248829858824"><ele>15.0</ele><time>2026-04-05T11:28:25Z</time></trkpt><trkpt lat="48.634887942737066" lon="-2.055228013304437"><ele>15.0</ele><time>2026-04-05T11:28:29Z</time></trkpt><trkpt lat="48.63485173026964" lon="-2.055354548741143"><ele>15.0</ele><time>2026-04-05T11:28:32Z</time></trkpt><trkpt lat="48.634825359607156" lon="-2.0554750923574523"><ele>15.0</ele><time>2026-04-05T11:28:34Z</time></trkpt><trkpt lat="48.634770005420286" lon="-2.055587412826549"><ele>15.0</ele><time>2026-04-05T11:28:36Z</time></trkpt><trkpt lat="48.63469368614556" lon="-2.055701262941723"><ele>15.0</ele><time>2026-04-05T11:28:38Z</time></trkpt><trkpt lat="48.634604031574675" lon="-2.0557762445232703"><ele>15.0</ele><time>2026-04-05T11:28:40Z</time></trkpt><trkpt lat="48.63451577157157" lon="-2.0558219927014934"><ele>15.0</ele><time>2026-04-05T11:28:42Z</time></trkpt><trkpt lat="48.63444615055864" lon="-2.0558760973334747"><ele>15.0</ele><time>2026-04-05T11:28:44Z</time></trkpt><trkpt lat="48.63436396119084" lon="-2.055939490669263"><ele>15.0</ele><time>2026-04-05T11:28:47Z</time></trkpt><trkpt lat="48.634276733701554" lon="-2.055974724676939"><ele>15.0</ele><time>2026-04-05T11:28:50Z</time></trkpt><trkpt lat="48.63417899008337" lon="-2.0559733759090437"><ele>14.666666666666666</ele><time>2026-04-05T11:28:53Z</time></trkpt><trkpt lat="48.63409836572588" lon="-2.0559542821675207"><ele>14.333333333333332</ele><time>2026-04-05T11:28:55Z</time></trkpt><trkpt lat="48.6340114077328" lon="-2.055947154004748"><ele>14.0</ele><time>2026-04-05T11:28:57Z</time></trkpt><trkpt lat="48.63393530660425" lon="-2.055961443354739"><ele>13.666666666666666</ele><time>2026-04-05T11:28:59Z</time></trkpt><trkpt lat="48.63386296234403" lon="-2.0559796959103656"><ele>13.333333333333332</ele><time>2026-04-05T11:29:01Z</time></trkpt><trkpt lat="48.6338055400014" lon="-2.05604792720231"><ele>13.0</ele><time>2026-04-05T11:29:03Z</time></trkpt><trkpt lat="48.6337525274134" lon="-2.0561361098581323"><ele>12.999999999999998</ele><time>2026-04-05T11:29:05Z</time></trkpt><trkpt lat="48.63370760865788" lon="-2.0562142358665785"><ele>13.0</ele><time>2026-04-05T11:29:07Z</time></trkpt><trkpt lat="48.63366319157368" lon="-2.0562963282327167"><ele>13.0</ele><time>2026-04-05T11:29:09Z</time></trkpt><trkpt lat="48.63362108155136" lon="-2.0564054371238103"><ele>13.0</ele><time>2026-04-05T11:29:11Z</time></trkpt><trkpt lat="48.633580049742235" lon="-2.0565405586740173"><ele>12.999999999999998</ele><time>2026-04-05T11:29:13Z</time></trkpt><trkpt lat="48.63355218543489" lon="-2.0566886112949283"><ele>13.0</ele><time>2026-04-05T11:29:15Z</time></trkpt><trkpt lat="48.63347846008196" lon="-2.0567562977429943"><ele>13.0</ele><time>2026-04-05T11:29:17Z</time></trkpt><trkpt lat="48.633362478845726" lon="-2.0567875367932866"><ele>13.0</ele><time>2026-04-05T11:29:19Z</time></trkpt><trkpt lat="48.6332570584707" lon="-2.0568307687242204"><ele>13.0</ele><time>2026-04-05T11:29:21Z</time></trkpt><trkpt lat="48.63315880256768" lon="-2.0568789387118027"><ele>13.0</ele><time>2026-04-05T11:29:23Z</time></trkpt><trkpt lat="48.63306814269876" lon="-2.056907832302183"><ele>13.0</ele><time>2026-04-05T11:29:25Z</time></trkpt><trkpt lat="48.63298796304828" lon="-2.056935347869276"><ele>13.0</ele><time>2026-04-05T11:29:27Z</time></trkpt><trkpt lat="48.63288900788758" lon="-2.0569123244385006"><ele>13.0</ele><time>2026-04-05T11:29:29Z</time></trkpt><trkpt lat="48.632786099768246" lon="-2.056889962081101"><ele>13.0</ele><time>2026-04-05T11:29:31Z</time></trkpt><trkpt lat="48.632700847208135" lon="-2.056885438397425"><ele>13.0</ele><time>2026-04-05T11:29:33Z</time></trkpt><trkpt lat="48.63261019920887" lon="-2.056874945353619"><ele>13.0</ele><time>2026-04-05T11:29:35Z</time></trkpt><trkpt lat="48.632517647730374" lon="-2.056845467205706"><ele>12.999999999999998</ele><time>2026-04-05T11:29:37Z</time></trkpt><trkpt lat="48.632452964836475" lon="-2.056802583855811"><ele>13.0</ele><time>2026-04-05T11:29:41Z</time></trkpt><trkpt lat="48.6323906995888" lon="-2.0567533405547866"><ele>13.0</ele><time>2026-04-05T11:29:43.999Z</time></trkpt><trkpt lat="48.63231967444964" lon="-2.0567895387482533"><ele>13.0</ele><time>2026-04-05T11:29:44.999Z</time></trkpt><trkpt lat="48.63221456992727" lon="-2.056693227240286"><ele>12.999999999999998</ele><time>2026-04-05T11:29:48.999Z</time></trkpt><trkpt lat="48.632144215912724" lon="-2.05668385583819"><ele>13.0</ele><time>2026-04-05T11:29:50.999Z</time></trkpt><trkpt lat="48.63205808152269" lon="-2.0566769433652556"><ele>13.0</ele><time>2026-04-05T11:29:52.999Z</time></trkpt><trkpt lat="48.63198735728986" lon="-2.0567286022898186"><ele>13.0</ele><time>2026-04-05T11:29:54.999Z</time></trkpt><trkpt lat="48.63187913048051" lon="-2.05678090358281"><ele>13.0</ele><time>2026-04-05T11:29:56.999Z</time></trkpt><trkpt lat="48.63180362836166" lon="-2.0568410736313796"><ele>13.0</ele><time>2026-04-05T11:29:58.999Z</time></trkpt><trkpt lat="48.631741016816804" lon="-2.056927596891674"><ele>13.0</ele><time>2026-04-05T11:30:00.999Z</time></trkpt><trkpt lat="48.63165842451796" lon="-2.057011548416947"><ele>13.166666666666666</ele><time>2026-04-05T11:30:02.999Z</time></trkpt><trkpt lat="48.63156807859018" lon="-2.057093654832908"><ele>13.333333333333332</ele><time>2026-04-05T11:30:04.999Z</time></trkpt><trkpt lat="48.63148033768986" lon="-2.05718033161847"><ele>13.5</ele><time>2026-04-05T11:30:06.999Z</time></trkpt><trkpt lat="48.63143007352942" lon="-2.0572505701616004"><ele>13.666666666666668</ele><time>2026-04-05T11:30:09.999Z</time></trkpt><trkpt lat="48.63134961924948" lon="-2.0573079936286813"><ele>13.833333333333334</ele><time>2026-04-05T11:30:11.999Z</time></trkpt><trkpt lat="48.63131929315482" lon="-2.057403445134429"><ele>14.0</ele><time>2026-04-05T11:30:13.999Z</time></trkpt><trkpt lat="48.631302077854194" lon="-2.0575034940443837"><ele>14.2</ele><time>2026-04-05T11:30:15.999Z</time></trkpt><trkpt lat="48.6312452915698" lon="-2.0575928227025773"><ele>14.399999999999999</ele><time>2026-04-05T11:30:17.999Z</time></trkpt><trkpt lat="48.6311853333931" lon="-2.05769239980221"><ele>14.6</ele><time>2026-04-05T11:30:20Z</time></trkpt><trkpt lat="48.631115131699886" lon="-2.0577884033444627"><ele>14.8</ele><time>2026-04-05T11:30:22Z</time></trkpt><trkpt lat="48.631027374538604" lon="-2.057895186003191"><ele>15.0</ele><time>2026-04-05T11:30:24Z</time></trkpt><trkpt lat="48.630945905498194" lon="-2.057986211045575"><ele>15.0</ele><time>2026-04-05T11:30:26Z</time></trkpt><trkpt lat="48.63087085390205" lon="-2.058064161638452"><ele>15.0</ele><time>2026-04-05T11:30:28Z</time></trkpt><trkpt lat="48.63080622712785" lon="-2.0581559981533637"><ele>15.0</ele><time>2026-04-05T11:30:30Z</time></trkpt><trkpt lat="48.63073883829768" lon="-2.05822817910197"><ele>15.0</ele><time>2026-04-05T11:30:32Z</time></trkpt><trkpt lat="48.63067781054286" lon="-2.058308943852516"><ele>15.0</ele><time>2026-04-05T11:30:34Z</time></trkpt><trkpt lat="48.6306475303522" lon="-2.058414640482021"><ele>15.0</ele><time>2026-04-05T11:30:37Z</time></trkpt><trkpt lat="48.63063209368613" lon="-2.0585145383390717"><ele>15.0</ele><time>2026-04-05T11:30:39Z</time></trkpt><trkpt lat="48.630600761316025" lon="-2.0586386394097294"><ele>15.0</ele><time>2026-04-05T11:30:41Z</time></trkpt><trkpt lat="48.63062378759656" lon="-2.0587426460101157"><ele>15.0</ele><time>2026-04-05T11:30:43Z</time></trkpt><trkpt lat="48.630616527662" lon="-2.058863232175841"><ele>15.0</ele><time>2026-04-05T11:30:45Z</time></trkpt><trkpt lat="48.63061772313007" lon="-2.0589801876086673"><ele>15.0</ele><time>2026-04-05T11:30:47Z</time></trkpt><trkpt lat="48.63063277025659" lon="-2.0591067273274675"><ele>15.0</ele><time>2026-04-05T11:30:49Z</time></trkpt><trkpt lat="48.63062909208484" lon="-2.05922064884168"><ele>15.5</ele><time>2026-04-05T11:30:51Z</time></trkpt><trkpt lat="48.63062086279312" lon="-2.0593346080922967"><ele>16.0</ele><time>2026-04-05T11:30:53Z</time></trkpt><trkpt lat="48.63061150271348" lon="-2.059447123228019"><ele>16.5</ele><time>2026-04-05T11:30:55Z</time></trkpt><trkpt lat="48.630622150150415" lon="-2.059568228998542"><ele>17.0</ele><time>2026-04-05T11:30:57Z</time></trkpt><trkpt lat="48.630629656793765" lon="-2.059710531811151"><ele>17.5</ele><time>2026-04-05T11:31:00Z</time></trkpt><trkpt lat="48.63065781318707" lon="-2.0598098172182255"><ele>18.0</ele><time>2026-04-05T11:31:02Z</time></trkpt><trkpt lat="48.63064763806337" lon="-2.0599276759939444"><ele>18.166666666666668</ele><time>2026-04-05T11:31:04Z</time></trkpt><trkpt lat="48.63063216855334" lon="-2.0600472536134475"><ele>18.333333333333332</ele><time>2026-04-05T11:31:06Z</time></trkpt><trkpt lat="48.630634439117266" lon="-2.0601566445445787"><ele>18.5</ele><time>2026-04-05T11:31:08Z</time></trkpt><trkpt lat="48.63064294602729" lon="-2.060285087934304"><ele>18.666666666666664</ele><time>2026-04-05T11:31:10Z</time></trkpt><trkpt lat="48.63062255712096" lon="-2.0603896254968035"><ele>18.833333333333332</ele><time>2026-04-05T11:31:14Z</time></trkpt><trkpt lat="48.63066257429749" lon="-2.0605021425543524"><ele>19.0</ele><time>2026-04-05T11:31:16Z</time></trkpt><trkpt lat="48.6306865251931" lon="-2.060633114833238"><ele>19.0</ele><time>2026-04-05T11:31:18Z</time></trkpt><trkpt lat="48.63068973384156" lon="-2.060769819369542"><ele>19.0</ele><time>2026-04-05T11:31:20Z</time></trkpt><trkpt lat="48.63068933472149" lon="-2.06088040725332"><ele>19.0</ele><time>2026-04-05T11:31:22Z</time></trkpt><trkpt lat="48.63068695847608" lon="-2.061015491349565"><ele>19.0</ele><time>2026-04-05T11:31:24Z</time></trkpt><trkpt lat="48.630679326156184" lon="-2.0611559692995205"><ele>19.0</ele><time>2026-04-05T11:31:26Z</time></trkpt><trkpt lat="48.630644151246756" lon="-2.0612395359471596"><ele>19.0</ele><time>2026-04-05T11:31:28Z</time></trkpt><trkpt lat="48.63062288129204" lon="-2.0613664339983826"><ele>19.0</ele><time>2026-04-05T11:31:44Z</time></trkpt><trkpt lat="48.630632861597505" lon="-2.0615027578211085"><ele>19.0</ele><time>2026-04-05T11:31:46.999Z</time></trkpt><trkpt lat="48.63063205917188" lon="-2.0616468071049163"><ele>19.0</ele><time>2026-04-05T11:31:49.999Z</time></trkpt><trkpt lat="48.630641204204494" lon="-2.061755755547502"><ele>19.0</ele><time>2026-04-05T11:31:51.999Z</time></trkpt><trkpt lat="48.63064563448479" lon="-2.0618589292579514"><ele>19.0</ele><time>2026-04-05T11:31:53.999Z</time></trkpt><trkpt lat="48.63065361222042" lon="-2.0619609554140976"><ele>19.0</ele><time>2026-04-05T11:31:55.999Z</time></trkpt><trkpt lat="48.63066247793911" lon="-2.062058618579806"><ele>19.166666666666664</ele><time>2026-04-05T11:31:57.999Z</time></trkpt><trkpt lat="48.63065891949315" lon="-2.0621585433111083"><ele>19.333333333333332</ele><time>2026-04-05T11:31:59.999Z</time></trkpt><trkpt lat="48.630670877557755" lon="-2.0622576257717915"><ele>19.5</ele><time>2026-04-05T11:32:01.999Z</time></trkpt><trkpt lat="48.6306754244737" lon="-2.062395129528194"><ele>19.666666666666668</ele><time>2026-04-05T11:32:04.999Z</time></trkpt><trkpt lat="48.63068649550787" lon="-2.0625447527941123"><ele>19.833333333333336</ele><time>2026-04-05T11:32:07.999Z</time></trkpt><trkpt lat="48.63067820778099" lon="-2.0626509529269716"><ele>20.0</ele><time>2026-04-05T11:32:09.999Z</time></trkpt><trkpt lat="48.63066996995671" lon="-2.062759517465002"><ele>20.833333333333336</ele><time>2026-04-05T11:32:11.999Z</time></trkpt><trkpt lat="48.63068879225928" lon="-2.0629143275133965"><ele>21.666666666666668</ele><time>2026-04-05T11:32:14.999Z</time></trkpt><trkpt lat="48.63069184521469" lon="-2.0630332370485585"><ele>22.5</ele><time>2026-04-05T11:32:16.999Z</time></trkpt><trkpt lat="48.63069556874773" lon="-2.063155189747817"><ele>23.333333333333336</ele><time>2026-04-05T11:32:18.999Z</time></trkpt><trkpt lat="48.630705981225944" lon="-2.063267682351896"><ele>24.166666666666668</ele><time>2026-04-05T11:32:20.999Z</time></trkpt><trkpt lat="48.63071913062525" lon="-2.063367021468173"><ele>25.0</ele><time>2026-04-05T11:32:22.999Z</time></trkpt><trkpt lat="48.630737310002516" lon="-2.063469912326361"><ele>25.666666666666668</ele><time>2026-04-05T11:32:25Z</time></trkpt><trkpt lat="48.63072775611592" lon="-2.0635922717045836"><ele>26.333333333333336</ele><time>2026-04-05T11:32:27Z</time></trkpt><trkpt lat="48.63073437770318" lon="-2.0636980800817444"><ele>27.0</ele><time>2026-04-05T11:32:29Z</time></trkpt><trkpt lat="48.630758082174964" lon="-2.0638223333275016"><ele>27.666666666666664</ele><time>2026-04-05T11:32:32Z</time></trkpt><trkpt lat="48.63070054835165" lon="-2.0639036495990863"><ele>28.333333333333332</ele><time>2026-04-05T11:32:34Z</time></trkpt><trkpt lat="48.63061550317917" lon="-2.0638537613552246"><ele>29.0</ele><time>2026-04-05T11:32:36Z</time></trkpt><trkpt lat="48.63057430693471" lon="-2.0637590836882667"><ele>28.999999999999996</ele><time>2026-04-05T11:32:38Z</time></trkpt><trkpt lat="48.63048223022102" lon="-2.0637617741334977"><ele>29.0</ele><time>2026-04-05T11:32:41Z</time></trkpt><trkpt lat="48.63056027754946" lon="-2.06373127580995"><ele>29.0</ele><time>2026-04-05T11:32:49Z</time></trkpt><trkpt lat="48.63063540699383" lon="-2.0637087443852855"><ele>29.0</ele><time>2026-04-05T11:32:52Z</time></trkpt><trkpt lat="48.630700779289754" lon="-2.063698784553249"><ele>28.999999999999996</ele><time>2026-04-05T11:32:54Z</time></trkpt><trkpt lat="48.630717284873825" lon="-2.063849346213471"><ele>29.0</ele><time>2026-04-05T11:32:57Z</time></trkpt><trkpt lat="48.63070384906955" lon="-2.063963495122511"><ele>28.999999999999996</ele><time>2026-04-05T11:32:59Z</time></trkpt><trkpt lat="48.63070415400831" lon="-2.06407226113503"><ele>29.0</ele><time>2026-04-05T11:33:01Z</time></trkpt><trkpt lat="48.63070243684944" lon="-2.064176604865583"><ele>29.0</ele><time>2026-04-05T11:33:04Z</time></trkpt><trkpt lat="48.63064511463654" lon="-2.064123919504483"><ele>29.0</ele><time>2026-04-05T11:33:06Z</time></trkpt><trkpt lat="48.63058826770121" lon="-2.0640396505309666"><ele>28.999999999999996</ele><time>2026-04-05T11:33:09Z</time></trkpt><trkpt lat="48.63052620414088" lon="-2.06400404272163"><ele>29.0</ele><time>2026-04-05T11:33:12Z</time></trkpt><trkpt lat="48.630624445753206" lon="-2.0640739579098883"><ele>29.166666666666664</ele><time>2026-04-05T11:33:34Z</time></trkpt><trkpt lat="48.630635527237985" lon="-2.0641859822886093"><ele>29.333333333333332</ele><time>2026-04-05T11:33:36Z</time></trkpt><trkpt lat="48.63064266217923" lon="-2.064322779376285"><ele>29.5</ele><time>2026-04-05T11:33:38Z</time></trkpt><trkpt lat="48.63064703963911" lon="-2.064440603854686"><ele>29.666666666666664</ele><time>2026-04-05T11:33:40Z</time></trkpt><trkpt lat="48.63065558799585" lon="-2.0645793322465975"><ele>29.833333333333332</ele><time>2026-04-05T11:33:42Z</time></trkpt><trkpt lat="48.63065695815557" lon="-2.0647069566694976"><ele>30.0</ele><time>2026-04-05T11:33:44Z</time></trkpt><trkpt lat="48.630640781964715" lon="-2.0648010334949936"><ele>30.0</ele><time>2026-04-05T11:33:46Z</time></trkpt><trkpt lat="48.630630605101786" lon="-2.064939082002069"><ele>30.0</ele><time>2026-04-05T11:33:47.999Z</time></trkpt><trkpt lat="48.6306406141732" lon="-2.065052386673029"><ele>30.0</ele><time>2026-04-05T11:33:49.999Z</time></trkpt><trkpt lat="48.63063127162211" lon="-2.065153265229656"><ele>30.0</ele><time>2026-04-05T11:33:51.999Z</time></trkpt><trkpt lat="48.630615577228795" lon="-2.0652601583163444"><ele>30.0</ele><time>2026-04-05T11:33:53.999Z</time></trkpt><trkpt lat="48.63059848424074" lon="-2.0653582886811894"><ele>30.0</ele><time>2026-04-05T11:33:55.999Z</time></trkpt><trkpt lat="48.63048880728881" lon="-2.065390481645129"><ele>30.2</ele><time>2026-04-05T11:33:58.999Z</time></trkpt><trkpt lat="48.630411036503354" lon="-2.0654088570253877"><ele>30.4</ele><time>2026-04-05T11:34:00.999Z</time></trkpt><trkpt lat="48.63031827903647" lon="-2.0653945234096986"><ele>30.6</ele><time>2026-04-05T11:34:02.999Z</time></trkpt><trkpt lat="48.630242977724244" lon="-2.0653619050428995"><ele>30.8</ele><time>2026-04-05T11:34:04.999Z</time></trkpt><trkpt lat="48.63015123264331" lon="-2.0653049485268107"><ele>31.0</ele><time>2026-04-05T11:34:06.999Z</time></trkpt><trkpt lat="48.63003894613958" lon="-2.065279470533598"><ele>31.0</ele><time>2026-04-05T11:34:08.999Z</time></trkpt><trkpt lat="48.629947450281705" lon="-2.0652017256708826"><ele>31.0</ele><time>2026-04-05T11:34:10.999Z</time></trkpt><trkpt lat="48.62984938966527" lon="-2.065133390356293"><ele>31.0</ele><time>2026-04-05T11:34:12.999Z</time></trkpt><trkpt lat="48.629750673291554" lon="-2.0651195649557814"><ele>31.0</ele><time>2026-04-05T11:34:14.999Z</time></trkpt><trkpt lat="48.62966267366057" lon="-2.06503472636153"><ele>31.0</ele><time>2026-04-05T11:34:16.999Z</time></trkpt><trkpt lat="48.6295680626315" lon="-2.0649355457677467"><ele>30.6</ele><time>2026-04-05T11:34:18.999Z</time></trkpt><trkpt lat="48.629480505254016" lon="-2.064870137597435"><ele>30.200000000000003</ele><time>2026-04-05T11:34:20.999Z</time></trkpt><trkpt lat="48.629396595311995" lon="-2.064838690308797"><ele>29.799999999999997</ele><time>2026-04-05T11:34:22.999Z</time></trkpt><trkpt lat="48.629299681062506" lon="-2.0647725979376"><ele>29.4</ele><time>2026-04-05T11:34:24.999Z</time></trkpt><trkpt lat="48.629198999760945" lon="-2.064708916340862"><ele>29.0</ele><time>2026-04-05T11:34:26.999Z</time></trkpt><trkpt lat="48.62911439024673" lon="-2.0645715681527976"><ele>29.0</ele><time>2026-04-05T11:34:28.999Z</time></trkpt><trkpt lat="48.62902398653697" lon="-2.064504020756337"><ele>29.0</ele><time>2026-04-05T11:34:31Z</time></trkpt><trkpt lat="48.62890805111364" lon="-2.0644434971864825"><ele>29.0</ele><time>2026-04-05T11:34:33Z</time></trkpt><trkpt lat="48.62881797783519" lon="-2.0643861776427745"><ele>29.0</ele><time>2026-04-05T11:34:35Z</time></trkpt><trkpt lat="48.628724519909674" lon="-2.064331077485601"><ele>29.0</ele><time>2026-04-05T11:34:37Z</time></trkpt><trkpt lat="48.628630296731316" lon="-2.064280698989413"><ele>29.2</ele><time>2026-04-05T11:34:39Z</time></trkpt><trkpt lat="48.628569812450664" lon="-2.0641376106742366"><ele>29.4</ele><time>2026-04-05T11:34:41Z</time></trkpt><trkpt lat="48.6284850325332" lon="-2.064044525974439"><ele>29.6</ele><time>2026-04-05T11:34:43Z</time></trkpt><trkpt lat="48.62842665150991" lon="-2.0639042922823934"><ele>29.8</ele><time>2026-04-05T11:34:45Z</time></trkpt><trkpt lat="48.62834410040837" lon="-2.063788963054119"><ele>30.0</ele><time>2026-04-05T11:34:47Z</time></trkpt><trkpt lat="48.62829841731059" lon="-2.063716765960239"><ele>30.0</ele><time>2026-04-05T11:34:49Z</time></trkpt><trkpt lat="48.628237072309396" lon="-2.063606451639951"><ele>30.0</ele><time>2026-04-05T11:34:52Z</time></trkpt><trkpt lat="48.62817363874511" lon="-2.0634923824053293"><ele>30.0</ele><time>2026-04-05T11:34:54Z</time></trkpt><trkpt lat="48.62810004212059" lon="-2.06340158665008"><ele>30.0</ele><time>2026-04-05T11:34:56Z</time></trkpt><trkpt lat="48.62805232573764" lon="-2.063323167057862"><ele>30.0</ele><time>2026-04-05T11:34:57Z</time></trkpt><trkpt lat="48.62799256657533" lon="-2.063259582183516"><ele>30.0</ele><time>2026-04-05T11:34:58Z</time></trkpt><trkpt lat="48.627931572839856" lon="-2.0631389441533443"><ele>30.0</ele><time>2026-04-05T11:35:00Z</time></trkpt><trkpt lat="48.627863180393135" lon="-2.0630377768462393"><ele>30.0</ele><time>2026-04-05T11:35:02Z</time></trkpt><trkpt lat="48.627791871532274" lon="-2.0629406500978273"><ele>30.0</ele><time>2026-04-05T11:35:04Z</time></trkpt><trkpt lat="48.62773662372944" lon="-2.0628729926620264"><ele>30.0</ele><time>2026-04-05T11:35:07Z</time></trkpt><trkpt lat="48.627670415199105" lon="-2.0628607445906075"><ele>30.0</ele><time>2026-04-05T11:35:09Z</time></trkpt><trkpt lat="48.627619600605406" lon="-2.062789866570014"><ele>30.0</ele><time>2026-04-05T11:35:11Z</time></trkpt><trkpt lat="48.62755406379183" lon="-2.0627249791728732"><ele>30.0</ele><time>2026-04-05T11:35:13Z</time></trkpt><trkpt lat="48.62747193179214" lon="-2.0626362437682775"><ele>30.0</ele><time>2026-04-05T11:35:15Z</time></trkpt><trkpt lat="48.62740534872824" lon="-2.062561339572045"><ele>30.0</ele><time>2026-04-05T11:35:16Z</time></trkpt><trkpt lat="48.62733268964458" lon="-2.0624086275601123"><ele>30.0</ele><time>2026-04-05T11:35:18Z</time></trkpt><trkpt lat="48.62722551973665" lon="-2.062317745722589"><ele>30.0</ele><time>2026-04-05T11:35:20Z</time></trkpt><trkpt lat="48.627120466781214" lon="-2.062233961344089"><ele>30.0</ele><time>2026-04-05T11:35:22Z</time></trkpt><trkpt lat="48.62701645152471" lon="-2.0621555059375596"><ele>30.0</ele><time>2026-04-05T11:35:24Z</time></trkpt><trkpt lat="48.62690407323369" lon="-2.062113365465468"><ele>30.0</ele><time>2026-04-05T11:35:26Z</time></trkpt><trkpt lat="48.6268045013595" lon="-2.062048084222537"><ele>30.0</ele><time>2026-04-05T11:35:28Z</time></trkpt><trkpt lat="48.626663297191456" lon="-2.061941624933221"><ele>30.2</ele><time>2026-04-05T11:35:34Z</time></trkpt><trkpt lat="48.626596750048996" lon="-2.061923034458499"><ele>30.4</ele><time>2026-04-05T11:35:36Z</time></trkpt><trkpt lat="48.62654589296035" lon="-2.0618510959530254"><ele>30.6</ele><time>2026-04-05T11:35:39Z</time></trkpt><trkpt lat="48.62658668351247" lon="-2.061525142217773"><ele>30.8</ele><time>2026-04-05T11:35:44Z</time></trkpt><trkpt lat="48.62658619295164" lon="-2.0614128291340714"><ele>31.0</ele><time>2026-04-05T11:35:48Z</time></trkpt><trkpt lat="48.62661982083834" lon="-2.061328299967045"><ele>31.0</ele><time>2026-04-05T11:35:51Z</time></trkpt><trkpt lat="48.626630039182885" lon="-2.061427891984806"><ele>31.000000000000004</ele><time>2026-04-05T11:35:53.999Z</time></trkpt><trkpt lat="48.62660290525452" lon="-2.0615290002629783"><ele>31.0</ele><time>2026-04-05T11:35:57.999Z</time></trkpt><trkpt lat="48.62658733921246" lon="-2.0616325393430617"><ele>31.0</ele><time>2026-04-05T11:36:02.999Z</time></trkpt><trkpt lat="48.62657809864607" lon="-2.0617399048617147"><ele>31.000000000000004</ele><time>2026-04-05T11:36:07.999Z</time></trkpt><trkpt lat="48.62661567468215" lon="-2.0618355073984356"><ele>31.0</ele><time>2026-04-05T11:36:10.999Z</time></trkpt><trkpt lat="48.62667724886828" lon="-2.061862797962621"><ele>31.0</ele><time>2026-04-05T11:36:13.999Z</time></trkpt><trkpt lat="48.62674745772624" lon="-2.0618943614995855"><ele>31.142857142857146</ele><time>2026-04-05T11:36:16.999Z</time></trkpt><trkpt lat="48.62680871807283" lon="-2.0619251351264687"><ele>31.28571428571429</ele><time>2026-04-05T11:36:18.999Z</time></trkpt><trkpt lat="48.626879512136085" lon="-2.0619585533355793"><ele>31.42857142857143</ele><time>2026-04-05T11:36:20.999Z</time></trkpt><trkpt lat="48.626944671784614" lon="-2.0620069259891527"><ele>31.57142857142857</ele><time>2026-04-05T11:36:22.999Z</time></trkpt><trkpt lat="48.62700712846675" lon="-2.062032883004218"><ele>31.71428571428571</ele><time>2026-04-05T11:36:48Z</time></trkpt><trkpt lat="48.626932785627126" lon="-2.0620651645350723"><ele>31.857142857142854</ele><time>2026-04-05T11:36:57Z</time></trkpt><trkpt lat="48.62685857464857" lon="-2.0620635616451977"><ele>32.0</ele><time>2026-04-05T11:36:59Z</time></trkpt><trkpt lat="48.626791091263506" lon="-2.062014407570354"><ele>32.0</ele><time>2026-04-05T11:37:01Z</time></trkpt><trkpt lat="48.626716581250655" lon="-2.061992032422005"><ele>31.999999999999996</ele><time>2026-04-05T11:37:03Z</time></trkpt><trkpt lat="48.626658364277034" lon="-2.061948362827789"><ele>32.0</ele><time>2026-04-05T11:37:05Z</time></trkpt><trkpt lat="48.62659746492166" lon="-2.0619008021962744"><ele>32.0</ele><time>2026-04-05T11:37:07Z</time></trkpt><trkpt lat="48.62653303294637" lon="-2.061815488138471"><ele>31.999999999999996</ele><time>2026-04-05T11:37:10Z</time></trkpt><trkpt lat="48.626527147763866" lon="-2.061715879105556"><ele>32.0</ele><time>2026-04-05T11:37:12Z</time></trkpt><trkpt lat="48.62653728328761" lon="-2.061595513003439"><ele>32.0</ele><time>2026-04-05T11:37:15Z</time></trkpt><trkpt lat="48.62656403890684" lon="-2.0614601599027265"><ele>31.833333333333332</ele><time>2026-04-05T11:37:18Z</time></trkpt><trkpt lat="48.626581387087555" lon="-2.0613602483821647"><ele>31.666666666666664</ele><time>2026-04-05T11:37:20Z</time></trkpt><trkpt lat="48.62663565139321" lon="-2.0612736030630723"><ele>31.5</ele><time>2026-04-05T11:37:23Z</time></trkpt><trkpt lat="48.62663811065429" lon="-2.0611621665626934"><ele>31.333333333333336</ele><time>2026-04-05T11:37:26Z</time></trkpt><trkpt lat="48.62671292740537" lon="-2.061156196483328"><ele>31.166666666666668</ele><time>2026-04-05T11:38:05.999Z</time></trkpt><trkpt lat="48.626762969532365" lon="-2.061050730054873"><ele>31.0</ele><time>2026-04-05T11:38:08.999Z</time></trkpt><trkpt lat="48.6268046047338" lon="-2.0609343702371126"><ele>31.0</ele><time>2026-04-05T11:38:10.999Z</time></trkpt><trkpt lat="48.62686134967869" lon="-2.060806010534472"><ele>31.0</ele><time>2026-04-05T11:38:12.999Z</time></trkpt><trkpt lat="48.626956887282184" lon="-2.060747097166795"><ele>31.0</ele><time>2026-04-05T11:38:14.999Z</time></trkpt><trkpt lat="48.62705079770775" lon="-2.060709059772435"><ele>31.0</ele><time>2026-04-05T11:38:16.999Z</time></trkpt><trkpt lat="48.62716060130196" lon="-2.0606840193686944"><ele>31.0</ele><time>2026-04-05T11:38:18.999Z</time></trkpt><trkpt lat="48.62730118896387" lon="-2.060669444141964"><ele>30.857142857142858</ele><time>2026-04-05T11:38:22.999Z</time></trkpt><trkpt lat="48.6273682776397" lon="-2.0606707844509846"><ele>30.714285714285715</ele><time>2026-04-05T11:38:25.999Z</time></trkpt><trkpt lat="48.62744657800182" lon="-2.0606752278849347"><ele>30.571428571428573</ele><time>2026-04-05T11:38:29.999Z</time></trkpt><trkpt lat="48.62751094060266" lon="-2.0607692427866326"><ele>30.42857142857143</ele><time>2026-04-05T11:38:49Z</time></trkpt><trkpt lat="48.6274357306665" lon="-2.0607815612822207"><ele>30.285714285714285</ele><time>2026-04-05T11:38:58Z</time></trkpt><trkpt lat="48.627377973057285" lon="-2.0608263805316716"><ele>30.142857142857146</ele><time>2026-04-05T11:39:07Z</time></trkpt><trkpt lat="48.62734836045087" lon="-2.0607399042046244"><ele>30.0</ele><time>2026-04-05T11:39:46Z</time></trkpt><trkpt lat="48.62728168061086" lon="-2.060704241652462"><ele>30.0</ele><time>2026-04-05T11:39:50Z</time></trkpt><trkpt lat="48.627188590702524" lon="-2.060742645816136"><ele>30.0</ele><time>2026-04-05T11:39:53Z</time></trkpt><trkpt lat="48.62711672923302" lon="-2.06075285475879"><ele>30.0</ele><time>2026-04-05T11:39:55Z</time></trkpt><trkpt lat="48.6270422631249" lon="-2.0607869609006033"><ele>30.0</ele><time>2026-04-05T11:39:57Z</time></trkpt><trkpt lat="48.62696351055093" lon="-2.0608228412404057"><ele>30.0</ele><time>2026-04-05T11:39:58.999Z</time></trkpt><trkpt lat="48.62688888929461" lon="-2.0608685923072514"><ele>30.0</ele><time>2026-04-05T11:40:00.999Z</time></trkpt><trkpt lat="48.62683158760132" lon="-2.0609519767370874"><ele>30.166666666666668</ele><time>2026-04-05T11:40:02.999Z</time></trkpt><trkpt lat="48.62678934934736" lon="-2.061045336684697"><ele>30.333333333333336</ele><time>2026-04-05T11:40:04.999Z</time></trkpt><trkpt lat="48.62674832113682" lon="-2.0611381694061612"><ele>30.5</ele><time>2026-04-05T11:40:06.999Z</time></trkpt><trkpt lat="48.626699693510865" lon="-2.0612238478016796"><ele>30.666666666666668</ele><time>2026-04-05T11:40:08.999Z</time></trkpt><trkpt lat="48.626655333231604" lon="-2.061299615594418"><ele>30.833333333333336</ele><time>2026-04-05T11:40:10.999Z</time></trkpt><trkpt lat="48.62660384147578" lon="-2.0614099284339047"><ele>31.0</ele><time>2026-04-05T11:40:13.999Z</time></trkpt><trkpt lat="48.62657398043018" lon="-2.06152456607186"><ele>31.166666666666668</ele><time>2026-04-05T11:40:16.999Z</time></trkpt><trkpt lat="48.62654420066373" lon="-2.0616428460073912"><ele>31.333333333333336</ele><time>2026-04-05T11:40:19.999Z</time></trkpt><trkpt lat="48.62654438304068" lon="-2.0617659078900017"><ele>31.5</ele><time>2026-04-05T11:40:22.999Z</time></trkpt><trkpt lat="48.62658809658565" lon="-2.061843438975284"><ele>31.666666666666664</ele><time>2026-04-05T11:40:24.999Z</time></trkpt><trkpt lat="48.62667461795279" lon="-2.0618978619077044"><ele>31.833333333333332</ele><time>2026-04-05T11:40:26.999Z</time></trkpt><trkpt lat="48.62677866610747" lon="-2.061945189470796"><ele>32.0</ele><time>2026-04-05T11:40:28.999Z</time></trkpt><trkpt lat="48.62687723403271" lon="-2.061995794899056"><ele>32.0</ele><time>2026-04-05T11:40:30.999Z</time></trkpt><trkpt lat="48.6269713866612" lon="-2.0620459858379983"><ele>32.0</ele><time>2026-04-05T11:40:32.999Z</time></trkpt><trkpt lat="48.62706206798416" lon="-2.0621062063680498"><ele>32.0</ele><time>2026-04-05T11:40:34.999Z</time></trkpt><trkpt lat="48.62716547665301" lon="-2.0621890630286517"><ele>32.0</ele><time>2026-04-05T11:40:37.999Z</time></trkpt><trkpt lat="48.62733438503088" lon="-2.062324757047239"><ele>32.0</ele><time>2026-04-05T11:40:40.999Z</time></trkpt><trkpt lat="48.62742379733714" lon="-2.0623919503606967"><ele>32.0</ele><time>2026-04-05T11:40:42.999Z</time></trkpt><trkpt lat="48.62749682394535" lon="-2.062467557661305"><ele>32.0</ele><time>2026-04-05T11:40:44.999Z</time></trkpt><trkpt lat="48.62755957303546" lon="-2.0625395241596793"><ele>32.0</ele><time>2026-04-05T11:40:46.999Z</time></trkpt><trkpt lat="48.62762729014017" lon="-2.0626297782384806"><ele>32.0</ele><time>2026-04-05T11:40:49Z</time></trkpt><trkpt lat="48.62770848153171" lon="-2.0627294380223637"><ele>31.999999999999996</ele><time>2026-04-05T11:40:51Z</time></trkpt><trkpt lat="48.62777636011646" lon="-2.062838642426966"><ele>32.0</ele><time>2026-04-05T11:40:53Z</time></trkpt><trkpt lat="48.627844752052326" lon="-2.0629351898456876"><ele>32.0</ele><time>2026-04-05T11:40:55Z</time></trkpt><trkpt lat="48.62791037798562" lon="-2.0630021448802305"><ele>32.0</ele><time>2026-04-05T11:40:57Z</time></trkpt><trkpt lat="48.6279483997979" lon="-2.0630976918629136"><ele>31.999999999999996</ele><time>2026-04-05T11:40:59Z</time></trkpt><trkpt lat="48.62802825837461" lon="-2.063082826176411"><ele>32.0</ele><time>2026-04-05T11:41:03Z</time></trkpt><trkpt lat="48.628057436066975" lon="-2.062979138691643"><ele>31.999999999999996</ele><time>2026-04-05T11:41:07Z</time></trkpt><trkpt lat="48.62809398030313" lon="-2.0628651020923177"><ele>32.0</ele><time>2026-04-05T11:41:10Z</time></trkpt><trkpt lat="48.62809534624469" lon="-2.062760103821287"><ele>32.0</ele><time>2026-04-05T11:41:14Z</time></trkpt><trkpt lat="48.62802458057773" lon="-2.0627247829922397"><ele>32.0</ele><time>2026-04-05T11:41:17Z</time></trkpt><trkpt lat="48.62793731720537" lon="-2.062645112058268"><ele>31.999999999999996</ele><time>2026-04-05T11:41:20Z</time></trkpt><trkpt lat="48.62784336810856" lon="-2.062574134345641"><ele>32.0</ele><time>2026-04-05T11:41:22Z</time></trkpt><trkpt lat="48.62776841990779" lon="-2.0625135271246706"><ele>31.666666666666664</ele><time>2026-04-05T11:41:24Z</time></trkpt><trkpt lat="48.62771194684053" lon="-2.0624403954508588"><ele>31.333333333333332</ele><time>2026-04-05T11:41:26Z</time></trkpt><trkpt lat="48.62764683687984" lon="-2.062338234636836"><ele>31.0</ele><time>2026-04-05T11:41:28Z</time></trkpt><trkpt lat="48.62760075570224" lon="-2.0622361510413456"><ele>30.666666666666664</ele><time>2026-04-05T11:41:30Z</time></trkpt><trkpt lat="48.62757565285962" lon="-2.0621409756920532"><ele>30.333333333333332</ele><time>2026-04-05T11:41:32Z</time></trkpt><trkpt lat="48.627614581944385" lon="-2.0620509632721755"><ele>30.0</ele><time>2026-04-05T11:41:34Z</time></trkpt><trkpt lat="48.62764154111725" lon="-2.061953283633241"><ele>30.0</ele><time>2026-04-05T11:41:36Z</time></trkpt><trkpt lat="48.6276195630635" lon="-2.0618126707460744"><ele>30.0</ele><time>2026-04-05T11:41:39Z</time></trkpt><trkpt lat="48.627547800211126" lon="-2.0617479909894074"><ele>30.0</ele><time>2026-04-05T11:41:41Z</time></trkpt><trkpt lat="48.62747069283188" lon="-2.0617264692571116"><ele>30.0</ele><time>2026-04-05T11:41:43Z</time></trkpt><trkpt lat="48.62741063496712" lon="-2.061677083344408"><ele>30.0</ele><time>2026-04-05T11:41:48Z</time></trkpt><trkpt lat="48.62735834450285" lon="-2.0618004551926794"><ele>30.0</ele><time>2026-04-05T11:41:51Z</time></trkpt><trkpt lat="48.627331442065085" lon="-2.0618956924928065"><ele>30.0</ele><time>2026-04-05T11:41:53Z</time></trkpt><trkpt lat="48.62726702104414" lon="-2.0619177094931986"><ele>30.0</ele><time>2026-04-05T11:41:55Z</time></trkpt><trkpt lat="48.62716470908565" lon="-2.0618580790076737"><ele>30.0</ele><time>2026-04-05T11:41:57Z</time></trkpt><trkpt lat="48.62706605203133" lon="-2.061800618537058"><ele>30.0</ele><time>2026-04-05T11:41:59Z</time></trkpt><trkpt lat="48.62693594914971" lon="-2.0620780855318688"><ele>30.5</ele><time>2026-04-05T11:42:00Z</time></trkpt><trkpt lat="48.62682822702713" lon="-2.0620161736118394"><ele>31.0</ele><time>2026-04-05T11:42:01.999Z</time></trkpt><trkpt lat="48.62671024124417" lon="-2.0619477896433223"><ele>31.5</ele><time>2026-04-05T11:42:03.999Z</time></trkpt><trkpt lat="48.62659724524445" lon="-2.0618788441880804"><ele>32.0</ele><time>2026-04-05T11:42:05.999Z</time></trkpt><trkpt lat="48.62649609476047" lon="-2.0618268004214206"><ele>31.0</ele><time>2026-04-05T11:42:07.999Z</time></trkpt><trkpt lat="48.62608387023893" lon="-2.0613560599892566"><ele>31.0</ele><time>2026-04-05T11:42:16.999Z</time></trkpt><trkpt lat="48.62597469907593" lon="-2.061318880805504"><ele>31.0</ele><time>2026-04-05T11:42:18.999Z</time></trkpt><trkpt lat="48.62585424713245" lon="-2.061295743476751"><ele>31.0</ele><time>2026-04-05T11:42:20.999Z</time></trkpt><trkpt lat="48.62574482411739" lon="-2.061265068073786"><ele>31.0</ele><time>2026-04-05T11:42:22.999Z</time></trkpt><trkpt lat="48.625632361128716" lon="-2.061239853638815"><ele>31.0</ele><time>2026-04-05T11:42:24.999Z</time></trkpt><trkpt lat="48.62551810863311" lon="-2.061230368750478"><ele>31.0</ele><time>2026-04-05T11:42:26.999Z</time></trkpt><trkpt lat="48.62540482120108" lon="-2.061218375421433"><ele>31.0</ele><time>2026-04-05T11:42:28.999Z</time></trkpt><trkpt lat="48.625286890247956" lon="-2.0612157310888075"><ele>31.0</ele><time>2026-04-05T11:42:30.999Z</time></trkpt><trkpt lat="48.62522230747009" lon="-2.061210603384131"><ele>31.0</ele><time>2026-04-05T11:42:31.999Z</time></trkpt><trkpt lat="48.625114414395235" lon="-2.061210474012884"><ele>30.75</ele><time>2026-04-05T11:42:33.999Z</time></trkpt><trkpt lat="48.62500348703069" lon="-2.061229204235492"><ele>30.5</ele><time>2026-04-05T11:42:35.999Z</time></trkpt><trkpt lat="48.62487998686447" lon="-2.061241709236067"><ele>30.25</ele><time>2026-04-05T11:42:37.999Z</time></trkpt><trkpt lat="48.62476411967303" lon="-2.0612536921672464"><ele>30.0</ele><time>2026-04-05T11:42:39.999Z</time></trkpt><trkpt lat="48.624648539363534" lon="-2.061278886013217"><ele>30.0</ele><time>2026-04-05T11:42:41.999Z</time></trkpt><trkpt lat="48.624529741264006" lon="-2.0613043707197356"><ele>30.0</ele><time>2026-04-05T11:42:43.999Z</time></trkpt><trkpt lat="48.62441725094485" lon="-2.0613383298985455"><ele>30.0</ele><time>2026-04-05T11:42:45.999Z</time></trkpt><trkpt lat="48.6243011994162" lon="-2.0613665920265616"><ele>30.0</ele><time>2026-04-05T11:42:47.999Z</time></trkpt><trkpt lat="48.62418790970783" lon="-2.061400901562917"><ele>30.4</ele><time>2026-04-05T11:42:49.999Z</time></trkpt><trkpt lat="48.62407492262971" lon="-2.0614375242535523"><ele>30.8</ele><time>2026-04-05T11:42:51.999Z</time></trkpt><trkpt lat="48.6239674057317" lon="-2.0614752375263214"><ele>31.200000000000003</ele><time>2026-04-05T11:42:53.999Z</time></trkpt><trkpt lat="48.62386720367045" lon="-2.0615277817321775"><ele>31.6</ele><time>2026-04-05T11:42:56Z</time></trkpt><trkpt lat="48.62375794539166" lon="-2.061563118706537"><ele>32.0</ele><time>2026-04-05T11:42:58Z</time></trkpt><trkpt lat="48.62365127753445" lon="-2.0616104415782566"><ele>32.166666666666664</ele><time>2026-04-05T11:43:00Z</time></trkpt><trkpt lat="48.62355438224192" lon="-2.061647563430827"><ele>32.33333333333333</ele><time>2026-04-05T11:43:02Z</time></trkpt><trkpt lat="48.62345650886309" lon="-2.0616793844236128"><ele>32.5</ele><time>2026-04-05T11:43:07Z</time></trkpt><trkpt lat="48.62341827742698" lon="-2.061756579987954"><ele>32.666666666666664</ele><time>2026-04-05T11:43:10Z</time></trkpt><trkpt lat="48.623351324221105" lon="-2.0617613617759325"><ele>32.833333333333336</ele><time>2026-04-05T11:43:12Z</time></trkpt><trkpt lat="48.62328568463522" lon="-2.0617407090811235"><ele>33.0</ele><time>2026-04-05T11:43:14Z</time></trkpt><trkpt lat="48.623208986567" lon="-2.06175329370937"><ele>33.0</ele><time>2026-04-05T11:43:16Z</time></trkpt><trkpt lat="48.623120473674184" lon="-2.0618024933013164"><ele>33.0</ele><time>2026-04-05T11:43:18Z</time></trkpt><trkpt lat="48.62302760652598" lon="-2.061845425063186"><ele>33.0</ele><time>2026-04-05T11:43:20Z</time></trkpt><trkpt lat="48.62292491170133" lon="-2.06189517422355"><ele>33.0</ele><time>2026-04-05T11:43:22Z</time></trkpt><trkpt lat="48.622828644603466" lon="-2.061942641451311"><ele>33.0</ele><time>2026-04-05T11:43:24Z</time></trkpt><trkpt lat="48.62271732553146" lon="-2.06197355702994"><ele>34.0</ele><time>2026-04-05T11:43:26Z</time></trkpt><trkpt lat="48.62261392828785" lon="-2.0620103465399438"><ele>35.0</ele><time>2026-04-05T11:43:28Z</time></trkpt><trkpt lat="48.62250423499331" lon="-2.0620534443090217"><ele>36.0</ele><time>2026-04-05T11:43:30Z</time></trkpt><trkpt lat="48.622392377758764" lon="-2.0621030995559937"><ele>37.0</ele><time>2026-04-05T11:43:32Z</time></trkpt><trkpt lat="48.62228082463681" lon="-2.0621448136652765"><ele>37.0</ele><time>2026-04-05T11:43:34Z</time></trkpt><trkpt lat="48.62216825105077" lon="-2.06219370769989"><ele>37.0</ele><time>2026-04-05T11:43:36Z</time></trkpt><trkpt lat="48.622056319191564" lon="-2.062233070288088"><ele>37.0</ele><time>2026-04-05T11:43:38Z</time></trkpt><trkpt lat="48.621945675204266" lon="-2.0622697799742835"><ele>37.0</ele><time>2026-04-05T11:43:40Z</time></trkpt><trkpt lat="48.62183742685513" lon="-2.062312354942545"><ele>37.2</ele><time>2026-04-05T11:43:42Z</time></trkpt><trkpt lat="48.621733391904705" lon="-2.0623600295733104"><ele>37.400000000000006</ele><time>2026-04-05T11:43:44Z</time></trkpt><trkpt lat="48.621627518932" lon="-2.0623962340574034"><ele>37.599999999999994</ele><time>2026-04-05T11:43:46Z</time></trkpt><trkpt lat="48.62152360318767" lon="-2.0624342905392954"><ele>37.8</ele><time>2026-04-05T11:43:48Z</time></trkpt><trkpt lat="48.62142223098513" lon="-2.0624789575941955"><ele>38.0</ele><time>2026-04-05T11:43:50Z</time></trkpt><trkpt lat="48.62131772412615" lon="-2.062515398726227"><ele>38.0</ele><time>2026-04-05T11:43:52Z</time></trkpt><trkpt lat="48.621241487948204" lon="-2.0625392150106983"><ele>38.0</ele><time>2026-04-05T11:43:54Z</time></trkpt><trkpt lat="48.621172733100465" lon="-2.0625581365282715"><ele>38.0</ele><time>2026-04-05T11:43:55Z</time></trkpt><trkpt lat="48.621112338427174" lon="-2.0625942170949223"><ele>38.0</ele><time>2026-04-05T11:43:56Z</time></trkpt><trkpt lat="48.62100703524242" lon="-2.062631686155095"><ele>38.0</ele><time>2026-04-05T11:43:58Z</time></trkpt><trkpt lat="48.62089355745762" lon="-2.062662187298271"><ele>38.0</ele><time>2026-04-05T11:44:00Z</time></trkpt><trkpt lat="48.620788086283696" lon="-2.0627078099828204"><ele>38.5</ele><time>2026-04-05T11:44:02Z</time></trkpt><trkpt lat="48.620661772695264" lon="-2.0627618500337634"><ele>39.0</ele><time>2026-04-05T11:44:04Z</time></trkpt><trkpt lat="48.62054553017436" lon="-2.0628026156809156"><ele>39.5</ele><time>2026-04-05T11:44:06Z</time></trkpt><trkpt lat="48.62043513018794" lon="-2.062834547400117"><ele>40.0</ele><time>2026-04-05T11:44:08Z</time></trkpt><trkpt lat="48.6203254286656" lon="-2.0628833222894936"><ele>40.5</ele><time>2026-04-05T11:44:10Z</time></trkpt><trkpt lat="48.62021134798649" lon="-2.062932168354546"><ele>41.0</ele><time>2026-04-05T11:44:11.999Z</time></trkpt><trkpt lat="48.620098449462645" lon="-2.062970596072908"><ele>41.5</ele><time>2026-04-05T11:44:13.999Z</time></trkpt><trkpt lat="48.61998715742396" lon="-2.063021584679211"><ele>42.0</ele><time>2026-04-05T11:44:15.999Z</time></trkpt><trkpt lat="48.619873972376816" lon="-2.0630802829270505"><ele>42.0</ele><time>2026-04-05T11:44:17.999Z</time></trkpt><trkpt lat="48.61976264576562" lon="-2.063110319887665"><ele>42.0</ele><time>2026-04-05T11:44:19.999Z</time></trkpt><trkpt lat="48.61966115409917" lon="-2.063126661642667"><ele>42.0</ele><time>2026-04-05T11:44:21.999Z</time></trkpt><trkpt lat="48.619549194056056" lon="-2.0631478973831294"><ele>42.0</ele><time>2026-04-05T11:44:23.999Z</time></trkpt><trkpt lat="48.61948874822989" lon="-2.0631801630629876"><ele>42.0</ele><time>2026-04-05T11:44:24.999Z</time></trkpt><trkpt lat="48.61937588787557" lon="-2.0632210843502574"><ele>42.25</ele><time>2026-04-05T11:44:26.999Z</time></trkpt><trkpt lat="48.6192643400858" lon="-2.0632746615473336"><ele>42.5</ele><time>2026-04-05T11:44:28.999Z</time></trkpt><trkpt lat="48.61916271148783" lon="-2.0633101189542993"><ele>42.75</ele><time>2026-04-05T11:44:30.999Z</time></trkpt><trkpt lat="48.61904740992449" lon="-2.0633627527611256"><ele>43.0</ele><time>2026-04-05T11:44:32.999Z</time></trkpt><trkpt lat="48.61894036063702" lon="-2.0634193054354584"><ele>43.5</ele><time>2026-04-05T11:44:34.999Z</time></trkpt><trkpt lat="48.61883214198008" lon="-2.0634394381242673"><ele>44.0</ele><time>2026-04-05T11:44:36.999Z</time></trkpt><trkpt lat="48.618721336677055" lon="-2.0634755621035"><ele>44.5</ele><time>2026-04-05T11:44:38.999Z</time></trkpt><trkpt lat="48.618606918945005" lon="-2.0635111851035437"><ele>45.0</ele><time>2026-04-05T11:44:40.999Z</time></trkpt><trkpt lat="48.618498333015644" lon="-2.063561334059744"><ele>45.0</ele><time>2026-04-05T11:44:42.999Z</time></trkpt><trkpt lat="48.618394843793574" lon="-2.063599898386115"><ele>45.0</ele><time>2026-04-05T11:44:44.999Z</time></trkpt><trkpt lat="48.61833140132005" lon="-2.063617055993258"><ele>45.0</ele><time>2026-04-05T11:44:45.999Z</time></trkpt><trkpt lat="48.6182275566774" lon="-2.063662665817837"><ele>45.0</ele><time>2026-04-05T11:44:47.999Z</time></trkpt><trkpt lat="48.61816862505132" lon="-2.063697381343088"><ele>45.0</ele><time>2026-04-05T11:44:49.999Z</time></trkpt><trkpt lat="48.61810688422615" lon="-2.06371669780816"><ele>45.0</ele><time>2026-04-05T11:44:50.999Z</time></trkpt><trkpt lat="48.61801568834775" lon="-2.0637470726720073"><ele>45.0</ele><time>2026-04-05T11:44:53.999Z</time></trkpt><trkpt lat="48.61794667607711" lon="-2.063739575442088"><ele>45.0</ele><time>2026-04-05T11:44:55.999Z</time></trkpt><trkpt lat="48.61789062872761" lon="-2.0637898185853807"><ele>45.0</ele><time>2026-04-05T11:44:57.999Z</time></trkpt><trkpt lat="48.617817653239904" lon="-2.063773334144927"><ele>45.0</ele><time>2026-04-05T11:44:59.999Z</time></trkpt><trkpt lat="48.61774187563084" lon="-2.063827800744494"><ele>45.0</ele><time>2026-04-05T11:45:03Z</time></trkpt><trkpt lat="48.617633349586626" lon="-2.0638719723257997"><ele>45.0</ele><time>2026-04-05T11:45:04Z</time></trkpt><trkpt lat="48.617555805013836" lon="-2.063871818860939"><ele>45.166666666666664</ele><time>2026-04-05T11:45:07Z</time></trkpt><trkpt lat="48.61749134021905" lon="-2.064023115248614"><ele>45.333333333333336</ele><time>2026-04-05T11:45:09Z</time></trkpt><trkpt lat="48.61741320615311" lon="-2.064036070635525"><ele>45.5</ele><time>2026-04-05T11:45:11Z</time></trkpt><trkpt lat="48.617339228914815" lon="-2.0640650234460014"><ele>45.66666666666667</ele><time>2026-04-05T11:45:13Z</time></trkpt><trkpt lat="48.6172600109762" lon="-2.064087589574773"><ele>45.833333333333336</ele><time>2026-04-05T11:45:15Z</time></trkpt><trkpt lat="48.61719391874457" lon="-2.064139681370025"><ele>46.0</ele><time>2026-04-05T11:45:17Z</time></trkpt><trkpt lat="48.61711420160508" lon="-2.0641311497335213"><ele>45.85714285714286</ele><time>2026-04-05T11:45:19Z</time></trkpt><trkpt lat="48.617051246386936" lon="-2.064153180054444"><ele>45.71428571428571</ele><time>2026-04-05T11:45:21Z</time></trkpt><trkpt lat="48.61698446416383" lon="-2.0641403414434696"><ele>45.57142857142857</ele><time>2026-04-05T11:45:23Z</time></trkpt><trkpt lat="48.6169225439477" lon="-2.0641225568289534"><ele>45.42857142857143</ele><time>2026-04-05T11:45:25Z</time></trkpt><trkpt lat="48.616853514193856" lon="-2.0641763206081736"><ele>45.28571428571429</ele><time>2026-04-05T11:45:27Z</time></trkpt><trkpt lat="48.61678134309061" lon="-2.0641927360834535"><ele>45.14285714285714</ele><time>2026-04-05T11:45:29Z</time></trkpt><trkpt lat="48.616713415050896" lon="-2.0641958624724506"><ele>45.0</ele><time>2026-04-05T11:45:31Z</time></trkpt><trkpt lat="48.61663488674861" lon="-2.064193197722416"><ele>45.0</ele><time>2026-04-05T11:45:34Z</time></trkpt><trkpt lat="48.61656647977393" lon="-2.0642414358664936"><ele>45.0</ele><time>2026-04-05T11:45:36Z</time></trkpt><trkpt lat="48.61650382220923" lon="-2.0642071916587827"><ele>45.0</ele><time>2026-04-05T11:45:38Z</time></trkpt><trkpt lat="48.61644188296663" lon="-2.06422948685265"><ele>45.0</ele><time>2026-04-05T11:45:40Z</time></trkpt><trkpt lat="48.616376186873055" lon="-2.0643277550278887"><ele>45.0</ele><time>2026-04-05T11:45:43Z</time></trkpt><trkpt lat="48.61629858170908" lon="-2.0643427939124277"><ele>45.0</ele><time>2026-04-05T11:45:45Z</time></trkpt><trkpt lat="48.61621444025751" lon="-2.0643422893509746"><ele>44.833333333333336</ele><time>2026-04-05T11:45:47Z</time></trkpt><trkpt lat="48.61614858045918" lon="-2.064304733314553"><ele>44.666666666666664</ele><time>2026-04-05T11:45:49Z</time></trkpt><trkpt lat="48.61608563296032" lon="-2.0643583998324044"><ele>44.5</ele><time>2026-04-05T11:45:51Z</time></trkpt><trkpt lat="48.61600459492517" lon="-2.0643503979368574"><ele>44.33333333333333</ele><time>2026-04-05T11:45:54Z</time></trkpt><trkpt lat="48.61592135291943" lon="-2.0643840745498436"><ele>44.166666666666664</ele><time>2026-04-05T11:45:57Z</time></trkpt><trkpt lat="48.615847545566346" lon="-2.0644087319878985"><ele>44.0</ele><time>2026-04-05T11:46:00Z</time></trkpt><trkpt lat="48.61577060507497" lon="-2.0644069952272455"><ele>45.0</ele><time>2026-04-05T11:46:03Z</time></trkpt><trkpt lat="48.614044192257055" lon="-2.065292336033432"><ele>45.0</ele><time>2026-04-05T11:46:05Z</time></trkpt><trkpt lat="48.61393813937037" lon="-2.065322487330732"><ele>45.0</ele><time>2026-04-05T11:46:07Z</time></trkpt><trkpt lat="48.61384566857475" lon="-2.065374922122001"><ele>45.0</ele><time>2026-04-05T11:46:09Z</time></trkpt><trkpt lat="48.61375307785642" lon="-2.0654180317188633"><ele>45.0</ele><time>2026-04-05T11:46:11Z</time></trkpt><trkpt lat="48.61365518394125" lon="-2.0654550324772565"><ele>45.0</ele><time>2026-04-05T11:46:13Z</time></trkpt><trkpt lat="48.61354758035081" lon="-2.0655049384041138"><ele>45.25</ele><time>2026-04-05T11:46:15Z</time></trkpt><trkpt lat="48.61344956597196" lon="-2.0655464904343526"><ele>45.5</ele><time>2026-04-05T11:46:17Z</time></trkpt><trkpt lat="48.61333918397638" lon="-2.065592296368142"><ele>45.75</ele><time>2026-04-05T11:46:18.999Z</time></trkpt><trkpt lat="48.61321341182967" lon="-2.0656322028366483"><ele>46.0</ele><time>2026-04-05T11:46:20.999Z</time></trkpt><trkpt lat="48.61456178812925" lon="-2.064925083915808"><ele>45.8</ele><time>2026-04-05T11:46:22.999Z</time></trkpt><trkpt lat="48.61444484078437" lon="-2.06491467742719"><ele>45.599999999999994</ele><time>2026-04-05T11:46:24.999Z</time></trkpt><trkpt lat="48.614450341713265" lon="-2.0647876232125926"><ele>45.4</ele><time>2026-04-05T11:46:26.999Z</time></trkpt><trkpt lat="48.61432398836961" lon="-2.064719841890895"><ele>45.2</ele><time>2026-04-05T11:46:29.999Z</time></trkpt><trkpt lat="48.61426345363652" lon="-2.0646879562583473"><ele>45.0</ele><time>2026-04-05T11:46:30.999Z</time></trkpt><trkpt lat="48.614214942569355" lon="-2.064505237520021"><ele>45.0</ele><time>2026-04-05T11:46:31.999Z</time></trkpt><trkpt lat="48.6141470145842" lon="-2.064484508294639"><ele>45.0</ele><time>2026-04-05T11:46:32.999Z</time></trkpt><trkpt lat="48.61404273379431" lon="-2.064394732950991"><ele>45.0</ele><time>2026-04-05T11:46:34.999Z</time></trkpt><trkpt lat="48.61396724125327" lon="-2.064399099824835"><ele>45.0</ele><time>2026-04-05T11:46:35.999Z</time></trkpt><trkpt lat="48.61391138205492" lon="-2.0643521429767344"><ele>45.0</ele><time>2026-04-05T11:46:36.999Z</time></trkpt><trkpt lat="48.61383309128444" lon="-2.0643103443313344"><ele>45.0</ele><time>2026-04-05T11:46:37.999Z</time></trkpt><trkpt lat="48.61370534576486" lon="-2.064242926829131"><ele>45.166666666666664</ele><time>2026-04-05T11:46:38.999Z</time></trkpt><trkpt lat="48.6136104747484" lon="-2.064232433533348"><ele>45.333333333333336</ele><time>2026-04-05T11:46:39.999Z</time></trkpt><trkpt lat="48.61353090491989" lon="-2.0642575252910618"><ele>45.5</ele><time>2026-04-05T11:46:40.999Z</time></trkpt><trkpt lat="48.613449847952836" lon="-2.0642518648530337"><ele>45.66666666666667</ele><time>2026-04-05T11:46:41.999Z</time></trkpt><trkpt lat="48.61337044552516" lon="-2.064258056465667"><ele>45.833333333333336</ele><time>2026-04-05T11:46:42.999Z</time></trkpt><trkpt lat="48.61327751409353" lon="-2.0642470546009686"><ele>46.0</ele><time>2026-04-05T11:46:43.999Z</time></trkpt><trkpt lat="48.613175655815276" lon="-2.064283833462211"><ele>46.0</ele><time>2026-04-05T11:46:44.999Z</time></trkpt><trkpt lat="48.6130785724993" lon="-2.0643015559956277"><ele>46.0</ele><time>2026-04-05T11:46:45.999Z</time></trkpt><trkpt lat="48.612994150904406" lon="-2.0643196364077716"><ele>46.0</ele><time>2026-04-05T11:46:46.999Z</time></trkpt><trkpt lat="48.612892767261464" lon="-2.0643434278875263"><ele>46.0</ele><time>2026-04-05T11:46:47.999Z</time></trkpt><trkpt lat="48.61281000357498" lon="-2.0643490854421085"><ele>46.0</ele><time>2026-04-05T11:46:48.999Z</time></trkpt><trkpt lat="48.61274468991397" lon="-2.0643045727006446"><ele>46.0</ele><time>2026-04-05T11:46:49.999Z</time></trkpt><trkpt lat="48.61264444027596" lon="-2.064318308200092"><ele>46.333333333333336</ele><time>2026-04-05T11:46:50.999Z</time></trkpt><trkpt lat="48.61257182914196" lon="-2.064320742121473"><ele>46.66666666666667</ele><time>2026-04-05T11:46:51.999Z</time></trkpt><trkpt lat="48.61249923142132" lon="-2.0643102224589285"><ele>47.0</ele><time>2026-04-05T11:46:52.999Z</time></trkpt><trkpt lat="48.61241443492146" lon="-2.0642998873878464"><ele>47.333333333333336</ele><time>2026-04-05T11:46:53.999Z</time></trkpt><trkpt lat="48.6123242476871" lon="-2.0642911427732016"><ele>47.666666666666664</ele><time>2026-04-05T11:46:54.999Z</time></trkpt><trkpt lat="48.61224231450481" lon="-2.0643137594616077"><ele>48.0</ele><time>2026-04-05T11:46:55.999Z</time></trkpt><trkpt lat="48.612133948624745" lon="-2.0643737229615975"><ele>48.0</ele><time>2026-04-05T11:46:56.999Z</time></trkpt><trkpt lat="48.61205386884825" lon="-2.064402038270559"><ele>48.0</ele><time>2026-04-05T11:46:57.999Z</time></trkpt><trkpt lat="48.61196383694577" lon="-2.0644458052321206"><ele>48.0</ele><time>2026-04-05T11:46:58.999Z</time></trkpt><trkpt lat="48.611877229520935" lon="-2.0644865777378634"><ele>48.0</ele><time>2026-04-05T11:46:59.999Z</time></trkpt><trkpt lat="48.61178217310106" lon="-2.064503892714097"><ele>48.0</ele><time>2026-04-05T11:47:00.999Z</time></trkpt><trkpt lat="48.61168329230304" lon="-2.064513215523932"><ele>47.0</ele><time>2026-04-05T11:47:01.999Z</time></trkpt><trkpt lat="48.61155860737282" lon="-2.0644855561932376"><ele>46.0</ele><time>2026-04-05T11:47:02.999Z</time></trkpt><trkpt lat="48.61147741009964" lon="-2.064542632974614"><ele>45.0</ele><time>2026-04-05T11:47:03.999Z</time></trkpt><trkpt lat="48.611389531500286" lon="-2.0645951099874913"><ele>44.0</ele><time>2026-04-05T11:47:04.999Z</time></trkpt><trkpt lat="48.61131876439548" lon="-2.064637368050602"><ele>43.0</ele><time>2026-04-05T11:47:05.999Z</time></trkpt><trkpt lat="48.611253395365445" lon="-2.0647022866010136"><ele>43.0</ele><time>2026-04-05T11:47:07Z</time></trkpt><trkpt lat="48.61118927128394" lon="-2.064755228236883"><ele>43.0</ele><time>2026-04-05T11:47:08Z</time></trkpt><trkpt lat="48.611054218163936" lon="-2.06460926882652"><ele>43.0</ele><time>2026-04-05T11:47:09Z</time></trkpt><trkpt lat="48.610979035331" lon="-2.0646254975740637"><ele>43.0</ele><time>2026-04-05T11:47:10Z</time></trkpt><trkpt lat="48.61091409815483" lon="-2.0646370423305713"><ele>43.0</ele><time>2026-04-05T11:47:11Z</time></trkpt><trkpt lat="48.61083990249143" lon="-2.0646454186748544"><ele>43.333333333333336</ele><time>2026-04-05T11:47:12Z</time></trkpt><trkpt lat="48.61076975108558" lon="-2.064654723985505"><ele>43.66666666666667</ele><time>2026-04-05T11:47:13Z</time></trkpt><trkpt lat="48.61064245531509" lon="-2.064644487933452"><ele>44.0</ele><time>2026-04-05T11:47:15Z</time></trkpt><trkpt lat="48.610576952145365" lon="-2.064646254029515"><ele>44.333333333333336</ele><time>2026-04-05T11:47:16Z</time></trkpt><trkpt lat="48.61051311842318" lon="-2.064628165549434"><ele>44.666666666666664</ele><time>2026-04-05T11:47:17Z</time></trkpt><trkpt lat="48.61039728292191" lon="-2.064628853600793"><ele>45.0</ele><time>2026-04-05T11:47:19Z</time></trkpt><trkpt lat="48.61027311923486" lon="-2.064694644678333"><ele>45.25</ele><time>2026-04-05T11:47:23Z</time></trkpt><trkpt lat="48.6102016309555" lon="-2.064718469530807"><ele>45.5</ele><time>2026-04-05T11:47:26Z</time></trkpt><trkpt lat="48.60998838834613" lon="-2.064745225220444"><ele>45.75</ele><time>2026-04-05T11:47:27Z</time></trkpt><trkpt lat="48.60987442823724" lon="-2.0647683278826"><ele>46.0</ele><time>2026-04-05T11:47:29Z</time></trkpt><trkpt lat="48.609762865096656" lon="-2.0647855945885807"><ele>46.0</ele><time>2026-04-05T11:47:31Z</time></trkpt><trkpt lat="48.60965924174007" lon="-2.0648401109446493"><ele>46.0</ele><time>2026-04-05T11:47:33Z</time></trkpt><trkpt lat="48.60955643109209" lon="-2.0648727969334333"><ele>46.0</ele><time>2026-04-05T11:47:35Z</time></trkpt><trkpt lat="48.60945616701297" lon="-2.064879053251077"><ele>46.0</ele><time>2026-04-05T11:47:37Z</time></trkpt><trkpt lat="48.60934218298359" lon="-2.0648787450064576"><ele>46.0</ele><time>2026-04-05T11:47:39Z</time></trkpt><trkpt lat="48.60922928802882" lon="-2.0648678132343794"><ele>46.199999999999996</ele><time>2026-04-05T11:47:41Z</time></trkpt><trkpt lat="48.609118394430624" lon="-2.064864421657959"><ele>46.4</ele><time>2026-04-05T11:47:43Z</time></trkpt><trkpt lat="48.609011602314034" lon="-2.0648699520313145"><ele>46.6</ele><time>2026-04-05T11:47:45Z</time></trkpt><trkpt lat="48.608909317299506" lon="-2.0649253225890343"><ele>46.8</ele><time>2026-04-05T11:47:47Z</time></trkpt><trkpt lat="48.60881854675421" lon="-2.0649876455091487"><ele>47.0</ele><time>2026-04-05T11:47:49Z</time></trkpt><trkpt lat="48.60873328130897" lon="-2.065035918404965"><ele>47.2</ele><time>2026-04-05T11:47:52Z</time></trkpt><trkpt lat="48.60867115913769" lon="-2.0650051961393197"><ele>47.400000000000006</ele><time>2026-04-05T11:47:55Z</time></trkpt><trkpt lat="48.60855312898902" lon="-2.064966939641549"><ele>47.599999999999994</ele><time>2026-04-05T11:47:57Z</time></trkpt><trkpt lat="48.608483851005275" lon="-2.064976834536601"><ele>47.8</ele><time>2026-04-05T11:47:59Z</time></trkpt><trkpt lat="48.60840086779062" lon="-2.065020857731691"><ele>48.0</ele><time>2026-04-05T11:48:02Z</time></trkpt><trkpt lat="48.608305427843256" lon="-2.0651445113947164"><ele>48.0</ele><time>2026-04-05T11:48:05Z</time></trkpt><trkpt lat="48.60822950689281" lon="-2.0652201911805474"><ele>48.0</ele><time>2026-04-05T11:48:07Z</time></trkpt><trkpt lat="48.60814474505866" lon="-2.065306614136181"><ele>48.0</ele><time>2026-04-05T11:48:09Z</time></trkpt><trkpt lat="48.60804314852859" lon="-2.065364337989962"><ele>48.0</ele><time>2026-04-05T11:48:11Z</time></trkpt><trkpt lat="48.60792973201945" lon="-2.0654176231401866"><ele>48.0</ele><time>2026-04-05T11:48:13Z</time></trkpt><trkpt lat="48.60781423479502" lon="-2.0654473782051017"><ele>48.0</ele><time>2026-04-05T11:48:15Z</time></trkpt><trkpt lat="48.60769881317745" lon="-2.0654670703023825"><ele>48.0</ele><time>2026-04-05T11:48:17Z</time></trkpt><trkpt lat="48.60759061397316" lon="-2.0655228324640635"><ele>48.0</ele><time>2026-04-05T11:48:19Z</time></trkpt><trkpt lat="48.60750130332653" lon="-2.0656261015538893"><ele>48.0</ele><time>2026-04-05T11:48:21Z</time></trkpt><trkpt lat="48.60743746975257" lon="-2.065770249239404"><ele>48.25</ele><time>2026-04-05T11:48:22.999Z</time></trkpt><trkpt lat="48.6073876125596" lon="-2.065939507349119"><ele>48.5</ele><time>2026-04-05T11:48:24.999Z</time></trkpt><trkpt lat="48.60731441678456" lon="-2.0660825208219653"><ele>48.75</ele><time>2026-04-05T11:48:26.999Z</time></trkpt><trkpt lat="48.60722234932392" lon="-2.0661944276035467"><ele>49.0</ele><time>2026-04-05T11:48:28.999Z</time></trkpt><trkpt lat="48.60711029210468" lon="-2.066263500529661"><ele>49.0</ele><time>2026-04-05T11:48:30.999Z</time></trkpt><trkpt lat="48.6070452780124" lon="-2.0662876667768857"><ele>49.0</ele><time>2026-04-05T11:48:31.999Z</time></trkpt><trkpt lat="48.606980308043994" lon="-2.066310202314845"><ele>49.0</ele><time>2026-04-05T11:48:32.999Z</time></trkpt><trkpt lat="48.60691650047109" lon="-2.066338520572277"><ele>49.0</ele><time>2026-04-05T11:48:33.999Z</time></trkpt><trkpt lat="48.60685385503089" lon="-2.0663769833144645"><ele>49.0</ele><time>2026-04-05T11:48:34.999Z</time></trkpt><trkpt lat="48.60679391813614" lon="-2.0664253339370906"><ele>49.0</ele><time>2026-04-05T11:48:35.999Z</time></trkpt><trkpt lat="48.60673988274484" lon="-2.0664960341902154"><ele>49.0</ele><time>2026-04-05T11:48:36.999Z</time></trkpt><trkpt lat="48.60668474127095" lon="-2.0665494364072017"><ele>49.0</ele><time>2026-04-05T11:48:37.999Z</time></trkpt><trkpt lat="48.60656488846533" lon="-2.0665944611503364"><ele>49.0</ele><time>2026-04-05T11:48:39.999Z</time></trkpt><trkpt lat="48.60649995695955" lon="-2.066606008199833"><ele>49.0</ele><time>2026-04-05T11:48:40.999Z</time></trkpt><trkpt lat="48.60638779036933" lon="-2.0666381704566987"><ele>49.0</ele><time>2026-04-05T11:48:42.999Z</time></trkpt><trkpt lat="48.60628110117536" lon="-2.066702197192954"><ele>49.0</ele><time>2026-04-05T11:48:44.999Z</time></trkpt><trkpt lat="48.60618465767611" lon="-2.0667714400061237"><ele>49.0</ele><time>2026-04-05T11:48:46.999Z</time></trkpt><trkpt lat="48.60610767778436" lon="-2.0668715754210196"><ele>49.0</ele><time>2026-04-05T11:48:48.999Z</time></trkpt><trkpt lat="48.60602026839413" lon="-2.0669741041483753"><ele>49.0</ele><time>2026-04-05T11:48:50.999Z</time></trkpt><trkpt lat="48.60593791820088" lon="-2.0670966949761684"><ele>49.0</ele><time>2026-04-05T11:48:52.999Z</time></trkpt><trkpt lat="48.6058687868579" lon="-2.067244407096293"><ele>49.0</ele><time>2026-04-05T11:48:54.999Z</time></trkpt><trkpt lat="48.605835551433984" lon="-2.067325492182004"><ele>49.2</ele><time>2026-04-05T11:48:55.999Z</time></trkpt><trkpt lat="48.60578970960668" lon="-2.0674956230272135"><ele>49.400000000000006</ele><time>2026-04-05T11:48:57.999Z</time></trkpt><trkpt lat="48.605743219967096" lon="-2.0676432700489604"><ele>49.6</ele><time>2026-04-05T11:48:59.999Z</time></trkpt><trkpt lat="48.60567674289114" lon="-2.0677657909884317"><ele>49.8</ele><time>2026-04-05T11:49:01.999Z</time></trkpt><trkpt lat="48.605609433621375" lon="-2.067855929693137"><ele>50.0</ele><time>2026-04-05T11:49:03.999Z</time></trkpt><trkpt lat="48.605584999425716" lon="-2.067973200656746"><ele>50.00000000000001</ele><time>2026-04-05T11:49:05.999Z</time></trkpt><trkpt lat="48.60562636842997" lon="-2.0680841882578602"><ele>50.0</ele><time>2026-04-05T11:49:07.999Z</time></trkpt><trkpt lat="48.60565619183414" lon="-2.068188682470412"><ele>50.0</ele><time>2026-04-05T11:49:09.999Z</time></trkpt><trkpt lat="48.60568350429806" lon="-2.0683026651193797"><ele>50.0</ele><time>2026-04-05T11:49:11.999Z</time></trkpt><trkpt lat="48.60569039809043" lon="-2.0684254970036107"><ele>50.00000000000001</ele><time>2026-04-05T11:49:14Z</time></trkpt><trkpt lat="48.60563364807521" lon="-2.0685043602976023"><ele>50.0</ele><time>2026-04-05T11:49:16Z</time></trkpt><trkpt lat="48.605555388992485" lon="-2.068519719762779"><ele>50.00000000000001</ele><time>2026-04-05T11:49:18Z</time></trkpt><trkpt lat="48.605492379416134" lon="-2.068561860156409"><ele>50.0</ele><time>2026-04-05T11:49:20Z</time></trkpt><trkpt lat="48.60541846986869" lon="-2.068575728192932"><ele>50.0</ele><time>2026-04-05T11:49:22Z</time></trkpt><trkpt lat="48.60535486095025" lon="-2.068602028377012"><ele>50.0</ele><time>2026-04-05T11:49:24Z</time></trkpt><trkpt lat="48.60528938355292" lon="-2.0686193540287587"><ele>50.0</ele><time>2026-04-05T11:49:26Z</time></trkpt><trkpt lat="48.60522293927643" lon="-2.0686574539175084"><ele>50.00000000000001</ele><time>2026-04-05T11:49:28Z</time></trkpt><trkpt lat="48.60513391711977" lon="-2.0686894459806906"><ele>50.0</ele><time>2026-04-05T11:49:30Z</time></trkpt><trkpt lat="48.60504131512181" lon="-2.0687422637970894"><ele>50.0</ele><time>2026-04-05T11:49:32Z</time></trkpt><trkpt lat="48.604938405890486" lon="-2.068774440254407"><ele>50.0</ele><time>2026-04-05T11:49:34Z</time></trkpt><trkpt lat="48.604787180042884" lon="-2.0685989469522292"><ele>50.0</ele><time>2026-04-05T11:49:36Z</time></trkpt><trkpt lat="48.60468419044243" lon="-2.0686373585780715"><ele>50.0</ele><time>2026-04-05T11:49:38Z</time></trkpt><trkpt lat="48.60457390116704" lon="-2.0686784927498825"><ele>50.0</ele><time>2026-04-05T11:49:40Z</time></trkpt><trkpt lat="48.60445747314317" lon="-2.068721916486722"><ele>50.0</ele><time>2026-04-05T11:49:42Z</time></trkpt><trkpt lat="48.60434007616502" lon="-2.0687657015315235"><ele>50.0</ele><time>2026-04-05T11:49:44Z</time></trkpt><trkpt lat="48.60422608580903" lon="-2.068808216069833"><ele>50.0</ele><time>2026-04-05T11:49:46Z</time></trkpt><trkpt lat="48.60410260148679" lon="-2.068855240957348"><ele>50.0</ele><time>2026-04-05T11:49:48Z</time></trkpt><trkpt lat="48.60398827724608" lon="-2.0688996300725186"><ele>50.0</ele><time>2026-04-05T11:49:50Z</time></trkpt><trkpt lat="48.603871179006376" lon="-2.068945050392594"><ele>50.0</ele><time>2026-04-05T11:49:52Z</time></trkpt><trkpt lat="48.603756497701276" lon="-2.068988485160023"><ele>50.0</ele><time>2026-04-05T11:49:54Z</time></trkpt><trkpt lat="48.60369456299552" lon="-2.0690119423747144"><ele>50.0</ele><time>2026-04-05T11:49:55Z</time></trkpt><trkpt lat="48.60356885519738" lon="-2.0690595535978478"><ele>50.2</ele><time>2026-04-05T11:49:57Z</time></trkpt><trkpt lat="48.60344388375214" lon="-2.0691068857588233"><ele>50.4</ele><time>2026-04-05T11:49:59Z</time></trkpt><trkpt lat="48.603321062587376" lon="-2.069153403516207"><ele>50.599999999999994</ele><time>2026-04-05T11:50:01Z</time></trkpt><trkpt lat="48.603199807626055" lon="-2.0691993280537777"><ele>50.8</ele><time>2026-04-05T11:50:03Z</time></trkpt><trkpt lat="48.60313710081749" lon="-2.069223077885993"><ele>51.0</ele><time>2026-04-05T11:50:04Z</time></trkpt><trkpt lat="48.6030716450198" lon="-2.069247869074444"><ele>51.0</ele><time>2026-04-05T11:50:05Z</time></trkpt><trkpt lat="48.603009647832145" lon="-2.0692713498468014"><ele>51.0</ele><time>2026-04-05T11:50:06Z</time></trkpt><trkpt lat="48.60294442896769" lon="-2.069296051152025"><ele>51.0</ele><time>2026-04-05T11:50:07Z</time></trkpt><trkpt lat="48.60287896812496" lon="-2.0693208440936646"><ele>51.0</ele><time>2026-04-05T11:50:08Z</time></trkpt><trkpt lat="48.602814917423295" lon="-2.0693451028616425"><ele>51.0</ele><time>2026-04-05T11:50:09Z</time></trkpt><trkpt lat="48.60275308656072" lon="-2.069368511011295"><ele>51.0</ele><time>2026-04-05T11:50:10Z</time></trkpt><trkpt lat="48.60268952758155" lon="-2.069392583590033"><ele>51.0</ele><time>2026-04-05T11:50:11Z</time></trkpt><trkpt lat="48.60262822867289" lon="-2.069415800162772"><ele>50.85714285714286</ele><time>2026-04-05T11:50:12Z</time></trkpt><trkpt lat="48.602566285714936" lon="-2.069439260698187"><ele>50.714285714285715</ele><time>2026-04-05T11:50:13Z</time></trkpt><trkpt lat="48.60249560006447" lon="-2.0694660324623806"><ele>50.57142857142857</ele><time>2026-04-05T11:50:14Z</time></trkpt><trkpt lat="48.60243377003521" lon="-2.0694894502031556"><ele>50.42857142857143</ele><time>2026-04-05T11:50:15Z</time></trkpt><trkpt lat="48.602369124250515" lon="-2.069513934404062"><ele>50.285714285714285</ele><time>2026-04-05T11:50:16Z</time></trkpt><trkpt lat="48.60230417620037" lon="-2.0695386825251636"><ele>50.142857142857146</ele><time>2026-04-05T11:50:17Z</time></trkpt><trkpt lat="48.60223623570647" lon="-2.069564596177275"><ele>50.0</ele><time>2026-04-05T11:50:18Z</time></trkpt><trkpt lat="48.6021738485162" lon="-2.0695883916319793"><ele>50.0</ele><time>2026-04-05T11:50:19Z</time></trkpt><trkpt lat="48.60205381771483" lon="-2.069634173393258"><ele>50.0</ele><time>2026-04-05T11:50:21Z</time></trkpt><trkpt lat="48.601922745913946" lon="-2.0696841662620167"><ele>50.0</ele><time>2026-04-05T11:50:23Z</time></trkpt><trkpt lat="48.60181053489445" lon="-2.0697269655770527"><ele>50.0</ele><time>2026-04-05T11:50:25Z</time></trkpt><trkpt lat="48.60174718359265" lon="-2.0697511287266925"><ele>50.0</ele><time>2026-04-05T11:50:26Z</time></trkpt><trkpt lat="48.60163379494463" lon="-2.069794376900181"><ele>49.85714285714286</ele><time>2026-04-05T11:50:28Z</time></trkpt><trkpt lat="48.601572243035776" lon="-2.0698178538972396"><ele>49.714285714285715</ele><time>2026-04-05T11:50:29Z</time></trkpt><trkpt lat="48.60150904236993" lon="-2.0698419596387136"><ele>49.57142857142857</ele><time>2026-04-05T11:50:29.999Z</time></trkpt><trkpt lat="48.60144320155786" lon="-2.0698669087770813"><ele>49.42857142857143</ele><time>2026-04-05T11:50:30.999Z</time></trkpt><trkpt lat="48.601377257106215" lon="-2.069891746890729"><ele>49.285714285714285</ele><time>2026-04-05T11:50:31.999Z</time></trkpt><trkpt lat="48.60130981612962" lon="-2.06991714869774"><ele>49.142857142857146</ele><time>2026-04-05T11:50:32.999Z</time></trkpt><trkpt lat="48.601242258586225" lon="-2.069942594382909"><ele>49.0</ele><time>2026-04-05T11:50:33.999Z</time></trkpt><trkpt lat="48.60115227265616" lon="-2.0699764877387694"><ele>49.5</ele><time>2026-04-05T11:50:34.999Z</time></trkpt><trkpt lat="48.60104915645779" lon="-2.0700153267388437"><ele>50.0</ele><time>2026-04-05T11:50:36.999Z</time></trkpt><trkpt lat="48.60092414453668" lon="-2.070062412655843"><ele>50.5</ele><time>2026-04-05T11:50:38.999Z</time></trkpt><trkpt lat="48.600798980644" lon="-2.070109556008125"><ele>51.0</ele><time>2026-04-05T11:50:40.999Z</time></trkpt><trkpt lat="48.60068575183914" lon="-2.0701522038567277"><ele>51.0</ele><time>2026-04-05T11:50:42.999Z</time></trkpt><trkpt lat="48.60056232483172" lon="-2.0701986929007523"><ele>51.0</ele><time>2026-04-05T11:50:44.999Z</time></trkpt><trkpt lat="48.60043680144366" lon="-2.070245971547545"><ele>51.0</ele><time>2026-04-05T11:50:46.999Z</time></trkpt><trkpt lat="48.600373242374964" lon="-2.070269911192885"><ele>51.0</ele><time>2026-04-05T11:50:47.999Z</time></trkpt><trkpt lat="48.60031161877416" lon="-2.070293121866452"><ele>51.0</ele><time>2026-04-05T11:50:48.999Z</time></trkpt><trkpt lat="48.60018989083641" lon="-2.070338970961489"><ele>50.833333333333336</ele><time>2026-04-05T11:50:50.999Z</time></trkpt><trkpt lat="48.60012699828468" lon="-2.0703626595779006"><ele>50.66666666666667</ele><time>2026-04-05T11:50:51.999Z</time></trkpt><trkpt lat="48.60006140299591" lon="-2.070387463343539"><ele>50.5</ele><time>2026-04-05T11:50:52.999Z</time></trkpt><trkpt lat="48.59999759359612" lon="-2.070411873654333"><ele>50.333333333333336</ele><time>2026-04-05T11:50:53.999Z</time></trkpt><trkpt lat="48.599934732958836" lon="-2.0704359210099543"><ele>50.16666666666667</ele><time>2026-04-05T11:50:54.999Z</time></trkpt><trkpt lat="48.59980853174068" lon="-2.070484199330244"><ele>50.0</ele><time>2026-04-05T11:50:56.999Z</time></trkpt><trkpt lat="48.59968884447522" lon="-2.070529985742436"><ele>50.00000000000001</ele><time>2026-04-05T11:50:58.999Z</time></trkpt><trkpt lat="48.599626974433654" lon="-2.070553654141436"><ele>50.0</ele><time>2026-04-05T11:50:59.999Z</time></trkpt><trkpt lat="48.599560969242134" lon="-2.070578904457486"><ele>50.0</ele><time>2026-04-05T11:51:00.999Z</time></trkpt><trkpt lat="48.599497700148106" lon="-2.0706031080656686"><ele>50.0</ele><time>2026-04-05T11:51:01.999Z</time></trkpt><trkpt lat="48.59943562712458" lon="-2.070625820492122"><ele>50.0</ele><time>2026-04-05T11:51:02.999Z</time></trkpt><trkpt lat="48.599370323130955" lon="-2.070649331096536"><ele>50.00000000000001</ele><time>2026-04-05T11:51:03.999Z</time></trkpt><trkpt lat="48.59930687234138" lon="-2.0706721745339873"><ele>50.0</ele><time>2026-04-05T11:51:04.999Z</time></trkpt><trkpt lat="48.59918913645533" lon="-2.070710688689481"><ele>50.0</ele><time>2026-04-05T11:51:06.999Z</time></trkpt><trkpt lat="48.59907414711478" lon="-2.0707431878939757"><ele>50.0</ele><time>2026-04-05T11:51:08.999Z</time></trkpt><trkpt lat="48.598953297461854" lon="-2.0707707416133974"><ele>50.0</ele><time>2026-04-05T11:51:10.999Z</time></trkpt><trkpt lat="48.598829989438215" lon="-2.070791772998152"><ele>50.0</ele><time>2026-04-05T11:51:12.999Z</time></trkpt><trkpt lat="48.5987220574399" lon="-2.07079996173076"><ele>49.8</ele><time>2026-04-05T11:51:14.999Z</time></trkpt><trkpt lat="48.59865865144846" lon="-2.0708050831611073"><ele>49.6</ele><time>2026-04-05T11:51:15.999Z</time></trkpt><trkpt lat="48.59854557164279" lon="-2.0708089576834268"><ele>49.400000000000006</ele><time>2026-04-05T11:51:17.999Z</time></trkpt><trkpt lat="48.598429413761835" lon="-2.070807941341953"><ele>49.2</ele><time>2026-04-05T11:51:20Z</time></trkpt><trkpt lat="48.598322019181666" lon="-2.070799318004236"><ele>49.0</ele><time>2026-04-05T11:51:22Z</time></trkpt><trkpt lat="48.59820738483109" lon="-2.0707820534690797"><ele>48.6</ele><time>2026-04-05T11:51:24Z</time></trkpt><trkpt lat="48.59810279198817" lon="-2.0707629968586074"><ele>48.2</ele><time>2026-04-05T11:51:26Z</time></trkpt><trkpt lat="48.598001136227566" lon="-2.070740869201976"><ele>47.800000000000004</ele><time>2026-04-05T11:51:28Z</time></trkpt><trkpt lat="48.59788823544267" lon="-2.0707144348480244"><ele>47.400000000000006</ele><time>2026-04-05T11:51:30Z</time></trkpt><trkpt lat="48.59779939314914" lon="-2.0707279839593626"><ele>47.0</ele><time>2026-04-05T11:51:32Z</time></trkpt><trkpt lat="48.597696074598936" lon="-2.0707463381227593"><ele>49.0</ele><time>2026-04-05T11:51:34Z</time></trkpt><trkpt lat="48.59744397861483" lon="-2.071648353072058"><ele>48.99999999999999</ele><time>2026-04-05T11:51:36Z</time></trkpt><trkpt lat="48.59737920803546" lon="-2.07167838151843"><ele>49.0</ele><time>2026-04-05T11:51:37Z</time></trkpt><trkpt lat="48.59725283465145" lon="-2.071727287690902"><ele>49.0</ele><time>2026-04-05T11:51:39Z</time></trkpt><trkpt lat="48.597189074651595" lon="-2.071757637227359"><ele>49.0</ele><time>2026-04-05T11:51:40Z</time></trkpt><trkpt lat="48.59707631998884" lon="-2.071802453019388"><ele>48.99999999999999</ele><time>2026-04-05T11:51:42Z</time></trkpt><trkpt lat="48.59701596931203" lon="-2.0718318216953775"><ele>49.0</ele><time>2026-04-05T11:51:43Z</time></trkpt><trkpt lat="48.596894375153994" lon="-2.0718812242832967"><ele>48.800000000000004</ele><time>2026-04-05T11:51:45Z</time></trkpt><trkpt lat="48.59677181407053" lon="-2.0719241147870955"><ele>48.6</ele><time>2026-04-05T11:51:47Z</time></trkpt><trkpt lat="48.59664428078293" lon="-2.0719715709077957"><ele>48.4</ele><time>2026-04-05T11:51:49Z</time></trkpt><trkpt lat="48.596522185609814" lon="-2.0720026322406206"><ele>48.2</ele><time>2026-04-05T11:51:51Z</time></trkpt><trkpt lat="48.59645907473681" lon="-2.072015314469798"><ele>48.0</ele><time>2026-04-05T11:51:52Z</time></trkpt><trkpt lat="48.59639564804355" lon="-2.072027137854716"><ele>48.0</ele><time>2026-04-05T11:51:53Z</time></trkpt><trkpt lat="48.59632990968702" lon="-2.072040307052527"><ele>48.0</ele><time>2026-04-05T11:51:54Z</time></trkpt><trkpt lat="48.59626538429651" lon="-2.072054295262768"><ele>48.0</ele><time>2026-04-05T11:51:55Z</time></trkpt><trkpt lat="48.59620044126968" lon="-2.072059524939547"><ele>48.0</ele><time>2026-04-05T11:51:56Z</time></trkpt><trkpt lat="48.59607901471027" lon="-2.072074875932314"><ele>48.0</ele><time>2026-04-05T11:51:58Z</time></trkpt><trkpt lat="48.596012771835255" lon="-2.0720945667955646"><ele>48.0</ele><time>2026-04-05T11:51:59Z</time></trkpt><trkpt lat="48.59592324464704" lon="-2.072085460004781"><ele>48.0</ele><time>2026-04-05T11:52:00Z</time></trkpt><trkpt lat="48.595799542519565" lon="-2.0721069401584575"><ele>48.0</ele><time>2026-04-05T11:52:02Z</time></trkpt><trkpt lat="48.59567906531533" lon="-2.0721183524010547"><ele>48.0</ele><time>2026-04-05T11:52:04Z</time></trkpt><trkpt lat="48.59556985527403" lon="-2.072145687439142"><ele>48.0</ele><time>2026-04-05T11:52:06Z</time></trkpt><trkpt lat="48.59548689732418" lon="-2.072095576843767"><ele>48.0</ele><time>2026-04-05T11:52:08Z</time></trkpt><trkpt lat="48.595400631498215" lon="-2.0720720929626495"><ele>48.5</ele><time>2026-04-05T11:52:10Z</time></trkpt><trkpt lat="48.59533461269391" lon="-2.072062795241884"><ele>49.0</ele><time>2026-04-05T11:52:12Z</time></trkpt><trkpt lat="48.59525945905299" lon="-2.072077876574363"><ele>49.5</ele><time>2026-04-05T11:52:15Z</time></trkpt><trkpt lat="48.595181038490054" lon="-2.0720565039907557"><ele>50.0</ele><time>2026-04-05T11:52:17Z</time></trkpt><trkpt lat="48.59509954744506" lon="-2.0720816950068306"><ele>50.5</ele><time>2026-04-05T11:52:19Z</time></trkpt><trkpt lat="48.59501770616675" lon="-2.0720317457557025"><ele>51.0</ele><time>2026-04-05T11:52:21Z</time></trkpt><trkpt lat="48.59491751462387" lon="-2.0720077338571627"><ele>51.0</ele><time>2026-04-05T11:52:23Z</time></trkpt><trkpt lat="48.59482690883008" lon="-2.071963748047681"><ele>51.0</ele><time>2026-04-05T11:52:25Z</time></trkpt><trkpt lat="48.59472157559668" lon="-2.07193515006759"><ele>51.0</ele><time>2026-04-05T11:52:27Z</time></trkpt><trkpt lat="48.594621661061154" lon="-2.0718993900086375"><ele>51.0</ele><time>2026-04-05T11:52:29Z</time></trkpt><trkpt lat="48.59453600162835" lon="-2.071871336968698"><ele>51.0</ele><time>2026-04-05T11:52:30.999Z</time></trkpt><trkpt lat="48.59444312828186" lon="-2.071835061745398"><ele>51.199999999999996</ele><time>2026-04-05T11:52:32.999Z</time></trkpt><trkpt lat="48.594343835328395" lon="-2.07178512474721"><ele>51.4</ele><time>2026-04-05T11:52:34.999Z</time></trkpt><trkpt lat="48.5942412970442" lon="-2.071745403668755"><ele>51.6</ele><time>2026-04-05T11:52:36.999Z</time></trkpt><trkpt lat="48.59414480539067" lon="-2.0716961866149455"><ele>51.8</ele><time>2026-04-05T11:52:38.999Z</time></trkpt><trkpt lat="48.59405415051771" lon="-2.0716591590392825"><ele>52.0</ele><time>2026-04-05T11:52:40.999Z</time></trkpt><trkpt lat="48.59399176072948" lon="-2.0715835940361016"><ele>52.0</ele><time>2026-04-05T11:52:45.999Z</time></trkpt><trkpt lat="48.593885286917015" lon="-2.0715376367737015"><ele>52.0</ele><time>2026-04-05T11:52:48.999Z</time></trkpt><trkpt lat="48.59379614612638" lon="-2.0715303888961434"><ele>52.0</ele><time>2026-04-05T11:52:50.999Z</time></trkpt><trkpt lat="48.59370789895065" lon="-2.0714810836120288"><ele>52.0</ele><time>2026-04-05T11:52:52.999Z</time></trkpt><trkpt lat="48.59361850002009" lon="-2.0713591829397986"><ele>52.0</ele><time>2026-04-05T11:52:55.999Z</time></trkpt><trkpt lat="48.59354947491586" lon="-2.071360172797166"><ele>52.42857142857142</ele><time>2026-04-05T11:52:57.999Z</time></trkpt><trkpt lat="48.593480626180835" lon="-2.0713138956371413"><ele>52.85714285714286</ele><time>2026-04-05T11:52:59.999Z</time></trkpt><trkpt lat="48.59341536115206" lon="-2.071305433913161"><ele>53.285714285714285</ele><time>2026-04-05T11:53:01.999Z</time></trkpt><trkpt lat="48.59335177529678" lon="-2.0712801295313366"><ele>53.71428571428571</ele><time>2026-04-05T11:53:03.999Z</time></trkpt><trkpt lat="48.59329032695894" lon="-2.0712455941707186"><ele>54.14285714285714</ele><time>2026-04-05T11:53:05.999Z</time></trkpt><trkpt lat="48.593234746165336" lon="-2.0711763254315403"><ele>54.57142857142857</ele><time>2026-04-05T11:53:07.999Z</time></trkpt><trkpt lat="48.59316798703011" lon="-2.0711240724807305"><ele>55.0</ele><time>2026-04-05T11:53:09.999Z</time></trkpt><trkpt lat="48.59309642797382" lon="-2.07114081304213"><ele>54.99999999999999</ele><time>2026-04-05T11:53:11.999Z</time></trkpt><trkpt lat="48.59304276386825" lon="-2.0710804683540043"><ele>55.0</ele><time>2026-04-05T11:53:13.999Z</time></trkpt><trkpt lat="48.592981505386675" lon="-2.071041015897056"><ele>55.0</ele><time>2026-04-05T11:53:15.999Z</time></trkpt><trkpt lat="48.592878066111105" lon="-2.0709820869357696"><ele>55.0</ele><time>2026-04-05T11:53:18.999Z</time></trkpt><trkpt lat="48.59281800529733" lon="-2.070942984070923"><ele>55.0</ele><time>2026-04-05T11:53:20.999Z</time></trkpt><trkpt lat="48.592749846035204" lon="-2.0709468277336507"><ele>54.99999999999999</ele><time>2026-04-05T11:53:22.999Z</time></trkpt><trkpt lat="48.59270234373115" lon="-2.0708813441152314"><ele>55.0</ele><time>2026-04-05T11:53:25Z</time></trkpt><trkpt lat="48.592619873630575" lon="-2.0708690043176246"><ele>54.83333333333333</ele><time>2026-04-05T11:53:28Z</time></trkpt><trkpt lat="48.59250005428108" lon="-2.070794260635715"><ele>54.666666666666664</ele><time>2026-04-05T11:53:31Z</time></trkpt><trkpt lat="48.59242047421295" lon="-2.070748841387978"><ele>54.5</ele><time>2026-04-05T11:53:34Z</time></trkpt><trkpt lat="48.59236049178745" lon="-2.0706871575736567"><ele>54.33333333333333</ele><time>2026-04-05T11:53:36Z</time></trkpt><trkpt lat="48.5922826011609" lon="-2.0706978798708207"><ele>54.166666666666664</ele><time>2026-04-05T11:53:38Z</time></trkpt><trkpt lat="48.59220060823088" lon="-2.0706835448765264"><ele>54.0</ele><time>2026-04-05T11:53:40Z</time></trkpt><trkpt lat="48.59214131255507" lon="-2.0705920406088283"><ele>54.0</ele><time>2026-04-05T11:53:44Z</time></trkpt><trkpt lat="48.59205596936754" lon="-2.070538669518922"><ele>54.0</ele><time>2026-04-05T11:53:47Z</time></trkpt><trkpt lat="48.591976055266194" lon="-2.0704732514655646"><ele>54.0</ele><time>2026-04-05T11:53:51Z</time></trkpt><trkpt lat="48.59190685750305" lon="-2.070468314879341"><ele>54.0</ele><time>2026-04-05T11:53:53Z</time></trkpt><trkpt lat="48.59184531473663" lon="-2.070433287192646"><ele>54.0</ele><time>2026-04-05T11:53:56Z</time></trkpt><trkpt lat="48.591794845988595" lon="-2.0703657422456874"><ele>54.0</ele><time>2026-04-05T11:53:58Z</time></trkpt><trkpt lat="48.59172512524351" lon="-2.0703663675706876"><ele>54.166666666666664</ele><time>2026-04-05T11:54:01Z</time></trkpt><trkpt lat="48.59166159511491" lon="-2.070281995090349"><ele>54.33333333333333</ele><time>2026-04-05T11:54:04Z</time></trkpt><trkpt lat="48.59158714795159" lon="-2.0702497412336234"><ele>54.5</ele><time>2026-04-05T11:54:07Z</time></trkpt><trkpt lat="48.59150397171214" lon="-2.070223198936105"><ele>54.666666666666664</ele><time>2026-04-05T11:54:10Z</time></trkpt><trkpt lat="48.59148396668307" lon="-2.0701242505953403"><ele>54.83333333333333</ele><time>2026-04-05T11:54:12Z</time></trkpt><trkpt lat="48.591464196861885" lon="-2.070015302561306"><ele>55.0</ele><time>2026-04-05T11:54:14Z</time></trkpt><trkpt lat="48.59144223255984" lon="-2.0698756983995414"><ele>54.99999999999999</ele><time>2026-04-05T11:54:17Z</time></trkpt><trkpt lat="48.591427546990175" lon="-2.0697495271106012"><ele>55.0</ele><time>2026-04-05T11:54:19Z</time></trkpt><trkpt lat="48.59137917690956" lon="-2.0696274272073634"><ele>55.0</ele><time>2026-04-05T11:54:21Z</time></trkpt><trkpt lat="48.59129453726539" lon="-2.069562015261355"><ele>55.0</ele><time>2026-04-05T11:54:24Z</time></trkpt><trkpt lat="48.591205646381596" lon="-2.069566103936619"><ele>54.99999999999999</ele><time>2026-04-05T11:54:25Z</time></trkpt><trkpt lat="48.59114028479147" lon="-2.0695843663457487"><ele>55.0</ele><time>2026-04-05T11:54:26Z</time></trkpt><trkpt lat="48.59102567944719" lon="-2.0695960582762747"><ele>55.6</ele><time>2026-04-05T11:54:28Z</time></trkpt><trkpt lat="48.59090023825558" lon="-2.06960741938123"><ele>56.2</ele><time>2026-04-05T11:54:30Z</time></trkpt><trkpt lat="48.59078008937974" lon="-2.069611075353539"><ele>56.8</ele><time>2026-04-05T11:54:32Z</time></trkpt><trkpt lat="48.59070769655927" lon="-2.069608499900557"><ele>57.4</ele><time>2026-04-05T11:54:33Z</time></trkpt><trkpt lat="48.59064157312025" lon="-2.0696127888526257"><ele>58.0</ele><time>2026-04-05T11:54:34Z</time></trkpt><trkpt lat="48.590566214191874" lon="-2.0696312232459104"><ele>58.00000000000001</ele><time>2026-04-05T11:54:35Z</time></trkpt><trkpt lat="48.59049407151871" lon="-2.0696426463774142"><ele>58.0</ele><time>2026-04-05T11:54:36Z</time></trkpt><trkpt lat="48.59042672294934" lon="-2.0696518388372147"><ele>58.00000000000001</ele><time>2026-04-05T11:54:37Z</time></trkpt><trkpt lat="48.59035681909963" lon="-2.069658910335713"><ele>58.00000000000001</ele><time>2026-04-05T11:54:38Z</time></trkpt><trkpt lat="48.590293452875244" lon="-2.0696632232151315"><ele>58.0</ele><time>2026-04-05T11:54:39Z</time></trkpt><trkpt lat="48.59022686903734" lon="-2.069671774709002"><ele>58.00000000000001</ele><time>2026-04-05T11:54:40Z</time></trkpt><trkpt lat="48.59016207985229" lon="-2.069663920857612"><ele>58.00000000000001</ele><time>2026-04-05T11:54:41Z</time></trkpt><trkpt lat="48.59009298936193" lon="-2.0696389954608434"><ele>58.49999999999999</ele><time>2026-04-05T11:54:42Z</time></trkpt><trkpt lat="48.590034142126" lon="-2.0695981121991833"><ele>59.0</ele><time>2026-04-05T11:54:43Z</time></trkpt><trkpt lat="48.58997799045971" lon="-2.0695549933631763"><ele>59.5</ele><time>2026-04-05T11:54:44Z</time></trkpt><trkpt lat="48.58991475882435" lon="-2.0695141444959377"><ele>60.0</ele><time>2026-04-05T11:54:45Z</time></trkpt><trkpt lat="48.589860060660726" lon="-2.0694667910575726"><ele>60.49999999999999</ele><time>2026-04-05T11:54:46Z</time></trkpt><trkpt lat="48.58974657813805" lon="-2.069404587902384"><ele>61.0</ele><time>2026-04-05T11:54:47.999Z</time></trkpt><trkpt lat="48.58966128536246" lon="-2.06938263174241"><ele>60.99999999999999</ele><time>2026-04-05T11:54:48.999Z</time></trkpt><trkpt lat="48.58959448726281" lon="-2.069348095474041"><ele>61.0</ele><time>2026-04-05T11:54:49.999Z</time></trkpt><trkpt lat="48.58952801881876" lon="-2.069310680629924"><ele>60.99999999999999</ele><time>2026-04-05T11:54:50.999Z</time></trkpt><trkpt lat="48.58946560259113" lon="-2.0692789350111336"><ele>60.99999999999999</ele><time>2026-04-05T11:54:51.999Z</time></trkpt><trkpt lat="48.58940058629983" lon="-2.069243145452137"><ele>61.0</ele><time>2026-04-05T11:54:52.999Z</time></trkpt><trkpt lat="48.589335283002974" lon="-2.069203720247721"><ele>60.99999999999999</ele><time>2026-04-05T11:54:53.999Z</time></trkpt><trkpt lat="48.58926367639656" lon="-2.069177097347933"><ele>60.99999999999999</ele><time>2026-04-05T11:54:54.999Z</time></trkpt><trkpt lat="48.58918898376443" lon="-2.069138972176306"><ele>60.99999999999999</ele><time>2026-04-05T11:54:55.999Z</time></trkpt><trkpt lat="48.58913300954522" lon="-2.0690870752218626"><ele>61.0</ele><time>2026-04-05T11:54:56.999Z</time></trkpt><trkpt lat="48.58905581828849" lon="-2.0690486925320495"><ele>61.0</ele><time>2026-04-05T11:54:57.999Z</time></trkpt><trkpt lat="48.5889890745698" lon="-2.0690023180977626"><ele>61.0</ele><time>2026-04-05T11:54:58.999Z</time></trkpt><trkpt lat="48.58890990839181" lon="-2.068978769942599"><ele>60.99999999999999</ele><time>2026-04-05T11:54:59.999Z</time></trkpt><trkpt lat="48.58884667137221" lon="-2.0689432779849866"><ele>61.0</ele><time>2026-04-05T11:55:00.999Z</time></trkpt><trkpt lat="48.588761537166455" lon="-2.0689790714578655"><ele>61.428571428571416</ele><time>2026-04-05T11:55:01.999Z</time></trkpt><trkpt lat="48.58867135663114" lon="-2.068986317962572"><ele>61.857142857142854</ele><time>2026-04-05T11:55:03.999Z</time></trkpt><trkpt lat="48.5885937944916" lon="-2.0689925505278937"><ele>62.28571428571428</ele><time>2026-04-05T11:55:05.999Z</time></trkpt><trkpt lat="48.588524926801945" lon="-2.0689980844452815"><ele>62.71428571428571</ele><time>2026-04-05T11:55:08.999Z</time></trkpt><trkpt lat="48.58845638352572" lon="-2.069003371932224"><ele>63.14285714285714</ele><time>2026-04-05T11:55:10.999Z</time></trkpt><trkpt lat="48.58839013442196" lon="-2.069008390512787"><ele>63.57142857142857</ele><time>2026-04-05T11:55:12.999Z</time></trkpt><trkpt lat="48.588320515382115" lon="-2.0690136643497876"><ele>64.0</ele><time>2026-04-05T11:55:15.999Z</time></trkpt><trkpt lat="48.58824974082105" lon="-2.069019025746724"><ele>63.99999999999999</ele><time>2026-04-05T11:55:18.999Z</time></trkpt><trkpt lat="48.588182185611096" lon="-2.069024143258935"><ele>64.0</ele><time>2026-04-05T11:55:21.999Z</time></trkpt><trkpt lat="48.58810394482781" lon="-2.0690292531253776"><ele>64.0</ele><time>2026-04-05T11:55:24.999Z</time></trkpt><trkpt lat="48.58800111439449" lon="-2.068945944241649"><ele>64.0</ele><time>2026-04-05T11:55:27.999Z</time></trkpt><trkpt lat="48.58793320926687" lon="-2.0688957183294905"><ele>63.99999999999999</ele><time>2026-04-05T11:55:31Z</time></trkpt><trkpt lat="48.58785376686432" lon="-2.0688697546709327"><ele>64.0</ele><time>2026-04-05T11:55:34Z</time></trkpt><trkpt lat="48.587781100580514" lon="-2.068820574456343"><ele>64.0</ele><time>2026-04-05T11:55:37Z</time></trkpt><trkpt lat="48.58770278970553" lon="-2.0687904579129683"><ele>64.0</ele><time>2026-04-05T11:55:38Z</time></trkpt><trkpt lat="48.587616985951264" lon="-2.068772483796071"><ele>64.0</ele><time>2026-04-05T11:55:40Z</time></trkpt><trkpt lat="48.587387966941904" lon="-2.068670250399459"><ele>64.0</ele><time>2026-04-05T11:55:45Z</time></trkpt><trkpt lat="48.587271388949006" lon="-2.0686396529440616"><ele>64.0</ele><time>2026-04-05T11:55:47Z</time></trkpt><trkpt lat="48.58720749622444" lon="-2.068621431307001"><ele>64.0</ele><time>2026-04-05T11:55:48Z</time></trkpt><trkpt lat="48.58709065140069" lon="-2.0685781973556145"><ele>64.0</ele><time>2026-04-05T11:55:50Z</time></trkpt><trkpt lat="48.58697481572109" lon="-2.0685370566451495"><ele>64.0</ele><time>2026-04-05T11:55:52Z</time></trkpt><trkpt lat="48.586860847229346" lon="-2.068481983288451"><ele>64.0</ele><time>2026-04-05T11:55:54Z</time></trkpt><trkpt lat="48.5867524838895" lon="-2.068418291565053"><ele>64.33333333333333</ele><time>2026-04-05T11:55:56Z</time></trkpt><trkpt lat="48.5866904982717" lon="-2.0683917894140516"><ele>64.66666666666666</ele><time>2026-04-05T11:55:57Z</time></trkpt><trkpt lat="48.58662974069817" lon="-2.0683623449476785"><ele>65.0</ele><time>2026-04-05T11:55:58Z</time></trkpt><trkpt lat="48.586517342230074" lon="-2.0682947946528616"><ele>65.33333333333333</ele><time>2026-04-05T11:56:00Z</time></trkpt><trkpt lat="48.58639511033099" lon="-2.068247605583594"><ele>65.66666666666667</ele><time>2026-04-05T11:56:02Z</time></trkpt><trkpt lat="48.5863338080811" lon="-2.0682185409922935"><ele>66.0</ele><time>2026-04-05T11:56:03Z</time></trkpt><trkpt lat="48.58622473700426" lon="-2.0681664132964683"><ele>66.2</ele><time>2026-04-05T11:56:05Z</time></trkpt><trkpt lat="48.58610056743538" lon="-2.068124591827958"><ele>66.39999999999999</ele><time>2026-04-05T11:56:08Z</time></trkpt><trkpt lat="48.586029494709365" lon="-2.0680711829151273"><ele>66.6</ele><time>2026-04-05T11:56:09Z</time></trkpt><trkpt lat="48.585972849746135" lon="-2.0680291449561072"><ele>66.8</ele><time>2026-04-05T11:56:10Z</time></trkpt><trkpt lat="48.5859176120424" lon="-2.0679815235967633"><ele>67.0</ele><time>2026-04-05T11:56:11Z</time></trkpt><trkpt lat="48.58580562481167" lon="-2.0679132185748776"><ele>67.0</ele><time>2026-04-05T11:56:13Z</time></trkpt><trkpt lat="48.585749435818656" lon="-2.0678695436135426"><ele>67.0</ele><time>2026-04-05T11:56:14Z</time></trkpt><trkpt lat="48.58569087328573" lon="-2.0678328738450316"><ele>67.0</ele><time>2026-04-05T11:56:15Z</time></trkpt><trkpt lat="48.58562950480973" lon="-2.067792863898649"><ele>67.0</ele><time>2026-04-05T11:56:16Z</time></trkpt><trkpt lat="48.58556917683498" lon="-2.0677623397798683"><ele>67.0</ele><time>2026-04-05T11:56:17Z</time></trkpt><trkpt lat="48.58545459978428" lon="-2.067691529945097"><ele>67.0</ele><time>2026-04-05T11:56:19Z</time></trkpt><trkpt lat="48.58539501337108" lon="-2.0676548263757493"><ele>67.0</ele><time>2026-04-05T11:56:20Z</time></trkpt><trkpt lat="48.585333584646854" lon="-2.0676174208886273"><ele>66.85714285714286</ele><time>2026-04-05T11:56:21Z</time></trkpt><trkpt lat="48.58527240900509" lon="-2.0675806907350514"><ele>66.71428571428571</ele><time>2026-04-05T11:56:22Z</time></trkpt><trkpt lat="48.585207200305966" lon="-2.067553197229482"><ele>66.57142857142857</ele><time>2026-04-05T11:56:23Z</time></trkpt><trkpt lat="48.58514763727851" lon="-2.067514171546984"><ele>66.42857142857143</ele><time>2026-04-05T11:56:24Z</time></trkpt><trkpt lat="48.585082527396224" lon="-2.067479069824872"><ele>66.28571428571429</ele><time>2026-04-05T11:56:25Z</time></trkpt><trkpt lat="48.58501922736171" lon="-2.0674404372222983"><ele>66.14285714285714</ele><time>2026-04-05T11:56:26Z</time></trkpt><trkpt lat="48.58495209036564" lon="-2.067406995600328"><ele>66.0</ele><time>2026-04-05T11:56:27Z</time></trkpt><trkpt lat="48.5848875535259" lon="-2.0673794897196807"><ele>66.0</ele><time>2026-04-05T11:56:28Z</time></trkpt><trkpt lat="48.584818278017" lon="-2.0673441693100787"><ele>66.0</ele><time>2026-04-05T11:56:29Z</time></trkpt><trkpt lat="48.58469416734955" lon="-2.067276572615268"><ele>66.0</ele><time>2026-04-05T11:56:31Z</time></trkpt><trkpt lat="48.58457560141087" lon="-2.067218212466371"><ele>66.0</ele><time>2026-04-05T11:56:33Z</time></trkpt><trkpt lat="48.58446147400673" lon="-2.067158192906468"><ele>66.16666666666667</ele><time>2026-04-05T11:56:35Z</time></trkpt><trkpt lat="48.58439940108346" lon="-2.0671150555086015"><ele>66.33333333333333</ele><time>2026-04-05T11:56:36Z</time></trkpt><trkpt lat="48.58427932938199" lon="-2.0670426709078322"><ele>66.5</ele><time>2026-04-05T11:56:38Z</time></trkpt><trkpt lat="48.58421490950475" lon="-2.067031970434264"><ele>66.66666666666666</ele><time>2026-04-05T11:56:39Z</time></trkpt><trkpt lat="48.58415224907121" lon="-2.067003988462115"><ele>66.83333333333333</ele><time>2026-04-05T11:56:40Z</time></trkpt><trkpt lat="48.584090603028244" lon="-2.0669793893629635"><ele>67.0</ele><time>2026-04-05T11:56:41Z</time></trkpt><trkpt lat="48.58402163756309" lon="-2.0669625337918447"><ele>67.0</ele><time>2026-04-05T11:56:42Z</time></trkpt><trkpt lat="48.58395958835332" lon="-2.0669315465466016"><ele>67.0</ele><time>2026-04-05T11:56:43Z</time></trkpt><trkpt lat="48.58385699575962" lon="-2.066847416355822"><ele>67.0</ele><time>2026-04-05T11:56:45Z</time></trkpt><trkpt lat="48.58374150352445" lon="-2.066768060921774"><ele>67.0</ele><time>2026-04-05T11:56:47Z</time></trkpt><trkpt lat="48.583675570059356" lon="-2.06674501957882"><ele>67.0</ele><time>2026-04-05T11:56:48Z</time></trkpt><trkpt lat="48.583602203317625" lon="-2.066680283229018"><ele>67.0</ele><time>2026-04-05T11:56:49Z</time></trkpt><trkpt lat="48.583489789443966" lon="-2.066622104645871"><ele>67.0</ele><time>2026-04-05T11:56:50.999Z</time></trkpt><trkpt lat="48.583418125656685" lon="-2.066606491583388"><ele>67.0</ele><time>2026-04-05T11:56:51.999Z</time></trkpt><trkpt lat="48.5832967022155" lon="-2.066538907059387"><ele>67.0</ele><time>2026-04-05T11:56:53.999Z</time></trkpt><trkpt lat="48.583229473168494" lon="-2.0665222529797087"><ele>67.0</ele><time>2026-04-05T11:56:54.999Z</time></trkpt><trkpt lat="48.58316163231858" lon="-2.066486158395268"><ele>67.25</ele><time>2026-04-05T11:56:55.999Z</time></trkpt><trkpt lat="48.583024946381705" lon="-2.06643657180064"><ele>67.5</ele><time>2026-04-05T11:56:57.999Z</time></trkpt><trkpt lat="48.58290913655263" lon="-2.0663765208421756"><ele>67.75</ele><time>2026-04-05T11:56:59.999Z</time></trkpt><trkpt lat="48.58281396035637" lon="-2.066303138868427"><ele>68.0</ele><time>2026-04-05T11:57:01.999Z</time></trkpt><trkpt lat="48.58270717076832" lon="-2.066244466370925"><ele>68.16666666666667</ele><time>2026-04-05T11:57:03.999Z</time></trkpt><trkpt lat="48.582641178798724" lon="-2.0662078326572275"><ele>68.33333333333334</ele><time>2026-04-05T11:57:04.999Z</time></trkpt><trkpt lat="48.58253753048395" lon="-2.0661351843126767"><ele>68.5</ele><time>2026-04-05T11:57:06.999Z</time></trkpt><trkpt lat="48.58247799064966" lon="-2.066104067046666"><ele>68.66666666666667</ele><time>2026-04-05T11:57:07.999Z</time></trkpt><trkpt lat="48.582414734488545" lon="-2.066049729588678"><ele>68.83333333333333</ele><time>2026-04-05T11:57:08.999Z</time></trkpt><trkpt lat="48.582302000223365" lon="-2.0659581073397875"><ele>69.0</ele><time>2026-04-05T11:57:10.999Z</time></trkpt><trkpt lat="48.582240966363045" lon="-2.0659339801570527"><ele>69.0</ele><time>2026-04-05T11:57:11.999Z</time></trkpt><trkpt lat="48.582131155440514" lon="-2.0658604143570822"><ele>69.0</ele><time>2026-04-05T11:57:13.999Z</time></trkpt><trkpt lat="48.58207048886726" lon="-2.0658132652541794"><ele>69.0</ele><time>2026-04-05T11:57:14.999Z</time></trkpt><trkpt lat="48.581958192366464" lon="-2.065750789676039"><ele>69.0</ele><time>2026-04-05T11:57:16.999Z</time></trkpt><trkpt lat="48.58190117493" lon="-2.0657083956627815"><ele>69.0</ele><time>2026-04-05T11:57:17.999Z</time></trkpt><trkpt lat="48.58178950012238" lon="-2.0656209901951095"><ele>69.0</ele><time>2026-04-05T11:57:19.999Z</time></trkpt><trkpt lat="48.58167697576901" lon="-2.065520841026118"><ele>69.0</ele><time>2026-04-05T11:57:21.999Z</time></trkpt><trkpt lat="48.58160420593763" lon="-2.0654664755123107"><ele>69.0</ele><time>2026-04-05T11:57:22.999Z</time></trkpt><trkpt lat="48.58154072344289" lon="-2.065415449877497"><ele>69.0</ele><time>2026-04-05T11:57:23.999Z</time></trkpt><trkpt lat="48.58147292371066" lon="-2.065391256540327"><ele>69.0</ele><time>2026-04-05T11:57:24.999Z</time></trkpt><trkpt lat="48.58140098734693" lon="-2.065356107409811"><ele>69.0</ele><time>2026-04-05T11:57:25.999Z</time></trkpt><trkpt lat="48.58132860443723" lon="-2.0653228271605815"><ele>69.0</ele><time>2026-04-05T11:57:26.999Z</time></trkpt><trkpt lat="48.58121889260197" lon="-2.0652573346543073"><ele>69.0</ele><time>2026-04-05T11:57:28.999Z</time></trkpt><trkpt lat="48.581154331823846" lon="-2.0652061817083016"><ele>69.0</ele><time>2026-04-05T11:57:29.999Z</time></trkpt><trkpt lat="48.5810949878926" lon="-2.065171299794566"><ele>69.0</ele><time>2026-04-05T11:57:30.999Z</time></trkpt><trkpt lat="48.5810336860924" lon="-2.06513089460469"><ele>69.0</ele><time>2026-04-05T11:57:31.999Z</time></trkpt><trkpt lat="48.58096794591107" lon="-2.065084070613436"><ele>69.0</ele><time>2026-04-05T11:57:32.999Z</time></trkpt><trkpt lat="48.580844355720345" lon="-2.0649933604643347"><ele>69.2</ele><time>2026-04-05T11:57:34.999Z</time></trkpt><trkpt lat="48.58078496329165" lon="-2.0649498669514084"><ele>69.4</ele><time>2026-04-05T11:57:35.999Z</time></trkpt><trkpt lat="48.58067801604277" lon="-2.064861881387084"><ele>69.6</ele><time>2026-04-05T11:57:38Z</time></trkpt><trkpt lat="48.58061130285974" lon="-2.0648198078637465"><ele>69.8</ele><time>2026-04-05T11:57:39Z</time></trkpt><trkpt lat="48.58053473520052" lon="-2.06480414909129"><ele>70.0</ele><time>2026-04-05T11:57:41Z</time></trkpt><trkpt lat="48.580425191254314" lon="-2.0647367529721676"><ele>70.0</ele><time>2026-04-05T11:57:43Z</time></trkpt><trkpt lat="48.58032964612236" lon="-2.064666674428135"><ele>70.0</ele><time>2026-04-05T11:57:45Z</time></trkpt><trkpt lat="48.580277317091216" lon="-2.0646058906467237"><ele>70.0</ele><time>2026-04-05T11:57:46Z</time></trkpt><trkpt lat="48.58022641893177" lon="-2.0645463036628207"><ele>70.0</ele><time>2026-04-05T11:57:47Z</time></trkpt><trkpt lat="48.58016153532861" lon="-2.0645046007556638"><ele>70.0</ele><time>2026-04-05T11:57:48Z</time></trkpt><trkpt lat="48.58009636169862" lon="-2.064465521023842"><ele>70.0</ele><time>2026-04-05T11:57:49Z</time></trkpt><trkpt lat="48.58002013897476" lon="-2.064448107511883"><ele>70.0</ele><time>2026-04-05T11:57:50Z</time></trkpt><trkpt lat="48.57995323286673" lon="-2.064384216251588"><ele>70.0</ele><time>2026-04-05T11:57:51Z</time></trkpt><trkpt lat="48.579882918618196" lon="-2.064332016406049"><ele>70.0</ele><time>2026-04-05T11:57:52Z</time></trkpt><trkpt lat="48.579779038142405" lon="-2.0642540695841007"><ele>70.0</ele><time>2026-04-05T11:57:54Z</time></trkpt><trkpt lat="48.57966238268688" lon="-2.0641809304650645"><ele>70.0</ele><time>2026-04-05T11:57:56Z</time></trkpt><trkpt lat="48.57960133424242" lon="-2.0641256791164886"><ele>70.0</ele><time>2026-04-05T11:57:57Z</time></trkpt><trkpt lat="48.57953508487931" lon="-2.064083471896763"><ele>70.0</ele><time>2026-04-05T11:57:58Z</time></trkpt><trkpt lat="48.57942977236273" lon="-2.0639971218091313"><ele>70.0</ele><time>2026-04-05T11:58:00Z</time></trkpt><trkpt lat="48.579343832110354" lon="-2.0639383674982352"><ele>70.0</ele><time>2026-04-05T11:58:01Z</time></trkpt><trkpt lat="48.57927131612788" lon="-2.0639079842675385"><ele>70.0</ele><time>2026-04-05T11:58:02Z</time></trkpt><trkpt lat="48.579206542307645" lon="-2.0638313531081605"><ele>70.0</ele><time>2026-04-05T11:58:03Z</time></trkpt><trkpt lat="48.5791304747881" lon="-2.0638004356187407"><ele>70.0</ele><time>2026-04-05T11:58:04Z</time></trkpt><trkpt lat="48.579047700536215" lon="-2.063749802190172"><ele>70.0</ele><time>2026-04-05T11:58:05Z</time></trkpt><trkpt lat="48.57899454456489" lon="-2.063667614102706"><ele>70.0</ele><time>2026-04-05T11:58:06Z</time></trkpt><trkpt lat="48.57892734609102" lon="-2.063637272299776"><ele>70.0</ele><time>2026-04-05T11:58:07Z</time></trkpt><trkpt lat="48.578861930255215" lon="-2.063588603185347"><ele>70.0</ele><time>2026-04-05T11:58:08Z</time></trkpt><trkpt lat="48.57878404596851" lon="-2.063542068137412"><ele>70.0</ele><time>2026-04-05T11:58:09Z</time></trkpt><trkpt lat="48.57867057050229" lon="-2.0634509426038243"><ele>69.83333333333333</ele><time>2026-04-05T11:58:11Z</time></trkpt><trkpt lat="48.57859831110028" lon="-2.063363298097399"><ele>69.66666666666666</ele><time>2026-04-05T11:58:12Z</time></trkpt><trkpt lat="48.57853403898376" lon="-2.0633216391644225"><ele>69.5</ele><time>2026-04-05T11:58:13Z</time></trkpt><trkpt lat="48.57846485316416" lon="-2.063238749977316"><ele>69.33333333333333</ele><time>2026-04-05T11:58:14Z</time></trkpt><trkpt lat="48.57837737291544" lon="-2.0631505347569243"><ele>69.16666666666667</ele><time>2026-04-05T11:58:15Z</time></trkpt><trkpt lat="48.57830730309179" lon="-2.0631002452499327"><ele>69.0</ele><time>2026-04-05T11:58:16Z</time></trkpt><trkpt lat="48.578220745768625" lon="-2.063046188355382"><ele>69.0</ele><time>2026-04-05T11:58:17Z</time></trkpt><trkpt lat="48.5781228651255" lon="-2.0629771720607644"><ele>69.0</ele><time>2026-04-05T11:58:18Z</time></trkpt><trkpt lat="48.57803475046607" lon="-2.062918722961914"><ele>69.0</ele><time>2026-04-05T11:58:19Z</time></trkpt><trkpt lat="48.577964188717445" lon="-2.0628636459543124"><ele>69.0</ele><time>2026-04-05T11:58:20Z</time></trkpt><trkpt lat="48.57788249795342" lon="-2.062799482751953"><ele>69.0</ele><time>2026-04-05T11:58:21Z</time></trkpt><trkpt lat="48.57780471415164" lon="-2.0627286398515015"><ele>69.2</ele><time>2026-04-05T11:58:22Z</time></trkpt><trkpt lat="48.57771022124019" lon="-2.0626574022531554"><ele>69.4</ele><time>2026-04-05T11:58:23Z</time></trkpt><trkpt lat="48.577617473072586" lon="-2.0625755157447356"><ele>69.6</ele><time>2026-04-05T11:58:24Z</time></trkpt><trkpt lat="48.57751765607315" lon="-2.062522482685096"><ele>69.8</ele><time>2026-04-05T11:58:25Z</time></trkpt><trkpt lat="48.57741243094143" lon="-2.0624473840357185"><ele>70.0</ele><time>2026-04-05T11:58:26Z</time></trkpt><trkpt lat="48.577347513776594" lon="-2.062399458225342"><ele>70.0</ele><time>2026-04-05T11:58:27Z</time></trkpt><trkpt lat="48.5772486398673" lon="-2.0623472863816095"><ele>70.0</ele><time>2026-04-05T11:58:28Z</time></trkpt><trkpt lat="48.57718115574755" lon="-2.062285807286977"><ele>70.0</ele><time>2026-04-05T11:58:29Z</time></trkpt><trkpt lat="48.57712312980665" lon="-2.062240009783804"><ele>70.0</ele><time>2026-04-05T11:58:30Z</time></trkpt><trkpt lat="48.57704486975766" lon="-2.062215793603876"><ele>70.0</ele><time>2026-04-05T11:58:31Z</time></trkpt><trkpt lat="48.576930995109606" lon="-2.062129791305499"><ele>69.83333333333333</ele><time>2026-04-05T11:58:33Z</time></trkpt><trkpt lat="48.576866840428025" lon="-2.0620816059584435"><ele>69.66666666666666</ele><time>2026-04-05T11:58:34Z</time></trkpt><trkpt lat="48.576763468493226" lon="-2.062014362534857"><ele>69.5</ele><time>2026-04-05T11:58:36Z</time></trkpt><trkpt lat="48.57665875583166" lon="-2.061968903416059"><ele>69.33333333333333</ele><time>2026-04-05T11:58:39Z</time></trkpt><trkpt lat="48.57660474241868" lon="-2.0619198404628474"><ele>69.16666666666667</ele><time>2026-04-05T11:58:41Z</time></trkpt><trkpt lat="48.57653920717563" lon="-2.061854986731642"><ele>69.0</ele><time>2026-04-05T11:58:43Z</time></trkpt><trkpt lat="48.57646298605474" lon="-2.061817780957988"><ele>69.0</ele><time>2026-04-05T11:58:45Z</time></trkpt><trkpt lat="48.57637319227863" lon="-2.0617944702027917"><ele>69.0</ele><time>2026-04-05T11:58:48Z</time></trkpt><trkpt lat="48.576251718824416" lon="-2.0616743892801934"><ele>69.0</ele><time>2026-04-05T11:58:50Z</time></trkpt><trkpt lat="48.576172893149284" lon="-2.0616472152052197"><ele>69.0</ele><time>2026-04-05T11:58:50.999Z</time></trkpt><trkpt lat="48.57607352869379" lon="-2.061586163397696"><ele>69.0</ele><time>2026-04-05T11:58:51.999Z</time></trkpt><trkpt lat="48.57594519069827" lon="-2.061513063099781"><ele>69.5</ele><time>2026-04-05T11:58:53.999Z</time></trkpt><trkpt lat="48.57583864154696" lon="-2.061444398816898"><ele>70.0</ele><time>2026-04-05T11:58:55.999Z</time></trkpt><trkpt lat="48.5757547370523" lon="-2.061401358896806"><ele>70.5</ele><time>2026-04-05T11:58:57.999Z</time></trkpt><trkpt lat="48.575682469281666" lon="-2.061343525144924"><ele>71.0</ele><time>2026-04-05T11:59:00.999Z</time></trkpt><trkpt lat="48.57561165359974" lon="-2.0613108574663817"><ele>71.5</ele><time>2026-04-05T11:59:02.999Z</time></trkpt><trkpt lat="48.57552951605157" lon="-2.06126563114123"><ele>72.0</ele><time>2026-04-05T11:59:04.999Z</time></trkpt><trkpt lat="48.57543508936759" lon="-2.0612243911691497"><ele>72.4</ele><time>2026-04-05T11:59:06.999Z</time></trkpt><trkpt lat="48.57534260026128" lon="-2.0611763803004024"><ele>72.80000000000001</ele><time>2026-04-05T11:59:08.999Z</time></trkpt><trkpt lat="48.57523450791059" lon="-2.061133879570513"><ele>73.2</ele><time>2026-04-05T11:59:10.999Z</time></trkpt><trkpt lat="48.57513928796068" lon="-2.061078563368858"><ele>73.60000000000001</ele><time>2026-04-05T11:59:12.999Z</time></trkpt><trkpt lat="48.57503489225865" lon="-2.061033736733286"><ele>74.0</ele><time>2026-04-05T11:59:14.999Z</time></trkpt><trkpt lat="48.57493674661787" lon="-2.0609840810093414"><ele>74.0</ele><time>2026-04-05T11:59:16.999Z</time></trkpt><trkpt lat="48.574835467196614" lon="-2.0609353317201684"><ele>74.0</ele><time>2026-04-05T11:59:18.999Z</time></trkpt><trkpt lat="48.574736050644496" lon="-2.0608843608130227"><ele>74.0</ele><time>2026-04-05T11:59:20.999Z</time></trkpt><trkpt lat="48.574637481424794" lon="-2.0608275319568943"><ele>74.0</ele><time>2026-04-05T11:59:22.999Z</time></trkpt><trkpt lat="48.57453707978788" lon="-2.060760006536524"><ele>74.0</ele><time>2026-04-05T11:59:24.999Z</time></trkpt><trkpt lat="48.57443614117303" lon="-2.0607077148627617"><ele>74.0</ele><time>2026-04-05T11:59:26.999Z</time></trkpt><trkpt lat="48.57428987227241" lon="-2.0606320733248085"><ele>74.0</ele><time>2026-04-05T11:59:29.999Z</time></trkpt><trkpt lat="48.574188391080845" lon="-2.0605639870359793"><ele>74.0</ele><time>2026-04-05T11:59:31.999Z</time></trkpt><trkpt lat="48.57408163539219" lon="-2.0605098925109173"><ele>74.0</ele><time>2026-04-05T11:59:33.999Z</time></trkpt><trkpt lat="48.57398373233616" lon="-2.0604356394546404"><ele>74.0</ele><time>2026-04-05T11:59:35.999Z</time></trkpt><trkpt lat="48.57387815157595" lon="-2.0603968772330536"><ele>74.0</ele><time>2026-04-05T11:59:37.999Z</time></trkpt><trkpt lat="48.573815393110216" lon="-2.0603515233140968"><ele>74.0</ele><time>2026-04-05T11:59:38.999Z</time></trkpt><trkpt lat="48.573709416995435" lon="-2.0602922586110957"><ele>74.0</ele><time>2026-04-05T11:59:40.999Z</time></trkpt><trkpt lat="48.57360067964655" lon="-2.0602318552721472"><ele>74.0</ele><time>2026-04-05T11:59:43Z</time></trkpt><trkpt lat="48.57349544856573" lon="-2.0601697068527645"><ele>74.0</ele><time>2026-04-05T11:59:45Z</time></trkpt><trkpt lat="48.57339343957811" lon="-2.0601341290423107"><ele>74.0</ele><time>2026-04-05T11:59:47Z</time></trkpt><trkpt lat="48.57329592681927" lon="-2.0600949525050294"><ele>74.0</ele><time>2026-04-05T11:59:49Z</time></trkpt><trkpt lat="48.57319790874505" lon="-2.06001073170183"><ele>74.0</ele><time>2026-04-05T11:59:51Z</time></trkpt><trkpt lat="48.573088610703095" lon="-2.059952691241859"><ele>74.0</ele><time>2026-04-05T11:59:53Z</time></trkpt><trkpt lat="48.57298640879503" lon="-2.05988582785056"><ele>74.0</ele><time>2026-04-05T11:59:55Z</time></trkpt><trkpt lat="48.57292215165017" lon="-2.059851690384941"><ele>74.0</ele><time>2026-04-05T11:59:56Z</time></trkpt><trkpt lat="48.57281142121587" lon="-2.059800331467888"><ele>74.0</ele><time>2026-04-05T11:59:58Z</time></trkpt><trkpt lat="48.572706762035935" lon="-2.05974878370694"><ele>74.0</ele><time>2026-04-05T12:00:00Z</time></trkpt><trkpt lat="48.57259675805961" lon="-2.0596921550230083"><ele>74.0</ele><time>2026-04-05T12:00:02Z</time></trkpt><trkpt lat="48.572491764217844" lon="-2.0596330345821405"><ele>74.0</ele><time>2026-04-05T12:00:04Z</time></trkpt><trkpt lat="48.57238277953344" lon="-2.0595817282902424"><ele>74.0</ele><time>2026-04-05T12:00:06Z</time></trkpt><trkpt lat="48.57227989721617" lon="-2.0595352800970046"><ele>74.0</ele><time>2026-04-05T12:00:08Z</time></trkpt><trkpt lat="48.57217826086189" lon="-2.059488511041149"><ele>74.0</ele><time>2026-04-05T12:00:10Z</time></trkpt><trkpt lat="48.57207630951928" lon="-2.0594331934065657"><ele>74.0</ele><time>2026-04-05T12:00:12Z</time></trkpt><trkpt lat="48.5719803661823" lon="-2.059387277481364"><ele>74.0</ele><time>2026-04-05T12:00:14Z</time></trkpt><trkpt lat="48.57189026645783" lon="-2.059341414682751"><ele>74.0</ele><time>2026-04-05T12:00:16Z</time></trkpt><trkpt lat="48.57180647724966" lon="-2.059306951580552"><ele>74.0</ele><time>2026-04-05T12:00:18Z</time></trkpt><trkpt lat="48.571725882021205" lon="-2.059353024364326"><ele>74.0</ele><time>2026-04-05T12:00:20Z</time></trkpt><trkpt lat="48.57166685128168" lon="-2.0594180208052197"><ele>74.0</ele><time>2026-04-05T12:00:22Z</time></trkpt><trkpt lat="48.57160237911368" lon="-2.059460220781355"><ele>74.0</ele><time>2026-04-05T12:00:24Z</time></trkpt><trkpt lat="48.57152499615134" lon="-2.059515097460047"><ele>74.0</ele><time>2026-04-05T12:00:26Z</time></trkpt><trkpt lat="48.57144748790296" lon="-2.059564481380648"><ele>74.0</ele><time>2026-04-05T12:00:28Z</time></trkpt><trkpt lat="48.571377173189575" lon="-2.0595993794875924"><ele>74.0</ele><time>2026-04-05T12:00:30Z</time></trkpt><trkpt lat="48.571320319040375" lon="-2.05952675253004"><ele>74.0</ele><time>2026-04-05T12:00:32Z</time></trkpt><trkpt lat="48.57130177923916" lon="-2.0594049167493695"><ele>74.0</ele><time>2026-04-05T12:00:34Z</time></trkpt><trkpt lat="48.57126586614761" lon="-2.0592851910131973"><ele>74.0</ele><time>2026-04-05T12:00:36Z</time></trkpt><trkpt lat="48.57124282364267" lon="-2.0591742831684345"><ele>75.0</ele><time>2026-04-05T12:00:38Z</time></trkpt><trkpt lat="48.571155129179566" lon="-2.059107753719345"><ele>76.0</ele><time>2026-04-05T12:00:40Z</time></trkpt><trkpt lat="48.571040833230875" lon="-2.0590977021693666"><ele>77.0</ele><time>2026-04-05T12:00:42Z</time></trkpt><trkpt lat="48.57092559787723" lon="-2.0590812780119334"><ele>78.0</ele><time>2026-04-05T12:00:44Z</time></trkpt><trkpt lat="48.57080696476941" lon="-2.0590514134397324"><ele>79.0</ele><time>2026-04-05T12:00:46Z</time></trkpt><trkpt lat="48.57070821267135" lon="-2.0590432608508555"><ele>79.0</ele><time>2026-04-05T12:00:48Z</time></trkpt><trkpt lat="48.570589254499396" lon="-2.059010707819188"><ele>79.0</ele><time>2026-04-05T12:00:50Z</time></trkpt><trkpt lat="48.57052386802467" lon="-2.0590107787946126"><ele>79.0</ele><time>2026-04-05T12:00:51Z</time></trkpt><trkpt lat="48.57045328916847" lon="-2.0589908702019373"><ele>79.0</ele><time>2026-04-05T12:00:52Z</time></trkpt><trkpt lat="48.570337526044575" lon="-2.058960622368682"><ele>79.0</ele><time>2026-04-05T12:00:54Z</time></trkpt><trkpt lat="48.57021573370102" lon="-2.058959119972315"><ele>79.6</ele><time>2026-04-05T12:00:56Z</time></trkpt><trkpt lat="48.570095335524776" lon="-2.0589484956307613"><ele>80.2</ele><time>2026-04-05T12:00:57.999Z</time></trkpt><trkpt lat="48.56997516430088" lon="-2.058940713661584"><ele>80.8</ele><time>2026-04-05T12:00:59.999Z</time></trkpt><trkpt lat="48.56987084213822" lon="-2.0589260655606965"><ele>81.39999999999999</ele><time>2026-04-05T12:01:01.999Z</time></trkpt><trkpt lat="48.569801681699076" lon="-2.0589391940367716"><ele>82.0</ele><time>2026-04-05T12:01:02.999Z</time></trkpt><trkpt lat="48.56969333459273" lon="-2.058937859664893"><ele>82.0</ele><time>2026-04-05T12:01:04.999Z</time></trkpt><trkpt lat="48.569577084210195" lon="-2.058923134673662"><ele>82.0</ele><time>2026-04-05T12:01:06.999Z</time></trkpt><trkpt lat="48.56945276763579" lon="-2.058922849954094"><ele>82.0</ele><time>2026-04-05T12:01:08.999Z</time></trkpt><trkpt lat="48.569341105762064" lon="-2.058901900537542"><ele>82.0</ele><time>2026-04-05T12:01:10.999Z</time></trkpt><trkpt lat="48.56922450974887" lon="-2.05889195325654"><ele>81.0</ele><time>2026-04-05T12:01:12.999Z</time></trkpt><trkpt lat="48.56911662891594" lon="-2.0588792908950633"><ele>80.0</ele><time>2026-04-05T12:01:14.999Z</time></trkpt><trkpt lat="48.56904849820385" lon="-2.058884897725622"><ele>79.0</ele><time>2026-04-05T12:01:15.999Z</time></trkpt><trkpt lat="48.56893111765062" lon="-2.058871834802663"><ele>78.0</ele><time>2026-04-05T12:01:17.999Z</time></trkpt><trkpt lat="48.56881228931885" lon="-2.0588735885730505"><ele>77.0</ele><time>2026-04-05T12:01:19.999Z</time></trkpt><trkpt lat="48.568748233370016" lon="-2.0588777815361508"><ele>77.4</ele><time>2026-04-05T12:01:20.999Z</time></trkpt><trkpt lat="48.568680269392125" lon="-2.058877264921795"><ele>77.80000000000001</ele><time>2026-04-05T12:01:21.999Z</time></trkpt><trkpt lat="48.568564138943465" lon="-2.058871679559338"><ele>78.2</ele><time>2026-04-05T12:01:23.999Z</time></trkpt><trkpt lat="48.56844339307395" lon="-2.0588710369146868"><ele>78.60000000000001</ele><time>2026-04-05T12:01:25.999Z</time></trkpt><trkpt lat="48.56837931705153" lon="-2.0588635950919216"><ele>79.0</ele><time>2026-04-05T12:01:26.999Z</time></trkpt><trkpt lat="48.56825047306647" lon="-2.0588615984190257"><ele>79.0</ele><time>2026-04-05T12:01:28.999Z</time></trkpt><trkpt lat="48.56813688303799" lon="-2.0588270773951654"><ele>79.0</ele><time>2026-04-05T12:01:30.999Z</time></trkpt><trkpt lat="48.568014886506475" lon="-2.058842078365375"><ele>79.0</ele><time>2026-04-05T12:01:32.999Z</time></trkpt><trkpt lat="48.56789296104857" lon="-2.0588241067201674"><ele>79.0</ele><time>2026-04-05T12:01:34.999Z</time></trkpt><trkpt lat="48.56778113283563" lon="-2.058808802677754"><ele>79.2</ele><time>2026-04-05T12:01:36.999Z</time></trkpt><trkpt lat="48.56761222346697" lon="-2.0588449919528595"><ele>79.4</ele><time>2026-04-05T12:01:38.999Z</time></trkpt><trkpt lat="48.567531006931276" lon="-2.0588092477763866"><ele>79.6</ele><time>2026-04-05T12:01:40.999Z</time></trkpt><trkpt lat="48.56741631091046" lon="-2.058789483219018"><ele>79.8</ele><time>2026-04-05T12:01:42.999Z</time></trkpt><trkpt lat="48.56735204298787" lon="-2.058791997707111"><ele>80.0</ele><time>2026-04-05T12:01:43.999Z</time></trkpt><trkpt lat="48.56724094530067" lon="-2.0587801435868394"><ele>80.0</ele><time>2026-04-05T12:01:45.999Z</time></trkpt><trkpt lat="48.56716552186457" lon="-2.058790952796846"><ele>80.0</ele><time>2026-04-05T12:01:46.999Z</time></trkpt><trkpt lat="48.56705385281354" lon="-2.058775452405297"><ele>80.0</ele><time>2026-04-05T12:01:49Z</time></trkpt><trkpt lat="48.566944704047934" lon="-2.0587811908064144"><ele>80.0</ele><time>2026-04-05T12:01:51Z</time></trkpt><trkpt lat="48.5668405559005" lon="-2.058767791431332"><ele>80.0</ele><time>2026-04-05T12:01:53Z</time></trkpt><trkpt lat="48.56677641507605" lon="-2.0587767815745215"><ele>79.8</ele><time>2026-04-05T12:01:54Z</time></trkpt><trkpt lat="48.56665166444406" lon="-2.05877779848517"><ele>79.6</ele><time>2026-04-05T12:01:56Z</time></trkpt><trkpt lat="48.56655359431679" lon="-2.058755665503092"><ele>79.4</ele><time>2026-04-05T12:01:58Z</time></trkpt><trkpt lat="48.56644661950908" lon="-2.0587424796166944"><ele>79.2</ele><time>2026-04-05T12:02:00Z</time></trkpt><trkpt lat="48.56637718867524" lon="-2.0587294511936247"><ele>79.0</ele><time>2026-04-05T12:02:01Z</time></trkpt><trkpt lat="48.566304983792215" lon="-2.05871149445515"><ele>79.00000000000001</ele><time>2026-04-05T12:02:02Z</time></trkpt><trkpt lat="48.56623708231966" lon="-2.0586979577192115"><ele>79.0</ele><time>2026-04-05T12:02:03Z</time></trkpt><trkpt lat="48.566168399783486" lon="-2.058685089065883"><ele>79.0</ele><time>2026-04-05T12:02:04.019Z</time></trkpt><trkpt lat="48.56610137047759" lon="-2.0586718897085476"><ele>79.0</ele><time>2026-04-05T12:02:05.02Z</time></trkpt><trkpt lat="48.566034645435884" lon="-2.058660164911259"><ele>79.0</ele><time>2026-04-05T12:02:06Z</time></trkpt><trkpt lat="48.565969763582835" lon="-2.0587024959793707"><ele>79.00000000000001</ele><time>2026-04-05T12:02:08Z</time></trkpt><trkpt lat="48.56588376071675" lon="-2.058688226976076"><ele>79.0</ele><time>2026-04-05T12:02:10Z</time></trkpt><trkpt lat="48.56578257273159" lon="-2.058682727787271"><ele>79.0</ele><time>2026-04-05T12:02:12Z</time></trkpt><trkpt lat="48.56568374766729" lon="-2.058674596680965"><ele>79.0</ele><time>2026-04-05T12:02:14Z</time></trkpt><trkpt lat="48.565580098985905" lon="-2.0586775224097127"><ele>79.0</ele><time>2026-04-05T12:02:16Z</time></trkpt><trkpt lat="48.56546435899366" lon="-2.05866753681283"><ele>79.0</ele><time>2026-04-05T12:02:18Z</time></trkpt><trkpt lat="48.565340648795186" lon="-2.0586694484895585"><ele>79.0</ele><time>2026-04-05T12:02:20Z</time></trkpt><trkpt lat="48.56522573764591" lon="-2.0586579277584227"><ele>78.75</ele><time>2026-04-05T12:02:22Z</time></trkpt><trkpt lat="48.56511180085725" lon="-2.0586455721390515"><ele>78.5</ele><time>2026-04-05T12:02:24Z</time></trkpt><trkpt lat="48.56499521891204" lon="-2.058631110357865"><ele>78.25</ele><time>2026-04-05T12:02:26Z</time></trkpt><trkpt lat="48.56486767111245" lon="-2.0586103338968718"><ele>78.0</ele><time>2026-04-05T12:02:28Z</time></trkpt><trkpt lat="48.564760120094874" lon="-2.058604963091178"><ele>78.0</ele><time>2026-04-05T12:02:30Z</time></trkpt><trkpt lat="48.56469714129879" lon="-2.0586069129746467"><ele>78.0</ele><time>2026-04-05T12:02:31Z</time></trkpt><trkpt lat="48.56463311276767" lon="-2.0586068345307806"><ele>78.0</ele><time>2026-04-05T12:02:32Z</time></trkpt><trkpt lat="48.56450652581239" lon="-2.0585936870490524"><ele>78.0</ele><time>2026-04-05T12:02:34Z</time></trkpt><trkpt lat="48.56444164601723" lon="-2.0585940023973954"><ele>78.0</ele><time>2026-04-05T12:02:35Z</time></trkpt><trkpt lat="48.564377247409624" lon="-2.058575732675706"><ele>78.0</ele><time>2026-04-05T12:02:36Z</time></trkpt><trkpt lat="48.56426142104987" lon="-2.058589865616415"><ele>77.8</ele><time>2026-04-05T12:02:38Z</time></trkpt><trkpt lat="48.56419319376902" lon="-2.05858045324466"><ele>77.6</ele><time>2026-04-05T12:02:39Z</time></trkpt><trkpt lat="48.56407833388321" lon="-2.0585809739262113"><ele>77.4</ele><time>2026-04-05T12:02:41Z</time></trkpt><trkpt lat="48.56396784993007" lon="-2.0585666528527566"><ele>77.2</ele><time>2026-04-05T12:02:43Z</time></trkpt><trkpt lat="48.56384691179823" lon="-2.0585539238218646"><ele>77.0</ele><time>2026-04-05T12:02:45Z</time></trkpt><trkpt lat="48.56378380820626" lon="-2.0585540034288625"><ele>77.2</ele><time>2026-04-05T12:02:46Z</time></trkpt><trkpt lat="48.56366535512785" lon="-2.0585493746218466"><ele>77.4</ele><time>2026-04-05T12:02:48Z</time></trkpt><trkpt lat="48.563598133515484" lon="-2.0585361934060082"><ele>77.6</ele><time>2026-04-05T12:02:49Z</time></trkpt><trkpt lat="48.56346683766948" lon="-2.0585149791748893"><ele>77.8</ele><time>2026-04-05T12:02:51Z</time></trkpt><trkpt lat="48.56340385392903" lon="-2.0585036978248095"><ele>78.0</ele><time>2026-04-05T12:02:52Z</time></trkpt><trkpt lat="48.56331051929646" lon="-2.058515436242105"><ele>78.0</ele><time>2026-04-05T12:02:54Z</time></trkpt><trkpt lat="48.5632400964702" lon="-2.058521840255827"><ele>78.0</ele><time>2026-04-05T12:02:55Z</time></trkpt><trkpt lat="48.56311843365895" lon="-2.058524861519272"><ele>78.0</ele><time>2026-04-05T12:02:57Z</time></trkpt><trkpt lat="48.563051551386934" lon="-2.058516417785641"><ele>78.0</ele><time>2026-04-05T12:02:58Z</time></trkpt><trkpt lat="48.562934414834785" lon="-2.0585097561849333"><ele>78.0</ele><time>2026-04-05T12:03:00Z</time></trkpt><trkpt lat="48.562815560755524" lon="-2.05849984527803"><ele>78.25</ele><time>2026-04-05T12:03:02Z</time></trkpt><trkpt lat="48.56268447753931" lon="-2.058506114590462"><ele>78.5</ele><time>2026-04-05T12:03:04Z</time></trkpt><trkpt lat="48.562566349478544" lon="-2.058486321624857"><ele>78.75</ele><time>2026-04-05T12:03:06Z</time></trkpt><trkpt lat="48.56245380291538" lon="-2.0584791221641003"><ele>79.0</ele><time>2026-04-05T12:03:08Z</time></trkpt><trkpt lat="48.562335128852276" lon="-2.0584767924857403"><ele>79.0</ele><time>2026-04-05T12:03:10Z</time></trkpt><trkpt lat="48.56226855019409" lon="-2.058478800826269"><ele>79.0</ele><time>2026-04-05T12:03:11Z</time></trkpt><trkpt lat="48.56217241049347" lon="-2.0584512686846264"><ele>79.0</ele><time>2026-04-05T12:03:12Z</time></trkpt><trkpt lat="48.56206774881579" lon="-2.0584724487638244"><ele>79.0</ele><time>2026-04-05T12:03:13.999Z</time></trkpt><trkpt lat="48.561965662426374" lon="-2.0584691894583895"><ele>79.0</ele><time>2026-04-05T12:03:15.999Z</time></trkpt><trkpt lat="48.561838608215034" lon="-2.0584601867175483"><ele>78.4</ele><time>2026-04-05T12:03:17.999Z</time></trkpt><trkpt lat="48.56172400162565" lon="-2.058464568860568"><ele>77.80000000000001</ele><time>2026-04-05T12:03:19.999Z</time></trkpt><trkpt lat="48.56162336495572" lon="-2.0584366395160596"><ele>77.19999999999999</ele><time>2026-04-05T12:03:21.999Z</time></trkpt><trkpt lat="48.56150773731065" lon="-2.0584362519072283"><ele>76.6</ele><time>2026-04-05T12:03:23.999Z</time></trkpt><trkpt lat="48.56139876215407" lon="-2.058403185064068"><ele>76.0</ele><time>2026-04-05T12:03:25.999Z</time></trkpt><trkpt lat="48.561333801947896" lon="-2.0584138293471943"><ele>76.0</ele><time>2026-04-05T12:03:26.999Z</time></trkpt><trkpt lat="48.561205302176795" lon="-2.058416686500796"><ele>76.0</ele><time>2026-04-05T12:03:28.999Z</time></trkpt><trkpt lat="48.5611051210075" lon="-2.0583969002928106"><ele>76.0</ele><time>2026-04-05T12:03:30.999Z</time></trkpt><trkpt lat="48.56098768046364" lon="-2.058408819976773"><ele>76.0</ele><time>2026-04-05T12:03:32.999Z</time></trkpt><trkpt lat="48.56088855984993" lon="-2.058391895663704"><ele>76.0</ele><time>2026-04-05T12:03:34.999Z</time></trkpt><trkpt lat="48.56078698218336" lon="-2.0583816004261952"><ele>76.39999999999999</ele><time>2026-04-05T12:03:36.999Z</time></trkpt><trkpt lat="48.560690778281156" lon="-2.058370328279503"><ele>76.8</ele><time>2026-04-05T12:03:40.999Z</time></trkpt><trkpt lat="48.56062100677053" lon="-2.0583556091771222"><ele>77.19999999999999</ele><time>2026-04-05T12:03:42.999Z</time></trkpt><trkpt lat="48.56054846517974" lon="-2.058337475807455"><ele>77.6</ele><time>2026-04-05T12:03:44.999Z</time></trkpt><trkpt lat="48.560428063287034" lon="-2.058342846498282"><ele>78.0</ele><time>2026-04-05T12:03:46.999Z</time></trkpt><trkpt lat="48.56032717922444" lon="-2.0583461821879148"><ele>78.16666666666667</ele><time>2026-04-05T12:03:48.999Z</time></trkpt><trkpt lat="48.56023379934332" lon="-2.0583365266705482"><ele>78.33333333333333</ele><time>2026-04-05T12:03:50.999Z</time></trkpt><trkpt lat="48.56015619617823" lon="-2.0583260590142567"><ele>78.5</ele><time>2026-04-05T12:03:52.999Z</time></trkpt><trkpt lat="48.56009037542886" lon="-2.058346283492226"><ele>78.66666666666666</ele><time>2026-04-05T12:03:55Z</time></trkpt><trkpt lat="48.560061447925825" lon="-2.058444170234252"><ele>78.83333333333333</ele><time>2026-04-05T12:03:57Z</time></trkpt><trkpt lat="48.56003622066769" lon="-2.0585795749442344"><ele>79.0</ele><time>2026-04-05T12:03:59Z</time></trkpt><trkpt lat="48.560009716668766" lon="-2.058736400515448"><ele>79.0</ele><time>2026-04-05T12:04:01Z</time></trkpt><trkpt lat="48.55999247906208" lon="-2.0589057389829266"><ele>79.0</ele><time>2026-04-05T12:04:03Z</time></trkpt><trkpt lat="48.55997633773873" lon="-2.0590905063633187"><ele>79.0</ele><time>2026-04-05T12:04:05Z</time></trkpt><trkpt lat="48.5599569274584" lon="-2.0592698471228656"><ele>79.0</ele><time>2026-04-05T12:04:07Z</time></trkpt><trkpt lat="48.55994568952608" lon="-2.059368787767424"><ele>79.0</ele><time>2026-04-05T12:04:08Z</time></trkpt><trkpt lat="48.55992383508053" lon="-2.0595495860548247"><ele>78.25</ele><time>2026-04-05T12:04:10Z</time></trkpt><trkpt lat="48.55990288617554" lon="-2.0597260217422217"><ele>77.5</ele><time>2026-04-05T12:04:12Z</time></trkpt><trkpt lat="48.55986775392427" lon="-2.0599019047800713"><ele>76.75</ele><time>2026-04-05T12:04:14Z</time></trkpt><trkpt lat="48.55983151231852" lon="-2.0600683464316156"><ele>76.0</ele><time>2026-04-05T12:04:16Z</time></trkpt><trkpt lat="48.55980547598037" lon="-2.0602358689408327"><ele>75.75</ele><time>2026-04-05T12:04:18Z</time></trkpt><trkpt lat="48.55976944048585" lon="-2.0604056158979263"><ele>75.5</ele><time>2026-04-05T12:04:20Z</time></trkpt><trkpt lat="48.55973301879548" lon="-2.0605728665369285"><ele>75.25</ele><time>2026-04-05T12:04:22Z</time></trkpt><trkpt lat="48.559702274191025" lon="-2.06074271483456"><ele>75.0</ele><time>2026-04-05T12:04:24Z</time></trkpt><trkpt lat="48.559665764725274" lon="-2.060906563303018"><ele>75.0</ele><time>2026-04-05T12:04:26Z</time></trkpt><trkpt lat="48.55963246363005" lon="-2.0610719236219337"><ele>75.0</ele><time>2026-04-05T12:04:28Z</time></trkpt><trkpt lat="48.55959690997998" lon="-2.061230975077738"><ele>75.0</ele><time>2026-04-05T12:04:30Z</time></trkpt><trkpt lat="48.559566168139895" lon="-2.0613765113410247"><ele>75.0</ele><time>2026-04-05T12:04:32Z</time></trkpt><trkpt lat="48.559545616493324" lon="-2.0614973282967144"><ele>75.0</ele><time>2026-04-05T12:04:34Z</time></trkpt><trkpt lat="48.55951275333714" lon="-2.0616037609907236"><ele>74.8</ele><time>2026-04-05T12:04:37Z</time></trkpt><trkpt lat="48.5594858436038" lon="-2.0617133290218987"><ele>74.6</ele><time>2026-04-05T12:04:38Z</time></trkpt><trkpt lat="48.55946772371014" lon="-2.0618829590988574"><ele>74.4</ele><time>2026-04-05T12:04:40Z</time></trkpt><trkpt lat="48.55945600462675" lon="-2.0620713738713774"><ele>74.2</ele><time>2026-04-05T12:04:42Z</time></trkpt><trkpt lat="48.55944470507804" lon="-2.0622555192140215"><ele>74.0</ele><time>2026-04-05T12:04:44Z</time></trkpt><trkpt lat="48.55943977704466" lon="-2.0624300346899163"><ele>73.75</ele><time>2026-04-05T12:04:46Z</time></trkpt><trkpt lat="48.5594363116511" lon="-2.062607729347232"><ele>73.5</ele><time>2026-04-05T12:04:48Z</time></trkpt><trkpt lat="48.559430399800114" lon="-2.0627990609361406"><ele>73.25</ele><time>2026-04-05T12:04:50Z</time></trkpt><trkpt lat="48.559421406679434" lon="-2.0629698256421842"><ele>73.0</ele><time>2026-04-05T12:04:52Z</time></trkpt><trkpt lat="48.55942116364924" lon="-2.0631373062415816"><ele>73.0</ele><time>2026-04-05T12:04:54Z</time></trkpt><trkpt lat="48.55940700964647" lon="-2.0632550695283967"><ele>73.0</ele><time>2026-04-05T12:04:56Z</time></trkpt><trkpt lat="48.55930628217961" lon="-2.0632778347200813"><ele>73.0</ele><time>2026-04-05T12:04:58Z</time></trkpt><trkpt lat="48.55923122640452" lon="-2.0632609345393877"><ele>73.0</ele><time>2026-04-05T12:05:00Z</time></trkpt><trkpt lat="48.55931346954941" lon="-2.0632483022810324"><ele>73.0</ele><time>2026-04-05T12:05:06Z</time></trkpt><trkpt lat="48.55935807698327" lon="-2.0633645516165964"><ele>73.0</ele><time>2026-04-05T12:05:09Z</time></trkpt><trkpt lat="48.55935108168869" lon="-2.063474218819881"><ele>72.66666666666666</ele><time>2026-04-05T12:05:12Z</time></trkpt><trkpt lat="48.55933427602267" lon="-2.063571994100825"><ele>72.33333333333333</ele><time>2026-04-05T12:05:15.999Z</time></trkpt><trkpt lat="48.55932516883529" lon="-2.0636855684670854"><ele>72.0</ele><time>2026-04-05T12:05:19.999Z</time></trkpt><trkpt lat="48.55934096690623" lon="-2.0634765298049444"><ele>71.66666666666667</ele><time>2026-04-05T12:05:29.999Z</time></trkpt><trkpt lat="48.559356344743755" lon="-2.063369123744826"><ele>71.33333333333334</ele><time>2026-04-05T12:05:32.999Z</time></trkpt><trkpt lat="48.55942535043395" lon="-2.0633412424539785"><ele>71.0</ele><time>2026-04-05T12:05:37.999Z</time></trkpt><trkpt lat="48.55947849052973" lon="-2.063406880592423"><ele>71.0</ele><time>2026-04-05T12:05:39.999Z</time></trkpt><trkpt lat="48.559512879000096" lon="-2.063512350521191"><ele>71.0</ele><time>2026-04-05T12:05:42.999Z</time></trkpt><trkpt lat="48.55949289247952" lon="-2.0636314060443484"><ele>71.0</ele><time>2026-04-05T12:05:44.999Z</time></trkpt><trkpt lat="48.55945964457956" lon="-2.0637570975171"><ele>71.0</ele><time>2026-04-05T12:05:46.999Z</time></trkpt><trkpt lat="48.55943088945682" lon="-2.0638868069877923"><ele>71.0</ele><time>2026-04-05T12:05:48.999Z</time></trkpt><trkpt lat="48.55940886981468" lon="-2.0640375176508545"><ele>71.0</ele><time>2026-04-05T12:05:50.999Z</time></trkpt><trkpt lat="48.559382640579834" lon="-2.0642163014687998"><ele>70.75</ele><time>2026-04-05T12:05:52.999Z</time></trkpt><trkpt lat="48.559356506474664" lon="-2.064396529484669"><ele>70.5</ele><time>2026-04-05T12:05:54.999Z</time></trkpt><trkpt lat="48.55934517166263" lon="-2.064580386745833"><ele>70.25</ele><time>2026-04-05T12:05:56.999Z</time></trkpt><trkpt lat="48.559325564056756" lon="-2.0647550462655677"><ele>70.0</ele><time>2026-04-05T12:05:58.999Z</time></trkpt><trkpt lat="48.559311105996585" lon="-2.064913617436856"><ele>69.75</ele><time>2026-04-05T12:06:01Z</time></trkpt><trkpt lat="48.55929230776894" lon="-2.0650692432733164"><ele>69.5</ele><time>2026-04-05T12:06:03Z</time></trkpt><trkpt lat="48.55927627111535" lon="-2.0652364232498215"><ele>69.25</ele><time>2026-04-05T12:06:05Z</time></trkpt><trkpt lat="48.55925324088451" lon="-2.065411185806576"><ele>69.0</ele><time>2026-04-05T12:06:07Z</time></trkpt><trkpt lat="48.55923281276782" lon="-2.0655825233056238"><ele>69.0</ele><time>2026-04-05T12:06:09Z</time></trkpt><trkpt lat="48.559227069721835" lon="-2.065678028235941"><ele>69.0</ele><time>2026-04-05T12:06:10Z</time></trkpt><trkpt lat="48.559210135265744" lon="-2.065867068252561"><ele>69.0</ele><time>2026-04-05T12:06:12Z</time></trkpt><trkpt lat="48.55919593288015" lon="-2.0659617045411434"><ele>69.0</ele><time>2026-04-05T12:06:13Z</time></trkpt><trkpt lat="48.55919283708968" lon="-2.066059312795244"><ele>69.0</ele><time>2026-04-05T12:06:14Z</time></trkpt><trkpt lat="48.559189521673915" lon="-2.0661551244975236"><ele>69.0</ele><time>2026-04-05T12:06:15Z</time></trkpt><trkpt lat="48.559177068920455" lon="-2.066314532230762"><ele>68.4</ele><time>2026-04-05T12:06:17Z</time></trkpt><trkpt lat="48.55917249696678" lon="-2.066443605273298"><ele>67.80000000000001</ele><time>2026-04-05T12:06:20Z</time></trkpt><trkpt lat="48.55915021913662" lon="-2.066593030830834"><ele>67.19999999999999</ele><time>2026-04-05T12:06:23Z</time></trkpt><trkpt lat="48.55915168361568" lon="-2.0667217718199242"><ele>66.6</ele><time>2026-04-05T12:06:25Z</time></trkpt><trkpt lat="48.559171374324606" lon="-2.0668584279726376"><ele>66.0</ele><time>2026-04-05T12:06:27Z</time></trkpt><trkpt lat="48.55915682356981" lon="-2.067026464854091"><ele>65.0</ele><time>2026-04-05T12:06:29Z</time></trkpt><trkpt lat="48.559151360999806" lon="-2.067201252757872"><ele>64.0</ele><time>2026-04-05T12:06:31Z</time></trkpt><trkpt lat="48.559158795283" lon="-2.067376764818258"><ele>63.0</ele><time>2026-04-05T12:06:33Z</time></trkpt><trkpt lat="48.5591581459209" lon="-2.067555227058062"><ele>62.0</ele><time>2026-04-05T12:06:35Z</time></trkpt><trkpt lat="48.55917264093916" lon="-2.0677297590335075"><ele>61.0</ele><time>2026-04-05T12:06:37Z</time></trkpt><trkpt lat="48.559209205340146" lon="-2.0678950192252823"><ele>60.0</ele><time>2026-04-05T12:06:39Z</time></trkpt><trkpt lat="48.55927242727505" lon="-2.0680365552539857"><ele>59.0</ele><time>2026-04-05T12:06:41Z</time></trkpt><trkpt lat="48.559368416862945" lon="-2.0681392286117637"><ele>58.0</ele><time>2026-04-05T12:06:43Z</time></trkpt><trkpt lat="48.55947273131207" lon="-2.0682408657497406"><ele>57.666666666666664</ele><time>2026-04-05T12:06:45Z</time></trkpt><trkpt lat="48.559529842866525" lon="-2.0682906077095544"><ele>57.33333333333333</ele><time>2026-04-05T12:06:46Z</time></trkpt><trkpt lat="48.559634822423796" lon="-2.06839010604039"><ele>57.0</ele><time>2026-04-05T12:06:48Z</time></trkpt><trkpt lat="48.55968083952764" lon="-2.068461297222116"><ele>56.66666666666667</ele><time>2026-04-05T12:06:49Z</time></trkpt><trkpt lat="48.559718886394386" lon="-2.06854202451346"><ele>56.333333333333336</ele><time>2026-04-05T12:06:50Z</time></trkpt><trkpt lat="48.55974820360176" lon="-2.068637438130667"><ele>56.0</ele><time>2026-04-05T12:06:51Z</time></trkpt><trkpt lat="48.55977760459006" lon="-2.0687361902417565"><ele>56.00000000000001</ele><time>2026-04-05T12:06:52Z</time></trkpt><trkpt lat="48.55979788841592" lon="-2.0688455873885307"><ele>56.0</ele><time>2026-04-05T12:06:53Z</time></trkpt><trkpt lat="48.55980606141231" lon="-2.0689653624097657"><ele>56.0</ele><time>2026-04-05T12:06:54Z</time></trkpt><trkpt lat="48.559814550135755" lon="-2.0690821996161755"><ele>56.0</ele><time>2026-04-05T12:06:55Z</time></trkpt><trkpt lat="48.55984276954955" lon="-2.0691908744160012"><ele>56.00000000000001</ele><time>2026-04-05T12:06:56Z</time></trkpt><trkpt lat="48.55984270730637" lon="-2.069308578430643"><ele>56.0</ele><time>2026-04-05T12:06:57Z</time></trkpt><trkpt lat="48.55985846210198" lon="-2.069424316534017"><ele>55.50000000000001</ele><time>2026-04-05T12:06:58Z</time></trkpt><trkpt lat="48.559886139937845" lon="-2.0695347196818585"><ele>55.0</ele><time>2026-04-05T12:06:59Z</time></trkpt><trkpt lat="48.559898807798966" lon="-2.069637907343623"><ele>54.5</ele><time>2026-04-05T12:07:00Z</time></trkpt><trkpt lat="48.55991146551339" lon="-2.069737858380173"><ele>54.0</ele><time>2026-04-05T12:07:01Z</time></trkpt><trkpt lat="48.559907938636655" lon="-2.069841971622317"><ele>53.50000000000001</ele><time>2026-04-05T12:07:02Z</time></trkpt><trkpt lat="48.559938162660856" lon="-2.069930415159273"><ele>53.0</ele><time>2026-04-05T12:07:03Z</time></trkpt><trkpt lat="48.559954707753406" lon="-2.070093467723112"><ele>52.85714285714286</ele><time>2026-04-05T12:07:05Z</time></trkpt><trkpt lat="48.55998432167565" lon="-2.07018716864673"><ele>52.71428571428571</ele><time>2026-04-05T12:07:06.999Z</time></trkpt><trkpt lat="48.56002451321108" lon="-2.0702857789509914"><ele>52.57142857142857</ele><time>2026-04-05T12:07:09.999Z</time></trkpt><trkpt lat="48.56005197918321" lon="-2.0703747593100124"><ele>52.42857142857143</ele><time>2026-04-05T12:07:14.999Z</time></trkpt><trkpt lat="48.56008659906383" lon="-2.07048591644953"><ele>52.28571428571429</ele><time>2026-04-05T12:07:18.999Z</time></trkpt><trkpt lat="48.560126217327216" lon="-2.0705665536663895"><ele>52.14285714285714</ele><time>2026-04-05T12:07:21.999Z</time></trkpt><trkpt lat="48.56015562916681" lon="-2.070655411233431"><ele>52.0</ele><time>2026-04-05T12:07:24.999Z</time></trkpt><trkpt lat="48.56018975085439" lon="-2.070751983620198"><ele>52.33333333333333</ele><time>2026-04-05T12:07:27.999Z</time></trkpt><trkpt lat="48.560227418629594" lon="-2.070865418114699"><ele>52.666666666666664</ele><time>2026-04-05T12:07:30.999Z</time></trkpt><trkpt lat="48.56027518625217" lon="-2.0709622416152196"><ele>53.0</ele><time>2026-04-05T12:07:33.999Z</time></trkpt><trkpt lat="48.56032364209628" lon="-2.071068893234098"><ele>53.33333333333333</ele><time>2026-04-05T12:07:36.999Z</time></trkpt><trkpt lat="48.56036163545217" lon="-2.071152094098593"><ele>53.666666666666664</ele><time>2026-04-05T12:07:38.999Z</time></trkpt><trkpt lat="48.56040304902807" lon="-2.0712284693359613"><ele>54.0</ele><time>2026-04-05T12:07:40.999Z</time></trkpt><trkpt lat="48.560460861901234" lon="-2.0713076894976252"><ele>54.800000000000004</ele><time>2026-04-05T12:07:43.999Z</time></trkpt><trkpt lat="48.56051428269645" lon="-2.071419016427437"><ele>55.60000000000001</ele><time>2026-04-05T12:07:46.999Z</time></trkpt><trkpt lat="48.56053441830188" lon="-2.0715339611665655"><ele>56.4</ele><time>2026-04-05T12:07:49.999Z</time></trkpt><trkpt lat="48.5605899334262" lon="-2.071651102105326"><ele>57.2</ele><time>2026-04-05T12:07:52.999Z</time></trkpt><trkpt lat="48.560655824025524" lon="-2.0717804268649713"><ele>58.0</ele><time>2026-04-05T12:07:55.999Z</time></trkpt><trkpt lat="48.56070510267855" lon="-2.0718992083673435"><ele>58.0</ele><time>2026-04-05T12:07:58.999Z</time></trkpt><trkpt lat="48.56075830508915" lon="-2.0720181857810336"><ele>58.0</ele><time>2026-04-05T12:08:00.999Z</time></trkpt><trkpt lat="48.56079750027689" lon="-2.0721022125619557"><ele>58.0</ele><time>2026-04-05T12:08:01.999Z</time></trkpt><trkpt lat="48.560885676120606" lon="-2.0721772031960626"><ele>58.0</ele><time>2026-04-05T12:08:03.999Z</time></trkpt><trkpt lat="48.56093971505867" lon="-2.072327036239158"><ele>58.0</ele><time>2026-04-05T12:08:05.999Z</time></trkpt><trkpt lat="48.560984858926524" lon="-2.072482983684649"><ele>58.0</ele><time>2026-04-05T12:08:08Z</time></trkpt><trkpt lat="48.56102412705323" lon="-2.0726380717104553"><ele>58.0</ele><time>2026-04-05T12:08:10Z</time></trkpt><trkpt lat="48.56106057956705" lon="-2.0727929150627245"><ele>58.0</ele><time>2026-04-05T12:08:12Z</time></trkpt><trkpt lat="48.5610951235476" lon="-2.072939651523294"><ele>58.0</ele><time>2026-04-05T12:08:14Z</time></trkpt><trkpt lat="48.5611302119867" lon="-2.0730786349790558"><ele>58.0</ele><time>2026-04-05T12:08:16Z</time></trkpt><trkpt lat="48.56116547688526" lon="-2.0732112010670956"><ele>57.99999999999999</ele><time>2026-04-05T12:08:18Z</time></trkpt><trkpt lat="48.56120295119906" lon="-2.0733430726496"><ele>58.0</ele><time>2026-04-05T12:08:20Z</time></trkpt><trkpt lat="48.56124083905738" lon="-2.073465883395352"><ele>58.0</ele><time>2026-04-05T12:08:22Z</time></trkpt><trkpt lat="48.56128150234362" lon="-2.073586522852284"><ele>58.0</ele><time>2026-04-05T12:08:24Z</time></trkpt><trkpt lat="48.56132386691752" lon="-2.07369784766842"><ele>57.99999999999999</ele><time>2026-04-05T12:08:26Z</time></trkpt><trkpt lat="48.56136147456151" lon="-2.073790849113078"><ele>58.0</ele><time>2026-04-05T12:08:30Z</time></trkpt><trkpt lat="48.56139350156304" lon="-2.073972895858192"><ele>58.0</ele><time>2026-04-05T12:08:32Z</time></trkpt><trkpt lat="48.561471013049946" lon="-2.0740106414362516"><ele>58.0</ele><time>2026-04-05T12:08:33Z</time></trkpt><trkpt lat="48.56154672788819" lon="-2.0741220239352374"><ele>58.0</ele><time>2026-04-05T12:08:35Z</time></trkpt><trkpt lat="48.56162830605336" lon="-2.074225688201274"><ele>58.0</ele><time>2026-04-05T12:08:37Z</time></trkpt><trkpt lat="48.561726029419916" lon="-2.074320173082371"><ele>58.0</ele><time>2026-04-05T12:08:39Z</time></trkpt><trkpt lat="48.561822480737646" lon="-2.0744140692861284"><ele>58.2</ele><time>2026-04-05T12:08:41Z</time></trkpt><trkpt lat="48.561919673245185" lon="-2.0744928845426878"><ele>58.4</ele><time>2026-04-05T12:08:43Z</time></trkpt><trkpt lat="48.562014375144045" lon="-2.074562225335944"><ele>58.60000000000001</ele><time>2026-04-05T12:08:45Z</time></trkpt><trkpt lat="48.56211112251837" lon="-2.074617357530597"><ele>58.800000000000004</ele><time>2026-04-05T12:08:47Z</time></trkpt><trkpt lat="48.56220634450391" lon="-2.0746760151979013"><ele>59.0</ele><time>2026-04-05T12:08:49Z</time></trkpt><trkpt lat="48.56229173330542" lon="-2.07473201705721"><ele>59.0</ele><time>2026-04-05T12:08:51Z</time></trkpt><trkpt lat="48.562371261975365" lon="-2.0747871219122764"><ele>59.00000000000001</ele><time>2026-04-05T12:08:53Z</time></trkpt><trkpt lat="48.56245287410561" lon="-2.074859336248551"><ele>59.00000000000001</ele><time>2026-04-05T12:08:55Z</time></trkpt><trkpt lat="48.56251440221002" lon="-2.0749715823313033"><ele>59.0</ele><time>2026-04-05T12:08:57Z</time></trkpt><trkpt lat="48.56254098534762" lon="-2.07511333227346"><ele>59.0</ele><time>2026-04-05T12:08:59Z</time></trkpt><trkpt lat="48.562601130697345" lon="-2.075237156416227"><ele>58.6</ele><time>2026-04-05T12:09:01Z</time></trkpt><trkpt lat="48.56270913328882" lon="-2.075282870027366"><ele>58.2</ele><time>2026-04-05T12:09:03Z</time></trkpt><trkpt lat="48.56281114133494" lon="-2.0753268107092087"><ele>57.800000000000004</ele><time>2026-04-05T12:09:05Z</time></trkpt><trkpt lat="48.56291352668512" lon="-2.0753747423053976"><ele>57.400000000000006</ele><time>2026-04-05T12:09:07Z</time></trkpt><trkpt lat="48.56301919682909" lon="-2.0754016033188223"><ele>57.0</ele><time>2026-04-05T12:09:09Z</time></trkpt><trkpt lat="48.56312027035239" lon="-2.075415669352758"><ele>57.0</ele><time>2026-04-05T12:09:11Z</time></trkpt><trkpt lat="48.56322095126014" lon="-2.0754389728805878"><ele>57.0</ele><time>2026-04-05T12:09:12.999Z</time></trkpt><trkpt lat="48.56330442195213" lon="-2.075487986687458"><ele>57.0</ele><time>2026-04-05T12:09:14.999Z</time></trkpt><trkpt lat="48.56340617919198" lon="-2.075516817668021"><ele>57.0</ele><time>2026-04-05T12:09:16.999Z</time></trkpt><trkpt lat="48.56350505264045" lon="-2.0755417579673323"><ele>57.0</ele><time>2026-04-05T12:09:18.999Z</time></trkpt><trkpt lat="48.56360687158756" lon="-2.0755778402571545"><ele>57.166666666666664</ele><time>2026-04-05T12:09:20.999Z</time></trkpt><trkpt lat="48.56370478099689" lon="-2.075596210584161"><ele>57.33333333333333</ele><time>2026-04-05T12:09:22.999Z</time></trkpt><trkpt lat="48.56377731951385" lon="-2.075627047265058"><ele>57.5</ele><time>2026-04-05T12:09:25.999Z</time></trkpt><trkpt lat="48.563846592002356" lon="-2.0756403098753657"><ele>57.666666666666664</ele><time>2026-04-05T12:09:27.999Z</time></trkpt><trkpt lat="48.56391967681782" lon="-2.07564267673805"><ele>57.83333333333333</ele><time>2026-04-05T12:09:29.999Z</time></trkpt><trkpt lat="48.564009659098545" lon="-2.075685509086306"><ele>58.0</ele><time>2026-04-05T12:09:31.999Z</time></trkpt><trkpt lat="48.56408858917847" lon="-2.0757654974810986"><ele>58.0</ele><time>2026-04-05T12:09:34.999Z</time></trkpt><trkpt lat="48.56414237155381" lon="-2.075834812542489"><ele>58.0</ele><time>2026-04-05T12:09:36.999Z</time></trkpt><trkpt lat="48.56419619870073" lon="-2.075907313882247"><ele>58.0</ele><time>2026-04-05T12:09:38.999Z</time></trkpt><trkpt lat="48.56429972654774" lon="-2.0760138636554353"><ele>58.0</ele><time>2026-04-05T12:09:42.999Z</time></trkpt><trkpt lat="48.56433820183376" lon="-2.0761030230145026"><ele>58.0</ele><time>2026-04-05T12:09:45.999Z</time></trkpt><trkpt lat="48.56477120442415" lon="-2.076501174701952"><ele>57.8</ele><time>2026-04-05T12:09:46.999Z</time></trkpt><trkpt lat="48.56485548704765" lon="-2.0766122784556176"><ele>57.599999999999994</ele><time>2026-04-05T12:09:48.999Z</time></trkpt><trkpt lat="48.5649353769471" lon="-2.0767091558261597"><ele>57.400000000000006</ele><time>2026-04-05T12:09:50.999Z</time></trkpt><trkpt lat="48.565009604175344" lon="-2.076809431504281"><ele>57.2</ele><time>2026-04-05T12:09:52.999Z</time></trkpt><trkpt lat="48.565072116546816" lon="-2.076907516988697"><ele>57.0</ele><time>2026-04-05T12:09:54.999Z</time></trkpt><trkpt lat="48.56515231771153" lon="-2.076990582943409"><ele>57.0</ele><time>2026-04-05T12:09:56.999Z</time></trkpt><trkpt lat="48.56523873482615" lon="-2.07706728403955"><ele>57.0</ele><time>2026-04-05T12:09:58.999Z</time></trkpt><trkpt lat="48.56532986036949" lon="-2.0771796322670575"><ele>57.0</ele><time>2026-04-05T12:10:00.999Z</time></trkpt><trkpt lat="48.565431125534595" lon="-2.07726020293691"><ele>57.0</ele><time>2026-04-05T12:10:02.999Z</time></trkpt><trkpt lat="48.56550560166563" lon="-2.0773092742115247"><ele>57.0</ele><time>2026-04-05T12:10:04.999Z</time></trkpt><trkpt lat="48.56561455941315" lon="-2.077368773634111"><ele>56.666666666666664</ele><time>2026-04-05T12:10:06.999Z</time></trkpt><trkpt lat="48.56572917067713" lon="-2.0774095310239376"><ele>56.33333333333333</ele><time>2026-04-05T12:10:08.999Z</time></trkpt><trkpt lat="48.565797486267726" lon="-2.0774309518520084"><ele>56.0</ele><time>2026-04-05T12:10:09.999Z</time></trkpt><trkpt lat="48.565867002358225" lon="-2.077447299219402"><ele>55.666666666666664</ele><time>2026-04-05T12:10:10.999Z</time></trkpt><trkpt lat="48.565937777632946" lon="-2.077461894443806"><ele>55.33333333333333</ele><time>2026-04-05T12:10:11.999Z</time></trkpt><trkpt lat="48.566009749683985" lon="-2.0774870494958515"><ele>55.0</ele><time>2026-04-05T12:10:13Z</time></trkpt><trkpt lat="48.56608322521965" lon="-2.0774999751679"><ele>54.166666666666664</ele><time>2026-04-05T12:10:14Z</time></trkpt><trkpt lat="48.56616614944136" lon="-2.077511728416681"><ele>53.33333333333333</ele><time>2026-04-05T12:10:15Z</time></trkpt><trkpt lat="48.566249413060376" lon="-2.0775294365917203"><ele>52.5</ele><time>2026-04-05T12:10:16Z</time></trkpt><trkpt lat="48.56633964637852" lon="-2.077550096348121"><ele>51.66666666666667</ele><time>2026-04-05T12:10:17Z</time></trkpt><trkpt lat="48.56642691505312" lon="-2.077567638731478"><ele>50.833333333333336</ele><time>2026-04-05T12:10:18Z</time></trkpt><trkpt lat="48.56650252292475" lon="-2.07755852936604"><ele>50.0</ele><time>2026-04-05T12:10:19Z</time></trkpt><trkpt lat="48.56657025287331" lon="-2.0775700064319578"><ele>49.50000000000001</ele><time>2026-04-05T12:10:20Z</time></trkpt><trkpt lat="48.56663235189629" lon="-2.077598089295356"><ele>49.0</ele><time>2026-04-05T12:10:21Z</time></trkpt><trkpt lat="48.56672783314465" lon="-2.077691431537178"><ele>48.5</ele><time>2026-04-05T12:10:23Z</time></trkpt><trkpt lat="48.56676034066991" lon="-2.0777869600236714"><ele>48.0</ele><time>2026-04-05T12:10:24Z</time></trkpt><trkpt lat="48.566774912237335" lon="-2.077885848875216"><ele>47.5</ele><time>2026-04-05T12:10:25Z</time></trkpt><trkpt lat="48.566789746811935" lon="-2.077995777109336"><ele>47.0</ele><time>2026-04-05T12:10:26Z</time></trkpt><trkpt lat="48.56682104207449" lon="-2.078093739830141"><ele>47.0</ele><time>2026-04-05T12:10:27Z</time></trkpt><trkpt lat="48.56684479532818" lon="-2.0782420399152293"><ele>47.0</ele><time>2026-04-05T12:10:29Z</time></trkpt><trkpt lat="48.566867580207294" lon="-2.07838429414178"><ele>47.0</ele><time>2026-04-05T12:10:31Z</time></trkpt><trkpt lat="48.56689097295648" lon="-2.0785303433651525"><ele>47.0</ele><time>2026-04-05T12:10:33Z</time></trkpt><trkpt lat="48.56692121372272" lon="-2.0787149529823514"><ele>47.0</ele><time>2026-04-05T12:10:35Z</time></trkpt><trkpt lat="48.5669490412214" lon="-2.0788837766954766"><ele>46.33333333333333</ele><time>2026-04-05T12:10:37Z</time></trkpt><trkpt lat="48.56697877114778" lon="-2.0790641334594184"><ele>45.666666666666664</ele><time>2026-04-05T12:10:39Z</time></trkpt><trkpt lat="48.56696371069151" lon="-2.079174752708509"><ele>45.0</ele><time>2026-04-05T12:10:40Z</time></trkpt><trkpt lat="48.5669681746199" lon="-2.0792770497712105"><ele>44.333333333333336</ele><time>2026-04-05T12:10:41Z</time></trkpt><trkpt lat="48.56697578778249" lon="-2.0793828683221354"><ele>43.66666666666667</ele><time>2026-04-05T12:10:42Z</time></trkpt><trkpt lat="48.5669811401617" lon="-2.0794899046083772"><ele>43.0</ele><time>2026-04-05T12:10:43Z</time></trkpt><trkpt lat="48.566969581792335" lon="-2.0795953171746104"><ele>42.42857142857143</ele><time>2026-04-05T12:10:44Z</time></trkpt><trkpt lat="48.566946467184884" lon="-2.07970232682533"><ele>41.85714285714286</ele><time>2026-04-05T12:10:45Z</time></trkpt><trkpt lat="48.56691955601523" lon="-2.0797977780075807"><ele>41.28571428571429</ele><time>2026-04-05T12:10:46Z</time></trkpt><trkpt lat="48.56687777919984" lon="-2.0798878974959436"><ele>40.714285714285715</ele><time>2026-04-05T12:10:47Z</time></trkpt><trkpt lat="48.566832110032244" lon="-2.0799636692761756"><ele>40.14285714285714</ele><time>2026-04-05T12:10:48Z</time></trkpt><trkpt lat="48.566790494318944" lon="-2.080038321784264"><ele>39.57142857142858</ele><time>2026-04-05T12:10:49Z</time></trkpt><trkpt lat="48.56674700155185" lon="-2.0801090283083816"><ele>39.0</ele><time>2026-04-05T12:10:50Z</time></trkpt><trkpt lat="48.5667022322608" lon="-2.0801808114378253"><ele>38.0</ele><time>2026-04-05T12:10:51Z</time></trkpt><trkpt lat="48.56661233709142" lon="-2.0803169509090806"><ele>37.0</ele><time>2026-04-05T12:10:53Z</time></trkpt><trkpt lat="48.56652406814829" lon="-2.0804499145891437"><ele>36.0</ele><time>2026-04-05T12:10:55Z</time></trkpt><trkpt lat="48.56642996399242" lon="-2.080578990954579"><ele>35.0</ele><time>2026-04-05T12:10:57Z</time></trkpt><trkpt lat="48.56638181712547" lon="-2.0806477334453133"><ele>34.0</ele><time>2026-04-05T12:10:58Z</time></trkpt><trkpt lat="48.56633706586017" lon="-2.080715067450519"><ele>33.0</ele><time>2026-04-05T12:10:59Z</time></trkpt><trkpt lat="48.566244321456786" lon="-2.080841862001324"><ele>32.0</ele><time>2026-04-05T12:11:01Z</time></trkpt><trkpt lat="48.566158177562635" lon="-2.0809761628141974"><ele>31.0</ele><time>2026-04-05T12:11:03Z</time></trkpt><trkpt lat="48.5661074618941" lon="-2.0810469038694763"><ele>30.0</ele><time>2026-04-05T12:11:04Z</time></trkpt><trkpt lat="48.566063606304226" lon="-2.08111784166487"><ele>29.000000000000004</ele><time>2026-04-05T12:11:05Z</time></trkpt><trkpt lat="48.56601977313598" lon="-2.0811914813727794"><ele>28.0</ele><time>2026-04-05T12:11:06Z</time></trkpt><trkpt lat="48.565974229625546" lon="-2.0812578204825853"><ele>28.0</ele><time>2026-04-05T12:11:07Z</time></trkpt><trkpt lat="48.565925814908006" lon="-2.0813210763927503"><ele>27.999999999999996</ele><time>2026-04-05T12:11:08Z</time></trkpt><trkpt lat="48.56584537760129" lon="-2.081446893409364"><ele>27.999999999999996</ele><time>2026-04-05T12:11:10Z</time></trkpt><trkpt lat="48.56579422742409" lon="-2.0815130791924217"><ele>28.0</ele><time>2026-04-05T12:11:11Z</time></trkpt><trkpt lat="48.565725869576596" lon="-2.081637377012323"><ele>28.0</ele><time>2026-04-05T12:11:13Z</time></trkpt><trkpt lat="48.565639606228075" lon="-2.081757843598857"><ele>27.75</ele><time>2026-04-05T12:11:15Z</time></trkpt><trkpt lat="48.56555550733939" lon="-2.081879209403687"><ele>27.5</ele><time>2026-04-05T12:11:17Z</time></trkpt><trkpt lat="48.565476604295206" lon="-2.0820059570450673"><ele>27.25</ele><time>2026-04-05T12:11:19Z</time></trkpt><trkpt lat="48.56539756875608" lon="-2.082124448452703"><ele>27.0</ele><time>2026-04-05T12:11:21Z</time></trkpt><trkpt lat="48.5653247202707" lon="-2.082251574728882"><ele>28.0</ele><time>2026-04-05T12:11:23Z</time></trkpt><trkpt lat="48.565258290563605" lon="-2.0823735518694315"><ele>29.0</ele><time>2026-04-05T12:11:25Z</time></trkpt><trkpt lat="48.56521029168406" lon="-2.082490459077065"><ele>30.0</ele><time>2026-04-05T12:11:26.999Z</time></trkpt><trkpt lat="48.56518253856887" lon="-2.0825856227189647"><ele>31.0</ele><time>2026-04-05T12:11:29.999Z</time></trkpt><trkpt lat="48.565113399698284" lon="-2.0827207139222668"><ele>32.0</ele><time>2026-04-05T12:11:31.999Z</time></trkpt><trkpt lat="48.56509191520805" lon="-2.0828137010688006"><ele>33.0</ele><time>2026-04-05T12:11:33.999Z</time></trkpt><trkpt lat="48.56505125604155" lon="-2.082895095198255"><ele>33.5</ele><time>2026-04-05T12:11:35.999Z</time></trkpt><trkpt lat="48.56501295522186" lon="-2.0830013990837477"><ele>34.0</ele><time>2026-04-05T12:11:39.999Z</time></trkpt><trkpt lat="48.56497305858584" lon="-2.083108508904161"><ele>34.5</ele><time>2026-04-05T12:11:43.999Z</time></trkpt><trkpt lat="48.564947506386325" lon="-2.0832372086183923"><ele>35.0</ele><time>2026-04-05T12:11:47.999Z</time></trkpt><trkpt lat="48.56490800426449" lon="-2.0833244667754216"><ele>35.5</ele><time>2026-04-05T12:11:50.999Z</time></trkpt><trkpt lat="48.564882496030265" lon="-2.0834285175644496"><ele>36.0</ele><time>2026-04-05T12:11:53.999Z</time></trkpt><trkpt lat="48.564843604771106" lon="-2.083532565162868"><ele>37.0</ele><time>2026-04-05T12:11:56.999Z</time></trkpt><trkpt lat="48.56477145311354" lon="-2.0836454806871663"><ele>38.0</ele><time>2026-04-05T12:11:59.999Z</time></trkpt><trkpt lat="48.56472782273747" lon="-2.0837181860772915"><ele>39.0</ele><time>2026-04-05T12:12:01.999Z</time></trkpt><trkpt lat="48.56468954279957" lon="-2.083798636817341"><ele>40.0</ele><time>2026-04-05T12:12:04.999Z</time></trkpt><trkpt lat="48.56464835084564" lon="-2.083915224561829"><ele>41.0</ele><time>2026-04-05T12:12:07.999Z</time></trkpt><trkpt lat="48.564618307139206" lon="-2.084005679255575"><ele>42.0</ele><time>2026-04-05T12:12:10.999Z</time></trkpt><trkpt lat="48.56459857816243" lon="-2.0840989126120526"><ele>42.5</ele><time>2026-04-05T12:12:12.999Z</time></trkpt><trkpt lat="48.56455530828845" lon="-2.084177077061068"><ele>43.0</ele><time>2026-04-05T12:12:14.999Z</time></trkpt><trkpt lat="48.56453220254515" lon="-2.0842938652394114"><ele>43.5</ele><time>2026-04-05T12:12:17.999Z</time></trkpt><trkpt lat="48.564506098216164" lon="-2.08439292376546"><ele>44.0</ele><time>2026-04-05T12:12:20Z</time></trkpt><trkpt lat="48.56448093686886" lon="-2.0844815803463197"><ele>44.5</ele><time>2026-04-05T12:12:22Z</time></trkpt><trkpt lat="48.56445266693838" lon="-2.0845949702112643"><ele>45.0</ele><time>2026-04-05T12:12:25Z</time></trkpt><trkpt lat="48.564422721438675" lon="-2.084721604062263"><ele>46.0</ele><time>2026-04-05T12:12:28Z</time></trkpt><trkpt lat="48.56439558819666" lon="-2.0848373726189826"><ele>47.0</ele><time>2026-04-05T12:12:30Z</time></trkpt><trkpt lat="48.56436398578511" lon="-2.084963849402551"><ele>48.0</ele><time>2026-04-05T12:12:33Z</time></trkpt><trkpt lat="48.5643420839771" lon="-2.085100460509959"><ele>49.0</ele><time>2026-04-05T12:12:36Z</time></trkpt><trkpt lat="48.56432325095664" lon="-2.08524937780966"><ele>50.0</ele><time>2026-04-05T12:12:39Z</time></trkpt><trkpt lat="48.56430533777588" lon="-2.08538888750814"><ele>50.0</ele><time>2026-04-05T12:12:42Z</time></trkpt><trkpt lat="48.56429388455906" lon="-2.085494342689852"><ele>50.0</ele><time>2026-04-05T12:12:44Z</time></trkpt><trkpt lat="48.564281297296326" lon="-2.085603324397451"><ele>50.0</ele><time>2026-04-05T12:12:46Z</time></trkpt><trkpt lat="48.56427096925911" lon="-2.085954785739073"><ele>50.0</ele><time>2026-04-05T12:12:49Z</time></trkpt><trkpt lat="48.56427975383599" lon="-2.0860989477754903"><ele>49.8</ele><time>2026-04-05T12:12:51Z</time></trkpt><trkpt lat="48.56427765143661" lon="-2.0862372199790733"><ele>49.6</ele><time>2026-04-05T12:12:53Z</time></trkpt><trkpt lat="48.56426370560793" lon="-2.0863780161407592"><ele>49.400000000000006</ele><time>2026-04-05T12:12:55Z</time></trkpt><trkpt lat="48.564231067610464" lon="-2.0865146537439574"><ele>49.2</ele><time>2026-04-05T12:12:57Z</time></trkpt><trkpt lat="48.56418633323476" lon="-2.086638900483932"><ele>49.0</ele><time>2026-04-05T12:12:59Z</time></trkpt><trkpt lat="48.56411610645247" lon="-2.0867804478044643"><ele>49.0</ele><time>2026-04-05T12:13:01Z</time></trkpt><trkpt lat="48.56404774811018" lon="-2.086911532989985"><ele>49.0</ele><time>2026-04-05T12:13:03Z</time></trkpt><trkpt lat="48.56397332559727" lon="-2.0870319068657603"><ele>49.0</ele><time>2026-04-05T12:13:05Z</time></trkpt><trkpt lat="48.56390280070284" lon="-2.0871684640636134"><ele>49.0</ele><time>2026-04-05T12:13:07Z</time></trkpt><trkpt lat="48.56382892141688" lon="-2.087303642599497"><ele>48.83333333333333</ele><time>2026-04-05T12:13:09Z</time></trkpt><trkpt lat="48.5637622631499" lon="-2.087457771221"><ele>48.666666666666664</ele><time>2026-04-05T12:13:11Z</time></trkpt><trkpt lat="48.56373251408314" lon="-2.0875441583105623"><ele>48.5</ele><time>2026-04-05T12:13:12Z</time></trkpt><trkpt lat="48.56370025717181" lon="-2.0876314739584427"><ele>48.33333333333333</ele><time>2026-04-05T12:13:13Z</time></trkpt><trkpt lat="48.56365839394925" lon="-2.087712671323696"><ele>48.166666666666664</ele><time>2026-04-05T12:13:14Z</time></trkpt><trkpt lat="48.56362736707019" lon="-2.0878037165866306"><ele>48.0</ele><time>2026-04-05T12:13:15Z</time></trkpt><trkpt lat="48.563597307427614" lon="-2.087901938659834"><ele>48.0</ele><time>2026-04-05T12:13:16Z</time></trkpt><trkpt lat="48.563562981604235" lon="-2.088001452947747"><ele>48.0</ele><time>2026-04-05T12:13:17Z</time></trkpt><trkpt lat="48.56353146420578" lon="-2.088101732912242"><ele>48.0</ele><time>2026-04-05T12:13:18Z</time></trkpt><trkpt lat="48.56349527170808" lon="-2.0882051522874234"><ele>48.0</ele><time>2026-04-05T12:13:19Z</time></trkpt><trkpt lat="48.563459495281755" lon="-2.0883097026929676"><ele>48.0</ele><time>2026-04-05T12:13:20Z</time></trkpt><trkpt lat="48.56342494157111" lon="-2.0884126404374106"><ele>48.0</ele><time>2026-04-05T12:13:21Z</time></trkpt><trkpt lat="48.56338383659687" lon="-2.0885220382428558"><ele>47.666666666666664</ele><time>2026-04-05T12:13:22Z</time></trkpt><trkpt lat="48.563339369116825" lon="-2.0886307333282272"><ele>47.333333333333336</ele><time>2026-04-05T12:13:23Z</time></trkpt><trkpt lat="48.56329707656837" lon="-2.0887390528332"><ele>47.0</ele><time>2026-04-05T12:13:24Z</time></trkpt><trkpt lat="48.56325181999589" lon="-2.0888507037728195"><ele>46.66666666666667</ele><time>2026-04-05T12:13:25Z</time></trkpt><trkpt lat="48.56321299025111" lon="-2.08896504183964"><ele>46.333333333333336</ele><time>2026-04-05T12:13:26Z</time></trkpt><trkpt lat="48.563173520183874" lon="-2.089081226134488"><ele>46.0</ele><time>2026-04-05T12:13:27Z</time></trkpt><trkpt lat="48.56313625742145" lon="-2.0891979184288774"><ele>45.833333333333336</ele><time>2026-04-05T12:13:28Z</time></trkpt><trkpt lat="48.563098648500535" lon="-2.0893150332326065"><ele>45.66666666666667</ele><time>2026-04-05T12:13:29Z</time></trkpt><trkpt lat="48.56306764228195" lon="-2.0894366591745053"><ele>45.5</ele><time>2026-04-05T12:13:30Z</time></trkpt><trkpt lat="48.56303412733769" lon="-2.089558633385406"><ele>45.333333333333336</ele><time>2026-04-05T12:13:31Z</time></trkpt><trkpt lat="48.562999748502676" lon="-2.0896779765647593"><ele>45.166666666666664</ele><time>2026-04-05T12:13:32Z</time></trkpt><trkpt lat="48.562960953654084" lon="-2.089790470519126"><ele>45.0</ele><time>2026-04-05T12:13:32.999Z</time></trkpt><trkpt lat="48.56291747944068" lon="-2.089899416731578"><ele>44.666666666666664</ele><time>2026-04-05T12:13:33.999Z</time></trkpt><trkpt lat="48.56287587958049" lon="-2.089997153003095"><ele>44.333333333333336</ele><time>2026-04-05T12:13:34.999Z</time></trkpt><trkpt lat="48.562836753240155" lon="-2.090089033835797"><ele>44.0</ele><time>2026-04-05T12:13:35.999Z</time></trkpt><trkpt lat="48.56279650796995" lon="-2.0901852263494325"><ele>43.66666666666667</ele><time>2026-04-05T12:13:36.999Z</time></trkpt><trkpt lat="48.56273770341335" lon="-2.0902656930528143"><ele>43.333333333333336</ele><time>2026-04-05T12:13:37.999Z</time></trkpt><trkpt lat="48.56268073027241" lon="-2.090346465677196"><ele>43.0</ele><time>2026-04-05T12:13:38.999Z</time></trkpt><trkpt lat="48.56263166217137" lon="-2.0904455657992016"><ele>42.66666666666667</ele><time>2026-04-05T12:13:39.999Z</time></trkpt><trkpt lat="48.5625870411169" lon="-2.090556096141533"><ele>42.333333333333336</ele><time>2026-04-05T12:13:40.999Z</time></trkpt><trkpt lat="48.56254919919777" lon="-2.0906753729778416"><ele>42.0</ele><time>2026-04-05T12:13:41.999Z</time></trkpt><trkpt lat="48.562512094670865" lon="-2.0907976956406227"><ele>41.666666666666664</ele><time>2026-04-05T12:13:42.999Z</time></trkpt><trkpt lat="48.562492538666355" lon="-2.09092965367608"><ele>41.33333333333333</ele><time>2026-04-05T12:13:43.999Z</time></trkpt><trkpt lat="48.56248238289941" lon="-2.091063389225049"><ele>41.0</ele><time>2026-04-05T12:13:44.999Z</time></trkpt><trkpt lat="48.56248945345893" lon="-2.0911952428136114"><ele>40.33333333333333</ele><time>2026-04-05T12:13:45.999Z</time></trkpt><trkpt lat="48.562514658349144" lon="-2.09131777378559"><ele>39.666666666666664</ele><time>2026-04-05T12:13:46.999Z</time></trkpt><trkpt lat="48.56256711659782" lon="-2.0914248170387646"><ele>39.0</ele><time>2026-04-05T12:13:47.999Z</time></trkpt><trkpt lat="48.5626519716005" lon="-2.0914747532038005"><ele>38.333333333333336</ele><time>2026-04-05T12:13:48.999Z</time></trkpt><trkpt lat="48.562718801752716" lon="-2.0915440830974945"><ele>37.66666666666667</ele><time>2026-04-05T12:13:49.999Z</time></trkpt><trkpt lat="48.56276995244146" lon="-2.0916213530554413"><ele>37.0</ele><time>2026-04-05T12:13:50.999Z</time></trkpt><trkpt lat="48.56283732292065" lon="-2.0916898836005613"><ele>36.714285714285715</ele><time>2026-04-05T12:13:51.999Z</time></trkpt><trkpt lat="48.56289331787689" lon="-2.0917595197281624"><ele>36.42857142857143</ele><time>2026-04-05T12:13:52.999Z</time></trkpt><trkpt lat="48.562949581952154" lon="-2.091832020286641"><ele>36.14285714285714</ele><time>2026-04-05T12:13:53.999Z</time></trkpt><trkpt lat="48.56299114961426" lon="-2.091918256838573"><ele>35.85714285714286</ele><time>2026-04-05T12:13:54.999Z</time></trkpt><trkpt lat="48.56302918482993" lon="-2.0920023886704557"><ele>35.57142857142857</ele><time>2026-04-05T12:13:55.999Z</time></trkpt><trkpt lat="48.56306673316772" lon="-2.0920929932040684"><ele>35.285714285714285</ele><time>2026-04-05T12:13:56.999Z</time></trkpt><trkpt lat="48.5630938102965" lon="-2.092185331431651"><ele>35.0</ele><time>2026-04-05T12:13:57.999Z</time></trkpt><trkpt lat="48.56316085935945" lon="-2.092336228395008"><ele>35.6</ele><time>2026-04-05T12:13:59.999Z</time></trkpt><trkpt lat="48.56321867156152" lon="-2.0924592551811156"><ele>36.2</ele><time>2026-04-05T12:14:01.999Z</time></trkpt><trkpt lat="48.563279044524265" lon="-2.092558099284531"><ele>36.8</ele><time>2026-04-05T12:14:03.999Z</time></trkpt><trkpt lat="48.563335997142055" lon="-2.092671622613863"><ele>37.4</ele><time>2026-04-05T12:14:05.999Z</time></trkpt><trkpt lat="48.56339008988276" lon="-2.092772932706894"><ele>38.0</ele><time>2026-04-05T12:14:07.999Z</time></trkpt><trkpt lat="48.56345212196608" lon="-2.092872012189956"><ele>38.0</ele><time>2026-04-05T12:14:09.999Z</time></trkpt><trkpt lat="48.56349395849562" lon="-2.0929605642029983"><ele>38.0</ele><time>2026-04-05T12:14:11.999Z</time></trkpt><trkpt lat="48.563515305461024" lon="-2.0931115756625074"><ele>38.0</ele><time>2026-04-05T12:14:13.999Z</time></trkpt><trkpt lat="48.56354809149632" lon="-2.093217647982685"><ele>38.0</ele><time>2026-04-05T12:14:15.999Z</time></trkpt><trkpt lat="48.563515294278425" lon="-2.093363922663039"><ele>38.0</ele><time>2026-04-05T12:14:17.999Z</time></trkpt><trkpt lat="48.563502746742614" lon="-2.0934975283072492"><ele>38.0</ele><time>2026-04-05T12:14:21.999Z</time></trkpt><trkpt lat="48.563472684786866" lon="-2.0936103331036886"><ele>39.0</ele><time>2026-04-05T12:14:26Z</time></trkpt><trkpt lat="48.56343699376912" lon="-2.093712860626918"><ele>40.0</ele><time>2026-04-05T12:14:29Z</time></trkpt><trkpt lat="48.56339561905911" lon="-2.0938089614531354"><ele>41.0</ele><time>2026-04-05T12:14:32Z</time></trkpt><trkpt lat="48.563369726543236" lon="-2.093958610751982"><ele>42.0</ele><time>2026-04-05T12:14:36Z</time></trkpt><trkpt lat="48.56337699394885" lon="-2.094064124559232"><ele>43.0</ele><time>2026-04-05T12:14:39Z</time></trkpt><trkpt lat="48.56333457257192" lon="-2.094140943172968"><ele>44.0</ele><time>2026-04-05T12:14:41Z</time></trkpt><trkpt lat="48.56331738569101" lon="-2.0942944480659365"><ele>44.5</ele><time>2026-04-05T12:14:44Z</time></trkpt><trkpt lat="48.56328655890894" lon="-2.094430865907838"><ele>45.0</ele><time>2026-04-05T12:14:47Z</time></trkpt><trkpt lat="48.56325651363385" lon="-2.0945615870871626"><ele>45.5</ele><time>2026-04-05T12:14:50Z</time></trkpt><trkpt lat="48.563245981582405" lon="-2.0946879662140954"><ele>46.0</ele><time>2026-04-05T12:14:52Z</time></trkpt><trkpt lat="48.56322945560312" lon="-2.094830387701365"><ele>46.5</ele><time>2026-04-05T12:14:55Z</time></trkpt><trkpt lat="48.56321764138839" lon="-2.094924031456571"><ele>47.0</ele><time>2026-04-05T12:14:57Z</time></trkpt><trkpt lat="48.56320937213523" lon="-2.095026350115391"><ele>47.42857142857143</ele><time>2026-04-05T12:14:59Z</time></trkpt><trkpt lat="48.56320727604732" lon="-2.095131127555781"><ele>47.857142857142854</ele><time>2026-04-05T12:15:01Z</time></trkpt><trkpt lat="48.56320748317531" lon="-2.0952412167022785"><ele>48.28571428571429</ele><time>2026-04-05T12:15:03Z</time></trkpt><trkpt lat="48.56321197848875" lon="-2.0953785292248783"><ele>48.714285714285715</ele><time>2026-04-05T12:15:06Z</time></trkpt><trkpt lat="48.56321169765103" lon="-2.095476760026872"><ele>49.142857142857146</ele><time>2026-04-05T12:15:08Z</time></trkpt><trkpt lat="48.56320202085115" lon="-2.0955751605373787"><ele>49.57142857142858</ele><time>2026-04-05T12:15:10Z</time></trkpt><trkpt lat="48.5631937303547" lon="-2.0956720188727873"><ele>50.0</ele><time>2026-04-05T12:15:12Z</time></trkpt><trkpt lat="48.56319603302999" lon="-2.0957780795713945"><ele>50.25</ele><time>2026-04-05T12:15:14Z</time></trkpt><trkpt lat="48.563211177617106" lon="-2.0959463794825703"><ele>50.5</ele><time>2026-04-05T12:15:17Z</time></trkpt><trkpt lat="48.563201140018926" lon="-2.096090041599791"><ele>50.75</ele><time>2026-04-05T12:15:20Z</time></trkpt><trkpt lat="48.5631878822084" lon="-2.096198651703894"><ele>51.0</ele><time>2026-04-05T12:15:22Z</time></trkpt><trkpt lat="48.56322106883002" lon="-2.096657343849822"><ele>51.199999999999996</ele><time>2026-04-05T12:15:25Z</time></trkpt><trkpt lat="48.56320488402436" lon="-2.0967831612421697"><ele>51.4</ele><time>2026-04-05T12:15:27Z</time></trkpt><trkpt lat="48.56318893062263" lon="-2.096908941554017"><ele>51.6</ele><time>2026-04-05T12:15:29Z</time></trkpt><trkpt lat="48.56317308205168" lon="-2.0970323892836253"><ele>51.8</ele><time>2026-04-05T12:15:31Z</time></trkpt><trkpt lat="48.563150879921984" lon="-2.0971844436909377"><ele>52.0</ele><time>2026-04-05T12:15:33Z</time></trkpt><trkpt lat="48.56312805299257" lon="-2.0973391279393523"><ele>52.2</ele><time>2026-04-05T12:15:35Z</time></trkpt><trkpt lat="48.563105817923145" lon="-2.0974799096248846"><ele>52.400000000000006</ele><time>2026-04-05T12:15:37Z</time></trkpt><trkpt lat="48.563095343255235" lon="-2.097648346662444"><ele>52.599999999999994</ele><time>2026-04-05T12:15:39Z</time></trkpt><trkpt lat="48.56307888994315" lon="-2.0977768667988346"><ele>52.8</ele><time>2026-04-05T12:15:41Z</time></trkpt><trkpt lat="48.56306667229684" lon="-2.0979176089968803"><ele>53.0</ele><time>2026-04-05T12:15:43Z</time></trkpt><trkpt lat="48.56304114078059" lon="-2.0980653813714025"><ele>53.00000000000001</ele><time>2026-04-05T12:15:45Z</time></trkpt><trkpt lat="48.56303404548929" lon="-2.09816947924378"><ele>53.0</ele><time>2026-04-05T12:15:47Z</time></trkpt><trkpt lat="48.563032486297544" lon="-2.098271515050873"><ele>53.0</ele><time>2026-04-05T12:15:47.999Z</time></trkpt><trkpt lat="48.563023491993" lon="-2.098412041362181"><ele>53.0</ele><time>2026-04-05T12:15:49.999Z</time></trkpt><trkpt lat="48.56302272760837" lon="-2.098555750751403"><ele>53.00000000000001</ele><time>2026-04-05T12:15:51.999Z</time></trkpt><trkpt lat="48.56301084280496" lon="-2.098684445983614"><ele>53.0</ele><time>2026-04-05T12:15:53.999Z</time></trkpt><trkpt lat="48.562982871636216" lon="-2.098810893692478"><ele>53.2</ele><time>2026-04-05T12:15:55.999Z</time></trkpt><trkpt lat="48.562955544814585" lon="-2.0989440970242326"><ele>53.4</ele><time>2026-04-05T12:15:57.999Z</time></trkpt><trkpt lat="48.56292230599466" lon="-2.0990753773070163"><ele>53.60000000000001</ele><time>2026-04-05T12:15:59.999Z</time></trkpt><trkpt lat="48.56288956812753" lon="-2.0992108733989663"><ele>53.800000000000004</ele><time>2026-04-05T12:16:01.999Z</time></trkpt><trkpt lat="48.56285688125986" lon="-2.0993461481201185"><ele>54.0</ele><time>2026-04-05T12:16:03.999Z</time></trkpt><trkpt lat="48.56282482379336" lon="-2.099474917216614"><ele>54.400000000000006</ele><time>2026-04-05T12:16:05.999Z</time></trkpt><trkpt lat="48.562792566981" lon="-2.099617753471718"><ele>54.800000000000004</ele><time>2026-04-05T12:16:07.999Z</time></trkpt><trkpt lat="48.562764909622786" lon="-2.099719533929819"><ele>55.199999999999996</ele><time>2026-04-05T12:16:09.999Z</time></trkpt><trkpt lat="48.562725783495075" lon="-2.099869867990198"><ele>55.599999999999994</ele><time>2026-04-05T12:16:11.999Z</time></trkpt><trkpt lat="48.56270083997738" lon="-2.099987908254471"><ele>56.0</ele><time>2026-04-05T12:16:12.999Z</time></trkpt><trkpt lat="48.56266308061004" lon="-2.100142835771877"><ele>56.0</ele><time>2026-04-05T12:16:14.999Z</time></trkpt><trkpt lat="48.562620727472776" lon="-2.1003047150639405"><ele>56.0</ele><time>2026-04-05T12:16:16.999Z</time></trkpt><trkpt lat="48.562585403894246" lon="-2.1004679374245674"><ele>56.0</ele><time>2026-04-05T12:16:18.999Z</time></trkpt><trkpt lat="48.56255013965089" lon="-2.1006325481026433"><ele>56.0</ele><time>2026-04-05T12:16:20.999Z</time></trkpt><trkpt lat="48.562510918023605" lon="-2.1007937151115468"><ele>56.0</ele><time>2026-04-05T12:16:22.999Z</time></trkpt><trkpt lat="48.5624709473544" lon="-2.10095301188655"><ele>56.0</ele><time>2026-04-05T12:16:24.999Z</time></trkpt><trkpt lat="48.56243652195548" lon="-2.101117272054131"><ele>56.0</ele><time>2026-04-05T12:16:26.999Z</time></trkpt><trkpt lat="48.56240155386646" lon="-2.101277793771712"><ele>56.0</ele><time>2026-04-05T12:16:28.999Z</time></trkpt><trkpt lat="48.56236451040343" lon="-2.1014381574896857"><ele>56.0</ele><time>2026-04-05T12:16:31Z</time></trkpt><trkpt lat="48.562321276530724" lon="-2.101594293044639"><ele>55.99999999999999</ele><time>2026-04-05T12:16:33Z</time></trkpt><trkpt lat="48.56228528702373" lon="-2.1017515534833158"><ele>55.99999999999999</ele><time>2026-04-05T12:16:35Z</time></trkpt><trkpt lat="48.562247818486156" lon="-2.1019097695298425"><ele>56.0</ele><time>2026-04-05T12:16:37Z</time></trkpt><trkpt lat="48.562211162173895" lon="-2.1020676490209453"><ele>56.0</ele><time>2026-04-05T12:16:39Z</time></trkpt><trkpt lat="48.56217695278844" lon="-2.1022278639968386"><ele>56.0</ele><time>2026-04-05T12:16:41Z</time></trkpt><trkpt lat="48.56213953589173" lon="-2.102375049866403"><ele>55.99999999999999</ele><time>2026-04-05T12:16:43Z</time></trkpt><trkpt lat="48.56210891320458" lon="-2.1025280432016777"><ele>55.99999999999999</ele><time>2026-04-05T12:16:45Z</time></trkpt><trkpt lat="48.56205650017887" lon="-2.1026657818503613"><ele>56.0</ele><time>2026-04-05T12:16:47Z</time></trkpt><trkpt lat="48.56201323421994" lon="-2.102805943736942"><ele>56.0</ele><time>2026-04-05T12:16:49Z</time></trkpt><trkpt lat="48.56196193450895" lon="-2.102938385364717"><ele>57.0</ele><time>2026-04-05T12:16:51Z</time></trkpt><trkpt lat="48.5619114128509" lon="-2.1030733625253832"><ele>57.99999999999999</ele><time>2026-04-05T12:16:53Z</time></trkpt><trkpt lat="48.561866534627605" lon="-2.103234133655232"><ele>58.99999999999999</ele><time>2026-04-05T12:16:56Z</time></trkpt><trkpt lat="48.561817966538186" lon="-2.103323212558373"><ele>60.0</ele><time>2026-04-05T12:16:58Z</time></trkpt><trkpt lat="48.561779935126545" lon="-2.1034408065658114"><ele>61.0</ele><time>2026-04-05T12:17:01Z</time></trkpt><trkpt lat="48.56173728342346" lon="-2.103560513257822"><ele>61.0</ele><time>2026-04-05T12:17:02Z</time></trkpt><trkpt lat="48.561676192623025" lon="-2.103713444877213"><ele>61.0</ele><time>2026-04-05T12:17:04Z</time></trkpt><trkpt lat="48.56158737385611" lon="-2.1039959023116257"><ele>61.0</ele><time>2026-04-05T12:17:06Z</time></trkpt><trkpt lat="48.56156310458916" lon="-2.1041667558441772"><ele>61.0</ele><time>2026-04-05T12:17:08Z</time></trkpt><trkpt lat="48.56151468323424" lon="-2.1043351177562486"><ele>60.5</ele><time>2026-04-05T12:17:10Z</time></trkpt><trkpt lat="48.5614948010054" lon="-2.104507111265399"><ele>60.0</ele><time>2026-04-05T12:17:12Z</time></trkpt><trkpt lat="48.561481568140735" lon="-2.1046786069987102"><ele>59.5</ele><time>2026-04-05T12:17:14Z</time></trkpt><trkpt lat="48.56147659031564" lon="-2.104852805714449"><ele>59.0</ele><time>2026-04-05T12:17:16Z</time></trkpt><trkpt lat="48.561470872330986" lon="-2.1050356734144207"><ele>59.0</ele><time>2026-04-05T12:17:18Z</time></trkpt><trkpt lat="48.56144731526215" lon="-2.1052130733918832"><ele>59.00000000000001</ele><time>2026-04-05T12:17:20Z</time></trkpt><trkpt lat="48.5614153701952" lon="-2.105383430684824"><ele>59.00000000000001</ele><time>2026-04-05T12:17:22Z</time></trkpt><trkpt lat="48.561368767192164" lon="-2.105546053974855"><ele>59.0</ele><time>2026-04-05T12:17:24Z</time></trkpt><trkpt lat="48.561318521023146" lon="-2.105638932067617"><ele>59.0</ele><time>2026-04-05T12:17:25Z</time></trkpt><trkpt lat="48.5612659418395" lon="-2.105794193955304"><ele>58.833333333333336</ele><time>2026-04-05T12:17:27Z</time></trkpt><trkpt lat="48.561233469288176" lon="-2.1058776381249116"><ele>58.66666666666667</ele><time>2026-04-05T12:17:28Z</time></trkpt><trkpt lat="48.56120394501456" lon="-2.105965456015544"><ele>58.5</ele><time>2026-04-05T12:17:29Z</time></trkpt><trkpt lat="48.5611769502129" lon="-2.106054955151695"><ele>58.33333333333333</ele><time>2026-04-05T12:17:30Z</time></trkpt><trkpt lat="48.56114741311635" lon="-2.106145114200808"><ele>58.166666666666664</ele><time>2026-04-05T12:17:31Z</time></trkpt><trkpt lat="48.56109846399131" lon="-2.1063227668890767"><ele>58.0</ele><time>2026-04-05T12:17:33Z</time></trkpt><trkpt lat="48.56107301664098" lon="-2.1064225942127575"><ele>57.2</ele><time>2026-04-05T12:17:34Z</time></trkpt><trkpt lat="48.561025792296974" lon="-2.106599018351193"><ele>56.4</ele><time>2026-04-05T12:17:36Z</time></trkpt><trkpt lat="48.56096708699472" lon="-2.1067792034704094"><ele>55.60000000000001</ele><time>2026-04-05T12:17:38Z</time></trkpt><trkpt lat="48.560945856776414" lon="-2.1068732338290816"><ele>54.800000000000004</ele><time>2026-04-05T12:17:39Z</time></trkpt><trkpt lat="48.560922341613896" lon="-2.1069674064422443"><ele>54.0</ele><time>2026-04-05T12:17:40Z</time></trkpt><trkpt lat="48.560898557313934" lon="-2.1070651896524955"><ele>54.0</ele><time>2026-04-05T12:17:41Z</time></trkpt><trkpt lat="48.56087527992133" lon="-2.1071637833583075"><ele>54.0</ele><time>2026-04-05T12:17:42Z</time></trkpt><trkpt lat="48.56085055501785" lon="-2.107258747269297"><ele>54.0</ele><time>2026-04-05T12:17:43Z</time></trkpt><trkpt lat="48.56081952380173" lon="-2.1073503451679145"><ele>54.0</ele><time>2026-04-05T12:17:44Z</time></trkpt><trkpt lat="48.56079287514601" lon="-2.107441045767385"><ele>54.0</ele><time>2026-04-05T12:17:45Z</time></trkpt><trkpt lat="48.56076383380758" lon="-2.107540084969342"><ele>54.0</ele><time>2026-04-05T12:17:45.999Z</time></trkpt><trkpt lat="48.56073515368569" lon="-2.107629924837629"><ele>54.0</ele><time>2026-04-05T12:17:46.999Z</time></trkpt><trkpt lat="48.560705935489565" lon="-2.107718590872793"><ele>53.800000000000004</ele><time>2026-04-05T12:17:47.999Z</time></trkpt><trkpt lat="48.56067911714093" lon="-2.1078077398955033"><ele>53.60000000000001</ele><time>2026-04-05T12:17:48.999Z</time></trkpt><trkpt lat="48.56063245080469" lon="-2.107976940005513"><ele>53.4</ele><time>2026-04-05T12:17:50.999Z</time></trkpt><trkpt lat="48.56058801153019" lon="-2.108136681471852"><ele>53.2</ele><time>2026-04-05T12:17:52.999Z</time></trkpt><trkpt lat="48.56053869718767" lon="-2.108292822755952"><ele>53.0</ele><time>2026-04-05T12:17:54.999Z</time></trkpt><trkpt lat="48.56048492257868" lon="-2.1084383841447893"><ele>52.8</ele><time>2026-04-05T12:17:56.999Z</time></trkpt><trkpt lat="48.5604330768281" lon="-2.10858859161415"><ele>52.599999999999994</ele><time>2026-04-05T12:17:58.999Z</time></trkpt><trkpt lat="48.56037036829811" lon="-2.1087267316787726"><ele>52.400000000000006</ele><time>2026-04-05T12:18:00.999Z</time></trkpt><trkpt lat="48.56030478966906" lon="-2.108887687074159"><ele>52.2</ele><time>2026-04-05T12:18:02.999Z</time></trkpt><trkpt lat="48.56027022432323" lon="-2.108969253882658"><ele>52.0</ele><time>2026-04-05T12:18:03.999Z</time></trkpt><trkpt lat="48.56022579895749" lon="-2.109051526143421"><ele>51.83333333333333</ele><time>2026-04-05T12:18:04.999Z</time></trkpt><trkpt lat="48.56018168350123" lon="-2.1091340329737527"><ele>51.666666666666664</ele><time>2026-04-05T12:18:05.999Z</time></trkpt><trkpt lat="48.56011435488223" lon="-2.1092968486912334"><ele>51.5</ele><time>2026-04-05T12:18:07.999Z</time></trkpt><trkpt lat="48.56007676827794" lon="-2.1093837544626526"><ele>51.33333333333333</ele><time>2026-04-05T12:18:08.999Z</time></trkpt><trkpt lat="48.56004581520853" lon="-2.1094717870505835"><ele>51.166666666666664</ele><time>2026-04-05T12:18:09.999Z</time></trkpt><trkpt lat="48.56000996747858" lon="-2.1095566652388786"><ele>51.0</ele><time>2026-04-05T12:18:10.999Z</time></trkpt><trkpt lat="48.559980283551546" lon="-2.109646484362446"><ele>51.0</ele><time>2026-04-05T12:18:11.999Z</time></trkpt><trkpt lat="48.55994598588713" lon="-2.109730096479114"><ele>51.0</ele><time>2026-04-05T12:18:12.999Z</time></trkpt><trkpt lat="48.55991522708709" lon="-2.109822324714469"><ele>51.0</ele><time>2026-04-05T12:18:13.999Z</time></trkpt><trkpt lat="48.559886422889086" lon="-2.1099156787899984"><ele>51.0</ele><time>2026-04-05T12:18:14.999Z</time></trkpt><trkpt lat="48.559864182594" lon="-2.1100065542213158"><ele>51.0</ele><time>2026-04-05T12:18:15.999Z</time></trkpt><trkpt lat="48.55983835104439" lon="-2.1100999161259413"><ele>51.0</ele><time>2026-04-05T12:18:16.999Z</time></trkpt><trkpt lat="48.55981622941842" lon="-2.1101933495205882"><ele>51.0</ele><time>2026-04-05T12:18:17.999Z</time></trkpt><trkpt lat="48.5597953481232" lon="-2.1102872430713786"><ele>50.85714285714286</ele><time>2026-04-05T12:18:18.999Z</time></trkpt><trkpt lat="48.559786613759734" lon="-2.110389810238156"><ele>50.714285714285715</ele><time>2026-04-05T12:18:19.999Z</time></trkpt><trkpt lat="48.559786448316565" lon="-2.1104892159661683"><ele>50.57142857142857</ele><time>2026-04-05T12:18:20.999Z</time></trkpt><trkpt lat="48.55979687133833" lon="-2.1105855354064595"><ele>50.42857142857143</ele><time>2026-04-05T12:18:21.999Z</time></trkpt><trkpt lat="48.55981666603839" lon="-2.11068454660254"><ele>50.285714285714285</ele><time>2026-04-05T12:18:22.999Z</time></trkpt><trkpt lat="48.55986385481824" lon="-2.1107677834332126"><ele>50.142857142857146</ele><time>2026-04-05T12:18:23.999Z</time></trkpt><trkpt lat="48.55989138252361" lon="-2.110867142751427"><ele>50.0</ele><time>2026-04-05T12:18:24.999Z</time></trkpt><trkpt lat="48.55995195809132" lon="-2.110924706992752"><ele>49.714285714285715</ele><time>2026-04-05T12:18:25.999Z</time></trkpt><trkpt lat="48.56000615873404" lon="-2.110981461062106"><ele>49.42857142857143</ele><time>2026-04-05T12:18:26.999Z</time></trkpt><trkpt lat="48.56005999354383" lon="-2.1110549221306463"><ele>49.14285714285714</ele><time>2026-04-05T12:18:27.999Z</time></trkpt><trkpt lat="48.56012616607702" lon="-2.111093731465692"><ele>48.85714285714286</ele><time>2026-04-05T12:18:28.999Z</time></trkpt><trkpt lat="48.560192956984125" lon="-2.1111220522617105"><ele>48.57142857142857</ele><time>2026-04-05T12:18:29.999Z</time></trkpt><trkpt lat="48.56026310973004" lon="-2.111145613072987"><ele>48.285714285714285</ele><time>2026-04-05T12:18:30.999Z</time></trkpt><trkpt lat="48.56033541412055" lon="-2.111143018026984"><ele>48.0</ele><time>2026-04-05T12:18:31.999Z</time></trkpt><trkpt lat="48.560402457164976" lon="-2.1111797267946293"><ele>48.0</ele><time>2026-04-05T12:18:32.999Z</time></trkpt><trkpt lat="48.560468578730145" lon="-2.111184923074164"><ele>48.0</ele><time>2026-04-05T12:18:33.999Z</time></trkpt><trkpt lat="48.56053433881735" lon="-2.1111892589134498"><ele>48.0</ele><time>2026-04-05T12:18:34.999Z</time></trkpt><trkpt lat="48.560600986543385" lon="-2.1112017274124124"><ele>48.0</ele><time>2026-04-05T12:18:35.999Z</time></trkpt><trkpt lat="48.56066629893833" lon="-2.111208043277962"><ele>48.0</ele><time>2026-04-05T12:18:37Z</time></trkpt><trkpt lat="48.56078699238903" lon="-2.1112169694846203"><ele>48.0</ele><time>2026-04-05T12:18:39Z</time></trkpt><trkpt lat="48.560906075984484" lon="-2.1112400395266158"><ele>48.0</ele><time>2026-04-05T12:18:41Z</time></trkpt><trkpt lat="48.56102288707111" lon="-2.111258234434628"><ele>48.0</ele><time>2026-04-05T12:18:43Z</time></trkpt><trkpt lat="48.56113472642143" lon="-2.11128739611126"><ele>48.0</ele><time>2026-04-05T12:18:45Z</time></trkpt><trkpt lat="48.56124758469692" lon="-2.111339687174227"><ele>48.0</ele><time>2026-04-05T12:18:47Z</time></trkpt><trkpt lat="48.56134827674423" lon="-2.1114032679096715"><ele>48.2</ele><time>2026-04-05T12:18:49Z</time></trkpt><trkpt lat="48.56142839939491" lon="-2.111481678632104"><ele>48.4</ele><time>2026-04-05T12:18:51Z</time></trkpt><trkpt lat="48.56151712815567" lon="-2.1115550829621403"><ele>48.6</ele><time>2026-04-05T12:18:53Z</time></trkpt><trkpt lat="48.56160096381167" lon="-2.111630377331013"><ele>48.800000000000004</ele><time>2026-04-05T12:18:55Z</time></trkpt><trkpt lat="48.561692719523" lon="-2.111698242195743"><ele>49.0</ele><time>2026-04-05T12:18:57Z</time></trkpt><trkpt lat="48.56179502378282" lon="-2.1117499947697502"><ele>49.0</ele><time>2026-04-05T12:18:59Z</time></trkpt><trkpt lat="48.56188971075517" lon="-2.1117913006720914"><ele>49.0</ele><time>2026-04-05T12:19:01Z</time></trkpt><trkpt lat="48.56198230557485" lon="-2.111840768925496"><ele>49.0</ele><time>2026-04-05T12:19:03Z</time></trkpt><trkpt lat="48.56206404629101" lon="-2.111910998924696"><ele>49.0</ele><time>2026-04-05T12:19:05Z</time></trkpt><trkpt lat="48.56213733233457" lon="-2.111998584356355"><ele>49.0</ele><time>2026-04-05T12:19:07Z</time></trkpt><trkpt lat="48.56220636886008" lon="-2.1120923492223507"><ele>48.800000000000004</ele><time>2026-04-05T12:19:09Z</time></trkpt><trkpt lat="48.56227931430991" lon="-2.112191476956893"><ele>48.6</ele><time>2026-04-05T12:19:11Z</time></trkpt><trkpt lat="48.56236148033824" lon="-2.112309145718699"><ele>48.4</ele><time>2026-04-05T12:19:13Z</time></trkpt><trkpt lat="48.5624479904815" lon="-2.1124157097780047"><ele>48.2</ele><time>2026-04-05T12:19:15Z</time></trkpt><trkpt lat="48.562533936008315" lon="-2.1125215930091326"><ele>48.0</ele><time>2026-04-05T12:19:17Z</time></trkpt><trkpt lat="48.56263853235387" lon="-2.1126033763008754"><ele>47.599999999999994</ele><time>2026-04-05T12:19:19Z</time></trkpt><trkpt lat="48.56272801714762" lon="-2.11271260211116"><ele>47.199999999999996</ele><time>2026-04-05T12:19:21Z</time></trkpt><trkpt lat="48.56283359185737" lon="-2.112798995713104"><ele>46.8</ele><time>2026-04-05T12:19:23Z</time></trkpt><trkpt lat="48.5628911118506" lon="-2.112857675716597"><ele>46.4</ele><time>2026-04-05T12:19:24Z</time></trkpt><trkpt lat="48.56299453100273" lon="-2.1129831204095098"><ele>46.0</ele><time>2026-04-05T12:19:26Z</time></trkpt><trkpt lat="48.56310594747687" lon="-2.1130746255810564"><ele>46.0</ele><time>2026-04-05T12:19:28Z</time></trkpt><trkpt lat="48.56315990239894" lon="-2.1131288726537187"><ele>46.0</ele><time>2026-04-05T12:19:29Z</time></trkpt><trkpt lat="48.563214165923874" lon="-2.113185222603289"><ele>46.0</ele><time>2026-04-05T12:19:30Z</time></trkpt><trkpt lat="48.56330847709466" lon="-2.113301817283383"><ele>46.0</ele><time>2026-04-05T12:19:32Z</time></trkpt><trkpt lat="48.56336062779731" lon="-2.113355290369962"><ele>46.0</ele><time>2026-04-05T12:19:33Z</time></trkpt><trkpt lat="48.563457327858195" lon="-2.1134576925364303"><ele>46.0</ele><time>2026-04-05T12:19:35Z</time></trkpt><trkpt lat="48.56354855198581" lon="-2.1135650312788234"><ele>45.8</ele><time>2026-04-05T12:19:37Z</time></trkpt><trkpt lat="48.56364420302916" lon="-2.113671199435754"><ele>45.599999999999994</ele><time>2026-04-05T12:19:39Z</time></trkpt><trkpt lat="48.56372896276804" lon="-2.113790924204925"><ele>45.4</ele><time>2026-04-05T12:19:41Z</time></trkpt><trkpt lat="48.56378550857253" lon="-2.113840087470355"><ele>45.2</ele><time>2026-04-05T12:19:42Z</time></trkpt><trkpt lat="48.56386239536817" lon="-2.113970866580749"><ele>45.0</ele><time>2026-04-05T12:19:44Z</time></trkpt><trkpt lat="48.563961112122584" lon="-2.1140722462644774"><ele>45.0</ele><time>2026-04-05T12:19:46Z</time></trkpt><trkpt lat="48.56405815897998" lon="-2.114179844227486"><ele>45.0</ele><time>2026-04-05T12:19:48Z</time></trkpt><trkpt lat="48.56415073689208" lon="-2.1142610039127665"><ele>45.0</ele><time>2026-04-05T12:19:50Z</time></trkpt><trkpt lat="48.564237055357154" lon="-2.1143334215625473"><ele>45.0</ele><time>2026-04-05T12:19:51.999Z</time></trkpt><trkpt lat="48.56433567352317" lon="-2.11440491677235"><ele>45.0</ele><time>2026-04-05T12:19:53.999Z</time></trkpt><trkpt lat="48.564436286206224" lon="-2.1144889459844745"><ele>45.2</ele><time>2026-04-05T12:19:55.999Z</time></trkpt><trkpt lat="48.56453314738858" lon="-2.1145672200549304"><ele>45.4</ele><time>2026-04-05T12:19:57.999Z</time></trkpt><trkpt lat="48.56463345318537" lon="-2.1146427332442577"><ele>45.599999999999994</ele><time>2026-04-05T12:19:59.999Z</time></trkpt><trkpt lat="48.56472640664401" lon="-2.1147333536978943"><ele>45.8</ele><time>2026-04-05T12:20:01.999Z</time></trkpt><trkpt lat="48.564813181929104" lon="-2.114837354764348"><ele>46.0</ele><time>2026-04-05T12:20:03.999Z</time></trkpt><trkpt lat="48.564885127351644" lon="-2.1149625107908054"><ele>46.0</ele><time>2026-04-05T12:20:05.999Z</time></trkpt><trkpt lat="48.56493932421231" lon="-2.115107221470864"><ele>46.0</ele><time>2026-04-05T12:20:07.999Z</time></trkpt><trkpt lat="48.56497090012898" lon="-2.115271124446553"><ele>46.0</ele><time>2026-04-05T12:20:09.999Z</time></trkpt><trkpt lat="48.56499650502529" lon="-2.1154352034948114"><ele>46.0</ele><time>2026-04-05T12:20:11.999Z</time></trkpt><trkpt lat="48.56502703211749" lon="-2.1155905751721127"><ele>46.0</ele><time>2026-04-05T12:20:13.999Z</time></trkpt><trkpt lat="48.565052057241566" lon="-2.1157497585713756"><ele>45.8</ele><time>2026-04-05T12:20:15.999Z</time></trkpt><trkpt lat="48.56508515810866" lon="-2.1158955840349303"><ele>45.599999999999994</ele><time>2026-04-05T12:20:17.999Z</time></trkpt><trkpt lat="48.5651192593343" lon="-2.115999971237519"><ele>45.4</ele><time>2026-04-05T12:20:19.999Z</time></trkpt><trkpt lat="48.56516088849016" lon="-2.116134706789562"><ele>45.2</ele><time>2026-04-05T12:20:21.999Z</time></trkpt><trkpt lat="48.56521176777398" lon="-2.1162611956183848"><ele>45.0</ele><time>2026-04-05T12:20:23.999Z</time></trkpt><trkpt lat="48.56527017484704" lon="-2.1163848226448208"><ele>45.0</ele><time>2026-04-05T12:20:25.999Z</time></trkpt><trkpt lat="48.56533899454476" lon="-2.116495436367172"><ele>45.0</ele><time>2026-04-05T12:20:27.999Z</time></trkpt><trkpt lat="48.56542509116898" lon="-2.1165976433256315"><ele>45.0</ele><time>2026-04-05T12:20:30.999Z</time></trkpt><trkpt lat="48.5654828285821" lon="-2.1166549966877044"><ele>45.0</ele><time>2026-04-05T12:20:31.999Z</time></trkpt><trkpt lat="48.56554316359921" lon="-2.116714373657539"><ele>45.0</ele><time>2026-04-05T12:20:32.999Z</time></trkpt><trkpt lat="48.56559861485277" lon="-2.1167656741658862"><ele>45.0</ele><time>2026-04-05T12:20:33.999Z</time></trkpt><trkpt lat="48.56572105870138" lon="-2.1168645218421474"><ele>45.2</ele><time>2026-04-05T12:20:34.999Z</time></trkpt><trkpt lat="48.56581644894617" lon="-2.116919831638713"><ele>45.4</ele><time>2026-04-05T12:20:36.999Z</time></trkpt><trkpt lat="48.565914661397706" lon="-2.1169709475115197"><ele>45.599999999999994</ele><time>2026-04-05T12:20:38.999Z</time></trkpt><trkpt lat="48.56600523878683" lon="-2.1170068667558746"><ele>45.8</ele><time>2026-04-05T12:20:40.999Z</time></trkpt><trkpt lat="48.56610303781123" lon="-2.117054606314324"><ele>46.0</ele><time>2026-04-05T12:20:43Z</time></trkpt><trkpt lat="48.56619970930628" lon="-2.117088638572618"><ele>46.199999999999996</ele><time>2026-04-05T12:20:45Z</time></trkpt><trkpt lat="48.56628794444609" lon="-2.117106600979884"><ele>46.4</ele><time>2026-04-05T12:20:47Z</time></trkpt><trkpt lat="48.56638305534065" lon="-2.1171405079134957"><ele>46.6</ele><time>2026-04-05T12:20:49Z</time></trkpt><trkpt lat="48.566478125102115" lon="-2.1171736966267476"><ele>46.8</ele><time>2026-04-05T12:20:51Z</time></trkpt><trkpt lat="48.56657239204011" lon="-2.1171848458659017"><ele>47.0</ele><time>2026-04-05T12:20:53Z</time></trkpt><trkpt lat="48.56664939262487" lon="-2.117190126471972"><ele>47.0</ele><time>2026-04-05T12:20:55Z</time></trkpt><trkpt lat="48.566748635338925" lon="-2.1172053724872186"><ele>47.0</ele><time>2026-04-05T12:20:57Z</time></trkpt><trkpt lat="48.56682485857541" lon="-2.1171911253747"><ele>47.0</ele><time>2026-04-05T12:20:58Z</time></trkpt><trkpt lat="48.56693675718428" lon="-2.1171826322945257"><ele>47.0</ele><time>2026-04-05T12:21:00Z</time></trkpt><trkpt lat="48.56704161201656" lon="-2.117176622992403"><ele>47.0</ele><time>2026-04-05T12:21:02Z</time></trkpt><trkpt lat="48.567145550571304" lon="-2.1171805423123433"><ele>46.666666666666664</ele><time>2026-04-05T12:21:04Z</time></trkpt><trkpt lat="48.56725324206913" lon="-2.117210298030841"><ele>46.33333333333333</ele><time>2026-04-05T12:21:06Z</time></trkpt><trkpt lat="48.56731742267902" lon="-2.117237936676061"><ele>46.0</ele><time>2026-04-05T12:21:07Z</time></trkpt><trkpt lat="48.56740804071653" lon="-2.1172849367330078"><ele>45.666666666666664</ele><time>2026-04-05T12:21:09Z</time></trkpt><trkpt lat="48.56747202103019" lon="-2.1173187799000965"><ele>45.333333333333336</ele><time>2026-04-05T12:21:10Z</time></trkpt><trkpt lat="48.56753612900501" lon="-2.1173502441200416"><ele>45.0</ele><time>2026-04-05T12:21:11Z</time></trkpt><trkpt lat="48.567602716328494" lon="-2.117382855992576"><ele>44.857142857142854</ele><time>2026-04-05T12:21:12Z</time></trkpt><trkpt lat="48.567669662976854" lon="-2.117409059708834"><ele>44.714285714285715</ele><time>2026-04-05T12:21:13Z</time></trkpt><trkpt lat="48.56773904880603" lon="-2.1174377742645194"><ele>44.57142857142857</ele><time>2026-04-05T12:21:14Z</time></trkpt><trkpt lat="48.56780769340356" lon="-2.1174702453099528"><ele>44.42857142857143</ele><time>2026-04-05T12:21:15Z</time></trkpt><trkpt lat="48.56787544095349" lon="-2.1174983983488045"><ele>44.285714285714285</ele><time>2026-04-05T12:21:16Z</time></trkpt><trkpt lat="48.56794470244031" lon="-2.117529822221451"><ele>44.142857142857146</ele><time>2026-04-05T12:21:17Z</time></trkpt><trkpt lat="48.567990567753895" lon="-2.1176130126335866"><ele>44.0</ele><time>2026-04-05T12:21:18Z</time></trkpt><trkpt lat="48.56809299737831" lon="-2.117592137670512"><ele>43.666666666666664</ele><time>2026-04-05T12:21:19Z</time></trkpt><trkpt lat="48.56816895171937" lon="-2.1176251653345712"><ele>43.33333333333333</ele><time>2026-04-05T12:21:20Z</time></trkpt><trkpt lat="48.568240634258196" lon="-2.117664189700488"><ele>43.0</ele><time>2026-04-05T12:21:21Z</time></trkpt><trkpt lat="48.56830819205544" lon="-2.1177167795268534"><ele>42.666666666666664</ele><time>2026-04-05T12:21:22Z</time></trkpt><trkpt lat="48.56837294967695" lon="-2.1177733721077625"><ele>42.333333333333336</ele><time>2026-04-05T12:21:23Z</time></trkpt><trkpt lat="48.56843556130357" lon="-2.1178289074062504"><ele>42.0</ele><time>2026-04-05T12:21:24Z</time></trkpt><trkpt lat="48.56850289298015" lon="-2.117882560203256"><ele>42.0</ele><time>2026-04-05T12:21:25Z</time></trkpt><trkpt lat="48.568569892185366" lon="-2.1179259488654085"><ele>42.0</ele><time>2026-04-05T12:21:26Z</time></trkpt><trkpt lat="48.568634967089466" lon="-2.1179776564304316"><ele>42.0</ele><time>2026-04-05T12:21:27Z</time></trkpt><trkpt lat="48.56869508621701" lon="-2.1180287469921453"><ele>42.0</ele><time>2026-04-05T12:21:28Z</time></trkpt><trkpt lat="48.56875391906668" lon="-2.1180867220678854"><ele>42.0</ele><time>2026-04-05T12:21:29Z</time></trkpt><trkpt lat="48.56881223223935" lon="-2.1181390435753724"><ele>42.0</ele><time>2026-04-05T12:21:30Z</time></trkpt><trkpt lat="48.56887310486895" lon="-2.118202519005783"><ele>42.0</ele><time>2026-04-05T12:21:31Z</time></trkpt><trkpt lat="48.56893445330014" lon="-2.1182416248105023"><ele>41.285714285714285</ele><time>2026-04-05T12:21:32Z</time></trkpt><trkpt lat="48.56899720351617" lon="-2.118290906282227"><ele>40.57142857142857</ele><time>2026-04-05T12:21:33Z</time></trkpt><trkpt lat="48.56906234521263" lon="-2.1183277943956464"><ele>39.85714285714286</ele><time>2026-04-05T12:21:34Z</time></trkpt><trkpt lat="48.56912536115837" lon="-2.118363374579368"><ele>39.14285714285714</ele><time>2026-04-05T12:21:35Z</time></trkpt><trkpt lat="48.56918733299076" lon="-2.1183979096394414"><ele>38.42857142857143</ele><time>2026-04-05T12:21:36Z</time></trkpt><trkpt lat="48.56924954868403" lon="-2.1184350898855486"><ele>37.714285714285715</ele><time>2026-04-05T12:21:37Z</time></trkpt><trkpt lat="48.56931669696093" lon="-2.118449428275152"><ele>37.0</ele><time>2026-04-05T12:21:38Z</time></trkpt><trkpt lat="48.56938465871955" lon="-2.118495760492534"><ele>37.0</ele><time>2026-04-05T12:21:39Z</time></trkpt><trkpt lat="48.56945422974315" lon="-2.118517967238479"><ele>37.0</ele><time>2026-04-05T12:21:40Z</time></trkpt><trkpt lat="48.56951567200758" lon="-2.1185408747006997"><ele>37.0</ele><time>2026-04-05T12:21:41Z</time></trkpt><trkpt lat="48.569581548016664" lon="-2.118559126292151"><ele>37.0</ele><time>2026-04-05T12:21:42Z</time></trkpt><trkpt lat="48.56964479577167" lon="-2.1185827109678814"><ele>37.0</ele><time>2026-04-05T12:21:43Z</time></trkpt><trkpt lat="48.56976101583089" lon="-2.118615677559386"><ele>37.0</ele><time>2026-04-05T12:21:45Z</time></trkpt><trkpt lat="48.56987712141122" lon="-2.1186704806459895"><ele>37.4</ele><time>2026-04-05T12:21:47Z</time></trkpt><trkpt lat="48.56993859974097" lon="-2.1187065766302555"><ele>37.800000000000004</ele><time>2026-04-05T12:21:48Z</time></trkpt><trkpt lat="48.5700368995509" lon="-2.1187418894713423"><ele>38.2</ele><time>2026-04-05T12:21:50Z</time></trkpt><trkpt lat="48.57013679631977" lon="-2.11880363239032"><ele>38.6</ele><time>2026-04-05T12:21:52Z</time></trkpt><trkpt lat="48.57020936098538" lon="-2.1188719638486417"><ele>39.0</ele><time>2026-04-05T12:21:54Z</time></trkpt><trkpt lat="48.57030533431127" lon="-2.1189390856183103"><ele>39.333333333333336</ele><time>2026-04-05T12:21:56Z</time></trkpt><trkpt lat="48.57038763435638" lon="-2.1189909717091844"><ele>39.666666666666664</ele><time>2026-04-05T12:21:58Z</time></trkpt><trkpt lat="48.57046868271446" lon="-2.1190486896119953"><ele>40.0</ele><time>2026-04-05T12:22:01Z</time></trkpt><trkpt lat="48.57054140149964" lon="-2.119104808172975"><ele>40.33333333333333</ele><time>2026-04-05T12:22:03Z</time></trkpt><trkpt lat="48.57061616358177" lon="-2.1191585212844326"><ele>40.666666666666664</ele><time>2026-04-05T12:22:05Z</time></trkpt><trkpt lat="48.57069269131952" lon="-2.119210722993935"><ele>41.0</ele><time>2026-04-05T12:22:07Z</time></trkpt><trkpt lat="48.570765645674484" lon="-2.1192611011639775"><ele>41.0</ele><time>2026-04-05T12:22:08.999Z</time></trkpt><trkpt lat="48.570835681853666" lon="-2.1193203856025153"><ele>41.0</ele><time>2026-04-05T12:22:10.999Z</time></trkpt><trkpt lat="48.57095275668076" lon="-2.1196657406412553"><ele>41.0</ele><time>2026-04-05T12:22:14.999Z</time></trkpt><trkpt lat="48.57093496818147" lon="-2.1198027454539017"><ele>41.0</ele><time>2026-04-05T12:22:16.999Z</time></trkpt><trkpt lat="48.57092743636981" lon="-2.1199370163715416"><ele>40.8</ele><time>2026-04-05T12:22:18.999Z</time></trkpt><trkpt lat="48.570943240779876" lon="-2.120085013253043"><ele>40.599999999999994</ele><time>2026-04-05T12:22:20.999Z</time></trkpt><trkpt lat="48.570991242357294" lon="-2.120222971917204"><ele>40.4</ele><time>2026-04-05T12:22:22.999Z</time></trkpt><trkpt lat="48.57105260727284" lon="-2.120385195735873"><ele>40.2</ele><time>2026-04-05T12:22:24.999Z</time></trkpt><trkpt lat="48.571113325634535" lon="-2.120535721204579"><ele>40.0</ele><time>2026-04-05T12:22:26.999Z</time></trkpt><trkpt lat="48.57117692303771" lon="-2.120693383630691"><ele>40.0</ele><time>2026-04-05T12:22:28.999Z</time></trkpt><trkpt lat="48.571195695401045" lon="-2.1207897584151807"><ele>40.0</ele><time>2026-04-05T12:22:29.999Z</time></trkpt><trkpt lat="48.57126847272741" lon="-2.1209540863786427"><ele>40.0</ele><time>2026-04-05T12:22:31.999Z</time></trkpt><trkpt lat="48.571307761445155" lon="-2.1210306691246505"><ele>40.0</ele><time>2026-04-05T12:22:32.999Z</time></trkpt><trkpt lat="48.57137028182278" lon="-2.1211725617760884"><ele>40.0</ele><time>2026-04-05T12:22:34.999Z</time></trkpt><trkpt lat="48.57142216097689" lon="-2.121232751994147"><ele>40.0</ele><time>2026-04-05T12:22:35.999Z</time></trkpt><trkpt lat="48.57149833746589" lon="-2.1213693355829655"><ele>40.0</ele><time>2026-04-05T12:22:37.999Z</time></trkpt><trkpt lat="48.5715929388094" lon="-2.121465534607616"><ele>40.0</ele><time>2026-04-05T12:22:39.999Z</time></trkpt><trkpt lat="48.57169830441442" lon="-2.1215688129475487"><ele>40.0</ele><time>2026-04-05T12:22:41.999Z</time></trkpt><trkpt lat="48.57175486191562" lon="-2.1216266529745402"><ele>40.0</ele><time>2026-04-05T12:22:42.999Z</time></trkpt><trkpt lat="48.57181549796913" lon="-2.12167362830428"><ele>40.0</ele><time>2026-04-05T12:22:43.999Z</time></trkpt><trkpt lat="48.571878232234155" lon="-2.121711618105934"><ele>40.0</ele><time>2026-04-05T12:22:44.999Z</time></trkpt><trkpt lat="48.57193733999793" lon="-2.121773801989634"><ele>39.714285714285715</ele><time>2026-04-05T12:22:45.999Z</time></trkpt><trkpt lat="48.57199612698033" lon="-2.1218290316893103"><ele>39.42857142857143</ele><time>2026-04-05T12:22:46.999Z</time></trkpt><trkpt lat="48.572056650982475" lon="-2.1218792486223053"><ele>39.14285714285714</ele><time>2026-04-05T12:22:47.999Z</time></trkpt><trkpt lat="48.57211641606608" lon="-2.1219397312215444"><ele>38.85714285714286</ele><time>2026-04-05T12:22:49Z</time></trkpt><trkpt lat="48.572168790058214" lon="-2.121992733972601"><ele>38.57142857142858</ele><time>2026-04-05T12:22:50Z</time></trkpt><trkpt lat="48.57222957600426" lon="-2.1220545255610084"><ele>38.285714285714285</ele><time>2026-04-05T12:22:51Z</time></trkpt><trkpt lat="48.57227775055971" lon="-2.1221340075525505"><ele>38.0</ele><time>2026-04-05T12:22:52Z</time></trkpt><trkpt lat="48.5723403346346" lon="-2.1221978702566835"><ele>38.0</ele><time>2026-04-05T12:22:53Z</time></trkpt><trkpt lat="48.5724082228492" lon="-2.1222420186766993"><ele>38.0</ele><time>2026-04-05T12:22:54Z</time></trkpt><trkpt lat="48.572463408531654" lon="-2.1222994202344383"><ele>38.0</ele><time>2026-04-05T12:22:55Z</time></trkpt><trkpt lat="48.57256802634573" lon="-2.122409159141846"><ele>38.0</ele><time>2026-04-05T12:22:57Z</time></trkpt><trkpt lat="48.572674136269015" lon="-2.122486815021949"><ele>38.0</ele><time>2026-04-05T12:22:59Z</time></trkpt><trkpt lat="48.57275496010281" lon="-2.122646923423256"><ele>37.8</ele><time>2026-04-05T12:23:01Z</time></trkpt><trkpt lat="48.57281009162449" lon="-2.122704143311251"><ele>37.599999999999994</ele><time>2026-04-05T12:23:02Z</time></trkpt><trkpt lat="48.57288460869551" lon="-2.122840211574814"><ele>37.400000000000006</ele><time>2026-04-05T12:23:04Z</time></trkpt><trkpt lat="48.57296101091128" lon="-2.122966978985331"><ele>37.2</ele><time>2026-04-05T12:23:06Z</time></trkpt><trkpt lat="48.57302365083347" lon="-2.1230968600483333"><ele>37.0</ele><time>2026-04-05T12:23:08Z</time></trkpt><trkpt lat="48.57309126150187" lon="-2.1232207204221503"><ele>37.0</ele><time>2026-04-05T12:23:10Z</time></trkpt><trkpt lat="48.57315219225353" lon="-2.1233531110931905"><ele>37.0</ele><time>2026-04-05T12:23:12Z</time></trkpt><trkpt lat="48.573230065503125" lon="-2.1234967729108645"><ele>37.0</ele><time>2026-04-05T12:23:15Z</time></trkpt><trkpt lat="48.57327729279157" lon="-2.123590114308359"><ele>37.0</ele><time>2026-04-05T12:23:16Z</time></trkpt><trkpt lat="48.57334250741214" lon="-2.123680447770652"><ele>37.0</ele><time>2026-04-05T12:23:19Z</time></trkpt><trkpt lat="48.57339046153754" lon="-2.123785710626883"><ele>37.0</ele><time>2026-04-05T12:23:22Z</time></trkpt><trkpt lat="48.57335496573395" lon="-2.1239578152906162"><ele>37.0</ele><time>2026-04-05T12:23:23Z</time></trkpt><trkpt lat="48.57330351422522" lon="-2.1240355505483253"><ele>37.0</ele><time>2026-04-05T12:23:24Z</time></trkpt><trkpt lat="48.573222050189074" lon="-2.1241545286553496"><ele>37.0</ele><time>2026-04-05T12:23:26Z</time></trkpt><trkpt lat="48.573144840827595" lon="-2.1242672955232917"><ele>37.0</ele><time>2026-04-05T12:23:28Z</time></trkpt><trkpt lat="48.573056891888584" lon="-2.1243947727831336"><ele>37.4</ele><time>2026-04-05T12:23:30Z</time></trkpt><trkpt lat="48.572969446406574" lon="-2.124512554457671"><ele>37.800000000000004</ele><time>2026-04-05T12:23:32Z</time></trkpt><trkpt lat="48.57291337757462" lon="-2.1245794962870104"><ele>38.2</ele><time>2026-04-05T12:23:33Z</time></trkpt><trkpt lat="48.57282035337504" lon="-2.124708986221348"><ele>38.6</ele><time>2026-04-05T12:23:35Z</time></trkpt><trkpt lat="48.572768559944556" lon="-2.1247775646012936"><ele>39.0</ele><time>2026-04-05T12:23:36Z</time></trkpt><trkpt lat="48.57268926859657" lon="-2.1249092022956972"><ele>38.0</ele><time>2026-04-05T12:23:38Z</time></trkpt><trkpt lat="48.572637851015855" lon="-2.1249759857598045"><ele>37.0</ele><time>2026-04-05T12:23:39Z</time></trkpt><trkpt lat="48.572548531129314" lon="-2.125102773685968"><ele>36.0</ele><time>2026-04-05T12:23:41Z</time></trkpt><trkpt lat="48.57247109415721" lon="-2.1252390075219654"><ele>35.0</ele><time>2026-04-05T12:23:43Z</time></trkpt><trkpt lat="48.57237352918688" lon="-2.125362743487964"><ele>34.0</ele><time>2026-04-05T12:23:45Z</time></trkpt><trkpt lat="48.572290869977834" lon="-2.1254999251128393"><ele>34.0</ele><time>2026-04-05T12:23:47Z</time></trkpt><trkpt lat="48.5722347078304" lon="-2.125570340988625"><ele>34.0</ele><time>2026-04-05T12:23:48Z</time></trkpt><trkpt lat="48.57218525487154" lon="-2.1256506877039234"><ele>34.0</ele><time>2026-04-05T12:23:49Z</time></trkpt><trkpt lat="48.57214031967869" lon="-2.1257297650498415"><ele>34.0</ele><time>2026-04-05T12:23:50Z</time></trkpt><trkpt lat="48.57208575763346" lon="-2.1258048992704768"><ele>34.0</ele><time>2026-04-05T12:23:51Z</time></trkpt><trkpt lat="48.57202923792785" lon="-2.1258866238008953"><ele>34.0</ele><time>2026-04-05T12:23:52Z</time></trkpt><trkpt lat="48.57197527685563" lon="-2.1259877242075182"><ele>33.16666666666667</ele><time>2026-04-05T12:23:53Z</time></trkpt><trkpt lat="48.57191873862544" lon="-2.126086240393632"><ele>32.333333333333336</ele><time>2026-04-05T12:23:54Z</time></trkpt><trkpt lat="48.571865606182804" lon="-2.126189433238808"><ele>31.5</ele><time>2026-04-05T12:23:55Z</time></trkpt><trkpt lat="48.57179962828765" lon="-2.126291730615097"><ele>30.666666666666664</ele><time>2026-04-05T12:23:56Z</time></trkpt><trkpt lat="48.57175726662549" lon="-2.1263881871098356"><ele>29.833333333333332</ele><time>2026-04-05T12:23:57Z</time></trkpt><trkpt lat="48.571729322453606" lon="-2.1264736443732253"><ele>29.0</ele><time>2026-04-05T12:23:58Z</time></trkpt><trkpt lat="48.57167805910187" lon="-2.12657726078608"><ele>29.0</ele><time>2026-04-05T12:24:00Z</time></trkpt><trkpt lat="48.571519011137525" lon="-2.126495265369368"><ele>29.0</ele><time>2026-04-05T12:24:03Z</time></trkpt><trkpt lat="48.57146693992634" lon="-2.1264387568798755"><ele>29.0</ele><time>2026-04-05T12:24:04Z</time></trkpt><trkpt lat="48.571362897470635" lon="-2.126333700982375"><ele>29.0</ele><time>2026-04-05T12:24:06Z</time></trkpt><trkpt lat="48.57126219601476" lon="-2.1262556757191104"><ele>28.999999999999996</ele><time>2026-04-05T12:24:08Z</time></trkpt><trkpt lat="48.57120707636333" lon="-2.126187080166931"><ele>29.0</ele><time>2026-04-05T12:24:08.999Z</time></trkpt><trkpt lat="48.57115288931779" lon="-2.126134688534159"><ele>29.0</ele><time>2026-04-05T12:24:09.999Z</time></trkpt><trkpt lat="48.57109310185571" lon="-2.1260996212284433"><ele>29.0</ele><time>2026-04-05T12:24:10.999Z</time></trkpt><trkpt lat="48.57104669845325" lon="-2.126032545954167"><ele>28.999999999999996</ele><time>2026-04-05T12:24:11.999Z</time></trkpt><trkpt lat="48.57094358678395" lon="-2.1259366415276713"><ele>29.0</ele><time>2026-04-05T12:24:13.999Z</time></trkpt><trkpt lat="48.57084417048679" lon="-2.1258475697575285"><ele>28.4</ele><time>2026-04-05T12:24:15.999Z</time></trkpt><trkpt lat="48.570781510397104" lon="-2.125814039176179"><ele>27.799999999999997</ele><time>2026-04-05T12:24:16.999Z</time></trkpt><trkpt lat="48.570709740791536" lon="-2.1257377698670963"><ele>27.200000000000003</ele><time>2026-04-05T12:24:18.999Z</time></trkpt><trkpt lat="48.57064029683752" lon="-2.1259735110961233"><ele>26.6</ele><time>2026-04-05T12:24:21.999Z</time></trkpt><trkpt lat="48.570604056713876" lon="-2.1260617250749014"><ele>26.0</ele><time>2026-04-05T12:24:22.999Z</time></trkpt><trkpt lat="48.57059018157354" lon="-2.1261562123448776"><ele>25.999999999999996</ele><time>2026-04-05T12:24:23.999Z</time></trkpt><trkpt lat="48.57057461940531" lon="-2.1262562183098948"><ele>26.0</ele><time>2026-04-05T12:24:24.999Z</time></trkpt><trkpt lat="48.57053762370617" lon="-2.1263740166963356"><ele>26.0</ele><time>2026-04-05T12:24:25.999Z</time></trkpt><trkpt lat="48.57050195893959" lon="-2.1264966379038124"><ele>26.0</ele><time>2026-04-05T12:24:26.999Z</time></trkpt><trkpt lat="48.57047054824881" lon="-2.126604955878991"><ele>25.999999999999996</ele><time>2026-04-05T12:24:27.999Z</time></trkpt><trkpt lat="48.570447061877964" lon="-2.1267232045537066"><ele>26.0</ele><time>2026-04-05T12:24:28.999Z</time></trkpt><trkpt lat="48.570408535841686" lon="-2.1268212359970384"><ele>25.999999999999996</ele><time>2026-04-05T12:24:29.999Z</time></trkpt><trkpt lat="48.5703811374812" lon="-2.126928211967728"><ele>26.0</ele><time>2026-04-05T12:24:30.999Z</time></trkpt><trkpt lat="48.57034676784605" lon="-2.12701811965251"><ele>26.0</ele><time>2026-04-05T12:24:31.999Z</time></trkpt><trkpt lat="48.570323484510425" lon="-2.127110080933575"><ele>26.0</ele><time>2026-04-05T12:24:32.999Z</time></trkpt><trkpt lat="48.57027766593921" lon="-2.127270708171207"><ele>25.999999999999996</ele><time>2026-04-05T12:24:34.999Z</time></trkpt><trkpt lat="48.57023660756005" lon="-2.127418718480741"><ele>26.0</ele><time>2026-04-05T12:24:36.999Z</time></trkpt><trkpt lat="48.570203230724964" lon="-2.1275547408085886"><ele>25.999999999999996</ele><time>2026-04-05T12:24:38.999Z</time></trkpt><trkpt lat="48.570165678494625" lon="-2.127684580856366"><ele>26.0</ele><time>2026-04-05T12:24:40.999Z</time></trkpt><trkpt lat="48.570131394447635" lon="-2.1278035908585515"><ele>26.0</ele><time>2026-04-05T12:24:42.999Z</time></trkpt><trkpt lat="48.57009521248196" lon="-2.1279171658997798"><ele>26.0</ele><time>2026-04-05T12:24:44.999Z</time></trkpt><trkpt lat="48.570063822313564" lon="-2.128035372621496"><ele>25.999999999999996</ele><time>2026-04-05T12:24:47.999Z</time></trkpt><trkpt lat="48.57004687313167" lon="-2.128136541362238"><ele>26.0</ele><time>2026-04-05T12:24:49.999Z</time></trkpt><trkpt lat="48.570019500132766" lon="-2.128269831468179"><ele>26.166666666666664</ele><time>2026-04-05T12:24:50.999Z</time></trkpt><trkpt lat="48.56998563337805" lon="-2.1283740057035643"><ele>26.333333333333332</ele><time>2026-04-05T12:24:52.999Z</time></trkpt><trkpt lat="48.56995407916631" lon="-2.128479955777772"><ele>26.5</ele><time>2026-04-05T12:24:55Z</time></trkpt><trkpt lat="48.56992220845114" lon="-2.128586824942011"><ele>26.666666666666664</ele><time>2026-04-05T12:24:57Z</time></trkpt><trkpt lat="48.56988583874588" lon="-2.128703702097451"><ele>26.833333333333332</ele><time>2026-04-05T12:24:59Z</time></trkpt><trkpt lat="48.56985346227177" lon="-2.128819756118855"><ele>27.0</ele><time>2026-04-05T12:25:01Z</time></trkpt><trkpt lat="48.56982146561779" lon="-2.128928521978621"><ele>27.0</ele><time>2026-04-05T12:25:03Z</time></trkpt><trkpt lat="48.56980438356484" lon="-2.1290469875254368"><ele>27.0</ele><time>2026-04-05T12:25:05Z</time></trkpt><trkpt lat="48.56977583225749" lon="-2.1291564262406957"><ele>27.0</ele><time>2026-04-05T12:25:07Z</time></trkpt><trkpt lat="48.5697435188534" lon="-2.129275522196633"><ele>27.0</ele><time>2026-04-05T12:25:09Z</time></trkpt><trkpt lat="48.56970053646585" lon="-2.129413145479613"><ele>27.0</ele><time>2026-04-05T12:25:11Z</time></trkpt><trkpt lat="48.56967642433239" lon="-2.1295620683111447"><ele>27.0</ele><time>2026-04-05T12:25:14Z</time></trkpt><trkpt lat="48.56962594742363" lon="-2.129843414536323"><ele>26.857142857142858</ele><time>2026-04-05T12:25:16Z</time></trkpt><trkpt lat="48.56960685122385" lon="-2.1299411412626683"><ele>26.714285714285715</ele><time>2026-04-05T12:25:17Z</time></trkpt><trkpt lat="48.56958443723651" lon="-2.1300382066155996"><ele>26.57142857142857</ele><time>2026-04-05T12:25:18Z</time></trkpt><trkpt lat="48.56956022020584" lon="-2.130134332208502"><ele>26.42857142857143</ele><time>2026-04-05T12:25:19Z</time></trkpt><trkpt lat="48.56954011237323" lon="-2.13023857736935"><ele>26.28571428571429</ele><time>2026-04-05T12:25:20Z</time></trkpt><trkpt lat="48.56950955341462" lon="-2.130330032002855"><ele>26.142857142857142</ele><time>2026-04-05T12:25:21Z</time></trkpt><trkpt lat="48.56948102163234" lon="-2.1304161717347094"><ele>26.0</ele><time>2026-04-05T12:25:22Z</time></trkpt><trkpt lat="48.56944963140093" lon="-2.13051683834612"><ele>26.0</ele><time>2026-04-05T12:25:23Z</time></trkpt><trkpt lat="48.56942404951238" lon="-2.130613596384312"><ele>26.0</ele><time>2026-04-05T12:25:24Z</time></trkpt><trkpt lat="48.56939148246545" lon="-2.130708520828073"><ele>26.0</ele><time>2026-04-05T12:25:25Z</time></trkpt><trkpt lat="48.56936369505333" lon="-2.1307996060571286"><ele>26.0</ele><time>2026-04-05T12:25:26Z</time></trkpt><trkpt lat="48.56933137748746" lon="-2.130886133309769"><ele>26.0</ele><time>2026-04-05T12:25:27Z</time></trkpt><trkpt lat="48.56931426273813" lon="-2.1309807937966694"><ele>26.0</ele><time>2026-04-05T12:25:28Z</time></trkpt><trkpt lat="48.5692832382053" lon="-2.1310871830971907"><ele>26.0</ele><time>2026-04-05T12:25:30Z</time></trkpt><trkpt lat="48.56927402072504" lon="-2.131241503704171"><ele>25.833333333333332</ele><time>2026-04-05T12:25:33Z</time></trkpt><trkpt lat="48.56924385994931" lon="-2.1313621710427055"><ele>25.666666666666664</ele><time>2026-04-05T12:25:35Z</time></trkpt><trkpt lat="48.56921408916114" lon="-2.131484886608542"><ele>25.5</ele><time>2026-04-05T12:25:37Z</time></trkpt><trkpt lat="48.569195995060305" lon="-2.1316283391912334"><ele>25.333333333333336</ele><time>2026-04-05T12:25:39Z</time></trkpt><trkpt lat="48.56917231115441" lon="-2.1317635067377902"><ele>25.166666666666668</ele><time>2026-04-05T12:25:41Z</time></trkpt><trkpt lat="48.56915716455817" lon="-2.131894289218234"><ele>25.0</ele><time>2026-04-05T12:25:43Z</time></trkpt><trkpt lat="48.56914684565828" lon="-2.1320282333323"><ele>25.000000000000004</ele><time>2026-04-05T12:25:45Z</time></trkpt><trkpt lat="48.569125334208046" lon="-2.132151304986876"><ele>25.0</ele><time>2026-04-05T12:25:47Z</time></trkpt><trkpt lat="48.56911015534918" lon="-2.132289872179088"><ele>25.0</ele><time>2026-04-05T12:25:49Z</time></trkpt><trkpt lat="48.56909137204335" lon="-2.13241065330037"><ele>25.0</ele><time>2026-04-05T12:25:51Z</time></trkpt><trkpt lat="48.569079270940975" lon="-2.132512836299245"><ele>25.000000000000004</ele><time>2026-04-05T12:25:53Z</time></trkpt><trkpt lat="48.56906770465961" lon="-2.1326213038531816"><ele>25.0</ele><time>2026-04-05T12:25:55Z</time></trkpt><trkpt lat="48.56905026259429" lon="-2.132718865833506"><ele>25.000000000000004</ele><time>2026-04-05T12:25:57Z</time></trkpt><trkpt lat="48.56903949112439" lon="-2.1328217863730727"><ele>25.0</ele><time>2026-04-05T12:25:59Z</time></trkpt><trkpt lat="48.56903076156769" lon="-2.1329271546141073"><ele>25.0</ele><time>2026-04-05T12:26:01Z</time></trkpt><trkpt lat="48.569005333641456" lon="-2.13302855969537"><ele>25.0</ele><time>2026-04-05T12:26:03Z</time></trkpt><trkpt lat="48.56899032114166" lon="-2.1331291585907386"><ele>25.0</ele><time>2026-04-05T12:26:05Z</time></trkpt><trkpt lat="48.568971737703166" lon="-2.1332317152428613"><ele>25.000000000000004</ele><time>2026-04-05T12:26:07Z</time></trkpt><trkpt lat="48.56895402840556" lon="-2.133334553918229"><ele>25.0</ele><time>2026-04-05T12:26:09Z</time></trkpt><trkpt lat="48.56892869960958" lon="-2.133432784678563"><ele>25.333333333333336</ele><time>2026-04-05T12:26:11Z</time></trkpt><trkpt lat="48.56891808497334" lon="-2.133527553179021"><ele>25.666666666666668</ele><time>2026-04-05T12:26:13Z</time></trkpt><trkpt lat="48.56889011005397" lon="-2.1336423951545473"><ele>26.0</ele><time>2026-04-05T12:26:15Z</time></trkpt><trkpt lat="48.56886928564744" lon="-2.1337673781838777"><ele>26.333333333333336</ele><time>2026-04-05T12:26:17Z</time></trkpt><trkpt lat="48.56885188011332" lon="-2.1339077190149145"><ele>26.666666666666668</ele><time>2026-04-05T12:26:18.999Z</time></trkpt><trkpt lat="48.568837522023394" lon="-2.1340404888875746"><ele>27.0</ele><time>2026-04-05T12:26:20.999Z</time></trkpt><trkpt lat="48.56881586932973" lon="-2.1341709640086317"><ele>27.200000000000003</ele><time>2026-04-05T12:26:22.999Z</time></trkpt><trkpt lat="48.568793694037076" lon="-2.1342972416710344"><ele>27.400000000000002</ele><time>2026-04-05T12:26:24.999Z</time></trkpt><trkpt lat="48.568765396843105" lon="-2.1344376884887812"><ele>27.599999999999998</ele><time>2026-04-05T12:26:26.999Z</time></trkpt><trkpt lat="48.56873479076119" lon="-2.1345851593483745"><ele>27.799999999999997</ele><time>2026-04-05T12:26:28.999Z</time></trkpt><trkpt lat="48.56871464081123" lon="-2.1347446096554825"><ele>28.0</ele><time>2026-04-05T12:26:30.999Z</time></trkpt><trkpt lat="48.568677054468395" lon="-2.134950591692794"><ele>28.0</ele><time>2026-04-05T12:26:33.999Z</time></trkpt><trkpt lat="48.56863734529688" lon="-2.135087986915392"><ele>27.999999999999996</ele><time>2026-04-05T12:26:35.999Z</time></trkpt><trkpt lat="48.56860887791247" lon="-2.1351951597997356"><ele>27.999999999999996</ele><time>2026-04-05T12:26:36.999Z</time></trkpt><trkpt lat="48.5685822799116" lon="-2.135282690041439"><ele>28.0</ele><time>2026-04-05T12:26:37.999Z</time></trkpt><trkpt lat="48.56853178026781" lon="-2.1354380007321025"><ele>28.0</ele><time>2026-04-05T12:26:39.999Z</time></trkpt><trkpt lat="48.56848923787539" lon="-2.135601555601279"><ele>27.5</ele><time>2026-04-05T12:26:41.999Z</time></trkpt><trkpt lat="48.56844300819963" lon="-2.1357523884436707"><ele>27.0</ele><time>2026-04-05T12:26:43.999Z</time></trkpt><trkpt lat="48.56837796162782" lon="-2.135892194968432"><ele>26.5</ele><time>2026-04-05T12:26:45.999Z</time></trkpt><trkpt lat="48.56828440536143" lon="-2.135995935943477"><ele>26.0</ele><time>2026-04-05T12:26:47.999Z</time></trkpt><trkpt lat="48.568166877530004" lon="-2.1360458393194173"><ele>26.0</ele><time>2026-04-05T12:26:49.999Z</time></trkpt><trkpt lat="48.56806837851472" lon="-2.136116690885584"><ele>26.0</ele><time>2026-04-05T12:26:51.999Z</time></trkpt><trkpt lat="48.567987130239594" lon="-2.1362355311085506"><ele>26.0</ele><time>2026-04-05T12:26:53.999Z</time></trkpt><trkpt lat="48.56792245570212" lon="-2.1363856989738554"><ele>26.0</ele><time>2026-04-05T12:26:55.999Z</time></trkpt><trkpt lat="48.56790241210081" lon="-2.1364763275495813"><ele>26.0</ele><time>2026-04-05T12:26:56.999Z</time></trkpt><trkpt lat="48.56788047620428" lon="-2.136568650563249"><ele>26.0</ele><time>2026-04-05T12:26:57.999Z</time></trkpt><trkpt lat="48.56785957731594" lon="-2.13666224169192"><ele>26.0</ele><time>2026-04-05T12:26:58.999Z</time></trkpt><trkpt lat="48.567840284147415" lon="-2.1367553241552497"><ele>26.0</ele><time>2026-04-05T12:26:59.999Z</time></trkpt><trkpt lat="48.567823801286096" lon="-2.136851734748419"><ele>26.0</ele><time>2026-04-05T12:27:01Z</time></trkpt><trkpt lat="48.567811158789524" lon="-2.1369478866536116"><ele>26.0</ele><time>2026-04-05T12:27:02Z</time></trkpt><trkpt lat="48.56779901793521" lon="-2.137042167367321"><ele>26.0</ele><time>2026-04-05T12:27:03Z</time></trkpt><trkpt lat="48.56778792324483" lon="-2.1371437232015866"><ele>26.0</ele><time>2026-04-05T12:27:04Z</time></trkpt><trkpt lat="48.56777981278031" lon="-2.1372399481730557"><ele>25.999999999999996</ele><time>2026-04-05T12:27:05Z</time></trkpt><trkpt lat="48.567783790064716" lon="-2.1373353204204815"><ele>26.0</ele><time>2026-04-05T12:27:06Z</time></trkpt><trkpt lat="48.56778705441042" lon="-2.1375329516131"><ele>26.0</ele><time>2026-04-05T12:27:08Z</time></trkpt><trkpt lat="48.56778920826479" lon="-2.1376334458514163"><ele>26.0</ele><time>2026-04-05T12:27:09Z</time></trkpt><trkpt lat="48.56778897212905" lon="-2.1377332702390164"><ele>25.999999999999996</ele><time>2026-04-05T12:27:10Z</time></trkpt><trkpt lat="48.567808746115546" lon="-2.1378353104897356"><ele>26.0</ele><time>2026-04-05T12:27:11Z</time></trkpt><trkpt lat="48.56779555733145" lon="-2.137937033134645"><ele>25.833333333333332</ele><time>2026-04-05T12:27:12Z</time></trkpt><trkpt lat="48.56780369637924" lon="-2.1380387223277055"><ele>25.666666666666664</ele><time>2026-04-05T12:27:13Z</time></trkpt><trkpt lat="48.56780597582258" lon="-2.138139699656399"><ele>25.5</ele><time>2026-04-05T12:27:14Z</time></trkpt><trkpt lat="48.567805875869595" lon="-2.1382377290817405"><ele>25.333333333333336</ele><time>2026-04-05T12:27:15Z</time></trkpt><trkpt lat="48.56780867859762" lon="-2.1383339304151967"><ele>25.166666666666668</ele><time>2026-04-05T12:27:16Z</time></trkpt><trkpt lat="48.56782937983132" lon="-2.1385204881611735"><ele>25.0</ele><time>2026-04-05T12:27:18Z</time></trkpt><trkpt lat="48.567835853603874" lon="-2.1386157249837314"><ele>24.6</ele><time>2026-04-05T12:27:19Z</time></trkpt><trkpt lat="48.56784668062161" lon="-2.1387153958221203"><ele>24.2</ele><time>2026-04-05T12:27:20Z</time></trkpt><trkpt lat="48.56786320478159" lon="-2.1388073477510865"><ele>23.799999999999997</ele><time>2026-04-05T12:27:21Z</time></trkpt><trkpt lat="48.56781054048418" lon="-2.139053137009734"><ele>23.4</ele><time>2026-04-05T12:27:23Z</time></trkpt><trkpt lat="48.5677658758602" lon="-2.13913682664547"><ele>23.0</ele><time>2026-04-05T12:27:24Z</time></trkpt><trkpt lat="48.56773483698818" lon="-2.13932747117691"><ele>22.857142857142858</ele><time>2026-04-05T12:27:26Z</time></trkpt><trkpt lat="48.5677052791201" lon="-2.139515522867321"><ele>22.71428571428571</ele><time>2026-04-05T12:27:28Z</time></trkpt><trkpt lat="48.56769124829139" lon="-2.139610186977642"><ele>22.57142857142857</ele><time>2026-04-05T12:27:29Z</time></trkpt><trkpt lat="48.56767805718569" lon="-2.139704744221869"><ele>22.42857142857143</ele><time>2026-04-05T12:27:30Z</time></trkpt><trkpt lat="48.56766629318631" lon="-2.1397998940396765"><ele>22.285714285714285</ele><time>2026-04-05T12:27:31Z</time></trkpt><trkpt lat="48.56765438205087" lon="-2.139896230313348"><ele>22.142857142857142</ele><time>2026-04-05T12:27:32Z</time></trkpt><trkpt lat="48.56764970150113" lon="-2.1399922753882996"><ele>22.0</ele><time>2026-04-05T12:27:33Z</time></trkpt><trkpt lat="48.567644538406626" lon="-2.1400894496247225"><ele>22.0</ele><time>2026-04-05T12:27:34Z</time></trkpt><trkpt lat="48.56763929741574" lon="-2.1401880897134196"><ele>22.0</ele><time>2026-04-05T12:27:35Z</time></trkpt><trkpt lat="48.567633092383666" lon="-2.140292077640352"><ele>22.0</ele><time>2026-04-05T12:27:36Z</time></trkpt><trkpt lat="48.56761229362997" lon="-2.1403975867615457"><ele>22.0</ele><time>2026-04-05T12:27:37Z</time></trkpt><trkpt lat="48.56760927913016" lon="-2.14050736156336"><ele>22.0</ele><time>2026-04-05T12:27:38Z</time></trkpt><trkpt lat="48.567602098676964" lon="-2.1406170259048976"><ele>22.0</ele><time>2026-04-05T12:27:39Z</time></trkpt><trkpt lat="48.567594218990386" lon="-2.1407260988487034"><ele>22.0</ele><time>2026-04-05T12:27:40Z</time></trkpt><trkpt lat="48.56758732925567" lon="-2.14084099450935"><ele>21.333333333333332</ele><time>2026-04-05T12:27:41Z</time></trkpt><trkpt lat="48.567573194893704" lon="-2.140954784225388"><ele>20.666666666666664</ele><time>2026-04-05T12:27:42Z</time></trkpt><trkpt lat="48.56756452423057" lon="-2.1410722327756893"><ele>20.0</ele><time>2026-04-05T12:27:43Z</time></trkpt><trkpt lat="48.56755287983813" lon="-2.1411939316442807"><ele>19.333333333333332</ele><time>2026-04-05T12:27:44Z</time></trkpt><trkpt lat="48.5675444157011" lon="-2.141314127920877"><ele>18.666666666666668</ele><time>2026-04-05T12:27:45Z</time></trkpt><trkpt lat="48.5675312172784" lon="-2.141436490455539"><ele>18.0</ele><time>2026-04-05T12:27:46Z</time></trkpt><trkpt lat="48.567511488495086" lon="-2.141559805837771"><ele>17.5</ele><time>2026-04-05T12:27:47Z</time></trkpt><trkpt lat="48.56749617064563" lon="-2.1416793899623685"><ele>17.0</ele><time>2026-04-05T12:27:48Z</time></trkpt><trkpt lat="48.56747087325162" lon="-2.1418028916179312"><ele>16.5</ele><time>2026-04-05T12:27:49Z</time></trkpt><trkpt lat="48.56744667271185" lon="-2.141920024377984"><ele>16.0</ele><time>2026-04-05T12:27:50Z</time></trkpt><trkpt lat="48.56743339473958" lon="-2.142033119012992"><ele>15.5</ele><time>2026-04-05T12:27:51Z</time></trkpt><trkpt lat="48.56741553797002" lon="-2.142143736366697"><ele>15.0</ele><time>2026-04-05T12:27:52Z</time></trkpt><trkpt lat="48.567431342685495" lon="-2.14225137641842"><ele>14.833333333333334</ele><time>2026-04-05T12:27:53Z</time></trkpt><trkpt lat="48.56752057614279" lon="-2.1424148209649854"><ele>14.666666666666668</ele><time>2026-04-05T12:27:55Z</time></trkpt><trkpt lat="48.56757435268421" lon="-2.1424768108922723"><ele>14.5</ele><time>2026-04-05T12:27:56Z</time></trkpt><trkpt lat="48.567633135743" lon="-2.142540903053559"><ele>14.333333333333334</ele><time>2026-04-05T12:27:57Z</time></trkpt><trkpt lat="48.567692425586976" lon="-2.142604832162661"><ele>14.166666666666668</ele><time>2026-04-05T12:27:58Z</time></trkpt><trkpt lat="48.56775346847017" lon="-2.142672283503454"><ele>14.0</ele><time>2026-04-05T12:27:59Z</time></trkpt><trkpt lat="48.567801865881705" lon="-2.1427543156559916"><ele>14.000000000000002</ele><time>2026-04-05T12:28:00Z</time></trkpt><trkpt lat="48.56785768333943" lon="-2.1428287596923212"><ele>14.0</ele><time>2026-04-05T12:28:01Z</time></trkpt><trkpt lat="48.567922425094864" lon="-2.142879880765516"><ele>14.0</ele><time>2026-04-05T12:28:02Z</time></trkpt><trkpt lat="48.567980158009476" lon="-2.1429582842660917"><ele>14.0</ele><time>2026-04-05T12:28:03Z</time></trkpt><trkpt lat="48.568032706625445" lon="-2.14303061219779"><ele>14.000000000000002</ele><time>2026-04-05T12:28:04Z</time></trkpt><trkpt lat="48.568087054276255" lon="-2.1431078486917072"><ele>14.0</ele><time>2026-04-05T12:28:05Z</time></trkpt><trkpt lat="48.568142387350456" lon="-2.1431945756499773"><ele>13.571428571428571</ele><time>2026-04-05T12:28:06Z</time></trkpt><trkpt lat="48.5681923663309" lon="-2.143280389333996"><ele>13.142857142857142</ele><time>2026-04-05T12:28:07Z</time></trkpt><trkpt lat="48.568229810740974" lon="-2.143381515477214"><ele>12.714285714285715</ele><time>2026-04-05T12:28:08Z</time></trkpt><trkpt lat="48.56827483555675" lon="-2.1434657356645834"><ele>12.285714285714285</ele><time>2026-04-05T12:28:09Z</time></trkpt><trkpt lat="48.56831262866312" lon="-2.143546991100952"><ele>11.857142857142858</ele><time>2026-04-05T12:28:10Z</time></trkpt><trkpt lat="48.56834396803116" lon="-2.1436369338427443"><ele>11.428571428571429</ele><time>2026-04-05T12:28:11Z</time></trkpt><trkpt lat="48.568385222579764" lon="-2.143723662188448"><ele>11.0</ele><time>2026-04-05T12:28:12Z</time></trkpt><trkpt lat="48.56841208475462" lon="-2.143826909707751"><ele>11.0</ele><time>2026-04-05T12:28:13Z</time></trkpt><trkpt lat="48.56843331408959" lon="-2.14392795073465"><ele>11.0</ele><time>2026-04-05T12:28:14Z</time></trkpt><trkpt lat="48.56845085324549" lon="-2.144028798262097"><ele>11.0</ele><time>2026-04-05T12:28:15Z</time></trkpt><trkpt lat="48.5684674316568" lon="-2.144140033304639"><ele>11.0</ele><time>2026-04-05T12:28:16Z</time></trkpt><trkpt lat="48.568481724194505" lon="-2.1442481381363634"><ele>11.0</ele><time>2026-04-05T12:28:17Z</time></trkpt><trkpt lat="48.56849346227524" lon="-2.144358684454267"><ele>11.0</ele><time>2026-04-05T12:28:18Z</time></trkpt><trkpt lat="48.568504817562435" lon="-2.1444701162635083"><ele>11.0</ele><time>2026-04-05T12:28:19Z</time></trkpt><trkpt lat="48.568515372788156" lon="-2.144580928856143"><ele>10.833333333333332</ele><time>2026-04-05T12:28:20Z</time></trkpt><trkpt lat="48.568525930881506" lon="-2.144697686149987"><ele>10.666666666666666</ele><time>2026-04-05T12:28:21Z</time></trkpt><trkpt lat="48.568535859954636" lon="-2.144807486224775"><ele>10.5</ele><time>2026-04-05T12:28:22Z</time></trkpt><trkpt lat="48.5685462045329" lon="-2.1449218815675093"><ele>10.333333333333334</ele><time>2026-04-05T12:28:23Z</time></trkpt><trkpt lat="48.56855663522038" lon="-2.1450372291769337"><ele>10.166666666666668</ele><time>2026-04-05T12:28:23.999Z</time></trkpt><trkpt lat="48.568566734284644" lon="-2.145148909284096"><ele>10.0</ele><time>2026-04-05T12:28:24.999Z</time></trkpt><trkpt lat="48.56857647632056" lon="-2.145256641644455"><ele>9.857142857142858</ele><time>2026-04-05T12:28:25.999Z</time></trkpt><trkpt lat="48.56858733759881" lon="-2.1453627486041125"><ele>9.714285714285715</ele><time>2026-04-05T12:28:26.999Z</time></trkpt><trkpt lat="48.56859902939397" lon="-2.1454668932021024"><ele>9.571428571428573</ele><time>2026-04-05T12:28:27.999Z</time></trkpt><trkpt lat="48.56861300005356" lon="-2.1455712743141593"><ele>9.428571428571429</ele><time>2026-04-05T12:28:28.999Z</time></trkpt><trkpt lat="48.56863111429983" lon="-2.1456676371695265"><ele>9.285714285714286</ele><time>2026-04-05T12:28:29.999Z</time></trkpt><trkpt lat="48.56865081489034" lon="-2.145761809999155"><ele>9.142857142857144</ele><time>2026-04-05T12:28:30.999Z</time></trkpt><trkpt lat="48.56867480446385" lon="-2.145859429907314"><ele>9.0</ele><time>2026-04-05T12:28:31.999Z</time></trkpt><trkpt lat="48.568687575177194" lon="-2.1459660053960015"><ele>8.833333333333334</ele><time>2026-04-05T12:28:32.999Z</time></trkpt><trkpt lat="48.56871800777207" lon="-2.146058365963336"><ele>8.666666666666666</ele><time>2026-04-05T12:28:33.999Z</time></trkpt><trkpt lat="48.568742029832386" lon="-2.1461507706373713"><ele>8.5</ele><time>2026-04-05T12:28:34.999Z</time></trkpt><trkpt lat="48.56876091485181" lon="-2.146245881674929"><ele>8.333333333333332</ele><time>2026-04-05T12:28:35.999Z</time></trkpt><trkpt lat="48.56881130971248" lon="-2.1464201665874154"><ele>8.166666666666666</ele><time>2026-04-05T12:28:37.999Z</time></trkpt><trkpt lat="48.56882713812724" lon="-2.146515408648978"><ele>8.0</ele><time>2026-04-05T12:28:38.999Z</time></trkpt><trkpt lat="48.56884131504193" lon="-2.1466996182447735"><ele>7.999999999999999</ele><time>2026-04-05T12:28:40.999Z</time></trkpt><trkpt lat="48.56887287297376" lon="-2.1467852041853774"><ele>8.0</ele><time>2026-04-05T12:28:41.999Z</time></trkpt><trkpt lat="48.568888799581224" lon="-2.1468779830407905"><ele>8.0</ele><time>2026-04-05T12:28:42.999Z</time></trkpt><trkpt lat="48.56892039754559" lon="-2.147059667571438"><ele>8.0</ele><time>2026-04-05T12:28:44.999Z</time></trkpt><trkpt lat="48.56893932323199" lon="-2.147235813700595"><ele>7.999999999999999</ele><time>2026-04-05T12:28:46.999Z</time></trkpt><trkpt lat="48.5689580801224" lon="-2.1473283668336136"><ele>8.0</ele><time>2026-04-05T12:28:47.999Z</time></trkpt><trkpt lat="48.5690145423958" lon="-2.1474951613827367"><ele>8.0</ele><time>2026-04-05T12:28:49.999Z</time></trkpt><trkpt lat="48.56905446737895" lon="-2.1476635768046766"><ele>8.0</ele><time>2026-04-05T12:28:51.999Z</time></trkpt><trkpt lat="48.569074835729666" lon="-2.147754505970857"><ele>8.0</ele><time>2026-04-05T12:28:52.999Z</time></trkpt><trkpt lat="48.56909478685012" lon="-2.147846335123546"><ele>8.0</ele><time>2026-04-05T12:28:53.999Z</time></trkpt><trkpt lat="48.56913212669409" lon="-2.148023918773175"><ele>8.0</ele><time>2026-04-05T12:28:55.999Z</time></trkpt><trkpt lat="48.56916238457881" lon="-2.148185171715985"><ele>7.800000000000001</ele><time>2026-04-05T12:28:57.999Z</time></trkpt><trkpt lat="48.56917766342584" lon="-2.1482788347210655"><ele>7.6000000000000005</ele><time>2026-04-05T12:28:58.999Z</time></trkpt><trkpt lat="48.56919679219265" lon="-2.1484570276065975"><ele>7.3999999999999995</ele><time>2026-04-05T12:29:00.999Z</time></trkpt><trkpt lat="48.56923099965809" lon="-2.148625602953352"><ele>7.199999999999999</ele><time>2026-04-05T12:29:02.999Z</time></trkpt><trkpt lat="48.56924462522688" lon="-2.14879472906713"><ele>7.0</ele><time>2026-04-05T12:29:04.999Z</time></trkpt><trkpt lat="48.56926415131379" lon="-2.148960946091663"><ele>7.0</ele><time>2026-04-05T12:29:07Z</time></trkpt><trkpt lat="48.56928411324178" lon="-2.1491201906811375"><ele>6.999999999999999</ele><time>2026-04-05T12:29:09Z</time></trkpt><trkpt lat="48.569306793078546" lon="-2.1492807227865702"><ele>6.999999999999999</ele><time>2026-04-05T12:29:11Z</time></trkpt><trkpt lat="48.56932505291216" lon="-2.149442213923754"><ele>7.0</ele><time>2026-04-05T12:29:13Z</time></trkpt><trkpt lat="48.5693515553527" lon="-2.149605330291941"><ele>7.0</ele><time>2026-04-05T12:29:15Z</time></trkpt><trkpt lat="48.569377294179716" lon="-2.149763906398904"><ele>7.0</ele><time>2026-04-05T12:29:17Z</time></trkpt><trkpt lat="48.569418252486685" lon="-2.1499219535952796"><ele>6.999999999999999</ele><time>2026-04-05T12:29:19Z</time></trkpt><trkpt lat="48.56946813328734" lon="-2.1500605643127044"><ele>6.999999999999999</ele><time>2026-04-05T12:29:21Z</time></trkpt><trkpt lat="48.5695322219139" lon="-2.150180545199891"><ele>7.0</ele><time>2026-04-05T12:29:23Z</time></trkpt><trkpt lat="48.569615954183156" lon="-2.1502873912705076"><ele>7.0</ele><time>2026-04-05T12:29:25Z</time></trkpt><trkpt lat="48.56966899900761" lon="-2.1503452409447825"><ele>7.25</ele><time>2026-04-05T12:29:28Z</time></trkpt><trkpt lat="48.569856720577455" lon="-2.1505909462435624"><ele>7.5</ele><time>2026-04-05T12:29:31Z</time></trkpt><trkpt lat="48.56993140785139" lon="-2.150684708215165"><ele>7.75</ele><time>2026-04-05T12:29:33Z</time></trkpt><trkpt lat="48.5700117933882" lon="-2.1507684769251973"><ele>8.0</ele><time>2026-04-05T12:29:35Z</time></trkpt><trkpt lat="48.57009029654511" lon="-2.150849603041383"><ele>8.0</ele><time>2026-04-05T12:29:37Z</time></trkpt><trkpt lat="48.57017757597839" lon="-2.150946154507878"><ele>8.0</ele><time>2026-04-05T12:29:39Z</time></trkpt><trkpt lat="48.57026097443622" lon="-2.151022658105639"><ele>8.0</ele><time>2026-04-05T12:29:41Z</time></trkpt><trkpt lat="48.57034204493224" lon="-2.151101080915632"><ele>8.0</ele><time>2026-04-05T12:29:43Z</time></trkpt><trkpt lat="48.57042655569264" lon="-2.151178427714179"><ele>8.0</ele><time>2026-04-05T12:29:45Z</time></trkpt><trkpt lat="48.57051869910001" lon="-2.151257788028693"><ele>8.0</ele><time>2026-04-05T12:29:47Z</time></trkpt><trkpt lat="48.57058989830052" lon="-2.1513275124971623"><ele>8.0</ele><time>2026-04-05T12:29:49Z</time></trkpt><trkpt lat="48.57068689819497" lon="-2.1514027846167485"><ele>8.0</ele><time>2026-04-05T12:29:51Z</time></trkpt><trkpt lat="48.57078047564892" lon="-2.151480254442556"><ele>8.0</ele><time>2026-04-05T12:29:53Z</time></trkpt><trkpt lat="48.57086751900421" lon="-2.151557464252067"><ele>8.0</ele><time>2026-04-05T12:29:55Z</time></trkpt><trkpt lat="48.570954862052204" lon="-2.1516490109252535"><ele>8.0</ele><time>2026-04-05T12:29:58Z</time></trkpt><trkpt lat="48.571050275936145" lon="-2.151717955182084"><ele>8.0</ele><time>2026-04-05T12:30:01Z</time></trkpt><trkpt lat="48.571128635678214" lon="-2.1517946824560443"><ele>8.0</ele><time>2026-04-05T12:30:02Z</time></trkpt><trkpt lat="48.57119044690403" lon="-2.1518584933009985"><ele>8.0</ele><time>2026-04-05T12:30:03Z</time></trkpt><trkpt lat="48.5712851594013" lon="-2.151977542629195"><ele>8.0</ele><time>2026-04-05T12:30:05Z</time></trkpt><trkpt lat="48.571380876651936" lon="-2.1520856650429336"><ele>8.0</ele><time>2026-04-05T12:30:07Z</time></trkpt><trkpt lat="48.571478407250424" lon="-2.152191398920256"><ele>8.0</ele><time>2026-04-05T12:30:09Z</time></trkpt><trkpt lat="48.57156884813395" lon="-2.152310142919028"><ele>8.0</ele><time>2026-04-05T12:30:11Z</time></trkpt><trkpt lat="48.5716501985182" lon="-2.1524363713377626"><ele>8.0</ele><time>2026-04-05T12:30:13Z</time></trkpt><trkpt lat="48.5717291022377" lon="-2.1525661499957143"><ele>8.0</ele><time>2026-04-05T12:30:15Z</time></trkpt><trkpt lat="48.57179662773617" lon="-2.152709148088077"><ele>8.0</ele><time>2026-04-05T12:30:17Z</time></trkpt><trkpt lat="48.571865919882335" lon="-2.152855725916232"><ele>8.0</ele><time>2026-04-05T12:30:19Z</time></trkpt><trkpt lat="48.57193011274201" lon="-2.1530048469090692"><ele>8.0</ele><time>2026-04-05T12:30:21Z</time></trkpt><trkpt lat="48.57199075986223" lon="-2.153151895045849"><ele>8.200000000000001</ele><time>2026-04-05T12:30:23Z</time></trkpt><trkpt lat="48.57204022887355" lon="-2.153307403512494"><ele>8.4</ele><time>2026-04-05T12:30:25Z</time></trkpt><trkpt lat="48.5720772468814" lon="-2.153471369561272"><ele>8.600000000000001</ele><time>2026-04-05T12:30:27Z</time></trkpt><trkpt lat="48.572109850905974" lon="-2.1536269614826575"><ele>8.8</ele><time>2026-04-05T12:30:28.999Z</time></trkpt><trkpt lat="48.572137603321245" lon="-2.1537769463852916"><ele>9.0</ele><time>2026-04-05T12:30:30.999Z</time></trkpt><trkpt lat="48.57216288571722" lon="-2.1539048033452377"><ele>9.0</ele><time>2026-04-05T12:30:32.999Z</time></trkpt><trkpt lat="48.572198673024765" lon="-2.15404122679759"><ele>9.0</ele><time>2026-04-05T12:30:34.999Z</time></trkpt><trkpt lat="48.572271417368924" lon="-2.154144588789219"><ele>9.0</ele><time>2026-04-05T12:30:36.999Z</time></trkpt><trkpt lat="48.57236518118406" lon="-2.154195375348854"><ele>9.0</ele><time>2026-04-05T12:30:38.999Z</time></trkpt><trkpt lat="48.57246322365889" lon="-2.1541946206119937"><ele>9.0</ele><time>2026-04-05T12:30:40.999Z</time></trkpt><trkpt lat="48.57255441131338" lon="-2.154190291120027"><ele>9.0</ele><time>2026-04-05T12:30:42.999Z</time></trkpt><trkpt lat="48.57265021268624" lon="-2.15418685742132"><ele>9.0</ele><time>2026-04-05T12:30:44.999Z</time></trkpt><trkpt lat="48.57274056056502" lon="-2.154175920913632"><ele>9.0</ele><time>2026-04-05T12:30:46.999Z</time></trkpt><trkpt lat="48.57283710252857" lon="-2.1541652812370575"><ele>9.0</ele><time>2026-04-05T12:30:48.999Z</time></trkpt><trkpt lat="48.57292742801835" lon="-2.154163581332276"><ele>9.0</ele><time>2026-04-05T12:30:51.999Z</time></trkpt><trkpt lat="48.57299931432085" lon="-2.1541495193050357"><ele>9.0</ele><time>2026-04-05T12:30:53.999Z</time></trkpt><trkpt lat="48.57308013858574" lon="-2.1541466303499925"><ele>9.4</ele><time>2026-04-05T12:30:55.999Z</time></trkpt><trkpt lat="48.57317861757511" lon="-2.1541301212952195"><ele>9.8</ele><time>2026-04-05T12:30:58.999Z</time></trkpt><trkpt lat="48.57329497382661" lon="-2.1541455896391297"><ele>10.200000000000001</ele><time>2026-04-05T12:31:00.999Z</time></trkpt><trkpt lat="48.57335314194832" lon="-2.154231545660775"><ele>10.600000000000001</ele><time>2026-04-05T12:31:03.999Z</time></trkpt><trkpt lat="48.573373531343385" lon="-2.1543682496853345"><ele>11.0</ele><time>2026-04-05T12:31:05.999Z</time></trkpt><trkpt lat="48.57340901888538" lon="-2.154642782254448"><ele>11.0</ele><time>2026-04-05T12:31:08.999Z</time></trkpt><trkpt lat="48.57336231880213" lon="-2.154788893026588"><ele>11.0</ele><time>2026-04-05T12:31:10.999Z</time></trkpt><trkpt lat="48.573320581761244" lon="-2.154934714325359"><ele>11.0</ele><time>2026-04-05T12:31:13Z</time></trkpt><trkpt lat="48.573287857444164" lon="-2.1550853527330287"><ele>11.0</ele><time>2026-04-05T12:31:15Z</time></trkpt><trkpt lat="48.5732465617709" lon="-2.1552423272293195"><ele>11.0</ele><time>2026-04-05T12:31:17Z</time></trkpt><trkpt lat="48.573202785868936" lon="-2.1554007525851078"><ele>10.8</ele><time>2026-04-05T12:31:19Z</time></trkpt><trkpt lat="48.57318669910405" lon="-2.155571261353898"><ele>10.600000000000001</ele><time>2026-04-05T12:31:21Z</time></trkpt><trkpt lat="48.57317874033804" lon="-2.1557228922582397"><ele>10.4</ele><time>2026-04-05T12:31:23Z</time></trkpt><trkpt lat="48.57316892145023" lon="-2.15589023925337"><ele>10.2</ele><time>2026-04-05T12:31:25Z</time></trkpt><trkpt lat="48.57316251853706" lon="-2.1560719896621987"><ele>10.0</ele><time>2026-04-05T12:31:27Z</time></trkpt><trkpt lat="48.57313755673392" lon="-2.156253431656164"><ele>9.8</ele><time>2026-04-05T12:31:29Z</time></trkpt><trkpt lat="48.57313100822377" lon="-2.1563496769851294"><ele>9.6</ele><time>2026-04-05T12:31:30Z</time></trkpt><trkpt lat="48.573121482920065" lon="-2.15644388649449"><ele>9.4</ele><time>2026-04-05T12:31:31Z</time></trkpt><trkpt lat="48.573117062391994" lon="-2.1566310060263434"><ele>9.2</ele><time>2026-04-05T12:31:33Z</time></trkpt><trkpt lat="48.573129254353134" lon="-2.156815436887095"><ele>9.0</ele><time>2026-04-05T12:31:35Z</time></trkpt><trkpt lat="48.57313894876417" lon="-2.156992787638343"><ele>9.0</ele><time>2026-04-05T12:31:37Z</time></trkpt><trkpt lat="48.57315696551548" lon="-2.1571628027587337"><ele>9.0</ele><time>2026-04-05T12:31:39Z</time></trkpt><trkpt lat="48.57317098403021" lon="-2.1573288903316303"><ele>9.0</ele><time>2026-04-05T12:31:41Z</time></trkpt><trkpt lat="48.57318140356281" lon="-2.1574952824179423"><ele>9.0</ele><time>2026-04-05T12:31:43Z</time></trkpt><trkpt lat="48.57319771419482" lon="-2.1576533807628118"><ele>9.0</ele><time>2026-04-05T12:31:45Z</time></trkpt><trkpt lat="48.573214475272884" lon="-2.1578125528728687"><ele>9.0</ele><time>2026-04-05T12:31:47Z</time></trkpt><trkpt lat="48.5732292245789" lon="-2.157954083170094"><ele>9.0</ele><time>2026-04-05T12:31:49Z</time></trkpt><trkpt lat="48.57324671401368" lon="-2.1581042782962694"><ele>9.0</ele><time>2026-04-05T12:31:51Z</time></trkpt><trkpt lat="48.573271527230396" lon="-2.158257197537592"><ele>9.0</ele><time>2026-04-05T12:31:53Z</time></trkpt><trkpt lat="48.57328728382486" lon="-2.1583913784602573"><ele>9.0</ele><time>2026-04-05T12:31:56Z</time></trkpt><trkpt lat="48.573303854316464" lon="-2.15850794880822"><ele>9.2</ele><time>2026-04-05T12:31:58Z</time></trkpt><trkpt lat="48.57332462877282" lon="-2.158637794551109"><ele>9.4</ele><time>2026-04-05T12:32:01Z</time></trkpt><trkpt lat="48.57334153122786" lon="-2.1587652934624133"><ele>9.6</ele><time>2026-04-05T12:32:02Z</time></trkpt><trkpt lat="48.57325051699677" lon="-2.1588464961194984"><ele>9.8</ele><time>2026-04-05T12:32:04Z</time></trkpt><trkpt lat="48.573168329865" lon="-2.15893199498162"><ele>10.0</ele><time>2026-04-05T12:32:06Z</time></trkpt><trkpt lat="48.57309230016554" lon="-2.1590392105970397"><ele>10.2</ele><time>2026-04-05T12:32:08Z</time></trkpt><trkpt lat="48.57299613811317" lon="-2.159088760799149"><ele>10.4</ele><time>2026-04-05T12:32:10Z</time></trkpt><trkpt lat="48.57292698705223" lon="-2.159175896680535"><ele>10.600000000000001</ele><time>2026-04-05T12:32:12Z</time></trkpt><trkpt lat="48.572853236282675" lon="-2.159262324774418"><ele>10.8</ele><time>2026-04-05T12:32:14Z</time></trkpt><trkpt lat="48.57277918808911" lon="-2.1593495358689507"><ele>11.0</ele><time>2026-04-05T12:32:16Z</time></trkpt><trkpt lat="48.572691566422755" lon="-2.1594271376620595"><ele>10.4</ele><time>2026-04-05T12:32:18Z</time></trkpt><trkpt lat="48.572592025474734" lon="-2.159492357713074"><ele>9.8</ele><time>2026-04-05T12:32:20Z</time></trkpt><trkpt lat="48.57249117617394" lon="-2.1595810741624977"><ele>9.200000000000001</ele><time>2026-04-05T12:32:22Z</time></trkpt><trkpt lat="48.57240755584201" lon="-2.159682211442989"><ele>8.600000000000001</ele><time>2026-04-05T12:32:24Z</time></trkpt><trkpt lat="48.57233822649357" lon="-2.1598017133484673"><ele>8.0</ele><time>2026-04-05T12:32:26Z</time></trkpt><trkpt lat="48.57225605153235" lon="-2.1599143853048792"><ele>8.0</ele><time>2026-04-05T12:32:28Z</time></trkpt><trkpt lat="48.57220584111624" lon="-2.1599771017420846"><ele>8.0</ele><time>2026-04-05T12:32:29Z</time></trkpt><trkpt lat="48.572109773966574" lon="-2.1600813568317987"><ele>8.0</ele><time>2026-04-05T12:32:31Z</time></trkpt><trkpt lat="48.57199967525586" lon="-2.1601599376330816"><ele>8.0</ele><time>2026-04-05T12:32:33Z</time></trkpt><trkpt lat="48.57188233861957" lon="-2.1602206154148544"><ele>8.0</ele><time>2026-04-05T12:32:35Z</time></trkpt><trkpt lat="48.57176610120304" lon="-2.160281432212135"><ele>7.800000000000001</ele><time>2026-04-05T12:32:36.999Z</time></trkpt><trkpt lat="48.571714601927965" lon="-2.1603412270246762"><ele>7.6000000000000005</ele><time>2026-04-05T12:32:37.999Z</time></trkpt><trkpt lat="48.571601904129665" lon="-2.160398348377505"><ele>7.3999999999999995</ele><time>2026-04-05T12:32:39.999Z</time></trkpt><trkpt lat="48.57149524053198" lon="-2.160493904821325"><ele>7.199999999999999</ele><time>2026-04-05T12:32:41.999Z</time></trkpt><trkpt lat="48.57144217541406" lon="-2.1605480559834622"><ele>7.0</ele><time>2026-04-05T12:32:42.999Z</time></trkpt><trkpt lat="48.57133863315611" lon="-2.1606387484706326"><ele>6.75</ele><time>2026-04-05T12:32:44.999Z</time></trkpt><trkpt lat="48.571228538309335" lon="-2.160737833795436"><ele>6.5</ele><time>2026-04-05T12:32:46.999Z</time></trkpt><trkpt lat="48.57112214893042" lon="-2.160830357738049"><ele>6.25</ele><time>2026-04-05T12:32:48.999Z</time></trkpt><trkpt lat="48.57101687328996" lon="-2.160915199839157"><ele>6.0</ele><time>2026-04-05T12:32:50.999Z</time></trkpt><trkpt lat="48.570913050159454" lon="-2.1610032436561983"><ele>6.0</ele><time>2026-04-05T12:32:52.999Z</time></trkpt><trkpt lat="48.57080706906957" lon="-2.1610932977939448"><ele>6.0</ele><time>2026-04-05T12:32:54.999Z</time></trkpt><trkpt lat="48.57070727013633" lon="-2.1611956207576335"><ele>6.0</ele><time>2026-04-05T12:32:56.999Z</time></trkpt><trkpt lat="48.57060085068369" lon="-2.161282413388565"><ele>6.0</ele><time>2026-04-05T12:32:58.999Z</time></trkpt><trkpt lat="48.57054192634924" lon="-2.1613272238926506"><ele>6.0</ele><time>2026-04-05T12:32:59.999Z</time></trkpt><trkpt lat="48.570485536489144" lon="-2.1613738887422436"><ele>6.0</ele><time>2026-04-05T12:33:00.999Z</time></trkpt><trkpt lat="48.57036918739732" lon="-2.1614494245865083"><ele>6.0</ele><time>2026-04-05T12:33:02.999Z</time></trkpt><trkpt lat="48.570306110296414" lon="-2.161479070060231"><ele>6.0</ele><time>2026-04-05T12:33:03.999Z</time></trkpt><trkpt lat="48.57018900951846" lon="-2.161518839204701"><ele>6.0</ele><time>2026-04-05T12:33:05.999Z</time></trkpt><trkpt lat="48.57006654532038" lon="-2.161563442946775"><ele>6.0</ele><time>2026-04-05T12:33:07.999Z</time></trkpt><trkpt lat="48.56994643815379" lon="-2.1616176747337676"><ele>5.6</ele><time>2026-04-05T12:33:09.999Z</time></trkpt><trkpt lat="48.56988142671428" lon="-2.1616388778571456"><ele>5.199999999999999</ele><time>2026-04-05T12:33:10.999Z</time></trkpt><trkpt lat="48.56976530461777" lon="-2.1616922682549538"><ele>4.800000000000001</ele><time>2026-04-05T12:33:12.999Z</time></trkpt><trkpt lat="48.569649896942614" lon="-2.1617469951143296"><ele>4.4</ele><time>2026-04-05T12:33:14.999Z</time></trkpt><trkpt lat="48.56953389285615" lon="-2.161801786100389"><ele>4.0</ele><time>2026-04-05T12:33:16.999Z</time></trkpt><trkpt lat="48.56941245068668" lon="-2.1618538685132687"><ele>3.75</ele><time>2026-04-05T12:33:19Z</time></trkpt><trkpt lat="48.56929493097211" lon="-2.161906454690005"><ele>3.5</ele><time>2026-04-05T12:33:21Z</time></trkpt><trkpt lat="48.56918145581559" lon="-2.161960631794855"><ele>3.25</ele><time>2026-04-05T12:33:23Z</time></trkpt><trkpt lat="48.56906379833313" lon="-2.1620177591587852"><ele>3.0</ele><time>2026-04-05T12:33:25Z</time></trkpt><trkpt lat="48.568948188414645" lon="-2.162068191321451"><ele>3.0</ele><time>2026-04-05T12:33:27Z</time></trkpt><trkpt lat="48.5688311086221" lon="-2.1621243319908436"><ele>3.0</ele><time>2026-04-05T12:33:29Z</time></trkpt><trkpt lat="48.56872270838464" lon="-2.1621930140396444"><ele>3.0</ele><time>2026-04-05T12:33:31Z</time></trkpt><trkpt lat="48.568666320058405" lon="-2.1622405078045595"><ele>3.0</ele><time>2026-04-05T12:33:32Z</time></trkpt><trkpt lat="48.56856825578912" lon="-2.162341758637996"><ele>3.0</ele><time>2026-04-05T12:33:34Z</time></trkpt><trkpt lat="48.56851772274757" lon="-2.1623990642952555"><ele>3.2</ele><time>2026-04-05T12:33:35Z</time></trkpt><trkpt lat="48.568442267228214" lon="-2.16253068099182"><ele>3.4</ele><time>2026-04-05T12:33:37Z</time></trkpt><trkpt lat="48.56841517077086" lon="-2.1626177163358142"><ele>3.6000000000000005</ele><time>2026-04-05T12:33:38Z</time></trkpt><trkpt lat="48.56835487398899" lon="-2.1627623804270693"><ele>3.8000000000000003</ele><time>2026-04-05T12:33:40Z</time></trkpt><trkpt lat="48.56831080401903" lon="-2.162926790233471"><ele>4.0</ele><time>2026-04-05T12:33:42Z</time></trkpt><trkpt lat="48.56826757240113" lon="-2.1630844747733495"><ele>4.0</ele><time>2026-04-05T12:33:44Z</time></trkpt><trkpt lat="48.56822779717841" lon="-2.163244524659266"><ele>4.0</ele><time>2026-04-05T12:33:46Z</time></trkpt><trkpt lat="48.5681897722203" lon="-2.163405593163245"><ele>4.0</ele><time>2026-04-05T12:33:48Z</time></trkpt><trkpt lat="48.568155405405044" lon="-2.16356530407225"><ele>4.0</ele><time>2026-04-05T12:33:50Z</time></trkpt><trkpt lat="48.568114388814855" lon="-2.1637358819623125"><ele>4.0</ele><time>2026-04-05T12:33:52Z</time></trkpt><trkpt lat="48.5680752482848" lon="-2.163909470758015"><ele>4.0</ele><time>2026-04-05T12:33:54Z</time></trkpt><trkpt lat="48.56806768267282" lon="-2.164004002807721"><ele>4.0</ele><time>2026-04-05T12:33:55Z</time></trkpt><trkpt lat="48.568005150037735" lon="-2.1641614224437697"><ele>4.0</ele><time>2026-04-05T12:33:57Z</time></trkpt><trkpt lat="48.567934664175816" lon="-2.1643093976843617"><ele>4.0</ele><time>2026-04-05T12:33:59Z</time></trkpt><trkpt lat="48.567888492057016" lon="-2.1643817552538787"><ele>3.5</ele><time>2026-04-05T12:34:00Z</time></trkpt><trkpt lat="48.56780822491816" lon="-2.164507230238077"><ele>3.0</ele><time>2026-04-05T12:34:02Z</time></trkpt><trkpt lat="48.56774402325136" lon="-2.164660674810983"><ele>2.5</ele><time>2026-04-05T12:34:04Z</time></trkpt><trkpt lat="48.56768565820707" lon="-2.164809499697876"><ele>2.0</ele><time>2026-04-05T12:34:06Z</time></trkpt><trkpt lat="48.567629710837736" lon="-2.1649708375756"><ele>2.0</ele><time>2026-04-05T12:34:08Z</time></trkpt><trkpt lat="48.56760506034438" lon="-2.1650591939261448"><ele>2.0</ele><time>2026-04-05T12:34:09Z</time></trkpt><trkpt lat="48.567555605186016" lon="-2.165223979042634"><ele>2.0</ele><time>2026-04-05T12:34:11Z</time></trkpt><trkpt lat="48.56749701516185" lon="-2.1653689204798243"><ele>2.0</ele><time>2026-04-05T12:34:13Z</time></trkpt><trkpt lat="48.567407128555544" lon="-2.1654755509806853"><ele>2.0</ele><time>2026-04-05T12:34:15Z</time></trkpt><trkpt lat="48.567307429277136" lon="-2.165536857339671"><ele>2.0</ele><time>2026-04-05T12:34:17Z</time></trkpt><trkpt lat="48.567208513511936" lon="-2.165571968509872"><ele>2.0</ele><time>2026-04-05T12:34:19Z</time></trkpt><trkpt lat="48.56714289502025" lon="-2.1656433502179624"><ele>2.0</ele><time>2026-04-05T12:34:21Z</time></trkpt><trkpt lat="48.56722637965099" lon="-2.1657562153097527"><ele>2.0</ele><time>2026-04-05T12:34:24Z</time></trkpt><trkpt lat="48.56730570431024" lon="-2.1658490694219696"><ele>2.0</ele><time>2026-04-05T12:34:26Z</time></trkpt><trkpt lat="48.56739598586232" lon="-2.1659300049615595"><ele>2.2</ele><time>2026-04-05T12:34:28Z</time></trkpt><trkpt lat="48.56748437343204" lon="-2.166004145109869"><ele>2.4000000000000004</ele><time>2026-04-05T12:34:30Z</time></trkpt><trkpt lat="48.567580188744685" lon="-2.1660903082195166"><ele>2.5999999999999996</ele><time>2026-04-05T12:34:32Z</time></trkpt><trkpt lat="48.56768060169334" lon="-2.1661737344208865"><ele>2.8</ele><time>2026-04-05T12:34:34Z</time></trkpt><trkpt lat="48.56778229370026" lon="-2.1662676632311726"><ele>3.0</ele><time>2026-04-05T12:34:35.999Z</time></trkpt><trkpt lat="48.56787965146375" lon="-2.1663531446901043"><ele>3.2</ele><time>2026-04-05T12:34:37.999Z</time></trkpt><trkpt lat="48.56797946640631" lon="-2.1664422003597363"><ele>3.4</ele><time>2026-04-05T12:34:39.999Z</time></trkpt><trkpt lat="48.56807748051028" lon="-2.1665166969548464"><ele>3.6000000000000005</ele><time>2026-04-05T12:34:41.999Z</time></trkpt><trkpt lat="48.56817473233041" lon="-2.166604147181778"><ele>3.8000000000000003</ele><time>2026-04-05T12:34:43.999Z</time></trkpt><trkpt lat="48.56827034126606" lon="-2.1666863721092193"><ele>4.0</ele><time>2026-04-05T12:34:45.999Z</time></trkpt><trkpt lat="48.56836892647711" lon="-2.1667765454936516"><ele>4.0</ele><time>2026-04-05T12:34:47.999Z</time></trkpt><trkpt lat="48.56846613173474" lon="-2.166853623858644"><ele>4.0</ele><time>2026-04-05T12:34:49.999Z</time></trkpt><trkpt lat="48.56856384801849" lon="-2.1669326627242365"><ele>4.0</ele><time>2026-04-05T12:34:51.999Z</time></trkpt><trkpt lat="48.5686624441182" lon="-2.1670158871449297"><ele>4.0</ele><time>2026-04-05T12:34:53.999Z</time></trkpt><trkpt lat="48.56875630519946" lon="-2.1670941106752486"><ele>4.0</ele><time>2026-04-05T12:34:55.999Z</time></trkpt><trkpt lat="48.56885335035633" lon="-2.1671788792013493"><ele>4.0</ele><time>2026-04-05T12:34:57.999Z</time></trkpt><trkpt lat="48.56894630054498" lon="-2.167262888515627"><ele>4.0</ele><time>2026-04-05T12:34:59.999Z</time></trkpt><trkpt lat="48.569043055114825" lon="-2.1673439954278795"><ele>4.0</ele><time>2026-04-05T12:35:01.999Z</time></trkpt><trkpt lat="48.56913941289831" lon="-2.1674280021052272"><ele>4.0</ele><time>2026-04-05T12:35:03.999Z</time></trkpt><trkpt lat="48.569232759658505" lon="-2.1675164919710044"><ele>4.0</ele><time>2026-04-05T12:35:05.999Z</time></trkpt><trkpt lat="48.56932752995861" lon="-2.1676046794730857"><ele>4.2</ele><time>2026-04-05T12:35:07.999Z</time></trkpt><trkpt lat="48.569411393308954" lon="-2.167686519370012"><ele>4.4</ele><time>2026-04-05T12:35:09.999Z</time></trkpt><trkpt lat="48.56949394750762" lon="-2.1678101507301264"><ele>4.6</ele><time>2026-04-05T12:35:11.999Z</time></trkpt><trkpt lat="48.56955409981937" lon="-2.16790864144239"><ele>4.8</ele><time>2026-04-05T12:35:14.999Z</time></trkpt><trkpt lat="48.56960343091687" lon="-2.1680037497021774"><ele>5.0</ele><time>2026-04-05T12:35:17.999Z</time></trkpt><trkpt lat="48.56965048056546" lon="-2.1681013285238313"><ele>5.0</ele><time>2026-04-05T12:35:19.999Z</time></trkpt><trkpt lat="48.56962104763878" lon="-2.168232994338183"><ele>5.0</ele><time>2026-04-05T12:35:21.999Z</time></trkpt><trkpt lat="48.56965661272055" lon="-2.1683509281536257"><ele>5.0</ele><time>2026-04-05T12:35:23.999Z</time></trkpt><trkpt lat="48.569661681866656" lon="-2.168473146717491"><ele>5.0</ele><time>2026-04-05T12:35:26Z</time></trkpt><trkpt lat="48.569860585338134" lon="-2.169063671617133"><ele>5.2</ele><time>2026-04-05T12:35:29Z</time></trkpt><trkpt lat="48.569869352549496" lon="-2.1692217725248035"><ele>5.4</ele><time>2026-04-05T12:35:31Z</time></trkpt><trkpt lat="48.56984353246611" lon="-2.169433008986218"><ele>5.6</ele><time>2026-04-05T12:35:35Z</time></trkpt><trkpt lat="48.56984280349417" lon="-2.1695525204493777"><ele>5.8</ele><time>2026-04-05T12:35:36Z</time></trkpt><trkpt lat="48.569840488322" lon="-2.1696597066703767"><ele>6.0</ele><time>2026-04-05T12:35:37Z</time></trkpt><trkpt lat="48.5698383271969" lon="-2.1697630737383693"><ele>5.833333333333333</ele><time>2026-04-05T12:35:38Z</time></trkpt><trkpt lat="48.56983680371064" lon="-2.1698597076644566"><ele>5.666666666666667</ele><time>2026-04-05T12:35:39Z</time></trkpt><trkpt lat="48.569835568003064" lon="-2.169959159244662"><ele>5.5</ele><time>2026-04-05T12:35:40Z</time></trkpt><trkpt lat="48.569833537312135" lon="-2.1701423005765585"><ele>5.333333333333334</ele><time>2026-04-05T12:35:42Z</time></trkpt><trkpt lat="48.56983239063967" lon="-2.1702520146308744"><ele>5.166666666666667</ele><time>2026-04-05T12:35:43Z</time></trkpt><trkpt lat="48.56983042184906" lon="-2.1704403893732396"><ele>5.0</ele><time>2026-04-05T12:35:45Z</time></trkpt><trkpt lat="48.56981415440347" lon="-2.1705339914636057"><ele>4.75</ele><time>2026-04-05T12:35:46Z</time></trkpt><trkpt lat="48.56981140378408" lon="-2.170720865329237"><ele>4.5</ele><time>2026-04-05T12:35:48Z</time></trkpt><trkpt lat="48.569811940943055" lon="-2.170891633420481"><ele>4.25</ele><time>2026-04-05T12:35:50Z</time></trkpt><trkpt lat="48.56982464298817" lon="-2.171049688950656"><ele>4.0</ele><time>2026-04-05T12:35:52Z</time></trkpt><trkpt lat="48.56980852130984" lon="-2.1712311636960444"><ele>4.0</ele><time>2026-04-05T12:35:54Z</time></trkpt><trkpt lat="48.56980780554461" lon="-2.1714120817500886"><ele>4.0</ele><time>2026-04-05T12:35:56Z</time></trkpt><trkpt lat="48.569816176291475" lon="-2.1716009062304686"><ele>4.0</ele><time>2026-04-05T12:35:58Z</time></trkpt><trkpt lat="48.56980998911818" lon="-2.171785466874818"><ele>4.0</ele><time>2026-04-05T12:36:00Z</time></trkpt><trkpt lat="48.56980833240523" lon="-2.171958943934004"><ele>4.25</ele><time>2026-04-05T12:36:02Z</time></trkpt><trkpt lat="48.56980904644609" lon="-2.1721334193902515"><ele>4.5</ele><time>2026-04-05T12:36:04Z</time></trkpt><trkpt lat="48.56981461834045" lon="-2.1723080128268264"><ele>4.75</ele><time>2026-04-05T12:36:06Z</time></trkpt><trkpt lat="48.56980986909028" lon="-2.1724796148350136"><ele>5.0</ele><time>2026-04-05T12:36:08Z</time></trkpt><trkpt lat="48.569806107079515" lon="-2.1726429253791086"><ele>5.5</ele><time>2026-04-05T12:36:10Z</time></trkpt><trkpt lat="48.5698103976296" lon="-2.1728113173928794"><ele>6.0</ele><time>2026-04-05T12:36:12Z</time></trkpt><trkpt lat="48.56980188183059" lon="-2.172965898978107"><ele>6.5</ele><time>2026-04-05T12:36:14Z</time></trkpt><trkpt lat="48.56979806306767" lon="-2.1730665286569906"><ele>7.0</ele><time>2026-04-05T12:36:16Z</time></trkpt><trkpt lat="48.569817176275855" lon="-2.1733484497747515"><ele>7.0</ele><time>2026-04-05T12:36:19Z</time></trkpt><trkpt lat="48.56982298265852" lon="-2.1734822756398904"><ele>6.999999999999999</ele><time>2026-04-05T12:36:21Z</time></trkpt><trkpt lat="48.56982969072268" lon="-2.1736336772936586"><ele>6.999999999999999</ele><time>2026-04-05T12:36:23Z</time></trkpt><trkpt lat="48.56986208944557" lon="-2.1737730865154257"><ele>7.0</ele><time>2026-04-05T12:36:25Z</time></trkpt><trkpt lat="48.569906248975045" lon="-2.1738967952347132"><ele>7.0</ele><time>2026-04-05T12:36:27Z</time></trkpt><trkpt lat="48.56996292798864" lon="-2.1740099543273566"><ele>7.6</ele><time>2026-04-05T12:36:29Z</time></trkpt><trkpt lat="48.57004155071184" lon="-2.174096938020127"><ele>8.2</ele><time>2026-04-05T12:36:31Z</time></trkpt><trkpt lat="48.570128844529556" lon="-2.1741605077028976"><ele>8.8</ele><time>2026-04-05T12:36:33Z</time></trkpt><trkpt lat="48.570224426441406" lon="-2.174212805891902"><ele>9.4</ele><time>2026-04-05T12:36:35Z</time></trkpt><trkpt lat="48.570312996886884" lon="-2.174261640670581"><ele>10.0</ele><time>2026-04-05T12:36:36.999Z</time></trkpt><trkpt lat="48.57038273582858" lon="-2.1743053932308465"><ele>10.25</ele><time>2026-04-05T12:36:38.999Z</time></trkpt><trkpt lat="48.57045296673328" lon="-2.1743127501088044"><ele>10.5</ele><time>2026-04-05T12:36:41.999Z</time></trkpt><trkpt lat="48.570543935062766" lon="-2.174344271644882"><ele>10.75</ele><time>2026-04-05T12:36:44.999Z</time></trkpt><trkpt lat="48.57061723103739" lon="-2.174375389156253"><ele>11.0</ele><time>2026-04-05T12:36:46.999Z</time></trkpt><trkpt lat="48.57086968292668" lon="-2.1744867239508117"><ele>11.0</ele><time>2026-04-05T12:36:48.999Z</time></trkpt><trkpt lat="48.57096000408857" lon="-2.1745113571436594"><ele>11.0</ele><time>2026-04-05T12:36:50.999Z</time></trkpt><trkpt lat="48.571039722031905" lon="-2.174540883849765"><ele>11.0</ele><time>2026-04-05T12:36:52.999Z</time></trkpt><trkpt lat="48.57112297351812" lon="-2.174596356334179"><ele>11.0</ele><time>2026-04-05T12:36:54.999Z</time></trkpt><trkpt lat="48.571207346932304" lon="-2.174636636800271"><ele>11.0</ele><time>2026-04-05T12:36:56.999Z</time></trkpt><trkpt lat="48.57129770167238" lon="-2.174672135836592"><ele>11.0</ele><time>2026-04-05T12:36:58.999Z</time></trkpt><trkpt lat="48.571380530283726" lon="-2.17470680830145"><ele>11.333333333333332</ele><time>2026-04-05T12:37:00.999Z</time></trkpt><trkpt lat="48.57146452448529" lon="-2.174734782907634"><ele>11.666666666666666</ele><time>2026-04-05T12:37:02.999Z</time></trkpt><trkpt lat="48.57154938995966" lon="-2.174772329395243"><ele>12.0</ele><time>2026-04-05T12:37:04.999Z</time></trkpt><trkpt lat="48.571634368032406" lon="-2.1748086588581876"><ele>12.333333333333332</ele><time>2026-04-05T12:37:06.999Z</time></trkpt><trkpt lat="48.57169816198104" lon="-2.174834659494347"><ele>12.666666666666666</ele><time>2026-04-05T12:37:08.999Z</time></trkpt><trkpt lat="48.57176820726018" lon="-2.174871677484155"><ele>13.0</ele><time>2026-04-05T12:37:11.999Z</time></trkpt><trkpt lat="48.57183658955933" lon="-2.1748987010380896"><ele>13.333333333333332</ele><time>2026-04-05T12:37:13.999Z</time></trkpt><trkpt lat="48.571922444943915" lon="-2.1749311671375597"><ele>13.666666666666666</ele><time>2026-04-05T12:37:16.999Z</time></trkpt><trkpt lat="48.57199316166892" lon="-2.174975835606078"><ele>14.0</ele><time>2026-04-05T12:37:19.999Z</time></trkpt><trkpt lat="48.57206300123477" lon="-2.175001090047719"><ele>14.333333333333332</ele><time>2026-04-05T12:37:21.999Z</time></trkpt><trkpt lat="48.572143031069935" lon="-2.1750186020199385"><ele>14.666666666666666</ele><time>2026-04-05T12:37:23.999Z</time></trkpt><trkpt lat="48.57220985543133" lon="-2.1750496607083365"><ele>15.0</ele><time>2026-04-05T12:37:25.999Z</time></trkpt><trkpt lat="48.5722735415435" lon="-2.175083414530366"><ele>15.0</ele><time>2026-04-05T12:37:27.999Z</time></trkpt><trkpt lat="48.57235435440763" lon="-2.1751091555979265"><ele>15.0</ele><time>2026-04-05T12:37:29.999Z</time></trkpt><trkpt lat="48.57244634892903" lon="-2.1751637374249615"><ele>15.0</ele><time>2026-04-05T12:37:33Z</time></trkpt><trkpt lat="48.572518831995296" lon="-2.175197477814438"><ele>15.0</ele><time>2026-04-05T12:37:35Z</time></trkpt><trkpt lat="48.572608225561325" lon="-2.1752372366846204"><ele>15.0</ele><time>2026-04-05T12:37:39Z</time></trkpt><trkpt lat="48.57264629881074" lon="-2.175352465238232"><ele>15.0</ele><time>2026-04-05T12:37:42Z</time></trkpt><trkpt lat="48.57266857949815" lon="-2.175449514443826"><ele>15.0</ele><time>2026-04-05T12:37:45Z</time></trkpt><trkpt lat="48.57267776451341" lon="-2.175561823389542"><ele>15.0</ele><time>2026-04-05T12:37:48Z</time></trkpt><trkpt lat="48.5726951038472" lon="-2.175665459629331"><ele>15.0</ele><time>2026-04-05T12:37:50Z</time></trkpt><trkpt lat="48.57270656446569" lon="-2.1757652794880187"><ele>15.0</ele><time>2026-04-05T12:37:53Z</time></trkpt><trkpt lat="48.572735906305404" lon="-2.1758704507544917"><ele>15.0</ele><time>2026-04-05T12:37:55Z</time></trkpt><trkpt lat="48.57274875938862" lon="-2.1760051629436274"><ele>15.0</ele><time>2026-04-05T12:37:59Z</time></trkpt><trkpt lat="48.572752209571995" lon="-2.1761222442554637"><ele>16.142857142857142</ele><time>2026-04-05T12:38:03Z</time></trkpt><trkpt lat="48.57273634225278" lon="-2.1762175677992066"><ele>17.285714285714285</ele><time>2026-04-05T12:38:06Z</time></trkpt><trkpt lat="48.57272593788933" lon="-2.1763298634298374"><ele>18.42857142857143</ele><time>2026-04-05T12:38:09Z</time></trkpt><trkpt lat="48.57271220055394" lon="-2.17644676098363"><ele>19.57142857142857</ele><time>2026-04-05T12:38:11Z</time></trkpt><trkpt lat="48.572676515836584" lon="-2.17654569093274"><ele>20.71428571428571</ele><time>2026-04-05T12:38:14Z</time></trkpt><trkpt lat="48.57266483234869" lon="-2.176640320201814"><ele>21.857142857142858</ele><time>2026-04-05T12:38:15Z</time></trkpt><trkpt lat="48.57265581083924" lon="-2.176739870159077"><ele>23.0</ele><time>2026-04-05T12:38:17Z</time></trkpt><trkpt lat="48.57262249987484" lon="-2.176855589228814"><ele>23.714285714285715</ele><time>2026-04-05T12:38:20Z</time></trkpt><trkpt lat="48.57260270898605" lon="-2.176955735116155"><ele>24.428571428571427</ele><time>2026-04-05T12:38:22Z</time></trkpt><trkpt lat="48.572593082600335" lon="-2.1770576019867125"><ele>25.142857142857142</ele><time>2026-04-05T12:38:24Z</time></trkpt><trkpt lat="48.57262359629426" lon="-2.1771427144369153"><ele>25.857142857142858</ele><time>2026-04-05T12:38:26Z</time></trkpt><trkpt lat="48.5725672260287" lon="-2.1772567544547163"><ele>26.57142857142857</ele><time>2026-04-05T12:38:28Z</time></trkpt><trkpt lat="48.57259755438401" lon="-2.1773492457513988"><ele>27.285714285714285</ele><time>2026-04-05T12:38:30Z</time></trkpt><trkpt lat="48.572590127502345" lon="-2.177465480041669"><ele>28.0</ele><time>2026-04-05T12:38:32Z</time></trkpt><trkpt lat="48.57255152826723" lon="-2.177561984843407"><ele>28.166666666666668</ele><time>2026-04-05T12:38:34Z</time></trkpt><trkpt lat="48.57251099219089" lon="-2.1776535117819105"><ele>28.333333333333336</ele><time>2026-04-05T12:38:36Z</time></trkpt><trkpt lat="48.57245111378591" lon="-2.1777180316647753"><ele>28.5</ele><time>2026-04-05T12:38:38Z</time></trkpt><trkpt lat="48.572398930322414" lon="-2.177802741924937"><ele>28.666666666666664</ele><time>2026-04-05T12:38:40Z</time></trkpt><trkpt lat="48.57235014508821" lon="-2.1778893924414437"><ele>28.833333333333332</ele><time>2026-04-05T12:38:42Z</time></trkpt><trkpt lat="48.57229577785103" lon="-2.1779651537539886"><ele>29.0</ele><time>2026-04-05T12:38:44Z</time></trkpt><trkpt lat="48.57224582829868" lon="-2.178057586875954"><ele>28.999999999999996</ele><time>2026-04-05T12:38:46Z</time></trkpt><trkpt lat="48.572199093221464" lon="-2.178154961935075"><ele>29.0</ele><time>2026-04-05T12:38:47.999Z</time></trkpt><trkpt lat="48.572129745609374" lon="-2.178245373542181"><ele>29.0</ele><time>2026-04-05T12:38:49.999Z</time></trkpt><trkpt lat="48.57207568364574" lon="-2.178326926294127"><ele>29.0</ele><time>2026-04-05T12:38:51.999Z</time></trkpt><trkpt lat="48.57212321973455" lon="-2.1784334570219768"><ele>28.999999999999996</ele><time>2026-04-05T12:38:55.999Z</time></trkpt><trkpt lat="48.57218784325212" lon="-2.1784762222118337"><ele>29.0</ele><time>2026-04-05T12:39:00.999Z</time></trkpt><trkpt lat="48.572148974335036" lon="-2.1785635318399854"><ele>28.833333333333332</ele><time>2026-04-05T12:39:03.999Z</time></trkpt><trkpt lat="48.57212195873994" lon="-2.178682607890135"><ele>28.666666666666664</ele><time>2026-04-05T12:39:05.999Z</time></trkpt><trkpt lat="48.572088870688106" lon="-2.1787904218728014"><ele>28.5</ele><time>2026-04-05T12:39:07.999Z</time></trkpt><trkpt lat="48.57205410192365" lon="-2.1789035299800332"><ele>28.333333333333336</ele><time>2026-04-05T12:39:09.999Z</time></trkpt><trkpt lat="48.572033813905904" lon="-2.1790275406396726"><ele>28.166666666666668</ele><time>2026-04-05T12:39:11.999Z</time></trkpt><trkpt lat="48.57200672577074" lon="-2.179147479362306"><ele>28.0</ele><time>2026-04-05T12:39:13.999Z</time></trkpt><trkpt lat="48.571985358544886" lon="-2.1792630660010843"><ele>28.799999999999997</ele><time>2026-04-05T12:39:15.999Z</time></trkpt><trkpt lat="48.57194903252519" lon="-2.179378350210103"><ele>29.599999999999998</ele><time>2026-04-05T12:39:17.999Z</time></trkpt><trkpt lat="48.57192464473023" lon="-2.1795001646104946"><ele>30.400000000000002</ele><time>2026-04-05T12:39:19.999Z</time></trkpt><trkpt lat="48.571903144573795" lon="-2.179634674709328"><ele>31.200000000000003</ele><time>2026-04-05T12:39:21.999Z</time></trkpt><trkpt lat="48.5718710839736" lon="-2.179779429679055"><ele>32.0</ele><time>2026-04-05T12:39:23.999Z</time></trkpt><trkpt lat="48.571859089562345" lon="-2.179928592687365"><ele>32.0</ele><time>2026-04-05T12:39:25.999Z</time></trkpt><trkpt lat="48.5718352436373" lon="-2.1800847086417803"><ele>32.0</ele><time>2026-04-05T12:39:27.999Z</time></trkpt><trkpt lat="48.57181279668673" lon="-2.1802260783950884"><ele>32.0</ele><time>2026-04-05T12:39:29.999Z</time></trkpt><trkpt lat="48.57177987526792" lon="-2.1804162892407444"><ele>32.0</ele><time>2026-04-05T12:39:31.999Z</time></trkpt><trkpt lat="48.571720716503556" lon="-2.1805663121776617"><ele>32.0</ele><time>2026-04-05T12:39:33.999Z</time></trkpt><trkpt lat="48.57164795211227" lon="-2.18070366483802"><ele>31.833333333333332</ele><time>2026-04-05T12:39:35.999Z</time></trkpt><trkpt lat="48.57158170877577" lon="-2.1808320452403356"><ele>31.666666666666664</ele><time>2026-04-05T12:39:38Z</time></trkpt><trkpt lat="48.571518829057695" lon="-2.180943266140187"><ele>31.5</ele><time>2026-04-05T12:39:40Z</time></trkpt><trkpt lat="48.57149255603176" lon="-2.181070461661237"><ele>31.333333333333336</ele><time>2026-04-05T12:39:42Z</time></trkpt><trkpt lat="48.57145649924467" lon="-2.18115616511135"><ele>31.166666666666668</ele><time>2026-04-05T12:39:44Z</time></trkpt><trkpt lat="48.571433865092914" lon="-2.1812476134873813"><ele>31.0</ele><time>2026-04-05T12:39:46Z</time></trkpt><trkpt lat="48.57143451881553" lon="-2.1813966881642917"><ele>31.0</ele><time>2026-04-05T12:39:48Z</time></trkpt><trkpt lat="48.57143059285379" lon="-2.1814962632558212"><ele>31.000000000000004</ele><time>2026-04-05T12:39:50Z</time></trkpt><trkpt lat="48.571411463879194" lon="-2.1815936020385625"><ele>31.0</ele><time>2026-04-05T12:39:52Z</time></trkpt><trkpt lat="48.57139018359787" lon="-2.1816994349508905"><ele>31.0</ele><time>2026-04-05T12:39:56Z</time></trkpt><trkpt lat="48.57137328718784" lon="-2.1818324886096483"><ele>31.000000000000004</ele><time>2026-04-05T12:40:00Z</time></trkpt><trkpt lat="48.5713545013253" lon="-2.1819406260937866"><ele>31.0</ele><time>2026-04-05T12:40:02Z</time></trkpt><trkpt lat="48.571343294282805" lon="-2.18205409982211"><ele>31.0</ele><time>2026-04-05T12:40:04Z</time></trkpt><trkpt lat="48.57134273275769" lon="-2.182163155334823"><ele>31.0</ele><time>2026-04-05T12:40:07Z</time></trkpt><trkpt lat="48.5713478187341" lon="-2.1822697527772865"><ele>31.000000000000004</ele><time>2026-04-05T12:40:10Z</time></trkpt><trkpt lat="48.571371876089025" lon="-2.182371438253853"><ele>31.0</ele><time>2026-04-05T12:40:14Z</time></trkpt><trkpt lat="48.571430324786675" lon="-2.182418291029324"><ele>31.0</ele><time>2026-04-05T12:40:17Z</time></trkpt><trkpt lat="48.57145739236681" lon="-2.1825318646609886"><ele>31.000000000000004</ele><time>2026-04-05T12:40:20Z</time></trkpt><trkpt lat="48.57148077673116" lon="-2.1826572629656242"><ele>31.0</ele><time>2026-04-05T12:40:23Z</time></trkpt><trkpt lat="48.57153417823195" lon="-2.182726803234726"><ele>31.0</ele><time>2026-04-05T12:40:26Z</time></trkpt><trkpt lat="48.571593670220736" lon="-2.182762812492742"><ele>31.166666666666668</ele><time>2026-04-05T12:40:28Z</time></trkpt><trkpt lat="48.571668023797166" lon="-2.182817048655769"><ele>31.333333333333336</ele><time>2026-04-05T12:40:31Z</time></trkpt><trkpt lat="48.571737601252266" lon="-2.18293910118653"><ele>31.5</ele><time>2026-04-05T12:40:40Z</time></trkpt><trkpt lat="48.57174373532017" lon="-2.1830784511182872"><ele>31.666666666666664</ele><time>2026-04-05T12:41:14.999Z</time></trkpt><trkpt lat="48.57173631909193" lon="-2.183194839272663"><ele>31.833333333333332</ele><time>2026-04-05T12:41:16.999Z</time></trkpt><trkpt lat="48.57171184209574" lon="-2.1833241291906513"><ele>32.0</ele><time>2026-04-05T12:41:18.999Z</time></trkpt><trkpt lat="48.571688204237525" lon="-2.183436889505461"><ele>32.166666666666664</ele><time>2026-04-05T12:41:20.999Z</time></trkpt><trkpt lat="48.57167173249885" lon="-2.183593227486006"><ele>32.33333333333333</ele><time>2026-04-05T12:41:23.999Z</time></trkpt><trkpt lat="48.57166050537117" lon="-2.183712373272223"><ele>32.5</ele><time>2026-04-05T12:41:25.999Z</time></trkpt><trkpt lat="48.57166550631295" lon="-2.183831879362136"><ele>32.666666666666664</ele><time>2026-04-05T12:41:27.999Z</time></trkpt><trkpt lat="48.57164413418577" lon="-2.183952368425627"><ele>32.833333333333336</ele><time>2026-04-05T12:41:29.999Z</time></trkpt><trkpt lat="48.57162551002964" lon="-2.184072310350521"><ele>33.0</ele><time>2026-04-05T12:41:31.999Z</time></trkpt><trkpt lat="48.57160641959696" lon="-2.1842091438816964"><ele>33.0</ele><time>2026-04-05T12:41:33.999Z</time></trkpt><trkpt lat="48.57158207527891" lon="-2.1843443824742"><ele>33.0</ele><time>2026-04-05T12:41:35.999Z</time></trkpt><trkpt lat="48.571555027797864" lon="-2.1844622803581015"><ele>33.0</ele><time>2026-04-05T12:41:37.999Z</time></trkpt><trkpt lat="48.57153011553775" lon="-2.1845564241378215"><ele>33.0</ele><time>2026-04-05T12:41:38.999Z</time></trkpt><trkpt lat="48.57150823396297" lon="-2.184687553695284"><ele>33.0</ele><time>2026-04-05T12:41:40.999Z</time></trkpt><trkpt lat="48.57150634622029" lon="-2.1847933312167775"><ele>33.0</ele><time>2026-04-05T12:41:43Z</time></trkpt><trkpt lat="48.57147428840428" lon="-2.1848931653559496"><ele>33.166666666666664</ele><time>2026-04-05T12:41:46Z</time></trkpt><trkpt lat="48.571450389237235" lon="-2.18500726228306"><ele>33.333333333333336</ele><time>2026-04-05T12:41:48Z</time></trkpt><trkpt lat="48.57143513679128" lon="-2.185125672550021"><ele>33.5</ele><time>2026-04-05T12:41:50Z</time></trkpt><trkpt lat="48.57141841036422" lon="-2.1852383642866604"><ele>33.66666666666667</ele><time>2026-04-05T12:41:52Z</time></trkpt><trkpt lat="48.57139982389986" lon="-2.18534046795289"><ele>33.833333333333336</ele><time>2026-04-05T12:41:53Z</time></trkpt><trkpt lat="48.57138084968458" lon="-2.1854415726417207"><ele>34.0</ele><time>2026-04-05T12:41:55Z</time></trkpt><trkpt lat="48.571356767335715" lon="-2.1855853127719076"><ele>34.16666666666667</ele><time>2026-04-05T12:41:58Z</time></trkpt><trkpt lat="48.571341643421206" lon="-2.185716757644483"><ele>34.333333333333336</ele><time>2026-04-05T12:42:01Z</time></trkpt><trkpt lat="48.571337315447586" lon="-2.1858241419222795"><ele>34.5</ele><time>2026-04-05T12:42:02Z</time></trkpt><trkpt lat="48.57133528258076" lon="-2.1859572467263098"><ele>34.666666666666664</ele><time>2026-04-05T12:42:04Z</time></trkpt><trkpt lat="48.571333888114864" lon="-2.186076036986068"><ele>34.83333333333333</ele><time>2026-04-05T12:42:06Z</time></trkpt><trkpt lat="48.57132291740284" lon="-2.1861881307763515"><ele>35.0</ele><time>2026-04-05T12:42:08Z</time></trkpt><trkpt lat="48.57131800390302" lon="-2.1862845505005186"><ele>35.0</ele><time>2026-04-05T12:42:10Z</time></trkpt><trkpt lat="48.5713126362485" lon="-2.1864565299383862"><ele>35.0</ele><time>2026-04-05T12:42:13Z</time></trkpt><trkpt lat="48.57131477240029" lon="-2.1866133107349444"><ele>35.0</ele><time>2026-04-05T12:42:15Z</time></trkpt><trkpt lat="48.57131959935707" lon="-2.1867854561062363"><ele>35.0</ele><time>2026-04-05T12:42:17Z</time></trkpt><trkpt lat="48.57131105172026" lon="-2.18694271417861"><ele>35.0</ele><time>2026-04-05T12:42:19Z</time></trkpt><trkpt lat="48.571304780213445" lon="-2.1870704687442557"><ele>35.0</ele><time>2026-04-05T12:42:21Z</time></trkpt><trkpt lat="48.57130679025271" lon="-2.1872467704501615"><ele>35.0</ele><time>2026-04-05T12:42:23Z</time></trkpt><trkpt lat="48.5713069659295" lon="-2.187411209426119"><ele>35.0</ele><time>2026-04-05T12:42:25Z</time></trkpt><trkpt lat="48.57132806497184" lon="-2.1875762716017118"><ele>35.0</ele><time>2026-04-05T12:42:26Z</time></trkpt><trkpt lat="48.571325760138556" lon="-2.1877206344139473"><ele>35.0</ele><time>2026-04-05T12:42:28Z</time></trkpt><trkpt lat="48.57132050640556" lon="-2.187824281699624"><ele>35.4</ele><time>2026-04-05T12:42:30Z</time></trkpt><trkpt lat="48.57131451334523" lon="-2.187939113757272"><ele>35.8</ele><time>2026-04-05T12:42:32Z</time></trkpt><trkpt lat="48.571317193380345" lon="-2.1880482149088802"><ele>36.2</ele><time>2026-04-05T12:42:34Z</time></trkpt><trkpt lat="48.57128883718519" lon="-2.1881417653955957"><ele>36.6</ele><time>2026-04-05T12:42:36Z</time></trkpt><trkpt lat="48.571415895202996" lon="-2.1881631946997673"><ele>37.0</ele><time>2026-04-05T12:42:40Z</time></trkpt><trkpt lat="48.57151914560025" lon="-2.1882092983845074"><ele>37.0</ele><time>2026-04-05T12:42:42Z</time></trkpt><trkpt lat="48.57162396992912" lon="-2.1882790033657633"><ele>37.0</ele><time>2026-04-05T12:42:44Z</time></trkpt><trkpt lat="48.57170108678319" lon="-2.1883307700255052"><ele>37.0</ele><time>2026-04-05T12:42:46Z</time></trkpt><trkpt lat="48.571803615366655" lon="-2.188413886314962"><ele>37.0</ele><time>2026-04-05T12:42:48Z</time></trkpt><trkpt lat="48.57185990776171" lon="-2.188465376709328"><ele>37.0</ele><time>2026-04-05T12:42:49Z</time></trkpt><trkpt lat="48.57196185259102" lon="-2.188537530872066"><ele>36.6</ele><time>2026-04-05T12:42:51Z</time></trkpt><trkpt lat="48.57206553741454" lon="-2.188617297798698"><ele>36.2</ele><time>2026-04-05T12:42:53Z</time></trkpt><trkpt lat="48.572123402943156" lon="-2.1886595082746942"><ele>35.8</ele><time>2026-04-05T12:42:53.999Z</time></trkpt><trkpt lat="48.57223590250801" lon="-2.1887422208543863"><ele>35.4</ele><time>2026-04-05T12:42:55.999Z</time></trkpt><trkpt lat="48.572290187294335" lon="-2.1887958409265114"><ele>35.0</ele><time>2026-04-05T12:42:56.999Z</time></trkpt><trkpt lat="48.57238372279825" lon="-2.188921485604757"><ele>35.0</ele><time>2026-04-05T12:42:58.999Z</time></trkpt><trkpt lat="48.57241982412403" lon="-2.189000355432775"><ele>35.0</ele><time>2026-04-05T12:42:59.999Z</time></trkpt><trkpt lat="48.57248457505047" lon="-2.189158632139354"><ele>35.0</ele><time>2026-04-05T12:43:01.999Z</time></trkpt><trkpt lat="48.57255129163813" lon="-2.1893155392505483"><ele>35.0</ele><time>2026-04-05T12:43:03.999Z</time></trkpt><trkpt lat="48.57259323524791" lon="-2.1893885602333807"><ele>35.0</ele><time>2026-04-05T12:43:04.999Z</time></trkpt><trkpt lat="48.5726377673892" lon="-2.1894644402311716"><ele>35.0</ele><time>2026-04-05T12:43:05.999Z</time></trkpt><trkpt lat="48.572742596041934" lon="-2.1895703722832076"><ele>35.0</ele><time>2026-04-05T12:43:07.999Z</time></trkpt><trkpt lat="48.572837278245814" lon="-2.1896645106451063"><ele>35.0</ele><time>2026-04-05T12:43:09.999Z</time></trkpt><trkpt lat="48.57293737403859" lon="-2.18973381473928"><ele>35.0</ele><time>2026-04-05T12:43:11.999Z</time></trkpt><trkpt lat="48.5730260737983" lon="-2.1898048258713447"><ele>35.0</ele><time>2026-04-05T12:43:13.999Z</time></trkpt><trkpt lat="48.57309746302917" lon="-2.1898556765612835"><ele>35.0</ele><time>2026-04-05T12:43:15.999Z</time></trkpt><trkpt lat="48.57317135648076" lon="-2.1899116243751995"><ele>35.33333333333333</ele><time>2026-04-05T12:43:17.999Z</time></trkpt><trkpt lat="48.57323455662341" lon="-2.1899664641724503"><ele>35.666666666666664</ele><time>2026-04-05T12:43:19.999Z</time></trkpt><trkpt lat="48.5733020209384" lon="-2.1900059427159877"><ele>36.0</ele><time>2026-04-05T12:43:21.999Z</time></trkpt><trkpt lat="48.573381899534475" lon="-2.1900702009528046"><ele>36.333333333333336</ele><time>2026-04-05T12:43:25.999Z</time></trkpt><trkpt lat="48.57346543535133" lon="-2.1901046999460476"><ele>36.66666666666667</ele><time>2026-04-05T12:43:28.999Z</time></trkpt><trkpt lat="48.57355282126067" lon="-2.190126987123034"><ele>37.0</ele><time>2026-04-05T12:43:31.999Z</time></trkpt><trkpt lat="48.573655067419" lon="-2.190154643466749"><ele>36.5</ele><time>2026-04-05T12:43:34.999Z</time></trkpt><trkpt lat="48.573747453511466" lon="-2.190151080435866"><ele>36.0</ele><time>2026-04-05T12:43:36.999Z</time></trkpt><trkpt lat="48.57381435188146" lon="-2.1901687949289834"><ele>35.5</ele><time>2026-04-05T12:43:38.999Z</time></trkpt><trkpt lat="48.57390583084393" lon="-2.1901754711348524"><ele>35.0</ele><time>2026-04-05T12:43:41.999Z</time></trkpt><trkpt lat="48.574222227037666" lon="-2.19032082374892"><ele>35.0</ele><time>2026-04-05T12:43:43.999Z</time></trkpt><trkpt lat="48.57432324116995" lon="-2.190336123249824"><ele>35.0</ele><time>2026-04-05T12:43:45.999Z</time></trkpt><trkpt lat="48.57442097764064" lon="-2.1903755680635593"><ele>35.0</ele><time>2026-04-05T12:43:47.999Z</time></trkpt><trkpt lat="48.57452747225859" lon="-2.1903978143686813"><ele>35.0</ele><time>2026-04-05T12:43:50Z</time></trkpt><trkpt lat="48.574633075193894" lon="-2.190447185377416"><ele>35.0</ele><time>2026-04-05T12:43:52Z</time></trkpt><trkpt lat="48.57473329790025" lon="-2.1904996005217314"><ele>35.0</ele><time>2026-04-05T12:43:54Z</time></trkpt><trkpt lat="48.574833644007704" lon="-2.1905442398986916"><ele>35.0</ele><time>2026-04-05T12:43:56Z</time></trkpt><trkpt lat="48.57493242441402" lon="-2.1906134715760097"><ele>35.0</ele><time>2026-04-05T12:43:58Z</time></trkpt><trkpt lat="48.575037032010435" lon="-2.190668554881741"><ele>35.0</ele><time>2026-04-05T12:44:00Z</time></trkpt><trkpt lat="48.57512954221912" lon="-2.190727443689343"><ele>35.0</ele><time>2026-04-05T12:44:03Z</time></trkpt><trkpt lat="48.57524608895482" lon="-2.1908025913807627"><ele>35.0</ele><time>2026-04-05T12:44:05Z</time></trkpt><trkpt lat="48.57531917140418" lon="-2.1908228638054776"><ele>35.0</ele><time>2026-04-05T12:44:08Z</time></trkpt><trkpt lat="48.5753550619283" lon="-2.191020269351389"><ele>35.0</ele><time>2026-04-05T12:44:10Z</time></trkpt><trkpt lat="48.575330665358756" lon="-2.191175774031437"><ele>35.0</ele><time>2026-04-05T12:44:12Z</time></trkpt><trkpt lat="48.57530619784723" lon="-2.191332020061335"><ele>35.0</ele><time>2026-04-05T12:44:14Z</time></trkpt><trkpt lat="48.57527961679083" lon="-2.191487389937206"><ele>35.6</ele><time>2026-04-05T12:44:16Z</time></trkpt><trkpt lat="48.575253342494825" lon="-2.1916382468554727"><ele>36.2</ele><time>2026-04-05T12:44:18Z</time></trkpt><trkpt lat="48.57522697929038" lon="-2.1917821459712603"><ele>36.8</ele><time>2026-04-05T12:44:20Z</time></trkpt><trkpt lat="48.5751777754747" lon="-2.191986842070727"><ele>37.4</ele><time>2026-04-05T12:44:23Z</time></trkpt><trkpt lat="48.57515148002995" lon="-2.1921316181673913"><ele>38.0</ele><time>2026-04-05T12:44:25Z</time></trkpt><trkpt lat="48.575115095108075" lon="-2.1922728834518455"><ele>38.199999999999996</ele><time>2026-04-05T12:44:27Z</time></trkpt><trkpt lat="48.575069024902454" lon="-2.1923986381803617"><ele>38.4</ele><time>2026-04-05T12:44:29Z</time></trkpt><trkpt lat="48.57503399852232" lon="-2.1925324617034105"><ele>38.599999999999994</ele><time>2026-04-05T12:44:31Z</time></trkpt><trkpt lat="48.57499486049764" lon="-2.192656801770652"><ele>38.8</ele><time>2026-04-05T12:44:33Z</time></trkpt><trkpt lat="48.57495960355342" lon="-2.1927924732243866"><ele>39.0</ele><time>2026-04-05T12:44:35Z</time></trkpt><trkpt lat="48.574921428595744" lon="-2.1929249465037315"><ele>39.0</ele><time>2026-04-05T12:44:37Z</time></trkpt><trkpt lat="48.57488085300559" lon="-2.193048926001079"><ele>39.0</ele><time>2026-04-05T12:44:39Z</time></trkpt><trkpt lat="48.574835437942674" lon="-2.193171390317788"><ele>39.0</ele><time>2026-04-05T12:44:41Z</time></trkpt><trkpt lat="48.574794613882545" lon="-2.193299574441432"><ele>39.0</ele><time>2026-04-05T12:44:43Z</time></trkpt><trkpt lat="48.574752170927944" lon="-2.1934289894464736"><ele>39.0</ele><time>2026-04-05T12:44:45Z</time></trkpt><trkpt lat="48.574707392645294" lon="-2.193555969627164"><ele>39.166666666666664</ele><time>2026-04-05T12:44:47Z</time></trkpt><trkpt lat="48.57464538445221" lon="-2.1936172065813673"><ele>39.333333333333336</ele><time>2026-04-05T12:44:48Z</time></trkpt><trkpt lat="48.57460467469077" lon="-2.1937357930220776"><ele>39.5</ele><time>2026-04-05T12:44:50Z</time></trkpt><trkpt lat="48.57457536039553" lon="-2.193835040582838"><ele>39.66666666666667</ele><time>2026-04-05T12:44:52Z</time></trkpt><trkpt lat="48.57453544285892" lon="-2.1939219506792487"><ele>39.833333333333336</ele><time>2026-04-05T12:44:54Z</time></trkpt><trkpt lat="48.574495856275185" lon="-2.1940519885337686"><ele>40.0</ele><time>2026-04-05T12:44:55Z</time></trkpt><trkpt lat="48.57443603073387" lon="-2.1941778686386813"><ele>40.2</ele><time>2026-04-05T12:44:57Z</time></trkpt><trkpt lat="48.5743845045336" lon="-2.194310153935431"><ele>40.4</ele><time>2026-04-05T12:44:59Z</time></trkpt><trkpt lat="48.57433241766092" lon="-2.1944396922660943"><ele>40.599999999999994</ele><time>2026-04-05T12:45:01Z</time></trkpt><trkpt lat="48.574289432970936" lon="-2.1945838522555876"><ele>40.8</ele><time>2026-04-05T12:45:02.999Z</time></trkpt><trkpt lat="48.57424016036081" lon="-2.194730441516548"><ele>41.0</ele><time>2026-04-05T12:45:04.999Z</time></trkpt><trkpt lat="48.57420587601953" lon="-2.1948751048546957"><ele>41.4</ele><time>2026-04-05T12:45:06.999Z</time></trkpt><trkpt lat="48.57416185063254" lon="-2.195022454878677"><ele>41.8</ele><time>2026-04-05T12:45:08.999Z</time></trkpt><trkpt lat="48.57411244932085" lon="-2.1951816975498364"><ele>42.199999999999996</ele><time>2026-04-05T12:45:10.999Z</time></trkpt><trkpt lat="48.57406567334397" lon="-2.1953371903256675"><ele>42.599999999999994</ele><time>2026-04-05T12:45:12.999Z</time></trkpt><trkpt lat="48.57402770219438" lon="-2.195417176543932"><ele>43.0</ele><time>2026-04-05T12:45:13.999Z</time></trkpt><trkpt lat="48.57398446715646" lon="-2.1955590444364828"><ele>43.0</ele><time>2026-04-05T12:45:15.999Z</time></trkpt><trkpt lat="48.57394396471795" lon="-2.195697011676434"><ele>43.0</ele><time>2026-04-05T12:45:17.999Z</time></trkpt><trkpt lat="48.57390676979273" lon="-2.195872564743323"><ele>43.0</ele><time>2026-04-05T12:45:20.999Z</time></trkpt><trkpt lat="48.57387451465005" lon="-2.1959665899537204"><ele>43.0</ele><time>2026-04-05T12:45:21.999Z</time></trkpt><trkpt lat="48.573816840877726" lon="-2.196105255663571"><ele>43.0</ele><time>2026-04-05T12:45:23.999Z</time></trkpt><trkpt lat="48.57376927696076" lon="-2.1962413099860467"><ele>43.0</ele><time>2026-04-05T12:45:25.999Z</time></trkpt><trkpt lat="48.57371679467072" lon="-2.1963654812763953"><ele>43.0</ele><time>2026-04-05T12:45:27.999Z</time></trkpt><trkpt lat="48.57366051607294" lon="-2.1965015960334053"><ele>43.0</ele><time>2026-04-05T12:45:29.999Z</time></trkpt><trkpt lat="48.57359841737615" lon="-2.196638313535551"><ele>43.0</ele><time>2026-04-05T12:45:31.999Z</time></trkpt><trkpt lat="48.57354472827998" lon="-2.1967958569231496"><ele>43.0</ele><time>2026-04-05T12:45:33.999Z</time></trkpt><trkpt lat="48.57348456070099" lon="-2.1969410318049785"><ele>42.4</ele><time>2026-04-05T12:45:35.999Z</time></trkpt><trkpt lat="48.57343159421652" lon="-2.197098538496646"><ele>41.8</ele><time>2026-04-05T12:45:37.999Z</time></trkpt><trkpt lat="48.57338713541815" lon="-2.1972366556272993"><ele>41.2</ele><time>2026-04-05T12:45:39.999Z</time></trkpt><trkpt lat="48.57334891767072" lon="-2.1973708054411882"><ele>40.6</ele><time>2026-04-05T12:45:41.999Z</time></trkpt><trkpt lat="48.573313521071945" lon="-2.197495420328479"><ele>40.0</ele><time>2026-04-05T12:45:43.999Z</time></trkpt><trkpt lat="48.57329273455658" lon="-2.197622405782412"><ele>40.0</ele><time>2026-04-05T12:45:46.999Z</time></trkpt><trkpt lat="48.57327948116357" lon="-2.1977162261700967"><ele>40.0</ele><time>2026-04-05T12:45:48.999Z</time></trkpt><trkpt lat="48.57323459483373" lon="-2.1978258516232607"><ele>40.0</ele><time>2026-04-05T12:45:50.999Z</time></trkpt><trkpt lat="48.573180914866775" lon="-2.197957927375098"><ele>40.0</ele><time>2026-04-05T12:45:52.999Z</time></trkpt><trkpt lat="48.57312561113309" lon="-2.1980968245549226"><ele>40.0</ele><time>2026-04-05T12:45:55Z</time></trkpt><trkpt lat="48.57306753605286" lon="-2.1982495467198553"><ele>39.66666666666667</ele><time>2026-04-05T12:45:57Z</time></trkpt><trkpt lat="48.573038074774146" lon="-2.1983376652058824"><ele>39.333333333333336</ele><time>2026-04-05T12:45:58Z</time></trkpt><trkpt lat="48.57297457982114" lon="-2.1984954586775554"><ele>39.0</ele><time>2026-04-05T12:46:00Z</time></trkpt><trkpt lat="48.57294334171406" lon="-2.1985829417701654"><ele>38.666666666666664</ele><time>2026-04-05T12:46:01Z</time></trkpt><trkpt lat="48.57291448008736" lon="-2.198668993897242"><ele>38.33333333333333</ele><time>2026-04-05T12:46:02Z</time></trkpt><trkpt lat="48.572896919878055" lon="-2.1987746464586273"><ele>38.0</ele><time>2026-04-05T12:46:03Z</time></trkpt><trkpt lat="48.57285268563501" lon="-2.198854502298596"><ele>37.714285714285715</ele><time>2026-04-05T12:46:04Z</time></trkpt><trkpt lat="48.572816361499626" lon="-2.1989472615783168"><ele>37.42857142857143</ele><time>2026-04-05T12:46:05Z</time></trkpt><trkpt lat="48.57279175261987" lon="-2.199043336073296"><ele>37.142857142857146</ele><time>2026-04-05T12:46:06Z</time></trkpt><trkpt lat="48.57276027237983" lon="-2.1991455171933034"><ele>36.85714285714286</ele><time>2026-04-05T12:46:07Z</time></trkpt><trkpt lat="48.57272921177927" lon="-2.1992400373164225"><ele>36.57142857142857</ele><time>2026-04-05T12:46:08Z</time></trkpt><trkpt lat="48.57269367514647" lon="-2.1993480111170816"><ele>36.28571428571429</ele><time>2026-04-05T12:46:09Z</time></trkpt><trkpt lat="48.57265618289661" lon="-2.1994540587173605"><ele>36.0</ele><time>2026-04-05T12:46:10Z</time></trkpt><trkpt lat="48.57262307778652" lon="-2.1995621626313926"><ele>36.0</ele><time>2026-04-05T12:46:11Z</time></trkpt><trkpt lat="48.57258902529239" lon="-2.1996729885072677"><ele>36.0</ele><time>2026-04-05T12:46:12Z</time></trkpt><trkpt lat="48.57254425163957" lon="-2.199780613313929"><ele>36.0</ele><time>2026-04-05T12:46:13Z</time></trkpt><trkpt lat="48.572491911605916" lon="-2.1998767720078165"><ele>36.0</ele><time>2026-04-05T12:46:14Z</time></trkpt><trkpt lat="48.572434254095285" lon="-2.199960437164388"><ele>36.0</ele><time>2026-04-05T12:46:15Z</time></trkpt><trkpt lat="48.572384528073734" lon="-2.200036499147776"><ele>36.0</ele><time>2026-04-05T12:46:16Z</time></trkpt><trkpt lat="48.57229844048144" lon="-2.200167674375023"><ele>36.0</ele><time>2026-04-05T12:46:18Z</time></trkpt><trkpt lat="48.57224961244393" lon="-2.2002288361643725"><ele>36.0</ele><time>2026-04-05T12:46:19Z</time></trkpt><trkpt lat="48.572193585007234" lon="-2.200378547994747"><ele>36.0</ele><time>2026-04-05T12:46:21Z</time></trkpt><trkpt lat="48.57216282733864" lon="-2.200517648815815"><ele>36.0</ele><time>2026-04-05T12:46:23Z</time></trkpt><trkpt lat="48.57217069844802" lon="-2.2006707853640846"><ele>36.0</ele><time>2026-04-05T12:46:25Z</time></trkpt><trkpt lat="48.57219172558384" lon="-2.2008180971268083"><ele>36.0</ele><time>2026-04-05T12:46:27Z</time></trkpt><trkpt lat="48.57220419660632" lon="-2.2009705462964306"><ele>36.0</ele><time>2026-04-05T12:46:29Z</time></trkpt><trkpt lat="48.572227316463575" lon="-2.2011280558336397"><ele>36.0</ele><time>2026-04-05T12:46:31Z</time></trkpt><trkpt lat="48.57224854247613" lon="-2.2012775456178697"><ele>36.0</ele><time>2026-04-05T12:46:33Z</time></trkpt><trkpt lat="48.57227296204751" lon="-2.2014158088430555"><ele>36.0</ele><time>2026-04-05T12:46:35Z</time></trkpt><trkpt lat="48.57229336444377" lon="-2.2015360839496565"><ele>36.166666666666664</ele><time>2026-04-05T12:46:37Z</time></trkpt><trkpt lat="48.572314199919624" lon="-2.2016360262733783"><ele>36.333333333333336</ele><time>2026-04-05T12:46:38Z</time></trkpt><trkpt lat="48.57233107303685" lon="-2.2017827799944807"><ele>36.5</ele><time>2026-04-05T12:46:40Z</time></trkpt><trkpt lat="48.57235657665638" lon="-2.2019085080797383"><ele>36.66666666666667</ele><time>2026-04-05T12:46:42Z</time></trkpt><trkpt lat="48.57237469618171" lon="-2.20203655007251"><ele>36.833333333333336</ele><time>2026-04-05T12:46:44Z</time></trkpt><trkpt lat="48.57239841355214" lon="-2.2021546344791765"><ele>37.0</ele><time>2026-04-05T12:46:46Z</time></trkpt><trkpt lat="48.572415397106276" lon="-2.202266918068206"><ele>37.16666666666667</ele><time>2026-04-05T12:46:48Z</time></trkpt><trkpt lat="48.57242182052127" lon="-2.202372306550962"><ele>37.333333333333336</ele><time>2026-04-05T12:46:50Z</time></trkpt><trkpt lat="48.57243257407184" lon="-2.202508956884662"><ele>37.5</ele><time>2026-04-05T12:46:53Z</time></trkpt><trkpt lat="48.57243392499155" lon="-2.202625186395761"><ele>37.666666666666664</ele><time>2026-04-05T12:46:55Z</time></trkpt><trkpt lat="48.57244748963557" lon="-2.20273950549193"><ele>37.83333333333333</ele><time>2026-04-05T12:46:57Z</time></trkpt><trkpt lat="48.57243810816532" lon="-2.2028677743363483"><ele>38.0</ele><time>2026-04-05T12:46:59Z</time></trkpt><trkpt lat="48.572426878282485" lon="-2.2030129854874954"><ele>37.666666666666664</ele><time>2026-04-05T12:47:01Z</time></trkpt><trkpt lat="48.57242129074577" lon="-2.2031751616399307"><ele>37.33333333333333</ele><time>2026-04-05T12:47:03Z</time></trkpt><trkpt lat="48.57241973938702" lon="-2.203361177053555"><ele>37.0</ele><time>2026-04-05T12:47:05Z</time></trkpt><trkpt lat="48.5724144891576" lon="-2.2034597491359333"><ele>36.666666666666664</ele><time>2026-04-05T12:47:06Z</time></trkpt><trkpt lat="48.57241079843665" lon="-2.2035643776698577"><ele>36.333333333333336</ele><time>2026-04-05T12:47:07Z</time></trkpt><trkpt lat="48.57241869770342" lon="-2.203662815131336"><ele>36.0</ele><time>2026-04-05T12:47:08Z</time></trkpt><trkpt lat="48.57242321977534" lon="-2.2037631570129457"><ele>36.00000000000001</ele><time>2026-04-05T12:47:09Z</time></trkpt><trkpt lat="48.572424508395706" lon="-2.2038704755469647"><ele>36.0</ele><time>2026-04-05T12:47:10Z</time></trkpt><trkpt lat="48.572428972469055" lon="-2.2039741419037426"><ele>36.0</ele><time>2026-04-05T12:47:11Z</time></trkpt><trkpt lat="48.57243401881213" lon="-2.204080756176722"><ele>36.0</ele><time>2026-04-05T12:47:12Z</time></trkpt><trkpt lat="48.572435291691306" lon="-2.204193100489804"><ele>36.0</ele><time>2026-04-05T12:47:13Z</time></trkpt><trkpt lat="48.57243668432955" lon="-2.2043045787034115"><ele>36.00000000000001</ele><time>2026-04-05T12:47:14Z</time></trkpt><trkpt lat="48.57243796026862" lon="-2.204411318492157"><ele>36.0</ele><time>2026-04-05T12:47:15Z</time></trkpt><trkpt lat="48.57244261464872" lon="-2.2045190633028358"><ele>35.0</ele><time>2026-04-05T12:47:16Z</time></trkpt><trkpt lat="48.57245216526887" lon="-2.204720618937713"><ele>34.0</ele><time>2026-04-05T12:47:18Z</time></trkpt><trkpt lat="48.572463201205245" lon="-2.20490602245583"><ele>33.0</ele><time>2026-04-05T12:47:20Z</time></trkpt><trkpt lat="48.57245183300521" lon="-2.2050003718037274"><ele>32.0</ele><time>2026-04-05T12:47:20.999Z</time></trkpt><trkpt lat="48.57244267546177" lon="-2.2050969453420928"><ele>31.0</ele><time>2026-04-05T12:47:21.999Z</time></trkpt><trkpt lat="48.57243970270144" lon="-2.2051997376182215"><ele>30.500000000000004</ele><time>2026-04-05T12:47:22.999Z</time></trkpt><trkpt lat="48.572410993205885" lon="-2.205309896933559"><ele>30.0</ele><time>2026-04-05T12:47:23.999Z</time></trkpt><trkpt lat="48.572383771023844" lon="-2.20548492287844"><ele>29.5</ele><time>2026-04-05T12:47:25.999Z</time></trkpt><trkpt lat="48.57235475440647" lon="-2.2055830558003975"><ele>29.0</ele><time>2026-04-05T12:47:26.999Z</time></trkpt><trkpt lat="48.57232569182436" lon="-2.2056829418139507"><ele>28.500000000000004</ele><time>2026-04-05T12:47:27.999Z</time></trkpt><trkpt lat="48.57229498611017" lon="-2.205788830194431"><ele>28.0</ele><time>2026-04-05T12:47:28.999Z</time></trkpt><trkpt lat="48.57227332212911" lon="-2.205898028178856"><ele>27.833333333333336</ele><time>2026-04-05T12:47:29.999Z</time></trkpt><trkpt lat="48.57226695783438" lon="-2.206009379241965"><ele>27.666666666666668</ele><time>2026-04-05T12:47:30.999Z</time></trkpt><trkpt lat="48.57226375266689" lon="-2.206118467661415"><ele>27.5</ele><time>2026-04-05T12:47:31.999Z</time></trkpt><trkpt lat="48.572272915345565" lon="-2.2062234643754004"><ele>27.333333333333336</ele><time>2026-04-05T12:47:32.999Z</time></trkpt><trkpt lat="48.57228044243165" lon="-2.20632303193607"><ele>27.166666666666668</ele><time>2026-04-05T12:47:33.999Z</time></trkpt><trkpt lat="48.572300743385874" lon="-2.2064161513496754"><ele>27.0</ele><time>2026-04-05T12:47:34.999Z</time></trkpt><trkpt lat="48.57236195201037" lon="-2.2065511273546017"><ele>26.8</ele><time>2026-04-05T12:47:36.999Z</time></trkpt><trkpt lat="48.57242738384067" lon="-2.2066581033956782"><ele>26.6</ele><time>2026-04-05T12:47:38.999Z</time></trkpt><trkpt lat="48.572481510917655" lon="-2.2067616445922864"><ele>26.400000000000002</ele><time>2026-04-05T12:47:40.999Z</time></trkpt><trkpt lat="48.57252516001043" lon="-2.206879011942449"><ele>26.200000000000003</ele><time>2026-04-05T12:47:42.999Z</time></trkpt><trkpt lat="48.5725583267473" lon="-2.2070066777286783"><ele>26.0</ele><time>2026-04-05T12:47:44.999Z</time></trkpt><trkpt lat="48.57260036081003" lon="-2.207130842578406"><ele>26.0</ele><time>2026-04-05T12:47:46.999Z</time></trkpt><trkpt lat="48.57263626805175" lon="-2.207266919581581"><ele>26.0</ele><time>2026-04-05T12:47:48.999Z</time></trkpt><trkpt lat="48.57266963946103" lon="-2.207404670952231"><ele>26.0</ele><time>2026-04-05T12:47:50.999Z</time></trkpt><trkpt lat="48.57270276780658" lon="-2.2075394088382803"><ele>26.0</ele><time>2026-04-05T12:47:52.999Z</time></trkpt><trkpt lat="48.57273866111668" lon="-2.207675463876669"><ele>26.0</ele><time>2026-04-05T12:47:54.999Z</time></trkpt><trkpt lat="48.57276904720434" lon="-2.2077883018360605"><ele>26.333333333333332</ele><time>2026-04-05T12:47:56.999Z</time></trkpt><trkpt lat="48.57279017528096" lon="-2.2079048380421944"><ele>26.666666666666664</ele><time>2026-04-05T12:47:59.999Z</time></trkpt><trkpt lat="48.57278126071113" lon="-2.2080163323816464"><ele>27.0</ele><time>2026-04-05T12:48:03Z</time></trkpt><trkpt lat="48.57281475322515" lon="-2.208123278721007"><ele>27.333333333333336</ele><time>2026-04-05T12:48:06Z</time></trkpt><trkpt lat="48.57282555971491" lon="-2.208232693029533"><ele>27.666666666666668</ele><time>2026-04-05T12:48:09Z</time></trkpt><trkpt lat="48.572856612634" lon="-2.208348499122053"><ele>28.0</ele><time>2026-04-05T12:48:12Z</time></trkpt><trkpt lat="48.572878165262345" lon="-2.208477521304634"><ele>26.666666666666668</ele><time>2026-04-05T12:48:15Z</time></trkpt><trkpt lat="48.5728825368401" lon="-2.2085971731158502"><ele>25.333333333333336</ele><time>2026-04-05T12:48:18Z</time></trkpt><trkpt lat="48.57290831356623" lon="-2.208722026482066"><ele>24.0</ele><time>2026-04-05T12:48:20Z</time></trkpt><trkpt lat="48.57289010875601" lon="-2.208838692515314"><ele>22.666666666666668</ele><time>2026-04-05T12:48:23Z</time></trkpt><trkpt lat="48.572915981202506" lon="-2.208935403508387"><ele>21.333333333333336</ele><time>2026-04-05T12:48:25Z</time></trkpt><trkpt lat="48.57289575905662" lon="-2.209048948879695"><ele>20.0</ele><time>2026-04-05T12:48:28Z</time></trkpt><trkpt lat="48.57289105715215" lon="-2.2091491509922685"><ele>19.6</ele><time>2026-04-05T12:48:30Z</time></trkpt><trkpt lat="48.57287221533146" lon="-2.209297765532848"><ele>19.2</ele><time>2026-04-05T12:48:31Z</time></trkpt><trkpt lat="48.57286611143765" lon="-2.209439941103862"><ele>18.8</ele><time>2026-04-05T12:48:32Z</time></trkpt><trkpt lat="48.57296075213016" lon="-2.2095836620827165"><ele>18.4</ele><time>2026-04-05T12:48:33Z</time></trkpt><trkpt lat="48.57294750988235" lon="-2.2096934447715464"><ele>18.0</ele><time>2026-04-05T12:48:34Z</time></trkpt><trkpt lat="48.57293590311531" lon="-2.2097896714957788"><ele>16.833333333333332</ele><time>2026-04-05T12:48:35Z</time></trkpt><trkpt lat="48.57293488433233" lon="-2.209949218778792"><ele>15.666666666666666</ele><time>2026-04-05T12:48:37Z</time></trkpt><trkpt lat="48.57293534395043" lon="-2.2101230997843335"><ele>14.5</ele><time>2026-04-05T12:48:39Z</time></trkpt><trkpt lat="48.57293930467193" lon="-2.2102275484437763"><ele>13.333333333333332</ele><time>2026-04-05T12:48:40Z</time></trkpt><trkpt lat="48.5729431570624" lon="-2.21032913883728"><ele>12.166666666666666</ele><time>2026-04-05T12:48:41Z</time></trkpt><trkpt lat="48.57294718607647" lon="-2.2104266216060138"><ele>11.0</ele><time>2026-04-05T12:48:42Z</time></trkpt><trkpt lat="48.572955012861065" lon="-2.2105922659581947"><ele>10.600000000000001</ele><time>2026-04-05T12:48:44Z</time></trkpt><trkpt lat="48.57296165062339" lon="-2.2107518838440865"><ele>10.200000000000001</ele><time>2026-04-05T12:48:46Z</time></trkpt><trkpt lat="48.57294784621824" lon="-2.2109434820825777"><ele>9.8</ele><time>2026-04-05T12:48:48Z</time></trkpt><trkpt lat="48.572962637456556" lon="-2.211039363305069"><ele>9.4</ele><time>2026-04-05T12:48:49Z</time></trkpt><trkpt lat="48.572950909213965" lon="-2.211188080566029"><ele>9.0</ele><time>2026-04-05T12:48:51Z</time></trkpt><trkpt lat="48.57286911037425" lon="-2.211304611656659"><ele>11.0</ele><time>2026-04-05T12:48:53Z</time></trkpt><trkpt lat="48.57279500446403" lon="-2.2113243211331763"><ele>13.0</ele><time>2026-04-05T12:48:54Z</time></trkpt><trkpt lat="48.572685465550116" lon="-2.211378373945281"><ele>14.999999999999998</ele><time>2026-04-05T12:48:56Z</time></trkpt><trkpt lat="48.5726206967822" lon="-2.2114097308592315"><ele>17.0</ele><time>2026-04-05T12:48:57Z</time></trkpt><trkpt lat="48.5725249613335" lon="-2.2114440030513727"><ele>19.0</ele><time>2026-04-05T12:48:59Z</time></trkpt><trkpt lat="48.57242546289091" lon="-2.211446295242451"><ele>19.0</ele><time>2026-04-05T12:49:01Z</time></trkpt><trkpt lat="48.57230837263443" lon="-2.211477534226655"><ele>19.0</ele><time>2026-04-05T12:49:03Z</time></trkpt><trkpt lat="48.57221066303837" lon="-2.2115265166295295"><ele>19.0</ele><time>2026-04-05T12:49:05Z</time></trkpt><trkpt lat="48.572111636726824" lon="-2.2116155576103314"><ele>19.0</ele><time>2026-04-05T12:49:07Z</time></trkpt><trkpt lat="48.572042584679444" lon="-2.211758973454023"><ele>17.599999999999998</ele><time>2026-04-05T12:49:09Z</time></trkpt><trkpt lat="48.57196935344185" lon="-2.211902141616234"><ele>16.2</ele><time>2026-04-05T12:49:11Z</time></trkpt><trkpt lat="48.57189553781859" lon="-2.212050105745976"><ele>14.799999999999999</ele><time>2026-04-05T12:49:13Z</time></trkpt><trkpt lat="48.57186126204085" lon="-2.2121354079486073"><ele>13.399999999999999</ele><time>2026-04-05T12:49:14Z</time></trkpt><trkpt lat="48.57179865115346" lon="-2.2122796084455434"><ele>12.0</ele><time>2026-04-05T12:49:15.999Z</time></trkpt><trkpt lat="48.571743834496004" lon="-2.2123955275413425"><ele>12.0</ele><time>2026-04-05T12:49:17.999Z</time></trkpt><trkpt lat="48.57175001239286" lon="-2.2124907526282254"><ele>12.0</ele><time>2026-04-05T12:49:20.999Z</time></trkpt><trkpt lat="48.571876262522146" lon="-2.212531523685792"><ele>12.0</ele><time>2026-04-05T12:49:27.999Z</time></trkpt><trkpt lat="48.57191318148134" lon="-2.2124541988809683"><ele>12.0</ele><time>2026-04-05T12:52:07.999Z</time></trkpt><trkpt lat="48.571882244583115" lon="-2.2123598521526247"><ele>12.0</ele><time>2026-04-05T12:52:18Z</time></trkpt><trkpt lat="48.571905020312194" lon="-2.2125441836976036"><ele>12.0</ele><time>2026-04-05T12:52:50Z</time></trkpt><trkpt lat="48.57186386501036" lon="-2.212413465827875"><ele>12.0</ele><time>2026-04-05T12:52:54Z</time></trkpt><trkpt lat="48.571872300140434" lon="-2.212289562654726"><ele>11.0</ele><time>2026-04-05T12:55:33.999Z</time></trkpt><trkpt lat="48.57193242161982" lon="-2.2126092893463043"><ele>12.0</ele><time>2026-04-05T12:56:48Z</time></trkpt><trkpt lat="48.57186802861181" lon="-2.212496219589188"><ele>12.0</ele><time>2026-04-05T12:56:53Z</time></trkpt></trkseg><trkseg><trkpt lat="48.571862030363846" lon="-2.212567160807986"><ele>12.0</ele><time>2026-04-05T13:16:03.992Z</time></trkpt><trkpt lat="48.57193007312566" lon="-2.2125654916885815"><ele>12.0</ele><time>2026-04-05T13:16:29.999Z</time></trkpt><trkpt lat="48.57201191775345" lon="-2.212595453582001"><ele>12.0</ele><time>2026-04-05T13:16:31.999Z</time></trkpt><trkpt lat="48.57208189706535" lon="-2.212632794848423"><ele>12.0</ele><time>2026-04-05T13:16:34Z</time></trkpt><trkpt lat="48.57213376146753" lon="-2.212693051317411"><ele>12.0</ele><time>2026-04-05T13:16:36Z</time></trkpt><trkpt lat="48.572209618792016" lon="-2.212749591300685"><ele>12.0</ele><time>2026-04-05T13:16:38Z</time></trkpt><trkpt lat="48.572290404264756" lon="-2.2127909234682805"><ele>11.4</ele><time>2026-04-05T13:16:40Z</time></trkpt><trkpt lat="48.572380445460176" lon="-2.2128274623765787"><ele>10.799999999999999</ele><time>2026-04-05T13:16:42Z</time></trkpt><trkpt lat="48.57246966076456" lon="-2.212899878131766"><ele>10.2</ele><time>2026-04-05T13:16:44Z</time></trkpt><trkpt lat="48.57254255166054" lon="-2.212954866774709"><ele>9.6</ele><time>2026-04-05T13:16:46Z</time></trkpt><trkpt lat="48.57263865674272" lon="-2.213024928609411"><ele>9.0</ele><time>2026-04-05T13:16:48Z</time></trkpt><trkpt lat="48.57272667171838" lon="-2.213095329900541"><ele>9.6</ele><time>2026-04-05T13:16:50Z</time></trkpt><trkpt lat="48.572821493770284" lon="-2.2131632299487047"><ele>10.2</ele><time>2026-04-05T13:16:52Z</time></trkpt><trkpt lat="48.57290952784078" lon="-2.2132410571734007"><ele>10.799999999999999</ele><time>2026-04-05T13:16:54Z</time></trkpt><trkpt lat="48.57299319564841" lon="-2.2133142619292365"><ele>11.4</ele><time>2026-04-05T13:16:56Z</time></trkpt><trkpt lat="48.57307616614298" lon="-2.2133809239486752"><ele>12.0</ele><time>2026-04-05T13:16:58Z</time></trkpt><trkpt lat="48.57315750535132" lon="-2.213447104894927"><ele>10.2</ele><time>2026-04-05T13:17:00Z</time></trkpt><trkpt lat="48.57324447777574" lon="-2.2135077176434157"><ele>8.399999999999999</ele><time>2026-04-05T13:17:02Z</time></trkpt><trkpt lat="48.573338415498725" lon="-2.2135654878429554"><ele>6.6</ele><time>2026-04-05T13:17:04Z</time></trkpt><trkpt lat="48.57342349673217" lon="-2.213630572105375"><ele>4.8</ele><time>2026-04-05T13:17:06Z</time></trkpt><trkpt lat="48.573511405174216" lon="-2.213702068542346"><ele>3.0</ele><time>2026-04-05T13:17:08Z</time></trkpt><trkpt lat="48.57357519572706" lon="-2.2137511858057732"><ele>2.75</ele><time>2026-04-05T13:17:10Z</time></trkpt><trkpt lat="48.573721787627115" lon="-2.213841796982524"><ele>2.5</ele><time>2026-04-05T13:17:12Z</time></trkpt><trkpt lat="48.57381362411962" lon="-2.21391830201645"><ele>2.25</ele><time>2026-04-05T13:17:14Z</time></trkpt><trkpt lat="48.57390298857439" lon="-2.2139857098795757"><ele>2.0</ele><time>2026-04-05T13:17:16Z</time></trkpt><trkpt lat="48.57399318389452" lon="-2.2140536947798903"><ele>2.6</ele><time>2026-04-05T13:17:18Z</time></trkpt><trkpt lat="48.57408690218632" lon="-2.2141046101416904"><ele>3.2</ele><time>2026-04-05T13:17:20Z</time></trkpt><trkpt lat="48.5741637210696" lon="-2.2141795092825194"><ele>3.8</ele><time>2026-04-05T13:17:22Z</time></trkpt><trkpt lat="48.57424900393899" lon="-2.2142415588089723"><ele>4.4</ele><time>2026-04-05T13:17:24Z</time></trkpt><trkpt lat="48.57433201513485" lon="-2.214310851383494"><ele>5.0</ele><time>2026-04-05T13:17:26Z</time></trkpt><trkpt lat="48.57441831829112" lon="-2.2143695049049876"><ele>5.0</ele><time>2026-04-05T13:17:28Z</time></trkpt><trkpt lat="48.574482117848994" lon="-2.21445749727337"><ele>5.0</ele><time>2026-04-05T13:17:30Z</time></trkpt><trkpt lat="48.57450056862597" lon="-2.21455298108159"><ele>5.0</ele><time>2026-04-05T13:17:32Z</time></trkpt><trkpt lat="48.57444957736285" lon="-2.214627457861871"><ele>5.0</ele><time>2026-04-05T13:17:33Z</time></trkpt><trkpt lat="48.574411068414946" lon="-2.214740067137501"><ele>5.0</ele><time>2026-04-05T13:17:35Z</time></trkpt><trkpt lat="48.57435510787161" lon="-2.214852763226752"><ele>5.0</ele><time>2026-04-05T13:17:37Z</time></trkpt><trkpt lat="48.57428212176747" lon="-2.2149261819601884"><ele>6.0</ele><time>2026-04-05T13:17:39Z</time></trkpt><trkpt lat="48.57422594673907" lon="-2.2149827995179483"><ele>7.0</ele><time>2026-04-05T13:17:41Z</time></trkpt><trkpt lat="48.57420973101545" lon="-2.215085131829364"><ele>8.0</ele><time>2026-04-05T13:17:46Z</time></trkpt><trkpt lat="48.57424739808731" lon="-2.215207822871238"><ele>9.0</ele><time>2026-04-05T13:17:49Z</time></trkpt><trkpt lat="48.57428568629658" lon="-2.215289573457211"><ele>10.0</ele><time>2026-04-05T13:17:51Z</time></trkpt><trkpt lat="48.57429576819616" lon="-2.215394405621031"><ele>11.0</ele><time>2026-04-05T13:17:53Z</time></trkpt><trkpt lat="48.57432989758845" lon="-2.2155242398226345"><ele>11.0</ele><time>2026-04-05T13:17:56Z</time></trkpt><trkpt lat="48.5743372173644" lon="-2.21564161349719"><ele>11.0</ele><time>2026-04-05T13:17:58Z</time></trkpt><trkpt lat="48.57434743356915" lon="-2.215744992403181"><ele>11.0</ele><time>2026-04-05T13:18:00Z</time></trkpt><trkpt lat="48.57435219459376" lon="-2.215845682813721"><ele>11.0</ele><time>2026-04-05T13:18:02Z</time></trkpt><trkpt lat="48.57432143671657" lon="-2.2159664464425792"><ele>11.0</ele><time>2026-04-05T13:18:04Z</time></trkpt><trkpt lat="48.57432315029389" lon="-2.2161195550651414"><ele>11.0</ele><time>2026-04-05T13:18:08Z</time></trkpt><trkpt lat="48.57430531328994" lon="-2.2162158519877972"><ele>11.333333333333332</ele><time>2026-04-05T13:18:11Z</time></trkpt><trkpt lat="48.57427201957043" lon="-2.21630403849085"><ele>11.666666666666666</ele><time>2026-04-05T13:18:13Z</time></trkpt><trkpt lat="48.57424849925308" lon="-2.216474141901423"><ele>12.0</ele><time>2026-04-05T13:18:16Z</time></trkpt><trkpt lat="48.57420275807744" lon="-2.216561199718941"><ele>12.333333333333332</ele><time>2026-04-05T13:18:17Z</time></trkpt><trkpt lat="48.57412973055152" lon="-2.216686055284451"><ele>12.666666666666666</ele><time>2026-04-05T13:18:19Z</time></trkpt><trkpt lat="48.574142188802334" lon="-2.2167918817449133"><ele>13.0</ele><time>2026-04-05T13:18:21Z</time></trkpt><trkpt lat="48.574133803489154" lon="-2.2169048479267905"><ele>13.666666666666666</ele><time>2026-04-05T13:18:23Z</time></trkpt><trkpt lat="48.57413368083722" lon="-2.2170068619059258"><ele>14.333333333333332</ele><time>2026-04-05T13:18:25Z</time></trkpt><trkpt lat="48.57409467861507" lon="-2.2171067405992813"><ele>15.0</ele><time>2026-04-05T13:18:27Z</time></trkpt><trkpt lat="48.5740349359149" lon="-2.2171859598770425"><ele>15.666666666666668</ele><time>2026-04-05T13:18:28Z</time></trkpt><trkpt lat="48.573981346581185" lon="-2.217285177776351"><ele>16.333333333333336</ele><time>2026-04-05T13:18:30Z</time></trkpt><trkpt lat="48.5739635738699" lon="-2.2174033976393503"><ele>17.0</ele><time>2026-04-05T13:18:32Z</time></trkpt><trkpt lat="48.57394760407106" lon="-2.21752711610895"><ele>17.166666666666668</ele><time>2026-04-05T13:18:34Z</time></trkpt><trkpt lat="48.57395128362439" lon="-2.2176391935211157"><ele>17.333333333333336</ele><time>2026-04-05T13:18:36Z</time></trkpt><trkpt lat="48.57391336782269" lon="-2.2178164617783067"><ele>17.5</ele><time>2026-04-05T13:18:39Z</time></trkpt><trkpt lat="48.573865154045194" lon="-2.217909422354563"><ele>17.666666666666668</ele><time>2026-04-05T13:18:40Z</time></trkpt><trkpt lat="48.57382076531958" lon="-2.2180484860191565"><ele>17.833333333333332</ele><time>2026-04-05T13:18:42Z</time></trkpt><trkpt lat="48.57377060054849" lon="-2.218114904251673"><ele>18.0</ele><time>2026-04-05T13:18:43Z</time></trkpt><trkpt lat="48.57368228141453" lon="-2.218206809907217"><ele>17.142857142857146</ele><time>2026-04-05T13:18:45Z</time></trkpt><trkpt lat="48.5736493279333" lon="-2.2182925970582463"><ele>16.285714285714285</ele><time>2026-04-05T13:18:47Z</time></trkpt><trkpt lat="48.57361414709711" lon="-2.218374482362782"><ele>15.428571428571429</ele><time>2026-04-05T13:18:49Z</time></trkpt><trkpt lat="48.57355904967463" lon="-2.218440263360706"><ele>14.571428571428573</ele><time>2026-04-05T13:18:51Z</time></trkpt><trkpt lat="48.57351189456794" lon="-2.218554816871125"><ele>13.714285714285715</ele><time>2026-04-05T13:18:53Z</time></trkpt><trkpt lat="48.57346411892259" lon="-2.2186287521296193"><ele>12.857142857142856</ele><time>2026-04-05T13:18:55Z</time></trkpt><trkpt lat="48.57342927254094" lon="-2.218715337909557"><ele>12.0</ele><time>2026-04-05T13:18:57Z</time></trkpt><trkpt lat="48.57337469585849" lon="-2.218789436439619"><ele>12.0</ele><time>2026-04-05T13:18:59Z</time></trkpt><trkpt lat="48.573311269274754" lon="-2.218845432531838"><ele>12.0</ele><time>2026-04-05T13:19:01Z</time></trkpt><trkpt lat="48.57323937123883" lon="-2.218933251562986"><ele>12.0</ele><time>2026-04-05T13:19:03Z</time></trkpt><trkpt lat="48.573206461112306" lon="-2.219017648358731"><ele>12.0</ele><time>2026-04-05T13:19:05Z</time></trkpt><trkpt lat="48.573189724074965" lon="-2.2191244339292524"><ele>12.0</ele><time>2026-04-05T13:19:08Z</time></trkpt><trkpt lat="48.57315261314008" lon="-2.2192364433965874"><ele>12.0</ele><time>2026-04-05T13:19:10Z</time></trkpt><trkpt lat="48.57307051774282" lon="-2.2193130482336416"><ele>12.333333333333334</ele><time>2026-04-05T13:19:13Z</time></trkpt><trkpt lat="48.573002213128696" lon="-2.219389547910523"><ele>12.666666666666668</ele><time>2026-04-05T13:19:15Z</time></trkpt><trkpt lat="48.57292625891584" lon="-2.219472906737204"><ele>13.0</ele><time>2026-04-05T13:19:17Z</time></trkpt><trkpt lat="48.57287837117186" lon="-2.219540224001509"><ele>13.333333333333334</ele><time>2026-04-05T13:19:19Z</time></trkpt><trkpt lat="48.57281778052499" lon="-2.2195991037935907"><ele>13.666666666666668</ele><time>2026-04-05T13:19:21Z</time></trkpt><trkpt lat="48.572764413835536" lon="-2.2197176530460245"><ele>14.0</ele><time>2026-04-05T13:19:24Z</time></trkpt><trkpt lat="48.57272402388388" lon="-2.219873980879092"><ele>15.500000000000002</ele><time>2026-04-05T13:19:27Z</time></trkpt><trkpt lat="48.57267824854006" lon="-2.2199664323563026"><ele>17.0</ele><time>2026-04-05T13:19:29Z</time></trkpt><trkpt lat="48.57260990746314" lon="-2.220093256038502"><ele>18.5</ele><time>2026-04-05T13:19:32Z</time></trkpt><trkpt lat="48.572566358364206" lon="-2.220187371770904"><ele>20.0</ele><time>2026-04-05T13:19:34Z</time></trkpt><trkpt lat="48.57251020879821" lon="-2.220253931105364"><ele>21.5</ele><time>2026-04-05T13:19:36Z</time></trkpt><trkpt lat="48.57248129460552" lon="-2.2203449287584336"><ele>23.0</ele><time>2026-04-05T13:19:38Z</time></trkpt><trkpt lat="48.57243930917993" lon="-2.2204487215990545"><ele>23.0</ele><time>2026-04-05T13:19:40Z</time></trkpt><trkpt lat="48.572408024069304" lon="-2.2205504981319995"><ele>23.0</ele><time>2026-04-05T13:19:42Z</time></trkpt><trkpt lat="48.57240224162905" lon="-2.220656106550781"><ele>23.0</ele><time>2026-04-05T13:19:44Z</time></trkpt><trkpt lat="48.57237213736073" lon="-2.220763144593999"><ele>23.0</ele><time>2026-04-05T13:19:46Z</time></trkpt><trkpt lat="48.57236184165488" lon="-2.2208765366808976"><ele>23.0</ele><time>2026-04-05T13:19:48Z</time></trkpt><trkpt lat="48.57235630723417" lon="-2.2209713722266917"><ele>23.0</ele><time>2026-04-05T13:19:50Z</time></trkpt><trkpt lat="48.57233786066833" lon="-2.221066611187348"><ele>23.0</ele><time>2026-04-05T13:19:52Z</time></trkpt><trkpt lat="48.57238865274751" lon="-2.221181485979549"><ele>23.833333333333336</ele><time>2026-04-05T13:19:54Z</time></trkpt><trkpt lat="48.57234452053403" lon="-2.221274347562973"><ele>24.666666666666668</ele><time>2026-04-05T13:19:56Z</time></trkpt><trkpt lat="48.57234884244341" lon="-2.22139916994136"><ele>25.5</ele><time>2026-04-05T13:19:59Z</time></trkpt><trkpt lat="48.572338758194434" lon="-2.2215455940745823"><ele>26.333333333333336</ele><time>2026-04-05T13:20:01Z</time></trkpt><trkpt lat="48.572333901684814" lon="-2.2216519573172744"><ele>27.166666666666668</ele><time>2026-04-05T13:20:02Z</time></trkpt><trkpt lat="48.57230776683775" lon="-2.2218033708718306"><ele>28.0</ele><time>2026-04-05T13:20:04Z</time></trkpt><trkpt lat="48.57230347852663" lon="-2.2219365218395426"><ele>28.500000000000004</ele><time>2026-04-05T13:20:07Z</time></trkpt><trkpt lat="48.57231304290374" lon="-2.222043555630528"><ele>29.0</ele><time>2026-04-05T13:20:09Z</time></trkpt><trkpt lat="48.57235199891567" lon="-2.2221439750808645"><ele>29.5</ele><time>2026-04-05T13:20:10Z</time></trkpt><trkpt lat="48.57237113644558" lon="-2.2222884294461176"><ele>30.0</ele><time>2026-04-05T13:20:13Z</time></trkpt><trkpt lat="48.57238066792581" lon="-2.222407029455819"><ele>30.500000000000004</ele><time>2026-04-05T13:20:15Z</time></trkpt><trkpt lat="48.572418615621125" lon="-2.2225057661480148"><ele>31.0</ele><time>2026-04-05T13:20:17Z</time></trkpt><trkpt lat="48.57242357445803" lon="-2.222612944773877"><ele>31.166666666666668</ele><time>2026-04-05T13:20:19Z</time></trkpt><trkpt lat="48.57242724915098" lon="-2.2227343174031406"><ele>31.333333333333336</ele><time>2026-04-05T13:20:21Z</time></trkpt><trkpt lat="48.57243244338726" lon="-2.222874213683316"><ele>31.5</ele><time>2026-04-05T13:20:23Z</time></trkpt><trkpt lat="48.57242115025996" lon="-2.223006417726703"><ele>31.666666666666664</ele><time>2026-04-05T13:20:25Z</time></trkpt><trkpt lat="48.57244151434051" lon="-2.223123153787954"><ele>31.833333333333332</ele><time>2026-04-05T13:20:27Z</time></trkpt><trkpt lat="48.57242247233787" lon="-2.2232295034900913"><ele>32.0</ele><time>2026-04-05T13:20:29Z</time></trkpt><trkpt lat="48.57239385142617" lon="-2.223319061258895"><ele>32.33333333333333</ele><time>2026-04-05T13:20:31Z</time></trkpt><trkpt lat="48.572396003518" lon="-2.2234296175525863"><ele>32.666666666666664</ele><time>2026-04-05T13:20:33Z</time></trkpt><trkpt lat="48.57240788730908" lon="-2.2235316596837533"><ele>33.0</ele><time>2026-04-05T13:20:35Z</time></trkpt><trkpt lat="48.572362771829745" lon="-2.2236327199229"><ele>33.333333333333336</ele><time>2026-04-05T13:20:37Z</time></trkpt><trkpt lat="48.57231864038525" lon="-2.2237136720093025"><ele>33.66666666666667</ele><time>2026-04-05T13:20:39Z</time></trkpt><trkpt lat="48.57225673938159" lon="-2.2238035846525053"><ele>34.0</ele><time>2026-04-05T13:20:41Z</time></trkpt><trkpt lat="48.57225468060935" lon="-2.2239160451545823"><ele>34.333333333333336</ele><time>2026-04-05T13:20:43Z</time></trkpt><trkpt lat="48.57221691964749" lon="-2.224025240570813"><ele>34.66666666666667</ele><time>2026-04-05T13:20:46Z</time></trkpt><trkpt lat="48.572208998534826" lon="-2.224153051477922"><ele>35.0</ele><time>2026-04-05T13:20:49Z</time></trkpt><trkpt lat="48.57217428366359" lon="-2.2242354200889145"><ele>35.333333333333336</ele><time>2026-04-05T13:20:51Z</time></trkpt><trkpt lat="48.57215218141656" lon="-2.224356378190478"><ele>35.666666666666664</ele><time>2026-04-05T13:20:54Z</time></trkpt><trkpt lat="48.57215400405309" lon="-2.2244923718855314"><ele>36.0</ele><time>2026-04-05T13:20:56Z</time></trkpt><trkpt lat="48.572155395508275" lon="-2.2245974184493456"><ele>36.0</ele><time>2026-04-05T13:20:58Z</time></trkpt><trkpt lat="48.57210829818877" lon="-2.2247107782618274"><ele>36.0</ele><time>2026-04-05T13:21:01Z</time></trkpt><trkpt lat="48.572049183038864" lon="-2.224792932640505"><ele>36.0</ele><time>2026-04-05T13:21:03Z</time></trkpt><trkpt lat="48.57203760543214" lon="-2.2248922744464967"><ele>36.0</ele><time>2026-04-05T13:21:05Z</time></trkpt><trkpt lat="48.57201606205169" lon="-2.2249925037896947"><ele>36.0</ele><time>2026-04-05T13:21:07Z</time></trkpt><trkpt lat="48.572023271394734" lon="-2.2251307926730868"><ele>36.0</ele><time>2026-04-05T13:21:10Z</time></trkpt><trkpt lat="48.57202219495479" lon="-2.225237347683898"><ele>35.5</ele><time>2026-04-05T13:21:12Z</time></trkpt><trkpt lat="48.57201129205443" lon="-2.225341208821609"><ele>35.0</ele><time>2026-04-05T13:21:14Z</time></trkpt><trkpt lat="48.572025782354444" lon="-2.225447943041393"><ele>34.5</ele><time>2026-04-05T13:21:16Z</time></trkpt><trkpt lat="48.572024113810045" lon="-2.225578653468188"><ele>34.0</ele><time>2026-04-05T13:21:19Z</time></trkpt><trkpt lat="48.57200675465484" lon="-2.2256749479991926"><ele>33.5</ele><time>2026-04-05T13:21:21Z</time></trkpt><trkpt lat="48.57199338254052" lon="-2.2258291968918416"><ele>33.0</ele><time>2026-04-05T13:21:24Z</time></trkpt><trkpt lat="48.57194170178139" lon="-2.225936124825693"><ele>34.333333333333336</ele><time>2026-04-05T13:21:26Z</time></trkpt><trkpt lat="48.57195379707459" lon="-2.226039219069911"><ele>35.666666666666664</ele><time>2026-04-05T13:21:28Z</time></trkpt><trkpt lat="48.571946304016244" lon="-2.226138189218591"><ele>37.0</ele><time>2026-04-05T13:21:30Z</time></trkpt><trkpt lat="48.57189568599274" lon="-2.226269258434968"><ele>38.33333333333333</ele><time>2026-04-05T13:21:33Z</time></trkpt><trkpt lat="48.57186921770056" lon="-2.2263586290161403"><ele>39.666666666666664</ele><time>2026-04-05T13:21:35Z</time></trkpt><trkpt lat="48.57186166706072" lon="-2.2264757230154606"><ele>41.0</ele><time>2026-04-05T13:21:37Z</time></trkpt><trkpt lat="48.57186049168087" lon="-2.2265857089131074"><ele>41.0</ele><time>2026-04-05T13:21:39Z</time></trkpt><trkpt lat="48.57188240601414" lon="-2.2267258176528792"><ele>41.0</ele><time>2026-04-05T13:21:42Z</time></trkpt><trkpt lat="48.571890716742274" lon="-2.2268232968614137"><ele>41.0</ele><time>2026-04-05T13:21:44Z</time></trkpt><trkpt lat="48.571871313567414" lon="-2.2269972743286237"><ele>41.0</ele><time>2026-04-05T13:21:47Z</time></trkpt><trkpt lat="48.57184082317969" lon="-2.2271085434035154"><ele>41.0</ele><time>2026-04-05T13:21:49Z</time></trkpt><trkpt lat="48.5718557108855" lon="-2.2272440913258422"><ele>41.0</ele><time>2026-04-05T13:21:52Z</time></trkpt><trkpt lat="48.57181697871519" lon="-2.227361939978654"><ele>40.666666666666664</ele><time>2026-04-05T13:21:55Z</time></trkpt><trkpt lat="48.571797599656975" lon="-2.227468879822824"><ele>40.33333333333333</ele><time>2026-04-05T13:21:57Z</time></trkpt><trkpt lat="48.57182324368713" lon="-2.227576979589232"><ele>40.0</ele><time>2026-04-05T13:21:59Z</time></trkpt><trkpt lat="48.571824790426184" lon="-2.2277031737866455"><ele>39.666666666666664</ele><time>2026-04-05T13:22:01Z</time></trkpt><trkpt lat="48.57188517740874" lon="-2.2278496649921444"><ele>39.333333333333336</ele><time>2026-04-05T13:22:03Z</time></trkpt><trkpt lat="48.57191783212903" lon="-2.2279574510757945"><ele>39.0</ele><time>2026-04-05T13:22:05Z</time></trkpt><trkpt lat="48.57199190302159" lon="-2.228101775479646"><ele>39.833333333333336</ele><time>2026-04-05T13:22:07Z</time></trkpt><trkpt lat="48.572043421105725" lon="-2.228168864363428"><ele>40.666666666666664</ele><time>2026-04-05T13:22:09Z</time></trkpt><trkpt lat="48.57211838817096" lon="-2.2282654818674232"><ele>41.5</ele><time>2026-04-05T13:22:11Z</time></trkpt><trkpt lat="48.572167328490444" lon="-2.2283660937353384"><ele>42.33333333333333</ele><time>2026-04-05T13:22:13Z</time></trkpt><trkpt lat="48.57222181591932" lon="-2.2284529198320198"><ele>43.166666666666664</ele><time>2026-04-05T13:22:15Z</time></trkpt><trkpt lat="48.57229479066447" lon="-2.2285085768416244"><ele>44.0</ele><time>2026-04-05T13:22:17Z</time></trkpt><trkpt lat="48.57234462613512" lon="-2.22859307046979"><ele>44.0</ele><time>2026-04-05T13:22:18.999Z</time></trkpt><trkpt lat="48.57240363747441" lon="-2.2286420181351962"><ele>44.0</ele><time>2026-04-05T13:22:20.999Z</time></trkpt><trkpt lat="48.572478704874875" lon="-2.228671461181568"><ele>44.0</ele><time>2026-04-05T13:22:22.999Z</time></trkpt><trkpt lat="48.57253707355337" lon="-2.2287442149905154"><ele>44.0</ele><time>2026-04-05T13:22:24.999Z</time></trkpt><trkpt lat="48.57259670362282" lon="-2.2287987716739375"><ele>44.0</ele><time>2026-04-05T13:22:27Z</time></trkpt><trkpt lat="48.572661486130045" lon="-2.228843105605062"><ele>44.0</ele><time>2026-04-05T13:22:29Z</time></trkpt><trkpt lat="48.572711881357094" lon="-2.2289661832748418"><ele>43.83333333333333</ele><time>2026-04-05T13:22:32Z</time></trkpt><trkpt lat="48.57284559161532" lon="-2.2290361622099324"><ele>43.666666666666664</ele><time>2026-04-05T13:22:36Z</time></trkpt><trkpt lat="48.57290013174494" lon="-2.2290903672327267"><ele>43.5</ele><time>2026-04-05T13:22:38Z</time></trkpt><trkpt lat="48.57295267965167" lon="-2.2291557397597774"><ele>43.333333333333336</ele><time>2026-04-05T13:22:40Z</time></trkpt><trkpt lat="48.57301845158162" lon="-2.2291948916544966"><ele>43.16666666666667</ele><time>2026-04-05T13:22:42Z</time></trkpt><trkpt lat="48.573096115429976" lon="-2.2292754224007116"><ele>43.0</ele><time>2026-04-05T13:22:44Z</time></trkpt><trkpt lat="48.57317429376104" lon="-2.229319156541309"><ele>43.00000000000001</ele><time>2026-04-05T13:22:45Z</time></trkpt><trkpt lat="48.573245013101484" lon="-2.229359786055305"><ele>43.0</ele><time>2026-04-05T13:22:46Z</time></trkpt><trkpt lat="48.57330470975607" lon="-2.229395953442296"><ele>43.0</ele><time>2026-04-05T13:22:47Z</time></trkpt><trkpt lat="48.57336599223256" lon="-2.2294404813727207"><ele>43.0</ele><time>2026-04-05T13:22:48Z</time></trkpt><trkpt lat="48.573431681874865" lon="-2.2294895454487698"><ele>43.0</ele><time>2026-04-05T13:22:49Z</time></trkpt><trkpt lat="48.57351868248078" lon="-2.2295162530179637"><ele>43.00000000000001</ele><time>2026-04-05T13:22:50Z</time></trkpt><trkpt lat="48.57359133457805" lon="-2.2295454179892054"><ele>43.0</ele><time>2026-04-05T13:22:51Z</time></trkpt><trkpt lat="48.57366003730742" lon="-2.229568339359512"><ele>43.599999999999994</ele><time>2026-04-05T13:22:52Z</time></trkpt><trkpt lat="48.57372588349476" lon="-2.2295953904626864"><ele>44.199999999999996</ele><time>2026-04-05T13:22:53Z</time></trkpt><trkpt lat="48.57379467809642" lon="-2.2296180978249676"><ele>44.8</ele><time>2026-04-05T13:22:54Z</time></trkpt><trkpt lat="48.573923514471524" lon="-2.229654750226227"><ele>45.4</ele><time>2026-04-05T13:22:56Z</time></trkpt><trkpt lat="48.57406407094759" lon="-2.229723682870475"><ele>46.0</ele><time>2026-04-05T13:22:58Z</time></trkpt><trkpt lat="48.574183434262174" lon="-2.22974630512989"><ele>46.0</ele><time>2026-04-05T13:23:00Z</time></trkpt><trkpt lat="48.57429766894684" lon="-2.2297739509634584"><ele>46.0</ele><time>2026-04-05T13:23:02Z</time></trkpt><trkpt lat="48.57439997626535" lon="-2.229811452678965"><ele>46.0</ele><time>2026-04-05T13:23:04Z</time></trkpt><trkpt lat="48.57446517353964" lon="-2.2298215732484565"><ele>46.0</ele><time>2026-04-05T13:23:05Z</time></trkpt><trkpt lat="48.57453237485544" lon="-2.2298389059482067"><ele>46.0</ele><time>2026-04-05T13:23:07Z</time></trkpt><trkpt lat="48.5746118095385" lon="-2.2298465449234786"><ele>46.0</ele><time>2026-04-05T13:23:10Z</time></trkpt><trkpt lat="48.574682919871364" lon="-2.229898089480865"><ele>45.42857142857143</ele><time>2026-04-05T13:23:12Z</time></trkpt><trkpt lat="48.57475098653373" lon="-2.2299298924575326"><ele>44.857142857142854</ele><time>2026-04-05T13:23:14Z</time></trkpt><trkpt lat="48.57482881038798" lon="-2.2299388620538902"><ele>44.285714285714285</ele><time>2026-04-05T13:23:16Z</time></trkpt><trkpt lat="48.574896951894914" lon="-2.2299456779589053"><ele>43.714285714285715</ele><time>2026-04-05T13:23:18Z</time></trkpt><trkpt lat="48.57497441539074" lon="-2.229988038430726"><ele>43.14285714285714</ele><time>2026-04-05T13:23:20Z</time></trkpt><trkpt lat="48.57504436486123" lon="-2.2300263964137033"><ele>42.57142857142857</ele><time>2026-04-05T13:23:21Z</time></trkpt><trkpt lat="48.57510828809679" lon="-2.2300514183710543"><ele>42.0</ele><time>2026-04-05T13:23:22Z</time></trkpt><trkpt lat="48.575243421835665" lon="-2.2300749527769237"><ele>42.0</ele><time>2026-04-05T13:23:24Z</time></trkpt><trkpt lat="48.57535196007832" lon="-2.2302011978103367"><ele>42.0</ele><time>2026-04-05T13:23:26Z</time></trkpt><trkpt lat="48.57542092786202" lon="-2.230247276119246"><ele>42.0</ele><time>2026-04-05T13:23:27Z</time></trkpt><trkpt lat="48.57549090275321" lon="-2.2302556126174866"><ele>42.0</ele><time>2026-04-05T13:23:28Z</time></trkpt><trkpt lat="48.575593727967004" lon="-2.2302418957981214"><ele>42.0</ele><time>2026-04-05T13:23:30Z</time></trkpt><trkpt lat="48.575694609234915" lon="-2.2302480857385953"><ele>42.6</ele><time>2026-04-05T13:23:32Z</time></trkpt><trkpt lat="48.57575854138045" lon="-2.2302714249283606"><ele>43.2</ele><time>2026-04-05T13:23:33Z</time></trkpt><trkpt lat="48.5758721916731" lon="-2.230294328037822"><ele>43.8</ele><time>2026-04-05T13:23:35Z</time></trkpt><trkpt lat="48.5759821811653" lon="-2.230321594811581"><ele>44.4</ele><time>2026-04-05T13:23:37Z</time></trkpt><trkpt lat="48.57609355475974" lon="-2.230357561201641"><ele>45.0</ele><time>2026-04-05T13:23:39Z</time></trkpt><trkpt lat="48.576198216874054" lon="-2.230409920353857"><ele>45.2</ele><time>2026-04-05T13:23:41Z</time></trkpt><trkpt lat="48.576306218483715" lon="-2.2304753460508207"><ele>45.4</ele><time>2026-04-05T13:23:43Z</time></trkpt><trkpt lat="48.57640664053186" lon="-2.2305531489825348"><ele>45.599999999999994</ele><time>2026-04-05T13:23:45Z</time></trkpt><trkpt lat="48.57649343524477" lon="-2.2306372856965444"><ele>45.8</ele><time>2026-04-05T13:23:47Z</time></trkpt><trkpt lat="48.57659581821601" lon="-2.2307052267348833"><ele>46.0</ele><time>2026-04-05T13:23:49Z</time></trkpt><trkpt lat="48.57669413837409" lon="-2.2307924360034086"><ele>46.0</ele><time>2026-04-05T13:23:51Z</time></trkpt><trkpt lat="48.57676750639301" lon="-2.230867454881293"><ele>46.0</ele><time>2026-04-05T13:23:53Z</time></trkpt><trkpt lat="48.57683729181117" lon="-2.230941219637057"><ele>46.0</ele><time>2026-04-05T13:23:55Z</time></trkpt><trkpt lat="48.576897086959" lon="-2.2310100254577176"><ele>46.0</ele><time>2026-04-05T13:23:57Z</time></trkpt><trkpt lat="48.57696365899591" lon="-2.2310734565705688"><ele>46.0</ele><time>2026-04-05T13:23:59Z</time></trkpt><trkpt lat="48.57704130269727" lon="-2.2311747675501947"><ele>46.0</ele><time>2026-04-05T13:24:03Z</time></trkpt><trkpt lat="48.577096475954875" lon="-2.231228083969873"><ele>46.0</ele><time>2026-04-05T13:24:07Z</time></trkpt><trkpt lat="48.57717707689117" lon="-2.231270530375693"><ele>46.0</ele><time>2026-04-05T13:24:10Z</time></trkpt><trkpt lat="48.57725602609515" lon="-2.2313715830589267"><ele>46.0</ele><time>2026-04-05T13:24:12Z</time></trkpt><trkpt lat="48.57734418524425" lon="-2.2314565453531854"><ele>46.0</ele><time>2026-04-05T13:24:14Z</time></trkpt><trkpt lat="48.57743033373739" lon="-2.2315296706605916"><ele>46.0</ele><time>2026-04-05T13:24:15.999Z</time></trkpt><trkpt lat="48.57750063668365" lon="-2.2316004765704367"><ele>45.833333333333336</ele><time>2026-04-05T13:24:18.999Z</time></trkpt><trkpt lat="48.577561246567136" lon="-2.2316443471261387"><ele>45.66666666666667</ele><time>2026-04-05T13:24:20.999Z</time></trkpt><trkpt lat="48.57761151795768" lon="-2.2317513790672043"><ele>45.5</ele><time>2026-04-05T13:24:23.999Z</time></trkpt><trkpt lat="48.57768257098122" lon="-2.231809896466327"><ele>45.333333333333336</ele><time>2026-04-05T13:24:25.999Z</time></trkpt><trkpt lat="48.577738696254684" lon="-2.231855616281881"><ele>45.166666666666664</ele><time>2026-04-05T13:24:27.999Z</time></trkpt><trkpt lat="48.577797190488084" lon="-2.231953564602362"><ele>45.0</ele><time>2026-04-05T13:24:29.999Z</time></trkpt><trkpt lat="48.5778496788615" lon="-2.2320380194294227"><ele>45.5</ele><time>2026-04-05T13:24:33Z</time></trkpt><trkpt lat="48.57792516026871" lon="-2.2321014907522545"><ele>46.0</ele><time>2026-04-05T13:24:35Z</time></trkpt><trkpt lat="48.57799268191338" lon="-2.2321744011301363"><ele>46.5</ele><time>2026-04-05T13:24:37Z</time></trkpt><trkpt lat="48.578093381917114" lon="-2.232238297496536"><ele>47.0</ele><time>2026-04-05T13:24:39Z</time></trkpt><trkpt lat="48.578164913088486" lon="-2.232297217524279"><ele>47.5</ele><time>2026-04-05T13:24:41Z</time></trkpt><trkpt lat="48.578238672863634" lon="-2.2323698266426013"><ele>48.0</ele><time>2026-04-05T13:24:43Z</time></trkpt><trkpt lat="48.578325328969555" lon="-2.2324448103791594"><ele>48.2</ele><time>2026-04-05T13:24:45Z</time></trkpt><trkpt lat="48.57841555355811" lon="-2.232549948499914"><ele>48.4</ele><time>2026-04-05T13:24:48Z</time></trkpt><trkpt lat="48.57848449161522" lon="-2.232663291294856"><ele>48.6</ele><time>2026-04-05T13:24:51Z</time></trkpt><trkpt lat="48.57856950822935" lon="-2.2327644491008423"><ele>48.800000000000004</ele><time>2026-04-05T13:24:54Z</time></trkpt><trkpt lat="48.578655077349445" lon="-2.2328782918155836"><ele>49.0</ele><time>2026-04-05T13:24:57Z</time></trkpt><trkpt lat="48.57872452969794" lon="-2.2329774363709003"><ele>49.33333333333333</ele><time>2026-04-05T13:25:00Z</time></trkpt><trkpt lat="48.57880044209615" lon="-2.2330550790557586"><ele>49.666666666666664</ele><time>2026-04-05T13:25:02Z</time></trkpt><trkpt lat="48.57885977151602" lon="-2.2331333097258117"><ele>50.0</ele><time>2026-04-05T13:25:05Z</time></trkpt><trkpt lat="48.57891282623528" lon="-2.23322497356566"><ele>50.33333333333333</ele><time>2026-04-05T13:25:07Z</time></trkpt><trkpt lat="48.578974268851745" lon="-2.2333246743300537"><ele>50.666666666666664</ele><time>2026-04-05T13:25:10Z</time></trkpt><trkpt lat="48.57905350748176" lon="-2.2333727145458293"><ele>51.0</ele><time>2026-04-05T13:25:13Z</time></trkpt><trkpt lat="48.579118348193" lon="-2.23344306801041"><ele>51.0</ele><time>2026-04-05T13:25:15Z</time></trkpt><trkpt lat="48.579186652240665" lon="-2.2335234091253633"><ele>51.0</ele><time>2026-04-05T13:25:17Z</time></trkpt><trkpt lat="48.57923671229702" lon="-2.2335936726799677"><ele>51.0</ele><time>2026-04-05T13:25:20Z</time></trkpt><trkpt lat="48.579288458046484" lon="-2.2336574710499204"><ele>51.0</ele><time>2026-04-05T13:25:22Z</time></trkpt><trkpt lat="48.57935251103617" lon="-2.2337362194838697"><ele>51.0</ele><time>2026-04-05T13:25:25Z</time></trkpt><trkpt lat="48.5793952399956" lon="-2.23381754399526"><ele>51.0</ele><time>2026-04-05T13:25:27Z</time></trkpt><trkpt lat="48.57945465369083" lon="-2.2338806497430763"><ele>51.0</ele><time>2026-04-05T13:25:29Z</time></trkpt><trkpt lat="48.57953662979578" lon="-2.2339358542692977"><ele>51.5</ele><time>2026-04-05T13:25:32Z</time></trkpt><trkpt lat="48.57962128423717" lon="-2.2340046555382727"><ele>52.0</ele><time>2026-04-05T13:25:35Z</time></trkpt><trkpt lat="48.579662741585494" lon="-2.2340767826945025"><ele>52.5</ele><time>2026-04-05T13:25:37Z</time></trkpt><trkpt lat="48.579734673301" lon="-2.2341392699028684"><ele>53.0</ele><time>2026-04-05T13:25:40Z</time></trkpt><trkpt lat="48.57981029029441" lon="-2.234188887045319"><ele>53.5</ele><time>2026-04-05T13:25:42Z</time></trkpt><trkpt lat="48.57989119645194" lon="-2.2342837488465985"><ele>54.0</ele><time>2026-04-05T13:25:46Z</time></trkpt><trkpt lat="48.57998333713114" lon="-2.2343699154648133"><ele>54.0</ele><time>2026-04-05T13:25:48Z</time></trkpt><trkpt lat="48.58007949624266" lon="-2.2344323953515826"><ele>54.0</ele><time>2026-04-05T13:25:50Z</time></trkpt><trkpt lat="48.58017554364984" lon="-2.2345072401398896"><ele>54.0</ele><time>2026-04-05T13:25:52Z</time></trkpt><trkpt lat="48.58023923128952" lon="-2.234558496804677"><ele>54.0</ele><time>2026-04-05T13:25:53Z</time></trkpt><trkpt lat="48.58029614811244" lon="-2.234603147698055"><ele>54.0</ele><time>2026-04-05T13:25:54Z</time></trkpt><trkpt lat="48.58035807331671" lon="-2.234647750611279"><ele>54.0</ele><time>2026-04-05T13:25:55Z</time></trkpt><trkpt lat="48.58042109546821" lon="-2.234703982014546"><ele>54.6</ele><time>2026-04-05T13:25:56Z</time></trkpt><trkpt lat="48.5804836972662" lon="-2.234746888375953"><ele>55.2</ele><time>2026-04-05T13:25:57Z</time></trkpt><trkpt lat="48.580548293762725" lon="-2.234800191761414"><ele>55.800000000000004</ele><time>2026-04-05T13:25:58Z</time></trkpt><trkpt lat="48.58060755702811" lon="-2.2348525833171218"><ele>56.400000000000006</ele><time>2026-04-05T13:25:59Z</time></trkpt><trkpt lat="48.58067179081174" lon="-2.234917681621166"><ele>57.0</ele><time>2026-04-05T13:26:01Z</time></trkpt><trkpt lat="48.58088219402267" lon="-2.235088701996748"><ele>57.0</ele><time>2026-04-05T13:26:03Z</time></trkpt><trkpt lat="48.58100064172294" lon="-2.2351903051212316"><ele>57.0</ele><time>2026-04-05T13:26:05Z</time></trkpt><trkpt lat="48.58110209325923" lon="-2.2352540512178276"><ele>57.0</ele><time>2026-04-05T13:26:07Z</time></trkpt><trkpt lat="48.581161334715915" lon="-2.2353030914463448"><ele>57.0</ele><time>2026-04-05T13:26:09Z</time></trkpt><trkpt lat="48.58124310198223" lon="-2.2353983143400273"><ele>57.0</ele><time>2026-04-05T13:26:11Z</time></trkpt><trkpt lat="48.58132148742674" lon="-2.235511994587923"><ele>56.0</ele><time>2026-04-05T13:26:13.999Z</time></trkpt><trkpt lat="48.58174140482515" lon="-2.235902740898762"><ele>56.0</ele><time>2026-04-05T13:26:16.999Z</time></trkpt><trkpt lat="48.581794979474395" lon="-2.236006245690808"><ele>55.99999999999999</ele><time>2026-04-05T13:26:18.999Z</time></trkpt><trkpt lat="48.58185688334109" lon="-2.2361152026637177"><ele>55.99999999999999</ele><time>2026-04-05T13:26:20.999Z</time></trkpt><trkpt lat="48.58191419187362" lon="-2.2362137251988456"><ele>56.0</ele><time>2026-04-05T13:26:22.999Z</time></trkpt><trkpt lat="48.58197694172742" lon="-2.2363185836567547"><ele>56.0</ele><time>2026-04-05T13:26:24.999Z</time></trkpt><trkpt lat="48.58203683099329" lon="-2.2364313404709244"><ele>56.16666666666667</ele><time>2026-04-05T13:26:26.999Z</time></trkpt><trkpt lat="48.58209472323677" lon="-2.2365404301276834"><ele>56.333333333333336</ele><time>2026-04-05T13:26:28.999Z</time></trkpt><trkpt lat="48.582147506626676" lon="-2.2366543347989714"><ele>56.5</ele><time>2026-04-05T13:26:30.999Z</time></trkpt><trkpt lat="48.58220032607708" lon="-2.236761459989403"><ele>56.66666666666667</ele><time>2026-04-05T13:26:32.999Z</time></trkpt><trkpt lat="48.58223678554536" lon="-2.236844349289936"><ele>56.833333333333336</ele><time>2026-04-05T13:26:34.999Z</time></trkpt><trkpt lat="48.58227482891092" lon="-2.236934241409539"><ele>57.0</ele><time>2026-04-05T13:26:38Z</time></trkpt><trkpt lat="48.58230552510749" lon="-2.2370829501678275"><ele>57.0</ele><time>2026-04-05T13:26:41Z</time></trkpt><trkpt lat="48.582332994830104" lon="-2.2371917922667874"><ele>57.0</ele><time>2026-04-05T13:26:44Z</time></trkpt><trkpt lat="48.58238820754084" lon="-2.2373126024734202"><ele>57.0</ele><time>2026-04-05T13:26:46Z</time></trkpt><trkpt lat="48.582420192900216" lon="-2.2373968305957765"><ele>57.0</ele><time>2026-04-05T13:26:48Z</time></trkpt><trkpt lat="48.58245843077445" lon="-2.2375005834539614"><ele>57.0</ele><time>2026-04-05T13:26:49Z</time></trkpt><trkpt lat="48.582487598810665" lon="-2.2375887580090468"><ele>57.0</ele><time>2026-04-05T13:26:50Z</time></trkpt><trkpt lat="48.582543178464014" lon="-2.2377647494176145"><ele>57.0</ele><time>2026-04-05T13:26:52Z</time></trkpt><trkpt lat="48.582595138551525" lon="-2.237937780478048"><ele>57.0</ele><time>2026-04-05T13:26:54Z</time></trkpt><trkpt lat="48.5826403137738" lon="-2.2380963061799597"><ele>57.0</ele><time>2026-04-05T13:26:56Z</time></trkpt><trkpt lat="48.58268399557312" lon="-2.238253039988412"><ele>57.0</ele><time>2026-04-05T13:26:58Z</time></trkpt><trkpt lat="48.58272853987429" lon="-2.238413096712534"><ele>57.0</ele><time>2026-04-05T13:27:00Z</time></trkpt><trkpt lat="48.582766157730994" lon="-2.2385483671476707"><ele>57.0</ele><time>2026-04-05T13:27:02Z</time></trkpt><trkpt lat="48.58280074819228" lon="-2.238672751291109"><ele>57.0</ele><time>2026-04-05T13:27:04Z</time></trkpt><trkpt lat="48.58283599688451" lon="-2.2387862064679553"><ele>57.0</ele><time>2026-04-05T13:27:05Z</time></trkpt><trkpt lat="48.5828755293069" lon="-2.2389260333674255"><ele>57.0</ele><time>2026-04-05T13:27:07Z</time></trkpt><trkpt lat="48.58291396875187" lon="-2.239069435245245"><ele>56.8</ele><time>2026-04-05T13:27:09Z</time></trkpt><trkpt lat="48.58293927882064" lon="-2.239170894351332"><ele>56.6</ele><time>2026-04-05T13:27:11Z</time></trkpt><trkpt lat="48.582980628259016" lon="-2.2393195829587573"><ele>56.39999999999999</ele><time>2026-04-05T13:27:13Z</time></trkpt><trkpt lat="48.58303110301404" lon="-2.2395047429165"><ele>56.199999999999996</ele><time>2026-04-05T13:27:15Z</time></trkpt><trkpt lat="48.58306428010341" lon="-2.239632777864048"><ele>56.0</ele><time>2026-04-05T13:27:17Z</time></trkpt><trkpt lat="48.58310077569641" lon="-2.2398078775959243"><ele>55.8</ele><time>2026-04-05T13:27:19Z</time></trkpt><trkpt lat="48.583155541326654" lon="-2.239918407080649"><ele>55.599999999999994</ele><time>2026-04-05T13:27:21Z</time></trkpt><trkpt lat="48.58318945447903" lon="-2.2400610052337813"><ele>55.4</ele><time>2026-04-05T13:27:23Z</time></trkpt><trkpt lat="48.58323185862258" lon="-2.240208460595831"><ele>55.2</ele><time>2026-04-05T13:27:25Z</time></trkpt><trkpt lat="48.58327906026893" lon="-2.2403588514278563"><ele>55.0</ele><time>2026-04-05T13:27:27Z</time></trkpt><trkpt lat="48.58330579920231" lon="-2.240528597457019"><ele>55.4</ele><time>2026-04-05T13:27:29Z</time></trkpt><trkpt lat="48.583349324403684" lon="-2.2406726015694187"><ele>55.8</ele><time>2026-04-05T13:27:31Z</time></trkpt><trkpt lat="48.5833959424006" lon="-2.240817557538447"><ele>56.2</ele><time>2026-04-05T13:27:33Z</time></trkpt><trkpt lat="48.58342860551435" lon="-2.2409614199519257"><ele>56.6</ele><time>2026-04-05T13:27:35Z</time></trkpt><trkpt lat="48.58343702997232" lon="-2.2410559904851186"><ele>57.0</ele><time>2026-04-05T13:27:36Z</time></trkpt><trkpt lat="48.58349851801738" lon="-2.2412129209938403"><ele>57.0</ele><time>2026-04-05T13:27:38Z</time></trkpt><trkpt lat="48.58354390558227" lon="-2.2413752536673823"><ele>57.0</ele><time>2026-04-05T13:27:40Z</time></trkpt><trkpt lat="48.58358524887253" lon="-2.241523121691373"><ele>57.0</ele><time>2026-04-05T13:27:42Z</time></trkpt><trkpt lat="48.5836101932565" lon="-2.2416762680773354"><ele>57.0</ele><time>2026-04-05T13:27:44Z</time></trkpt><trkpt lat="48.58365904935089" lon="-2.241788083631707"><ele>57.0</ele><time>2026-04-05T13:27:46Z</time></trkpt><trkpt lat="48.58368942584901" lon="-2.24189793297305"><ele>56.400000000000006</ele><time>2026-04-05T13:27:48Z</time></trkpt><trkpt lat="48.58372114626308" lon="-2.2420136671745245"><ele>55.800000000000004</ele><time>2026-04-05T13:27:50Z</time></trkpt><trkpt lat="48.58374877615383" lon="-2.242170056054679"><ele>55.2</ele><time>2026-04-05T13:27:52Z</time></trkpt><trkpt lat="48.58380114034123" lon="-2.242307665856588"><ele>54.6</ele><time>2026-04-05T13:27:54Z</time></trkpt><trkpt lat="48.583841835052034" lon="-2.242457229255919"><ele>54.0</ele><time>2026-04-05T13:27:56Z</time></trkpt><trkpt lat="48.58388419288958" lon="-2.2426129051106503"><ele>53.75</ele><time>2026-04-05T13:27:58Z</time></trkpt><trkpt lat="48.5839259836103" lon="-2.242766496759096"><ele>53.5</ele><time>2026-04-05T13:28:00Z</time></trkpt><trkpt lat="48.583969417358176" lon="-2.24292612677614"><ele>53.25</ele><time>2026-04-05T13:28:02Z</time></trkpt><trkpt lat="48.58401308378401" lon="-2.2430866119804227"><ele>53.0</ele><time>2026-04-05T13:28:04Z</time></trkpt><trkpt lat="48.584042773835215" lon="-2.243255909396271"><ele>53.0</ele><time>2026-04-05T13:28:06Z</time></trkpt><trkpt lat="48.58410118698982" lon="-2.243408242514663"><ele>53.0</ele><time>2026-04-05T13:28:08Z</time></trkpt><trkpt lat="48.58414626450614" lon="-2.2435699708166754"><ele>53.0</ele><time>2026-04-05T13:28:09.999Z</time></trkpt><trkpt lat="48.584176628486816" lon="-2.2437432003473954"><ele>53.0</ele><time>2026-04-05T13:28:11.999Z</time></trkpt><trkpt lat="48.58423688037176" lon="-2.243895080745943"><ele>53.0</ele><time>2026-04-05T13:28:13.999Z</time></trkpt><trkpt lat="48.58428188448189" lon="-2.244056544800811"><ele>53.0</ele><time>2026-04-05T13:28:15.999Z</time></trkpt><trkpt lat="48.58432396950776" lon="-2.2442292204733527"><ele>53.0</ele><time>2026-04-05T13:28:17.999Z</time></trkpt><trkpt lat="48.58437402925238" lon="-2.244387140149651"><ele>53.0</ele><time>2026-04-05T13:28:19.999Z</time></trkpt><trkpt lat="48.584421533503644" lon="-2.244558129583019"><ele>53.0</ele><time>2026-04-05T13:28:21.999Z</time></trkpt><trkpt lat="48.584469784559765" lon="-2.244734599802862"><ele>53.0</ele><time>2026-04-05T13:28:23.999Z</time></trkpt><trkpt lat="48.58451657718297" lon="-2.2449057358843567"><ele>53.0</ele><time>2026-04-05T13:28:25.999Z</time></trkpt><trkpt lat="48.58456242050224" lon="-2.245073400221134"><ele>53.0</ele><time>2026-04-05T13:28:27.999Z</time></trkpt><trkpt lat="48.58458711856016" lon="-2.245163729369266"><ele>53.0</ele><time>2026-04-05T13:28:28.999Z</time></trkpt><trkpt lat="48.58461236397977" lon="-2.2452560602215312"><ele>52.57142857142858</ele><time>2026-04-05T13:28:29.999Z</time></trkpt><trkpt lat="48.584638340449544" lon="-2.2453510648365897"><ele>52.14285714285714</ele><time>2026-04-05T13:28:30.999Z</time></trkpt><trkpt lat="48.58466391487295" lon="-2.24544459894364"><ele>51.714285714285715</ele><time>2026-04-05T13:28:31.999Z</time></trkpt><trkpt lat="48.58468902157906" lon="-2.245536422484523"><ele>51.28571428571429</ele><time>2026-04-05T13:28:32.999Z</time></trkpt><trkpt lat="48.58471554730983" lon="-2.2456328364821383"><ele>50.85714285714286</ele><time>2026-04-05T13:28:33.999Z</time></trkpt><trkpt lat="48.584729030260526" lon="-2.245734200375607"><ele>50.42857142857143</ele><time>2026-04-05T13:28:34.999Z</time></trkpt><trkpt lat="48.584755444468264" lon="-2.2458318985081247"><ele>50.0</ele><time>2026-04-05T13:28:35.999Z</time></trkpt><trkpt lat="48.58478057873969" lon="-2.2459231128441917"><ele>49.85714285714286</ele><time>2026-04-05T13:28:36.999Z</time></trkpt><trkpt lat="48.58480708551979" lon="-2.2460147087157822"><ele>49.714285714285715</ele><time>2026-04-05T13:28:37.999Z</time></trkpt><trkpt lat="48.58483376180583" lon="-2.2461059941630364"><ele>49.57142857142857</ele><time>2026-04-05T13:28:38.999Z</time></trkpt><trkpt lat="48.58485705285039" lon="-2.246203168008605"><ele>49.42857142857143</ele><time>2026-04-05T13:28:39.999Z</time></trkpt><trkpt lat="48.58489765868844" lon="-2.246281000574198"><ele>49.285714285714285</ele><time>2026-04-05T13:28:40.999Z</time></trkpt><trkpt lat="48.58492396621462" lon="-2.246372087752495"><ele>49.142857142857146</ele><time>2026-04-05T13:28:41.999Z</time></trkpt><trkpt lat="48.584952034832575" lon="-2.246466590781959"><ele>49.0</ele><time>2026-04-05T13:28:42.999Z</time></trkpt><trkpt lat="48.58497896621162" lon="-2.2465571345828"><ele>49.33333333333333</ele><time>2026-04-05T13:28:44Z</time></trkpt><trkpt lat="48.58503223399978" lon="-2.246736222043588"><ele>49.666666666666664</ele><time>2026-04-05T13:28:46Z</time></trkpt><trkpt lat="48.58505821691308" lon="-2.2468235771366425"><ele>50.0</ele><time>2026-04-05T13:28:47Z</time></trkpt><trkpt lat="48.58508501855913" lon="-2.2469179545327456"><ele>50.33333333333333</ele><time>2026-04-05T13:28:48Z</time></trkpt><trkpt lat="48.58510928540097" lon="-2.247007374269118"><ele>50.666666666666664</ele><time>2026-04-05T13:28:49Z</time></trkpt><trkpt lat="48.5851334790965" lon="-2.2470972387563264"><ele>51.0</ele><time>2026-04-05T13:28:50Z</time></trkpt><trkpt lat="48.58516508768537" lon="-2.247285647453439"><ele>51.0</ele><time>2026-04-05T13:28:52Z</time></trkpt><trkpt lat="48.58520251088164" lon="-2.247363367632581"><ele>51.0</ele><time>2026-04-05T13:28:53Z</time></trkpt><trkpt lat="48.58522930309101" lon="-2.247536603224575"><ele>51.0</ele><time>2026-04-05T13:28:55Z</time></trkpt><trkpt lat="48.58526697175049" lon="-2.247613585130673"><ele>51.0</ele><time>2026-04-05T13:28:56Z</time></trkpt><trkpt lat="48.5852901727708" lon="-2.2477036444647984"><ele>51.0</ele><time>2026-04-05T13:28:57Z</time></trkpt><trkpt lat="48.5853350090548" lon="-2.2478773715079248"><ele>51.0</ele><time>2026-04-05T13:28:59Z</time></trkpt><trkpt lat="48.58537946653384" lon="-2.24804956154238"><ele>50.8</ele><time>2026-04-05T13:29:01Z</time></trkpt><trkpt lat="48.58541219209908" lon="-2.248221084757537"><ele>50.599999999999994</ele><time>2026-04-05T13:29:03Z</time></trkpt><trkpt lat="48.5854556619131" lon="-2.248385040460665"><ele>50.4</ele><time>2026-04-05T13:29:05Z</time></trkpt><trkpt lat="48.58549507710009" lon="-2.248537329276506"><ele>50.2</ele><time>2026-04-05T13:29:07Z</time></trkpt><trkpt lat="48.58553602124733" lon="-2.248674315109799"><ele>50.0</ele><time>2026-04-05T13:29:09Z</time></trkpt><trkpt lat="48.585579782115744" lon="-2.2488135567611267"><ele>50.00000000000001</ele><time>2026-04-05T13:29:11Z</time></trkpt><trkpt lat="48.58561335449116" lon="-2.248905588993318"><ele>50.0</ele><time>2026-04-05T13:29:14Z</time></trkpt><trkpt lat="48.58564768236808" lon="-2.2490295372714506"><ele>50.0</ele><time>2026-04-05T13:29:17Z</time></trkpt><trkpt lat="48.585672193213014" lon="-2.24911837128165"><ele>50.0</ele><time>2026-04-05T13:29:19Z</time></trkpt><trkpt lat="48.58570121088243" lon="-2.249223580091337"><ele>50.00000000000001</ele><time>2026-04-05T13:29:22Z</time></trkpt><trkpt lat="48.58574846363127" lon="-2.2493965275408985"><ele>50.0</ele><time>2026-04-05T13:29:24Z</time></trkpt><trkpt lat="48.585799162178546" lon="-2.2495820867860643"><ele>50.66666666666667</ele><time>2026-04-05T13:29:26Z</time></trkpt><trkpt lat="48.58582675066271" lon="-2.2496830617241126"><ele>51.33333333333333</ele><time>2026-04-05T13:29:28Z</time></trkpt><trkpt lat="48.58586099436919" lon="-2.249808395576747"><ele>52.0</ele><time>2026-04-05T13:29:30Z</time></trkpt><trkpt lat="48.585980453290965" lon="-2.2502067164024315"><ele>52.400000000000006</ele><time>2026-04-05T13:29:32Z</time></trkpt><trkpt lat="48.58601886184321" lon="-2.2503289382416938"><ele>52.800000000000004</ele><time>2026-04-05T13:29:34Z</time></trkpt><trkpt lat="48.58606421344562" lon="-2.25045181973734"><ele>53.2</ele><time>2026-04-05T13:29:36Z</time></trkpt><trkpt lat="48.586093476625116" lon="-2.250591643593536"><ele>53.6</ele><time>2026-04-05T13:29:38Z</time></trkpt><trkpt lat="48.586123667688916" lon="-2.2507285317282086"><ele>54.0</ele><time>2026-04-05T13:29:40Z</time></trkpt><trkpt lat="48.58616073938071" lon="-2.2508501892436463"><ele>54.800000000000004</ele><time>2026-04-05T13:29:42Z</time></trkpt><trkpt lat="48.586203388394615" lon="-2.2509848632929703"><ele>55.60000000000001</ele><time>2026-04-05T13:29:44Z</time></trkpt><trkpt lat="48.58623292777103" lon="-2.2511196733778265"><ele>56.4</ele><time>2026-04-05T13:29:46Z</time></trkpt><trkpt lat="48.5862922096753" lon="-2.25131456820945"><ele>57.2</ele><time>2026-04-05T13:29:49Z</time></trkpt><trkpt lat="48.58632235481677" lon="-2.251451259664604"><ele>58.0</ele><time>2026-04-05T13:29:51Z</time></trkpt><trkpt lat="48.586352031056414" lon="-2.251574531127939"><ele>57.99999999999999</ele><time>2026-04-05T13:29:53Z</time></trkpt><trkpt lat="48.58633900536083" lon="-2.2517227513303415"><ele>58.0</ele><time>2026-04-05T13:29:57Z</time></trkpt><trkpt lat="48.58636542383396" lon="-2.251821715279781"><ele>58.0</ele><time>2026-04-05T13:29:59Z</time></trkpt><trkpt lat="48.58638692927513" lon="-2.251922300468581"><ele>58.0</ele><time>2026-04-05T13:30:01Z</time></trkpt><trkpt lat="48.58640781509675" lon="-2.252027689432683"><ele>57.99999999999999</ele><time>2026-04-05T13:30:03Z</time></trkpt><trkpt lat="48.586448908952896" lon="-2.252138076456897"><ele>58.0</ele><time>2026-04-05T13:30:05Z</time></trkpt><trkpt lat="48.586472801498424" lon="-2.252255967986729"><ele>58.166666666666664</ele><time>2026-04-05T13:30:07Z</time></trkpt><trkpt lat="48.586512085003164" lon="-2.2523692979804566"><ele>58.33333333333333</ele><time>2026-04-05T13:30:09Z</time></trkpt><trkpt lat="48.586528614595515" lon="-2.2524747748993446"><ele>58.5</ele><time>2026-04-05T13:30:10.999Z</time></trkpt><trkpt lat="48.586558816034895" lon="-2.252579867535175"><ele>58.66666666666667</ele><time>2026-04-05T13:30:12.999Z</time></trkpt><trkpt lat="48.58658819318931" lon="-2.2526845614496955"><ele>58.833333333333336</ele><time>2026-04-05T13:30:14.999Z</time></trkpt><trkpt lat="48.5866237835081" lon="-2.252804599351796"><ele>59.0</ele><time>2026-04-05T13:30:16.999Z</time></trkpt><trkpt lat="48.586642155516195" lon="-2.2529017781425407"><ele>59.00000000000001</ele><time>2026-04-05T13:30:18.999Z</time></trkpt><trkpt lat="48.58666946089927" lon="-2.2530269115534973"><ele>59.0</ele><time>2026-04-05T13:30:20.999Z</time></trkpt><trkpt lat="48.58669584448073" lon="-2.253151157038912"><ele>59.0</ele><time>2026-04-05T13:30:22.999Z</time></trkpt><trkpt lat="48.586722163131995" lon="-2.2532771926243598"><ele>59.0</ele><time>2026-04-05T13:30:24.999Z</time></trkpt><trkpt lat="48.586745917757234" lon="-2.253391652659018"><ele>59.00000000000001</ele><time>2026-04-05T13:30:25.999Z</time></trkpt><trkpt lat="48.58676745916691" lon="-2.2534864198057485"><ele>59.0</ele><time>2026-04-05T13:30:26.999Z</time></trkpt><trkpt lat="48.586815292535725" lon="-2.253611815136669"><ele>59.14285714285714</ele><time>2026-04-05T13:30:28.999Z</time></trkpt><trkpt lat="48.58686142466587" lon="-2.2537056521187164"><ele>59.28571428571429</ele><time>2026-04-05T13:30:30.999Z</time></trkpt><trkpt lat="48.5869016895074" lon="-2.253788971052778"><ele>59.42857142857143</ele><time>2026-04-05T13:30:32.999Z</time></trkpt><trkpt lat="48.58693681471706" lon="-2.253884747820518"><ele>59.57142857142857</ele><time>2026-04-05T13:30:34.999Z</time></trkpt><trkpt lat="48.58697316579511" lon="-2.2539849906036244"><ele>59.71428571428571</ele><time>2026-04-05T13:30:36.999Z</time></trkpt><trkpt lat="48.58701144492637" lon="-2.254083805978127"><ele>59.85714285714286</ele><time>2026-04-05T13:30:38.999Z</time></trkpt><trkpt lat="48.58703914242815" lon="-2.254175528169759"><ele>60.0</ele><time>2026-04-05T13:30:40.999Z</time></trkpt><trkpt lat="48.587064487866066" lon="-2.2542651521389483"><ele>60.4</ele><time>2026-04-05T13:30:42.999Z</time></trkpt><trkpt lat="48.587087082917044" lon="-2.254375265055654"><ele>60.8</ele><time>2026-04-05T13:30:44.999Z</time></trkpt><trkpt lat="48.58711687569497" lon="-2.254477056302828"><ele>61.2</ele><time>2026-04-05T13:30:46.999Z</time></trkpt><trkpt lat="48.587149770193946" lon="-2.254632776060281"><ele>61.6</ele><time>2026-04-05T13:30:50Z</time></trkpt><trkpt lat="48.58717259648243" lon="-2.2547824554068017"><ele>62.0</ele><time>2026-04-05T13:30:52Z</time></trkpt><trkpt lat="48.58731605198664" lon="-2.255026392687491"><ele>62.333333333333336</ele><time>2026-04-05T13:30:53Z</time></trkpt><trkpt lat="48.58734662187893" lon="-2.2551458918092457"><ele>62.66666666666667</ele><time>2026-04-05T13:30:55Z</time></trkpt><trkpt lat="48.58738591610828" lon="-2.255265211048681"><ele>63.0</ele><time>2026-04-05T13:30:57Z</time></trkpt><trkpt lat="48.58741236462164" lon="-2.2553905475473384"><ele>63.33333333333333</ele><time>2026-04-05T13:30:59Z</time></trkpt><trkpt lat="48.58744569749103" lon="-2.2555150283411733"><ele>63.666666666666664</ele><time>2026-04-05T13:31:01Z</time></trkpt><trkpt lat="48.587483990691" lon="-2.2556325962232573"><ele>64.0</ele><time>2026-04-05T13:31:03Z</time></trkpt><trkpt lat="48.58752532673422" lon="-2.2557542307103136"><ele>64.16666666666666</ele><time>2026-04-05T13:31:05Z</time></trkpt><trkpt lat="48.5875603861274" lon="-2.25588459657374"><ele>64.33333333333333</ele><time>2026-04-05T13:31:07Z</time></trkpt><trkpt lat="48.58759639004332" lon="-2.2560136179899297"><ele>64.5</ele><time>2026-04-05T13:31:09Z</time></trkpt><trkpt lat="48.587631763431396" lon="-2.256152919880395"><ele>64.66666666666667</ele><time>2026-04-05T13:31:11Z</time></trkpt><trkpt lat="48.587626698878374" lon="-2.256281628568597"><ele>64.83333333333334</ele><time>2026-04-05T13:31:13Z</time></trkpt><trkpt lat="48.587660309347726" lon="-2.2563722011377823"><ele>65.0</ele><time>2026-04-05T13:31:15Z</time></trkpt><trkpt lat="48.58767717629403" lon="-2.256473907925127"><ele>65.0</ele><time>2026-04-05T13:31:17Z</time></trkpt><trkpt lat="48.587705374220484" lon="-2.2565946697047035"><ele>65.0</ele><time>2026-04-05T13:31:19Z</time></trkpt><trkpt lat="48.587737739495275" lon="-2.256715238402285"><ele>65.0</ele><time>2026-04-05T13:31:21Z</time></trkpt><trkpt lat="48.58776548495345" lon="-2.2568290871949004"><ele>65.0</ele><time>2026-04-05T13:31:23Z</time></trkpt><trkpt lat="48.58779877705696" lon="-2.2569588028645313"><ele>65.0</ele><time>2026-04-05T13:31:25Z</time></trkpt><trkpt lat="48.5878300340525" lon="-2.2570798459305847"><ele>65.0</ele><time>2026-04-05T13:31:27Z</time></trkpt><trkpt lat="48.58786383233091" lon="-2.2572031294740693"><ele>65.6</ele><time>2026-04-05T13:31:29Z</time></trkpt><trkpt lat="48.58790706512915" lon="-2.2573337533469755"><ele>66.2</ele><time>2026-04-05T13:31:31Z</time></trkpt><trkpt lat="48.58793982518467" lon="-2.2574604388009702"><ele>66.8</ele><time>2026-04-05T13:31:33Z</time></trkpt><trkpt lat="48.587981948963225" lon="-2.2575927621780534"><ele>67.4</ele><time>2026-04-05T13:31:35Z</time></trkpt><trkpt lat="48.588015047184165" lon="-2.257721994630941"><ele>68.0</ele><time>2026-04-05T13:31:37Z</time></trkpt><trkpt lat="48.58805824056219" lon="-2.2578489763912053"><ele>68.0</ele><time>2026-04-05T13:31:39Z</time></trkpt><trkpt lat="48.58809574657052" lon="-2.257987229734596"><ele>68.0</ele><time>2026-04-05T13:31:41Z</time></trkpt><trkpt lat="48.58812604373144" lon="-2.258120110931925"><ele>68.0</ele><time>2026-04-05T13:31:43Z</time></trkpt><trkpt lat="48.588162817190685" lon="-2.2582456594836056"><ele>68.0</ele><time>2026-04-05T13:31:45Z</time></trkpt><trkpt lat="48.588192546244" lon="-2.258357784633823"><ele>68.0</ele><time>2026-04-05T13:31:47Z</time></trkpt><trkpt lat="48.58821378548938" lon="-2.2584539263959007"><ele>68.0</ele><time>2026-04-05T13:31:49Z</time></trkpt><trkpt lat="48.58831464684408" lon="-2.258758594847296"><ele>68.0</ele><time>2026-04-05T13:31:51Z</time></trkpt><trkpt lat="48.58835984906411" lon="-2.258879393587648"><ele>68.0</ele><time>2026-04-05T13:31:53Z</time></trkpt><trkpt lat="48.5883994841173" lon="-2.2590070446042354"><ele>68.0</ele><time>2026-04-05T13:31:55Z</time></trkpt><trkpt lat="48.588442431873965" lon="-2.259137833385111"><ele>68.0</ele><time>2026-04-05T13:31:57Z</time></trkpt><trkpt lat="48.588477061384204" lon="-2.2592697316258454"><ele>68.0</ele><time>2026-04-05T13:31:59Z</time></trkpt><trkpt lat="48.58851501219715" lon="-2.2594014874696438"><ele>68.0</ele><time>2026-04-05T13:32:01Z</time></trkpt><trkpt lat="48.588553844689486" lon="-2.2595319630342248"><ele>68.0</ele><time>2026-04-05T13:32:03Z</time></trkpt><trkpt lat="48.588583527745904" lon="-2.2596663433458684"><ele>68.0</ele><time>2026-04-05T13:32:05Z</time></trkpt><trkpt lat="48.58861641481854" lon="-2.2598007626744163"><ele>68.0</ele><time>2026-04-05T13:32:07Z</time></trkpt><trkpt lat="48.588652488368155" lon="-2.259936171538774"><ele>68.0</ele><time>2026-04-05T13:32:09Z</time></trkpt><trkpt lat="48.58867792036405" lon="-2.2600791178701165"><ele>68.4</ele><time>2026-04-05T13:32:11Z</time></trkpt><trkpt lat="48.58871607787155" lon="-2.2602055712042413"><ele>68.8</ele><time>2026-04-05T13:32:13Z</time></trkpt><trkpt lat="48.58875704356538" lon="-2.2603691435732163"><ele>69.2</ele><time>2026-04-05T13:32:16Z</time></trkpt><trkpt lat="48.58880586951533" lon="-2.2604955036821393"><ele>69.6</ele><time>2026-04-05T13:32:18Z</time></trkpt><trkpt lat="48.58884198821611" lon="-2.2606249998179884"><ele>70.0</ele><time>2026-04-05T13:32:20Z</time></trkpt><trkpt lat="48.58887509940065" lon="-2.2607437132612276"><ele>70.4</ele><time>2026-04-05T13:32:21.999Z</time></trkpt><trkpt lat="48.58890306835632" lon="-2.260843990427709"><ele>70.8</ele><time>2026-04-05T13:32:22.999Z</time></trkpt><trkpt lat="48.58892831756423" lon="-2.260934515889802"><ele>71.2</ele><time>2026-04-05T13:32:24.999Z</time></trkpt><trkpt lat="48.58896429577232" lon="-2.261063508346115"><ele>71.6</ele><time>2026-04-05T13:32:26.999Z</time></trkpt><trkpt lat="48.58903525942426" lon="-2.2613067970706187"><ele>72.0</ele><time>2026-04-05T13:32:28.999Z</time></trkpt><trkpt lat="48.58907971829593" lon="-2.2614414081317236"><ele>71.6</ele><time>2026-04-05T13:32:30.999Z</time></trkpt><trkpt lat="48.589116266301176" lon="-2.261584562767551"><ele>71.2</ele><time>2026-04-05T13:32:32.999Z</time></trkpt><trkpt lat="48.589151619447705" lon="-2.261729665032763"><ele>70.8</ele><time>2026-04-05T13:32:34.999Z</time></trkpt><trkpt lat="48.5891989975592" lon="-2.2618588597640845"><ele>70.4</ele><time>2026-04-05T13:32:36.999Z</time></trkpt><trkpt lat="48.589236777798476" lon="-2.2619871015119295"><ele>70.0</ele><time>2026-04-05T13:32:38.999Z</time></trkpt><trkpt lat="48.58927424196024" lon="-2.262124976563487"><ele>70.0</ele><time>2026-04-05T13:32:40.999Z</time></trkpt><trkpt lat="48.58931687895135" lon="-2.262268140592263"><ele>70.0</ele><time>2026-04-05T13:32:42.999Z</time></trkpt><trkpt lat="48.58935253274923" lon="-2.2624065090468286"><ele>70.0</ele><time>2026-04-05T13:32:44.999Z</time></trkpt><trkpt lat="48.58938697580495" lon="-2.262545203129185"><ele>70.0</ele><time>2026-04-05T13:32:46.999Z</time></trkpt><trkpt lat="48.58940354246702" lon="-2.262691686596375"><ele>70.0</ele><time>2026-04-05T13:32:48.999Z</time></trkpt><trkpt lat="48.58943782822096" lon="-2.2628235701264057"><ele>70.2</ele><time>2026-04-05T13:32:50.999Z</time></trkpt><trkpt lat="48.58947813159489" lon="-2.2629453559468855"><ele>70.4</ele><time>2026-04-05T13:32:52.999Z</time></trkpt><trkpt lat="48.58951438472239" lon="-2.263094612783351"><ele>70.6</ele><time>2026-04-05T13:32:54.999Z</time></trkpt><trkpt lat="48.589544426458794" lon="-2.2632311759337735"><ele>70.8</ele><time>2026-04-05T13:32:57Z</time></trkpt><trkpt lat="48.589580328456464" lon="-2.263376841494873"><ele>71.0</ele><time>2026-04-05T13:32:59Z</time></trkpt><trkpt lat="48.589616571363024" lon="-2.263513988158233"><ele>71.39999999999999</ele><time>2026-04-05T13:33:01Z</time></trkpt><trkpt lat="48.58967179353855" lon="-2.2636483444014184"><ele>71.8</ele><time>2026-04-05T13:33:05Z</time></trkpt><trkpt lat="48.58970988499164" lon="-2.2637833419694244"><ele>72.19999999999999</ele><time>2026-04-05T13:33:07Z</time></trkpt><trkpt lat="48.58974538913619" lon="-2.263909170018243"><ele>72.6</ele><time>2026-04-05T13:33:08Z</time></trkpt><trkpt lat="48.589791116800825" lon="-2.2640712305647055"><ele>73.0</ele><time>2026-04-05T13:33:10Z</time></trkpt><trkpt lat="48.589835754316795" lon="-2.264229427600739"><ele>73.0</ele><time>2026-04-05T13:33:12Z</time></trkpt><trkpt lat="48.5898783143457" lon="-2.264380261946474"><ele>73.0</ele><time>2026-04-05T13:33:14Z</time></trkpt><trkpt lat="48.58992087403916" lon="-2.2645310951137545"><ele>73.0</ele><time>2026-04-05T13:33:16Z</time></trkpt><trkpt lat="48.5899617564552" lon="-2.264683384659183"><ele>73.0</ele><time>2026-04-05T13:33:18Z</time></trkpt><trkpt lat="48.59000182861548" lon="-2.264833666821915"><ele>73.0</ele><time>2026-04-05T13:33:21Z</time></trkpt><trkpt lat="48.590037307261575" lon="-2.2649667227777077"><ele>73.0</ele><time>2026-04-05T13:33:23Z</time></trkpt><trkpt lat="48.59007589729957" lon="-2.265113869660723"><ele>73.0</ele><time>2026-04-05T13:33:25Z</time></trkpt><trkpt lat="48.59010321654781" lon="-2.2652173750171065"><ele>73.0</ele><time>2026-04-05T13:33:26Z</time></trkpt><trkpt lat="48.590142505983614" lon="-2.265366025783928"><ele>73.0</ele><time>2026-04-05T13:33:28Z</time></trkpt><trkpt lat="48.590184614726304" lon="-2.265520942182816"><ele>73.0</ele><time>2026-04-05T13:33:30Z</time></trkpt><trkpt lat="48.590221884985205" lon="-2.265658058021053"><ele>73.2</ele><time>2026-04-05T13:33:32Z</time></trkpt><trkpt lat="48.59026221476323" lon="-2.265806429729282"><ele>73.4</ele><time>2026-04-05T13:33:34Z</time></trkpt><trkpt lat="48.59030803986786" lon="-2.265975018509699"><ele>73.60000000000001</ele><time>2026-04-05T13:33:36Z</time></trkpt><trkpt lat="48.59033229607013" lon="-2.2660643076464697"><ele>73.8</ele><time>2026-04-05T13:33:37Z</time></trkpt><trkpt lat="48.59036669014684" lon="-2.266234030716413"><ele>74.0</ele><time>2026-04-05T13:33:39Z</time></trkpt><trkpt lat="48.590413853289455" lon="-2.266399499222118"><ele>73.5</ele><time>2026-04-05T13:33:41Z</time></trkpt><trkpt lat="48.59046218670928" lon="-2.266557011945338"><ele>73.0</ele><time>2026-04-05T13:33:43Z</time></trkpt><trkpt lat="48.59050355762242" lon="-2.266721353184331"><ele>72.5</ele><time>2026-04-05T13:33:45Z</time></trkpt><trkpt lat="48.59056216697597" lon="-2.2668784046857477"><ele>72.0</ele><time>2026-04-05T13:33:47Z</time></trkpt><trkpt lat="48.59060643248536" lon="-2.2670321777876437"><ele>72.0</ele><time>2026-04-05T13:33:49Z</time></trkpt><trkpt lat="48.59065282051404" lon="-2.267193324430836"><ele>72.0</ele><time>2026-04-05T13:33:51Z</time></trkpt><trkpt lat="48.59068450882426" lon="-2.267357941746649"><ele>72.0</ele><time>2026-04-05T13:33:53Z</time></trkpt><trkpt lat="48.59074340919225" lon="-2.2675085066560614"><ele>72.0</ele><time>2026-04-05T13:33:55Z</time></trkpt><trkpt lat="48.59077719536592" lon="-2.267691129021978"><ele>72.0</ele><time>2026-04-05T13:33:57Z</time></trkpt><trkpt lat="48.59082875129075" lon="-2.267860659530519"><ele>72.0</ele><time>2026-04-05T13:33:59Z</time></trkpt><trkpt lat="48.59087053755619" lon="-2.2680273891917944"><ele>72.0</ele><time>2026-04-05T13:34:01Z</time></trkpt><trkpt lat="48.59091398136472" lon="-2.2681994506937886"><ele>72.0</ele><time>2026-04-05T13:34:03Z</time></trkpt><trkpt lat="48.59096916070332" lon="-2.268360152353328"><ele>72.0</ele><time>2026-04-05T13:34:05Z</time></trkpt><trkpt lat="48.59101278744373" lon="-2.268522675507262"><ele>72.0</ele><time>2026-04-05T13:34:07Z</time></trkpt><trkpt lat="48.59104494794651" lon="-2.268698757640237"><ele>72.0</ele><time>2026-04-05T13:34:09Z</time></trkpt><trkpt lat="48.591096565664834" lon="-2.2688652099386553"><ele>72.0</ele><time>2026-04-05T13:34:11Z</time></trkpt><trkpt lat="48.591144889657464" lon="-2.26903431282671"><ele>71.0</ele><time>2026-04-05T13:34:13Z</time></trkpt><trkpt lat="48.59118649005558" lon="-2.269199657725482"><ele>70.0</ele><time>2026-04-05T13:34:15Z</time></trkpt><trkpt lat="48.59122851553466" lon="-2.269356424695793"><ele>69.0</ele><time>2026-04-05T13:34:17Z</time></trkpt><trkpt lat="48.59126798446297" lon="-2.269521710613188"><ele>68.0</ele><time>2026-04-05T13:34:19Z</time></trkpt><trkpt lat="48.591312640875486" lon="-2.2696921956749465"><ele>67.99999999999999</ele><time>2026-04-05T13:34:21Z</time></trkpt><trkpt lat="48.591339033049266" lon="-2.2697805094972847"><ele>68.0</ele><time>2026-04-05T13:34:22Z</time></trkpt><trkpt lat="48.59136209036042" lon="-2.2698770486532127"><ele>68.0</ele><time>2026-04-05T13:34:23Z</time></trkpt><trkpt lat="48.59139995882184" lon="-2.2699625680991335"><ele>68.0</ele><time>2026-04-05T13:34:24Z</time></trkpt><trkpt lat="48.59141583001126" lon="-2.27006196870966"><ele>68.0</ele><time>2026-04-05T13:34:25Z</time></trkpt><trkpt lat="48.59144322870076" lon="-2.2701572644326182"><ele>67.99999999999999</ele><time>2026-04-05T13:34:26Z</time></trkpt><trkpt lat="48.59146722874737" lon="-2.270249876065783"><ele>68.0</ele><time>2026-04-05T13:34:27Z</time></trkpt><trkpt lat="48.59148968872563" lon="-2.2703401942241186"><ele>68.0</ele><time>2026-04-05T13:34:28Z</time></trkpt><trkpt lat="48.5915138751995" lon="-2.2704347332069896"><ele>68.0</ele><time>2026-04-05T13:34:29Z</time></trkpt><trkpt lat="48.591535996192746" lon="-2.2705303936775656"><ele>68.0</ele><time>2026-04-05T13:34:30Z</time></trkpt><trkpt lat="48.59157637673695" lon="-2.2706161040082034"><ele>68.0</ele><time>2026-04-05T13:34:30.999Z</time></trkpt><trkpt lat="48.591602473433255" lon="-2.2707119756869596"><ele>68.0</ele><time>2026-04-05T13:34:31.999Z</time></trkpt><trkpt lat="48.5916210185215" lon="-2.270812021234287"><ele>68.0</ele><time>2026-04-05T13:34:32.999Z</time></trkpt><trkpt lat="48.59167480359423" lon="-2.2709776956205894"><ele>67.85714285714285</ele><time>2026-04-05T13:34:34.999Z</time></trkpt><trkpt lat="48.591698771069616" lon="-2.271065745152453"><ele>67.71428571428571</ele><time>2026-04-05T13:34:35.999Z</time></trkpt><trkpt lat="48.59170850944433" lon="-2.2711611085799253"><ele>67.57142857142857</ele><time>2026-04-05T13:34:36.999Z</time></trkpt><trkpt lat="48.5917475273744" lon="-2.2712380203887825"><ele>67.42857142857142</ele><time>2026-04-05T13:34:37.999Z</time></trkpt><trkpt lat="48.59177362719901" lon="-2.2713299076296916"><ele>67.28571428571428</ele><time>2026-04-05T13:34:38.999Z</time></trkpt><trkpt lat="48.591801133526424" lon="-2.2714260823311787"><ele>67.14285714285714</ele><time>2026-04-05T13:34:39.999Z</time></trkpt><trkpt lat="48.591829268495985" lon="-2.2715221090744087"><ele>67.0</ele><time>2026-04-05T13:34:40.999Z</time></trkpt><trkpt lat="48.59185903488191" lon="-2.2716237039241993"><ele>66.85714285714286</ele><time>2026-04-05T13:34:41.999Z</time></trkpt><trkpt lat="48.591888358184505" lon="-2.271727278059933"><ele>66.71428571428571</ele><time>2026-04-05T13:34:42.999Z</time></trkpt><trkpt lat="48.591917135221784" lon="-2.2718301731275687"><ele>66.57142857142857</ele><time>2026-04-05T13:34:43.999Z</time></trkpt><trkpt lat="48.59194494186742" lon="-2.2719300735888024"><ele>66.42857142857143</ele><time>2026-04-05T13:34:44.999Z</time></trkpt><trkpt lat="48.59197301203893" lon="-2.2720356619872235"><ele>66.28571428571429</ele><time>2026-04-05T13:34:45.999Z</time></trkpt><trkpt lat="48.592000538351606" lon="-2.2721392045888136"><ele>66.14285714285714</ele><time>2026-04-05T13:34:46.999Z</time></trkpt><trkpt lat="48.59202812654825" lon="-2.2722429799977713"><ele>66.0</ele><time>2026-04-05T13:34:47.999Z</time></trkpt><trkpt lat="48.59205612895643" lon="-2.2723483134876337"><ele>65.71428571428571</ele><time>2026-04-05T13:34:48.999Z</time></trkpt><trkpt lat="48.59208234503247" lon="-2.2724469275237973"><ele>65.42857142857143</ele><time>2026-04-05T13:34:49.999Z</time></trkpt><trkpt lat="48.59210901311491" lon="-2.2725472418321018"><ele>65.14285714285714</ele><time>2026-04-05T13:34:50.999Z</time></trkpt><trkpt lat="48.59212107092952" lon="-2.272657802266819"><ele>64.85714285714286</ele><time>2026-04-05T13:34:51.999Z</time></trkpt><trkpt lat="48.59216250083114" lon="-2.2727484405481935"><ele>64.57142857142857</ele><time>2026-04-05T13:34:52.999Z</time></trkpt><trkpt lat="48.5921885070809" lon="-2.272846265273558"><ele>64.28571428571428</ele><time>2026-04-05T13:34:53.999Z</time></trkpt><trkpt lat="48.59221451355322" lon="-2.272941771084964"><ele>64.0</ele><time>2026-04-05T13:34:54.999Z</time></trkpt><trkpt lat="48.59224029828087" lon="-2.2730353465289306"><ele>64.0</ele><time>2026-04-05T13:34:55.999Z</time></trkpt><trkpt lat="48.592265022811645" lon="-2.273125074338637"><ele>63.99999999999999</ele><time>2026-04-05T13:34:56.999Z</time></trkpt><trkpt lat="48.592290698310826" lon="-2.2732182533816565"><ele>64.0</ele><time>2026-04-05T13:34:57.999Z</time></trkpt><trkpt lat="48.59231644156315" lon="-2.273311678233609"><ele>64.0</ele><time>2026-04-05T13:34:58.999Z</time></trkpt><trkpt lat="48.5923418166676" lon="-2.273403767096778"><ele>63.99999999999999</ele><time>2026-04-05T13:34:59.999Z</time></trkpt><trkpt lat="48.592366711230476" lon="-2.273495442664477"><ele>64.0</ele><time>2026-04-05T13:35:00.999Z</time></trkpt><trkpt lat="48.59239204628292" lon="-2.273591497806336"><ele>64.0</ele><time>2026-04-05T13:35:02Z</time></trkpt><trkpt lat="48.59241784543112" lon="-2.2736893125185214"><ele>64.0</ele><time>2026-04-05T13:35:03Z</time></trkpt><trkpt lat="48.59244249651525" lon="-2.2737827744769907"><ele>63.99999999999999</ele><time>2026-04-05T13:35:04Z</time></trkpt><trkpt lat="48.592452331672966" lon="-2.2738842854622257"><ele>64.0</ele><time>2026-04-05T13:35:05Z</time></trkpt><trkpt lat="48.59249338693243" lon="-2.273975720172262"><ele>64.0</ele><time>2026-04-05T13:35:06Z</time></trkpt><trkpt lat="48.59251018902688" lon="-2.27407207596149"><ele>63.99999999999999</ele><time>2026-04-05T13:35:07Z</time></trkpt><trkpt lat="48.59253295787183" lon="-2.2741711326653746"><ele>64.0</ele><time>2026-04-05T13:35:08Z</time></trkpt><trkpt lat="48.59255574465853" lon="-2.2742651944972923"><ele>64.0</ele><time>2026-04-05T13:35:09Z</time></trkpt><trkpt lat="48.592582227008236" lon="-2.274357428233443"><ele>64.14285714285714</ele><time>2026-04-05T13:35:10Z</time></trkpt><trkpt lat="48.59260524380418" lon="-2.274447850277039"><ele>64.28571428571428</ele><time>2026-04-05T13:35:11Z</time></trkpt><trkpt lat="48.59264143540585" lon="-2.2745310914616863"><ele>64.42857142857143</ele><time>2026-04-05T13:35:12Z</time></trkpt><trkpt lat="48.592665738637834" lon="-2.2746212545887423"><ele>64.57142857142857</ele><time>2026-04-05T13:35:13Z</time></trkpt><trkpt lat="48.59269087246815" lon="-2.274714499215441"><ele>64.71428571428572</ele><time>2026-04-05T13:35:14Z</time></trkpt><trkpt lat="48.592714719687805" lon="-2.2748029705242723"><ele>64.85714285714286</ele><time>2026-04-05T13:35:15Z</time></trkpt><trkpt lat="48.59275878346654" lon="-2.274966443816872"><ele>65.0</ele><time>2026-04-05T13:35:17Z</time></trkpt><trkpt lat="48.592803658315525" lon="-2.275132926082983"><ele>65.0</ele><time>2026-04-05T13:35:19Z</time></trkpt><trkpt lat="48.592844355364356" lon="-2.2752809943156795"><ele>65.0</ele><time>2026-04-05T13:35:21Z</time></trkpt><trkpt lat="48.592886181082434" lon="-2.275426186110086"><ele>65.0</ele><time>2026-04-05T13:35:23Z</time></trkpt><trkpt lat="48.592941616715216" lon="-2.2755504790633627"><ele>65.0</ele><time>2026-04-05T13:35:25Z</time></trkpt><trkpt lat="48.5929650189329" lon="-2.2757382045035444"><ele>65.0</ele><time>2026-04-05T13:35:27Z</time></trkpt><trkpt lat="48.59300297615513" lon="-2.2759014193676994"><ele>65.0</ele><time>2026-04-05T13:35:29Z</time></trkpt><trkpt lat="48.59305576927501" lon="-2.2760686161079517"><ele>65.0</ele><time>2026-04-05T13:35:31Z</time></trkpt><trkpt lat="48.59309953462584" lon="-2.2762331020886135"><ele>65.0</ele><time>2026-04-05T13:35:33Z</time></trkpt><trkpt lat="48.59314593048822" lon="-2.276399550223531"><ele>65.0</ele><time>2026-04-05T13:35:35Z</time></trkpt><trkpt lat="48.593193209368536" lon="-2.276573150321819"><ele>65.0</ele><time>2026-04-05T13:35:37Z</time></trkpt><trkpt lat="48.59321878056239" lon="-2.2766611185300443"><ele>65.0</ele><time>2026-04-05T13:35:38Z</time></trkpt><trkpt lat="48.593263361931285" lon="-2.2768267064681047"><ele>65.0</ele><time>2026-04-05T13:35:40Z</time></trkpt><trkpt lat="48.59330348952065" lon="-2.276997664505145"><ele>65.0</ele><time>2026-04-05T13:35:42Z</time></trkpt><trkpt lat="48.59334419790695" lon="-2.277170576894552"><ele>65.0</ele><time>2026-04-05T13:35:44Z</time></trkpt><trkpt lat="48.593380304478494" lon="-2.277351649161531"><ele>65.0</ele><time>2026-04-05T13:35:46Z</time></trkpt><trkpt lat="48.59341295007382" lon="-2.2775240997092983"><ele>65.0</ele><time>2026-04-05T13:35:48Z</time></trkpt><trkpt lat="48.59343823237508" lon="-2.2777079159666442"><ele>65.0</ele><time>2026-04-05T13:35:50Z</time></trkpt><trkpt lat="48.593468100047495" lon="-2.277883234691637"><ele>65.0</ele><time>2026-04-05T13:35:52Z</time></trkpt><trkpt lat="48.59347691906216" lon="-2.2779801640796213"><ele>65.0</ele><time>2026-04-05T13:35:53Z</time></trkpt><trkpt lat="48.593502921263955" lon="-2.2781648724744037"><ele>65.25</ele><time>2026-04-05T13:35:55Z</time></trkpt><trkpt lat="48.59352138471674" lon="-2.2783465090089603"><ele>65.5</ele><time>2026-04-05T13:35:57Z</time></trkpt><trkpt lat="48.593536784292326" lon="-2.278523422086452"><ele>65.75</ele><time>2026-04-05T13:35:59Z</time></trkpt><trkpt lat="48.59354549062904" lon="-2.2787023921178475"><ele>66.0</ele><time>2026-04-05T13:36:01Z</time></trkpt><trkpt lat="48.59356131547514" lon="-2.2788773647482405"><ele>66.0</ele><time>2026-04-05T13:36:03Z</time></trkpt><trkpt lat="48.59356693599979" lon="-2.2790554354537225"><ele>66.0</ele><time>2026-04-05T13:36:05Z</time></trkpt><trkpt lat="48.593567150312644" lon="-2.2792368682705733"><ele>66.0</ele><time>2026-04-05T13:36:07Z</time></trkpt><trkpt lat="48.59357042088173" lon="-2.2794120781771943"><ele>66.0</ele><time>2026-04-05T13:36:09Z</time></trkpt><trkpt lat="48.59356749578466" lon="-2.2795897713348254"><ele>66.0</ele><time>2026-04-05T13:36:11Z</time></trkpt><trkpt lat="48.59356275087112" lon="-2.279763105566241"><ele>66.0</ele><time>2026-04-05T13:36:13Z</time></trkpt><trkpt lat="48.59356407419335" lon="-2.2799375289466104"><ele>66.0</ele><time>2026-04-05T13:36:15Z</time></trkpt><trkpt lat="48.59356462975788" lon="-2.2801120456051716"><ele>66.0</ele><time>2026-04-05T13:36:17Z</time></trkpt><trkpt lat="48.593565072126054" lon="-2.2802871738815123"><ele>66.0</ele><time>2026-04-05T13:36:19Z</time></trkpt><trkpt lat="48.59356996698109" lon="-2.2804626577205545"><ele>66.0</ele><time>2026-04-05T13:36:21Z</time></trkpt><trkpt lat="48.593571451810355" lon="-2.28063849029794"><ele>66.0</ele><time>2026-04-05T13:36:23Z</time></trkpt><trkpt lat="48.59356890865854" lon="-2.2808170532791094"><ele>66.0</ele><time>2026-04-05T13:36:25Z</time></trkpt><trkpt lat="48.59357108442762" lon="-2.2809985754682245"><ele>65.75</ele><time>2026-04-05T13:36:27Z</time></trkpt><trkpt lat="48.593578201593054" lon="-2.281172985739972"><ele>65.5</ele><time>2026-04-05T13:36:29Z</time></trkpt><trkpt lat="48.59359183078426" lon="-2.2813513097838816"><ele>65.25</ele><time>2026-04-05T13:36:30.999Z</time></trkpt><trkpt lat="48.59360347791566" lon="-2.2815294311037153"><ele>65.0</ele><time>2026-04-05T13:36:32.999Z</time></trkpt><trkpt lat="48.593629793601195" lon="-2.2817065458137926"><ele>65.0</ele><time>2026-04-05T13:36:34.999Z</time></trkpt><trkpt lat="48.593655037621886" lon="-2.281881936645646"><ele>65.0</ele><time>2026-04-05T13:36:36.999Z</time></trkpt><trkpt lat="48.59368229730394" lon="-2.282060045696331"><ele>65.0</ele><time>2026-04-05T13:36:38.999Z</time></trkpt><trkpt lat="48.59371266218073" lon="-2.282235876317516"><ele>65.0</ele><time>2026-04-05T13:36:40.999Z</time></trkpt><trkpt lat="48.593736177336986" lon="-2.282401809574239"><ele>65.0</ele><time>2026-04-05T13:36:42.999Z</time></trkpt><trkpt lat="48.59375755180828" lon="-2.282572492692026"><ele>65.0</ele><time>2026-04-05T13:36:44.999Z</time></trkpt><trkpt lat="48.59378307942518" lon="-2.2827510922913357"><ele>65.0</ele><time>2026-04-05T13:36:46.999Z</time></trkpt><trkpt lat="48.59380892929762" lon="-2.282921981086391"><ele>65.0</ele><time>2026-04-05T13:36:48.999Z</time></trkpt><trkpt lat="48.59383543111325" lon="-2.2830973726773562"><ele>65.25</ele><time>2026-04-05T13:36:50.999Z</time></trkpt><trkpt lat="48.593853578032665" lon="-2.283267295702996"><ele>65.5</ele><time>2026-04-05T13:36:52.999Z</time></trkpt><trkpt lat="48.59388963271349" lon="-2.2834400184248063"><ele>65.75</ele><time>2026-04-05T13:36:54.999Z</time></trkpt><trkpt lat="48.59391760631933" lon="-2.2836119724317205"><ele>66.0</ele><time>2026-04-05T13:36:56.999Z</time></trkpt><trkpt lat="48.593950718359146" lon="-2.2837758964791908"><ele>66.0</ele><time>2026-04-05T13:36:58.999Z</time></trkpt><trkpt lat="48.59398754712776" lon="-2.28393414026007"><ele>66.0</ele><time>2026-04-05T13:37:00.999Z</time></trkpt><trkpt lat="48.5940278984971" lon="-2.2840927728828806"><ele>66.0</ele><time>2026-04-05T13:37:02.999Z</time></trkpt><trkpt lat="48.59406990816113" lon="-2.2842316127721025"><ele>66.0</ele><time>2026-04-05T13:37:04.999Z</time></trkpt><trkpt lat="48.5941106196461" lon="-2.2843814786849164"><ele>66.0</ele><time>2026-04-05T13:37:06.999Z</time></trkpt><trkpt lat="48.59414963700702" lon="-2.2845287208990412"><ele>66.0</ele><time>2026-04-05T13:37:09Z</time></trkpt><trkpt lat="48.59418051109438" lon="-2.284667491313992"><ele>66.0</ele><time>2026-04-05T13:37:11Z</time></trkpt><trkpt lat="48.59423031000061" lon="-2.2848638148454787"><ele>66.0</ele><time>2026-04-05T13:37:14Z</time></trkpt><trkpt lat="48.59425473610049" lon="-2.2849870371009793"><ele>66.0</ele><time>2026-04-05T13:37:16Z</time></trkpt><trkpt lat="48.594344238917465" lon="-2.2852837179702066"><ele>66.33333333333333</ele><time>2026-04-05T13:37:20Z</time></trkpt><trkpt lat="48.594376019490795" lon="-2.285412321413702"><ele>66.66666666666667</ele><time>2026-04-05T13:37:22Z</time></trkpt><trkpt lat="48.59440458030389" lon="-2.2855362890922337"><ele>67.0</ele><time>2026-04-05T13:37:24Z</time></trkpt><trkpt lat="48.59443153026695" lon="-2.285650870436278"><ele>67.33333333333334</ele><time>2026-04-05T13:37:26Z</time></trkpt><trkpt lat="48.59446170294557" lon="-2.285772948335975"><ele>67.66666666666667</ele><time>2026-04-05T13:37:28Z</time></trkpt><trkpt lat="48.594497516879436" lon="-2.285889256059718"><ele>68.0</ele><time>2026-04-05T13:37:30Z</time></trkpt><trkpt lat="48.594519731148104" lon="-2.285978378198337"><ele>68.2</ele><time>2026-04-05T13:37:32Z</time></trkpt><trkpt lat="48.5945428296044" lon="-2.2860757397159244"><ele>68.4</ele><time>2026-04-05T13:37:34Z</time></trkpt><trkpt lat="48.59458189691269" lon="-2.286186497826609"><ele>68.60000000000001</ele><time>2026-04-05T13:37:36Z</time></trkpt><trkpt lat="48.59464927995948" lon="-2.286269154538482"><ele>68.8</ele><time>2026-04-05T13:37:38Z</time></trkpt><trkpt lat="48.59472585544328" lon="-2.286373510928099"><ele>69.0</ele><time>2026-04-05T13:37:40Z</time></trkpt><trkpt lat="48.59480808615549" lon="-2.286484663281094"><ele>69.2</ele><time>2026-04-05T13:37:42Z</time></trkpt><trkpt lat="48.5948804681115" lon="-2.2865898187269456"><ele>69.4</ele><time>2026-04-05T13:37:44Z</time></trkpt><trkpt lat="48.59496507050223" lon="-2.2866826636348563"><ele>69.6</ele><time>2026-04-05T13:37:46Z</time></trkpt><trkpt lat="48.59503908062843" lon="-2.2867924134832553"><ele>69.8</ele><time>2026-04-05T13:37:48Z</time></trkpt><trkpt lat="48.59510731455277" lon="-2.286923866811677"><ele>70.0</ele><time>2026-04-05T13:37:50Z</time></trkpt><trkpt lat="48.59515651446888" lon="-2.2870446187033524"><ele>70.0</ele><time>2026-04-05T13:37:52Z</time></trkpt><trkpt lat="48.595204551312776" lon="-2.287187403975145"><ele>70.0</ele><time>2026-04-05T13:37:54Z</time></trkpt><trkpt lat="48.59526599890128" lon="-2.2873379982965"><ele>70.0</ele><time>2026-04-05T13:37:57Z</time></trkpt><trkpt lat="48.595297224276074" lon="-2.2874586677236755"><ele>70.0</ele><time>2026-04-05T13:37:59Z</time></trkpt><trkpt lat="48.59534761269102" lon="-2.2875722185143954"><ele>70.0</ele><time>2026-04-05T13:38:01Z</time></trkpt><trkpt lat="48.595390973503974" lon="-2.2876789424068034"><ele>69.8</ele><time>2026-04-05T13:38:02Z</time></trkpt><trkpt lat="48.595449795385804" lon="-2.2878081035797058"><ele>69.6</ele><time>2026-04-05T13:38:04Z</time></trkpt><trkpt lat="48.59550119122133" lon="-2.2879233225864852"><ele>69.4</ele><time>2026-04-05T13:38:06Z</time></trkpt><trkpt lat="48.5955413490921" lon="-2.2880521170007477"><ele>69.2</ele><time>2026-04-05T13:38:08Z</time></trkpt><trkpt lat="48.595567365602044" lon="-2.2881867926071697"><ele>69.0</ele><time>2026-04-05T13:38:10Z</time></trkpt><trkpt lat="48.595587283048225" lon="-2.2883302170956186"><ele>69.0</ele><time>2026-04-05T13:38:12Z</time></trkpt><trkpt lat="48.5956131046233" lon="-2.288484227244478"><ele>69.0</ele><time>2026-04-05T13:38:14Z</time></trkpt><trkpt lat="48.59564454466454" lon="-2.2886442961880236"><ele>69.0</ele><time>2026-04-05T13:38:16Z</time></trkpt><trkpt lat="48.59566665075369" lon="-2.288800351450003"><ele>69.0</ele><time>2026-04-05T13:38:18Z</time></trkpt><trkpt lat="48.595686353648176" lon="-2.2889525970272806"><ele>69.0</ele><time>2026-04-05T13:38:20Z</time></trkpt><trkpt lat="48.59570971691463" lon="-2.289053066284422"><ele>69.2</ele><time>2026-04-05T13:38:22.999Z</time></trkpt><trkpt lat="48.595750149629886" lon="-2.289154527338238"><ele>69.4</ele><time>2026-04-05T13:38:23.999Z</time></trkpt><trkpt lat="48.59576901482986" lon="-2.2892609786721416"><ele>69.6</ele><time>2026-04-05T13:38:24.999Z</time></trkpt><trkpt lat="48.59581066872914" lon="-2.289397260550327"><ele>69.8</ele><time>2026-04-05T13:38:26.999Z</time></trkpt><trkpt lat="48.59589891730301" lon="-2.2896211201978423"><ele>70.0</ele><time>2026-04-05T13:38:28.999Z</time></trkpt><trkpt lat="48.595944701549364" lon="-2.2897553249499074"><ele>69.8</ele><time>2026-04-05T13:38:30.999Z</time></trkpt><trkpt lat="48.595978184375475" lon="-2.289900314234372"><ele>69.6</ele><time>2026-04-05T13:38:32.999Z</time></trkpt><trkpt lat="48.5960200542369" lon="-2.290041297579783"><ele>69.4</ele><time>2026-04-05T13:38:34.999Z</time></trkpt><trkpt lat="48.596060909170625" lon="-2.2901894057906422"><ele>69.2</ele><time>2026-04-05T13:38:36.999Z</time></trkpt><trkpt lat="48.596095649044855" lon="-2.2903377542272128"><ele>69.0</ele><time>2026-04-05T13:38:38.999Z</time></trkpt><trkpt lat="48.59613002173147" lon="-2.2904882408661202"><ele>69.0</ele><time>2026-04-05T13:38:40.999Z</time></trkpt><trkpt lat="48.59614434469979" lon="-2.290645072641452"><ele>69.0</ele><time>2026-04-05T13:38:42.999Z</time></trkpt><trkpt lat="48.59617555879859" lon="-2.2908007275197555"><ele>69.0</ele><time>2026-04-05T13:38:44.999Z</time></trkpt><trkpt lat="48.59619229357406" lon="-2.2909539277943396"><ele>69.0</ele><time>2026-04-05T13:38:46.999Z</time></trkpt><trkpt lat="48.596203088365016" lon="-2.291099504305693"><ele>69.0</ele><time>2026-04-05T13:38:48.999Z</time></trkpt><trkpt lat="48.59620223229051" lon="-2.2912183056970643"><ele>68.66666666666667</ele><time>2026-04-05T13:38:51.999Z</time></trkpt><trkpt lat="48.59620625488463" lon="-2.291328545488855"><ele>68.33333333333333</ele><time>2026-04-05T13:38:53.999Z</time></trkpt><trkpt lat="48.59623371215881" lon="-2.2915138988060497"><ele>68.0</ele><time>2026-04-05T13:38:54.999Z</time></trkpt><trkpt lat="48.59620247034885" lon="-2.291606276955619"><ele>67.66666666666666</ele><time>2026-04-05T13:38:56.999Z</time></trkpt><trkpt lat="48.5962390752675" lon="-2.2917126127006706"><ele>67.33333333333333</ele><time>2026-04-05T13:38:58.999Z</time></trkpt><trkpt lat="48.596302340646645" lon="-2.291769128263045"><ele>67.0</ele><time>2026-04-05T13:39:00.999Z</time></trkpt><trkpt lat="48.59638558363153" lon="-2.291739389259288"><ele>67.0</ele><time>2026-04-05T13:39:03.999Z</time></trkpt><trkpt lat="48.59646201362519" lon="-2.2916516661814814"><ele>67.0</ele><time>2026-04-05T13:39:06.999Z</time></trkpt><trkpt lat="48.59651082066405" lon="-2.291585071454295"><ele>67.0</ele><time>2026-04-05T13:39:08.999Z</time></trkpt><trkpt lat="48.59658435855069" lon="-2.2915259300985444"><ele>67.0</ele><time>2026-04-05T13:39:10.999Z</time></trkpt><trkpt lat="48.59666018703554" lon="-2.2914761997575175"><ele>67.0</ele><time>2026-04-05T13:39:12.999Z</time></trkpt><trkpt lat="48.59669550809647" lon="-2.2913738256915632"><ele>67.0</ele><time>2026-04-05T13:39:15Z</time></trkpt><trkpt lat="48.5967649517679" lon="-2.291317186015682"><ele>66.8</ele><time>2026-04-05T13:39:17Z</time></trkpt><trkpt lat="48.59684983132065" lon="-2.2912619427202814"><ele>66.6</ele><time>2026-04-05T13:39:19Z</time></trkpt><trkpt lat="48.596947919399135" lon="-2.291265349342853"><ele>66.39999999999999</ele><time>2026-04-05T13:39:21Z</time></trkpt><trkpt lat="48.59703959306458" lon="-2.2912691623088928"><ele>66.2</ele><time>2026-04-05T13:39:23Z</time></trkpt><trkpt lat="48.59713223604649" lon="-2.2912782154725004"><ele>66.0</ele><time>2026-04-05T13:39:25Z</time></trkpt><trkpt lat="48.597212497527714" lon="-2.2913805976676933"><ele>65.66666666666667</ele><time>2026-04-05T13:39:27Z</time></trkpt><trkpt lat="48.59726184523262" lon="-2.2914962721277763"><ele>65.33333333333333</ele><time>2026-04-05T13:39:29Z</time></trkpt><trkpt lat="48.597282479025004" lon="-2.291628522701635"><ele>65.0</ele><time>2026-04-05T13:39:31Z</time></trkpt><trkpt lat="48.59728106679475" lon="-2.291740833529491"><ele>64.66666666666666</ele><time>2026-04-05T13:39:33Z</time></trkpt><trkpt lat="48.59731964782739" lon="-2.2918494172706745"><ele>64.33333333333333</ele><time>2026-04-05T13:39:36Z</time></trkpt><trkpt lat="48.59734744635768" lon="-2.291972637710988"><ele>64.0</ele><time>2026-04-05T13:40:07Z</time></trkpt><trkpt lat="48.597350293021734" lon="-2.292086258198894"><ele>63.99999999999999</ele><time>2026-04-05T13:40:09Z</time></trkpt><trkpt lat="48.597360181540736" lon="-2.2921990334419187"><ele>64.0</ele><time>2026-04-05T13:40:11Z</time></trkpt><trkpt lat="48.597363453859856" lon="-2.2923250680601654"><ele>64.0</ele><time>2026-04-05T13:40:14Z</time></trkpt><trkpt lat="48.59738415123488" lon="-2.2924462998401554"><ele>64.0</ele><time>2026-04-05T13:40:49.999Z</time></trkpt><trkpt lat="48.597373122792476" lon="-2.292545064942897"><ele>63.99999999999999</ele><time>2026-04-05T13:40:51.999Z</time></trkpt><trkpt lat="48.59736413773452" lon="-2.292667763149956"><ele>64.0</ele><time>2026-04-05T13:40:53.999Z</time></trkpt><trkpt lat="48.597368476883844" lon="-2.292789814431386"><ele>64.16666666666666</ele><time>2026-04-05T13:40:55.999Z</time></trkpt><trkpt lat="48.59738153625314" lon="-2.2929213997505884"><ele>64.33333333333333</ele><time>2026-04-05T13:40:57.999Z</time></trkpt><trkpt lat="48.59739591513221" lon="-2.2930188445548985"><ele>64.5</ele><time>2026-04-05T13:40:59.999Z</time></trkpt><trkpt lat="48.59732393314106" lon="-2.293105928713728"><ele>64.66666666666667</ele><time>2026-04-05T13:41:01.999Z</time></trkpt><trkpt lat="48.59723901752261" lon="-2.293149184381429"><ele>64.83333333333334</ele><time>2026-04-05T13:41:03.999Z</time></trkpt><trkpt lat="48.59715838599688" lon="-2.293136005399548"><ele>65.0</ele><time>2026-04-05T13:41:05.999Z</time></trkpt><trkpt lat="48.59707680761551" lon="-2.2930725596722747"><ele>65.0</ele><time>2026-04-05T13:41:07.999Z</time></trkpt><trkpt lat="48.5970083906079" lon="-2.2930171889921636"><ele>65.0</ele><time>2026-04-05T13:41:09.999Z</time></trkpt><trkpt lat="48.59693547842157" lon="-2.292963364227902"><ele>65.0</ele><time>2026-04-05T13:41:11.999Z</time></trkpt><trkpt lat="48.59685284901826" lon="-2.2929138409850855"><ele>65.0</ele><time>2026-04-05T13:41:13.999Z</time></trkpt><trkpt lat="48.59677749894774" lon="-2.2928549713917104"><ele>65.0</ele><time>2026-04-05T13:41:15.999Z</time></trkpt><trkpt lat="48.59669990159661" lon="-2.2928059031264363"><ele>65.0</ele><time>2026-04-05T13:41:17.999Z</time></trkpt><trkpt lat="48.596622111035835" lon="-2.2927589601200182"><ele>65.42857142857143</ele><time>2026-04-05T13:41:20Z</time></trkpt><trkpt lat="48.59655323947111" lon="-2.2927126077540314"><ele>65.85714285714286</ele><time>2026-04-05T13:41:23Z</time></trkpt><trkpt lat="48.59649127330905" lon="-2.292667589292791"><ele>66.28571428571428</ele><time>2026-04-05T13:41:26Z</time></trkpt><trkpt lat="48.59642977744958" lon="-2.2926117222352063"><ele>66.71428571428572</ele><time>2026-04-05T13:41:28Z</time></trkpt><trkpt lat="48.5963483987446" lon="-2.2925683464090345"><ele>67.14285714285714</ele><time>2026-04-05T13:41:30Z</time></trkpt><trkpt lat="48.596279282947165" lon="-2.2925404890056824"><ele>67.57142857142857</ele><time>2026-04-05T13:41:32Z</time></trkpt><trkpt lat="48.59621952006455" lon="-2.292507091336172"><ele>68.0</ele><time>2026-04-05T13:41:34Z</time></trkpt><trkpt lat="48.5961433808196" lon="-2.2925275242369265"><ele>68.0</ele><time>2026-04-05T13:41:36Z</time></trkpt><trkpt lat="48.596060903682506" lon="-2.2926350926733265"><ele>68.0</ele><time>2026-04-05T13:41:38Z</time></trkpt><trkpt lat="48.59601225512755" lon="-2.292706290500111"><ele>68.0</ele><time>2026-04-05T13:41:39Z</time></trkpt><trkpt lat="48.59597440176776" lon="-2.2928035448947353"><ele>68.0</ele><time>2026-04-05T13:41:40Z</time></trkpt><trkpt lat="48.59591544162942" lon="-2.292875699808712"><ele>68.0</ele><time>2026-04-05T13:41:41Z</time></trkpt><trkpt lat="48.59587198053299" lon="-2.2929570726763617"><ele>68.0</ele><time>2026-04-05T13:41:42Z</time></trkpt><trkpt lat="48.595825099877395" lon="-2.2930481115220354"><ele>67.33333333333334</ele><time>2026-04-05T13:41:43Z</time></trkpt><trkpt lat="48.59577951773023" lon="-2.2931453098411563"><ele>66.66666666666667</ele><time>2026-04-05T13:41:44Z</time></trkpt><trkpt lat="48.59573332605218" lon="-2.2932494553411518"><ele>66.0</ele><time>2026-04-05T13:41:45Z</time></trkpt><trkpt lat="48.59570726144964" lon="-2.2933635437402864"><ele>65.33333333333333</ele><time>2026-04-05T13:41:46Z</time></trkpt><trkpt lat="48.5956692681475" lon="-2.2934503558614217"><ele>64.66666666666666</ele><time>2026-04-05T13:41:47Z</time></trkpt><trkpt lat="48.595634809060144" lon="-2.293533891046092"><ele>64.0</ele><time>2026-04-05T13:41:48Z</time></trkpt><trkpt lat="48.595572535476215" lon="-2.2937037153118407"><ele>63.99999999999999</ele><time>2026-04-05T13:41:50Z</time></trkpt><trkpt lat="48.5955348241714" lon="-2.2937906360631897"><ele>64.0</ele><time>2026-04-05T13:41:51Z</time></trkpt><trkpt lat="48.5954982262984" lon="-2.293873603501315"><ele>64.0</ele><time>2026-04-05T13:41:52Z</time></trkpt><trkpt lat="48.59546190689948" lon="-2.2939567928150764"><ele>64.0</ele><time>2026-04-05T13:41:53Z</time></trkpt><trkpt lat="48.59540042999003" lon="-2.294110044466401"><ele>63.99999999999999</ele><time>2026-04-05T13:41:55Z</time></trkpt><trkpt lat="48.595352785974775" lon="-2.294228968405881"><ele>64.0</ele><time>2026-04-05T13:41:57Z</time></trkpt><trkpt lat="48.595296155325435" lon="-2.2943385415596516"><ele>62.666666666666664</ele><time>2026-04-05T13:42:00Z</time></trkpt><trkpt lat="48.595285749202496" lon="-2.294482158850055"><ele>61.33333333333333</ele><time>2026-04-05T13:42:02Z</time></trkpt><trkpt lat="48.59523843884801" lon="-2.2946498388040553"><ele>60.0</ele><time>2026-04-05T13:42:04Z</time></trkpt><trkpt lat="48.59521688261167" lon="-2.29474397177852"><ele>58.66666666666667</ele><time>2026-04-05T13:42:05Z</time></trkpt><trkpt lat="48.59520500847385" lon="-2.2948485348881076"><ele>57.333333333333336</ele><time>2026-04-05T13:42:06Z</time></trkpt><trkpt lat="48.59519844478911" lon="-2.2949578173249634"><ele>56.0</ele><time>2026-04-05T13:42:07Z</time></trkpt><trkpt lat="48.59518828020442" lon="-2.2950732327479053"><ele>55.50000000000001</ele><time>2026-04-05T13:42:08Z</time></trkpt><trkpt lat="48.59518436466447" lon="-2.2951918747624553"><ele>55.0</ele><time>2026-04-05T13:42:09Z</time></trkpt><trkpt lat="48.59518053408235" lon="-2.2953165446736308"><ele>54.5</ele><time>2026-04-05T13:42:10Z</time></trkpt><trkpt lat="48.59517220529128" lon="-2.2954426493018825"><ele>54.0</ele><time>2026-04-05T13:42:11Z</time></trkpt><trkpt lat="48.59516305024076" lon="-2.2955719185596704"><ele>53.50000000000001</ele><time>2026-04-05T13:42:12Z</time></trkpt><trkpt lat="48.595158217687406" lon="-2.2957020528797254"><ele>53.0</ele><time>2026-04-05T13:42:13Z</time></trkpt><trkpt lat="48.59514838397066" lon="-2.295824192311185"><ele>52.66666666666667</ele><time>2026-04-05T13:42:14Z</time></trkpt><trkpt lat="48.595137499175465" lon="-2.2959185369720694"><ele>52.333333333333336</ele><time>2026-04-05T13:42:15Z</time></trkpt><trkpt lat="48.59511517288628" lon="-2.2960209835683267"><ele>52.0</ele><time>2026-04-05T13:42:16Z</time></trkpt><trkpt lat="48.59510760810106" lon="-2.296118619755049"><ele>51.66666666666667</ele><time>2026-04-05T13:42:17Z</time></trkpt><trkpt lat="48.59510557920263" lon="-2.296219648009977"><ele>51.333333333333336</ele><time>2026-04-05T13:42:18Z</time></trkpt><trkpt lat="48.595112568692656" lon="-2.2963276142346203"><ele>51.0</ele><time>2026-04-05T13:42:19Z</time></trkpt><trkpt lat="48.595172014236354" lon="-2.2965030471759773"><ele>50.8</ele><time>2026-04-05T13:42:21Z</time></trkpt><trkpt lat="48.595231548093544" lon="-2.2966469008572634"><ele>50.599999999999994</ele><time>2026-04-05T13:42:23Z</time></trkpt><trkpt lat="48.595303574443555" lon="-2.2968115928241892"><ele>50.4</ele><time>2026-04-05T13:42:25Z</time></trkpt><trkpt lat="48.59534666515879" lon="-2.2969002048943667"><ele>50.2</ele><time>2026-04-05T13:42:26Z</time></trkpt><trkpt lat="48.595392226688375" lon="-2.2969967235243716"><ele>50.0</ele><time>2026-04-05T13:42:27Z</time></trkpt><trkpt lat="48.595444615196236" lon="-2.297090506389749"><ele>50.00000000000001</ele><time>2026-04-05T13:42:28Z</time></trkpt><trkpt lat="48.595497929656105" lon="-2.2971897435415665"><ele>50.0</ele><time>2026-04-05T13:42:29Z</time></trkpt><trkpt lat="48.59555978425657" lon="-2.2972901068094087"><ele>50.0</ele><time>2026-04-05T13:42:30Z</time></trkpt><trkpt lat="48.59561928498526" lon="-2.297386682516835"><ele>50.0</ele><time>2026-04-05T13:42:31Z</time></trkpt><trkpt lat="48.59567742434025" lon="-2.2974803982522265"><ele>50.00000000000001</ele><time>2026-04-05T13:42:31.999Z</time></trkpt><trkpt lat="48.59571291265548" lon="-2.2975896255744623"><ele>50.0</ele><time>2026-04-05T13:42:32.999Z</time></trkpt><trkpt lat="48.595730512334214" lon="-2.2977103758135122"><ele>49.0</ele><time>2026-04-05T13:42:33.999Z</time></trkpt><trkpt lat="48.595732365556145" lon="-2.2978233614916386"><ele>48.0</ele><time>2026-04-05T13:42:34.999Z</time></trkpt><trkpt lat="48.595758401416205" lon="-2.2979252402830608"><ele>47.0</ele><time>2026-04-05T13:42:35.999Z</time></trkpt><trkpt lat="48.59578070814792" lon="-2.298108187693053"><ele>46.0</ele><time>2026-04-05T13:42:37.999Z</time></trkpt><trkpt lat="48.59580474363959" lon="-2.2982703848697343"><ele>45.0</ele><time>2026-04-05T13:42:39.999Z</time></trkpt><trkpt lat="48.595836399907554" lon="-2.298387758848603"><ele>45.0</ele><time>2026-04-05T13:42:41.999Z</time></trkpt><trkpt lat="48.59586867852022" lon="-2.298485898367461"><ele>45.0</ele><time>2026-04-05T13:42:43.999Z</time></trkpt><trkpt lat="48.59593683949046" lon="-2.2985597343249555"><ele>45.0</ele><time>2026-04-05T13:42:46.999Z</time></trkpt><trkpt lat="48.59600416869654" lon="-2.2986514303077095"><ele>45.0</ele><time>2026-04-05T13:42:49.999Z</time></trkpt><trkpt lat="48.59605335238996" lon="-2.2987198007235947"><ele>45.0</ele><time>2026-04-05T13:42:51.999Z</time></trkpt><trkpt lat="48.59611434976785" lon="-2.2988127698494902"><ele>45.0</ele><time>2026-04-05T13:42:54.999Z</time></trkpt><trkpt lat="48.596163970322934" lon="-2.298899008099663"><ele>44.833333333333336</ele><time>2026-04-05T13:42:58.999Z</time></trkpt><trkpt lat="48.59620767937055" lon="-2.2989828594063226"><ele>44.666666666666664</ele><time>2026-04-05T13:43:01.999Z</time></trkpt><trkpt lat="48.5962545105278" lon="-2.299090057267342"><ele>44.5</ele><time>2026-04-05T13:43:04.999Z</time></trkpt><trkpt lat="48.59630482344637" lon="-2.2992105931672686"><ele>44.33333333333333</ele><time>2026-04-05T13:43:07.999Z</time></trkpt><trkpt lat="48.59631363114486" lon="-2.2993326714159115"><ele>44.166666666666664</ele><time>2026-04-05T13:43:09.999Z</time></trkpt><trkpt lat="48.59637681362684" lon="-2.299464290010841"><ele>44.0</ele><time>2026-04-05T13:43:12.999Z</time></trkpt><trkpt lat="48.59641933937037" lon="-2.299595386128439"><ele>44.0</ele><time>2026-04-05T13:43:15.999Z</time></trkpt><trkpt lat="48.596458745083325" lon="-2.2996963695260604"><ele>44.0</ele><time>2026-04-05T13:43:17.999Z</time></trkpt><trkpt lat="48.59651260350254" lon="-2.2998482932149846"><ele>44.0</ele><time>2026-04-05T13:43:19.999Z</time></trkpt><trkpt lat="48.59655097470565" lon="-2.299936630217978"><ele>44.0</ele><time>2026-04-05T13:43:21.999Z</time></trkpt><trkpt lat="48.59659036029162" lon="-2.3000473590533286"><ele>44.0</ele><time>2026-04-05T13:43:23.999Z</time></trkpt><trkpt lat="48.59662380616333" lon="-2.300144413045039"><ele>44.0</ele><time>2026-04-05T13:43:26Z</time></trkpt><trkpt lat="48.596660104930066" lon="-2.3002411949190336"><ele>44.166666666666664</ele><time>2026-04-05T13:43:28Z</time></trkpt><trkpt lat="48.59670644748888" lon="-2.300350425610653"><ele>44.33333333333333</ele><time>2026-04-05T13:43:30Z</time></trkpt><trkpt lat="48.59675867196476" lon="-2.3004477979049134"><ele>44.5</ele><time>2026-04-05T13:43:32Z</time></trkpt><trkpt lat="48.596813519634786" lon="-2.3005439750912404"><ele>44.666666666666664</ele><time>2026-04-05T13:43:34Z</time></trkpt><trkpt lat="48.596879912061304" lon="-2.3006361697408364"><ele>44.833333333333336</ele><time>2026-04-05T13:43:36Z</time></trkpt><trkpt lat="48.59694420208737" lon="-2.300757409764209"><ele>45.0</ele><time>2026-04-05T13:43:38Z</time></trkpt><trkpt lat="48.59703212937085" lon="-2.3008930195500508"><ele>45.0</ele><time>2026-04-05T13:43:40Z</time></trkpt><trkpt lat="48.5970889698785" lon="-2.300952356801067"><ele>45.0</ele><time>2026-04-05T13:43:41Z</time></trkpt><trkpt lat="48.597179337466756" lon="-2.3010482020860805"><ele>45.0</ele><time>2026-04-05T13:43:44Z</time></trkpt><trkpt lat="48.59725445224545" lon="-2.3011523059402674"><ele>45.0</ele><time>2026-04-05T13:43:46Z</time></trkpt><trkpt lat="48.597304142709035" lon="-2.301215995640161"><ele>45.0</ele><time>2026-04-05T13:43:48Z</time></trkpt><trkpt lat="48.597383181028036" lon="-2.3013295855074545"><ele>45.4</ele><time>2026-04-05T13:43:50Z</time></trkpt><trkpt lat="48.597465485463765" lon="-2.3014463938603353"><ele>45.8</ele><time>2026-04-05T13:43:52Z</time></trkpt><trkpt lat="48.597540967795496" lon="-2.301548340665889"><ele>46.2</ele><time>2026-04-05T13:43:54Z</time></trkpt><trkpt lat="48.597621164848555" lon="-2.301648936344286"><ele>46.6</ele><time>2026-04-05T13:43:56Z</time></trkpt><trkpt lat="48.597710453326954" lon="-2.3017438360777214"><ele>47.0</ele><time>2026-04-05T13:43:58Z</time></trkpt><trkpt lat="48.597786341387625" lon="-2.30185921721063"><ele>46.6</ele><time>2026-04-05T13:44:00Z</time></trkpt><trkpt lat="48.59785718452058" lon="-2.301967339746713"><ele>46.2</ele><time>2026-04-05T13:44:02Z</time></trkpt><trkpt lat="48.59791953157544" lon="-2.30206448136055"><ele>45.8</ele><time>2026-04-05T13:44:05Z</time></trkpt><trkpt lat="48.5979641041966" lon="-2.302133929017569"><ele>45.4</ele><time>2026-04-05T13:44:07Z</time></trkpt><trkpt lat="48.59808530723298" lon="-2.3023444469066274"><ele>45.0</ele><time>2026-04-05T13:44:08Z</time></trkpt><trkpt lat="48.5981518674551" lon="-2.3024599468144404"><ele>45.0</ele><time>2026-04-05T13:44:10Z</time></trkpt><trkpt lat="48.59819196282035" lon="-2.302604232502427"><ele>45.0</ele><time>2026-04-05T13:44:12Z</time></trkpt><trkpt lat="48.598216908426686" lon="-2.3027485497816866"><ele>45.0</ele><time>2026-04-05T13:44:14Z</time></trkpt><trkpt lat="48.59823084112065" lon="-2.302906774572976"><ele>45.0</ele><time>2026-04-05T13:44:16Z</time></trkpt><trkpt lat="48.59822287454393" lon="-2.303058847907105"><ele>45.0</ele><time>2026-04-05T13:44:18Z</time></trkpt><trkpt lat="48.59820936608856" lon="-2.303204583063882"><ele>45.333333333333336</ele><time>2026-04-05T13:44:20Z</time></trkpt><trkpt lat="48.598192949102724" lon="-2.3033505645107626"><ele>45.666666666666664</ele><time>2026-04-05T13:44:22Z</time></trkpt><trkpt lat="48.59816960711698" lon="-2.3034990188842004"><ele>46.0</ele><time>2026-04-05T13:44:24Z</time></trkpt><trkpt lat="48.59813679974197" lon="-2.3035959036542186"><ele>46.33333333333333</ele><time>2026-04-05T13:44:26Z</time></trkpt><trkpt lat="48.59810519295275" lon="-2.303693627879817"><ele>46.666666666666664</ele><time>2026-04-05T13:44:28Z</time></trkpt><trkpt lat="48.59809205022984" lon="-2.303816236667482"><ele>47.0</ele><time>2026-04-05T13:44:30Z</time></trkpt><trkpt lat="48.59808302847095" lon="-2.3039583959124506"><ele>47.400000000000006</ele><time>2026-04-05T13:44:32Z</time></trkpt><trkpt lat="48.598069650445474" lon="-2.3040926169392675"><ele>47.800000000000004</ele><time>2026-04-05T13:44:34Z</time></trkpt><trkpt lat="48.598048446026176" lon="-2.304236515177171"><ele>48.2</ele><time>2026-04-05T13:44:36Z</time></trkpt><trkpt lat="48.59803258074527" lon="-2.30436968416092"><ele>48.6</ele><time>2026-04-05T13:44:38Z</time></trkpt><trkpt lat="48.59802361832337" lon="-2.304515589948561"><ele>49.0</ele><time>2026-04-05T13:44:40Z</time></trkpt><trkpt lat="48.59801276961656" lon="-2.304661215296225"><ele>49.400000000000006</ele><time>2026-04-05T13:44:42Z</time></trkpt><trkpt lat="48.59800419341872" lon="-2.3047740678188733"><ele>49.8</ele><time>2026-04-05T13:44:44Z</time></trkpt><trkpt lat="48.59798514376324" lon="-2.3050271442852805"><ele>50.2</ele><time>2026-04-05T13:44:45Z</time></trkpt><trkpt lat="48.59796742245861" lon="-2.3051636663217243"><ele>50.599999999999994</ele><time>2026-04-05T13:44:47Z</time></trkpt><trkpt lat="48.59796756184375" lon="-2.3053194168413245"><ele>51.0</ele><time>2026-04-05T13:44:48.999Z</time></trkpt><trkpt lat="48.59794792201229" lon="-2.3054613791328578"><ele>51.4</ele><time>2026-04-05T13:44:50.999Z</time></trkpt><trkpt lat="48.59795328092653" lon="-2.3056022637169415"><ele>51.8</ele><time>2026-04-05T13:44:52.999Z</time></trkpt><trkpt lat="48.59793706125891" lon="-2.305764498406561"><ele>52.199999999999996</ele><time>2026-04-05T13:44:54.999Z</time></trkpt><trkpt lat="48.59793597188167" lon="-2.305898872305303"><ele>52.599999999999994</ele><time>2026-04-05T13:44:56.999Z</time></trkpt><trkpt lat="48.597919102472964" lon="-2.3060422395906373"><ele>53.0</ele><time>2026-04-05T13:44:58.999Z</time></trkpt><trkpt lat="48.59789768492593" lon="-2.306200697364651"><ele>53.0</ele><time>2026-04-05T13:45:00.999Z</time></trkpt><trkpt lat="48.59786985112459" lon="-2.306353982171185"><ele>53.0</ele><time>2026-04-05T13:45:02.999Z</time></trkpt><trkpt lat="48.59784471216662" lon="-2.30649013898952"><ele>53.0</ele><time>2026-04-05T13:45:04.999Z</time></trkpt><trkpt lat="48.597828643088704" lon="-2.306629997056929"><ele>53.0</ele><time>2026-04-05T13:45:06.999Z</time></trkpt><trkpt lat="48.597805333516824" lon="-2.3068781766588295"><ele>52.8</ele><time>2026-04-05T13:45:09.999Z</time></trkpt><trkpt lat="48.59779300692983" lon="-2.307036715671624"><ele>52.599999999999994</ele><time>2026-04-05T13:45:11.999Z</time></trkpt><trkpt lat="48.59777872821131" lon="-2.3071734430131103"><ele>52.400000000000006</ele><time>2026-04-05T13:45:13.999Z</time></trkpt><trkpt lat="48.597778050540896" lon="-2.3073323326546653"><ele>52.2</ele><time>2026-04-05T13:45:15.999Z</time></trkpt><trkpt lat="48.59777139905555" lon="-2.307485809707275"><ele>52.0</ele><time>2026-04-05T13:45:17.999Z</time></trkpt><trkpt lat="48.59777256572611" lon="-2.3076333143631076"><ele>51.8</ele><time>2026-04-05T13:45:19.999Z</time></trkpt><trkpt lat="48.59778133538286" lon="-2.307797614828254"><ele>51.6</ele><time>2026-04-05T13:45:21.999Z</time></trkpt><trkpt lat="48.59779633237633" lon="-2.3079589185732132"><ele>51.4</ele><time>2026-04-05T13:45:23.999Z</time></trkpt><trkpt lat="48.597797934677466" lon="-2.3081204404563955"><ele>51.199999999999996</ele><time>2026-04-05T13:45:25.999Z</time></trkpt><trkpt lat="48.597808988777324" lon="-2.308277439786456"><ele>51.0</ele><time>2026-04-05T13:45:27.999Z</time></trkpt><trkpt lat="48.597805128999525" lon="-2.308405646605678"><ele>50.75</ele><time>2026-04-05T13:45:29.999Z</time></trkpt><trkpt lat="48.59781412790051" lon="-2.3085817446298376"><ele>50.5</ele><time>2026-04-05T13:45:32Z</time></trkpt><trkpt lat="48.59782155721257" lon="-2.3087611450203194"><ele>50.25</ele><time>2026-04-05T13:45:34Z</time></trkpt><trkpt lat="48.59783478395062" lon="-2.308954410682641"><ele>50.0</ele><time>2026-04-05T13:45:36Z</time></trkpt><trkpt lat="48.59784574409189" lon="-2.3091379944378967"><ele>49.333333333333336</ele><time>2026-04-05T13:45:38Z</time></trkpt><trkpt lat="48.59784936490206" lon="-2.3092358942105293"><ele>48.66666666666667</ele><time>2026-04-05T13:45:39Z</time></trkpt><trkpt lat="48.59787083124463" lon="-2.309418660140817"><ele>48.0</ele><time>2026-04-05T13:45:41Z</time></trkpt><trkpt lat="48.5978910673755" lon="-2.3095098366893887"><ele>47.333333333333336</ele><time>2026-04-05T13:45:42Z</time></trkpt><trkpt lat="48.597906809491406" lon="-2.3096085171912155"><ele>46.66666666666667</ele><time>2026-04-05T13:45:43Z</time></trkpt><trkpt lat="48.597926053634254" lon="-2.30970551021977"><ele>46.0</ele><time>2026-04-05T13:45:44Z</time></trkpt><trkpt lat="48.59795078581243" lon="-2.3098013542636684"><ele>45.714285714285715</ele><time>2026-04-05T13:45:45Z</time></trkpt><trkpt lat="48.59797936365285" lon="-2.3098954533525378"><ele>45.42857142857142</ele><time>2026-04-05T13:45:46Z</time></trkpt><trkpt lat="48.598001936035594" lon="-2.30999185551344"><ele>45.14285714285714</ele><time>2026-04-05T13:45:47Z</time></trkpt><trkpt lat="48.59802499488444" lon="-2.310093784400743"><ele>44.85714285714286</ele><time>2026-04-05T13:45:48Z</time></trkpt><trkpt lat="48.598043064399434" lon="-2.310197725081766"><ele>44.57142857142857</ele><time>2026-04-05T13:45:49Z</time></trkpt><trkpt lat="48.59806887580992" lon="-2.3102950553925443"><ele>44.285714285714285</ele><time>2026-04-05T13:45:50Z</time></trkpt><trkpt lat="48.598088844142396" lon="-2.3103922886605077"><ele>44.0</ele><time>2026-04-05T13:45:51Z</time></trkpt><trkpt lat="48.59811171777622" lon="-2.310488679023643"><ele>43.85714285714286</ele><time>2026-04-05T13:45:52Z</time></trkpt><trkpt lat="48.59813502347601" lon="-2.3105876438787454"><ele>43.714285714285715</ele><time>2026-04-05T13:45:53Z</time></trkpt><trkpt lat="48.59815459095979" lon="-2.310683730648277"><ele>43.57142857142857</ele><time>2026-04-05T13:45:54Z</time></trkpt><trkpt lat="48.598176631830235" lon="-2.310774852335664"><ele>43.42857142857143</ele><time>2026-04-05T13:45:55Z</time></trkpt><trkpt lat="48.59819132862195" lon="-2.310876428759251"><ele>43.285714285714285</ele><time>2026-04-05T13:45:56Z</time></trkpt><trkpt lat="48.59820522690671" lon="-2.310977011497267"><ele>43.142857142857146</ele><time>2026-04-05T13:45:57Z</time></trkpt><trkpt lat="48.59821960525779" lon="-2.31108190581086"><ele>43.0</ele><time>2026-04-05T13:45:58Z</time></trkpt><trkpt lat="48.59823458924353" lon="-2.3111882863200557"><ele>43.0</ele><time>2026-04-05T13:45:59Z</time></trkpt><trkpt lat="48.598245070335985" lon="-2.3112966629887666"><ele>43.0</ele><time>2026-04-05T13:46:00Z</time></trkpt><trkpt lat="48.5982566046147" lon="-2.3114053752488934"><ele>43.0</ele><time>2026-04-05T13:46:01Z</time></trkpt><trkpt lat="48.598258255468764" lon="-2.3115190940491246"><ele>43.0</ele><time>2026-04-05T13:46:02Z</time></trkpt><trkpt lat="48.59827608463898" lon="-2.3116339773293566"><ele>43.0</ele><time>2026-04-05T13:46:03Z</time></trkpt><trkpt lat="48.59826038802552" lon="-2.311751362577934"><ele>43.0</ele><time>2026-04-05T13:46:04Z</time></trkpt><trkpt lat="48.59825494399783" lon="-2.3118713811188565"><ele>42.66666666666667</ele><time>2026-04-05T13:46:05Z</time></trkpt><trkpt lat="48.598247942600096" lon="-2.3119727094518403"><ele>42.333333333333336</ele><time>2026-04-05T13:46:06Z</time></trkpt><trkpt lat="48.5982216007389" lon="-2.3121386296721798"><ele>42.0</ele><time>2026-04-05T13:46:08Z</time></trkpt><trkpt lat="48.598215154553614" lon="-2.3122369135905694"><ele>41.666666666666664</ele><time>2026-04-05T13:46:09Z</time></trkpt><trkpt lat="48.598240856289216" lon="-2.312344889193984"><ele>41.33333333333333</ele><time>2026-04-05T13:46:10Z</time></trkpt><trkpt lat="48.598284841157074" lon="-2.3124428179255654"><ele>41.0</ele><time>2026-04-05T13:46:11Z</time></trkpt><trkpt lat="48.59833312687177" lon="-2.312525159818365"><ele>40.83333333333333</ele><time>2026-04-05T13:46:12Z</time></trkpt><trkpt lat="48.59835975287916" lon="-2.3126313843492556"><ele>40.666666666666664</ele><time>2026-04-05T13:46:13Z</time></trkpt><trkpt lat="48.59840092608716" lon="-2.3127282502955273"><ele>40.5</ele><time>2026-04-05T13:46:14Z</time></trkpt><trkpt lat="48.59842529844953" lon="-2.3128418037050027"><ele>40.333333333333336</ele><time>2026-04-05T13:46:15Z</time></trkpt><trkpt lat="48.59845687946987" lon="-2.3129505347715735"><ele>40.16666666666667</ele><time>2026-04-05T13:46:16Z</time></trkpt><trkpt lat="48.59850682364244" lon="-2.31304854996448"><ele>40.0</ele><time>2026-04-05T13:46:17Z</time></trkpt><trkpt lat="48.59854496096581" lon="-2.3131524078642616"><ele>39.833333333333336</ele><time>2026-04-05T13:46:18Z</time></trkpt><trkpt lat="48.59858320219585" lon="-2.313260583477009"><ele>39.66666666666667</ele><time>2026-04-05T13:46:19Z</time></trkpt><trkpt lat="48.5986216150247" lon="-2.3133706315486307"><ele>39.5</ele><time>2026-04-05T13:46:20Z</time></trkpt><trkpt lat="48.59865724593592" lon="-2.3134711378926607"><ele>39.333333333333336</ele><time>2026-04-05T13:46:21Z</time></trkpt><trkpt lat="48.5986923315763" lon="-2.3135798030143024"><ele>39.166666666666664</ele><time>2026-04-05T13:46:22Z</time></trkpt><trkpt lat="48.59872634193977" lon="-2.313683718632498"><ele>39.0</ele><time>2026-04-05T13:46:23Z</time></trkpt><trkpt lat="48.59876141674791" lon="-2.3137891031580846"><ele>38.5</ele><time>2026-04-05T13:46:24Z</time></trkpt><trkpt lat="48.5987830157485" lon="-2.3139017513201057"><ele>38.0</ele><time>2026-04-05T13:46:25Z</time></trkpt><trkpt lat="48.598816422559636" lon="-2.3140060845704875"><ele>37.5</ele><time>2026-04-05T13:46:26Z</time></trkpt><trkpt lat="48.59884765306677" lon="-2.3141080117554638"><ele>37.0</ele><time>2026-04-05T13:46:27Z</time></trkpt><trkpt lat="48.59887078659785" lon="-2.3142186376022185"><ele>36.5</ele><time>2026-04-05T13:46:28Z</time></trkpt><trkpt lat="48.59888671406127" lon="-2.3143265154834487"><ele>36.0</ele><time>2026-04-05T13:46:29Z</time></trkpt><trkpt lat="48.598909434665124" lon="-2.314429102354202"><ele>35.5</ele><time>2026-04-05T13:46:30Z</time></trkpt><trkpt lat="48.59892812565305" lon="-2.3145274482673144"><ele>35.0</ele><time>2026-04-05T13:46:31Z</time></trkpt><trkpt lat="48.598943593330745" lon="-2.3146231906460897"><ele>34.5</ele><time>2026-04-05T13:46:32Z</time></trkpt><trkpt lat="48.59896240858781" lon="-2.3147144862298927"><ele>34.0</ele><time>2026-04-05T13:46:33Z</time></trkpt><trkpt lat="48.59898691656411" lon="-2.3148028191083987"><ele>33.5</ele><time>2026-04-05T13:46:34Z</time></trkpt><trkpt lat="48.59904696596294" lon="-2.3149372709576896"><ele>33.0</ele><time>2026-04-05T13:46:36Z</time></trkpt><trkpt lat="48.59919221763791" lon="-2.3149800883011165"><ele>32.833333333333336</ele><time>2026-04-05T13:46:38Z</time></trkpt><trkpt lat="48.59927141033166" lon="-2.3149955303316543"><ele>32.666666666666664</ele><time>2026-04-05T13:46:39Z</time></trkpt><trkpt lat="48.599352780373025" lon="-2.3150247075296524"><ele>32.5</ele><time>2026-04-05T13:46:40Z</time></trkpt><trkpt lat="48.59942661548774" lon="-2.3150603779950396"><ele>32.33333333333333</ele><time>2026-04-05T13:46:41Z</time></trkpt><trkpt lat="48.59949564762118" lon="-2.315091014183108"><ele>32.166666666666664</ele><time>2026-04-05T13:46:42Z</time></trkpt><trkpt lat="48.599568845591506" lon="-2.315104460303325"><ele>32.0</ele><time>2026-04-05T13:46:43Z</time></trkpt><trkpt lat="48.599633956096994" lon="-2.3151640977676986"><ele>31.857142857142854</ele><time>2026-04-05T13:46:44Z</time></trkpt><trkpt lat="48.59970076225812" lon="-2.315202064284087"><ele>31.71428571428571</ele><time>2026-04-05T13:46:45Z</time></trkpt><trkpt lat="48.599777828903456" lon="-2.315229262555743"><ele>31.57142857142857</ele><time>2026-04-05T13:46:46Z</time></trkpt><trkpt lat="48.599841157465676" lon="-2.3152761708437946"><ele>31.42857142857143</ele><time>2026-04-05T13:46:47Z</time></trkpt><trkpt lat="48.59989796890523" lon="-2.315333499298283"><ele>31.28571428571429</ele><time>2026-04-05T13:46:48Z</time></trkpt><trkpt lat="48.59995233013303" lon="-2.3153958504067598"><ele>31.142857142857146</ele><time>2026-04-05T13:46:49Z</time></trkpt><trkpt lat="48.60000296448323" lon="-2.3154538405877476"><ele>31.0</ele><time>2026-04-05T13:46:50Z</time></trkpt><trkpt lat="48.600051550816815" lon="-2.315515147598888"><ele>30.857142857142858</ele><time>2026-04-05T13:46:51Z</time></trkpt><trkpt lat="48.600091370932496" lon="-2.315599314170522"><ele>30.714285714285715</ele><time>2026-04-05T13:46:52Z</time></trkpt><trkpt lat="48.60013260815146" lon="-2.3156889836514183"><ele>30.571428571428573</ele><time>2026-04-05T13:46:53Z</time></trkpt><trkpt lat="48.60017856321049" lon="-2.315777871658127"><ele>30.42857142857143</ele><time>2026-04-05T13:46:54Z</time></trkpt><trkpt lat="48.60021774067517" lon="-2.3158721995217797"><ele>30.285714285714285</ele><time>2026-04-05T13:46:55Z</time></trkpt><trkpt lat="48.60025274808389" lon="-2.3159690818925363"><ele>30.142857142857146</ele><time>2026-04-05T13:46:56Z</time></trkpt><trkpt lat="48.60028874916434" lon="-2.316065027784058"><ele>30.0</ele><time>2026-04-05T13:46:56.999Z</time></trkpt><trkpt lat="48.60032813891967" lon="-2.3161639146947404"><ele>30.0</ele><time>2026-04-05T13:46:57.999Z</time></trkpt><trkpt lat="48.60036268706768" lon="-2.316258185908066"><ele>30.0</ele><time>2026-04-05T13:46:58.999Z</time></trkpt><trkpt lat="48.600398412321276" lon="-2.3163504710959577"><ele>30.0</ele><time>2026-04-05T13:46:59.999Z</time></trkpt><trkpt lat="48.600434958736635" lon="-2.3164442237644023"><ele>30.0</ele><time>2026-04-05T13:47:00.999Z</time></trkpt><trkpt lat="48.600474012531784" lon="-2.3165380950877807"><ele>30.0</ele><time>2026-04-05T13:47:01.999Z</time></trkpt><trkpt lat="48.60051996062852" lon="-2.3166323081520908"><ele>30.0</ele><time>2026-04-05T13:47:02.999Z</time></trkpt><trkpt lat="48.60054871650014" lon="-2.316730530141119"><ele>30.0</ele><time>2026-04-05T13:47:03.999Z</time></trkpt><trkpt lat="48.60058080157101" lon="-2.3168269923500073"><ele>30.0</ele><time>2026-04-05T13:47:04.999Z</time></trkpt><trkpt lat="48.60061542580549" lon="-2.316917583874329"><ele>30.0</ele><time>2026-04-05T13:47:05.999Z</time></trkpt><trkpt lat="48.60065835723322" lon="-2.317001781009574"><ele>30.0</ele><time>2026-04-05T13:47:06.999Z</time></trkpt><trkpt lat="48.600693684619756" lon="-2.3170928470985324"><ele>30.0</ele><time>2026-04-05T13:47:07.999Z</time></trkpt><trkpt lat="48.60072909945336" lon="-2.3171896543036685"><ele>30.0</ele><time>2026-04-05T13:47:08.999Z</time></trkpt><trkpt lat="48.600771039223226" lon="-2.3173005004590994"><ele>30.0</ele><time>2026-04-05T13:47:09.999Z</time></trkpt><trkpt lat="48.600809454259185" lon="-2.317397090313983"><ele>30.0</ele><time>2026-04-05T13:47:10.999Z</time></trkpt><trkpt lat="48.60084578058221" lon="-2.317504747679555"><ele>29.166666666666668</ele><time>2026-04-05T13:47:11.999Z</time></trkpt><trkpt lat="48.600887265752746" lon="-2.3176117968114918"><ele>28.333333333333336</ele><time>2026-04-05T13:47:12.999Z</time></trkpt><trkpt lat="48.600936114853205" lon="-2.317719055800856"><ele>27.5</ele><time>2026-04-05T13:47:13.999Z</time></trkpt><trkpt lat="48.60097878268949" lon="-2.3178310006232854"><ele>26.666666666666668</ele><time>2026-04-05T13:47:14.999Z</time></trkpt><trkpt lat="48.60102029750406" lon="-2.3179432452588724"><ele>25.833333333333336</ele><time>2026-04-05T13:47:15.999Z</time></trkpt><trkpt lat="48.60106302998755" lon="-2.3180561088177116"><ele>25.0</ele><time>2026-04-05T13:47:16.999Z</time></trkpt><trkpt lat="48.6011005208495" lon="-2.3181744164691795"><ele>24.833333333333336</ele><time>2026-04-05T13:47:17.999Z</time></trkpt><trkpt lat="48.60113635533496" lon="-2.3182837559322365"><ele>24.666666666666668</ele><time>2026-04-05T13:47:18.999Z</time></trkpt><trkpt lat="48.60116538290954" lon="-2.318403057108574"><ele>24.5</ele><time>2026-04-05T13:47:19.999Z</time></trkpt><trkpt lat="48.601195298685425" lon="-2.3185147179425414"><ele>24.333333333333336</ele><time>2026-04-05T13:47:20.999Z</time></trkpt><trkpt lat="48.60122004605241" lon="-2.3186250649997"><ele>24.166666666666668</ele><time>2026-04-05T13:47:21.999Z</time></trkpt><trkpt lat="48.60124906044089" lon="-2.3187344890277632"><ele>24.0</ele><time>2026-04-05T13:47:22.999Z</time></trkpt><trkpt lat="48.60129056988798" lon="-2.318846796387933"><ele>23.333333333333332</ele><time>2026-04-05T13:47:23.999Z</time></trkpt><trkpt lat="48.60133462738116" lon="-2.318952866970593"><ele>22.666666666666668</ele><time>2026-04-05T13:47:24.999Z</time></trkpt><trkpt lat="48.601392844255656" lon="-2.3190452119258658"><ele>22.0</ele><time>2026-04-05T13:47:25.999Z</time></trkpt><trkpt lat="48.601430230664896" lon="-2.319151332746084"><ele>21.333333333333336</ele><time>2026-04-05T13:47:26.999Z</time></trkpt><trkpt lat="48.60147990922436" lon="-2.319253125515021"><ele>20.666666666666668</ele><time>2026-04-05T13:47:27.999Z</time></trkpt><trkpt lat="48.601530813654236" lon="-2.3193616953900067"><ele>20.0</ele><time>2026-04-05T13:47:28.999Z</time></trkpt><trkpt lat="48.601581943147934" lon="-2.319463022086336"><ele>20.0</ele><time>2026-04-05T13:47:29.999Z</time></trkpt><trkpt lat="48.601639534274724" lon="-2.319562077877843"><ele>20.0</ele><time>2026-04-05T13:47:30.999Z</time></trkpt><trkpt lat="48.601697415721304" lon="-2.3196632426331596"><ele>20.0</ele><time>2026-04-05T13:47:31.999Z</time></trkpt><trkpt lat="48.60176692337565" lon="-2.319745276987268"><ele>20.0</ele><time>2026-04-05T13:47:32.999Z</time></trkpt><trkpt lat="48.60182048581126" lon="-2.319850382944478"><ele>20.0</ele><time>2026-04-05T13:47:33.999Z</time></trkpt><trkpt lat="48.60188971284089" lon="-2.3199296728592174"><ele>20.0</ele><time>2026-04-05T13:47:34.999Z</time></trkpt><trkpt lat="48.60195350168968" lon="-2.320021538188052"><ele>19.833333333333336</ele><time>2026-04-05T13:47:35.999Z</time></trkpt><trkpt lat="48.60200843529667" lon="-2.3201136236547906"><ele>19.666666666666668</ele><time>2026-04-05T13:47:36.999Z</time></trkpt><trkpt lat="48.60205796677504" lon="-2.3202087917478034"><ele>19.5</ele><time>2026-04-05T13:47:38Z</time></trkpt><trkpt lat="48.60209081674494" lon="-2.3203008285574103"><ele>19.333333333333332</ele><time>2026-04-05T13:47:39Z</time></trkpt><trkpt lat="48.60213366496228" lon="-2.3203884036472395"><ele>19.166666666666664</ele><time>2026-04-05T13:47:40Z</time></trkpt><trkpt lat="48.602171704141256" lon="-2.3204844328441188"><ele>19.0</ele><time>2026-04-05T13:47:41Z</time></trkpt><trkpt lat="48.60220945013183" lon="-2.3205776974249206"><ele>18.833333333333332</ele><time>2026-04-05T13:47:42Z</time></trkpt><trkpt lat="48.60224975992223" lon="-2.320669712055973"><ele>18.666666666666664</ele><time>2026-04-05T13:47:43Z</time></trkpt><trkpt lat="48.602284898198704" lon="-2.3207636454632823"><ele>18.5</ele><time>2026-04-05T13:47:44Z</time></trkpt><trkpt lat="48.602313437681" lon="-2.3208624824371347"><ele>18.333333333333332</ele><time>2026-04-05T13:47:45Z</time></trkpt><trkpt lat="48.602342950600125" lon="-2.320955462925539"><ele>18.166666666666668</ele><time>2026-04-05T13:47:46Z</time></trkpt><trkpt lat="48.60235366419785" lon="-2.3210538104328733"><ele>18.0</ele><time>2026-04-05T13:47:47Z</time></trkpt><trkpt lat="48.60237357137421" lon="-2.3212369340310857"><ele>18.25</ele><time>2026-04-05T13:47:49Z</time></trkpt><trkpt lat="48.60239602165432" lon="-2.3214224621175372"><ele>18.5</ele><time>2026-04-05T13:47:51Z</time></trkpt><trkpt lat="48.6024071616793" lon="-2.321597858126768"><ele>18.75</ele><time>2026-04-05T13:47:53Z</time></trkpt><trkpt lat="48.602414063797276" lon="-2.3217650706251627"><ele>19.0</ele><time>2026-04-05T13:47:55Z</time></trkpt><trkpt lat="48.60245154413404" lon="-2.3219049024176983"><ele>19.0</ele><time>2026-04-05T13:47:57Z</time></trkpt><trkpt lat="48.60248630957203" lon="-2.3220444289275286"><ele>19.0</ele><time>2026-04-05T13:47:59Z</time></trkpt><trkpt lat="48.60253344713351" lon="-2.3221815213541497"><ele>19.0</ele><time>2026-04-05T13:48:01Z</time></trkpt><trkpt lat="48.60257882922167" lon="-2.322329159232552"><ele>19.0</ele><time>2026-04-05T13:48:03Z</time></trkpt><trkpt lat="48.60261008412021" lon="-2.3224712778293424"><ele>19.0</ele><time>2026-04-05T13:48:05Z</time></trkpt><trkpt lat="48.60263412544927" lon="-2.3225606267136714"><ele>19.0</ele><time>2026-04-05T13:48:08Z</time></trkpt><trkpt lat="48.60271146729229" lon="-2.3227473977003115"><ele>19.0</ele><time>2026-04-05T13:48:11Z</time></trkpt><trkpt lat="48.60274933244215" lon="-2.3228798093020258"><ele>19.0</ele><time>2026-04-05T13:48:14Z</time></trkpt><trkpt lat="48.602775382595574" lon="-2.3229770361087656"><ele>19.0</ele><time>2026-04-05T13:48:16Z</time></trkpt><trkpt lat="48.60276861006051" lon="-2.323117534734282"><ele>19.0</ele><time>2026-04-05T13:48:18Z</time></trkpt><trkpt lat="48.602787815388695" lon="-2.323240874048742"><ele>19.25</ele><time>2026-04-05T13:48:20Z</time></trkpt><trkpt lat="48.60288338218342" lon="-2.3235714839059427"><ele>19.5</ele><time>2026-04-05T13:48:21Z</time></trkpt><trkpt lat="48.6028954756409" lon="-2.3237032134719957"><ele>19.75</ele><time>2026-04-05T13:48:23Z</time></trkpt><trkpt lat="48.602913958735726" lon="-2.323835694027129"><ele>20.0</ele><time>2026-04-05T13:48:25Z</time></trkpt><trkpt lat="48.60291211435082" lon="-2.3239698613946422"><ele>20.5</ele><time>2026-04-05T13:48:27Z</time></trkpt><trkpt lat="48.60292276385014" lon="-2.324099875301512"><ele>21.0</ele><time>2026-04-05T13:48:29Z</time></trkpt><trkpt lat="48.602929640777965" lon="-2.324225469405673"><ele>21.5</ele><time>2026-04-05T13:48:31Z</time></trkpt><trkpt lat="48.602925566292996" lon="-2.324345421439375"><ele>22.0</ele><time>2026-04-05T13:48:32Z</time></trkpt><trkpt lat="48.60292290237839" lon="-2.3242420832038766"><ele>22.5</ele><time>2026-04-05T13:48:34Z</time></trkpt><trkpt lat="48.60293390617119" lon="-2.324378092898626"><ele>23.0</ele><time>2026-04-05T13:48:37Z</time></trkpt><trkpt lat="48.60294168484053" lon="-2.324474239558892"><ele>23.0</ele><time>2026-04-05T13:48:39Z</time></trkpt><trkpt lat="48.6029542007876" lon="-2.3246289403310882"><ele>23.0</ele><time>2026-04-05T13:48:42Z</time></trkpt><trkpt lat="48.602961867348604" lon="-2.3247345877009447"><ele>23.0</ele><time>2026-04-05T13:48:44Z</time></trkpt><trkpt lat="48.60296868109983" lon="-2.32482998023739"><ele>23.0</ele><time>2026-04-05T13:48:46Z</time></trkpt><trkpt lat="48.602976750747935" lon="-2.3249429552954695"><ele>23.0</ele><time>2026-04-05T13:48:48Z</time></trkpt><trkpt lat="48.60297133529957" lon="-2.325061397445127"><ele>23.0</ele><time>2026-04-05T13:48:50Z</time></trkpt><trkpt lat="48.602979671887844" lon="-2.3252022287668206"><ele>23.4</ele><time>2026-04-05T13:48:52Z</time></trkpt><trkpt lat="48.60300385009579" lon="-2.3253424552569655"><ele>23.799999999999997</ele><time>2026-04-05T13:48:55Z</time></trkpt><trkpt lat="48.60301419831841" lon="-2.325506590175586"><ele>24.2</ele><time>2026-04-05T13:48:58Z</time></trkpt><trkpt lat="48.60301973239673" lon="-2.3256674438560356"><ele>24.6</ele><time>2026-04-05T13:49:00Z</time></trkpt><trkpt lat="48.603026693980894" lon="-2.325772422241157"><ele>25.0</ele><time>2026-04-05T13:49:00.999Z</time></trkpt><trkpt lat="48.603033183132354" lon="-2.3259084120099063"><ele>25.000000000000004</ele><time>2026-04-05T13:49:02.999Z</time></trkpt><trkpt lat="48.6030548631006" lon="-2.3260654719966216"><ele>25.0</ele><time>2026-04-05T13:49:05.999Z</time></trkpt><trkpt lat="48.60309178901159" lon="-2.326175015374812"><ele>25.0</ele><time>2026-04-05T13:49:07.999Z</time></trkpt><trkpt lat="48.60311424566841" lon="-2.3262859620345226"><ele>25.0</ele><time>2026-04-05T13:49:09.999Z</time></trkpt><trkpt lat="48.603151452059336" lon="-2.326381525662585"><ele>25.000000000000004</ele><time>2026-04-05T13:49:12.999Z</time></trkpt><trkpt lat="48.60317951747475" lon="-2.326476847102812"><ele>25.0</ele><time>2026-04-05T13:51:01Z</time></trkpt><trkpt lat="48.60319446216861" lon="-2.3265783505992053"><ele>25.000000000000004</ele><time>2026-04-05T13:51:04Z</time></trkpt><trkpt lat="48.60322829185625" lon="-2.326694652329466"><ele>25.0</ele><time>2026-04-05T13:51:07Z</time></trkpt><trkpt lat="48.6032577432536" lon="-2.326819885953355"><ele>25.0</ele><time>2026-04-05T13:51:09.999Z</time></trkpt><trkpt lat="48.60328855723033" lon="-2.3269147977956375"><ele>25.0</ele><time>2026-04-05T13:51:11.999Z</time></trkpt><trkpt lat="48.603311476948804" lon="-2.3270139740472997"><ele>25.000000000000004</ele><time>2026-04-05T13:51:13.999Z</time></trkpt><trkpt lat="48.60334864615917" lon="-2.32712949556822"><ele>25.0</ele><time>2026-04-05T13:51:15.999Z</time></trkpt><trkpt lat="48.603394757992994" lon="-2.327252865333695"><ele>25.2</ele><time>2026-04-05T13:51:17.999Z</time></trkpt><trkpt lat="48.603444960050375" lon="-2.3273799290264607"><ele>25.4</ele><time>2026-04-05T13:51:19.999Z</time></trkpt><trkpt lat="48.603504786389806" lon="-2.3275141766750633"><ele>25.6</ele><time>2026-04-05T13:51:21.999Z</time></trkpt><trkpt lat="48.60358940275227" lon="-2.3276309653444764"><ele>25.8</ele><time>2026-04-05T13:51:23.999Z</time></trkpt><trkpt lat="48.60365777616983" lon="-2.327766218235069"><ele>26.0</ele><time>2026-04-05T13:51:25.999Z</time></trkpt><trkpt lat="48.60371909272881" lon="-2.3279264128757764"><ele>25.333333333333332</ele><time>2026-04-05T13:51:27.999Z</time></trkpt><trkpt lat="48.60380623259425" lon="-2.328061848935954"><ele>24.666666666666664</ele><time>2026-04-05T13:51:29.999Z</time></trkpt><trkpt lat="48.6038750107054" lon="-2.3282208549137167"><ele>24.0</ele><time>2026-04-05T13:51:31.999Z</time></trkpt><trkpt lat="48.60389019845801" lon="-2.3283183271080077"><ele>23.333333333333332</ele><time>2026-04-05T13:51:32.999Z</time></trkpt><trkpt lat="48.60393224924371" lon="-2.3283955063212574"><ele>22.666666666666664</ele><time>2026-04-05T13:51:33.999Z</time></trkpt><trkpt lat="48.60395877340016" lon="-2.3284854306928464"><ele>22.0</ele><time>2026-04-05T13:51:34.999Z</time></trkpt><trkpt lat="48.603982987437334" lon="-2.3285762253826916"><ele>22.0</ele><time>2026-04-05T13:51:35.999Z</time></trkpt><trkpt lat="48.60400368226296" lon="-2.3286719838637353"><ele>22.0</ele><time>2026-04-05T13:51:36.999Z</time></trkpt><trkpt lat="48.60400724116377" lon="-2.328773844784788"><ele>22.0</ele><time>2026-04-05T13:51:37.999Z</time></trkpt><trkpt lat="48.604038025628675" lon="-2.3288664603406657"><ele>22.0</ele><time>2026-04-05T13:51:38.999Z</time></trkpt><trkpt lat="48.60406209358418" lon="-2.3290404326189678"><ele>22.0</ele><time>2026-04-05T13:51:40.999Z</time></trkpt><trkpt lat="48.60406603527779" lon="-2.3292014575647864"><ele>22.0</ele><time>2026-04-05T13:51:42.999Z</time></trkpt><trkpt lat="48.60408651597806" lon="-2.3293849325335"><ele>21.666666666666664</ele><time>2026-04-05T13:51:44.999Z</time></trkpt><trkpt lat="48.604098022236144" lon="-2.3295649188319176"><ele>21.333333333333332</ele><time>2026-04-05T13:51:46.999Z</time></trkpt><trkpt lat="48.60411828274548" lon="-2.32975110030559"><ele>21.0</ele><time>2026-04-05T13:51:48.999Z</time></trkpt><trkpt lat="48.604131701534136" lon="-2.329845883855959"><ele>20.666666666666668</ele><time>2026-04-05T13:51:50Z</time></trkpt><trkpt lat="48.60414096868011" lon="-2.3299402103263707"><ele>20.333333333333336</ele><time>2026-04-05T13:51:51Z</time></trkpt><trkpt lat="48.604152777551995" lon="-2.3300367672115865"><ele>20.0</ele><time>2026-04-05T13:51:52Z</time></trkpt><trkpt lat="48.60416434268779" lon="-2.330133691844723"><ele>19.714285714285715</ele><time>2026-04-05T13:51:53Z</time></trkpt><trkpt lat="48.60417356952848" lon="-2.3302297674329995"><ele>19.42857142857143</ele><time>2026-04-05T13:51:54Z</time></trkpt><trkpt lat="48.60418197141952" lon="-2.330325017557216"><ele>19.142857142857146</ele><time>2026-04-05T13:51:55Z</time></trkpt><trkpt lat="48.60418943956605" lon="-2.3304219767854577"><ele>18.857142857142858</ele><time>2026-04-05T13:51:56Z</time></trkpt><trkpt lat="48.604189465775285" lon="-2.330518406597473"><ele>18.571428571428573</ele><time>2026-04-05T13:51:57Z</time></trkpt><trkpt lat="48.60418463284136" lon="-2.3306207599591455"><ele>18.28571428571429</ele><time>2026-04-05T13:51:58Z</time></trkpt><trkpt lat="48.6041765546675" lon="-2.3307227819324954"><ele>18.0</ele><time>2026-04-05T13:51:59Z</time></trkpt><trkpt lat="48.60416591805899" lon="-2.33082959566857"><ele>17.714285714285715</ele><time>2026-04-05T13:52:00Z</time></trkpt><trkpt lat="48.60414787214204" lon="-2.3309353140970384"><ele>17.42857142857143</ele><time>2026-04-05T13:52:01Z</time></trkpt><trkpt lat="48.604133967338754" lon="-2.331041111742309"><ele>17.142857142857142</ele><time>2026-04-05T13:52:02Z</time></trkpt><trkpt lat="48.6041166941318" lon="-2.331149627676937"><ele>16.857142857142858</ele><time>2026-04-05T13:52:03Z</time></trkpt><trkpt lat="48.60409943816215" lon="-2.331259662192984"><ele>16.57142857142857</ele><time>2026-04-05T13:52:04Z</time></trkpt><trkpt lat="48.60408149361033" lon="-2.3313694034045134"><ele>16.285714285714285</ele><time>2026-04-05T13:52:05Z</time></trkpt><trkpt lat="48.60406465418109" lon="-2.331478366104155"><ele>16.0</ele><time>2026-04-05T13:52:06Z</time></trkpt><trkpt lat="48.60404806722332" lon="-2.3315863323065162"><ele>15.857142857142856</ele><time>2026-04-05T13:52:07Z</time></trkpt><trkpt lat="48.604030863684464" lon="-2.3316946144461443"><ele>15.714285714285712</ele><time>2026-04-05T13:52:08Z</time></trkpt><trkpt lat="48.60401368139021" lon="-2.331799941619539"><ele>15.571428571428571</ele><time>2026-04-05T13:52:09Z</time></trkpt><trkpt lat="48.603992844301864" lon="-2.331907151682904"><ele>15.428571428571427</ele><time>2026-04-05T13:52:10Z</time></trkpt><trkpt lat="48.603975148912546" lon="-2.332014772292358"><ele>15.285714285714285</ele><time>2026-04-05T13:52:11Z</time></trkpt><trkpt lat="48.60395695944206" lon="-2.3321244844858575"><ele>15.142857142857142</ele><time>2026-04-05T13:52:12Z</time></trkpt><trkpt lat="48.603937906488525" lon="-2.332229374505872"><ele>15.0</ele><time>2026-04-05T13:52:13Z</time></trkpt><trkpt lat="48.60391900927258" lon="-2.332335194925728"><ele>14.571428571428571</ele><time>2026-04-05T13:52:14Z</time></trkpt><trkpt lat="48.60389949646513" lon="-2.3324435206494507"><ele>14.142857142857142</ele><time>2026-04-05T13:52:15Z</time></trkpt><trkpt lat="48.6038984880199" lon="-2.3325602047487775"><ele>13.714285714285714</ele><time>2026-04-05T13:52:16Z</time></trkpt><trkpt lat="48.603867021587845" lon="-2.332664345830857"><ele>13.285714285714285</ele><time>2026-04-05T13:52:17Z</time></trkpt><trkpt lat="48.603853491085545" lon="-2.332770915118447"><ele>12.857142857142858</ele><time>2026-04-05T13:52:18Z</time></trkpt><trkpt lat="48.60383783499133" lon="-2.3328820532933574"><ele>12.428571428571427</ele><time>2026-04-05T13:52:19Z</time></trkpt><trkpt lat="48.603823905088234" lon="-2.3329877064249938"><ele>12.0</ele><time>2026-04-05T13:52:20Z</time></trkpt><trkpt lat="48.603810102597926" lon="-2.333099978990298"><ele>11.666666666666666</ele><time>2026-04-05T13:52:21Z</time></trkpt><trkpt lat="48.603797053504515" lon="-2.3332120055896373"><ele>11.333333333333334</ele><time>2026-04-05T13:52:22Z</time></trkpt><trkpt lat="48.60378692932909" lon="-2.3333202882632467"><ele>11.0</ele><time>2026-04-05T13:52:23Z</time></trkpt><trkpt lat="48.60376922384931" lon="-2.3334378458856304"><ele>10.666666666666668</ele><time>2026-04-05T13:52:24Z</time></trkpt><trkpt lat="48.60375344946031" lon="-2.3335502229597305"><ele>10.333333333333334</ele><time>2026-04-05T13:52:25Z</time></trkpt><trkpt lat="48.60373467587903" lon="-2.333664061987673"><ele>10.0</ele><time>2026-04-05T13:52:26Z</time></trkpt><trkpt lat="48.603720001015354" lon="-2.333775991364059"><ele>9.833333333333334</ele><time>2026-04-05T13:52:27Z</time></trkpt><trkpt lat="48.603700069628765" lon="-2.3338912146964987"><ele>9.666666666666668</ele><time>2026-04-05T13:52:28Z</time></trkpt><trkpt lat="48.603684658747866" lon="-2.334004788297704"><ele>9.5</ele><time>2026-04-05T13:52:29Z</time></trkpt><trkpt lat="48.603667497011905" lon="-2.334120123704944"><ele>9.333333333333334</ele><time>2026-04-05T13:52:30Z</time></trkpt><trkpt lat="48.60365102378526" lon="-2.3342371097368644"><ele>9.166666666666666</ele><time>2026-04-05T13:52:31Z</time></trkpt><trkpt lat="48.60363303110655" lon="-2.334348912652605"><ele>9.0</ele><time>2026-04-05T13:52:32Z</time></trkpt><trkpt lat="48.60361741523489" lon="-2.3344585985130606"><ele>9.0</ele><time>2026-04-05T13:52:33Z</time></trkpt><trkpt lat="48.60360524097881" lon="-2.3345673455738236"><ele>9.0</ele><time>2026-04-05T13:52:34Z</time></trkpt><trkpt lat="48.6035796357152" lon="-2.3347273535420503"><ele>9.0</ele><time>2026-04-05T13:52:36Z</time></trkpt><trkpt lat="48.603626989869994" lon="-2.3348366885933785"><ele>9.0</ele><time>2026-04-05T13:52:39Z</time></trkpt><trkpt lat="48.603697274856444" lon="-2.334895256312135"><ele>9.0</ele><time>2026-04-05T13:52:41Z</time></trkpt><trkpt lat="48.603736687688894" lon="-2.3348101073205973"><ele>9.0</ele><time>2026-04-05T13:52:42Z</time></trkpt><trkpt lat="48.60372570377863" lon="-2.3350406266206987"><ele>9.0</ele><time>2026-04-05T13:52:43Z</time></trkpt><trkpt lat="48.603723357994056" lon="-2.3352055009225707"><ele>9.0</ele><time>2026-04-05T13:52:45Z</time></trkpt><trkpt lat="48.60376925242675" lon="-2.335349042390508"><ele>9.0</ele><time>2026-04-05T13:52:47Z</time></trkpt><trkpt lat="48.603810288251466" lon="-2.335487579585432"><ele>9.0</ele><time>2026-04-05T13:52:49Z</time></trkpt><trkpt lat="48.60384642452811" lon="-2.335647608205457"><ele>9.0</ele><time>2026-04-05T13:52:51Z</time></trkpt><trkpt lat="48.60387570214192" lon="-2.3358071069335886"><ele>9.0</ele><time>2026-04-05T13:52:53Z</time></trkpt><trkpt lat="48.603901803427426" lon="-2.3359702519231087"><ele>9.0</ele><time>2026-04-05T13:52:55Z</time></trkpt><trkpt lat="48.60393184843615" lon="-2.336135516590765"><ele>9.0</ele><time>2026-04-05T13:52:57Z</time></trkpt><trkpt lat="48.60395150211712" lon="-2.3362991385309466"><ele>9.0</ele><time>2026-04-05T13:52:59Z</time></trkpt><trkpt lat="48.60397240746827" lon="-2.336456599138024"><ele>9.0</ele><time>2026-04-05T13:53:01Z</time></trkpt><trkpt lat="48.603986088771926" lon="-2.33660580749822"><ele>9.166666666666666</ele><time>2026-04-05T13:53:03Z</time></trkpt><trkpt lat="48.603997120065806" lon="-2.3367444743997705"><ele>9.333333333333334</ele><time>2026-04-05T13:53:05Z</time></trkpt><trkpt lat="48.604009188902474" lon="-2.336873376224788"><ele>9.5</ele><time>2026-04-05T13:53:07Z</time></trkpt><trkpt lat="48.60402336186951" lon="-2.3369943941523554"><ele>9.666666666666668</ele><time>2026-04-05T13:53:09Z</time></trkpt><trkpt lat="48.604032285266115" lon="-2.33709282058439"><ele>9.833333333333334</ele><time>2026-04-05T13:53:10.999Z</time></trkpt><trkpt lat="48.60403249536086" lon="-2.3372030345377635"><ele>10.0</ele><time>2026-04-05T13:53:13.999Z</time></trkpt><trkpt lat="48.6040448853234" lon="-2.3373379012591413"><ele>10.857142857142858</ele><time>2026-04-05T13:53:15.999Z</time></trkpt><trkpt lat="48.60405417665748" lon="-2.337433948391896"><ele>11.714285714285715</ele><time>2026-04-05T13:53:17.999Z</time></trkpt><trkpt lat="48.60406272287081" lon="-2.3375364475282177"><ele>12.571428571428571</ele><time>2026-04-05T13:53:19.999Z</time></trkpt><trkpt lat="48.60407375320267" lon="-2.337635585136299"><ele>13.428571428571427</ele><time>2026-04-05T13:53:21.999Z</time></trkpt><trkpt lat="48.60408429737212" lon="-2.3377392276519893"><ele>14.285714285714285</ele><time>2026-04-05T13:53:23.999Z</time></trkpt><trkpt lat="48.60409504508816" lon="-2.337834167654953"><ele>15.142857142857142</ele><time>2026-04-05T13:53:25.999Z</time></trkpt><trkpt lat="48.60410854651241" lon="-2.3379580784851375"><ele>16.0</ele><time>2026-04-05T13:53:28.999Z</time></trkpt><trkpt lat="48.604124024522314" lon="-2.3380703699491487"><ele>16.833333333333332</ele><time>2026-04-05T13:53:30.999Z</time></trkpt><trkpt lat="48.60414760767163" lon="-2.3382049575211314"><ele>17.666666666666664</ele><time>2026-04-05T13:53:33.999Z</time></trkpt><trkpt lat="48.604171083376364" lon="-2.338332718812482"><ele>18.5</ele><time>2026-04-05T13:53:36.999Z</time></trkpt><trkpt lat="48.60419992966718" lon="-2.338454734937136"><ele>19.333333333333332</ele><time>2026-04-05T13:53:39.999Z</time></trkpt><trkpt lat="48.60423610105078" lon="-2.3385764914744653"><ele>20.166666666666668</ele><time>2026-04-05T13:53:42.999Z</time></trkpt><trkpt lat="48.604264299553016" lon="-2.338692942629782"><ele>21.0</ele><time>2026-04-05T13:53:45.999Z</time></trkpt><trkpt lat="48.604297664346426" lon="-2.3388083883256847"><ele>21.857142857142858</ele><time>2026-04-05T13:53:48.999Z</time></trkpt><trkpt lat="48.60433229759139" lon="-2.338922595915619"><ele>22.714285714285715</ele><time>2026-04-05T13:53:52.999Z</time></trkpt><trkpt lat="48.60436054219764" lon="-2.3390340812190273"><ele>23.57142857142857</ele><time>2026-04-05T13:53:56Z</time></trkpt><trkpt lat="48.604382325790496" lon="-2.3391246339270175"><ele>24.42857142857143</ele><time>2026-04-05T13:53:59Z</time></trkpt><trkpt lat="48.60441321944356" lon="-2.33922307440648"><ele>25.285714285714285</ele><time>2026-04-05T13:54:02Z</time></trkpt><trkpt lat="48.60445282381822" lon="-2.3393279649688523"><ele>26.142857142857142</ele><time>2026-04-05T13:54:06Z</time></trkpt><trkpt lat="48.60448146065968" lon="-2.33942414938419"><ele>27.0</ele><time>2026-04-05T13:54:09Z</time></trkpt><trkpt lat="48.60451356560882" lon="-2.3395112052925047"><ele>27.428571428571427</ele><time>2026-04-05T13:54:12Z</time></trkpt><trkpt lat="48.60455411720995" lon="-2.339589370264664"><ele>27.857142857142854</ele><time>2026-04-05T13:54:15Z</time></trkpt><trkpt lat="48.604598102900496" lon="-2.3396626831011464"><ele>28.285714285714285</ele><time>2026-04-05T13:54:18Z</time></trkpt><trkpt lat="48.60464084970377" lon="-2.3397408183433686"><ele>28.714285714285715</ele><time>2026-04-05T13:54:21Z</time></trkpt><trkpt lat="48.60469016045737" lon="-2.339831633185118"><ele>29.142857142857142</ele><time>2026-04-05T13:54:25Z</time></trkpt><trkpt lat="48.60470125736416" lon="-2.3399271209023182"><ele>29.571428571428573</ele><time>2026-04-05T13:54:28Z</time></trkpt><trkpt lat="48.604728869147934" lon="-2.340019239587051"><ele>30.0</ele><time>2026-04-05T13:54:31Z</time></trkpt><trkpt lat="48.60476861130798" lon="-2.3401135902016494"><ele>30.714285714285715</ele><time>2026-04-05T13:54:35Z</time></trkpt><trkpt lat="48.604798172830705" lon="-2.340202194035187"><ele>31.428571428571427</ele><time>2026-04-05T13:54:38Z</time></trkpt><trkpt lat="48.60483047545916" lon="-2.340294988703662"><ele>32.14285714285714</ele><time>2026-04-05T13:54:41Z</time></trkpt><trkpt lat="48.60486860469308" lon="-2.3403847112269673"><ele>32.85714285714286</ele><time>2026-04-05T13:54:45Z</time></trkpt><trkpt lat="48.604888812924315" lon="-2.340480213373706"><ele>33.57142857142857</ele><time>2026-04-05T13:54:48Z</time></trkpt><trkpt lat="48.60492244808072" lon="-2.3405649241761726"><ele>34.285714285714285</ele><time>2026-04-05T13:54:52Z</time></trkpt><trkpt lat="48.60495635423424" lon="-2.340657468254243"><ele>35.0</ele><time>2026-04-05T13:54:56Z</time></trkpt><trkpt lat="48.60499133511733" lon="-2.340754084412147"><ele>35.83333333333333</ele><time>2026-04-05T13:55:00Z</time></trkpt><trkpt lat="48.60502257583869" lon="-2.3408643747777367"><ele>36.666666666666664</ele><time>2026-04-05T13:55:04Z</time></trkpt><trkpt lat="48.60505631122219" lon="-2.3409776750035935"><ele>37.5</ele><time>2026-04-05T13:55:09Z</time></trkpt><trkpt lat="48.6050939546464" lon="-2.3410903839137744"><ele>38.333333333333336</ele><time>2026-04-05T13:55:13Z</time></trkpt><trkpt lat="48.60513507188667" lon="-2.34117046804249"><ele>39.16666666666667</ele><time>2026-04-05T13:55:16Z</time></trkpt><trkpt lat="48.60516882439298" lon="-2.341267517683012"><ele>40.0</ele><time>2026-04-05T13:55:20Z</time></trkpt><trkpt lat="48.605200189622586" lon="-2.3413667195362864"><ele>40.857142857142854</ele><time>2026-04-05T13:55:23Z</time></trkpt><trkpt lat="48.605232310000176" lon="-2.341452722655988"><ele>41.714285714285715</ele><time>2026-04-05T13:55:25.999Z</time></trkpt><trkpt lat="48.60526162592411" lon="-2.341539731058762"><ele>42.57142857142857</ele><time>2026-04-05T13:55:28.999Z</time></trkpt><trkpt lat="48.60528522058674" lon="-2.3416306029332397"><ele>43.42857142857143</ele><time>2026-04-05T13:55:31.999Z</time></trkpt><trkpt lat="48.60533006857385" lon="-2.3417294096004087"><ele>44.285714285714285</ele><time>2026-04-05T13:55:35.999Z</time></trkpt><trkpt lat="48.605359733279904" lon="-2.3418292736303727"><ele>45.142857142857146</ele><time>2026-04-05T13:55:39.999Z</time></trkpt><trkpt lat="48.605406880759624" lon="-2.3419115073577124"><ele>46.0</ele><time>2026-04-05T13:55:43.999Z</time></trkpt><trkpt lat="48.60546050297866" lon="-2.341860625245937"><ele>46.5</ele><time>2026-04-05T13:57:10Z</time></trkpt><trkpt lat="48.6055112988216" lon="-2.3417801168329184"><ele>47.0</ele><time>2026-04-05T13:57:12Z</time></trkpt><trkpt lat="48.60556732468079" lon="-2.3417025015996393"><ele>47.5</ele><time>2026-04-05T13:57:14Z</time></trkpt><trkpt lat="48.6056217749528" lon="-2.341628089654143"><ele>48.0</ele><time>2026-04-05T13:57:15.999Z</time></trkpt><trkpt lat="48.605683362957514" lon="-2.3415417840391513"><ele>48.49999999999999</ele><time>2026-04-05T13:57:17.999Z</time></trkpt><trkpt lat="48.6057526479891" lon="-2.3414404856552054"><ele>49.0</ele><time>2026-04-05T13:57:19.999Z</time></trkpt><trkpt lat="48.605825232297995" lon="-2.3413426487164197"><ele>49.0</ele><time>2026-04-05T13:57:21.999Z</time></trkpt><trkpt lat="48.6058980419107" lon="-2.3412349327870734"><ele>49.0</ele><time>2026-04-05T13:57:23.999Z</time></trkpt><trkpt lat="48.605978103222306" lon="-2.341130598286778"><ele>49.0</ele><time>2026-04-05T13:57:25.999Z</time></trkpt><trkpt lat="48.60605218526293" lon="-2.3410188565654506"><ele>49.0</ele><time>2026-04-05T13:57:27.999Z</time></trkpt><trkpt lat="48.60613087069075" lon="-2.3409008386154397"><ele>49.0</ele><time>2026-04-05T13:57:29.999Z</time></trkpt><trkpt lat="48.60620776313732" lon="-2.3407888716700356"><ele>48.800000000000004</ele><time>2026-04-05T13:57:31.999Z</time></trkpt><trkpt lat="48.6062916688167" lon="-2.340684287820424"><ele>48.6</ele><time>2026-04-05T13:57:33.999Z</time></trkpt><trkpt lat="48.60637303386092" lon="-2.340579458113836"><ele>48.4</ele><time>2026-04-05T13:57:35.999Z</time></trkpt><trkpt lat="48.6064535015691" lon="-2.3404727105868006"><ele>48.2</ele><time>2026-04-05T13:57:37.999Z</time></trkpt><trkpt lat="48.606535240487396" lon="-2.3403710494002525"><ele>48.0</ele><time>2026-04-05T13:57:39.999Z</time></trkpt><trkpt lat="48.606621295797055" lon="-2.340274350789484"><ele>48.0</ele><time>2026-04-05T13:57:41.999Z</time></trkpt><trkpt lat="48.6067097234084" lon="-2.3401691998655108"><ele>48.0</ele><time>2026-04-05T13:57:43.999Z</time></trkpt><trkpt lat="48.606806840549" lon="-2.340070694916406"><ele>48.0</ele><time>2026-04-05T13:57:45.999Z</time></trkpt><trkpt lat="48.606903232399276" lon="-2.3399710747677984"><ele>48.0</ele><time>2026-04-05T13:57:47.999Z</time></trkpt><trkpt lat="48.6070020519422" lon="-2.3398741765468087"><ele>47.599999999999994</ele><time>2026-04-05T13:57:49.999Z</time></trkpt><trkpt lat="48.60709917743898" lon="-2.3397784027932764"><ele>47.199999999999996</ele><time>2026-04-05T13:57:51.999Z</time></trkpt><trkpt lat="48.60719367664622" lon="-2.3396858796060016"><ele>46.8</ele><time>2026-04-05T13:57:53.999Z</time></trkpt><trkpt lat="48.60728394074184" lon="-2.339597687114533"><ele>46.4</ele><time>2026-04-05T13:57:55.999Z</time></trkpt><trkpt lat="48.60737293334044" lon="-2.3395095444263605"><ele>46.0</ele><time>2026-04-05T13:57:57.999Z</time></trkpt><trkpt lat="48.60747027089781" lon="-2.339417078631339"><ele>46.0</ele><time>2026-04-05T13:57:59.999Z</time></trkpt><trkpt lat="48.60757129305224" lon="-2.3393121643914405"><ele>46.0</ele><time>2026-04-05T13:58:01.999Z</time></trkpt><trkpt lat="48.60762343696095" lon="-2.33925686869819"><ele>46.0</ele><time>2026-04-05T13:58:02.999Z</time></trkpt><trkpt lat="48.607675580013556" lon="-2.339195979836171"><ele>46.0</ele><time>2026-04-05T13:58:03.999Z</time></trkpt><trkpt lat="48.60772808954573" lon="-2.3391250745437495"><ele>46.0</ele><time>2026-04-05T13:58:04.999Z</time></trkpt><trkpt lat="48.60776321243169" lon="-2.339023068789212"><ele>46.0</ele><time>2026-04-05T13:58:05.999Z</time></trkpt><trkpt lat="48.60781121566487" lon="-2.3389361433759763"><ele>45.5</ele><time>2026-04-05T13:58:06.999Z</time></trkpt><trkpt lat="48.60785425314862" lon="-2.338843864106728"><ele>45.0</ele><time>2026-04-05T13:58:08Z</time></trkpt><trkpt lat="48.60790786910637" lon="-2.338761428065372"><ele>44.5</ele><time>2026-04-05T13:58:09Z</time></trkpt><trkpt lat="48.60794333505711" lon="-2.3386656462503255"><ele>44.0</ele><time>2026-04-05T13:58:10Z</time></trkpt><trkpt lat="48.60798634756155" lon="-2.3385693086997446"><ele>43.5</ele><time>2026-04-05T13:58:11Z</time></trkpt><trkpt lat="48.608032410642465" lon="-2.33847581933326"><ele>43.0</ele><time>2026-04-05T13:58:12Z</time></trkpt><trkpt lat="48.60808029955652" lon="-2.338383936964993"><ele>43.00000000000001</ele><time>2026-04-05T13:58:13Z</time></trkpt><trkpt lat="48.60813096398079" lon="-2.3382967797121483"><ele>43.0</ele><time>2026-04-05T13:58:14Z</time></trkpt><trkpt lat="48.60818058258056" lon="-2.338221749846124"><ele>43.0</ele><time>2026-04-05T13:58:15Z</time></trkpt><trkpt lat="48.608235412476816" lon="-2.3381564518141933"><ele>43.0</ele><time>2026-04-05T13:58:16Z</time></trkpt><trkpt lat="48.608295147220986" lon="-2.3380966118610265"><ele>43.0</ele><time>2026-04-05T13:58:17Z</time></trkpt><trkpt lat="48.60835692110566" lon="-2.338052162018514"><ele>43.00000000000001</ele><time>2026-04-05T13:58:18Z</time></trkpt><trkpt lat="48.60841643692024" lon="-2.3380130331804283"><ele>43.0</ele><time>2026-04-05T13:58:19Z</time></trkpt><trkpt lat="48.608528550358315" lon="-2.337960322215684"><ele>43.0</ele><time>2026-04-05T13:58:21Z</time></trkpt><trkpt lat="48.608628253369695" lon="-2.3379088571852504"><ele>43.0</ele><time>2026-04-05T13:58:23Z</time></trkpt><trkpt lat="48.60871737581893" lon="-2.3378494783218824"><ele>43.0</ele><time>2026-04-05T13:58:25Z</time></trkpt><trkpt lat="48.608791509807276" lon="-2.3378024746439663"><ele>43.0</ele><time>2026-04-05T13:58:27Z</time></trkpt><trkpt lat="48.60885024688454" lon="-2.3377422246357753"><ele>43.0</ele><time>2026-04-05T13:58:29Z</time></trkpt><trkpt lat="48.60891761523834" lon="-2.3377005287672277"><ele>43.0</ele><time>2026-04-05T13:58:31Z</time></trkpt><trkpt lat="48.60898850965256" lon="-2.337694092755971"><ele>43.00000000000001</ele><time>2026-04-05T13:58:33Z</time></trkpt><trkpt lat="48.60905408431836" lon="-2.3377065374910524"><ele>43.0</ele><time>2026-04-05T13:58:35Z</time></trkpt><trkpt lat="48.609095458589564" lon="-2.337783488851876"><ele>43.0</ele><time>2026-04-05T13:58:37Z</time></trkpt><trkpt lat="48.6090794869596" lon="-2.337919377947711"><ele>43.0</ele><time>2026-04-05T13:58:40Z</time></trkpt><trkpt lat="48.6090744150244" lon="-2.3380233495108937"><ele>43.0</ele><time>2026-04-05T13:58:42Z</time></trkpt><trkpt lat="48.60906509731476" lon="-2.3381222259950984"><ele>43.00000000000001</ele><time>2026-04-05T13:58:44Z</time></trkpt><trkpt lat="48.609053485836405" lon="-2.3382281552493303"><ele>43.0</ele><time>2026-04-05T13:58:46Z</time></trkpt><trkpt lat="48.60903648004108" lon="-2.3383418334033017"><ele>43.333333333333336</ele><time>2026-04-05T13:58:48Z</time></trkpt><trkpt lat="48.609027563856024" lon="-2.338471753094269"><ele>43.66666666666667</ele><time>2026-04-05T13:58:50Z</time></trkpt><trkpt lat="48.60902749344759" lon="-2.3386429490152842"><ele>44.0</ele><time>2026-04-05T13:58:53Z</time></trkpt><trkpt lat="48.60903677838134" lon="-2.3387595553147356"><ele>44.333333333333336</ele><time>2026-04-05T13:58:55Z</time></trkpt><trkpt lat="48.60903342157261" lon="-2.3388817317802086"><ele>44.666666666666664</ele><time>2026-04-05T13:58:57Z</time></trkpt><trkpt lat="48.60904274989389" lon="-2.3390023650869427"><ele>45.0</ele><time>2026-04-05T13:58:59Z</time></trkpt><trkpt lat="48.609034240973614" lon="-2.339155501852329"><ele>45.4</ele><time>2026-04-05T13:59:01Z</time></trkpt><trkpt lat="48.60903851001593" lon="-2.3392790974616706"><ele>45.8</ele><time>2026-04-05T13:59:03Z</time></trkpt><trkpt lat="48.60903591621792" lon="-2.3394056232536484"><ele>46.2</ele><time>2026-04-05T13:59:05Z</time></trkpt><trkpt lat="48.60903465813647" lon="-2.3395531542519734"><ele>46.6</ele><time>2026-04-05T13:59:08Z</time></trkpt><trkpt lat="48.60904938526706" lon="-2.339784088687827"><ele>47.0</ele><time>2026-04-05T13:59:11Z</time></trkpt><trkpt lat="48.60905423548229" lon="-2.339911047882508"><ele>47.33333333333333</ele><time>2026-04-05T13:59:13Z</time></trkpt><trkpt lat="48.60906016973674" lon="-2.340036849695447"><ele>47.666666666666664</ele><time>2026-04-05T13:59:15Z</time></trkpt><trkpt lat="48.609048679926076" lon="-2.340156584681544"><ele>48.0</ele><time>2026-04-05T13:59:17Z</time></trkpt><trkpt lat="48.609078293308784" lon="-2.3403002870392275"><ele>48.33333333333333</ele><time>2026-04-05T13:59:19Z</time></trkpt><trkpt lat="48.609084774487314" lon="-2.340426995506103"><ele>48.666666666666664</ele><time>2026-04-05T13:59:21Z</time></trkpt><trkpt lat="48.6090955126958" lon="-2.340538911095983"><ele>49.0</ele><time>2026-04-05T13:59:23Z</time></trkpt><trkpt lat="48.60910877238289" lon="-2.340660371599267"><ele>48.99999999999999</ele><time>2026-04-05T13:59:24.999Z</time></trkpt><trkpt lat="48.60911900689768" lon="-2.340788684918334"><ele>49.0</ele><time>2026-04-05T13:59:26.999Z</time></trkpt><trkpt lat="48.609128614380985" lon="-2.3409006632575546"><ele>49.0</ele><time>2026-04-05T13:59:28.999Z</time></trkpt><trkpt lat="48.609136379430986" lon="-2.341016321062919"><ele>49.0</ele><time>2026-04-05T13:59:32.999Z</time></trkpt><trkpt lat="48.60914722230437" lon="-2.3411255326992997"><ele>48.99999999999999</ele><time>2026-04-05T13:59:34.999Z</time></trkpt><trkpt lat="48.609179461732865" lon="-2.3412483475809593"><ele>49.0</ele><time>2026-04-05T13:59:36.999Z</time></trkpt><trkpt lat="48.609188587221325" lon="-2.3413576774705014"><ele>48.800000000000004</ele><time>2026-04-05T13:59:38.999Z</time></trkpt><trkpt lat="48.60922360489056" lon="-2.3414698723079783"><ele>48.6</ele><time>2026-04-05T13:59:40.999Z</time></trkpt><trkpt lat="48.60925421182467" lon="-2.341597756942095"><ele>48.4</ele><time>2026-04-05T13:59:42.999Z</time></trkpt><trkpt lat="48.60928906688675" lon="-2.341735870082746"><ele>48.2</ele><time>2026-04-05T13:59:44.999Z</time></trkpt><trkpt lat="48.609326551726625" lon="-2.3418896630862966"><ele>48.0</ele><time>2026-04-05T13:59:46.999Z</time></trkpt><trkpt lat="48.60937426937884" lon="-2.342054380463802"><ele>47.666666666666664</ele><time>2026-04-05T13:59:48.999Z</time></trkpt><trkpt lat="48.60942626979111" lon="-2.342228314159782"><ele>47.333333333333336</ele><time>2026-04-05T13:59:50.999Z</time></trkpt><trkpt lat="48.60945214621107" lon="-2.3423182279735237"><ele>47.0</ele><time>2026-04-05T13:59:51.999Z</time></trkpt><trkpt lat="48.609488055003254" lon="-2.3424046324319145"><ele>46.66666666666667</ele><time>2026-04-05T13:59:52.999Z</time></trkpt><trkpt lat="48.60951440861978" lon="-2.342497683809824"><ele>46.333333333333336</ele><time>2026-04-05T13:59:53.999Z</time></trkpt><trkpt lat="48.60954107416604" lon="-2.342591836619859"><ele>46.0</ele><time>2026-04-05T13:59:54.999Z</time></trkpt><trkpt lat="48.60956962991665" lon="-2.3426905927110377"><ele>45.333333333333336</ele><time>2026-04-05T13:59:55.999Z</time></trkpt><trkpt lat="48.609601266693744" lon="-2.342795813638109"><ele>44.66666666666667</ele><time>2026-04-05T13:59:56.999Z</time></trkpt><trkpt lat="48.60961975315095" lon="-2.3429155638260197"><ele>44.0</ele><time>2026-04-05T13:59:57.999Z</time></trkpt><trkpt lat="48.60966956268676" lon="-2.3430147558839356"><ele>43.333333333333336</ele><time>2026-04-05T13:59:58.999Z</time></trkpt><trkpt lat="48.60969413728152" lon="-2.3431314189732646"><ele>42.666666666666664</ele><time>2026-04-05T13:59:59.999Z</time></trkpt><trkpt lat="48.60973170197207" lon="-2.343239561328912"><ele>42.0</ele><time>2026-04-05T14:00:00.999Z</time></trkpt><trkpt lat="48.609771044311984" lon="-2.3433424218853722"><ele>41.666666666666664</ele><time>2026-04-05T14:00:01.999Z</time></trkpt><trkpt lat="48.609804831419915" lon="-2.3434296979777165"><ele>41.333333333333336</ele><time>2026-04-05T14:00:02.999Z</time></trkpt><trkpt lat="48.6098493743311" lon="-2.3435610967010287"><ele>41.0</ele><time>2026-04-05T14:00:04.999Z</time></trkpt><trkpt lat="48.60988813397772" lon="-2.343637957254083"><ele>40.66666666666667</ele><time>2026-04-05T14:00:06.999Z</time></trkpt><trkpt lat="48.60982255185291" lon="-2.3437993715774557"><ele>40.333333333333336</ele><time>2026-04-05T14:00:10.999Z</time></trkpt><trkpt lat="48.60976254353734" lon="-2.3438636552277266"><ele>40.0</ele><time>2026-04-05T14:00:12.999Z</time></trkpt><trkpt lat="48.60968486613762" lon="-2.3439150500798744"><ele>39.8</ele><time>2026-04-05T14:00:15Z</time></trkpt><trkpt lat="48.60961101063516" lon="-2.34398291723696"><ele>39.6</ele><time>2026-04-05T14:00:17Z</time></trkpt><trkpt lat="48.60953450103251" lon="-2.3440584616689883"><ele>39.4</ele><time>2026-04-05T14:00:19Z</time></trkpt><trkpt lat="48.60944440830057" lon="-2.3441290574906466"><ele>39.2</ele><time>2026-04-05T14:00:21Z</time></trkpt><trkpt lat="48.60935575948575" lon="-2.3442101432418707"><ele>39.0</ele><time>2026-04-05T14:00:23Z</time></trkpt><trkpt lat="48.60927698193478" lon="-2.344307127500367"><ele>39.6</ele><time>2026-04-05T14:00:25Z</time></trkpt><trkpt lat="48.6091811220566" lon="-2.344364293053012"><ele>40.2</ele><time>2026-04-05T14:00:27Z</time></trkpt><trkpt lat="48.60909566832238" lon="-2.344444279848685"><ele>40.800000000000004</ele><time>2026-04-05T14:00:29Z</time></trkpt><trkpt lat="48.60901141256917" lon="-2.3445218316029774"><ele>41.4</ele><time>2026-04-05T14:00:31Z</time></trkpt><trkpt lat="48.608921232306535" lon="-2.344599549625441"><ele>42.0</ele><time>2026-04-05T14:00:33Z</time></trkpt><trkpt lat="48.60885970447623" lon="-2.3446635506545954"><ele>41.5</ele><time>2026-04-05T14:00:36Z</time></trkpt><trkpt lat="48.60875333574846" lon="-2.344778325684784"><ele>41.0</ele><time>2026-04-05T14:00:37Z</time></trkpt><trkpt lat="48.60865783463181" lon="-2.344876997729988"><ele>40.5</ele><time>2026-04-05T14:00:39Z</time></trkpt><trkpt lat="48.60856087944248" lon="-2.3449516719365953"><ele>40.0</ele><time>2026-04-05T14:00:41Z</time></trkpt><trkpt lat="48.60847251099251" lon="-2.3450350460278058"><ele>40.8</ele><time>2026-04-05T14:00:43Z</time></trkpt><trkpt lat="48.60837337530884" lon="-2.3451072269488438"><ele>41.6</ele><time>2026-04-05T14:00:45Z</time></trkpt><trkpt lat="48.60829001709567" lon="-2.34520082329509"><ele>42.400000000000006</ele><time>2026-04-05T14:00:47Z</time></trkpt><trkpt lat="48.60819766349596" lon="-2.3452822430307623"><ele>43.2</ele><time>2026-04-05T14:00:49Z</time></trkpt><trkpt lat="48.60810480777123" lon="-2.345365029932029"><ele>44.0</ele><time>2026-04-05T14:00:51Z</time></trkpt><trkpt lat="48.60801373844017" lon="-2.3454426428448962"><ele>44.0</ele><time>2026-04-05T14:00:53Z</time></trkpt><trkpt lat="48.60791914650021" lon="-2.3455398354108565"><ele>44.0</ele><time>2026-04-05T14:00:55Z</time></trkpt><trkpt lat="48.607831645951364" lon="-2.34561739845684"><ele>44.0</ele><time>2026-04-05T14:00:57Z</time></trkpt><trkpt lat="48.60773790312135" lon="-2.3457004948436246"><ele>44.0</ele><time>2026-04-05T14:00:59Z</time></trkpt><trkpt lat="48.607648595651256" lon="-2.3457796596052236"><ele>44.0</ele><time>2026-04-05T14:01:01Z</time></trkpt><trkpt lat="48.60755929774297" lon="-2.3458588158829676"><ele>44.2</ele><time>2026-04-05T14:01:03Z</time></trkpt><trkpt lat="48.607469200316494" lon="-2.3459386808771576"><ele>44.400000000000006</ele><time>2026-04-05T14:01:05Z</time></trkpt><trkpt lat="48.607377764072695" lon="-2.3460197469461224"><ele>44.6</ele><time>2026-04-05T14:01:07Z</time></trkpt><trkpt lat="48.607286429346644" lon="-2.3461007844179376"><ele>44.8</ele><time>2026-04-05T14:01:09Z</time></trkpt><trkpt lat="48.60719371870834" lon="-2.3461830426756607"><ele>45.0</ele><time>2026-04-05T14:01:11Z</time></trkpt><trkpt lat="48.60709995219751" lon="-2.3462662377629386"><ele>45.0</ele><time>2026-04-05T14:01:13Z</time></trkpt><trkpt lat="48.60700269849867" lon="-2.34635252688933"><ele>45.0</ele><time>2026-04-05T14:01:15Z</time></trkpt><trkpt lat="48.606904356650276" lon="-2.3464373969228887"><ele>45.0</ele><time>2026-04-05T14:01:17Z</time></trkpt><trkpt lat="48.60680567584702" lon="-2.3465132728483065"><ele>45.0</ele><time>2026-04-05T14:01:19Z</time></trkpt><trkpt lat="48.60670774969936" lon="-2.346585467817757"><ele>45.0</ele><time>2026-04-05T14:01:21Z</time></trkpt><trkpt lat="48.606606489047415" lon="-2.346656001902185"><ele>45.75</ele><time>2026-04-05T14:01:23Z</time></trkpt><trkpt lat="48.60650475519805" lon="-2.346716191632123"><ele>46.5</ele><time>2026-04-05T14:01:24.999Z</time></trkpt><trkpt lat="48.606398761835365" lon="-2.346770278740488"><ele>47.25</ele><time>2026-04-05T14:01:26.999Z</time></trkpt><trkpt lat="48.60628826941811" lon="-2.3468146829241"><ele>48.0</ele><time>2026-04-05T14:01:28.999Z</time></trkpt><trkpt lat="48.60617503261169" lon="-2.346850536648144"><ele>47.5</ele><time>2026-04-05T14:01:30.999Z</time></trkpt><trkpt lat="48.606061356913266" lon="-2.346879555342942"><ele>47.0</ele><time>2026-04-05T14:01:32.999Z</time></trkpt><trkpt lat="48.60594305439381" lon="-2.3469046152355566"><ele>46.5</ele><time>2026-04-05T14:01:34.999Z</time></trkpt><trkpt lat="48.60582446016993" lon="-2.3469228900373387"><ele>46.0</ele><time>2026-04-05T14:01:36.999Z</time></trkpt><trkpt lat="48.60570612944455" lon="-2.346938173834626"><ele>46.0</ele><time>2026-04-05T14:01:38.999Z</time></trkpt><trkpt lat="48.60558549387144" lon="-2.3469534728764136"><ele>46.0</ele><time>2026-04-05T14:01:40.999Z</time></trkpt><trkpt lat="48.6054677379318" lon="-2.346966220872897"><ele>46.0</ele><time>2026-04-05T14:01:42.999Z</time></trkpt><trkpt lat="48.60535168541253" lon="-2.3469777533604"><ele>46.0</ele><time>2026-04-05T14:01:44.999Z</time></trkpt><trkpt lat="48.605235436490915" lon="-2.346987866236029"><ele>45.66666666666667</ele><time>2026-04-05T14:01:46.999Z</time></trkpt><trkpt lat="48.6051127613738" lon="-2.346998538117456"><ele>45.333333333333336</ele><time>2026-04-05T14:01:48.999Z</time></trkpt><trkpt lat="48.6050469144319" lon="-2.3469795028045994"><ele>45.0</ele><time>2026-04-05T14:01:49.999Z</time></trkpt><trkpt lat="48.604981815922784" lon="-2.346986683774647"><ele>44.666666666666664</ele><time>2026-04-05T14:01:50.999Z</time></trkpt><trkpt lat="48.604917832484226" lon="-2.347015495615378"><ele>44.33333333333333</ele><time>2026-04-05T14:01:51.999Z</time></trkpt><trkpt lat="48.60479076499202" lon="-2.34702654960791"><ele>44.0</ele><time>2026-04-05T14:01:53.999Z</time></trkpt><trkpt lat="48.604724538560845" lon="-2.347032310874689"><ele>44.0</ele><time>2026-04-05T14:01:54.999Z</time></trkpt><trkpt lat="48.604659600310775" lon="-2.3470379600504288"><ele>44.0</ele><time>2026-04-05T14:01:55.999Z</time></trkpt><trkpt lat="48.60459297136508" lon="-2.3470437563222806"><ele>44.0</ele><time>2026-04-05T14:01:56.999Z</time></trkpt><trkpt lat="48.60452762266818" lon="-2.347049441208075"><ele>44.0</ele><time>2026-04-05T14:01:57.999Z</time></trkpt><trkpt lat="48.604461346123536" lon="-2.3470552045001853"><ele>44.0</ele><time>2026-04-05T14:01:58.999Z</time></trkpt><trkpt lat="48.60439601994445" lon="-2.34706088743404"><ele>44.0</ele><time>2026-04-05T14:01:59.999Z</time></trkpt><trkpt lat="48.604328496867126" lon="-2.3470423011565678"><ele>44.0</ele><time>2026-04-05T14:02:00.999Z</time></trkpt><trkpt lat="48.604263697382706" lon="-2.3470488172475115"><ele>44.42857142857143</ele><time>2026-04-05T14:02:01.999Z</time></trkpt><trkpt lat="48.604196783154634" lon="-2.3470546604073332"><ele>44.857142857142854</ele><time>2026-04-05T14:02:02.999Z</time></trkpt><trkpt lat="48.60413242399784" lon="-2.3470606493871204"><ele>45.285714285714285</ele><time>2026-04-05T14:02:03.999Z</time></trkpt><trkpt lat="48.60406831170529" lon="-2.3470667374942376"><ele>45.714285714285715</ele><time>2026-04-05T14:02:04.999Z</time></trkpt><trkpt lat="48.604002182425" lon="-2.3470736181488756"><ele>46.14285714285714</ele><time>2026-04-05T14:02:05.999Z</time></trkpt><trkpt lat="48.60393767888736" lon="-2.3470765394296196"><ele>46.57142857142857</ele><time>2026-04-05T14:02:06.999Z</time></trkpt><trkpt lat="48.603873367387244" lon="-2.347106354646429"><ele>47.0</ele><time>2026-04-05T14:02:07.999Z</time></trkpt><trkpt lat="48.603807175379686" lon="-2.3471123568725547"><ele>47.0</ele><time>2026-04-05T14:02:08.999Z</time></trkpt><trkpt lat="48.60374249401846" lon="-2.3471182906718795"><ele>47.0</ele><time>2026-04-05T14:02:09.999Z</time></trkpt><trkpt lat="48.60367624929662" lon="-2.3471243678945624"><ele>47.0</ele><time>2026-04-05T14:02:10.999Z</time></trkpt><trkpt lat="48.603608678733245" lon="-2.347130440339383"><ele>47.0</ele><time>2026-04-05T14:02:11.999Z</time></trkpt><trkpt lat="48.6035430555399" lon="-2.347136191295284"><ele>47.0</ele><time>2026-04-05T14:02:12.999Z</time></trkpt><trkpt lat="48.60347912531163" lon="-2.34714179388605"><ele>47.0</ele><time>2026-04-05T14:02:13.999Z</time></trkpt><trkpt lat="48.60341384667788" lon="-2.3471475146435856"><ele>47.0</ele><time>2026-04-05T14:02:14.999Z</time></trkpt><trkpt lat="48.60334832174916" lon="-2.3471532569862315"><ele>47.0</ele><time>2026-04-05T14:02:15.999Z</time></trkpt><trkpt lat="48.603283654907706" lon="-2.347158924129756"><ele>47.0</ele><time>2026-04-05T14:02:16.999Z</time></trkpt><trkpt lat="48.60321756362704" lon="-2.347164716107939"><ele>47.0</ele><time>2026-04-05T14:02:17.999Z</time></trkpt><trkpt lat="48.60314863933919" lon="-2.3471707563559447"><ele>47.0</ele><time>2026-04-05T14:02:18.999Z</time></trkpt><trkpt lat="48.603078357973" lon="-2.3471768147615872"><ele>47.0</ele><time>2026-04-05T14:02:20Z</time></trkpt><trkpt lat="48.603008053009944" lon="-2.347182848571787"><ele>47.0</ele><time>2026-04-05T14:02:21Z</time></trkpt><trkpt lat="48.60293684258151" lon="-2.347188960089811"><ele>47.0</ele><time>2026-04-05T14:02:22Z</time></trkpt><trkpt lat="48.60286640769734" lon="-2.347195005052255"><ele>46.33333333333333</ele><time>2026-04-05T14:02:23Z</time></trkpt><trkpt lat="48.60279382139402" lon="-2.347201234657807"><ele>45.666666666666664</ele><time>2026-04-05T14:02:24Z</time></trkpt><trkpt lat="48.60272048492392" lon="-2.3472075286419756"><ele>45.0</ele><time>2026-04-05T14:02:25Z</time></trkpt><trkpt lat="48.60264542680442" lon="-2.3472139703824726"><ele>44.333333333333336</ele><time>2026-04-05T14:02:26Z</time></trkpt><trkpt lat="48.60256946498629" lon="-2.347220489686507"><ele>43.66666666666667</ele><time>2026-04-05T14:02:27Z</time></trkpt><trkpt lat="48.60249060246904" lon="-2.3472272579342426"><ele>43.0</ele><time>2026-04-05T14:02:28Z</time></trkpt><trkpt lat="48.60240936372005" lon="-2.3472342301221816"><ele>42.333333333333336</ele><time>2026-04-05T14:02:29Z</time></trkpt><trkpt lat="48.60232698436703" lon="-2.3472413002001087"><ele>41.66666666666667</ele><time>2026-04-05T14:02:30Z</time></trkpt><trkpt lat="48.60224482040215" lon="-2.3472483517914218"><ele>41.0</ele><time>2026-04-05T14:02:31Z</time></trkpt><trkpt lat="48.60216231915855" lon="-2.3472554323268797"><ele>40.333333333333336</ele><time>2026-04-05T14:02:32Z</time></trkpt><trkpt lat="48.60207862263975" lon="-2.347262687853922"><ele>39.666666666666664</ele><time>2026-04-05T14:02:33Z</time></trkpt><trkpt lat="48.60199647134686" lon="-2.3472704938513926"><ele>39.0</ele><time>2026-04-05T14:02:34Z</time></trkpt><trkpt lat="48.6019207002406" lon="-2.3472776936067143"><ele>38.833333333333336</ele><time>2026-04-05T14:02:35Z</time></trkpt><trkpt lat="48.60185652942935" lon="-2.347283791109905"><ele>38.666666666666664</ele><time>2026-04-05T14:02:36Z</time></trkpt><trkpt lat="48.60175587975023" lon="-2.3472933548187527"><ele>38.5</ele><time>2026-04-05T14:02:38Z</time></trkpt><trkpt lat="48.60168140458655" lon="-2.347300431435293"><ele>38.33333333333333</ele><time>2026-04-05T14:02:40Z</time></trkpt><trkpt lat="48.60175249238198" lon="-2.347374274557782"><ele>38.166666666666664</ele><time>2026-04-05T14:02:44Z</time></trkpt><trkpt lat="48.60183654615154" lon="-2.347388914906329"><ele>38.0</ele><time>2026-04-05T14:02:46Z</time></trkpt><trkpt lat="48.601926591453996" lon="-2.347404328908086"><ele>38.199999999999996</ele><time>2026-04-05T14:02:48Z</time></trkpt><trkpt lat="48.60202187594332" lon="-2.3474248799813378"><ele>38.4</ele><time>2026-04-05T14:02:50Z</time></trkpt><trkpt lat="48.60212403231435" lon="-2.347443778750589"><ele>38.599999999999994</ele><time>2026-04-05T14:02:52Z</time></trkpt><trkpt lat="48.60222428230285" lon="-2.3474731689264137"><ele>38.8</ele><time>2026-04-05T14:02:54Z</time></trkpt><trkpt lat="48.602315349472356" lon="-2.347507493498009"><ele>39.0</ele><time>2026-04-05T14:02:56Z</time></trkpt><trkpt lat="48.60239531060482" lon="-2.3475786515667387"><ele>39.0</ele><time>2026-04-05T14:02:58Z</time></trkpt><trkpt lat="48.602460254175384" lon="-2.347708047185474"><ele>39.0</ele><time>2026-04-05T14:03:00Z</time></trkpt><trkpt lat="48.60249086762695" lon="-2.3478915932824065"><ele>39.0</ele><time>2026-04-05T14:03:02Z</time></trkpt><trkpt lat="48.60250155784436" lon="-2.347996273322723"><ele>39.0</ele><time>2026-04-05T14:03:03Z</time></trkpt><trkpt lat="48.60251178349331" lon="-2.3481028861656696"><ele>39.0</ele><time>2026-04-05T14:03:04Z</time></trkpt><trkpt lat="48.60251939491774" lon="-2.348219414750389"><ele>38.333333333333336</ele><time>2026-04-05T14:03:05Z</time></trkpt><trkpt lat="48.60252969017251" lon="-2.348338082517624"><ele>37.666666666666664</ele><time>2026-04-05T14:03:06Z</time></trkpt><trkpt lat="48.602544495383036" lon="-2.34846321904256"><ele>37.0</ele><time>2026-04-05T14:03:07Z</time></trkpt><trkpt lat="48.60256054163994" lon="-2.348592057823343"><ele>36.33333333333333</ele><time>2026-04-05T14:03:08Z</time></trkpt><trkpt lat="48.60257471575292" lon="-2.3487241329868387"><ele>35.666666666666664</ele><time>2026-04-05T14:03:09Z</time></trkpt><trkpt lat="48.60258826982498" lon="-2.348861142861361"><ele>35.0</ele><time>2026-04-05T14:03:10Z</time></trkpt><trkpt lat="48.602602896461356" lon="-2.3489979745420437"><ele>34.166666666666664</ele><time>2026-04-05T14:03:11Z</time></trkpt><trkpt lat="48.60261226750398" lon="-2.349126074226184"><ele>33.33333333333333</ele><time>2026-04-05T14:03:12Z</time></trkpt><trkpt lat="48.602624664071016" lon="-2.349245828978177"><ele>32.5</ele><time>2026-04-05T14:03:13Z</time></trkpt><trkpt lat="48.602637199308646" lon="-2.3493668853409524"><ele>31.666666666666664</ele><time>2026-04-05T14:03:14Z</time></trkpt><trkpt lat="48.60265110503597" lon="-2.34948134501784"><ele>30.833333333333332</ele><time>2026-04-05T14:03:15Z</time></trkpt><trkpt lat="48.60266220287984" lon="-2.3495784769775856"><ele>30.0</ele><time>2026-04-05T14:03:16Z</time></trkpt><trkpt lat="48.60269609025848" lon="-2.34975669884734"><ele>29.142857142857142</ele><time>2026-04-05T14:03:18Z</time></trkpt><trkpt lat="48.60273295593158" lon="-2.349835660371574"><ele>28.285714285714285</ele><time>2026-04-05T14:03:19Z</time></trkpt><trkpt lat="48.60278799584689" lon="-2.3498971533144677"><ele>27.428571428571427</ele><time>2026-04-05T14:03:20Z</time></trkpt><trkpt lat="48.602851534132554" lon="-2.349936744719478"><ele>26.57142857142857</ele><time>2026-04-05T14:03:21Z</time></trkpt><trkpt lat="48.6029208167953" lon="-2.3499549726232507"><ele>25.714285714285715</ele><time>2026-04-05T14:03:22Z</time></trkpt><trkpt lat="48.60298962311354" lon="-2.34996484336818"><ele>24.857142857142854</ele><time>2026-04-05T14:03:23Z</time></trkpt><trkpt lat="48.60305811244327" lon="-2.3499802704062778"><ele>24.0</ele><time>2026-04-05T14:03:24Z</time></trkpt><trkpt lat="48.603128283351445" lon="-2.3500084751373054"><ele>23.857142857142854</ele><time>2026-04-05T14:03:25Z</time></trkpt><trkpt lat="48.60319781643501" lon="-2.350043109288487"><ele>23.714285714285715</ele><time>2026-04-05T14:03:26Z</time></trkpt><trkpt lat="48.603264726902346" lon="-2.3500775030067063"><ele>23.57142857142857</ele><time>2026-04-05T14:03:27Z</time></trkpt><trkpt lat="48.60333509049644" lon="-2.350117269870607"><ele>23.428571428571427</ele><time>2026-04-05T14:03:28Z</time></trkpt><trkpt lat="48.60340298046919" lon="-2.35016130834871"><ele>23.285714285714285</ele><time>2026-04-05T14:03:29Z</time></trkpt><trkpt lat="48.603472324505645" lon="-2.350205260167344"><ele>23.142857142857142</ele><time>2026-04-05T14:03:30Z</time></trkpt><trkpt lat="48.60354140338835" lon="-2.350247662152288"><ele>23.0</ele><time>2026-04-05T14:03:31Z</time></trkpt><trkpt lat="48.60360925983749" lon="-2.350293077631854"><ele>22.833333333333336</ele><time>2026-04-05T14:03:32Z</time></trkpt><trkpt lat="48.60367838459383" lon="-2.350335144720437"><ele>22.666666666666668</ele><time>2026-04-05T14:03:33Z</time></trkpt><trkpt lat="48.60374715824951" lon="-2.3503857016457204"><ele>22.5</ele><time>2026-04-05T14:03:34Z</time></trkpt><trkpt lat="48.60382168633514" lon="-2.3504309965537313"><ele>22.333333333333332</ele><time>2026-04-05T14:03:35Z</time></trkpt><trkpt lat="48.60389150371851" lon="-2.350481258682297"><ele>22.166666666666664</ele><time>2026-04-05T14:03:36Z</time></trkpt><trkpt lat="48.60396116484586" lon="-2.350531627013232"><ele>22.0</ele><time>2026-04-05T14:03:37Z</time></trkpt><trkpt lat="48.60403036234476" lon="-2.350583431902621"><ele>21.166666666666664</ele><time>2026-04-05T14:03:38Z</time></trkpt><trkpt lat="48.604101345176836" lon="-2.3506337402597426"><ele>20.333333333333332</ele><time>2026-04-05T14:03:39Z</time></trkpt><trkpt lat="48.604173861781355" lon="-2.3506839780441915"><ele>19.5</ele><time>2026-04-05T14:03:40Z</time></trkpt><trkpt lat="48.60424944542773" lon="-2.350734527513118"><ele>18.666666666666668</ele><time>2026-04-05T14:03:40.999Z</time></trkpt><trkpt lat="48.60432476449194" lon="-2.3507860452020752"><ele>17.833333333333336</ele><time>2026-04-05T14:03:41.999Z</time></trkpt><trkpt lat="48.6044044139688" lon="-2.350834418929459"><ele>17.0</ele><time>2026-04-05T14:03:42.999Z</time></trkpt><trkpt lat="48.60448171231104" lon="-2.350890253006661"><ele>16.8</ele><time>2026-04-05T14:03:43.999Z</time></trkpt><trkpt lat="48.60456237683564" lon="-2.3509456910142346"><ele>16.6</ele><time>2026-04-05T14:03:44.999Z</time></trkpt><trkpt lat="48.604646817608725" lon="-2.3509998074041167"><ele>16.400000000000002</ele><time>2026-04-05T14:03:45.999Z</time></trkpt><trkpt lat="48.604728408013244" lon="-2.35105968394875"><ele>16.2</ele><time>2026-04-05T14:03:46.999Z</time></trkpt><trkpt lat="48.604814274675" lon="-2.3511197361327194"><ele>16.0</ele><time>2026-04-05T14:03:47.999Z</time></trkpt><trkpt lat="48.604903383206995" lon="-2.351181370742953"><ele>16.0</ele><time>2026-04-05T14:03:48.999Z</time></trkpt><trkpt lat="48.604990086613746" lon="-2.351237966711483"><ele>16.0</ele><time>2026-04-05T14:03:49.999Z</time></trkpt><trkpt lat="48.60507942031918" lon="-2.3512961336864784"><ele>16.0</ele><time>2026-04-05T14:03:50.999Z</time></trkpt><trkpt lat="48.60516499607931" lon="-2.351356883182044"><ele>16.0</ele><time>2026-04-05T14:03:51.999Z</time></trkpt><trkpt lat="48.6052517657821" lon="-2.3514160284915877"><ele>16.0</ele><time>2026-04-05T14:03:52.999Z</time></trkpt><trkpt lat="48.60534147055667" lon="-2.3514760803479264"><ele>14.200000000000001</ele><time>2026-04-05T14:03:53.999Z</time></trkpt><trkpt lat="48.60542984500966" lon="-2.351535171376151"><ele>12.400000000000002</ele><time>2026-04-05T14:03:54.999Z</time></trkpt><trkpt lat="48.60551751074583" lon="-2.3515899422311906"><ele>10.6</ele><time>2026-04-05T14:03:55.999Z</time></trkpt><trkpt lat="48.60560255835299" lon="-2.351645653073662"><ele>8.8</ele><time>2026-04-05T14:03:56.999Z</time></trkpt><trkpt lat="48.60568425274035" lon="-2.351697104156815"><ele>7.0</ele><time>2026-04-05T14:03:57.999Z</time></trkpt><trkpt lat="48.605763230611444" lon="-2.3517479068621543"><ele>7.000000000000001</ele><time>2026-04-05T14:03:58.999Z</time></trkpt><trkpt lat="48.60583787613139" lon="-2.3517940150294128"><ele>7.0</ele><time>2026-04-05T14:03:59.999Z</time></trkpt><trkpt lat="48.60591031979344" lon="-2.351836985606157"><ele>7.0</ele><time>2026-04-05T14:04:00.999Z</time></trkpt><trkpt lat="48.60598191956229" lon="-2.351877973161398"><ele>7.0</ele><time>2026-04-05T14:04:01.999Z</time></trkpt><trkpt lat="48.606049952214" lon="-2.3519172053700013"><ele>7.000000000000001</ele><time>2026-04-05T14:04:02.999Z</time></trkpt><trkpt lat="48.606120483909265" lon="-2.3519483407815898"><ele>7.0</ele><time>2026-04-05T14:04:03.999Z</time></trkpt><trkpt lat="48.606187251655484" lon="-2.35198110211536"><ele>6.857142857142857</ele><time>2026-04-05T14:04:04.999Z</time></trkpt><trkpt lat="48.606255789128944" lon="-2.3520107710228784"><ele>6.714285714285714</ele><time>2026-04-05T14:04:05.999Z</time></trkpt><trkpt lat="48.60632478553663" lon="-2.3520363486333657"><ele>6.571428571428571</ele><time>2026-04-05T14:04:06.999Z</time></trkpt><trkpt lat="48.60639347447245" lon="-2.3520538234887978"><ele>6.428571428571429</ele><time>2026-04-05T14:04:07.999Z</time></trkpt><trkpt lat="48.60646253969335" lon="-2.3520656670605393"><ele>6.285714285714286</ele><time>2026-04-05T14:04:08.999Z</time></trkpt><trkpt lat="48.606531259389946" lon="-2.3520640999450317"><ele>6.142857142857142</ele><time>2026-04-05T14:04:09.999Z</time></trkpt><trkpt lat="48.60659931104323" lon="-2.352043218326763"><ele>6.0</ele><time>2026-04-05T14:04:10.999Z</time></trkpt><trkpt lat="48.60666292647844" lon="-2.3520141808543444"><ele>5.999999999999999</ele><time>2026-04-05T14:04:11.999Z</time></trkpt><trkpt lat="48.606723798372514" lon="-2.351976685571959"><ele>6.0</ele><time>2026-04-05T14:04:12.999Z</time></trkpt><trkpt lat="48.606787356109876" lon="-2.3519417278799786"><ele>6.0</ele><time>2026-04-05T14:04:13.999Z</time></trkpt><trkpt lat="48.606853182285995" lon="-2.351902620342368"><ele>6.0</ele><time>2026-04-05T14:04:14.999Z</time></trkpt><trkpt lat="48.6069154436954" lon="-2.351865017124242"><ele>6.0</ele><time>2026-04-05T14:04:15.999Z</time></trkpt><trkpt lat="48.60698092412079" lon="-2.351822379766117"><ele>5.999999999999999</ele><time>2026-04-05T14:04:16.999Z</time></trkpt><trkpt lat="48.607044603391735" lon="-2.351783697859639"><ele>6.0</ele><time>2026-04-05T14:04:17.999Z</time></trkpt><trkpt lat="48.60711180632351" lon="-2.3517445369734142"><ele>6.571428571428571</ele><time>2026-04-05T14:04:18.999Z</time></trkpt><trkpt lat="48.607175827127215" lon="-2.3517074468844776"><ele>7.142857142857142</ele><time>2026-04-05T14:04:19.999Z</time></trkpt><trkpt lat="48.60724430710839" lon="-2.3516681114599867"><ele>7.7142857142857135</ele><time>2026-04-05T14:04:20.999Z</time></trkpt><trkpt lat="48.60731037558525" lon="-2.3516302387499275"><ele>8.285714285714285</ele><time>2026-04-05T14:04:21.999Z</time></trkpt><trkpt lat="48.60737809494269" lon="-2.3515905890133095"><ele>8.857142857142858</ele><time>2026-04-05T14:04:22.999Z</time></trkpt><trkpt lat="48.607440972328945" lon="-2.3515510781882965"><ele>9.428571428571429</ele><time>2026-04-05T14:04:23.999Z</time></trkpt><trkpt lat="48.607505451908466" lon="-2.35151616135971"><ele>10.0</ele><time>2026-04-05T14:04:24.999Z</time></trkpt><trkpt lat="48.607567943968675" lon="-2.3514785324183753"><ele>10.0</ele><time>2026-04-05T14:04:26Z</time></trkpt><trkpt lat="48.607629504476236" lon="-2.351441641234518"><ele>10.0</ele><time>2026-04-05T14:04:27Z</time></trkpt><trkpt lat="48.60769196160247" lon="-2.351405502282401"><ele>10.0</ele><time>2026-04-05T14:04:28Z</time></trkpt><trkpt lat="48.60775253225392" lon="-2.351373165535057"><ele>10.0</ele><time>2026-04-05T14:04:29Z</time></trkpt><trkpt lat="48.60787343371194" lon="-2.3513193884918544"><ele>10.0</ele><time>2026-04-05T14:04:31Z</time></trkpt><trkpt lat="48.60799195532253" lon="-2.351278369453388"><ele>10.0</ele><time>2026-04-05T14:04:33Z</time></trkpt><trkpt lat="48.60809841296773" lon="-2.3512688303519247"><ele>10.166666666666668</ele><time>2026-04-05T14:04:35Z</time></trkpt><trkpt lat="48.60818743274082" lon="-2.3512722667805166"><ele>10.333333333333334</ele><time>2026-04-05T14:04:37Z</time></trkpt><trkpt lat="48.60826544313761" lon="-2.351293148738945"><ele>10.5</ele><time>2026-04-05T14:04:39Z</time></trkpt><trkpt lat="48.60834093513888" lon="-2.3513294578091015"><ele>10.666666666666666</ele><time>2026-04-05T14:04:42Z</time></trkpt><trkpt lat="48.60842176152958" lon="-2.3513602774678604"><ele>10.833333333333332</ele><time>2026-04-05T14:04:45Z</time></trkpt><trkpt lat="48.60848756646304" lon="-2.3513991251319886"><ele>11.0</ele><time>2026-04-05T14:04:49Z</time></trkpt><trkpt lat="48.60856049762955" lon="-2.3514449523201737"><ele>13.0</ele><time>2026-04-05T14:04:52Z</time></trkpt><trkpt lat="48.60866791053986" lon="-2.3514911327974857"><ele>15.0</ele><time>2026-04-05T14:04:55Z</time></trkpt><trkpt lat="48.60873046590282" lon="-2.3515525703135185"><ele>17.0</ele><time>2026-04-05T14:04:58Z</time></trkpt><trkpt lat="48.608772120486044" lon="-2.35165218484466"><ele>19.0</ele><time>2026-04-05T14:05:01Z</time></trkpt><trkpt lat="48.60879703972061" lon="-2.351767441663896"><ele>21.0</ele><time>2026-04-05T14:05:05Z</time></trkpt><trkpt lat="48.60877918223408" lon="-2.3518597462395108"><ele>23.0</ele><time>2026-04-05T14:05:08Z</time></trkpt><trkpt lat="48.60876200278196" lon="-2.351955174815911"><ele>23.0</ele><time>2026-04-05T14:05:11Z</time></trkpt><trkpt lat="48.60873533243683" lon="-2.352052342100579"><ele>23.0</ele><time>2026-04-05T14:05:14Z</time></trkpt><trkpt lat="48.608699528895144" lon="-2.3521443960219734"><ele>23.0</ele><time>2026-04-05T14:05:17Z</time></trkpt><trkpt lat="48.60866367653698" lon="-2.3522417098192836"><ele>23.0</ele><time>2026-04-05T14:05:21Z</time></trkpt><trkpt lat="48.60863343587886" lon="-2.352332521068267"><ele>23.0</ele><time>2026-04-05T14:05:25Z</time></trkpt><trkpt lat="48.60860600974511" lon="-2.3524190199783037"><ele>23.0</ele><time>2026-04-05T14:05:28Z</time></trkpt><trkpt lat="48.60857112322731" lon="-2.352500301595251"><ele>23.0</ele><time>2026-04-05T14:05:31Z</time></trkpt><trkpt lat="48.608541657963" lon="-2.3525852452384823"><ele>23.5</ele><time>2026-04-05T14:05:34Z</time></trkpt><trkpt lat="48.608507452295584" lon="-2.3526808568269333"><ele>24.0</ele><time>2026-04-05T14:05:37Z</time></trkpt><trkpt lat="48.60847254759494" lon="-2.352782030051878"><ele>24.5</ele><time>2026-04-05T14:05:40Z</time></trkpt><trkpt lat="48.60845349649888" lon="-2.352920662282527"><ele>25.0</ele><time>2026-04-05T14:05:44Z</time></trkpt><trkpt lat="48.608444260709256" lon="-2.3530153289752893"><ele>25.499999999999996</ele><time>2026-04-05T14:05:47Z</time></trkpt><trkpt lat="48.6084531488562" lon="-2.353133346030122"><ele>26.0</ele><time>2026-04-05T14:05:50.999Z</time></trkpt><trkpt lat="48.60846437395408" lon="-2.3532541181755264"><ele>27.142857142857142</ele><time>2026-04-05T14:05:54.999Z</time></trkpt><trkpt lat="48.608486118100004" lon="-2.3533662077738082"><ele>28.285714285714285</ele><time>2026-04-05T14:05:58.999Z</time></trkpt><trkpt lat="48.60851255293923" lon="-2.3534677259907855"><ele>29.428571428571427</ele><time>2026-04-05T14:06:02.999Z</time></trkpt><trkpt lat="48.608547478604315" lon="-2.3535621751221103"><ele>30.57142857142857</ele><time>2026-04-05T14:06:07.999Z</time></trkpt><trkpt lat="48.608587655691785" lon="-2.3536388203626926"><ele>31.714285714285715</ele><time>2026-04-05T14:06:12.999Z</time></trkpt><trkpt lat="48.608634965884704" lon="-2.3537055659468753"><ele>32.857142857142854</ele><time>2026-04-05T14:06:17.999Z</time></trkpt><trkpt lat="48.60870763421713" lon="-2.353767078956039"><ele>34.0</ele><time>2026-04-05T14:06:22.999Z</time></trkpt><trkpt lat="48.608776920446324" lon="-2.3538150482433466"><ele>34.71428571428571</ele><time>2026-04-05T14:06:27.999Z</time></trkpt><trkpt lat="48.60884008790226" lon="-2.3538365767837646"><ele>35.42857142857143</ele><time>2026-04-05T14:06:32Z</time></trkpt><trkpt lat="48.608906573983425" lon="-2.353872288813738"><ele>36.14285714285714</ele><time>2026-04-05T14:06:37Z</time></trkpt><trkpt lat="48.608964838984825" lon="-2.3539110158274275"><ele>36.857142857142854</ele><time>2026-04-05T14:06:41Z</time></trkpt><trkpt lat="48.609036166219" lon="-2.3539460899931974"><ele>37.57142857142857</ele><time>2026-04-05T14:06:45Z</time></trkpt><trkpt lat="48.60910556444419" lon="-2.353980697045694"><ele>38.285714285714285</ele><time>2026-04-05T14:06:49Z</time></trkpt><trkpt lat="48.60918663768328" lon="-2.3540315262465654"><ele>39.0</ele><time>2026-04-05T14:06:54Z</time></trkpt><trkpt lat="48.60925197470929" lon="-2.35406450206287"><ele>40.42857142857143</ele><time>2026-04-05T14:06:58Z</time></trkpt><trkpt lat="48.60931465243948" lon="-2.3541054001126787"><ele>41.857142857142854</ele><time>2026-04-05T14:07:02Z</time></trkpt><trkpt lat="48.60936762889387" lon="-2.354160320752584"><ele>43.285714285714285</ele><time>2026-04-05T14:07:05Z</time></trkpt><trkpt lat="48.609435604742714" lon="-2.354242605751942"><ele>44.714285714285715</ele><time>2026-04-05T14:07:10Z</time></trkpt><trkpt lat="48.60948689274336" lon="-2.3543050828119734"><ele>46.14285714285714</ele><time>2026-04-05T14:07:13Z</time></trkpt><trkpt lat="48.609545744707454" lon="-2.3543895463292057"><ele>47.57142857142857</ele><time>2026-04-05T14:07:17Z</time></trkpt><trkpt lat="48.609601777777094" lon="-2.3544711233063276"><ele>49.0</ele><time>2026-04-05T14:07:21Z</time></trkpt><trkpt lat="48.60965046861407" lon="-2.3545345323652294"><ele>49.714285714285715</ele><time>2026-04-05T14:07:25Z</time></trkpt><trkpt lat="48.60969168307337" lon="-2.3546090412995166"><ele>50.42857142857143</ele><time>2026-04-05T14:07:28Z</time></trkpt><trkpt lat="48.609755341508254" lon="-2.354700000548485"><ele>51.14285714285714</ele><time>2026-04-05T14:07:33Z</time></trkpt><trkpt lat="48.60980834938841" lon="-2.354756555771664"><ele>51.85714285714286</ele><time>2026-04-05T14:07:37Z</time></trkpt><trkpt lat="48.60986594614352" lon="-2.3547974152162245"><ele>52.57142857142857</ele><time>2026-04-05T14:07:40Z</time></trkpt><trkpt lat="48.60993229169185" lon="-2.3548380881588056"><ele>53.285714285714285</ele><time>2026-04-05T14:07:43Z</time></trkpt><trkpt lat="48.6100008075942" lon="-2.3548381917153685"><ele>54.0</ele><time>2026-04-05T14:07:46.999Z</time></trkpt><trkpt lat="48.61007870723912" lon="-2.3548409516895603"><ele>55.333333333333336</ele><time>2026-04-05T14:07:49.999Z</time></trkpt><trkpt lat="48.610147377965546" lon="-2.354846005607404"><ele>56.66666666666667</ele><time>2026-04-05T14:07:52.999Z</time></trkpt><trkpt lat="48.61022768667879" lon="-2.354833730942467"><ele>58.0</ele><time>2026-04-05T14:07:55.999Z</time></trkpt><trkpt lat="48.61033480003772" lon="-2.354822276921506"><ele>59.333333333333336</ele><time>2026-04-05T14:07:58.999Z</time></trkpt><trkpt lat="48.61042194139346" lon="-2.3547987125518732"><ele>60.66666666666667</ele><time>2026-04-05T14:08:01.999Z</time></trkpt><trkpt lat="48.61051185686515" lon="-2.354786505983301"><ele>62.0</ele><time>2026-04-05T14:08:04.999Z</time></trkpt><trkpt lat="48.610596478111276" lon="-2.3547786227176983"><ele>62.57142857142858</ele><time>2026-04-05T14:08:07.999Z</time></trkpt><trkpt lat="48.61068973077425" lon="-2.354770263473172"><ele>63.14285714285715</ele><time>2026-04-05T14:08:11.999Z</time></trkpt><trkpt lat="48.61075507502177" lon="-2.354773148727713"><ele>63.714285714285715</ele><time>2026-04-05T14:08:14.999Z</time></trkpt><trkpt lat="48.61082320989785" lon="-2.354784884796278"><ele>64.28571428571429</ele><time>2026-04-05T14:08:17.999Z</time></trkpt><trkpt lat="48.61089009790469" lon="-2.354788298450098"><ele>64.85714285714286</ele><time>2026-04-05T14:08:20.999Z</time></trkpt><trkpt lat="48.61095661881455" lon="-2.354805351204566"><ele>65.42857142857143</ele><time>2026-04-05T14:08:23.999Z</time></trkpt><trkpt lat="48.611023264322405" lon="-2.3548132788108194"><ele>66.0</ele><time>2026-04-05T14:08:26.999Z</time></trkpt><trkpt lat="48.61109157453782" lon="-2.3548102116533323"><ele>66.0</ele><time>2026-04-05T14:08:29.999Z</time></trkpt><trkpt lat="48.61115756335937" lon="-2.3547995237121193"><ele>66.0</ele><time>2026-04-05T14:08:31.999Z</time></trkpt><trkpt lat="48.6112357689328" lon="-2.3547580973794155"><ele>66.0</ele><time>2026-04-05T14:08:34.999Z</time></trkpt><trkpt lat="48.611323502508185" lon="-2.354695612575361"><ele>66.0</ele><time>2026-04-05T14:08:38Z</time></trkpt><trkpt lat="48.61138938372434" lon="-2.354630550812538"><ele>66.0</ele><time>2026-04-05T14:08:41Z</time></trkpt><trkpt lat="48.61146743845675" lon="-2.3545727588979233"><ele>66.0</ele><time>2026-04-05T14:08:43Z</time></trkpt><trkpt lat="48.611542292024076" lon="-2.354496174796815"><ele>66.0</ele><time>2026-04-05T14:08:46Z</time></trkpt><trkpt lat="48.61161757391113" lon="-2.3544333327802693"><ele>66.0</ele><time>2026-04-05T14:08:48Z</time></trkpt><trkpt lat="48.611688611824185" lon="-2.3543653812350493"><ele>66.0</ele><time>2026-04-05T14:08:51Z</time></trkpt><trkpt lat="48.611778477826135" lon="-2.354287365072255"><ele>66.0</ele><time>2026-04-05T14:08:54Z</time></trkpt><trkpt lat="48.611840630494235" lon="-2.3542373512046346"><ele>66.0</ele><time>2026-04-05T14:08:55Z</time></trkpt><trkpt lat="48.61191691036917" lon="-2.3541731476480448"><ele>66.0</ele><time>2026-04-05T14:08:57Z</time></trkpt><trkpt lat="48.61200168423751" lon="-2.354097150182579"><ele>66.0</ele><time>2026-04-05T14:08:59Z</time></trkpt><trkpt lat="48.61209117857111" lon="-2.354015792441971"><ele>66.0</ele><time>2026-04-05T14:09:01Z</time></trkpt><trkpt lat="48.612188533822106" lon="-2.3539375498664836"><ele>66.0</ele><time>2026-04-05T14:09:03Z</time></trkpt><trkpt lat="48.61228760096595" lon="-2.353842256540762"><ele>66.0</ele><time>2026-04-05T14:09:05Z</time></trkpt><trkpt lat="48.61238748686861" lon="-2.3537492023354676"><ele>66.0</ele><time>2026-04-05T14:09:07Z</time></trkpt><trkpt lat="48.61248396067272" lon="-2.353658201704377"><ele>66.25</ele><time>2026-04-05T14:09:09Z</time></trkpt><trkpt lat="48.61258468685132" lon="-2.353574956355107"><ele>66.5</ele><time>2026-04-05T14:09:11Z</time></trkpt><trkpt lat="48.61268298618539" lon="-2.3534893997579625"><ele>66.75</ele><time>2026-04-05T14:09:13Z</time></trkpt><trkpt lat="48.61279004559162" lon="-2.353413923348048"><ele>67.0</ele><time>2026-04-05T14:09:15Z</time></trkpt><trkpt lat="48.61289687888059" lon="-2.353344190228457"><ele>67.0</ele><time>2026-04-05T14:09:17Z</time></trkpt><trkpt lat="48.61300045476803" lon="-2.3532769981416632"><ele>67.0</ele><time>2026-04-05T14:09:19Z</time></trkpt><trkpt lat="48.613101474091444" lon="-2.3532140087125963"><ele>67.0</ele><time>2026-04-05T14:09:21Z</time></trkpt><trkpt lat="48.61319968321396" lon="-2.3531538211923366"><ele>67.0</ele><time>2026-04-05T14:09:23Z</time></trkpt><trkpt lat="48.613297243543784" lon="-2.353093622583154"><ele>67.0</ele><time>2026-04-05T14:09:25Z</time></trkpt><trkpt lat="48.613392833512535" lon="-2.353036349601649"><ele>67.0</ele><time>2026-04-05T14:09:27Z</time></trkpt><trkpt lat="48.6134851930599" lon="-2.352976091170814"><ele>67.0</ele><time>2026-04-05T14:09:29Z</time></trkpt><trkpt lat="48.61357569100614" lon="-2.3529166160581356"><ele>67.0</ele><time>2026-04-05T14:09:31Z</time></trkpt><trkpt lat="48.61366061723409" lon="-2.3528603243413775"><ele>67.0</ele><time>2026-04-05T14:09:33Z</time></trkpt><trkpt lat="48.61374302145739" lon="-2.3528086377452633"><ele>67.0</ele><time>2026-04-05T14:09:35Z</time></trkpt><trkpt lat="48.61382015184086" lon="-2.3527817838581884"><ele>67.71428571428572</ele><time>2026-04-05T14:09:37Z</time></trkpt><trkpt lat="48.61388357104257" lon="-2.3528112243612873"><ele>68.42857142857143</ele><time>2026-04-05T14:09:39Z</time></trkpt><trkpt lat="48.61392282860504" lon="-2.3528928757645504"><ele>69.14285714285714</ele><time>2026-04-05T14:09:52Z</time></trkpt><trkpt lat="48.613881011305374" lon="-2.3527618564413753"><ele>69.85714285714286</ele><time>2026-04-05T14:11:19Z</time></trkpt><trkpt lat="48.613925479112076" lon="-2.352685758472571"><ele>70.57142857142857</ele><time>2026-04-05T14:11:21Z</time></trkpt><trkpt lat="48.613992008479656" lon="-2.3526488357416335"><ele>71.28571428571429</ele><time>2026-04-05T14:11:23Z</time></trkpt><trkpt lat="48.61405885774858" lon="-2.352614077313536"><ele>72.0</ele><time>2026-04-05T14:11:25Z</time></trkpt><trkpt lat="48.614120977262004" lon="-2.352577433511927"><ele>72.00000000000001</ele><time>2026-04-05T14:11:27Z</time></trkpt><trkpt lat="48.61418404269022" lon="-2.3525429138935796"><ele>72.0</ele><time>2026-04-05T14:11:29Z</time></trkpt><trkpt lat="48.61424680036338" lon="-2.3525039305910616"><ele>72.0</ele><time>2026-04-05T14:11:31Z</time></trkpt><trkpt lat="48.61431001090826" lon="-2.3524746179239098"><ele>72.0</ele><time>2026-04-05T14:11:33Z</time></trkpt><trkpt lat="48.61439852906179" lon="-2.3524205460298493"><ele>72.0</ele><time>2026-04-05T14:11:36Z</time></trkpt><trkpt lat="48.61446638256651" lon="-2.352380690915032"><ele>72.00000000000001</ele><time>2026-04-05T14:11:38Z</time></trkpt><trkpt lat="48.61453332966788" lon="-2.3523429778287936"><ele>72.0</ele><time>2026-04-05T14:11:40Z</time></trkpt><trkpt lat="48.61460374090776" lon="-2.3523131446123138"><ele>72.42857142857143</ele><time>2026-04-05T14:11:42Z</time></trkpt><trkpt lat="48.61467430415564" lon="-2.3522747632749996"><ele>72.85714285714286</ele><time>2026-04-05T14:11:44Z</time></trkpt><trkpt lat="48.61474338330336" lon="-2.352239230733103"><ele>73.28571428571428</ele><time>2026-04-05T14:11:46Z</time></trkpt><trkpt lat="48.6148153013732" lon="-2.35220189659593"><ele>73.71428571428572</ele><time>2026-04-05T14:11:48Z</time></trkpt><trkpt lat="48.614887712094514" lon="-2.352163850724289"><ele>74.14285714285714</ele><time>2026-04-05T14:11:50Z</time></trkpt><trkpt lat="48.614960771741316" lon="-2.3521252965801716"><ele>74.57142857142857</ele><time>2026-04-05T14:11:52Z</time></trkpt><trkpt lat="48.61502353426444" lon="-2.3520924801719763"><ele>75.0</ele><time>2026-04-05T14:11:55Z</time></trkpt><trkpt lat="48.6150922355395" lon="-2.3520552881146735"><ele>75.0</ele><time>2026-04-05T14:11:56Z</time></trkpt><trkpt lat="48.61519624738132" lon="-2.351994436160417"><ele>75.0</ele><time>2026-04-05T14:11:59Z</time></trkpt><trkpt lat="48.6152714792215" lon="-2.3519494870557276"><ele>75.0</ele><time>2026-04-05T14:12:01Z</time></trkpt><trkpt lat="48.61534055660842" lon="-2.3519229958839176"><ele>75.0</ele><time>2026-04-05T14:12:04Z</time></trkpt><trkpt lat="48.61541109079657" lon="-2.3518911617103044"><ele>75.0</ele><time>2026-04-05T14:12:06Z</time></trkpt><trkpt lat="48.615484829962" lon="-2.351863958828966"><ele>75.0</ele><time>2026-04-05T14:12:06.999Z</time></trkpt><trkpt lat="48.615584035192356" lon="-2.3518454662858237"><ele>76.0</ele><time>2026-04-05T14:12:09.999Z</time></trkpt><trkpt lat="48.61574980832493" lon="-2.3518177790582406"><ele>77.0</ele><time>2026-04-05T14:12:11.999Z</time></trkpt><trkpt lat="48.6158486867477" lon="-2.351812636044806"><ele>78.0</ele><time>2026-04-05T14:12:13.999Z</time></trkpt><trkpt lat="48.61595403407571" lon="-2.3518095631174294"><ele>79.0</ele><time>2026-04-05T14:12:15.999Z</time></trkpt><trkpt lat="48.61605302629433" lon="-2.3517924505608074"><ele>79.0</ele><time>2026-04-05T14:12:17.999Z</time></trkpt><trkpt lat="48.6161108288626" lon="-2.3518319632651288"><ele>79.0</ele><time>2026-04-05T14:12:18.999Z</time></trkpt><trkpt lat="48.61621198432265" lon="-2.351848078897502"><ele>79.0</ele><time>2026-04-05T14:12:20.999Z</time></trkpt><trkpt lat="48.616319689647014" lon="-2.351883387234056"><ele>79.0</ele><time>2026-04-05T14:12:22.999Z</time></trkpt><trkpt lat="48.61640638740308" lon="-2.3519240738723197"><ele>79.0</ele><time>2026-04-05T14:12:24.999Z</time></trkpt><trkpt lat="48.6164978758636" lon="-2.351963184660511"><ele>78.66666666666666</ele><time>2026-04-05T14:12:26.999Z</time></trkpt><trkpt lat="48.616597788520764" lon="-2.351999272270237"><ele>78.33333333333333</ele><time>2026-04-05T14:12:28.999Z</time></trkpt><trkpt lat="48.61666904207307" lon="-2.352012153114851"><ele>78.0</ele><time>2026-04-05T14:12:30.999Z</time></trkpt><trkpt lat="48.61676922460455" lon="-2.3520189142385464"><ele>77.66666666666667</ele><time>2026-04-05T14:12:32.999Z</time></trkpt><trkpt lat="48.616875169337945" lon="-2.3520096541869746"><ele>77.33333333333334</ele><time>2026-04-05T14:12:34.999Z</time></trkpt><trkpt lat="48.616937240736156" lon="-2.351992035796994"><ele>77.0</ele><time>2026-04-05T14:12:35.999Z</time></trkpt><trkpt lat="48.61705729641889" lon="-2.3519225918618822"><ele>76.66666666666667</ele><time>2026-04-05T14:12:37.999Z</time></trkpt><trkpt lat="48.61711871651146" lon="-2.3518943476800436"><ele>76.33333333333334</ele><time>2026-04-05T14:12:38.999Z</time></trkpt><trkpt lat="48.61718063639862" lon="-2.351868460743147"><ele>76.0</ele><time>2026-04-05T14:12:39.999Z</time></trkpt><trkpt lat="48.61724137166812" lon="-2.3518371962088316"><ele>75.66666666666667</ele><time>2026-04-05T14:12:40.999Z</time></trkpt><trkpt lat="48.6173612507" lon="-2.351771257359321"><ele>75.33333333333333</ele><time>2026-04-05T14:12:42.999Z</time></trkpt><trkpt lat="48.61742530703321" lon="-2.351745571087057"><ele>75.0</ele><time>2026-04-05T14:12:43.999Z</time></trkpt><trkpt lat="48.617492438883566" lon="-2.3517134352895614"><ele>74.99999999999999</ele><time>2026-04-05T14:12:44.999Z</time></trkpt><trkpt lat="48.61756130992929" lon="-2.3516824214403056"><ele>75.0</ele><time>2026-04-05T14:12:45.999Z</time></trkpt><trkpt lat="48.617628698246946" lon="-2.3516516356334307"><ele>75.0</ele><time>2026-04-05T14:12:46.999Z</time></trkpt><trkpt lat="48.61769729106176" lon="-2.35162460997186"><ele>75.0</ele><time>2026-04-05T14:12:47.999Z</time></trkpt><trkpt lat="48.617762033422274" lon="-2.351600192364462"><ele>75.0</ele><time>2026-04-05T14:12:48.999Z</time></trkpt><trkpt lat="48.617826153146716" lon="-2.3515796542323275"><ele>74.99999999999999</ele><time>2026-04-05T14:12:50Z</time></trkpt><trkpt lat="48.61789093681553" lon="-2.351557347699148"><ele>75.0</ele><time>2026-04-05T14:12:51Z</time></trkpt><trkpt lat="48.61795769316127" lon="-2.3515354249694385"><ele>74.57142857142857</ele><time>2026-04-05T14:12:52Z</time></trkpt><trkpt lat="48.618024675021715" lon="-2.3515117423119007"><ele>74.14285714285714</ele><time>2026-04-05T14:12:53Z</time></trkpt><trkpt lat="48.61809051793913" lon="-2.351492546264021"><ele>73.71428571428572</ele><time>2026-04-05T14:12:54Z</time></trkpt><trkpt lat="48.618159266002756" lon="-2.3514734158195862"><ele>73.28571428571428</ele><time>2026-04-05T14:12:55Z</time></trkpt><trkpt lat="48.61823041753316" lon="-2.35145005208567"><ele>72.85714285714286</ele><time>2026-04-05T14:12:56Z</time></trkpt><trkpt lat="48.618298982892014" lon="-2.3514254457719117"><ele>72.42857142857143</ele><time>2026-04-05T14:12:57Z</time></trkpt><trkpt lat="48.61836753212389" lon="-2.351401666705141"><ele>72.0</ele><time>2026-04-05T14:12:58Z</time></trkpt><trkpt lat="48.618435359271075" lon="-2.3513769361850363"><ele>72.00000000000001</ele><time>2026-04-05T14:12:59Z</time></trkpt><trkpt lat="48.61850114592571" lon="-2.3513440170209297"><ele>72.0</ele><time>2026-04-05T14:13:00Z</time></trkpt><trkpt lat="48.61856684108607" lon="-2.35130580001867"><ele>72.0</ele><time>2026-04-05T14:13:01Z</time></trkpt><trkpt lat="48.618629879931774" lon="-2.351263225191241"><ele>72.0</ele><time>2026-04-05T14:13:02Z</time></trkpt><trkpt lat="48.61869296877146" lon="-2.351208430285512"><ele>72.0</ele><time>2026-04-05T14:13:03Z</time></trkpt><trkpt lat="48.61875018340953" lon="-2.3511483748125794"><ele>72.00000000000001</ele><time>2026-04-05T14:13:04Z</time></trkpt><trkpt lat="48.61880059504322" lon="-2.3510857931619853"><ele>72.0</ele><time>2026-04-05T14:13:05Z</time></trkpt><trkpt lat="48.61885010351326" lon="-2.3510130501106747"><ele>72.00000000000001</ele><time>2026-04-05T14:13:06Z</time></trkpt><trkpt lat="48.61889730604444" lon="-2.350935397147258"><ele>72.0</ele><time>2026-04-05T14:13:07Z</time></trkpt><trkpt lat="48.61894258899843" lon="-2.35084658682939"><ele>72.0</ele><time>2026-04-05T14:13:08Z</time></trkpt><trkpt lat="48.618981034299566" lon="-2.350757150714543"><ele>72.0</ele><time>2026-04-05T14:13:09Z</time></trkpt><trkpt lat="48.61901678068021" lon="-2.3506637718625436"><ele>72.0</ele><time>2026-04-05T14:13:10Z</time></trkpt><trkpt lat="48.61904765044287" lon="-2.3505733895549863"><ele>72.00000000000001</ele><time>2026-04-05T14:13:11Z</time></trkpt><trkpt lat="48.619075801485934" lon="-2.3504812764693437"><ele>72.0</ele><time>2026-04-05T14:13:12Z</time></trkpt><trkpt lat="48.619101634235356" lon="-2.3503934737617573"><ele>71.8</ele><time>2026-04-05T14:13:13Z</time></trkpt><trkpt lat="48.619137459508046" lon="-2.3503123840760303"><ele>71.6</ele><time>2026-04-05T14:13:14Z</time></trkpt><trkpt lat="48.61915691419238" lon="-2.350218141036059"><ele>71.39999999999999</ele><time>2026-04-05T14:13:15Z</time></trkpt><trkpt lat="48.619211706757284" lon="-2.350043458117543"><ele>71.2</ele><time>2026-04-05T14:13:17Z</time></trkpt><trkpt lat="48.61926215745775" lon="-2.349867783040069"><ele>71.0</ele><time>2026-04-05T14:13:19Z</time></trkpt><trkpt lat="48.61929062702845" lon="-2.34977717543789"><ele>71.0</ele><time>2026-04-05T14:13:20Z</time></trkpt><trkpt lat="48.619322397809206" lon="-2.349692871104046"><ele>71.0</ele><time>2026-04-05T14:13:21Z</time></trkpt><trkpt lat="48.61935787306541" lon="-2.3496051753379605"><ele>71.0</ele><time>2026-04-05T14:13:22Z</time></trkpt><trkpt lat="48.61939624452354" lon="-2.34952694649593"><ele>71.0</ele><time>2026-04-05T14:13:23Z</time></trkpt><trkpt lat="48.61944239657567" lon="-2.3494501209373584"><ele>71.0</ele><time>2026-04-05T14:13:24Z</time></trkpt><trkpt lat="48.61948912800176" lon="-2.3493740862083246"><ele>71.0</ele><time>2026-04-05T14:13:25Z</time></trkpt><trkpt lat="48.61957979248712" lon="-2.3492494793618666"><ele>71.0</ele><time>2026-04-05T14:13:27Z</time></trkpt><trkpt lat="48.61966490901178" lon="-2.3491373867027754"><ele>71.0</ele><time>2026-04-05T14:13:29Z</time></trkpt><trkpt lat="48.619749672378404" lon="-2.349012085753593"><ele>71.0</ele><time>2026-04-05T14:13:31Z</time></trkpt><trkpt lat="48.619844878385585" lon="-2.348882818949961"><ele>71.0</ele><time>2026-04-05T14:13:33Z</time></trkpt><trkpt lat="48.61993990165762" lon="-2.3487623637204744"><ele>70.6</ele><time>2026-04-05T14:13:35Z</time></trkpt><trkpt lat="48.619992496680474" lon="-2.3487077803999576"><ele>70.19999999999999</ele><time>2026-04-05T14:13:36Z</time></trkpt><trkpt lat="48.62009936877045" lon="-2.3486316363971826"><ele>69.80000000000001</ele><time>2026-04-05T14:13:38Z</time></trkpt><trkpt lat="48.62020967283806" lon="-2.348568635308537"><ele>69.4</ele><time>2026-04-05T14:13:40Z</time></trkpt><trkpt lat="48.62031122345633" lon="-2.348507239527445"><ele>69.0</ele><time>2026-04-05T14:13:42Z</time></trkpt><trkpt lat="48.62041287291088" lon="-2.34843324689433"><ele>69.0</ele><time>2026-04-05T14:13:44Z</time></trkpt><trkpt lat="48.620509249174575" lon="-2.348364821607"><ele>69.0</ele><time>2026-04-05T14:13:46Z</time></trkpt><trkpt lat="48.62060739197147" lon="-2.348285667992331"><ele>69.0</ele><time>2026-04-05T14:13:48Z</time></trkpt><trkpt lat="48.62070790152781" lon="-2.3481803846601643"><ele>69.0</ele><time>2026-04-05T14:13:50Z</time></trkpt><trkpt lat="48.62082170652014" lon="-2.348091449786268"><ele>69.0</ele><time>2026-04-05T14:13:52Z</time></trkpt><trkpt lat="48.62088216414723" lon="-2.3480418089561574"><ele>69.0</ele><time>2026-04-05T14:13:53Z</time></trkpt><trkpt lat="48.620941121701804" lon="-2.3479880158248805"><ele>69.0</ele><time>2026-04-05T14:13:54Z</time></trkpt><trkpt lat="48.6209956279778" lon="-2.3479351256076564"><ele>69.0</ele><time>2026-04-05T14:13:55Z</time></trkpt><trkpt lat="48.62104833236447" lon="-2.3478789268946945"><ele>69.0</ele><time>2026-04-05T14:13:56Z</time></trkpt><trkpt lat="48.62115042848527" lon="-2.347762754078732"><ele>69.0</ele><time>2026-04-05T14:13:58Z</time></trkpt><trkpt lat="48.62123504775737" lon="-2.3476535112310177"><ele>69.4</ele><time>2026-04-05T14:14:00Z</time></trkpt><trkpt lat="48.62131131957678" lon="-2.347544600888412"><ele>69.80000000000001</ele><time>2026-04-05T14:14:02Z</time></trkpt><trkpt lat="48.62137002743404" lon="-2.3474291737994424"><ele>70.19999999999999</ele><time>2026-04-05T14:14:04Z</time></trkpt><trkpt lat="48.621403468048335" lon="-2.347289491771359"><ele>70.6</ele><time>2026-04-05T14:14:06Z</time></trkpt><trkpt lat="48.621432456422255" lon="-2.3471508660165474"><ele>71.0</ele><time>2026-04-05T14:14:07.999Z</time></trkpt><trkpt lat="48.62144370023978" lon="-2.347039269942209"><ele>70.33333333333334</ele><time>2026-04-05T14:14:10.999Z</time></trkpt><trkpt lat="48.621457726532256" lon="-2.346902406834714"><ele>69.66666666666667</ele><time>2026-04-05T14:14:15.999Z</time></trkpt><trkpt lat="48.62148150977624" lon="-2.3467894276966064"><ele>69.0</ele><time>2026-04-05T14:14:18.999Z</time></trkpt><trkpt lat="48.62154426954082" lon="-2.346705159512013"><ele>68.33333333333333</ele><time>2026-04-05T14:14:21.999Z</time></trkpt><trkpt lat="48.621596359586704" lon="-2.346643128395188"><ele>67.66666666666666</ele><time>2026-04-05T14:14:24.999Z</time></trkpt><trkpt lat="48.62165025981432" lon="-2.3465919165038573"><ele>67.0</ele><time>2026-04-05T14:14:26.999Z</time></trkpt><trkpt lat="48.621712620584034" lon="-2.3465459641505126"><ele>67.0</ele><time>2026-04-05T14:14:28.999Z</time></trkpt><trkpt lat="48.62178536335528" lon="-2.346492846612395"><ele>67.0</ele><time>2026-04-05T14:14:30.999Z</time></trkpt><trkpt lat="48.621867429671205" lon="-2.3464304531484435"><ele>67.0</ele><time>2026-04-05T14:14:32.999Z</time></trkpt><trkpt lat="48.62196906613773" lon="-2.346384799477489"><ele>67.0</ele><time>2026-04-05T14:14:34.999Z</time></trkpt><trkpt lat="48.62206654177488" lon="-2.3463297693637237"><ele>67.0</ele><time>2026-04-05T14:14:36.999Z</time></trkpt><trkpt lat="48.622170800481825" lon="-2.346285505402171"><ele>67.2</ele><time>2026-04-05T14:14:38.999Z</time></trkpt><trkpt lat="48.62226807216843" lon="-2.3462491424335936"><ele>67.4</ele><time>2026-04-05T14:14:40.999Z</time></trkpt><trkpt lat="48.62235876933976" lon="-2.3462006626454497"><ele>67.6</ele><time>2026-04-05T14:14:42.999Z</time></trkpt><trkpt lat="48.62244621073145" lon="-2.3461360753850533"><ele>67.8</ele><time>2026-04-05T14:14:44.999Z</time></trkpt><trkpt lat="48.6225286181671" lon="-2.346046149533176"><ele>68.0</ele><time>2026-04-05T14:14:46.999Z</time></trkpt><trkpt lat="48.62261346606389" lon="-2.3459446078000594"><ele>68.0</ele><time>2026-04-05T14:14:48.999Z</time></trkpt><trkpt lat="48.62269555215073" lon="-2.345837055243951"><ele>68.0</ele><time>2026-04-05T14:14:50.999Z</time></trkpt><trkpt lat="48.622771198805395" lon="-2.3457220968837924"><ele>68.0</ele><time>2026-04-05T14:14:52.999Z</time></trkpt><trkpt lat="48.62284712349851" lon="-2.3456201718401766"><ele>68.0</ele><time>2026-04-05T14:14:54.999Z</time></trkpt><trkpt lat="48.62291579263356" lon="-2.3455264604052735"><ele>68.0</ele><time>2026-04-05T14:14:57Z</time></trkpt><trkpt lat="48.62297862498519" lon="-2.3454421937562207"><ele>67.83333333333334</ele><time>2026-04-05T14:14:59Z</time></trkpt><trkpt lat="48.62302846697463" lon="-2.3453557742055238"><ele>67.66666666666667</ele><time>2026-04-05T14:15:01Z</time></trkpt><trkpt lat="48.623081359258194" lon="-2.345286249500475"><ele>67.5</ele><time>2026-04-05T14:15:52Z</time></trkpt><trkpt lat="48.623156722448286" lon="-2.3452180319364597"><ele>67.33333333333333</ele><time>2026-04-05T14:15:55Z</time></trkpt><trkpt lat="48.62322212709638" lon="-2.3451512520912003"><ele>67.16666666666666</ele><time>2026-04-05T14:15:57Z</time></trkpt><trkpt lat="48.62330175851635" lon="-2.3450792032762"><ele>67.0</ele><time>2026-04-05T14:15:59Z</time></trkpt><trkpt lat="48.62339144027607" lon="-2.3450152219239406"><ele>67.0</ele><time>2026-04-05T14:16:01Z</time></trkpt><trkpt lat="48.623487155416726" lon="-2.344943694163011"><ele>67.0</ele><time>2026-04-05T14:16:03Z</time></trkpt><trkpt lat="48.62358443864295" lon="-2.3448617722613045"><ele>67.0</ele><time>2026-04-05T14:16:05Z</time></trkpt><trkpt lat="48.62367625103087" lon="-2.344773684221351"><ele>67.0</ele><time>2026-04-05T14:16:07Z</time></trkpt><trkpt lat="48.62376046917289" lon="-2.344669398396891"><ele>67.0</ele><time>2026-04-05T14:16:09Z</time></trkpt><trkpt lat="48.623840573521214" lon="-2.344535060842869"><ele>66.75</ele><time>2026-04-05T14:16:11Z</time></trkpt><trkpt lat="48.62390249518996" lon="-2.3443795306620863"><ele>66.5</ele><time>2026-04-05T14:16:13Z</time></trkpt><trkpt lat="48.62394096743123" lon="-2.344210718149772"><ele>66.25</ele><time>2026-04-05T14:16:15Z</time></trkpt><trkpt lat="48.62396106140682" lon="-2.344037298472984"><ele>66.0</ele><time>2026-04-05T14:16:17Z</time></trkpt><trkpt lat="48.623970401343286" lon="-2.3438654612271654"><ele>66.0</ele><time>2026-04-05T14:16:19Z</time></trkpt><trkpt lat="48.62396002607156" lon="-2.3436849660228782"><ele>66.0</ele><time>2026-04-05T14:16:21Z</time></trkpt><trkpt lat="48.623947678083276" lon="-2.343591409478798"><ele>66.0</ele><time>2026-04-05T14:16:22Z</time></trkpt><trkpt lat="48.62393431890909" lon="-2.343497552996584"><ele>66.0</ele><time>2026-04-05T14:16:23Z</time></trkpt><trkpt lat="48.623921722501024" lon="-2.3434028738139197"><ele>66.0</ele><time>2026-04-05T14:16:24Z</time></trkpt><trkpt lat="48.623906501631886" lon="-2.343308051798719"><ele>66.0</ele><time>2026-04-05T14:16:24.999Z</time></trkpt><trkpt lat="48.62389141892382" lon="-2.3432134405581295"><ele>66.0</ele><time>2026-04-05T14:16:25.999Z</time></trkpt><trkpt lat="48.62387700216981" lon="-2.343120304194719"><ele>66.0</ele><time>2026-04-05T14:16:26.999Z</time></trkpt><trkpt lat="48.62386422554414" lon="-2.343020350922278"><ele>66.0</ele><time>2026-04-05T14:16:27.999Z</time></trkpt><trkpt lat="48.623850030186695" lon="-2.342919512363581"><ele>66.0</ele><time>2026-04-05T14:16:28.999Z</time></trkpt><trkpt lat="48.62383399157817" lon="-2.3428179658959856"><ele>66.0</ele><time>2026-04-05T14:16:29.999Z</time></trkpt><trkpt lat="48.62381777677366" lon="-2.342716856912024"><ele>66.0</ele><time>2026-04-05T14:16:30.999Z</time></trkpt><trkpt lat="48.623801425533074" lon="-2.3426126537328065"><ele>66.0</ele><time>2026-04-05T14:16:31.999Z</time></trkpt><trkpt lat="48.62378246093054" lon="-2.342507673053068"><ele>66.0</ele><time>2026-04-05T14:16:32.999Z</time></trkpt><trkpt lat="48.623764087089356" lon="-2.3424037028803397"><ele>66.0</ele><time>2026-04-05T14:16:33.999Z</time></trkpt><trkpt lat="48.62374897660149" lon="-2.3422993436376274"><ele>66.0</ele><time>2026-04-05T14:16:34.999Z</time></trkpt><trkpt lat="48.62373411695425" lon="-2.342196778186699"><ele>66.0</ele><time>2026-04-05T14:16:35.999Z</time></trkpt><trkpt lat="48.62371944608567" lon="-2.3420981208006313"><ele>66.0</ele><time>2026-04-05T14:16:36.999Z</time></trkpt><trkpt lat="48.6237039380795" lon="-2.3420003124430084"><ele>66.0</ele><time>2026-04-05T14:16:37.999Z</time></trkpt><trkpt lat="48.62368849385308" lon="-2.3418989043415817"><ele>66.0</ele><time>2026-04-05T14:16:38.999Z</time></trkpt><trkpt lat="48.62367445197535" lon="-2.34180194816145"><ele>66.0</ele><time>2026-04-05T14:16:39.999Z</time></trkpt><trkpt lat="48.623661555451626" lon="-2.341702878832639"><ele>66.16666666666667</ele><time>2026-04-05T14:16:40.999Z</time></trkpt><trkpt lat="48.62365357236668" lon="-2.3416034915015835"><ele>66.33333333333333</ele><time>2026-04-05T14:16:41.999Z</time></trkpt><trkpt lat="48.62364558685819" lon="-2.3415034713744483"><ele>66.5</ele><time>2026-04-05T14:16:42.999Z</time></trkpt><trkpt lat="48.623633699077175" lon="-2.341405699333607"><ele>66.66666666666666</ele><time>2026-04-05T14:16:43.999Z</time></trkpt><trkpt lat="48.62362437409409" lon="-2.341308632282474"><ele>66.83333333333333</ele><time>2026-04-05T14:16:44.999Z</time></trkpt><trkpt lat="48.6236163715708" lon="-2.3412123254497885"><ele>67.0</ele><time>2026-04-05T14:16:45.999Z</time></trkpt><trkpt lat="48.62360548803936" lon="-2.3410266994762714"><ele>67.33333333333333</ele><time>2026-04-05T14:16:47.999Z</time></trkpt><trkpt lat="48.62359807201153" lon="-2.340843011412103"><ele>67.66666666666666</ele><time>2026-04-05T14:16:49.999Z</time></trkpt><trkpt lat="48.623598718555755" lon="-2.340744797062143"><ele>68.0</ele><time>2026-04-05T14:16:50.999Z</time></trkpt><trkpt lat="48.6236087426014" lon="-2.3406446374093486"><ele>68.33333333333333</ele><time>2026-04-05T14:16:51.999Z</time></trkpt><trkpt lat="48.62362273171075" lon="-2.3405433859387443"><ele>68.66666666666667</ele><time>2026-04-05T14:16:52.999Z</time></trkpt><trkpt lat="48.623639921142306" lon="-2.340446472659412"><ele>69.0</ele><time>2026-04-05T14:16:53.999Z</time></trkpt><trkpt lat="48.623659060763444" lon="-2.340347000190006"><ele>69.0</ele><time>2026-04-05T14:16:54.999Z</time></trkpt><trkpt lat="48.62368341906196" lon="-2.340249078633512"><ele>69.0</ele><time>2026-04-05T14:16:55.999Z</time></trkpt><trkpt lat="48.6237129155552" lon="-2.340154535389586"><ele>69.0</ele><time>2026-04-05T14:16:56.999Z</time></trkpt><trkpt lat="48.62374539101641" lon="-2.340062178939867"><ele>69.0</ele><time>2026-04-05T14:16:57.999Z</time></trkpt><trkpt lat="48.62377455673406" lon="-2.3399689210650934"><ele>69.0</ele><time>2026-04-05T14:16:58.999Z</time></trkpt><trkpt lat="48.62380354436786" lon="-2.339879292835543"><ele>69.0</ele><time>2026-04-05T14:16:59.999Z</time></trkpt><trkpt lat="48.62383434095448" lon="-2.339790666444024"><ele>69.0</ele><time>2026-04-05T14:17:00.999Z</time></trkpt><trkpt lat="48.62386599164938" lon="-2.339706749108024"><ele>68.8</ele><time>2026-04-05T14:17:02Z</time></trkpt><trkpt lat="48.62390185131125" lon="-2.339627575896103"><ele>68.60000000000001</ele><time>2026-04-05T14:17:03Z</time></trkpt><trkpt lat="48.62396865570476" lon="-2.339472926045396"><ele>68.4</ele><time>2026-04-05T14:17:05Z</time></trkpt><trkpt lat="48.62404888826069" lon="-2.339340872517695"><ele>68.2</ele><time>2026-04-05T14:17:07Z</time></trkpt><trkpt lat="48.6241326579808" lon="-2.3392368792683214"><ele>68.0</ele><time>2026-04-05T14:17:09Z</time></trkpt><trkpt lat="48.62421323463301" lon="-2.3391387884991732"><ele>68.0</ele><time>2026-04-05T14:17:11Z</time></trkpt><trkpt lat="48.62429768936503" lon="-2.339053335163065"><ele>68.0</ele><time>2026-04-05T14:17:13Z</time></trkpt><trkpt lat="48.624380771766575" lon="-2.3389592616031916"><ele>68.0</ele><time>2026-04-05T14:17:15Z</time></trkpt><trkpt lat="48.62443275945162" lon="-2.3388887912418563"><ele>68.0</ele><time>2026-04-05T14:17:17Z</time></trkpt><trkpt lat="48.624552426759195" lon="-2.3387480610006777"><ele>68.0</ele><time>2026-04-05T14:17:19Z</time></trkpt><trkpt lat="48.624627441398104" lon="-2.338641316935796"><ele>68.6</ele><time>2026-04-05T14:17:21Z</time></trkpt><trkpt lat="48.62470501075595" lon="-2.3385369845524058"><ele>69.19999999999999</ele><time>2026-04-05T14:17:23Z</time></trkpt><trkpt lat="48.62477497214499" lon="-2.3384297773615663"><ele>69.8</ele><time>2026-04-05T14:17:25Z</time></trkpt><trkpt lat="48.62484515426834" lon="-2.33834153708491"><ele>70.39999999999999</ele><time>2026-04-05T14:17:27Z</time></trkpt><trkpt lat="48.62491372182085" lon="-2.338254807259357"><ele>71.0</ele><time>2026-04-05T14:17:29Z</time></trkpt><trkpt lat="48.62498415383568" lon="-2.3381710984861876"><ele>71.0</ele><time>2026-04-05T14:17:31Z</time></trkpt><trkpt lat="48.625061875937625" lon="-2.3380910509200894"><ele>71.0</ele><time>2026-04-05T14:17:33Z</time></trkpt><trkpt lat="48.625146616657354" lon="-2.337997474062727"><ele>71.0</ele><time>2026-04-05T14:17:35Z</time></trkpt><trkpt lat="48.62521737675747" lon="-2.3379114431760466"><ele>71.0</ele><time>2026-04-05T14:17:37Z</time></trkpt><trkpt lat="48.625312317355224" lon="-2.33781207767552"><ele>71.0</ele><time>2026-04-05T14:17:39Z</time></trkpt><trkpt lat="48.62540901788134" lon="-2.3377147005717576"><ele>71.5</ele><time>2026-04-05T14:17:41Z</time></trkpt><trkpt lat="48.625502440997195" lon="-2.337611716800486"><ele>72.0</ele><time>2026-04-05T14:17:43Z</time></trkpt><trkpt lat="48.6255972683618" lon="-2.3375069941617506"><ele>72.5</ele><time>2026-04-05T14:17:45Z</time></trkpt><trkpt lat="48.62569020838206" lon="-2.3373926323599052"><ele>73.0</ele><time>2026-04-05T14:17:47Z</time></trkpt><trkpt lat="48.625786518890735" lon="-2.3372765437750633"><ele>72.2</ele><time>2026-04-05T14:17:49Z</time></trkpt><trkpt lat="48.625870336493584" lon="-2.337147703940707"><ele>71.4</ele><time>2026-04-05T14:17:51Z</time></trkpt><trkpt lat="48.62594087881031" lon="-2.33700170478116"><ele>70.60000000000001</ele><time>2026-04-05T14:17:53Z</time></trkpt><trkpt lat="48.62599101294633" lon="-2.336848508748443"><ele>69.8</ele><time>2026-04-05T14:17:55Z</time></trkpt><trkpt lat="48.626075672691826" lon="-2.3367790118568217"><ele>69.0</ele><time>2026-04-05T14:17:58Z</time></trkpt><trkpt lat="48.62601653413603" lon="-2.336730350354629"><ele>69.0</ele><time>2026-04-05T14:17:59Z</time></trkpt><trkpt lat="48.62608811495033" lon="-2.336749002713982"><ele>69.0</ele><time>2026-04-05T14:18:00Z</time></trkpt><trkpt lat="48.62613469606523" lon="-2.336681812678986"><ele>69.0</ele><time>2026-04-05T14:18:41.999Z</time></trkpt><trkpt lat="48.62618451692028" lon="-2.3366151632865653"><ele>69.0</ele><time>2026-04-05T14:18:43.999Z</time></trkpt><trkpt lat="48.62625025578053" lon="-2.3365311607191357"><ele>69.0</ele><time>2026-04-05T14:18:45.999Z</time></trkpt><trkpt lat="48.626330043262584" lon="-2.3364671312560388"><ele>69.0</ele><time>2026-04-05T14:18:47.999Z</time></trkpt><trkpt lat="48.62642381481795" lon="-2.336406397063777"><ele>68.8</ele><time>2026-04-05T14:18:49.999Z</time></trkpt><trkpt lat="48.62652274997235" lon="-2.336360372761871"><ele>68.60000000000001</ele><time>2026-04-05T14:18:51.999Z</time></trkpt><trkpt lat="48.626623560221496" lon="-2.3363042157411433"><ele>68.4</ele><time>2026-04-05T14:18:53.999Z</time></trkpt><trkpt lat="48.626725240359754" lon="-2.3362370499969924"><ele>68.2</ele><time>2026-04-05T14:18:55.999Z</time></trkpt><trkpt lat="48.626824979051435" lon="-2.3361657300040357"><ele>68.0</ele><time>2026-04-05T14:18:57.999Z</time></trkpt><trkpt lat="48.62692901307285" lon="-2.3360829040994457"><ele>68.0</ele><time>2026-04-05T14:18:59.999Z</time></trkpt><trkpt lat="48.6270262764884" lon="-2.3359988865955326"><ele>68.0</ele><time>2026-04-05T14:19:01.999Z</time></trkpt><trkpt lat="48.62712827821394" lon="-2.335898110701494"><ele>68.0</ele><time>2026-04-05T14:19:03.999Z</time></trkpt><trkpt lat="48.62718285645483" lon="-2.335850092307031"><ele>68.0</ele><time>2026-04-05T14:19:04.999Z</time></trkpt><trkpt lat="48.62728685319088" lon="-2.3357523789904255"><ele>68.0</ele><time>2026-04-05T14:19:06.999Z</time></trkpt><trkpt lat="48.62734273185816" lon="-2.3357020463437066"><ele>68.0</ele><time>2026-04-05T14:19:08Z</time></trkpt><trkpt lat="48.62740005178368" lon="-2.335658660622838"><ele>68.0</ele><time>2026-04-05T14:19:09Z</time></trkpt><trkpt lat="48.62746067692793" lon="-2.335629278574475"><ele>68.0</ele><time>2026-04-05T14:19:10Z</time></trkpt><trkpt lat="48.62752100254731" lon="-2.335600557835528"><ele>68.0</ele><time>2026-04-05T14:19:11Z</time></trkpt><trkpt lat="48.62764382810597" lon="-2.3355573037106736"><ele>68.0</ele><time>2026-04-05T14:19:13Z</time></trkpt><trkpt lat="48.627713728224904" lon="-2.3355366955531394"><ele>68.0</ele><time>2026-04-05T14:19:14Z</time></trkpt><trkpt lat="48.62777591131232" lon="-2.335510644385244"><ele>67.5</ele><time>2026-04-05T14:19:15Z</time></trkpt><trkpt lat="48.62790220026968" lon="-2.3354681321130446"><ele>67.0</ele><time>2026-04-05T14:19:17Z</time></trkpt><trkpt lat="48.62796664528503" lon="-2.335441382469026"><ele>66.5</ele><time>2026-04-05T14:19:18Z</time></trkpt><trkpt lat="48.62803286905797" lon="-2.335419900394874"><ele>66.0</ele><time>2026-04-05T14:19:19Z</time></trkpt><trkpt lat="48.6280960172331" lon="-2.3353991582187925"><ele>65.5</ele><time>2026-04-05T14:19:20Z</time></trkpt><trkpt lat="48.628159977385074" lon="-2.335379115057671"><ele>65.0</ele><time>2026-04-05T14:19:21Z</time></trkpt><trkpt lat="48.62822441599308" lon="-2.3353625811568266"><ele>65.0</ele><time>2026-04-05T14:19:22Z</time></trkpt><trkpt lat="48.6282869451852" lon="-2.3353486617237293"><ele>65.0</ele><time>2026-04-05T14:19:23Z</time></trkpt><trkpt lat="48.62835180158319" lon="-2.3353371473703004"><ele>65.0</ele><time>2026-04-05T14:19:24Z</time></trkpt><trkpt lat="48.62847369591339" lon="-2.335310426644851"><ele>65.0</ele><time>2026-04-05T14:19:26Z</time></trkpt><trkpt lat="48.62859075080162" lon="-2.335293445569895"><ele>65.0</ele><time>2026-04-05T14:19:28Z</time></trkpt><trkpt lat="48.62870928168004" lon="-2.335267808665735"><ele>65.25</ele><time>2026-04-05T14:19:30Z</time></trkpt><trkpt lat="48.628825390009354" lon="-2.3352286827453472"><ele>65.5</ele><time>2026-04-05T14:19:32Z</time></trkpt><trkpt lat="48.628940985301654" lon="-2.3351826910847793"><ele>65.75</ele><time>2026-04-05T14:19:34Z</time></trkpt><trkpt lat="48.62904557324732" lon="-2.3351355277529104"><ele>66.0</ele><time>2026-04-05T14:19:36Z</time></trkpt><trkpt lat="48.62914390532725" lon="-2.33507807983893"><ele>66.0</ele><time>2026-04-05T14:19:38Z</time></trkpt><trkpt lat="48.62922582502806" lon="-2.3350237597868917"><ele>66.0</ele><time>2026-04-05T14:19:40Z</time></trkpt><trkpt lat="48.62927288450574" lon="-2.334954897895016"><ele>66.0</ele><time>2026-04-05T14:20:03Z</time></trkpt><trkpt lat="48.62934463994159" lon="-2.3349637936431233"><ele>66.0</ele><time>2026-04-05T14:20:05Z</time></trkpt><trkpt lat="48.62942763854978" lon="-2.334914908675918"><ele>66.0</ele><time>2026-04-05T14:20:07Z</time></trkpt><trkpt lat="48.62952477297166" lon="-2.334865860581874"><ele>66.0</ele><time>2026-04-05T14:20:09Z</time></trkpt><trkpt lat="48.62963295370648" lon="-2.3348061691193562"><ele>65.8</ele><time>2026-04-05T14:20:11Z</time></trkpt><trkpt lat="48.6297500739997" lon="-2.334744795919577"><ele>65.6</ele><time>2026-04-05T14:20:13Z</time></trkpt><trkpt lat="48.629863908304124" lon="-2.334680285526311"><ele>65.4</ele><time>2026-04-05T14:20:15Z</time></trkpt><trkpt lat="48.629979049783856" lon="-2.334615128457207"><ele>65.2</ele><time>2026-04-05T14:20:17Z</time></trkpt><trkpt lat="48.63004001191486" lon="-2.3345783197506984"><ele>65.0</ele><time>2026-04-05T14:20:18Z</time></trkpt><trkpt lat="48.630097605838834" lon="-2.334534401714997"><ele>65.0</ele><time>2026-04-05T14:20:19Z</time></trkpt><trkpt lat="48.63015658404622" lon="-2.3344907746616212"><ele>65.0</ele><time>2026-04-05T14:20:20Z</time></trkpt><trkpt lat="48.63026770357022" lon="-2.3344093349811494"><ele>65.0</ele><time>2026-04-05T14:20:21.999Z</time></trkpt><trkpt lat="48.63032308583214" lon="-2.334360725189073"><ele>65.0</ele><time>2026-04-05T14:20:22.999Z</time></trkpt><trkpt lat="48.630377831646726" lon="-2.3343129408684447"><ele>65.0</ele><time>2026-04-05T14:20:23.999Z</time></trkpt><trkpt lat="48.63043335283992" lon="-2.3342659171926146"><ele>65.0</ele><time>2026-04-05T14:20:24.999Z</time></trkpt><trkpt lat="48.63053492781737" lon="-2.334176544962009"><ele>65.0</ele><time>2026-04-05T14:20:26.999Z</time></trkpt><trkpt lat="48.630592134727955" lon="-2.334124702156002"><ele>65.0</ele><time>2026-04-05T14:20:27.999Z</time></trkpt><trkpt lat="48.63069226167332" lon="-2.3340477040807723"><ele>65.0</ele><time>2026-04-05T14:20:29.999Z</time></trkpt><trkpt lat="48.63079591478394" lon="-2.333970971543989"><ele>65.0</ele><time>2026-04-05T14:20:31.999Z</time></trkpt><trkpt lat="48.63090083879941" lon="-2.333895610858201"><ele>65.0</ele><time>2026-04-05T14:20:33.999Z</time></trkpt><trkpt lat="48.631005181155764" lon="-2.3338249081006612"><ele>65.0</ele><time>2026-04-05T14:20:35.999Z</time></trkpt><trkpt lat="48.63110690501531" lon="-2.333773293331229"><ele>65.0</ele><time>2026-04-05T14:20:37.999Z</time></trkpt><trkpt lat="48.63121522674811" lon="-2.333770101996447"><ele>65.0</ele><time>2026-04-05T14:20:39.999Z</time></trkpt><trkpt lat="48.63130258365157" lon="-2.333850182557512"><ele>65.0</ele><time>2026-04-05T14:20:41.999Z</time></trkpt><trkpt lat="48.6313823981058" lon="-2.3339297789647673"><ele>65.0</ele><time>2026-04-05T14:20:43.999Z</time></trkpt><trkpt lat="48.63144288424586" lon="-2.3339831399885638"><ele>64.66666666666667</ele><time>2026-04-05T14:20:47.999Z</time></trkpt><trkpt lat="48.63150017547953" lon="-2.333876468184602"><ele>64.33333333333334</ele><time>2026-04-05T14:20:49.999Z</time></trkpt><trkpt lat="48.63152554016435" lon="-2.333788729849643"><ele>64.0</ele><time>2026-04-05T14:20:51.999Z</time></trkpt><trkpt lat="48.631518810413425" lon="-2.33363585817327"><ele>63.66666666666667</ele><time>2026-04-05T14:20:53.999Z</time></trkpt><trkpt lat="48.63152348201899" lon="-2.3335363120217614"><ele>63.333333333333336</ele><time>2026-04-05T14:20:54.999Z</time></trkpt><trkpt lat="48.63155234013117" lon="-2.333379641703897"><ele>63.0</ele><time>2026-04-05T14:20:56.999Z</time></trkpt><trkpt lat="48.63156550143588" lon="-2.333202880960796"><ele>63.0</ele><time>2026-04-05T14:20:58.999Z</time></trkpt><trkpt lat="48.63158278768408" lon="-2.3330368851565204"><ele>63.0</ele><time>2026-04-05T14:21:00.999Z</time></trkpt><trkpt lat="48.6315938977127" lon="-2.3328880748419953"><ele>63.0</ele><time>2026-04-05T14:21:02.999Z</time></trkpt><trkpt lat="48.63162323487914" lon="-2.332741825167011"><ele>63.0</ele><time>2026-04-05T14:21:04.999Z</time></trkpt><trkpt lat="48.63165796439038" lon="-2.3325942439858425"><ele>63.0</ele><time>2026-04-05T14:21:06.999Z</time></trkpt><trkpt lat="48.63170099405387" lon="-2.3324948327578214"><ele>63.0</ele><time>2026-04-05T14:21:08.999Z</time></trkpt><trkpt lat="48.63174183834918" lon="-2.3324071445551082"><ele>63.0</ele><time>2026-04-05T14:21:09.999Z</time></trkpt><trkpt lat="48.631803856882236" lon="-2.33230807443325"><ele>63.0</ele><time>2026-04-05T14:21:11.999Z</time></trkpt><trkpt lat="48.63186891493917" lon="-2.332189898773166"><ele>63.0</ele><time>2026-04-05T14:21:14Z</time></trkpt><trkpt lat="48.63192450588164" lon="-2.3320715469029514"><ele>63.0</ele><time>2026-04-05T14:21:16Z</time></trkpt><trkpt lat="48.63197834098102" lon="-2.3319649357671577"><ele>63.0</ele><time>2026-04-05T14:21:18Z</time></trkpt><trkpt lat="48.63202252995273" lon="-2.3318584109904137"><ele>63.2</ele><time>2026-04-05T14:21:20Z</time></trkpt><trkpt lat="48.632031497047926" lon="-2.331726071953126"><ele>63.4</ele><time>2026-04-05T14:21:22Z</time></trkpt><trkpt lat="48.632007502359784" lon="-2.331584031942791"><ele>63.60000000000001</ele><time>2026-04-05T14:21:24Z</time></trkpt><trkpt lat="48.63201916432201" lon="-2.331444113833266"><ele>63.800000000000004</ele><time>2026-04-05T14:21:26Z</time></trkpt><trkpt lat="48.63206697647512" lon="-2.331318259585235"><ele>64.0</ele><time>2026-04-05T14:21:28Z</time></trkpt><trkpt lat="48.63212116868172" lon="-2.3312247104373043"><ele>63.99999999999999</ele><time>2026-04-05T14:21:30Z</time></trkpt><trkpt lat="48.632184978342806" lon="-2.3311415046763595"><ele>64.0</ele><time>2026-04-05T14:21:32Z</time></trkpt><trkpt lat="48.63224892599075" lon="-2.3310540995715963"><ele>64.0</ele><time>2026-04-05T14:21:36Z</time></trkpt><trkpt lat="48.63231363484872" lon="-2.330970934755812"><ele>64.0</ele><time>2026-04-05T14:21:39Z</time></trkpt><trkpt lat="48.632397637792934" lon="-2.330876593446705"><ele>63.99999999999999</ele><time>2026-04-05T14:21:42Z</time></trkpt><trkpt lat="48.63244931117678" lon="-2.330794455698165"><ele>64.0</ele><time>2026-04-05T14:21:44Z</time></trkpt><trkpt lat="48.632502410080654" lon="-2.3307117992453485"><ele>63.99999999999999</ele><time>2026-04-05T14:21:46Z</time></trkpt><trkpt lat="48.63254464617456" lon="-2.330614333547608"><ele>64.0</ele><time>2026-04-05T14:21:49Z</time></trkpt><trkpt lat="48.632578860089254" lon="-2.330515537145264"><ele>64.0</ele><time>2026-04-05T14:21:50Z</time></trkpt><trkpt lat="48.632600806825174" lon="-2.3304201922103926"><ele>64.0</ele><time>2026-04-05T14:21:52Z</time></trkpt><trkpt lat="48.63262034045434" lon="-2.330297653739375"><ele>63.99999999999999</ele><time>2026-04-05T14:21:55Z</time></trkpt><trkpt lat="48.632632162591555" lon="-2.330189325340437"><ele>64.0</ele><time>2026-04-05T14:21:57Z</time></trkpt><trkpt lat="48.63263307767308" lon="-2.330064849636161"><ele>64.0</ele><time>2026-04-05T14:22:00Z</time></trkpt><trkpt lat="48.63262826003084" lon="-2.329943381588385"><ele>64.0</ele><time>2026-04-05T14:22:03Z</time></trkpt><trkpt lat="48.63262282465637" lon="-2.3298026374860714"><ele>64.0</ele><time>2026-04-05T14:22:05Z</time></trkpt><trkpt lat="48.632611098960105" lon="-2.3296119926382377"><ele>64.0</ele><time>2026-04-05T14:22:08Z</time></trkpt><trkpt lat="48.63259967146264" lon="-2.3295142115432927"><ele>64.0</ele><time>2026-04-05T14:22:09Z</time></trkpt><trkpt lat="48.6325772671517" lon="-2.32937774872959"><ele>63.800000000000004</ele><time>2026-04-05T14:22:11Z</time></trkpt><trkpt lat="48.632542043762996" lon="-2.329234336002806"><ele>63.60000000000001</ele><time>2026-04-05T14:22:13Z</time></trkpt><trkpt lat="48.63252608405518" lon="-2.3290769838539274"><ele>63.4</ele><time>2026-04-05T14:22:15Z</time></trkpt><trkpt lat="48.632478377897705" lon="-2.3289225060055507"><ele>63.2</ele><time>2026-04-05T14:22:17Z</time></trkpt><trkpt lat="48.63246288617099" lon="-2.3287486138347417"><ele>63.0</ele><time>2026-04-05T14:22:19Z</time></trkpt><trkpt lat="48.63242570534989" lon="-2.3285860217627956"><ele>62.75</ele><time>2026-04-05T14:22:21Z</time></trkpt><trkpt lat="48.632389946454666" lon="-2.32842017650356"><ele>62.5</ele><time>2026-04-05T14:22:23Z</time></trkpt><trkpt lat="48.632328979626024" lon="-2.3282692344158757"><ele>62.25</ele><time>2026-04-05T14:22:25Z</time></trkpt><trkpt lat="48.63225471546697" lon="-2.3281344168531466"><ele>62.0</ele><time>2026-04-05T14:22:27Z</time></trkpt><trkpt lat="48.632190721821175" lon="-2.3279976730083534"><ele>61.5</ele><time>2026-04-05T14:22:29Z</time></trkpt><trkpt lat="48.63213761653444" lon="-2.3278524714084705"><ele>61.0</ele><time>2026-04-05T14:22:31Z</time></trkpt><trkpt lat="48.632102273039926" lon="-2.3276926914298555"><ele>60.5</ele><time>2026-04-05T14:22:33Z</time></trkpt><trkpt lat="48.63204284208673" lon="-2.327537257657326"><ele>60.0</ele><time>2026-04-05T14:22:35Z</time></trkpt><trkpt lat="48.632028213009484" lon="-2.3273688708532947"><ele>60.0</ele><time>2026-04-05T14:22:36.999Z</time></trkpt><trkpt lat="48.63201502780124" lon="-2.3272357450622883"><ele>60.0</ele><time>2026-04-05T14:22:38.999Z</time></trkpt><trkpt lat="48.63199831641121" lon="-2.3271232781515616"><ele>60.0</ele><time>2026-04-05T14:23:12.999Z</time></trkpt><trkpt lat="48.63205693390445" lon="-2.3270416541810355"><ele>60.0</ele><time>2026-04-05T14:23:15.999Z</time></trkpt><trkpt lat="48.63212678931979" lon="-2.326997446390237"><ele>60.0</ele><time>2026-04-05T14:23:17.999Z</time></trkpt><trkpt lat="48.63219937419599" lon="-2.32694798964681"><ele>60.0</ele><time>2026-04-05T14:23:20Z</time></trkpt><trkpt lat="48.632288177241506" lon="-2.326890690007779"><ele>59.6</ele><time>2026-04-05T14:23:22Z</time></trkpt><trkpt lat="48.63238480817401" lon="-2.3268318462034223"><ele>59.2</ele><time>2026-04-05T14:23:24Z</time></trkpt><trkpt lat="48.63247619473734" lon="-2.3267584194233835"><ele>58.8</ele><time>2026-04-05T14:23:26Z</time></trkpt><trkpt lat="48.63256704248976" lon="-2.326684805457396"><ele>58.4</ele><time>2026-04-05T14:23:28Z</time></trkpt><trkpt lat="48.63264175271385" lon="-2.326577933804626"><ele>58.0</ele><time>2026-04-05T14:23:30Z</time></trkpt><trkpt lat="48.63271386823607" lon="-2.326467475855277"><ele>58.0</ele><time>2026-04-05T14:23:32Z</time></trkpt><trkpt lat="48.63277556602802" lon="-2.3263459812044633"><ele>58.0</ele><time>2026-04-05T14:23:34Z</time></trkpt><trkpt lat="48.63283365295343" lon="-2.3262164966276404"><ele>58.0</ele><time>2026-04-05T14:23:36Z</time></trkpt><trkpt lat="48.63288926916053" lon="-2.326078416795962"><ele>58.0</ele><time>2026-04-05T14:23:38Z</time></trkpt><trkpt lat="48.632937634565685" lon="-2.325946560075517"><ele>58.0</ele><time>2026-04-05T14:23:40Z</time></trkpt><trkpt lat="48.63297409964722" lon="-2.325854452494517"><ele>58.25</ele><time>2026-04-05T14:23:42Z</time></trkpt><trkpt lat="48.633110039168756" lon="-2.3259696392469604"><ele>58.5</ele><time>2026-04-05T14:23:44Z</time></trkpt><trkpt lat="48.633194516948805" lon="-2.326047235100113"><ele>58.75</ele><time>2026-04-05T14:23:46Z</time></trkpt><trkpt lat="48.633263804823756" lon="-2.3261506515884314"><ele>59.0</ele><time>2026-04-05T14:23:48Z</time></trkpt><trkpt lat="48.633343433137206" lon="-2.326237169393994"><ele>59.00000000000001</ele><time>2026-04-05T14:23:50Z</time></trkpt><trkpt lat="48.63341819394094" lon="-2.326323942032279"><ele>59.0</ele><time>2026-04-05T14:23:52Z</time></trkpt><trkpt lat="48.6334912641497" lon="-2.326413686888368"><ele>59.0</ele><time>2026-04-05T14:23:54Z</time></trkpt><trkpt lat="48.633568405418586" lon="-2.3264944727192653"><ele>59.0</ele><time>2026-04-05T14:23:56Z</time></trkpt><trkpt lat="48.63364288266398" lon="-2.3265759822625456"><ele>59.00000000000001</ele><time>2026-04-05T14:23:58Z</time></trkpt><trkpt lat="48.633694567936075" lon="-2.326638364688095"><ele>59.0</ele><time>2026-04-05T14:24:00Z</time></trkpt><trkpt lat="48.63373956424836" lon="-2.3267118412173207"><ele>59.6</ele><time>2026-04-05T14:24:03Z</time></trkpt><trkpt lat="48.63387092061664" lon="-2.326825392075903"><ele>60.2</ele><time>2026-04-05T14:24:06Z</time></trkpt><trkpt lat="48.633989050227036" lon="-2.326860179353478"><ele>60.800000000000004</ele><time>2026-04-05T14:24:09Z</time></trkpt><trkpt lat="48.6340589075957" lon="-2.32685918888058"><ele>61.400000000000006</ele><time>2026-04-05T14:24:12Z</time></trkpt><trkpt lat="48.634135587073374" lon="-2.326879920267919"><ele>62.0</ele><time>2026-04-05T14:24:14Z</time></trkpt><trkpt lat="48.63421741372293" lon="-2.326905251173855"><ele>62.00000000000001</ele><time>2026-04-05T14:24:16Z</time></trkpt><trkpt lat="48.6342995268929" lon="-2.326906671941188"><ele>62.0</ele><time>2026-04-05T14:24:18Z</time></trkpt><trkpt lat="48.634391641039585" lon="-2.326925137212538"><ele>62.0</ele><time>2026-04-05T14:24:20Z</time></trkpt><trkpt lat="48.634460486001245" lon="-2.3269401183698046"><ele>62.0</ele><time>2026-04-05T14:24:22Z</time></trkpt><trkpt lat="48.634535270805074" lon="-2.3269602590934015"><ele>62.00000000000001</ele><time>2026-04-05T14:24:24Z</time></trkpt><trkpt lat="48.634625870173295" lon="-2.3269810043671653"><ele>62.0</ele><time>2026-04-05T14:24:27Z</time></trkpt><trkpt lat="48.634714783667214" lon="-2.3270124669658254"><ele>62.333333333333336</ele><time>2026-04-05T14:24:29Z</time></trkpt><trkpt lat="48.63481529160379" lon="-2.327032195580647"><ele>62.66666666666667</ele><time>2026-04-05T14:24:31Z</time></trkpt><trkpt lat="48.63487928671087" lon="-2.3270511099667153"><ele>63.0</ele><time>2026-04-05T14:24:32Z</time></trkpt><trkpt lat="48.6349486248317" lon="-2.327072994739162"><ele>63.33333333333333</ele><time>2026-04-05T14:24:33.999Z</time></trkpt><trkpt lat="48.63502503989201" lon="-2.32711946571182"><ele>63.666666666666664</ele><time>2026-04-05T14:24:35.999Z</time></trkpt><trkpt lat="48.635100322709405" lon="-2.327146803321827"><ele>64.0</ele><time>2026-04-05T14:24:37.999Z</time></trkpt><trkpt lat="48.63518252679098" lon="-2.327184796640014"><ele>64.0</ele><time>2026-04-05T14:24:40.999Z</time></trkpt><trkpt lat="48.63527123304656" lon="-2.3272173880446636"><ele>64.0</ele><time>2026-04-05T14:24:43.999Z</time></trkpt><trkpt lat="48.63552855404635" lon="-2.327296126328531"><ele>64.0</ele><time>2026-04-05T14:24:44.999Z</time></trkpt><trkpt lat="48.63562929126861" lon="-2.3273273290238743"><ele>64.0</ele><time>2026-04-05T14:24:46.999Z</time></trkpt><trkpt lat="48.63572462065034" lon="-2.3273604974394213"><ele>64.0</ele><time>2026-04-05T14:24:48.999Z</time></trkpt><trkpt lat="48.63582723472909" lon="-2.3273948468208694"><ele>64.0</ele><time>2026-04-05T14:24:50.999Z</time></trkpt><trkpt lat="48.63592339278456" lon="-2.3274351789076206"><ele>64.0</ele><time>2026-04-05T14:24:52.999Z</time></trkpt><trkpt lat="48.636028289682464" lon="-2.3274783319347976"><ele>64.0</ele><time>2026-04-05T14:24:54.999Z</time></trkpt><trkpt lat="48.636130505909634" lon="-2.3275271382076976"><ele>64.0</ele><time>2026-04-05T14:24:56.999Z</time></trkpt><trkpt lat="48.63622695978535" lon="-2.327583782659014"><ele>64.0</ele><time>2026-04-05T14:24:58.999Z</time></trkpt><trkpt lat="48.63629651228767" lon="-2.327634935904196"><ele>64.0</ele><time>2026-04-05T14:25:00.999Z</time></trkpt><trkpt lat="48.63639931945467" lon="-2.327699066165346"><ele>64.0</ele><time>2026-04-05T14:25:02.999Z</time></trkpt><trkpt lat="48.63649145652023" lon="-2.3277555958250478"><ele>64.0</ele><time>2026-04-05T14:25:04.999Z</time></trkpt><trkpt lat="48.63658779297856" lon="-2.3278106426059546"><ele>64.0</ele><time>2026-04-05T14:25:06.999Z</time></trkpt><trkpt lat="48.63667584318237" lon="-2.3278176381351"><ele>64.0</ele><time>2026-04-05T14:25:07.999Z</time></trkpt><trkpt lat="48.63676932261404" lon="-2.3278930044709725"><ele>64.0</ele><time>2026-04-05T14:25:09.999Z</time></trkpt><trkpt lat="48.636870868741305" lon="-2.327923148533921"><ele>64.0</ele><time>2026-04-05T14:25:11.999Z</time></trkpt><trkpt lat="48.636977766732514" lon="-2.327948281354178"><ele>64.0</ele><time>2026-04-05T14:25:13.999Z</time></trkpt><trkpt lat="48.63707891720738" lon="-2.3279779483631025"><ele>64.0</ele><time>2026-04-05T14:25:15.999Z</time></trkpt><trkpt lat="48.63718225523558" lon="-2.3280333510633033"><ele>64.0</ele><time>2026-04-05T14:25:17.999Z</time></trkpt><trkpt lat="48.63729107673541" lon="-2.3280567983656315"><ele>64.0</ele><time>2026-04-05T14:25:19.999Z</time></trkpt><trkpt lat="48.63739592923501" lon="-2.328089236360705"><ele>64.0</ele><time>2026-04-05T14:25:21.999Z</time></trkpt><trkpt lat="48.63749999131351" lon="-2.328124246288068"><ele>64.0</ele><time>2026-04-05T14:25:23.999Z</time></trkpt><trkpt lat="48.63760378079945" lon="-2.3281570878171447"><ele>64.0</ele><time>2026-04-05T14:25:26Z</time></trkpt><trkpt lat="48.637713271956976" lon="-2.328188378609571"><ele>64.0</ele><time>2026-04-05T14:25:28Z</time></trkpt><trkpt lat="48.63780907254831" lon="-2.3282162156053294"><ele>64.0</ele><time>2026-04-05T14:25:30Z</time></trkpt><trkpt lat="48.63791446889318" lon="-2.3282565499249466"><ele>64.0</ele><time>2026-04-05T14:25:32Z</time></trkpt><trkpt lat="48.638025969939555" lon="-2.328290276057076"><ele>64.0</ele><time>2026-04-05T14:25:35Z</time></trkpt><trkpt lat="48.63811836667697" lon="-2.3283139278144964"><ele>64.0</ele><time>2026-04-05T14:25:36Z</time></trkpt><trkpt lat="48.63822013277252" lon="-2.328352512766235"><ele>64.0</ele><time>2026-04-05T14:25:38Z</time></trkpt><trkpt lat="48.63832024463809" lon="-2.3283905230730575"><ele>64.0</ele><time>2026-04-05T14:25:40Z</time></trkpt><trkpt lat="48.6384201828275" lon="-2.328430053467142"><ele>64.0</ele><time>2026-04-05T14:25:42Z</time></trkpt><trkpt lat="48.638516237220045" lon="-2.328474780053315"><ele>64.0</ele><time>2026-04-05T14:25:44Z</time></trkpt><trkpt lat="48.63860957869965" lon="-2.328531747945638"><ele>64.0</ele><time>2026-04-05T14:25:46Z</time></trkpt><trkpt lat="48.63870492390907" lon="-2.3286075619729343"><ele>64.0</ele><time>2026-04-05T14:25:48Z</time></trkpt><trkpt lat="48.638801689321085" lon="-2.3286946946733367"><ele>64.0</ele><time>2026-04-05T14:25:50Z</time></trkpt><trkpt lat="48.63889334841087" lon="-2.328774901269042"><ele>64.0</ele><time>2026-04-05T14:25:52Z</time></trkpt><trkpt lat="48.63898365264458" lon="-2.3288574804808184"><ele>64.0</ele><time>2026-04-05T14:25:54Z</time></trkpt><trkpt lat="48.63907359195106" lon="-2.328939876182621"><ele>63.800000000000004</ele><time>2026-04-05T14:25:56Z</time></trkpt><trkpt lat="48.63916088131475" lon="-2.3290375877885925"><ele>63.60000000000001</ele><time>2026-04-05T14:25:58Z</time></trkpt><trkpt lat="48.63924069380908" lon="-2.3291512701895516"><ele>63.4</ele><time>2026-04-05T14:26:00Z</time></trkpt><trkpt lat="48.63931577649191" lon="-2.3292785897099963"><ele>63.2</ele><time>2026-04-05T14:26:02Z</time></trkpt><trkpt lat="48.63938982667976" lon="-2.3294152886749946"><ele>63.0</ele><time>2026-04-05T14:26:04Z</time></trkpt><trkpt lat="48.639468700407136" lon="-2.329521402641795"><ele>62.75</ele><time>2026-04-05T14:26:06Z</time></trkpt><trkpt lat="48.63952884751501" lon="-2.3296648554412207"><ele>62.5</ele><time>2026-04-05T14:26:08Z</time></trkpt><trkpt lat="48.639604265842635" lon="-2.3297873671117033"><ele>62.25</ele><time>2026-04-05T14:26:10Z</time></trkpt><trkpt lat="48.63969153864477" lon="-2.3298976011889803"><ele>62.0</ele><time>2026-04-05T14:26:12Z</time></trkpt><trkpt lat="48.63979178208908" lon="-2.3299922774815625"><ele>61.8</ele><time>2026-04-05T14:26:14Z</time></trkpt><trkpt lat="48.63990113165896" lon="-2.3300632199962084"><ele>61.6</ele><time>2026-04-05T14:26:16Z</time></trkpt><trkpt lat="48.64001233868813" lon="-2.330117952638795"><ele>61.39999999999999</ele><time>2026-04-05T14:26:18Z</time></trkpt><trkpt lat="48.64012625966079" lon="-2.330181191677421"><ele>61.199999999999996</ele><time>2026-04-05T14:26:20Z</time></trkpt><trkpt lat="48.64018736513554" lon="-2.3302146059059323"><ele>61.0</ele><time>2026-04-05T14:26:21Z</time></trkpt><trkpt lat="48.64024919972542" lon="-2.3302391757122147"><ele>60.85714285714285</ele><time>2026-04-05T14:26:22Z</time></trkpt><trkpt lat="48.64030953271614" lon="-2.3302702384674627"><ele>60.71428571428571</ele><time>2026-04-05T14:26:23Z</time></trkpt><trkpt lat="48.64037273532455" lon="-2.330304139049549"><ele>60.57142857142857</ele><time>2026-04-05T14:26:24Z</time></trkpt><trkpt lat="48.64043424496038" lon="-2.330336354863629"><ele>60.42857142857142</ele><time>2026-04-05T14:26:25Z</time></trkpt><trkpt lat="48.64049920670708" lon="-2.3303637650328097"><ele>60.28571428571428</ele><time>2026-04-05T14:26:26Z</time></trkpt><trkpt lat="48.64056149124698" lon="-2.330399904665762"><ele>60.142857142857146</ele><time>2026-04-05T14:26:27Z</time></trkpt><trkpt lat="48.64062150769214" lon="-2.330431355783725"><ele>60.0</ele><time>2026-04-05T14:26:28Z</time></trkpt><trkpt lat="48.6406828963852" lon="-2.330463205083221"><ele>60.0</ele><time>2026-04-05T14:26:29Z</time></trkpt><trkpt lat="48.64079509785392" lon="-2.3305318609747077"><ele>60.0</ele><time>2026-04-05T14:26:31Z</time></trkpt><trkpt lat="48.64090487655875" lon="-2.3305940388124013"><ele>60.0</ele><time>2026-04-05T14:26:33Z</time></trkpt><trkpt lat="48.64101597155898" lon="-2.330668383495863"><ele>60.0</ele><time>2026-04-05T14:26:35Z</time></trkpt><trkpt lat="48.64112880384944" lon="-2.330740094251164"><ele>59.42857142857143</ele><time>2026-04-05T14:26:37Z</time></trkpt><trkpt lat="48.641186739274346" lon="-2.3307796129246636"><ele>58.857142857142854</ele><time>2026-04-05T14:26:38Z</time></trkpt><trkpt lat="48.64124572608511" lon="-2.3308210394705426"><ele>58.285714285714285</ele><time>2026-04-05T14:26:39Z</time></trkpt><trkpt lat="48.64130413673703" lon="-2.330858981309623"><ele>57.714285714285715</ele><time>2026-04-05T14:26:40Z</time></trkpt><trkpt lat="48.641364315471186" lon="-2.3308953053332715"><ele>57.14285714285714</ele><time>2026-04-05T14:26:41Z</time></trkpt><trkpt lat="48.64142625762629" lon="-2.3309340206291873"><ele>56.57142857142857</ele><time>2026-04-05T14:26:42Z</time></trkpt><trkpt lat="48.64149260129064" lon="-2.330971320053457"><ele>56.0</ele><time>2026-04-05T14:26:43Z</time></trkpt><trkpt lat="48.64155784857823" lon="-2.3310015456126063"><ele>56.0</ele><time>2026-04-05T14:26:44Z</time></trkpt><trkpt lat="48.64162262974177" lon="-2.331027487752348"><ele>56.0</ele><time>2026-04-05T14:26:45Z</time></trkpt><trkpt lat="48.641689059830775" lon="-2.3310523911088077"><ele>56.0</ele><time>2026-04-05T14:26:46Z</time></trkpt><trkpt lat="48.641756696829496" lon="-2.3310688050093265"><ele>56.0</ele><time>2026-04-05T14:26:47Z</time></trkpt><trkpt lat="48.64182508829709" lon="-2.331077947040826"><ele>56.0</ele><time>2026-04-05T14:26:48Z</time></trkpt><trkpt lat="48.641892692294405" lon="-2.331084998668507"><ele>56.0</ele><time>2026-04-05T14:26:48.999Z</time></trkpt><trkpt lat="48.64196095503522" lon="-2.3310924263451636"><ele>56.0</ele><time>2026-04-05T14:26:49.999Z</time></trkpt><trkpt lat="48.64202906565216" lon="-2.331099784757387"><ele>56.0</ele><time>2026-04-05T14:26:50.999Z</time></trkpt><trkpt lat="48.64209393884171" lon="-2.3311032607667173"><ele>56.0</ele><time>2026-04-05T14:26:51.999Z</time></trkpt><trkpt lat="48.642157086913244" lon="-2.331110986050274"><ele>56.0</ele><time>2026-04-05T14:26:52.999Z</time></trkpt><trkpt lat="48.64222017911541" lon="-2.331115169542159"><ele>56.0</ele><time>2026-04-05T14:26:53.999Z</time></trkpt><trkpt lat="48.64228457352947" lon="-2.331122819269166"><ele>56.0</ele><time>2026-04-05T14:26:54.999Z</time></trkpt><trkpt lat="48.64240916221735" lon="-2.331142440993937"><ele>56.0</ele><time>2026-04-05T14:26:56.999Z</time></trkpt><trkpt lat="48.64247330540253" lon="-2.3311517573841756"><ele>56.0</ele><time>2026-04-05T14:26:57.999Z</time></trkpt><trkpt lat="48.64260151926776" lon="-2.3311681135051208"><ele>56.0</ele><time>2026-04-05T14:26:59.999Z</time></trkpt><trkpt lat="48.642724363460026" lon="-2.331184426513286"><ele>56.0</ele><time>2026-04-05T14:27:01.999Z</time></trkpt><trkpt lat="48.64285002318234" lon="-2.33119856827786"><ele>56.0</ele><time>2026-04-05T14:27:03.999Z</time></trkpt><trkpt lat="48.642972598305796" lon="-2.3312097464037276"><ele>56.0</ele><time>2026-04-05T14:27:05.999Z</time></trkpt><trkpt lat="48.643087802539085" lon="-2.3312147102404146"><ele>56.0</ele><time>2026-04-05T14:27:07.999Z</time></trkpt><trkpt lat="48.64319706182626" lon="-2.3312068941247346"><ele>55.99999999999999</ele><time>2026-04-05T14:27:09.999Z</time></trkpt><trkpt lat="48.64331475067022" lon="-2.3311978576177874"><ele>55.99999999999999</ele><time>2026-04-05T14:27:11.999Z</time></trkpt><trkpt lat="48.64342086043824" lon="-2.3311777865034533"><ele>56.0</ele><time>2026-04-05T14:27:13.999Z</time></trkpt><trkpt lat="48.643522295550525" lon="-2.3311839626517736"><ele>56.0</ele><time>2026-04-05T14:27:15.999Z</time></trkpt><trkpt lat="48.643607338688156" lon="-2.3312727785930543"><ele>55.599999999999994</ele><time>2026-04-05T14:27:17.999Z</time></trkpt><trkpt lat="48.643640301539094" lon="-2.331433292981143"><ele>55.199999999999996</ele><time>2026-04-05T14:27:19.999Z</time></trkpt><trkpt lat="48.6436407282252" lon="-2.331603605864082"><ele>54.800000000000004</ele><time>2026-04-05T14:27:21.999Z</time></trkpt><trkpt lat="48.643638563140286" lon="-2.3317791743613197"><ele>54.400000000000006</ele><time>2026-04-05T14:27:23.999Z</time></trkpt><trkpt lat="48.64365337454275" lon="-2.3319417287785495"><ele>54.0</ele><time>2026-04-05T14:27:25.999Z</time></trkpt><trkpt lat="48.64367878983308" lon="-2.3320925456705517"><ele>54.0</ele><time>2026-04-05T14:27:27.999Z</time></trkpt><trkpt lat="48.64373238662188" lon="-2.3322206037107804"><ele>54.00000000000001</ele><time>2026-04-05T14:27:29.999Z</time></trkpt><trkpt lat="48.64382708726093" lon="-2.332295332800642"><ele>54.00000000000001</ele><time>2026-04-05T14:27:32Z</time></trkpt><trkpt lat="48.64392917278262" lon="-2.3323605812755335"><ele>54.0</ele><time>2026-04-05T14:27:34Z</time></trkpt><trkpt lat="48.644035946589426" lon="-2.3324229338499394"><ele>54.0</ele><time>2026-04-05T14:27:36Z</time></trkpt><trkpt lat="48.64413876819187" lon="-2.332496386212503"><ele>54.0</ele><time>2026-04-05T14:27:38Z</time></trkpt><trkpt lat="48.644243912110504" lon="-2.3325712867724437"><ele>54.00000000000001</ele><time>2026-04-05T14:27:40Z</time></trkpt><trkpt lat="48.644349758902656" lon="-2.33264424781959"><ele>54.00000000000001</ele><time>2026-04-05T14:27:42Z</time></trkpt><trkpt lat="48.64445400433659" lon="-2.33271005500723"><ele>54.0</ele><time>2026-04-05T14:27:44Z</time></trkpt><trkpt lat="48.644552363945536" lon="-2.3327508459510304"><ele>54.0</ele><time>2026-04-05T14:27:46Z</time></trkpt><trkpt lat="48.64464756590812" lon="-2.3327418202145394"><ele>54.0</ele><time>2026-04-05T14:27:48Z</time></trkpt><trkpt lat="48.6447106700701" lon="-2.332640827731267"><ele>54.00000000000001</ele><time>2026-04-05T14:27:50Z</time></trkpt><trkpt lat="48.64475953800619" lon="-2.332509426699518"><ele>54.00000000000001</ele><time>2026-04-05T14:27:52Z</time></trkpt><trkpt lat="48.64481923648963" lon="-2.3323861543300404"><ele>54.0</ele><time>2026-04-05T14:27:54Z</time></trkpt><trkpt lat="48.64488570398417" lon="-2.332255532824873"><ele>54.0</ele><time>2026-04-05T14:27:56Z</time></trkpt><trkpt lat="48.64495823477348" lon="-2.3321281357723205"><ele>54.0</ele><time>2026-04-05T14:27:58Z</time></trkpt><trkpt lat="48.645030711883344" lon="-2.3319949747948"><ele>54.00000000000001</ele><time>2026-04-05T14:28:00Z</time></trkpt><trkpt lat="48.64511080087673" lon="-2.3318767312823394"><ele>54.00000000000001</ele><time>2026-04-05T14:28:02Z</time></trkpt><trkpt lat="48.6451746507922" lon="-2.3317484228461374"><ele>54.0</ele><time>2026-04-05T14:28:04Z</time></trkpt><trkpt lat="48.645251441956816" lon="-2.3316210164766358"><ele>54.0</ele><time>2026-04-05T14:28:06Z</time></trkpt><trkpt lat="48.64532328426543" lon="-2.3314928649918674"><ele>54.0</ele><time>2026-04-05T14:28:08Z</time></trkpt><trkpt lat="48.64538832437248" lon="-2.331366595303433"><ele>54.00000000000001</ele><time>2026-04-05T14:28:10Z</time></trkpt><trkpt lat="48.64544962388717" lon="-2.3312355437624195"><ele>54.00000000000001</ele><time>2026-04-05T14:28:12Z</time></trkpt><trkpt lat="48.64550211044389" lon="-2.3310964760561403"><ele>54.0</ele><time>2026-04-05T14:28:14Z</time></trkpt><trkpt lat="48.64554111245283" lon="-2.3309504581913902"><ele>54.0</ele><time>2026-04-05T14:28:16Z</time></trkpt><trkpt lat="48.64556046714971" lon="-2.3308389839190404"><ele>54.0</ele><time>2026-04-05T14:28:19Z</time></trkpt><trkpt lat="48.6456799537114" lon="-2.330789562486124"><ele>54.00000000000001</ele><time>2026-04-05T14:28:20Z</time></trkpt><trkpt lat="48.64573225735328" lon="-2.330734073273605"><ele>54.00000000000001</ele><time>2026-04-05T14:28:21Z</time></trkpt><trkpt lat="48.64583536417056" lon="-2.33069974009488"><ele>54.0</ele><time>2026-04-05T14:28:23Z</time></trkpt><trkpt lat="48.645922514627145" lon="-2.3306348902174783"><ele>54.0</ele><time>2026-04-05T14:28:25Z</time></trkpt><trkpt lat="48.646018302200574" lon="-2.330594521836302"><ele>54.166666666666664</ele><time>2026-04-05T14:28:27Z</time></trkpt><trkpt lat="48.64608022524273" lon="-2.3305565527120033"><ele>54.33333333333333</ele><time>2026-04-05T14:28:29Z</time></trkpt><trkpt lat="48.646161985415326" lon="-2.3305445444650656"><ele>54.5</ele><time>2026-04-05T14:28:32Z</time></trkpt><trkpt lat="48.646257044636236" lon="-2.3305362947374975"><ele>54.666666666666664</ele><time>2026-04-05T14:28:35Z</time></trkpt><trkpt lat="48.646331098959685" lon="-2.3305427810149024"><ele>54.83333333333333</ele><time>2026-04-05T14:28:37Z</time></trkpt><trkpt lat="48.64641270848769" lon="-2.330555235314224"><ele>55.0</ele><time>2026-04-05T14:28:39Z</time></trkpt><trkpt lat="48.64651257018571" lon="-2.3305977586712237"><ele>55.0</ele><time>2026-04-05T14:28:41Z</time></trkpt><trkpt lat="48.646603782213525" lon="-2.330607567873117"><ele>55.0</ele><time>2026-04-05T14:28:46Z</time></trkpt><trkpt lat="48.64672216924391" lon="-2.3306619418989265"><ele>55.0</ele><time>2026-04-05T14:28:48Z</time></trkpt><trkpt lat="48.64682848577169" lon="-2.3307259332425456"><ele>55.0</ele><time>2026-04-05T14:28:50Z</time></trkpt><trkpt lat="48.64692484760246" lon="-2.3307832756910565"><ele>55.0</ele><time>2026-04-05T14:28:51.999Z</time></trkpt><trkpt lat="48.64701056070956" lon="-2.330832285292466"><ele>55.0</ele><time>2026-04-05T14:28:53.999Z</time></trkpt><trkpt lat="48.647087141339775" lon="-2.3309210488946746"><ele>55.0</ele><time>2026-04-05T14:28:55.999Z</time></trkpt><trkpt lat="48.64719169932478" lon="-2.330910468259762"><ele>55.0</ele><time>2026-04-05T14:28:57.999Z</time></trkpt><trkpt lat="48.64729786926751" lon="-2.3308794868470954"><ele>55.0</ele><time>2026-04-05T14:28:59.999Z</time></trkpt><trkpt lat="48.64740136943354" lon="-2.3308462323942796"><ele>55.0</ele><time>2026-04-05T14:29:01.999Z</time></trkpt><trkpt lat="48.64751415175976" lon="-2.33083778332297"><ele>55.0</ele><time>2026-04-05T14:29:03.999Z</time></trkpt><trkpt lat="48.64761933173448" lon="-2.3307835756816964"><ele>55.0</ele><time>2026-04-05T14:29:05.999Z</time></trkpt><trkpt lat="48.64772838516868" lon="-2.330734060866264"><ele>55.0</ele><time>2026-04-05T14:29:07.999Z</time></trkpt><trkpt lat="48.64781766529866" lon="-2.3306939314831636"><ele>55.0</ele><time>2026-04-05T14:29:10.999Z</time></trkpt><trkpt lat="48.64789449090076" lon="-2.330633993868638"><ele>55.0</ele><time>2026-04-05T14:29:13.999Z</time></trkpt><trkpt lat="48.64796766794196" lon="-2.3305903182957097"><ele>54.75</ele><time>2026-04-05T14:29:15.999Z</time></trkpt><trkpt lat="48.648026657397146" lon="-2.330525319987184"><ele>54.5</ele><time>2026-04-05T14:29:16.999Z</time></trkpt><trkpt lat="48.648281452627295" lon="-2.3304027767479933"><ele>54.25</ele><time>2026-04-05T14:29:18.999Z</time></trkpt><trkpt lat="48.64836611797317" lon="-2.330334188418089"><ele>54.0</ele><time>2026-04-05T14:29:20.999Z</time></trkpt><trkpt lat="48.64845562940235" lon="-2.330271742561005"><ele>54.0</ele><time>2026-04-05T14:29:22.999Z</time></trkpt><trkpt lat="48.64853875138188" lon="-2.3301756869499406"><ele>54.00000000000001</ele><time>2026-04-05T14:29:24.999Z</time></trkpt><trkpt lat="48.64863485908675" lon="-2.3301246852442823"><ele>54.00000000000001</ele><time>2026-04-05T14:29:26.999Z</time></trkpt><trkpt lat="48.64871345845914" lon="-2.330051379898614"><ele>54.0</ele><time>2026-04-05T14:29:28.999Z</time></trkpt><trkpt lat="48.648800158205376" lon="-2.3299909511477517"><ele>54.0</ele><time>2026-04-05T14:29:30.999Z</time></trkpt><trkpt lat="48.64888530710486" lon="-2.3299086681363708"><ele>54.0</ele><time>2026-04-05T14:29:32.999Z</time></trkpt><trkpt lat="48.64897230518997" lon="-2.3298398558939617"><ele>54.00000000000001</ele><time>2026-04-05T14:29:34.999Z</time></trkpt><trkpt lat="48.64905464390393" lon="-2.3297752523915114"><ele>54.00000000000001</ele><time>2026-04-05T14:29:36.999Z</time></trkpt><trkpt lat="48.64913639562691" lon="-2.3297391940208936"><ele>54.0</ele><time>2026-04-05T14:29:41Z</time></trkpt><trkpt lat="48.64924047605807" lon="-2.3296785020270234"><ele>54.0</ele><time>2026-04-05T14:29:44Z</time></trkpt><trkpt lat="48.64935206913812" lon="-2.329603726055081"><ele>54.0</ele><time>2026-04-05T14:29:46Z</time></trkpt><trkpt lat="48.64941815455355" lon="-2.329566621485945"><ele>54.0</ele><time>2026-04-05T14:29:49Z</time></trkpt><trkpt lat="48.649480340143796" lon="-2.329512119893073"><ele>54.0</ele><time>2026-04-05T14:29:52Z</time></trkpt><trkpt lat="48.64954818286355" lon="-2.3294634376897028"><ele>54.0</ele><time>2026-04-05T14:29:54Z</time></trkpt><trkpt lat="48.649616313323676" lon="-2.3294122896944205"><ele>54.0</ele><time>2026-04-05T14:29:56Z</time></trkpt><trkpt lat="48.64967701495197" lon="-2.3293862370488068"><ele>54.0</ele><time>2026-04-05T14:29:59Z</time></trkpt><trkpt lat="48.64973372413255" lon="-2.329331997884348"><ele>54.0</ele><time>2026-04-05T14:30:01Z</time></trkpt><trkpt lat="48.64981883540494" lon="-2.3292912832495096"><ele>54.400000000000006</ele><time>2026-04-05T14:30:04Z</time></trkpt><trkpt lat="48.64993733844457" lon="-2.3292973545727156"><ele>54.800000000000004</ele><time>2026-04-05T14:30:06Z</time></trkpt><trkpt lat="48.650019102446606" lon="-2.32938644053339"><ele>55.199999999999996</ele><time>2026-04-05T14:30:08Z</time></trkpt><trkpt lat="48.65008202309379" lon="-2.329461824000588"><ele>55.599999999999994</ele><time>2026-04-05T14:30:10Z</time></trkpt><trkpt lat="48.65013258962829" lon="-2.329533444340772"><ele>56.0</ele><time>2026-04-05T14:30:13Z</time></trkpt><trkpt lat="48.65022345564399" lon="-2.3294455544438417"><ele>56.0</ele><time>2026-04-05T14:30:17Z</time></trkpt><trkpt lat="48.650259408485034" lon="-2.3293466352939523"><ele>56.0</ele><time>2026-04-05T14:30:19Z</time></trkpt><trkpt lat="48.65041043632421" lon="-2.3290976375405514"><ele>56.0</ele><time>2026-04-05T14:30:22Z</time></trkpt><trkpt lat="48.65044937761621" lon="-2.3289529232857857"><ele>56.0</ele><time>2026-04-05T14:30:24Z</time></trkpt><trkpt lat="48.650495369281046" lon="-2.328802098621859"><ele>55.8</ele><time>2026-04-05T14:30:26Z</time></trkpt><trkpt lat="48.65053457360859" lon="-2.3286417946302773"><ele>55.599999999999994</ele><time>2026-04-05T14:30:28Z</time></trkpt><trkpt lat="48.65059209864569" lon="-2.3284934336546383"><ele>55.4</ele><time>2026-04-05T14:30:30Z</time></trkpt><trkpt lat="48.650673017201925" lon="-2.3283794032779395"><ele>55.2</ele><time>2026-04-05T14:30:32Z</time></trkpt><trkpt lat="48.65076155328414" lon="-2.3282800152641823"><ele>55.0</ele><time>2026-04-05T14:30:34Z</time></trkpt><trkpt lat="48.65082609911435" lon="-2.3281864360194118"><ele>55.0</ele><time>2026-04-05T14:30:36Z</time></trkpt><trkpt lat="48.650916699442384" lon="-2.328100859672325"><ele>55.0</ele><time>2026-04-05T14:30:38Z</time></trkpt><trkpt lat="48.65100591116671" lon="-2.3279958187987675"><ele>55.0</ele><time>2026-04-05T14:30:40Z</time></trkpt><trkpt lat="48.65108477840973" lon="-2.327876218023032"><ele>55.0</ele><time>2026-04-05T14:30:42Z</time></trkpt><trkpt lat="48.65114060095544" lon="-2.327749908484662"><ele>55.0</ele><time>2026-04-05T14:30:44Z</time></trkpt><trkpt lat="48.651206814753195" lon="-2.3275997251296556"><ele>55.0</ele><time>2026-04-05T14:30:46Z</time></trkpt><trkpt lat="48.6512824114084" lon="-2.3274646599018958"><ele>55.0</ele><time>2026-04-05T14:30:48Z</time></trkpt><trkpt lat="48.651344934047145" lon="-2.327313109197744"><ele>55.0</ele><time>2026-04-05T14:30:50Z</time></trkpt><trkpt lat="48.651419231710186" lon="-2.327162839617508"><ele>55.0</ele><time>2026-04-05T14:30:51.999Z</time></trkpt><trkpt lat="48.651478691103506" lon="-2.327010617464701"><ele>55.0</ele><time>2026-04-05T14:30:53.999Z</time></trkpt><trkpt lat="48.651539392723066" lon="-2.3268814998760727"><ele>55.0</ele><time>2026-04-05T14:30:55.999Z</time></trkpt><trkpt lat="48.651582956874954" lon="-2.3267245708232758"><ele>55.0</ele><time>2026-04-05T14:30:57.999Z</time></trkpt><trkpt lat="48.651624021579885" lon="-2.3265637503645014"><ele>55.0</ele><time>2026-04-05T14:30:59.999Z</time></trkpt><trkpt lat="48.65167867959792" lon="-2.3264224593525094"><ele>55.0</ele><time>2026-04-05T14:31:01.999Z</time></trkpt><trkpt lat="48.65172195982423" lon="-2.3262695210959285"><ele>54.8</ele><time>2026-04-05T14:31:03.999Z</time></trkpt><trkpt lat="48.65179510129158" lon="-2.3260698705524447"><ele>54.6</ele><time>2026-04-05T14:31:06.999Z</time></trkpt><trkpt lat="48.65182830452285" lon="-2.3259595090225154"><ele>54.400000000000006</ele><time>2026-04-05T14:31:08.999Z</time></trkpt><trkpt lat="48.65191901086882" lon="-2.3259131577980083"><ele>54.2</ele><time>2026-04-05T14:31:12.999Z</time></trkpt><trkpt lat="48.6519863242667" lon="-2.3259180873277274"><ele>54.0</ele><time>2026-04-05T14:31:14.999Z</time></trkpt><trkpt lat="48.652062068861404" lon="-2.3259228773321743"><ele>54.0</ele><time>2026-04-05T14:31:16.999Z</time></trkpt><trkpt lat="48.652136187055156" lon="-2.3258436845920283"><ele>54.00000000000001</ele><time>2026-04-05T14:31:18.999Z</time></trkpt><trkpt lat="48.65221814895464" lon="-2.325772106378563"><ele>54.00000000000001</ele><time>2026-04-05T14:31:20.999Z</time></trkpt><trkpt lat="48.65232058104671" lon="-2.325704415137729"><ele>54.0</ele><time>2026-04-05T14:31:22.999Z</time></trkpt><trkpt lat="48.65238298658963" lon="-2.3256457826426815"><ele>54.0</ele><time>2026-04-05T14:31:24.999Z</time></trkpt><trkpt lat="48.652488677901" lon="-2.3255827008837584"><ele>54.2</ele><time>2026-04-05T14:31:26.999Z</time></trkpt><trkpt lat="48.65258242042143" lon="-2.325521344409487"><ele>54.400000000000006</ele><time>2026-04-05T14:31:28.999Z</time></trkpt><trkpt lat="48.65266184121485" lon="-2.325472159553534"><ele>54.6</ele><time>2026-04-05T14:31:31.999Z</time></trkpt><trkpt lat="48.652759449236534" lon="-2.325400431713346"><ele>54.8</ele><time>2026-04-05T14:31:32.999Z</time></trkpt><trkpt lat="48.652838440430024" lon="-2.3253311999171706"><ele>55.0</ele><time>2026-04-05T14:31:34.999Z</time></trkpt><trkpt lat="48.65293409054486" lon="-2.325290841406788"><ele>54.99999999999999</ele><time>2026-04-05T14:31:36.999Z</time></trkpt><trkpt lat="48.65302628409438" lon="-2.325250866509403"><ele>55.0</ele><time>2026-04-05T14:31:38.999Z</time></trkpt><trkpt lat="48.653114630206815" lon="-2.325210087571833"><ele>55.0</ele><time>2026-04-05T14:31:40.999Z</time></trkpt><trkpt lat="48.65318935398045" lon="-2.325178880151181"><ele>55.0</ele><time>2026-04-05T14:31:42.999Z</time></trkpt><trkpt lat="48.6532574293365" lon="-2.325144868064556"><ele>54.99999999999999</ele><time>2026-04-05T14:31:45Z</time></trkpt><trkpt lat="48.65333061580971" lon="-2.325108388414097"><ele>55.0</ele><time>2026-04-05T14:31:47Z</time></trkpt><trkpt lat="48.65340076764307" lon="-2.3250895077846567"><ele>54.99999999999999</ele><time>2026-04-05T14:31:49Z</time></trkpt><trkpt lat="48.65346974079631" lon="-2.3250810365793138"><ele>55.0</ele><time>2026-04-05T14:32:22Z</time></trkpt><trkpt lat="48.65353866418669" lon="-2.3251064929237755"><ele>55.0</ele><time>2026-04-05T14:32:29Z</time></trkpt><trkpt lat="48.653636156281955" lon="-2.325137385006423"><ele>55.0</ele><time>2026-04-05T14:32:32Z</time></trkpt><trkpt lat="48.65371118342779" lon="-2.3251714725705797"><ele>54.99999999999999</ele><time>2026-04-05T14:32:34Z</time></trkpt><trkpt lat="48.653785642429455" lon="-2.3252090300626236"><ele>55.0</ele><time>2026-04-05T14:32:36Z</time></trkpt><trkpt lat="48.65385270162872" lon="-2.325294077858579"><ele>54.99999999999999</ele><time>2026-04-05T14:32:38Z</time></trkpt><trkpt lat="48.653912013620214" lon="-2.325386984656146"><ele>55.0</ele><time>2026-04-05T14:32:40Z</time></trkpt><trkpt lat="48.65396471304754" lon="-2.325472082058795"><ele>55.0</ele><time>2026-04-05T14:32:42Z</time></trkpt><trkpt lat="48.65402643547582" lon="-2.325566249199428"><ele>55.0</ele><time>2026-04-05T14:32:44Z</time></trkpt><trkpt lat="48.654099374974905" lon="-2.3256633042994155"><ele>54.99999999999999</ele><time>2026-04-05T14:32:46Z</time></trkpt><trkpt lat="48.65417930944424" lon="-2.3257577174186554"><ele>55.0</ele><time>2026-04-05T14:32:48Z</time></trkpt><trkpt lat="48.65425380211211" lon="-2.325855480634521"><ele>55.0</ele><time>2026-04-05T14:32:50Z</time></trkpt><trkpt lat="48.65431867038413" lon="-2.3259525726123753"><ele>55.0</ele><time>2026-04-05T14:32:52Z</time></trkpt><trkpt lat="48.654374062272574" lon="-2.3260498707788893"><ele>55.0</ele><time>2026-04-05T14:32:53.999Z</time></trkpt><trkpt lat="48.654430626977955" lon="-2.32615249377499"><ele>55.0</ele><time>2026-04-05T14:32:55.999Z</time></trkpt><trkpt lat="48.65447088628791" lon="-2.326273203699316"><ele>55.0</ele><time>2026-04-05T14:32:57.999Z</time></trkpt><trkpt lat="48.65452357602189" lon="-2.3263954998555394"><ele>54.8</ele><time>2026-04-05T14:32:59.999Z</time></trkpt><trkpt lat="48.65457124231614" lon="-2.326507995852715"><ele>54.6</ele><time>2026-04-05T14:33:01.999Z</time></trkpt><trkpt lat="48.65463378231211" lon="-2.326612286390946"><ele>54.400000000000006</ele><time>2026-04-05T14:33:03.999Z</time></trkpt><trkpt lat="48.65466494599586" lon="-2.3267147674924495"><ele>54.2</ele><time>2026-04-05T14:33:06.999Z</time></trkpt><trkpt lat="48.65471373951106" lon="-2.326794361617222"><ele>54.0</ele><time>2026-04-05T14:33:09.999Z</time></trkpt><trkpt lat="48.654792881016" lon="-2.3269470921720026"><ele>54.0</ele><time>2026-04-05T14:33:11.999Z</time></trkpt><trkpt lat="48.654853527307885" lon="-2.327069642356242"><ele>54.00000000000001</ele><time>2026-04-05T14:33:13.999Z</time></trkpt><trkpt lat="48.65491071568209" lon="-2.327200210680627"><ele>54.00000000000001</ele><time>2026-04-05T14:33:15.999Z</time></trkpt><trkpt lat="48.654938876953025" lon="-2.327345808587352"><ele>54.0</ele><time>2026-04-05T14:33:17.999Z</time></trkpt><trkpt lat="48.65497718308753" lon="-2.327472471674052"><ele>54.0</ele><time>2026-04-05T14:33:19.999Z</time></trkpt><trkpt lat="48.65502037503879" lon="-2.32759485877357"><ele>54.0</ele><time>2026-04-05T14:33:21.999Z</time></trkpt><trkpt lat="48.65507946597856" lon="-2.327718122728031"><ele>54.00000000000001</ele><time>2026-04-05T14:33:23.999Z</time></trkpt><trkpt lat="48.65514128467565" lon="-2.3278425549074897"><ele>54.00000000000001</ele><time>2026-04-05T14:33:25.999Z</time></trkpt><trkpt lat="48.65520813236684" lon="-2.327958834550535"><ele>54.0</ele><time>2026-04-05T14:33:27.999Z</time></trkpt><trkpt lat="48.65527442802496" lon="-2.3280828072095856"><ele>54.0</ele><time>2026-04-05T14:33:29.999Z</time></trkpt><trkpt lat="48.655362806437786" lon="-2.3282091711362636"><ele>54.166666666666664</ele><time>2026-04-05T14:33:31.999Z</time></trkpt><trkpt lat="48.655431463691286" lon="-2.3283383088375116"><ele>54.33333333333333</ele><time>2026-04-05T14:33:33.999Z</time></trkpt><trkpt lat="48.65548488925632" lon="-2.3284748357891956"><ele>54.5</ele><time>2026-04-05T14:33:35.999Z</time></trkpt><trkpt lat="48.65551354442046" lon="-2.328589347296798"><ele>54.666666666666664</ele><time>2026-04-05T14:33:37.999Z</time></trkpt><trkpt lat="48.65553387548541" lon="-2.328700729103625"><ele>54.83333333333333</ele><time>2026-04-05T14:33:40.999Z</time></trkpt><trkpt lat="48.655578289226355" lon="-2.328783262715353"><ele>55.0</ele><time>2026-04-05T14:33:43.999Z</time></trkpt><trkpt lat="48.65564723443465" lon="-2.3288459017358982"><ele>54.83333333333333</ele><time>2026-04-05T14:33:46.999Z</time></trkpt><trkpt lat="48.65561401754604" lon="-2.3289719548157715"><ele>54.666666666666664</ele><time>2026-04-05T14:33:53Z</time></trkpt><trkpt lat="48.65555160546873" lon="-2.329033933782266"><ele>54.5</ele><time>2026-04-05T14:33:55Z</time></trkpt><trkpt lat="48.65547109613265" lon="-2.3290881049550642"><ele>54.33333333333333</ele><time>2026-04-05T14:33:57Z</time></trkpt><trkpt lat="48.655375485652755" lon="-2.329129727105687"><ele>54.166666666666664</ele><time>2026-04-05T14:33:59Z</time></trkpt><trkpt lat="48.65530275404854" lon="-2.3292132088318067"><ele>54.0</ele><time>2026-04-05T14:34:01Z</time></trkpt><trkpt lat="48.65524080170816" lon="-2.3293417866160464"><ele>54.0</ele><time>2026-04-05T14:34:03Z</time></trkpt><trkpt lat="48.655198721908945" lon="-2.3294825623111532"><ele>54.0</ele><time>2026-04-05T14:34:05Z</time></trkpt><trkpt lat="48.65516821708227" lon="-2.3295810784088795"><ele>54.0</ele><time>2026-04-05T14:34:07Z</time></trkpt><trkpt lat="48.65547758819811" lon="-2.3297139559841162"><ele>53.6</ele><time>2026-04-05T14:34:09Z</time></trkpt><trkpt lat="48.65542668617906" lon="-2.3298198650667645"><ele>53.2</ele><time>2026-04-05T14:34:10Z</time></trkpt><trkpt lat="48.65544809752862" lon="-2.3299099641961996"><ele>52.800000000000004</ele><time>2026-04-05T14:34:11Z</time></trkpt><trkpt lat="48.65547868156272" lon="-2.3300646092964206"><ele>52.400000000000006</ele><time>2026-04-05T14:34:13Z</time></trkpt><trkpt lat="48.65547334874143" lon="-2.330223833679177"><ele>52.0</ele><time>2026-04-05T14:34:15Z</time></trkpt><trkpt lat="48.6553371267628" lon="-2.330267211366584"><ele>52.0</ele><time>2026-04-05T14:34:17Z</time></trkpt><trkpt lat="48.655504510038746" lon="-2.3304671841687576"><ele>52.0</ele><time>2026-04-05T14:34:20Z</time></trkpt><trkpt lat="48.65558920992932" lon="-2.3305103007875116"><ele>52.0</ele><time>2026-04-05T14:34:24Z</time></trkpt><trkpt lat="48.65565578260648" lon="-2.3305125459473426"><ele>52.0</ele><time>2026-04-05T14:34:26Z</time></trkpt><trkpt lat="48.65573379370439" lon="-2.3304517346887637"><ele>52.0</ele><time>2026-04-05T14:34:28Z</time></trkpt><trkpt lat="48.65581426902175" lon="-2.3303835043499865"><ele>52.0</ele><time>2026-04-05T14:34:30Z</time></trkpt><trkpt lat="48.655898679158014" lon="-2.3303100336087508"><ele>52.0</ele><time>2026-04-05T14:34:32Z</time></trkpt><trkpt lat="48.65599386353411" lon="-2.3302344787056386"><ele>52.0</ele><time>2026-04-05T14:34:34Z</time></trkpt><trkpt lat="48.656087428158195" lon="-2.3301608254801147"><ele>52.0</ele><time>2026-04-05T14:34:36Z</time></trkpt><trkpt lat="48.65617729545432" lon="-2.33008751050032"><ele>51.6</ele><time>2026-04-05T14:34:38Z</time></trkpt><trkpt lat="48.65626346132381" lon="-2.3300176183618513"><ele>51.2</ele><time>2026-04-05T14:34:40Z</time></trkpt><trkpt lat="48.65635124956433" lon="-2.329942471297806"><ele>50.8</ele><time>2026-04-05T14:34:42Z</time></trkpt><trkpt lat="48.65643584327552" lon="-2.3298684778464844"><ele>50.4</ele><time>2026-04-05T14:34:44Z</time></trkpt><trkpt lat="48.65650771746088" lon="-2.329807296865378"><ele>50.0</ele><time>2026-04-05T14:34:46Z</time></trkpt><trkpt lat="48.65657988669198" lon="-2.329765546898873"><ele>50.0</ele><time>2026-04-05T14:34:48Z</time></trkpt><trkpt lat="48.65667342183038" lon="-2.3298812633098036"><ele>50.0</ele><time>2026-04-05T14:34:51Z</time></trkpt><trkpt lat="48.6567277202711" lon="-2.329968076213461"><ele>50.0</ele><time>2026-04-05T14:34:52Z</time></trkpt><trkpt lat="48.65677397406979" lon="-2.3301453168965973"><ele>50.0</ele><time>2026-04-05T14:34:54Z</time></trkpt><trkpt lat="48.6568376064537" lon="-2.330302776444194"><ele>50.0</ele><time>2026-04-05T14:34:56Z</time></trkpt><trkpt lat="48.65691079470758" lon="-2.330455950129379"><ele>49.5</ele><time>2026-04-05T14:34:58Z</time></trkpt><trkpt lat="48.65698133434255" lon="-2.3305979017007497"><ele>49.0</ele><time>2026-04-05T14:35:00Z</time></trkpt><trkpt lat="48.65705115298024" lon="-2.3307282561241824"><ele>48.5</ele><time>2026-04-05T14:35:02Z</time></trkpt><trkpt lat="48.65711755718746" lon="-2.330865218400505"><ele>48.0</ele><time>2026-04-05T14:35:03.999Z</time></trkpt><trkpt lat="48.65718358550927" lon="-2.3310051274562196"><ele>48.0</ele><time>2026-04-05T14:35:05.999Z</time></trkpt><trkpt lat="48.65725889980682" lon="-2.3311615470266087"><ele>48.0</ele><time>2026-04-05T14:35:07.999Z</time></trkpt><trkpt lat="48.65730230507685" lon="-2.331233169552267"><ele>48.0</ele><time>2026-04-05T14:35:08.999Z</time></trkpt><trkpt lat="48.65737299697795" lon="-2.3313650207481507"><ele>48.0</ele><time>2026-04-05T14:35:10.999Z</time></trkpt><trkpt lat="48.65741210614259" lon="-2.3314423267656763"><ele>48.0</ele><time>2026-04-05T14:35:11.999Z</time></trkpt><trkpt lat="48.65745421125466" lon="-2.3315145418668064"><ele>48.0</ele><time>2026-04-05T14:35:12.999Z</time></trkpt><trkpt lat="48.65753916986079" lon="-2.3316304221320983"><ele>47.857142857142854</ele><time>2026-04-05T14:35:14.999Z</time></trkpt><trkpt lat="48.65758892047576" lon="-2.3316929357114184"><ele>47.714285714285715</ele><time>2026-04-05T14:35:15.999Z</time></trkpt><trkpt lat="48.657639721229266" lon="-2.331754489034761"><ele>47.57142857142857</ele><time>2026-04-05T14:35:16.999Z</time></trkpt><trkpt lat="48.65769260974786" lon="-2.331812532725059"><ele>47.42857142857143</ele><time>2026-04-05T14:35:17.999Z</time></trkpt><trkpt lat="48.657753212435516" lon="-2.331859872061234"><ele>47.285714285714285</ele><time>2026-04-05T14:35:18.999Z</time></trkpt><trkpt lat="48.657820543957165" lon="-2.331860818497484"><ele>47.14285714285714</ele><time>2026-04-05T14:35:19.999Z</time></trkpt><trkpt lat="48.657888101947556" lon="-2.3318674841834093"><ele>47.0</ele><time>2026-04-05T14:35:20.999Z</time></trkpt><trkpt lat="48.65795444682732" lon="-2.3318620301961235"><ele>47.0</ele><time>2026-04-05T14:35:21.999Z</time></trkpt><trkpt lat="48.65802751053155" lon="-2.331879157715892"><ele>47.0</ele><time>2026-04-05T14:35:22.999Z</time></trkpt><trkpt lat="48.65809644574718" lon="-2.331901058063798"><ele>47.0</ele><time>2026-04-05T14:35:23.999Z</time></trkpt><trkpt lat="48.65821459724891" lon="-2.3319632908246626"><ele>47.0</ele><time>2026-04-05T14:35:25.999Z</time></trkpt><trkpt lat="48.658313085910656" lon="-2.3320166236905355"><ele>47.0</ele><time>2026-04-05T14:35:27.999Z</time></trkpt><trkpt lat="48.65839306759624" lon="-2.3320740680021057"><ele>47.0</ele><time>2026-04-05T14:35:29.999Z</time></trkpt><trkpt lat="48.65845544635837" lon="-2.3321595324844453"><ele>47.0</ele><time>2026-04-05T14:35:31.999Z</time></trkpt><trkpt lat="48.65850366024689" lon="-2.332250951047656"><ele>47.0</ele><time>2026-04-05T14:35:33.999Z</time></trkpt><trkpt lat="48.65855928768412" lon="-2.3323233529668923"><ele>47.0</ele><time>2026-04-05T14:35:35.999Z</time></trkpt><trkpt lat="48.65864538783975" lon="-2.3323322383940535"><ele>47.0</ele><time>2026-04-05T14:35:37.999Z</time></trkpt><trkpt lat="48.65873031892941" lon="-2.332305360639049"><ele>47.0</ele><time>2026-04-05T14:35:39.999Z</time></trkpt><trkpt lat="48.65881671703995" lon="-2.3322979820569296"><ele>47.166666666666664</ele><time>2026-04-05T14:35:41.999Z</time></trkpt><trkpt lat="48.65889998928813" lon="-2.332341251030664"><ele>47.33333333333333</ele><time>2026-04-05T14:35:43.999Z</time></trkpt><trkpt lat="48.65896184777649" lon="-2.332428316224021"><ele>47.5</ele><time>2026-04-05T14:35:45.999Z</time></trkpt><trkpt lat="48.65900536045979" lon="-2.332520258275786"><ele>47.666666666666664</ele><time>2026-04-05T14:35:47.999Z</time></trkpt><trkpt lat="48.65904635785733" lon="-2.3326201783259037"><ele>47.833333333333336</ele><time>2026-04-05T14:35:49.999Z</time></trkpt><trkpt lat="48.65908777943408" lon="-2.3327158482773576"><ele>48.0</ele><time>2026-04-05T14:35:51.999Z</time></trkpt><trkpt lat="48.659133994689526" lon="-2.332808923529068"><ele>48.0</ele><time>2026-04-05T14:35:53.999Z</time></trkpt><trkpt lat="48.659177335396464" lon="-2.332902621162432"><ele>48.0</ele><time>2026-04-05T14:35:56Z</time></trkpt><trkpt lat="48.65922682936927" lon="-2.333000431269404"><ele>48.0</ele><time>2026-04-05T14:35:58Z</time></trkpt><trkpt lat="48.65939558265742" lon="-2.3331537907898943"><ele>48.0</ele><time>2026-04-05T14:36:02Z</time></trkpt><trkpt lat="48.659487376343506" lon="-2.3332304313381345"><ele>48.2</ele><time>2026-04-05T14:36:04Z</time></trkpt><trkpt lat="48.65957386996129" lon="-2.333302492442476"><ele>48.4</ele><time>2026-04-05T14:36:06Z</time></trkpt><trkpt lat="48.659659352370475" lon="-2.333382829306084"><ele>48.6</ele><time>2026-04-05T14:36:08Z</time></trkpt><trkpt lat="48.65973670329357" lon="-2.3334634784404775"><ele>48.800000000000004</ele><time>2026-04-05T14:36:10Z</time></trkpt><trkpt lat="48.65981098396544" lon="-2.3335398710070137"><ele>49.0</ele><time>2026-04-05T14:36:12Z</time></trkpt><trkpt lat="48.65987427371757" lon="-2.33362865942044"><ele>49.0</ele><time>2026-04-05T14:36:14Z</time></trkpt><trkpt lat="48.65992966813626" lon="-2.3337283705730014"><ele>49.0</ele><time>2026-04-05T14:36:16Z</time></trkpt><trkpt lat="48.65999516867532" lon="-2.333832141556348"><ele>49.0</ele><time>2026-04-05T14:36:18Z</time></trkpt><trkpt lat="48.66006729721619" lon="-2.333940893919241"><ele>49.0</ele><time>2026-04-05T14:36:20Z</time></trkpt><trkpt lat="48.660112046382714" lon="-2.334038335173576"><ele>49.0</ele><time>2026-04-05T14:36:22Z</time></trkpt><trkpt lat="48.66019762577273" lon="-2.333990432616471"><ele>49.166666666666664</ele><time>2026-04-05T14:36:26Z</time></trkpt><trkpt lat="48.66023453434294" lon="-2.3339006030959655"><ele>49.33333333333333</ele><time>2026-04-05T14:36:28Z</time></trkpt><trkpt lat="48.6602925062949" lon="-2.333839527693373"><ele>49.5</ele><time>2026-04-05T14:36:30Z</time></trkpt><trkpt lat="48.66037914520365" lon="-2.3337805028797804"><ele>49.66666666666667</ele><time>2026-04-05T14:36:33Z</time></trkpt><trkpt lat="48.660454897541655" lon="-2.3337869526644055"><ele>49.833333333333336</ele><time>2026-04-05T14:36:35Z</time></trkpt><trkpt lat="48.6605397956201" lon="-2.333807876689976"><ele>50.0</ele><time>2026-04-05T14:36:38Z</time></trkpt><trkpt lat="48.66062523735096" lon="-2.3337832050432414"><ele>50.0</ele><time>2026-04-05T14:36:40Z</time></trkpt><trkpt lat="48.660739701729185" lon="-2.3337515425485518"><ele>50.0</ele><time>2026-04-05T14:36:41Z</time></trkpt><trkpt lat="48.660819965814795" lon="-2.3336788477573127"><ele>50.0</ele><time>2026-04-05T14:36:43Z</time></trkpt><trkpt lat="48.660893183407126" lon="-2.333606427674646"><ele>50.0</ele><time>2026-04-05T14:36:45Z</time></trkpt><trkpt lat="48.66095501999591" lon="-2.333514528771323"><ele>50.0</ele><time>2026-04-05T14:36:47Z</time></trkpt><trkpt lat="48.661003296303114" lon="-2.333411199581904"><ele>50.00000000000001</ele><time>2026-04-05T14:36:49Z</time></trkpt><trkpt lat="48.66101518174593" lon="-2.3332829401092114"><ele>50.0</ele><time>2026-04-05T14:36:51Z</time></trkpt><trkpt lat="48.661054458839594" lon="-2.333173503879613"><ele>50.0</ele><time>2026-04-05T14:36:53Z</time></trkpt><trkpt lat="48.66108308643315" lon="-2.33306150608865"><ele>50.0</ele><time>2026-04-05T14:36:55Z</time></trkpt><trkpt lat="48.66111744208519" lon="-2.332965519358206"><ele>50.00000000000001</ele><time>2026-04-05T14:36:57Z</time></trkpt><trkpt lat="48.66114911521385" lon="-2.33284250690374"><ele>50.0</ele><time>2026-04-05T14:36:59Z</time></trkpt><trkpt lat="48.661171864804864" lon="-2.3327244478632827"><ele>50.8</ele><time>2026-04-05T14:37:01Z</time></trkpt><trkpt lat="48.66121573060741" lon="-2.332577778356567"><ele>51.6</ele><time>2026-04-05T14:37:03Z</time></trkpt><trkpt lat="48.6612457612539" lon="-2.332449423781824"><ele>52.400000000000006</ele><time>2026-04-05T14:37:05Z</time></trkpt><trkpt lat="48.661281261161434" lon="-2.3323190211615947"><ele>53.2</ele><time>2026-04-05T14:37:06.999Z</time></trkpt><trkpt lat="48.66131836170138" lon="-2.3321917109948482"><ele>54.0</ele><time>2026-04-05T14:37:08.999Z</time></trkpt><trkpt lat="48.66135414155156" lon="-2.3320635442651394"><ele>54.333333333333336</ele><time>2026-04-05T14:37:10.999Z</time></trkpt><trkpt lat="48.66138475852668" lon="-2.331937923082148"><ele>54.66666666666667</ele><time>2026-04-05T14:37:12.999Z</time></trkpt><trkpt lat="48.66141441577911" lon="-2.3318104339740526"><ele>55.0</ele><time>2026-04-05T14:37:14.999Z</time></trkpt><trkpt lat="48.66144413373459" lon="-2.3316868415784002"><ele>55.333333333333336</ele><time>2026-04-05T14:37:16.999Z</time></trkpt><trkpt lat="48.661478324576514" lon="-2.331558448776966"><ele>55.66666666666667</ele><time>2026-04-05T14:37:18.999Z</time></trkpt><trkpt lat="48.66151832373634" lon="-2.331437706650676"><ele>56.0</ele><time>2026-04-05T14:37:20.999Z</time></trkpt><trkpt lat="48.661534333197054" lon="-2.3313213987012826"><ele>56.00000000000001</ele><time>2026-04-05T14:37:22.999Z</time></trkpt><trkpt lat="48.66160577282072" lon="-2.331192315140167"><ele>56.0</ele><time>2026-04-05T14:37:25.999Z</time></trkpt><trkpt lat="48.66167442899412" lon="-2.3311208227491567"><ele>56.0</ele><time>2026-04-05T14:37:27.999Z</time></trkpt><trkpt lat="48.661750863955504" lon="-2.331070754091377"><ele>56.0</ele><time>2026-04-05T14:37:29.999Z</time></trkpt><trkpt lat="48.661828266927074" lon="-2.331021979784092"><ele>56.00000000000001</ele><time>2026-04-05T14:37:31.999Z</time></trkpt><trkpt lat="48.661908906101196" lon="-2.330984949994458"><ele>56.0</ele><time>2026-04-05T14:37:33.999Z</time></trkpt><trkpt lat="48.66197348914039" lon="-2.3309474834563946"><ele>56.0</ele><time>2026-04-05T14:37:35.999Z</time></trkpt><trkpt lat="48.66213518126205" lon="-2.3308619160237223"><ele>56.0</ele><time>2026-04-05T14:37:37.999Z</time></trkpt><trkpt lat="48.66222648512462" lon="-2.330825569358104"><ele>56.0</ele><time>2026-04-05T14:37:39.999Z</time></trkpt><trkpt lat="48.6623207278363" lon="-2.3307916335849224"><ele>56.0</ele><time>2026-04-05T14:37:41.999Z</time></trkpt><trkpt lat="48.6624088817692" lon="-2.3307559073721604"><ele>56.0</ele><time>2026-04-05T14:37:43.999Z</time></trkpt><trkpt lat="48.66250580475985" lon="-2.3307134314797735"><ele>55.99999999999999</ele><time>2026-04-05T14:37:45.999Z</time></trkpt><trkpt lat="48.6626051963043" lon="-2.3306734164856224"><ele>55.99999999999999</ele><time>2026-04-05T14:37:47.999Z</time></trkpt><trkpt lat="48.662702176416616" lon="-2.3306353926899903"><ele>56.0</ele><time>2026-04-05T14:37:49.999Z</time></trkpt><trkpt lat="48.66279426794778" lon="-2.3305796545871913"><ele>56.0</ele><time>2026-04-05T14:37:51.999Z</time></trkpt><trkpt lat="48.66288937641783" lon="-2.3305108037477593"><ele>56.199999999999996</ele><time>2026-04-05T14:37:53.999Z</time></trkpt><trkpt lat="48.662988199717645" lon="-2.3304425357082303"><ele>56.39999999999999</ele><time>2026-04-05T14:37:55.999Z</time></trkpt><trkpt lat="48.6630788654984" lon="-2.330375443035813"><ele>56.6</ele><time>2026-04-05T14:37:57.999Z</time></trkpt><trkpt lat="48.66318377266511" lon="-2.3303046200114568"><ele>56.8</ele><time>2026-04-05T14:37:59.999Z</time></trkpt><trkpt lat="48.663287014487466" lon="-2.3302341636677237"><ele>57.0</ele><time>2026-04-05T14:38:02Z</time></trkpt><trkpt lat="48.66338720882621" lon="-2.3301622960887327"><ele>57.0</ele><time>2026-04-05T14:38:04Z</time></trkpt><trkpt lat="48.663481768443305" lon="-2.3300976907745428"><ele>57.0</ele><time>2026-04-05T14:38:06Z</time></trkpt><trkpt lat="48.66357384764772" lon="-2.3300150795253693"><ele>57.0</ele><time>2026-04-05T14:38:08Z</time></trkpt><trkpt lat="48.66365244173378" lon="-2.329905222379644"><ele>57.0</ele><time>2026-04-05T14:38:10Z</time></trkpt><trkpt lat="48.66372322437861" lon="-2.3297701047431083"><ele>57.0</ele><time>2026-04-05T14:38:12Z</time></trkpt><trkpt lat="48.6637751781773" lon="-2.3296176530406547"><ele>56.8</ele><time>2026-04-05T14:38:14Z</time></trkpt><trkpt lat="48.663816323660306" lon="-2.3294560892164156"><ele>56.6</ele><time>2026-04-05T14:38:16Z</time></trkpt><trkpt lat="48.663839749129096" lon="-2.3292896386552857"><ele>56.39999999999999</ele><time>2026-04-05T14:38:18Z</time></trkpt><trkpt lat="48.66385798307722" lon="-2.3291236975261986"><ele>56.199999999999996</ele><time>2026-04-05T14:38:20Z</time></trkpt><trkpt lat="48.66387647588646" lon="-2.3289631267606956"><ele>56.0</ele><time>2026-04-05T14:38:22Z</time></trkpt><trkpt lat="48.66389265299887" lon="-2.3288032568284103"><ele>56.0</ele><time>2026-04-05T14:38:24Z</time></trkpt><trkpt lat="48.66390384400824" lon="-2.328638834524415"><ele>55.99999999999999</ele><time>2026-04-05T14:38:26Z</time></trkpt><trkpt lat="48.66391203501214" lon="-2.328459182768584"><ele>55.99999999999999</ele><time>2026-04-05T14:38:28Z</time></trkpt><trkpt lat="48.663929292883964" lon="-2.328299779620734"><ele>56.0</ele><time>2026-04-05T14:38:30Z</time></trkpt><trkpt lat="48.66393406609735" lon="-2.3281375954052788"><ele>56.0</ele><time>2026-04-05T14:38:32Z</time></trkpt><trkpt lat="48.66395348506961" lon="-2.3279686654857494"><ele>56.0</ele><time>2026-04-05T14:38:34Z</time></trkpt><trkpt lat="48.66396385118809" lon="-2.3278017080373803"><ele>55.99999999999999</ele><time>2026-04-05T14:38:36Z</time></trkpt><trkpt lat="48.66397926833553" lon="-2.3276418367803275"><ele>55.99999999999999</ele><time>2026-04-05T14:38:38Z</time></trkpt><trkpt lat="48.66398217106941" lon="-2.3274740971408114"><ele>56.0</ele><time>2026-04-05T14:38:40Z</time></trkpt><trkpt lat="48.663985819355425" lon="-2.327313361075078"><ele>56.0</ele><time>2026-04-05T14:38:43Z</time></trkpt><trkpt lat="48.6640046655312" lon="-2.327087915659652"><ele>56.4</ele><time>2026-04-05T14:38:46Z</time></trkpt><trkpt lat="48.66401132182367" lon="-2.326903952950926"><ele>56.8</ele><time>2026-04-05T14:38:48Z</time></trkpt><trkpt lat="48.66403373142603" lon="-2.3267705453705596"><ele>57.199999999999996</ele><time>2026-04-05T14:38:50Z</time></trkpt><trkpt lat="48.6640440546342" lon="-2.326634647886075"><ele>57.599999999999994</ele><time>2026-04-05T14:38:53Z</time></trkpt><trkpt lat="48.66403984036865" lon="-2.3265315668942943"><ele>58.0</ele><time>2026-04-05T14:38:56Z</time></trkpt><trkpt lat="48.664231169233915" lon="-2.326505292435809"><ele>57.99999999999999</ele><time>2026-04-05T14:39:01Z</time></trkpt><trkpt lat="48.66424128309328" lon="-2.326621561537159"><ele>58.0</ele><time>2026-04-05T14:39:02Z</time></trkpt><trkpt lat="48.664310793740974" lon="-2.326672680415795"><ele>58.0</ele><time>2026-04-05T14:39:04Z</time></trkpt><trkpt lat="48.66438396130941" lon="-2.3267330697524384"><ele>58.0</ele><time>2026-04-05T14:39:06Z</time></trkpt><trkpt lat="48.664440258669146" lon="-2.3268256899355166"><ele>57.99999999999999</ele><time>2026-04-05T14:39:08Z</time></trkpt><trkpt lat="48.664503060978426" lon="-2.326808479670026"><ele>58.0</ele><time>2026-04-05T14:39:09Z</time></trkpt><trkpt lat="48.66458781684534" lon="-2.3268601626141927"><ele>57.4</ele><time>2026-04-05T14:39:11Z</time></trkpt><trkpt lat="48.664675703966495" lon="-2.326919985103801"><ele>56.8</ele><time>2026-04-05T14:39:12.999Z</time></trkpt><trkpt lat="48.664772402162086" lon="-2.3269808082310166"><ele>56.2</ele><time>2026-04-05T14:39:14.999Z</time></trkpt><trkpt lat="48.66486680309613" lon="-2.3270458500362143"><ele>55.6</ele><time>2026-04-05T14:39:16.999Z</time></trkpt><trkpt lat="48.66493560093762" lon="-2.327095770314805"><ele>55.0</ele><time>2026-04-05T14:39:17.999Z</time></trkpt><trkpt lat="48.66501298139483" lon="-2.327157245272358"><ele>55.0</ele><time>2026-04-05T14:39:19.999Z</time></trkpt><trkpt lat="48.66510729325673" lon="-2.3272248513945875"><ele>55.0</ele><time>2026-04-05T14:39:21.999Z</time></trkpt><trkpt lat="48.66521067662903" lon="-2.3272917176994468"><ele>55.0</ele><time>2026-04-05T14:39:23.999Z</time></trkpt><trkpt lat="48.66531157599079" lon="-2.3273680164470774"><ele>55.0</ele><time>2026-04-05T14:39:25.999Z</time></trkpt><trkpt lat="48.66541087455629" lon="-2.3274474412763997"><ele>55.0</ele><time>2026-04-05T14:39:27.999Z</time></trkpt><trkpt lat="48.66551666054891" lon="-2.3275173223439167"><ele>54.0</ele><time>2026-04-05T14:39:29.999Z</time></trkpt><trkpt lat="48.6656162916773" lon="-2.327580769405717"><ele>53.0</ele><time>2026-04-05T14:39:31.999Z</time></trkpt><trkpt lat="48.665715897210575" lon="-2.327637215421097"><ele>52.0</ele><time>2026-04-05T14:39:33.999Z</time></trkpt><trkpt lat="48.66580542448854" lon="-2.3277018403335688"><ele>51.0</ele><time>2026-04-05T14:39:35.999Z</time></trkpt><trkpt lat="48.66589040855932" lon="-2.3277677330380238"><ele>50.0</ele><time>2026-04-05T14:39:37.999Z</time></trkpt><trkpt lat="48.66597126023218" lon="-2.3278247246194392"><ele>50.0</ele><time>2026-04-05T14:39:39.999Z</time></trkpt><trkpt lat="48.66604736414029" lon="-2.3278808516933753"><ele>50.0</ele><time>2026-04-05T14:39:41.999Z</time></trkpt><trkpt lat="48.666132291468564" lon="-2.3279527529197335"><ele>50.0</ele><time>2026-04-05T14:39:43.999Z</time></trkpt><trkpt lat="48.66622678371467" lon="-2.3280222796523766"><ele>50.0</ele><time>2026-04-05T14:39:45.999Z</time></trkpt><trkpt lat="48.66632466727957" lon="-2.3280948817102205"><ele>50.0</ele><time>2026-04-05T14:39:47.999Z</time></trkpt><trkpt lat="48.666417351397094" lon="-2.328161496806813"><ele>49.6</ele><time>2026-04-05T14:39:49.999Z</time></trkpt><trkpt lat="48.66650618747077" lon="-2.328225862068512"><ele>49.2</ele><time>2026-04-05T14:39:51.999Z</time></trkpt><trkpt lat="48.6666013454794" lon="-2.328297880155506"><ele>48.8</ele><time>2026-04-05T14:39:53.999Z</time></trkpt><trkpt lat="48.666699027992806" lon="-2.328363359563912"><ele>48.4</ele><time>2026-04-05T14:39:55.999Z</time></trkpt><trkpt lat="48.66679712332947" lon="-2.328433683774093"><ele>48.0</ele><time>2026-04-05T14:39:57.999Z</time></trkpt><trkpt lat="48.66689632855437" lon="-2.328510226057281"><ele>48.0</ele><time>2026-04-05T14:39:59.999Z</time></trkpt><trkpt lat="48.66699684182574" lon="-2.328581467620958"><ele>48.0</ele><time>2026-04-05T14:40:01.999Z</time></trkpt><trkpt lat="48.66709813665207" lon="-2.3286479991630418"><ele>48.0</ele><time>2026-04-05T14:40:03.999Z</time></trkpt><trkpt lat="48.66719678891412" lon="-2.328717056307589"><ele>48.0</ele><time>2026-04-05T14:40:05.999Z</time></trkpt><trkpt lat="48.66729488312532" lon="-2.32878889985798"><ele>48.0</ele><time>2026-04-05T14:40:08Z</time></trkpt><trkpt lat="48.667395354902055" lon="-2.328863159155434"><ele>47.8</ele><time>2026-04-05T14:40:10Z</time></trkpt><trkpt lat="48.66749358884135" lon="-2.3289382126689477"><ele>47.599999999999994</ele><time>2026-04-05T14:40:12Z</time></trkpt><trkpt lat="48.66758711406432" lon="-2.3290126047181965"><ele>47.400000000000006</ele><time>2026-04-05T14:40:14Z</time></trkpt><trkpt lat="48.66767369243499" lon="-2.329081171920924"><ele>47.2</ele><time>2026-04-05T14:40:16Z</time></trkpt><trkpt lat="48.66774109353226" lon="-2.329136409756735"><ele>47.0</ele><time>2026-04-05T14:40:18Z</time></trkpt><trkpt lat="48.66782054401015" lon="-2.329199955137252"><ele>47.0</ele><time>2026-04-05T14:40:21Z</time></trkpt><trkpt lat="48.66789209061584" lon="-2.3292520523676212"><ele>47.0</ele><time>2026-04-05T14:40:23Z</time></trkpt><trkpt lat="48.667970758588815" lon="-2.3293249155873617"><ele>47.0</ele><time>2026-04-05T14:40:25Z</time></trkpt><trkpt lat="48.66805328338496" lon="-2.329392658167623"><ele>47.0</ele><time>2026-04-05T14:40:27Z</time></trkpt><trkpt lat="48.6681382213805" lon="-2.329452382566913"><ele>47.0</ele><time>2026-04-05T14:40:29Z</time></trkpt><trkpt lat="48.6682255683622" lon="-2.3295089345169804"><ele>47.0</ele><time>2026-04-05T14:40:31Z</time></trkpt><trkpt lat="48.668306386250755" lon="-2.329557340823469"><ele>47.0</ele><time>2026-04-05T14:40:33Z</time></trkpt><trkpt lat="48.66838708862674" lon="-2.3296041951025916"><ele>47.0</ele><time>2026-04-05T14:40:35Z</time></trkpt><trkpt lat="48.668467676011126" lon="-2.329651452655472"><ele>47.0</ele><time>2026-04-05T14:40:37Z</time></trkpt><trkpt lat="48.66854286435172" lon="-2.329704685038824"><ele>47.0</ele><time>2026-04-05T14:40:39Z</time></trkpt><trkpt lat="48.66861316623586" lon="-2.329758564410833"><ele>47.0</ele><time>2026-04-05T14:40:41Z</time></trkpt><trkpt lat="48.6686937463811" lon="-2.329815679564119"><ele>47.42857142857143</ele><time>2026-04-05T14:40:44Z</time></trkpt><trkpt lat="48.668758282583525" lon="-2.3298671155149258"><ele>47.857142857142854</ele><time>2026-04-05T14:40:46Z</time></trkpt><trkpt lat="48.66882554883481" lon="-2.329908201795021"><ele>48.28571428571429</ele><time>2026-04-05T14:40:48Z</time></trkpt><trkpt lat="48.668910307032355" lon="-2.329987289520524"><ele>48.714285714285715</ele><time>2026-04-05T14:40:51Z</time></trkpt><trkpt lat="48.66896879412387" lon="-2.3300345409675547"><ele>49.142857142857146</ele><time>2026-04-05T14:40:53Z</time></trkpt><trkpt lat="48.669029722732404" lon="-2.330079586077828"><ele>49.57142857142858</ele><time>2026-04-05T14:40:55Z</time></trkpt><trkpt lat="48.669087348954456" lon="-2.3301191304881788"><ele>50.0</ele><time>2026-04-05T14:40:57Z</time></trkpt><trkpt lat="48.66914824585012" lon="-2.330160010741368"><ele>50.0</ele><time>2026-04-05T14:40:59Z</time></trkpt><trkpt lat="48.669210459516634" lon="-2.3302085780123636"><ele>50.0</ele><time>2026-04-05T14:41:01Z</time></trkpt><trkpt lat="48.66935817311328" lon="-2.3302647881180563"><ele>50.0</ele><time>2026-04-05T14:41:02Z</time></trkpt><trkpt lat="48.66942864326737" lon="-2.33032276574239"><ele>50.0</ele><time>2026-04-05T14:41:04Z</time></trkpt><trkpt lat="48.669499660742694" lon="-2.3303750173835747"><ele>50.0</ele><time>2026-04-05T14:41:06Z</time></trkpt><trkpt lat="48.66956879430903" lon="-2.3304366050991066"><ele>50.00000000000001</ele><time>2026-04-05T14:41:08Z</time></trkpt><trkpt lat="48.66963690440064" lon="-2.3305029098912557"><ele>50.0</ele><time>2026-04-05T14:41:10Z</time></trkpt><trkpt lat="48.66969537979028" lon="-2.330583303586035"><ele>50.0</ele><time>2026-04-05T14:41:12Z</time></trkpt><trkpt lat="48.669745842845785" lon="-2.3306682489709387"><ele>50.0</ele><time>2026-04-05T14:41:14Z</time></trkpt><trkpt lat="48.669799554858045" lon="-2.330780125804863"><ele>50.00000000000001</ele><time>2026-04-05T14:41:17Z</time></trkpt><trkpt lat="48.669840190957956" lon="-2.330881213712583"><ele>50.0</ele><time>2026-04-05T14:41:20Z</time></trkpt><trkpt lat="48.669834084891306" lon="-2.330979876189293"><ele>50.00000000000001</ele><time>2026-04-05T14:41:23.999Z</time></trkpt><trkpt lat="48.6698977665977" lon="-2.3310530677260934"><ele>50.0</ele><time>2026-04-05T14:41:26.999Z</time></trkpt><trkpt lat="48.669903151078785" lon="-2.331183992971322"><ele>50.0</ele><time>2026-04-05T14:41:29.999Z</time></trkpt><trkpt lat="48.669857928150044" lon="-2.3312659515886636"><ele>50.0</ele><time>2026-04-05T14:41:31.999Z</time></trkpt><trkpt lat="48.66982980166463" lon="-2.3313620560228228"><ele>50.00000000000001</ele><time>2026-04-05T14:41:33.999Z</time></trkpt><trkpt lat="48.66980977354517" lon="-2.331462360936659"><ele>50.0</ele><time>2026-04-05T14:41:35.999Z</time></trkpt><trkpt lat="48.669785908944796" lon="-2.3315690309133266"><ele>48.833333333333336</ele><time>2026-04-05T14:41:37.999Z</time></trkpt><trkpt lat="48.66976099327878" lon="-2.3316810779055346"><ele>47.66666666666667</ele><time>2026-04-05T14:41:39.999Z</time></trkpt><trkpt lat="48.669740516935484" lon="-2.3317962982771547"><ele>46.5</ele><time>2026-04-05T14:41:41.999Z</time></trkpt><trkpt lat="48.66971957687557" lon="-2.3319219383416074"><ele>45.333333333333336</ele><time>2026-04-05T14:41:43.999Z</time></trkpt><trkpt lat="48.66969974649983" lon="-2.3320497001111935"><ele>44.16666666666667</ele><time>2026-04-05T14:41:45.999Z</time></trkpt><trkpt lat="48.66968930481494" lon="-2.332182572476949"><ele>43.0</ele><time>2026-04-05T14:41:47.999Z</time></trkpt><trkpt lat="48.669680709233425" lon="-2.332326108364409"><ele>41.199999999999996</ele><time>2026-04-05T14:41:49.999Z</time></trkpt><trkpt lat="48.669675386848006" lon="-2.3324762212602983"><ele>39.4</ele><time>2026-04-05T14:41:51.999Z</time></trkpt><trkpt lat="48.669674073251024" lon="-2.3326302192026334"><ele>37.599999999999994</ele><time>2026-04-05T14:41:53.999Z</time></trkpt><trkpt lat="48.66968030237656" lon="-2.3327903280496427"><ele>35.8</ele><time>2026-04-05T14:41:55.999Z</time></trkpt><trkpt lat="48.66969053674607" lon="-2.3329495488351335"><ele>34.0</ele><time>2026-04-05T14:41:57.999Z</time></trkpt><trkpt lat="48.669699717200274" lon="-2.3331042194387965"><ele>34.0</ele><time>2026-04-05T14:41:59.999Z</time></trkpt><trkpt lat="48.66970708397957" lon="-2.333259216146407"><ele>34.0</ele><time>2026-04-05T14:42:01.999Z</time></trkpt><trkpt lat="48.669714877774034" lon="-2.3334123284990036"><ele>34.0</ele><time>2026-04-05T14:42:03.999Z</time></trkpt><trkpt lat="48.66972523954704" lon="-2.3335628384903835"><ele>34.0</ele><time>2026-04-05T14:42:05.999Z</time></trkpt><trkpt lat="48.669734349276126" lon="-2.333710691108784"><ele>34.0</ele><time>2026-04-05T14:42:07.999Z</time></trkpt><trkpt lat="48.66973659314453" lon="-2.333825566752562"><ele>33.333333333333336</ele><time>2026-04-05T14:42:09.999Z</time></trkpt><trkpt lat="48.6697330346048" lon="-2.333947549414049"><ele>32.66666666666667</ele><time>2026-04-05T14:43:49.999Z</time></trkpt><trkpt lat="48.66971575667796" lon="-2.334080106545404"><ele>32.0</ele><time>2026-04-05T14:43:53.999Z</time></trkpt><trkpt lat="48.669699166778564" lon="-2.3341896963132323"><ele>31.333333333333336</ele><time>2026-04-05T14:43:55.999Z</time></trkpt><trkpt lat="48.66967239245403" lon="-2.3343107475207305"><ele>30.666666666666668</ele><time>2026-04-05T14:43:57.999Z</time></trkpt><trkpt lat="48.66962592822793" lon="-2.3344335316598155"><ele>30.0</ele><time>2026-04-05T14:43:59.999Z</time></trkpt><trkpt lat="48.66957842086528" lon="-2.3345466763713736"><ele>30.0</ele><time>2026-04-05T14:44:01.999Z</time></trkpt><trkpt lat="48.6695312375439" lon="-2.3346533655344763"><ele>30.0</ele><time>2026-04-05T14:44:03.999Z</time></trkpt><trkpt lat="48.669475180635075" lon="-2.334743931696244"><ele>30.0</ele><time>2026-04-05T14:44:05.999Z</time></trkpt><trkpt lat="48.669405625574896" lon="-2.334833786667553"><ele>30.0</ele><time>2026-04-05T14:44:07.999Z</time></trkpt><trkpt lat="48.669323166410194" lon="-2.3349181024730927"><ele>30.0</ele><time>2026-04-05T14:44:09.999Z</time></trkpt><trkpt lat="48.66923418176246" lon="-2.334993592747476"><ele>32.0</ele><time>2026-04-05T14:44:11.999Z</time></trkpt><trkpt lat="48.66914628863711" lon="-2.3350664791464837"><ele>34.0</ele><time>2026-04-05T14:44:13.999Z</time></trkpt><trkpt lat="48.66905419820261" lon="-2.335141287959258"><ele>36.0</ele><time>2026-04-05T14:44:15.999Z</time></trkpt><trkpt lat="48.66896904956673" lon="-2.335222545589511"><ele>38.0</ele><time>2026-04-05T14:44:17.999Z</time></trkpt><trkpt lat="48.66887124066302" lon="-2.3353019918128832"><ele>40.0</ele><time>2026-04-05T14:44:20Z</time></trkpt><trkpt lat="48.668776353912236" lon="-2.335383134206139"><ele>40.0</ele><time>2026-04-05T14:44:22Z</time></trkpt><trkpt lat="48.668685594598266" lon="-2.3354645780141885"><ele>40.0</ele><time>2026-04-05T14:44:24Z</time></trkpt><trkpt lat="48.668597417365724" lon="-2.335545364432031"><ele>40.0</ele><time>2026-04-05T14:44:26Z</time></trkpt><trkpt lat="48.6685050678718" lon="-2.3356253941624785"><ele>40.0</ele><time>2026-04-05T14:44:28Z</time></trkpt><trkpt lat="48.66841657170523" lon="-2.335706095231456"><ele>40.0</ele><time>2026-04-05T14:44:30Z</time></trkpt><trkpt lat="48.668352480705785" lon="-2.33575826762357"><ele>39.8</ele><time>2026-04-05T14:44:32Z</time></trkpt><trkpt lat="48.66827416381354" lon="-2.335842796906807"><ele>39.6</ele><time>2026-04-05T14:44:35Z</time></trkpt><trkpt lat="48.6682001516833" lon="-2.3359292353787193"><ele>39.4</ele><time>2026-04-05T14:44:37Z</time></trkpt><trkpt lat="48.668117305430975" lon="-2.3360223468861485"><ele>39.2</ele><time>2026-04-05T14:44:39Z</time></trkpt><trkpt lat="48.66804332649134" lon="-2.3361355274151663"><ele>39.0</ele><time>2026-04-05T14:44:41Z</time></trkpt><trkpt lat="48.667957994640695" lon="-2.3362475108893137"><ele>39.0</ele><time>2026-04-05T14:44:43Z</time></trkpt><trkpt lat="48.667868448628475" lon="-2.3363675534880812"><ele>39.0</ele><time>2026-04-05T14:44:45Z</time></trkpt><trkpt lat="48.66778778123018" lon="-2.3364926980902787"><ele>39.0</ele><time>2026-04-05T14:44:47Z</time></trkpt><trkpt lat="48.6677046775476" lon="-2.336621253219383"><ele>39.0</ele><time>2026-04-05T14:44:49Z</time></trkpt><trkpt lat="48.66762166560859" lon="-2.3367663887253762"><ele>38.5</ele><time>2026-04-05T14:44:51Z</time></trkpt><trkpt lat="48.66754703263954" lon="-2.3369173414586752"><ele>38.0</ele><time>2026-04-05T14:44:53Z</time></trkpt><trkpt lat="48.66747535043783" lon="-2.3370667025723924"><ele>37.5</ele><time>2026-04-05T14:44:55Z</time></trkpt><trkpt lat="48.66740453546733" lon="-2.337216333571754"><ele>37.0</ele><time>2026-04-05T14:44:57Z</time></trkpt><trkpt lat="48.6673471719876" lon="-2.3373545862128915"><ele>36.16666666666667</ele><time>2026-04-05T14:44:59Z</time></trkpt><trkpt lat="48.667301690933485" lon="-2.337465433412159"><ele>35.333333333333336</ele><time>2026-04-05T14:45:01Z</time></trkpt><trkpt lat="48.66726665202169" lon="-2.33756442220136"><ele>34.5</ele><time>2026-04-05T14:45:03Z</time></trkpt><trkpt lat="48.66722665695537" lon="-2.337668081736277"><ele>33.666666666666664</ele><time>2026-04-05T14:45:07Z</time></trkpt><trkpt lat="48.66718726577404" lon="-2.337797408473901"><ele>32.83333333333333</ele><time>2026-04-05T14:45:10Z</time></trkpt><trkpt lat="48.667150377231756" lon="-2.3379309202719707"><ele>32.0</ele><time>2026-04-05T14:45:12Z</time></trkpt><trkpt lat="48.6671143666469" lon="-2.338074059645539"><ele>32.6</ele><time>2026-04-05T14:45:14Z</time></trkpt><trkpt lat="48.66707672289213" lon="-2.3382184494337714"><ele>33.2</ele><time>2026-04-05T14:45:16Z</time></trkpt><trkpt lat="48.6670354809154" lon="-2.3383638807926848"><ele>33.8</ele><time>2026-04-05T14:45:18Z</time></trkpt><trkpt lat="48.66699466096691" lon="-2.3385199569701127"><ele>34.4</ele><time>2026-04-05T14:45:20Z</time></trkpt><trkpt lat="48.666957889676155" lon="-2.3386746502858737"><ele>35.0</ele><time>2026-04-05T14:45:22Z</time></trkpt><trkpt lat="48.66692417294572" lon="-2.338826687820465"><ele>35.4</ele><time>2026-04-05T14:45:24Z</time></trkpt><trkpt lat="48.666893542113094" lon="-2.338980675369151"><ele>35.8</ele><time>2026-04-05T14:45:26Z</time></trkpt><trkpt lat="48.66686598700233" lon="-2.3391291554276545"><ele>36.2</ele><time>2026-04-05T14:45:28Z</time></trkpt><trkpt lat="48.66684362765405" lon="-2.3392803898316976"><ele>36.6</ele><time>2026-04-05T14:45:30Z</time></trkpt><trkpt lat="48.66682554909479" lon="-2.3394328870693255"><ele>37.0</ele><time>2026-04-05T14:45:31.999Z</time></trkpt><trkpt lat="48.66681243272917" lon="-2.3395808671012555"><ele>37.333333333333336</ele><time>2026-04-05T14:45:33.999Z</time></trkpt><trkpt lat="48.666800871135216" lon="-2.3397342958872462"><ele>37.66666666666667</ele><time>2026-04-05T14:45:35.999Z</time></trkpt><trkpt lat="48.66678867959457" lon="-2.3398790508245875"><ele>38.0</ele><time>2026-04-05T14:45:37.999Z</time></trkpt><trkpt lat="48.66678040073656" lon="-2.339988795790002"><ele>38.333333333333336</ele><time>2026-04-05T14:45:39.999Z</time></trkpt><trkpt lat="48.666771220776546" lon="-2.340134787009164"><ele>38.666666666666664</ele><time>2026-04-05T14:45:41.999Z</time></trkpt><trkpt lat="48.666762265735514" lon="-2.340243951894382"><ele>39.0</ele><time>2026-04-05T14:45:42.999Z</time></trkpt><trkpt lat="48.66675187594278" lon="-2.3403976597412606"><ele>39.0</ele><time>2026-04-05T14:45:44.999Z</time></trkpt><trkpt lat="48.66675694429466" lon="-2.340554778954613"><ele>39.0</ele><time>2026-04-05T14:45:46.999Z</time></trkpt><trkpt lat="48.66674865468087" lon="-2.3407167993029945"><ele>39.0</ele><time>2026-04-05T14:45:48.999Z</time></trkpt><trkpt lat="48.66673315132116" lon="-2.340877573120341"><ele>39.0</ele><time>2026-04-05T14:45:50.999Z</time></trkpt><trkpt lat="48.666704179750816" lon="-2.3410396957045405"><ele>39.0</ele><time>2026-04-05T14:45:52.999Z</time></trkpt><trkpt lat="48.6666647784717" lon="-2.3412048926410907"><ele>39.0</ele><time>2026-04-05T14:45:54.999Z</time></trkpt><trkpt lat="48.666608210701966" lon="-2.3413551325852366"><ele>39.0</ele><time>2026-04-05T14:45:56.999Z</time></trkpt><trkpt lat="48.66654045944085" lon="-2.3415014912784664"><ele>39.0</ele><time>2026-04-05T14:45:58.999Z</time></trkpt><trkpt lat="48.66646174882563" lon="-2.341626333875675"><ele>39.0</ele><time>2026-04-05T14:46:00.999Z</time></trkpt><trkpt lat="48.66639113230234" lon="-2.3417312349330746"><ele>39.0</ele><time>2026-04-05T14:46:02.999Z</time></trkpt><trkpt lat="48.666311244671554" lon="-2.341805626147294"><ele>38.8</ele><time>2026-04-05T14:46:04.999Z</time></trkpt><trkpt lat="48.66623825769889" lon="-2.3418600877817783"><ele>38.599999999999994</ele><time>2026-04-05T14:46:05.999Z</time></trkpt><trkpt lat="48.66615844789344" lon="-2.341922619233047"><ele>38.4</ele><time>2026-04-05T14:46:07.999Z</time></trkpt><trkpt lat="48.66608278280449" lon="-2.3419754569936186"><ele>38.199999999999996</ele><time>2026-04-05T14:46:09.999Z</time></trkpt><trkpt lat="48.66598892525355" lon="-2.3420403963552014"><ele>38.0</ele><time>2026-04-05T14:46:11.999Z</time></trkpt><trkpt lat="48.665886876296284" lon="-2.342112751008251"><ele>38.0</ele><time>2026-04-05T14:46:13.999Z</time></trkpt><trkpt lat="48.665778920862344" lon="-2.3421910862285777"><ele>38.0</ele><time>2026-04-05T14:46:15.999Z</time></trkpt><trkpt lat="48.665720000627715" lon="-2.3422340575000753"><ele>38.0</ele><time>2026-04-05T14:46:16.999Z</time></trkpt><trkpt lat="48.66566146321247" lon="-2.3422747433464495"><ele>38.0</ele><time>2026-04-05T14:46:17.999Z</time></trkpt><trkpt lat="48.66560220786364" lon="-2.3423124502926993"><ele>38.0</ele><time>2026-04-05T14:46:18.999Z</time></trkpt><trkpt lat="48.66554198668065" lon="-2.3423471445522965"><ele>38.0</ele><time>2026-04-05T14:46:19.999Z</time></trkpt><trkpt lat="48.66548233957391" lon="-2.3423847940522045"><ele>38.0</ele><time>2026-04-05T14:46:20.999Z</time></trkpt><trkpt lat="48.66536861032837" lon="-2.3424550489494242"><ele>37.6</ele><time>2026-04-05T14:46:22.999Z</time></trkpt><trkpt lat="48.665263018955564" lon="-2.342528424570864"><ele>37.199999999999996</ele><time>2026-04-05T14:46:24.999Z</time></trkpt><trkpt lat="48.665165653067156" lon="-2.3425938376659254"><ele>36.8</ele><time>2026-04-05T14:46:27Z</time></trkpt><trkpt lat="48.665068520732696" lon="-2.342649132647285"><ele>36.4</ele><time>2026-04-05T14:46:29Z</time></trkpt><trkpt lat="48.6649649262098" lon="-2.3427029430052553"><ele>36.0</ele><time>2026-04-05T14:46:31Z</time></trkpt><trkpt lat="48.664859009393666" lon="-2.342750536756604"><ele>36.0</ele><time>2026-04-05T14:46:33Z</time></trkpt><trkpt lat="48.66474882472906" lon="-2.342787113839699"><ele>36.0</ele><time>2026-04-05T14:46:35Z</time></trkpt><trkpt lat="48.66464039597332" lon="-2.342814687063711"><ele>36.0</ele><time>2026-04-05T14:46:37Z</time></trkpt><trkpt lat="48.66452606510411" lon="-2.3428290503756517"><ele>36.0</ele><time>2026-04-05T14:46:39Z</time></trkpt><trkpt lat="48.66441389519881" lon="-2.342836891548527"><ele>36.5</ele><time>2026-04-05T14:46:41Z</time></trkpt><trkpt lat="48.66430006749891" lon="-2.3428510029394163"><ele>37.0</ele><time>2026-04-05T14:46:43Z</time></trkpt><trkpt lat="48.66418722050678" lon="-2.3428659030352073"><ele>37.5</ele><time>2026-04-05T14:46:45Z</time></trkpt><trkpt lat="48.66407216807339" lon="-2.3428678840441277"><ele>38.0</ele><time>2026-04-05T14:46:47Z</time></trkpt><trkpt lat="48.66395667274648" lon="-2.3428813087363887"><ele>38.0</ele><time>2026-04-05T14:46:49Z</time></trkpt><trkpt lat="48.663843494049395" lon="-2.3429052856997252"><ele>38.0</ele><time>2026-04-05T14:46:51Z</time></trkpt><trkpt lat="48.66372964242572" lon="-2.3429275922782065"><ele>38.0</ele><time>2026-04-05T14:46:53Z</time></trkpt><trkpt lat="48.66361791636261" lon="-2.3429655682097246"><ele>38.0</ele><time>2026-04-05T14:46:55Z</time></trkpt><trkpt lat="48.66351357413825" lon="-2.343020483818567"><ele>37.6</ele><time>2026-04-05T14:46:57Z</time></trkpt><trkpt lat="48.66341085028409" lon="-2.3430888662418163"><ele>37.199999999999996</ele><time>2026-04-05T14:46:59Z</time></trkpt><trkpt lat="48.663324975599586" lon="-2.3431682033788848"><ele>36.8</ele><time>2026-04-05T14:47:01Z</time></trkpt><trkpt lat="48.66323969125761" lon="-2.3432728062429113"><ele>36.4</ele><time>2026-04-05T14:47:03Z</time></trkpt><trkpt lat="48.66317214999175" lon="-2.343403333453463"><ele>36.0</ele><time>2026-04-05T14:47:05Z</time></trkpt><trkpt lat="48.66311123738919" lon="-2.3435461091315344"><ele>36.0</ele><time>2026-04-05T14:47:07Z</time></trkpt><trkpt lat="48.66305989947369" lon="-2.343691060632128"><ele>36.0</ele><time>2026-04-05T14:47:09Z</time></trkpt><trkpt lat="48.663026282427055" lon="-2.3438394876414623"><ele>36.0</ele><time>2026-04-05T14:47:11Z</time></trkpt><trkpt lat="48.66300417907829" lon="-2.3439881832115974"><ele>36.0</ele><time>2026-04-05T14:47:13Z</time></trkpt><trkpt lat="48.66298950361174" lon="-2.3441389986891634"><ele>36.0</ele><time>2026-04-05T14:47:15Z</time></trkpt><trkpt lat="48.66299321957111" lon="-2.3442975802940476"><ele>35.0</ele><time>2026-04-05T14:47:17Z</time></trkpt><trkpt lat="48.66300328896065" lon="-2.3444260215220303"><ele>34.0</ele><time>2026-04-05T14:47:20Z</time></trkpt><trkpt lat="48.66306033009427" lon="-2.344557939266121"><ele>33.0</ele><time>2026-04-05T14:47:21Z</time></trkpt><trkpt lat="48.663082035895656" lon="-2.344701080171859"><ele>32.0</ele><time>2026-04-05T14:47:23Z</time></trkpt><trkpt lat="48.663098182028484" lon="-2.344848935952798"><ele>31.0</ele><time>2026-04-05T14:47:25Z</time></trkpt><trkpt lat="48.66312505833813" lon="-2.3449944631396114"><ele>30.6</ele><time>2026-04-05T14:47:27Z</time></trkpt><trkpt lat="48.6631551734647" lon="-2.3451326190241146"><ele>30.200000000000003</ele><time>2026-04-05T14:47:29Z</time></trkpt><trkpt lat="48.663181986010166" lon="-2.3452982192683067"><ele>29.799999999999997</ele><time>2026-04-05T14:47:31Z</time></trkpt><trkpt lat="48.6632099282332" lon="-2.3454518947736656"><ele>29.4</ele><time>2026-04-05T14:47:33Z</time></trkpt><trkpt lat="48.66322844523261" lon="-2.345575392494874"><ele>29.0</ele><time>2026-04-05T14:47:35Z</time></trkpt><trkpt lat="48.663258193082875" lon="-2.345693852455406"><ele>28.6</ele><time>2026-04-05T14:47:37Z</time></trkpt><trkpt lat="48.66329265218274" lon="-2.345830839902229"><ele>28.2</ele><time>2026-04-05T14:47:38.999Z</time></trkpt><trkpt lat="48.66329967603187" lon="-2.3460032234457513"><ele>27.800000000000004</ele><time>2026-04-05T14:47:40.999Z</time></trkpt><trkpt lat="48.66332263338271" lon="-2.346181945190771"><ele>27.400000000000002</ele><time>2026-04-05T14:47:42.999Z</time></trkpt><trkpt lat="48.66334564622954" lon="-2.3463336603999965"><ele>27.0</ele><time>2026-04-05T14:47:44.999Z</time></trkpt><trkpt lat="48.66335415027758" lon="-2.3464340140715816"><ele>26.833333333333332</ele><time>2026-04-05T14:47:46.999Z</time></trkpt><trkpt lat="48.663362850362184" lon="-2.3465371861297935"><ele>26.666666666666664</ele><time>2026-04-05T14:47:48.999Z</time></trkpt><trkpt lat="48.66336578696976" lon="-2.3466656665881422"><ele>26.5</ele><time>2026-04-05T14:47:50.999Z</time></trkpt><trkpt lat="48.66335850155638" lon="-2.346811842859334"><ele>26.333333333333332</ele><time>2026-04-05T14:47:52.999Z</time></trkpt><trkpt lat="48.6633399035945" lon="-2.346959694215308"><ele>26.166666666666664</ele><time>2026-04-05T14:47:54.999Z</time></trkpt><trkpt lat="48.663317262736726" lon="-2.3470806496175096"><ele>26.0</ele><time>2026-04-05T14:47:56.999Z</time></trkpt><trkpt lat="48.66328897569958" lon="-2.34718908712641"><ele>25.166666666666664</ele><time>2026-04-05T14:47:58.999Z</time></trkpt><trkpt lat="48.663264310185205" lon="-2.347302892000293"><ele>24.333333333333332</ele><time>2026-04-05T14:48:00.999Z</time></trkpt><trkpt lat="48.663231438714156" lon="-2.3474265805785333"><ele>23.5</ele><time>2026-04-05T14:48:03.999Z</time></trkpt><trkpt lat="48.663222802974154" lon="-2.3475282567730695"><ele>22.666666666666664</ele><time>2026-04-05T14:49:04Z</time></trkpt><trkpt lat="48.66318578639701" lon="-2.347613721817387"><ele>21.833333333333332</ele><time>2026-04-05T14:49:07Z</time></trkpt><trkpt lat="48.66314084272586" lon="-2.347691082690104"><ele>21.0</ele><time>2026-04-05T14:49:09Z</time></trkpt><trkpt lat="48.663094043249615" lon="-2.3477899504500597"><ele>21.0</ele><time>2026-04-05T14:49:11Z</time></trkpt><trkpt lat="48.66302522974436" lon="-2.3478789939974947"><ele>21.0</ele><time>2026-04-05T14:49:13Z</time></trkpt><trkpt lat="48.66295311447673" lon="-2.3479773462753273"><ele>21.0</ele><time>2026-04-05T14:49:15Z</time></trkpt><trkpt lat="48.66287018192764" lon="-2.348057269944719"><ele>21.0</ele><time>2026-04-05T14:49:17Z</time></trkpt><trkpt lat="48.662791832356156" lon="-2.348133863302909"><ele>21.0</ele><time>2026-04-05T14:49:19Z</time></trkpt><trkpt lat="48.66272503769231" lon="-2.3481965757074525"><ele>20.0</ele><time>2026-04-05T14:49:21Z</time></trkpt><trkpt lat="48.66264124280056" lon="-2.3482361935647944"><ele>19.0</ele><time>2026-04-05T14:49:23Z</time></trkpt><trkpt lat="48.66257145768087" lon="-2.348266655990608"><ele>18.0</ele><time>2026-04-05T14:49:25Z</time></trkpt><trkpt lat="48.66250935063606" lon="-2.3482862661477695"><ele>17.0</ele><time>2026-04-05T14:49:27Z</time></trkpt><trkpt lat="48.66244040806647" lon="-2.3483276348110254"><ele>16.0</ele><time>2026-04-05T14:49:29Z</time></trkpt><trkpt lat="48.66236159086295" lon="-2.34833893191698"><ele>15.0</ele><time>2026-04-05T14:49:31Z</time></trkpt><trkpt lat="48.66229022546251" lon="-2.3483440035247933"><ele>14.0</ele><time>2026-04-05T14:49:33Z</time></trkpt><trkpt lat="48.66221525743466" lon="-2.3483456465152863"><ele>14.000000000000002</ele><time>2026-04-05T14:49:35Z</time></trkpt><trkpt lat="48.66214303871909" lon="-2.3483434189209405"><ele>14.0</ele><time>2026-04-05T14:49:36.999Z</time></trkpt><trkpt lat="48.66207372420596" lon="-2.3483406169032457"><ele>14.0</ele><time>2026-04-05T14:49:38.999Z</time></trkpt><trkpt lat="48.6620093459746" lon="-2.348288383131878"><ele>14.0</ele><time>2026-04-05T14:49:41.999Z</time></trkpt><trkpt lat="48.66191711673122" lon="-2.3482476144766995"><ele>14.000000000000002</ele><time>2026-04-05T14:49:44.999Z</time></trkpt><trkpt lat="48.66184595706744" lon="-2.348224710880135"><ele>14.0</ele><time>2026-04-05T14:49:46.999Z</time></trkpt><trkpt lat="48.6617614713974" lon="-2.348219492533469"><ele>13.799999999999999</ele><time>2026-04-05T14:49:49.999Z</time></trkpt><trkpt lat="48.66167936655025" lon="-2.348172871994745"><ele>13.599999999999998</ele><time>2026-04-05T14:49:51.999Z</time></trkpt><trkpt lat="48.66159526369604" lon="-2.348130316812069"><ele>13.4</ele><time>2026-04-05T14:49:53.999Z</time></trkpt><trkpt lat="48.66150949379396" lon="-2.3480846017855077"><ele>13.2</ele><time>2026-04-05T14:49:55.999Z</time></trkpt><trkpt lat="48.66141762885125" lon="-2.348036764780742"><ele>13.0</ele><time>2026-04-05T14:49:57.999Z</time></trkpt><trkpt lat="48.66132695050387" lon="-2.3479894914332076"><ele>12.999999999999998</ele><time>2026-04-05T14:49:59.999Z</time></trkpt><trkpt lat="48.66123676046436" lon="-2.347937491591589"><ele>13.0</ele><time>2026-04-05T14:50:01.999Z</time></trkpt><trkpt lat="48.66115331226588" lon="-2.3479016597494304"><ele>13.0</ele><time>2026-04-05T14:50:03.999Z</time></trkpt><trkpt lat="48.66107868358042" lon="-2.3479265049308133"><ele>13.0</ele><time>2026-04-05T14:50:05.999Z</time></trkpt><trkpt lat="48.66105834684488" lon="-2.348054999820961"><ele>12.999999999999998</ele><time>2026-04-05T14:50:07.999Z</time></trkpt><trkpt lat="48.66104933114692" lon="-2.3481919448483346"><ele>13.0</ele><time>2026-04-05T14:50:09.999Z</time></trkpt><trkpt lat="48.660997825914286" lon="-2.3483095757906445"><ele>12.999999999999998</ele><time>2026-04-05T14:50:11.999Z</time></trkpt><trkpt lat="48.66090563697166" lon="-2.3483787308876125"><ele>13.0</ele><time>2026-04-05T14:50:13.999Z</time></trkpt><trkpt lat="48.660827251533256" lon="-2.348432884687366"><ele>13.0</ele><time>2026-04-05T14:50:15.999Z</time></trkpt><trkpt lat="48.660757406211204" lon="-2.3484731506372016"><ele>13.0</ele><time>2026-04-05T14:50:17.999Z</time></trkpt><trkpt lat="48.660698928122926" lon="-2.3485287632535883"><ele>12.999999999999998</ele><time>2026-04-05T14:50:19.999Z</time></trkpt><trkpt lat="48.660632226583004" lon="-2.348571958437167"><ele>13.0</ele><time>2026-04-05T14:50:21.999Z</time></trkpt><trkpt lat="48.660554948788025" lon="-2.348632528862181"><ele>12.999999999999998</ele><time>2026-04-05T14:50:24.999Z</time></trkpt><trkpt lat="48.66043539761375" lon="-2.3487575677488928"><ele>13.0</ele><time>2026-04-05T14:50:27.999Z</time></trkpt><trkpt lat="48.6603674131786" lon="-2.3488331930803175"><ele>13.0</ele><time>2026-04-05T14:50:29.999Z</time></trkpt><trkpt lat="48.660299188356746" lon="-2.348864521391057"><ele>13.0</ele><time>2026-04-05T14:50:31.999Z</time></trkpt><trkpt lat="48.660243085292265" lon="-2.348778151123632"><ele>12.999999999999998</ele><time>2026-04-05T14:50:33.999Z</time></trkpt><trkpt lat="48.66022824915329" lon="-2.3486792094987936"><ele>13.0</ele><time>2026-04-05T14:50:35.999Z</time></trkpt><trkpt lat="48.66017190997375" lon="-2.3485728362108986"><ele>14.166666666666666</ele><time>2026-04-05T14:50:39Z</time></trkpt><trkpt lat="48.6600991747145" lon="-2.3486019940417355"><ele>15.333333333333332</ele><time>2026-04-05T14:50:41Z</time></trkpt><trkpt lat="48.66004441996698" lon="-2.3486888696031616"><ele>16.5</ele><time>2026-04-05T14:50:43Z</time></trkpt><trkpt lat="48.659991336292336" lon="-2.348757322246123"><ele>17.666666666666668</ele><time>2026-04-05T14:50:45Z</time></trkpt><trkpt lat="48.659931760209155" lon="-2.348833167787773"><ele>18.833333333333336</ele><time>2026-04-05T14:50:47Z</time></trkpt><trkpt lat="48.65986587876108" lon="-2.3489276712432035"><ele>20.0</ele><time>2026-04-05T14:50:51Z</time></trkpt><trkpt lat="48.65979531791022" lon="-2.349024572707908"><ele>20.2</ele><time>2026-04-05T14:50:54Z</time></trkpt><trkpt lat="48.659724274583226" lon="-2.349122158964894"><ele>20.4</ele><time>2026-04-05T14:50:57Z</time></trkpt><trkpt lat="48.659655351931036" lon="-2.349220263115055"><ele>20.6</ele><time>2026-04-05T14:51:00Z</time></trkpt><trkpt lat="48.65957538706418" lon="-2.349337562245288"><ele>20.8</ele><time>2026-04-05T14:51:03Z</time></trkpt><trkpt lat="48.65950299237132" lon="-2.3493627150859844"><ele>21.0</ele><time>2026-04-05T14:51:06Z</time></trkpt><trkpt lat="48.659419007686665" lon="-2.3494165997135625"><ele>21.4</ele><time>2026-04-05T14:51:08Z</time></trkpt><trkpt lat="48.65936323297714" lon="-2.3494908699925627"><ele>21.8</ele><time>2026-04-05T14:51:10Z</time></trkpt><trkpt lat="48.659297528425796" lon="-2.3495735175583436"><ele>22.2</ele><time>2026-04-05T14:51:12Z</time></trkpt><trkpt lat="48.65920158032154" lon="-2.3496778100330244"><ele>22.599999999999998</ele><time>2026-04-05T14:51:14Z</time></trkpt><trkpt lat="48.659121201566556" lon="-2.3497753696693655"><ele>23.0</ele><time>2026-04-05T14:51:16Z</time></trkpt><trkpt lat="48.659044823372206" lon="-2.349867356907591"><ele>23.0</ele><time>2026-04-05T14:51:18Z</time></trkpt><trkpt lat="48.65895548438004" lon="-2.3499585590780816"><ele>23.0</ele><time>2026-04-05T14:51:20Z</time></trkpt><trkpt lat="48.65886833775223" lon="-2.3500729590377576"><ele>23.0</ele><time>2026-04-05T14:51:22Z</time></trkpt><trkpt lat="48.65878067612083" lon="-2.3501798258606694"><ele>23.0</ele><time>2026-04-05T14:51:24Z</time></trkpt><trkpt lat="48.65869760889325" lon="-2.350272778550766"><ele>23.0</ele><time>2026-04-05T14:51:26Z</time></trkpt><trkpt lat="48.65861942558419" lon="-2.350364148562858"><ele>23.5</ele><time>2026-04-05T14:51:28Z</time></trkpt><trkpt lat="48.65855945061145" lon="-2.3504438206134375"><ele>24.0</ele><time>2026-04-05T14:51:30Z</time></trkpt><trkpt lat="48.65848535904287" lon="-2.3505043722811236"><ele>24.5</ele><time>2026-04-05T14:51:32Z</time></trkpt><trkpt lat="48.658408781091204" lon="-2.35056258141822"><ele>25.0</ele><time>2026-04-05T14:51:34Z</time></trkpt><trkpt lat="48.658337587931705" lon="-2.3505933155621688"><ele>25.499999999999996</ele><time>2026-04-05T14:51:36Z</time></trkpt><trkpt lat="48.65826018727144" lon="-2.350624508252931"><ele>26.0</ele><time>2026-04-05T14:51:38Z</time></trkpt><trkpt lat="48.65819150816987" lon="-2.350627212943616"><ele>25.999999999999996</ele><time>2026-04-05T14:51:40Z</time></trkpt><trkpt lat="48.65813661871548" lon="-2.3505521931664575"><ele>26.0</ele><time>2026-04-05T14:51:42Z</time></trkpt><trkpt lat="48.65808546541212" lon="-2.3504602846547504"><ele>26.0</ele><time>2026-04-05T14:51:44.999Z</time></trkpt><trkpt lat="48.65806827466958" lon="-2.350356864143751"><ele>26.0</ele><time>2026-04-05T14:51:46.999Z</time></trkpt><trkpt lat="48.65803798289672" lon="-2.3502332712648646"><ele>25.999999999999996</ele><time>2026-04-05T14:51:49.999Z</time></trkpt><trkpt lat="48.65799966382188" lon="-2.3500476975020774"><ele>26.0</ele><time>2026-04-05T14:51:51.999Z</time></trkpt><trkpt lat="48.65797096140096" lon="-2.3499107675248845"><ele>25.999999999999996</ele><time>2026-04-05T14:51:53.999Z</time></trkpt><trkpt lat="48.65791461255571" lon="-2.3498014241231315"><ele>26.0</ele><time>2026-04-05T14:51:55.999Z</time></trkpt><trkpt lat="48.657842305761065" lon="-2.349736665611288"><ele>26.0</ele><time>2026-04-05T14:51:57.999Z</time></trkpt><trkpt lat="48.657799308910064" lon="-2.349633359420916"><ele>26.0</ele><time>2026-04-05T14:51:59.999Z</time></trkpt><trkpt lat="48.65774183534932" lon="-2.349565332156302"><ele>25.999999999999996</ele><time>2026-04-05T14:52:01.999Z</time></trkpt><trkpt lat="48.65768744327709" lon="-2.3494730504183092"><ele>26.0</ele><time>2026-04-05T14:52:03.999Z</time></trkpt><trkpt lat="48.65763925125665" lon="-2.349391057185791"><ele>26.4</ele><time>2026-04-05T14:52:05.999Z</time></trkpt><trkpt lat="48.657570915296816" lon="-2.3493218377109915"><ele>26.8</ele><time>2026-04-05T14:52:07.999Z</time></trkpt><trkpt lat="48.65749559862877" lon="-2.349317428168013"><ele>27.199999999999996</ele><time>2026-04-05T14:52:09.999Z</time></trkpt><trkpt lat="48.657421928262906" lon="-2.349441372799751"><ele>27.599999999999998</ele><time>2026-04-05T14:52:11.999Z</time></trkpt><trkpt lat="48.65736539514187" lon="-2.3495831096344704"><ele>28.0</ele><time>2026-04-05T14:52:13.999Z</time></trkpt><trkpt lat="48.65729171235496" lon="-2.3496731016902053"><ele>28.0</ele><time>2026-04-05T14:52:15.999Z</time></trkpt><trkpt lat="48.65721626203675" lon="-2.349755580962464"><ele>27.999999999999996</ele><time>2026-04-05T14:52:17.999Z</time></trkpt><trkpt lat="48.65714304160943" lon="-2.3498420078385722"><ele>27.999999999999996</ele><time>2026-04-05T14:52:19.999Z</time></trkpt><trkpt lat="48.657067491281246" lon="-2.349917172762801"><ele>28.0</ele><time>2026-04-05T14:52:21.999Z</time></trkpt><trkpt lat="48.65699195549452" lon="-2.3499958114111466"><ele>28.0</ele><time>2026-04-05T14:52:23.999Z</time></trkpt><trkpt lat="48.656908534544556" lon="-2.3500721981101274"><ele>27.666666666666668</ele><time>2026-04-05T14:52:25.999Z</time></trkpt><trkpt lat="48.65681435860822" lon="-2.3501269670547136"><ele>27.333333333333336</ele><time>2026-04-05T14:52:27.999Z</time></trkpt><trkpt lat="48.6568023358085" lon="-2.3502280423006483"><ele>27.0</ele><time>2026-04-05T14:52:28.999Z</time></trkpt><trkpt lat="48.65672690014811" lon="-2.3503346060504926"><ele>26.666666666666664</ele><time>2026-04-05T14:52:30.999Z</time></trkpt><trkpt lat="48.656636493141846" lon="-2.3503651816117035"><ele>26.333333333333332</ele><time>2026-04-05T14:52:32.999Z</time></trkpt><trkpt lat="48.65657140443018" lon="-2.3503816598928506"><ele>26.0</ele><time>2026-04-05T14:52:34.999Z</time></trkpt><trkpt lat="48.65652088078928" lon="-2.350508468498652"><ele>25.833333333333332</ele><time>2026-04-05T14:53:13Z</time></trkpt><trkpt lat="48.65651025535764" lon="-2.3506059240496526"><ele>25.666666666666664</ele><time>2026-04-05T14:53:15Z</time></trkpt><trkpt lat="48.65650106031293" lon="-2.350716075320923"><ele>25.5</ele><time>2026-04-05T14:53:17Z</time></trkpt><trkpt lat="48.65649472961737" lon="-2.3508479493650096"><ele>25.333333333333336</ele><time>2026-04-05T14:53:19Z</time></trkpt><trkpt lat="48.656489394969476" lon="-2.3510021603063644"><ele>25.166666666666668</ele><time>2026-04-05T14:53:21Z</time></trkpt><trkpt lat="48.656486103611954" lon="-2.3511270049382547"><ele>25.0</ele><time>2026-04-05T14:53:23Z</time></trkpt><trkpt lat="48.65648604591925" lon="-2.35122923551902"><ele>25.000000000000004</ele><time>2026-04-05T14:53:25Z</time></trkpt><trkpt lat="48.65647567394737" lon="-2.351325009993567"><ele>25.0</ele><time>2026-04-05T14:53:27Z</time></trkpt><trkpt lat="48.65643650712003" lon="-2.3514198991874347"><ele>25.0</ele><time>2026-04-05T14:53:29Z</time></trkpt><trkpt lat="48.656346631631685" lon="-2.3514547651875484"><ele>25.0</ele><time>2026-04-05T14:53:31Z</time></trkpt><trkpt lat="48.65628121750362" lon="-2.351480334405611"><ele>25.0</ele><time>2026-04-05T14:53:33Z</time></trkpt><trkpt lat="48.65621652662869" lon="-2.3515095293985566"><ele>25.000000000000004</ele><time>2026-04-05T14:53:37Z</time></trkpt><trkpt lat="48.65613883294567" lon="-2.351545563436396"><ele>25.0</ele><time>2026-04-05T14:53:42Z</time></trkpt><trkpt lat="48.65605379253976" lon="-2.3515815960959148"><ele>24.8</ele><time>2026-04-05T14:53:45Z</time></trkpt><trkpt lat="48.65597498417172" lon="-2.3516138918321476"><ele>24.6</ele><time>2026-04-05T14:53:47Z</time></trkpt><trkpt lat="48.65588842142105" lon="-2.3516574033931184"><ele>24.4</ele><time>2026-04-05T14:53:49Z</time></trkpt><trkpt lat="48.655800548497126" lon="-2.3517020473205292"><ele>24.2</ele><time>2026-04-05T14:53:51Z</time></trkpt><trkpt lat="48.65570461312432" lon="-2.351712613765998"><ele>24.0</ele><time>2026-04-05T14:53:53Z</time></trkpt><trkpt lat="48.65561855043107" lon="-2.3517520283751847"><ele>24.0</ele><time>2026-04-05T14:53:55Z</time></trkpt><trkpt lat="48.65553499471819" lon="-2.351801412411989"><ele>24.0</ele><time>2026-04-05T14:53:57Z</time></trkpt><trkpt lat="48.6554582381097" lon="-2.351835140795601"><ele>24.0</ele><time>2026-04-05T14:53:59Z</time></trkpt><trkpt lat="48.65538575667729" lon="-2.3518793442793404"><ele>24.0</ele><time>2026-04-05T14:54:01Z</time></trkpt><trkpt lat="48.65532424185482" lon="-2.351924363437844"><ele>24.0</ele><time>2026-04-05T14:54:03Z</time></trkpt><trkpt lat="48.655259414363385" lon="-2.351955011359084"><ele>24.0</ele><time>2026-04-05T14:54:04.999Z</time></trkpt><trkpt lat="48.65519618608171" lon="-2.3519904146141126"><ele>24.2</ele><time>2026-04-05T14:54:06.999Z</time></trkpt><trkpt lat="48.65511252594672" lon="-2.3520414114631305"><ele>24.4</ele><time>2026-04-05T14:54:09.999Z</time></trkpt><trkpt lat="48.65501881615259" lon="-2.352147271358413"><ele>24.6</ele><time>2026-04-05T14:54:13.999Z</time></trkpt><trkpt lat="48.6549324188413" lon="-2.3522253320967828"><ele>24.8</ele><time>2026-04-05T14:54:15.999Z</time></trkpt><trkpt lat="48.654849466231695" lon="-2.3523037256365535"><ele>25.0</ele><time>2026-04-05T14:54:17.999Z</time></trkpt><trkpt lat="48.65475410183791" lon="-2.352371750488768"><ele>25.2</ele><time>2026-04-05T14:54:19.999Z</time></trkpt><trkpt lat="48.65465668409098" lon="-2.35245860688764"><ele>25.4</ele><time>2026-04-05T14:54:21.999Z</time></trkpt><trkpt lat="48.65454986445627" lon="-2.3524772944123256"><ele>25.6</ele><time>2026-04-05T14:54:23.999Z</time></trkpt><trkpt lat="48.654462799117816" lon="-2.3525405907124495"><ele>25.8</ele><time>2026-04-05T14:54:25.999Z</time></trkpt><trkpt lat="48.65435450489934" lon="-2.352626474323622"><ele>26.0</ele><time>2026-04-05T14:54:29.999Z</time></trkpt><trkpt lat="48.65429462290877" lon="-2.3526777381084845"><ele>26.57142857142857</ele><time>2026-04-05T14:54:31.999Z</time></trkpt><trkpt lat="48.65423135300733" lon="-2.3526850205668666"><ele>27.142857142857146</ele><time>2026-04-05T14:54:33.999Z</time></trkpt><trkpt lat="48.65417087662087" lon="-2.352717618917282"><ele>27.714285714285715</ele><time>2026-04-05T14:54:36.999Z</time></trkpt><trkpt lat="48.65409925107728" lon="-2.35275338272572"><ele>28.285714285714285</ele><time>2026-04-05T14:54:39.999Z</time></trkpt><trkpt lat="48.654026360889986" lon="-2.3527781448905714"><ele>28.857142857142854</ele><time>2026-04-05T14:54:42.999Z</time></trkpt><trkpt lat="48.65393704341166" lon="-2.352797372300296"><ele>29.42857142857143</ele><time>2026-04-05T14:54:45.999Z</time></trkpt><trkpt lat="48.653866935450694" lon="-2.3528282410642207"><ele>30.0</ele><time>2026-04-05T14:54:49Z</time></trkpt><trkpt lat="48.65377708318338" lon="-2.3528674248830272"><ele>30.0</ele><time>2026-04-05T14:54:52Z</time></trkpt><trkpt lat="48.65371450956137" lon="-2.352890706734032"><ele>30.0</ele><time>2026-04-05T14:54:54Z</time></trkpt><trkpt lat="48.65360735973675" lon="-2.352923074570555"><ele>30.0</ele><time>2026-04-05T14:54:56Z</time></trkpt><trkpt lat="48.65353203679758" lon="-2.3529455538034747"><ele>30.0</ele><time>2026-04-05T14:54:59Z</time></trkpt><trkpt lat="48.65345934066144" lon="-2.3529681287571793"><ele>30.0</ele><time>2026-04-05T14:55:00Z</time></trkpt><trkpt lat="48.65339130185514" lon="-2.3529985529752184"><ele>30.0</ele><time>2026-04-05T14:55:03Z</time></trkpt><trkpt lat="48.65328589285251" lon="-2.353028967998417"><ele>30.4</ele><time>2026-04-05T14:55:05Z</time></trkpt><trkpt lat="48.65322219371263" lon="-2.3530430084864054"><ele>30.8</ele><time>2026-04-05T14:55:06Z</time></trkpt><trkpt lat="48.65310612034855" lon="-2.353079148110214"><ele>31.200000000000003</ele><time>2026-04-05T14:55:09Z</time></trkpt><trkpt lat="48.653015415185514" lon="-2.353097556112925"><ele>31.6</ele><time>2026-04-05T14:55:11Z</time></trkpt><trkpt lat="48.652917977062025" lon="-2.353129171358403"><ele>32.0</ele><time>2026-04-05T14:55:13Z</time></trkpt><trkpt lat="48.65282150766336" lon="-2.3531708545333156"><ele>32.33333333333333</ele><time>2026-04-05T14:55:15Z</time></trkpt><trkpt lat="48.65273040675166" lon="-2.353165859182561"><ele>32.666666666666664</ele><time>2026-04-05T14:55:17Z</time></trkpt><trkpt lat="48.65264669270893" lon="-2.35319877349235"><ele>33.0</ele><time>2026-04-05T14:55:19Z</time></trkpt><trkpt lat="48.65255903314526" lon="-2.353172328968102"><ele>33.333333333333336</ele><time>2026-04-05T14:55:21Z</time></trkpt><trkpt lat="48.652470647157415" lon="-2.3531803564868605"><ele>33.66666666666667</ele><time>2026-04-05T14:55:23Z</time></trkpt><trkpt lat="48.65241210338629" lon="-2.353140577468403"><ele>34.0</ele><time>2026-04-05T14:55:25Z</time></trkpt><trkpt lat="48.652310699823595" lon="-2.3531377894232106"><ele>34.0</ele><time>2026-04-05T14:55:28Z</time></trkpt><trkpt lat="48.65220053776285" lon="-2.353107066291765"><ele>34.0</ele><time>2026-04-05T14:55:30Z</time></trkpt><trkpt lat="48.65213744608975" lon="-2.353063949274911"><ele>34.0</ele><time>2026-04-05T14:55:32Z</time></trkpt><trkpt lat="48.65205325605162" lon="-2.3530418943977773"><ele>34.0</ele><time>2026-04-05T14:55:34Z</time></trkpt><trkpt lat="48.65197151844128" lon="-2.35301936578237"><ele>34.0</ele><time>2026-04-05T14:55:36Z</time></trkpt><trkpt lat="48.65189652673483" lon="-2.3529965545261864"><ele>34.0</ele><time>2026-04-05T14:55:38Z</time></trkpt><trkpt lat="48.65180307501051" lon="-2.352970900906"><ele>34.0</ele><time>2026-04-05T14:55:40Z</time></trkpt><trkpt lat="48.651732753358694" lon="-2.352944868381619"><ele>34.0</ele><time>2026-04-05T14:55:41Z</time></trkpt><trkpt lat="48.65164650623796" lon="-2.3529234345284737"><ele>34.0</ele><time>2026-04-05T14:55:43Z</time></trkpt><trkpt lat="48.65156014612112" lon="-2.352899483595006"><ele>34.0</ele><time>2026-04-05T14:55:45Z</time></trkpt><trkpt lat="48.65147261611889" lon="-2.352873459325185"><ele>34.0</ele><time>2026-04-05T14:55:47Z</time></trkpt><trkpt lat="48.65138500862927" lon="-2.35284688134741"><ele>34.0</ele><time>2026-04-05T14:55:49Z</time></trkpt><trkpt lat="48.65131637456761" lon="-2.3528276215310164"><ele>34.0</ele><time>2026-04-05T14:55:51Z</time></trkpt><trkpt lat="48.6512372576443" lon="-2.352804610172155"><ele>34.0</ele><time>2026-04-05T14:55:53Z</time></trkpt><trkpt lat="48.651156970830215" lon="-2.352785709415832"><ele>34.0</ele><time>2026-04-05T14:55:55Z</time></trkpt><trkpt lat="48.65107599140053" lon="-2.3527625147428752"><ele>34.0</ele><time>2026-04-05T14:55:57Z</time></trkpt><trkpt lat="48.650958900839754" lon="-2.35272430799101"><ele>34.0</ele><time>2026-04-05T14:55:59Z</time></trkpt><trkpt lat="48.65085210527666" lon="-2.3526774841445506"><ele>34.0</ele><time>2026-04-05T14:56:01Z</time></trkpt><trkpt lat="48.650740943612625" lon="-2.3526111575403608"><ele>34.0</ele><time>2026-04-05T14:56:03Z</time></trkpt><trkpt lat="48.65068213302031" lon="-2.352570448247195"><ele>34.0</ele><time>2026-04-05T14:56:04Z</time></trkpt><trkpt lat="48.650616931526145" lon="-2.352551710373435"><ele>34.0</ele><time>2026-04-05T14:56:04.999Z</time></trkpt><trkpt lat="48.650553655963535" lon="-2.352515801812831"><ele>34.0</ele><time>2026-04-05T14:56:05.999Z</time></trkpt><trkpt lat="48.65049254834738" lon="-2.352483193052732"><ele>34.0</ele><time>2026-04-05T14:56:06.999Z</time></trkpt><trkpt lat="48.6504012275707" lon="-2.35242645801704"><ele>34.0</ele><time>2026-04-05T14:56:08.999Z</time></trkpt><trkpt lat="48.65033231275434" lon="-2.3524347878240266"><ele>34.0</ele><time>2026-04-05T14:56:10.999Z</time></trkpt><trkpt lat="48.6503173627023" lon="-2.3525624897057513"><ele>34.0</ele><time>2026-04-05T14:56:14.999Z</time></trkpt><trkpt lat="48.650314838970765" lon="-2.352673354896184"><ele>34.0</ele><time>2026-04-05T14:56:16.999Z</time></trkpt><trkpt lat="48.65033359356897" lon="-2.3527982221472286"><ele>34.0</ele><time>2026-04-05T14:56:18.999Z</time></trkpt><trkpt lat="48.65034989935039" lon="-2.3529382844598037"><ele>34.0</ele><time>2026-04-05T14:56:20.999Z</time></trkpt><trkpt lat="48.65036801938127" lon="-2.353080946798565"><ele>33.8</ele><time>2026-04-05T14:56:22.999Z</time></trkpt><trkpt lat="48.650387419546" lon="-2.3532327867239955"><ele>33.599999999999994</ele><time>2026-04-05T14:56:24.999Z</time></trkpt><trkpt lat="48.65040887165203" lon="-2.3533879822666597"><ele>33.4</ele><time>2026-04-05T14:56:26.999Z</time></trkpt><trkpt lat="48.650435349726465" lon="-2.3535403427403048"><ele>33.199999999999996</ele><time>2026-04-05T14:56:28.999Z</time></trkpt><trkpt lat="48.65046309709996" lon="-2.3536915333003616"><ele>33.0</ele><time>2026-04-05T14:56:30.999Z</time></trkpt><trkpt lat="48.650502368117095" lon="-2.3538352153239313"><ele>32.75</ele><time>2026-04-05T14:56:32.999Z</time></trkpt><trkpt lat="48.65054612510248" lon="-2.35397875241938"><ele>32.5</ele><time>2026-04-05T14:56:34.999Z</time></trkpt><trkpt lat="48.65057810364083" lon="-2.354133567086632"><ele>32.25</ele><time>2026-04-05T14:56:36.999Z</time></trkpt><trkpt lat="48.65056357113524" lon="-2.3543073107805306"><ele>32.0</ele><time>2026-04-05T14:56:38.999Z</time></trkpt><trkpt lat="48.650496452323026" lon="-2.3544620300098673"><ele>32.0</ele><time>2026-04-05T14:56:40.999Z</time></trkpt><trkpt lat="48.65042766735381" lon="-2.354594379061558"><ele>32.0</ele><time>2026-04-05T14:56:42.999Z</time></trkpt><trkpt lat="48.650360715218646" lon="-2.3547100071892966"><ele>32.0</ele><time>2026-04-05T14:56:44.999Z</time></trkpt><trkpt lat="48.65027399465672" lon="-2.354800958265252"><ele>32.0</ele><time>2026-04-05T14:56:46.999Z</time></trkpt><trkpt lat="48.65018343227131" lon="-2.3548792606119586"><ele>32.0</ele><time>2026-04-05T14:56:48.999Z</time></trkpt><trkpt lat="48.65010195618174" lon="-2.3549725297844093"><ele>32.4</ele><time>2026-04-05T14:56:50.999Z</time></trkpt><trkpt lat="48.65002387414166" lon="-2.3550828204445877"><ele>32.800000000000004</ele><time>2026-04-05T14:56:52.999Z</time></trkpt><trkpt lat="48.64994542465518" lon="-2.3552023441109804"><ele>33.2</ele><time>2026-04-05T14:56:55Z</time></trkpt><trkpt lat="48.64987094753374" lon="-2.3553337772223375"><ele>33.6</ele><time>2026-04-05T14:56:57Z</time></trkpt><trkpt lat="48.649808590691876" lon="-2.355477682695118"><ele>34.0</ele><time>2026-04-05T14:56:59Z</time></trkpt><trkpt lat="48.64975366905817" lon="-2.355639714087153"><ele>34.0</ele><time>2026-04-05T14:57:01Z</time></trkpt><trkpt lat="48.64970738115928" lon="-2.3558026690287317"><ele>34.0</ele><time>2026-04-05T14:57:03Z</time></trkpt><trkpt lat="48.64966453900334" lon="-2.355964665631065"><ele>34.0</ele><time>2026-04-05T14:57:05Z</time></trkpt><trkpt lat="48.64962379652543" lon="-2.356128207758995"><ele>34.0</ele><time>2026-04-05T14:57:07Z</time></trkpt><trkpt lat="48.649583280554914" lon="-2.3562820287997894"><ele>33.8</ele><time>2026-04-05T14:57:09Z</time></trkpt><trkpt lat="48.64954239675733" lon="-2.356436391878547"><ele>33.599999999999994</ele><time>2026-04-05T14:57:11Z</time></trkpt><trkpt lat="48.64950262625498" lon="-2.356588449127024"><ele>33.4</ele><time>2026-04-05T14:57:13Z</time></trkpt><trkpt lat="48.64946896333441" lon="-2.3567365962020594"><ele>33.199999999999996</ele><time>2026-04-05T14:57:15Z</time></trkpt><trkpt lat="48.64942425057565" lon="-2.3568768440793133"><ele>33.0</ele><time>2026-04-05T14:57:17Z</time></trkpt><trkpt lat="48.649391924137916" lon="-2.357025879766647"><ele>33.4</ele><time>2026-04-05T14:57:19Z</time></trkpt><trkpt lat="48.649352670116485" lon="-2.357154976644074"><ele>33.8</ele><time>2026-04-05T14:57:21Z</time></trkpt><trkpt lat="48.649330321881195" lon="-2.3572966045696053"><ele>34.2</ele><time>2026-04-05T14:57:23Z</time></trkpt><trkpt lat="48.64929126371614" lon="-2.357433055196638"><ele>34.6</ele><time>2026-04-05T14:57:25Z</time></trkpt><trkpt lat="48.64925278605765" lon="-2.357560302972228"><ele>35.0</ele><time>2026-04-05T14:57:27Z</time></trkpt><trkpt lat="48.649221881325545" lon="-2.3576875343730967"><ele>35.4</ele><time>2026-04-05T14:57:29Z</time></trkpt><trkpt lat="48.64918670983192" lon="-2.3578570091381335"><ele>35.8</ele><time>2026-04-05T14:57:32Z</time></trkpt><trkpt lat="48.6491483429086" lon="-2.3579636840193285"><ele>36.2</ele><time>2026-04-05T14:57:34Z</time></trkpt><trkpt lat="48.649112781423646" lon="-2.358138509643261"><ele>36.6</ele><time>2026-04-05T14:57:36Z</time></trkpt><trkpt lat="48.64907728496021" lon="-2.3582669871170303"><ele>37.0</ele><time>2026-04-05T14:57:38Z</time></trkpt><trkpt lat="48.64903931283464" lon="-2.3583925473667913"><ele>37.66666666666667</ele><time>2026-04-05T14:57:40Z</time></trkpt><trkpt lat="48.64900470998509" lon="-2.358513795351089"><ele>38.333333333333336</ele><time>2026-04-05T14:57:42Z</time></trkpt><trkpt lat="48.64896872167483" lon="-2.3586305419267237"><ele>39.0</ele><time>2026-04-05T14:57:44Z</time></trkpt><trkpt lat="48.648934672777" lon="-2.358737939890533"><ele>39.666666666666664</ele><time>2026-04-05T14:57:46Z</time></trkpt><trkpt lat="48.64890243035126" lon="-2.3588401431375465"><ele>40.33333333333333</ele><time>2026-04-05T14:57:48Z</time></trkpt><trkpt lat="48.64886327185853" lon="-2.3589342684200734"><ele>41.0</ele><time>2026-04-05T14:57:50Z</time></trkpt><trkpt lat="48.64881932890657" lon="-2.3590274998425973"><ele>41.5</ele><time>2026-04-05T14:57:52Z</time></trkpt><trkpt lat="48.648779402140626" lon="-2.3591193148580722"><ele>42.0</ele><time>2026-04-05T14:57:54Z</time></trkpt><trkpt lat="48.64878508827631" lon="-2.359239517576341"><ele>42.5</ele><time>2026-04-05T14:57:57Z</time></trkpt><trkpt lat="48.648844873858984" lon="-2.3593047605309043"><ele>43.0</ele><time>2026-04-05T14:58:00Z</time></trkpt><trkpt lat="48.64891697056089" lon="-2.359367873048585"><ele>43.5</ele><time>2026-04-05T14:58:03Z</time></trkpt><trkpt lat="48.649011670936865" lon="-2.3594174458615265"><ele>44.0</ele><time>2026-04-05T14:58:06Z</time></trkpt><trkpt lat="48.64908544606088" lon="-2.3594593552989296"><ele>44.0</ele><time>2026-04-05T14:58:09Z</time></trkpt><trkpt lat="48.64916267478791" lon="-2.359495888180328"><ele>44.0</ele><time>2026-04-05T14:58:11.999Z</time></trkpt><trkpt lat="48.64923077118309" lon="-2.3595444499552882"><ele>44.0</ele><time>2026-04-05T14:58:13.999Z</time></trkpt><trkpt lat="48.64930165048682" lon="-2.3596007538432753"><ele>44.0</ele><time>2026-04-05T14:58:16.999Z</time></trkpt><trkpt lat="48.649362213939845" lon="-2.3596560243170175"><ele>44.0</ele><time>2026-04-05T14:58:18.999Z</time></trkpt><trkpt lat="48.649432600783506" lon="-2.3597188373271982"><ele>44.0</ele><time>2026-04-05T14:58:21.999Z</time></trkpt><trkpt lat="48.649505427455054" lon="-2.3598003535324175"><ele>45.33333333333333</ele><time>2026-04-05T14:58:24.999Z</time></trkpt><trkpt lat="48.649553086795194" lon="-2.3598639678561617"><ele>46.666666666666664</ele><time>2026-04-05T14:58:26.999Z</time></trkpt><trkpt lat="48.649627129517334" lon="-2.3599480737147243"><ele>48.0</ele><time>2026-04-05T14:58:29.999Z</time></trkpt><trkpt lat="48.64969585950798" lon="-2.3600402233406474"><ele>49.33333333333333</ele><time>2026-04-05T14:58:32.999Z</time></trkpt><trkpt lat="48.649764018679456" lon="-2.3601274134002446"><ele>50.666666666666664</ele><time>2026-04-05T14:58:35.999Z</time></trkpt><trkpt lat="48.649835425242856" lon="-2.3602154562206845"><ele>52.0</ele><time>2026-04-05T14:58:38.999Z</time></trkpt><trkpt lat="48.649904318952586" lon="-2.3603083494698303"><ele>52.0</ele><time>2026-04-05T14:58:41.999Z</time></trkpt><trkpt lat="48.649952154979026" lon="-2.3603717372940123"><ele>52.0</ele><time>2026-04-05T14:58:43.999Z</time></trkpt><trkpt lat="48.650019083283375" lon="-2.3604607736754386"><ele>52.0</ele><time>2026-04-05T14:58:46.999Z</time></trkpt><trkpt lat="48.650092286743785" lon="-2.3605467138738727"><ele>52.0</ele><time>2026-04-05T14:58:49.999Z</time></trkpt><trkpt lat="48.65014161035159" lon="-2.3606140076209323"><ele>52.0</ele><time>2026-04-05T14:58:51.999Z</time></trkpt><trkpt lat="48.65019186358214" lon="-2.3606807648715127"><ele>52.0</ele><time>2026-04-05T14:58:53.999Z</time></trkpt><trkpt lat="48.65024410988407" lon="-2.360746470512672"><ele>52.0</ele><time>2026-04-05T14:58:55.999Z</time></trkpt><trkpt lat="48.65029383113351" lon="-2.360816872353522"><ele>52.285714285714285</ele><time>2026-04-05T14:58:57.999Z</time></trkpt><trkpt lat="48.65034805589009" lon="-2.360885516511024"><ele>52.57142857142858</ele><time>2026-04-05T14:58:59.999Z</time></trkpt><trkpt lat="48.650399234367775" lon="-2.360953148838873"><ele>52.85714285714286</ele><time>2026-04-05T14:59:02Z</time></trkpt><trkpt lat="48.65044480547225" lon="-2.361019800777227"><ele>53.14285714285714</ele><time>2026-04-05T14:59:04Z</time></trkpt><trkpt lat="48.650487127001135" lon="-2.361093508803386"><ele>53.42857142857143</ele><time>2026-04-05T14:59:06Z</time></trkpt><trkpt lat="48.65051872515933" lon="-2.3611860209963806"><ele>53.714285714285715</ele><time>2026-04-05T14:59:08Z</time></trkpt><trkpt lat="48.65054145690609" lon="-2.3613070757162062"><ele>54.0</ele><time>2026-04-05T14:59:11Z</time></trkpt><trkpt lat="48.65056175258997" lon="-2.361436791398409"><ele>54.400000000000006</ele><time>2026-04-05T14:59:13Z</time></trkpt><trkpt lat="48.65055660451038" lon="-2.361553974699788"><ele>54.800000000000004</ele><time>2026-04-05T14:59:16Z</time></trkpt><trkpt lat="48.650567331632" lon="-2.3616672922731863"><ele>55.199999999999996</ele><time>2026-04-05T14:59:18Z</time></trkpt><trkpt lat="48.650569380391914" lon="-2.3617787370355487"><ele>55.599999999999994</ele><time>2026-04-05T14:59:20Z</time></trkpt><trkpt lat="48.65056215652983" lon="-2.3620329940571896"><ele>56.0</ele><time>2026-04-05T14:59:23Z</time></trkpt><trkpt lat="48.65055890379432" lon="-2.362177317083418"><ele>56.199999999999996</ele><time>2026-04-05T14:59:25Z</time></trkpt><trkpt lat="48.650560304100324" lon="-2.3623168006688724"><ele>56.39999999999999</ele><time>2026-04-05T14:59:27Z</time></trkpt><trkpt lat="48.650559404513594" lon="-2.3624636674761734"><ele>56.6</ele><time>2026-04-05T14:59:29Z</time></trkpt><trkpt lat="48.650554909704944" lon="-2.3626139621529"><ele>56.8</ele><time>2026-04-05T14:59:31Z</time></trkpt><trkpt lat="48.65055392760848" lon="-2.362757225867878"><ele>57.0</ele><time>2026-04-05T14:59:33Z</time></trkpt><trkpt lat="48.650551739383914" lon="-2.362908948324688"><ele>56.6</ele><time>2026-04-05T14:59:35Z</time></trkpt><trkpt lat="48.65055081548878" lon="-2.3630549909068197"><ele>56.2</ele><time>2026-04-05T14:59:37Z</time></trkpt><trkpt lat="48.65054551799823" lon="-2.363216111914247"><ele>55.8</ele><time>2026-04-05T14:59:39Z</time></trkpt><trkpt lat="48.65055132657918" lon="-2.363385511755719"><ele>55.4</ele><time>2026-04-05T14:59:41Z</time></trkpt><trkpt lat="48.650539582531394" lon="-2.3635445573128924"><ele>55.0</ele><time>2026-04-05T14:59:43Z</time></trkpt><trkpt lat="48.65054998384499" lon="-2.363686927876704"><ele>55.0</ele><time>2026-04-05T14:59:45Z</time></trkpt><trkpt lat="48.65054767684838" lon="-2.363843053781953"><ele>55.0</ele><time>2026-04-05T14:59:47Z</time></trkpt><trkpt lat="48.65054215758863" lon="-2.3640004638940546"><ele>55.0</ele><time>2026-04-05T14:59:49Z</time></trkpt><trkpt lat="48.65053549801731" lon="-2.3641544128725256"><ele>55.0</ele><time>2026-04-05T14:59:51Z</time></trkpt><trkpt lat="48.65053574682441" lon="-2.364296390659354"><ele>55.0</ele><time>2026-04-05T14:59:53Z</time></trkpt><trkpt lat="48.65053728381979" lon="-2.364451691384575"><ele>55.2</ele><time>2026-04-05T14:59:55Z</time></trkpt><trkpt lat="48.65054463407237" lon="-2.364607833364517"><ele>55.4</ele><time>2026-04-05T14:59:57Z</time></trkpt><trkpt lat="48.65054241083079" lon="-2.364748484894031"><ele>55.599999999999994</ele><time>2026-04-05T14:59:59Z</time></trkpt><trkpt lat="48.65053575008088" lon="-2.3648759858588706"><ele>55.8</ele><time>2026-04-05T15:00:01Z</time></trkpt><trkpt lat="48.650545536513775" lon="-2.364996036508728"><ele>56.0</ele><time>2026-04-05T15:00:03Z</time></trkpt><trkpt lat="48.65051168327771" lon="-2.3651264169977138"><ele>56.14285714285714</ele><time>2026-04-05T15:00:05Z</time></trkpt><trkpt lat="48.650512800091455" lon="-2.365242755388659"><ele>56.285714285714285</ele><time>2026-04-05T15:00:07Z</time></trkpt><trkpt lat="48.65051685090912" lon="-2.3653419687231474"><ele>56.42857142857143</ele><time>2026-04-05T15:00:09Z</time></trkpt><trkpt lat="48.650522875486395" lon="-2.365441620071339"><ele>56.57142857142857</ele><time>2026-04-05T15:00:11Z</time></trkpt><trkpt lat="48.650579990062205" lon="-2.3655157663223014"><ele>56.71428571428571</ele><time>2026-04-05T15:00:13Z</time></trkpt><trkpt lat="48.65062995890136" lon="-2.3655793773399876"><ele>56.857142857142854</ele><time>2026-04-05T15:00:15Z</time></trkpt><trkpt lat="48.65062706575932" lon="-2.3656821653897975"><ele>57.0</ele><time>2026-04-05T15:00:17Z</time></trkpt><trkpt lat="48.650603279650014" lon="-2.365787419065794"><ele>57.0</ele><time>2026-04-05T15:00:19Z</time></trkpt><trkpt lat="48.650594855551304" lon="-2.365916691189557"><ele>57.0</ele><time>2026-04-05T15:00:21Z</time></trkpt><trkpt lat="48.65059028300488" lon="-2.3660447190254916"><ele>57.0</ele><time>2026-04-05T15:00:23Z</time></trkpt><trkpt lat="48.65057981458284" lon="-2.366178266026258"><ele>57.0</ele><time>2026-04-05T15:00:25Z</time></trkpt><trkpt lat="48.65055582935227" lon="-2.3663158585651916"><ele>57.0</ele><time>2026-04-05T15:00:26.999Z</time></trkpt><trkpt lat="48.65051327303116" lon="-2.3664452138006493"><ele>57.0</ele><time>2026-04-05T15:00:28.999Z</time></trkpt><trkpt lat="48.65046323682988" lon="-2.3665740316540904"><ele>57.0</ele><time>2026-04-05T15:00:30.999Z</time></trkpt><trkpt lat="48.65040800600436" lon="-2.3667094808225584"><ele>57.0</ele><time>2026-04-05T15:00:32.999Z</time></trkpt><trkpt lat="48.65039312992039" lon="-2.3668164285557376"><ele>57.0</ele><time>2026-04-05T15:00:34.999Z</time></trkpt><trkpt lat="48.650358864143115" lon="-2.3669076734012346"><ele>57.0</ele><time>2026-04-05T15:00:35.999Z</time></trkpt><trkpt lat="48.65026758434152" lon="-2.3670815402046355"><ele>57.0</ele><time>2026-04-05T15:00:38.999Z</time></trkpt><trkpt lat="48.65021268630346" lon="-2.3672174061545608"><ele>56.6</ele><time>2026-04-05T15:00:40.999Z</time></trkpt><trkpt lat="48.650146698350596" lon="-2.3673479953573424"><ele>56.2</ele><time>2026-04-05T15:00:42.999Z</time></trkpt><trkpt lat="48.65007171610393" lon="-2.367505026279395"><ele>55.8</ele><time>2026-04-05T15:00:44.999Z</time></trkpt><trkpt lat="48.65002164256865" lon="-2.3675792751890103"><ele>55.4</ele><time>2026-04-05T15:00:45.999Z</time></trkpt><trkpt lat="48.64996426447067" lon="-2.3676367634116873"><ele>55.0</ele><time>2026-04-05T15:00:46.999Z</time></trkpt><trkpt lat="48.649906638689295" lon="-2.367716693098372"><ele>54.99999999999999</ele><time>2026-04-05T15:00:47.999Z</time></trkpt><trkpt lat="48.64984546293101" lon="-2.3678058569353237"><ele>55.0</ele><time>2026-04-05T15:00:48.999Z</time></trkpt><trkpt lat="48.649774582325044" lon="-2.367892094717655"><ele>55.0</ele><time>2026-04-05T15:00:49.999Z</time></trkpt><trkpt lat="48.649710170920976" lon="-2.3679649485267773"><ele>55.0</ele><time>2026-04-05T15:00:50.999Z</time></trkpt><trkpt lat="48.64964122254025" lon="-2.368027557127904"><ele>54.99999999999999</ele><time>2026-04-05T15:00:51.999Z</time></trkpt><trkpt lat="48.64958667200094" lon="-2.368103272769102"><ele>55.0</ele><time>2026-04-05T15:00:52.999Z</time></trkpt><trkpt lat="48.649511565713496" lon="-2.3681578688445204"><ele>53.8</ele><time>2026-04-05T15:00:53.999Z</time></trkpt><trkpt lat="48.64943634115352" lon="-2.36824313010033"><ele>52.6</ele><time>2026-04-05T15:00:54.999Z</time></trkpt><trkpt lat="48.64938003802928" lon="-2.3683193146705666"><ele>51.400000000000006</ele><time>2026-04-05T15:00:55.999Z</time></trkpt><trkpt lat="48.649257423321934" lon="-2.3684328664948198"><ele>50.2</ele><time>2026-04-05T15:00:57.999Z</time></trkpt><trkpt lat="48.649188144202775" lon="-2.3684983633760304"><ele>49.0</ele><time>2026-04-05T15:00:58.999Z</time></trkpt><trkpt lat="48.649110650823566" lon="-2.3685647082558114"><ele>48.99999999999999</ele><time>2026-04-05T15:00:59.999Z</time></trkpt><trkpt lat="48.64904271197631" lon="-2.368629845759992"><ele>49.0</ele><time>2026-04-05T15:01:00.999Z</time></trkpt><trkpt lat="48.64897254397854" lon="-2.36869241434146"><ele>49.0</ele><time>2026-04-05T15:01:01.999Z</time></trkpt><trkpt lat="48.648898511632495" lon="-2.3687431351761155"><ele>49.0</ele><time>2026-04-05T15:01:02.999Z</time></trkpt><trkpt lat="48.64881744513077" lon="-2.3687927126951442"><ele>48.99999999999999</ele><time>2026-04-05T15:01:03.999Z</time></trkpt><trkpt lat="48.64873726054355" lon="-2.36885384895509"><ele>49.0</ele><time>2026-04-05T15:01:04.999Z</time></trkpt><trkpt lat="48.64865826020342" lon="-2.3689199823977254"><ele>47.666666666666664</ele><time>2026-04-05T15:01:05.999Z</time></trkpt><trkpt lat="48.64857591895473" lon="-2.3689651623041734"><ele>46.33333333333333</ele><time>2026-04-05T15:01:07Z</time></trkpt><trkpt lat="48.64849181121628" lon="-2.3690153583835096"><ele>45.0</ele><time>2026-04-05T15:01:08Z</time></trkpt><trkpt lat="48.6484100349415" lon="-2.369072962898979"><ele>43.666666666666664</ele><time>2026-04-05T15:01:09Z</time></trkpt><trkpt lat="48.648327493920625" lon="-2.3691284148398"><ele>42.33333333333333</ele><time>2026-04-05T15:01:10Z</time></trkpt><trkpt lat="48.64824777114071" lon="-2.3691891871473842"><ele>41.0</ele><time>2026-04-05T15:01:11Z</time></trkpt><trkpt lat="48.648174818112466" lon="-2.369267508535368"><ele>41.0</ele><time>2026-04-05T15:01:12Z</time></trkpt><trkpt lat="48.64813631277347" lon="-2.3693845936374407"><ele>41.0</ele><time>2026-04-05T15:01:13Z</time></trkpt><trkpt lat="48.64810097583806" lon="-2.3694833446206336"><ele>41.0</ele><time>2026-04-05T15:01:14Z</time></trkpt><trkpt lat="48.64806590662394" lon="-2.369568491962548"><ele>41.0</ele><time>2026-04-05T15:01:15Z</time></trkpt><trkpt lat="48.64799337814916" lon="-2.369712059479696"><ele>41.0</ele><time>2026-04-05T15:01:17Z</time></trkpt><trkpt lat="48.647947276167244" lon="-2.3698775716258127"><ele>41.0</ele><time>2026-04-05T15:01:19Z</time></trkpt><trkpt lat="48.64787921681523" lon="-2.370004560255825"><ele>41.0</ele><time>2026-04-05T15:01:21Z</time></trkpt><trkpt lat="48.64782371690756" lon="-2.370137156825232"><ele>41.0</ele><time>2026-04-05T15:01:23Z</time></trkpt><trkpt lat="48.647786265945456" lon="-2.3702786121721613"><ele>41.0</ele><time>2026-04-05T15:01:25Z</time></trkpt><trkpt lat="48.647737419602805" lon="-2.3704019280812085"><ele>41.0</ele><time>2026-04-05T15:01:27Z</time></trkpt><trkpt lat="48.64769061728669" lon="-2.3705232684464246"><ele>41.5</ele><time>2026-04-05T15:01:29Z</time></trkpt><trkpt lat="48.64764435454781" lon="-2.3706451382125517"><ele>42.0</ele><time>2026-04-05T15:01:31Z</time></trkpt><trkpt lat="48.64758566458199" lon="-2.3707529810488457"><ele>42.5</ele><time>2026-04-05T15:01:33Z</time></trkpt><trkpt lat="48.647541252403904" lon="-2.370857161658177"><ele>43.0</ele><time>2026-04-05T15:01:35Z</time></trkpt><trkpt lat="48.647506029106516" lon="-2.3709552133838163"><ele>43.5</ele><time>2026-04-05T15:01:37Z</time></trkpt><trkpt lat="48.647471894513586" lon="-2.371057872722105"><ele>44.0</ele><time>2026-04-05T15:01:39Z</time></trkpt><trkpt lat="48.64743024926281" lon="-2.3711443088401194"><ele>44.0</ele><time>2026-04-05T15:01:41Z</time></trkpt><trkpt lat="48.64738414522346" lon="-2.3712658654756904"><ele>44.0</ele><time>2026-04-05T15:01:44Z</time></trkpt><trkpt lat="48.647350743766644" lon="-2.371351083004471"><ele>44.0</ele><time>2026-04-05T15:01:46Z</time></trkpt><trkpt lat="48.64731459900466" lon="-2.3714392711988466"><ele>44.0</ele><time>2026-04-05T15:01:48Z</time></trkpt><trkpt lat="48.64728119213981" lon="-2.3715306774588423"><ele>44.0</ele><time>2026-04-05T15:01:50Z</time></trkpt><trkpt lat="48.647238800133756" lon="-2.3716112714297144"><ele>44.0</ele><time>2026-04-05T15:01:53Z</time></trkpt><trkpt lat="48.647194979018984" lon="-2.3716864344008313"><ele>44.0</ele><time>2026-04-05T15:01:54Z</time></trkpt><trkpt lat="48.647144374970964" lon="-2.37176099929454"><ele>44.5</ele><time>2026-04-05T15:01:56Z</time></trkpt><trkpt lat="48.64708272864934" lon="-2.3717965138759434"><ele>45.0</ele><time>2026-04-05T15:01:58Z</time></trkpt><trkpt lat="48.64700769512373" lon="-2.371818790860363"><ele>45.5</ele><time>2026-04-05T15:02:02Z</time></trkpt><trkpt lat="48.64694068174474" lon="-2.3718339688235153"><ele>46.0</ele><time>2026-04-05T15:02:05Z</time></trkpt><trkpt lat="48.64687248802386" lon="-2.371853584073247"><ele>46.5</ele><time>2026-04-05T15:02:07Z</time></trkpt><trkpt lat="48.64678890031204" lon="-2.37187169992576"><ele>47.0</ele><time>2026-04-05T15:02:09Z</time></trkpt><trkpt lat="48.64668532101508" lon="-2.371921547451325"><ele>47.33333333333333</ele><time>2026-04-05T15:02:11Z</time></trkpt><trkpt lat="48.64657422271911" lon="-2.3720213859494366"><ele>47.666666666666664</ele><time>2026-04-05T15:02:13Z</time></trkpt><trkpt lat="48.646499334203064" lon="-2.3720505624546746"><ele>48.0</ele><time>2026-04-05T15:02:14Z</time></trkpt><trkpt lat="48.646430270695" lon="-2.3721012732162214"><ele>48.33333333333333</ele><time>2026-04-05T15:02:14.999Z</time></trkpt><trkpt lat="48.6463581159618" lon="-2.372159519738082"><ele>48.666666666666664</ele><time>2026-04-05T15:02:15.999Z</time></trkpt><trkpt lat="48.646288419539026" lon="-2.3722169186521236"><ele>49.0</ele><time>2026-04-05T15:02:16.999Z</time></trkpt><trkpt lat="48.64620943955215" lon="-2.372274635112423"><ele>48.33333333333333</ele><time>2026-04-05T15:02:17.999Z</time></trkpt><trkpt lat="48.6461304132003" lon="-2.3723343865593054"><ele>47.666666666666664</ele><time>2026-04-05T15:02:18.999Z</time></trkpt><trkpt lat="48.646051751895314" lon="-2.3723931191626"><ele>47.0</ele><time>2026-04-05T15:02:19.999Z</time></trkpt><trkpt lat="48.64598119556362" lon="-2.3724513106345517"><ele>46.33333333333333</ele><time>2026-04-05T15:02:20.999Z</time></trkpt><trkpt lat="48.64591031395581" lon="-2.372504193348377"><ele>45.666666666666664</ele><time>2026-04-05T15:02:21.999Z</time></trkpt><trkpt lat="48.645837152270005" lon="-2.3725586018999376"><ele>45.0</ele><time>2026-04-05T15:02:22.999Z</time></trkpt><trkpt lat="48.64576306619079" lon="-2.372612763522222"><ele>44.333333333333336</ele><time>2026-04-05T15:02:23.999Z</time></trkpt><trkpt lat="48.64568720969428" lon="-2.3726680113710987"><ele>43.666666666666664</ele><time>2026-04-05T15:02:24.999Z</time></trkpt><trkpt lat="48.645611354353186" lon="-2.372721018105324"><ele>43.0</ele><time>2026-04-05T15:02:25.999Z</time></trkpt><trkpt lat="48.64553661594295" lon="-2.3727802791380617"><ele>42.33333333333333</ele><time>2026-04-05T15:02:26.999Z</time></trkpt><trkpt lat="48.64546400845894" lon="-2.3728407476803657"><ele>41.666666666666664</ele><time>2026-04-05T15:02:27.999Z</time></trkpt><trkpt lat="48.645401711283945" lon="-2.3729244687476436"><ele>41.0</ele><time>2026-04-05T15:02:28.999Z</time></trkpt><trkpt lat="48.64533122409231" lon="-2.372988816228493"><ele>41.0</ele><time>2026-04-05T15:02:29.999Z</time></trkpt><trkpt lat="48.64526758048731" lon="-2.3730468785513463"><ele>41.0</ele><time>2026-04-05T15:02:30.999Z</time></trkpt><trkpt lat="48.64520567846125" lon="-2.373101837609156"><ele>41.0</ele><time>2026-04-05T15:02:31.999Z</time></trkpt><trkpt lat="48.645148017622354" lon="-2.3731502347205344"><ele>41.0</ele><time>2026-04-05T15:02:32.999Z</time></trkpt><trkpt lat="48.64504489392986" lon="-2.373229469189072"><ele>41.0</ele><time>2026-04-05T15:02:34.999Z</time></trkpt><trkpt lat="48.64493383754042" lon="-2.3732856161383813"><ele>41.0</ele><time>2026-04-05T15:02:36.999Z</time></trkpt><trkpt lat="48.64483767409442" lon="-2.373382780555024"><ele>41.0</ele><time>2026-04-05T15:02:38.999Z</time></trkpt><trkpt lat="48.64473828626133" lon="-2.3734584268075114"><ele>41.0</ele><time>2026-04-05T15:02:40.999Z</time></trkpt><trkpt lat="48.64464081910876" lon="-2.3735326111799844"><ele>41.0</ele><time>2026-04-05T15:02:42.999Z</time></trkpt><trkpt lat="48.644547721709024" lon="-2.373604281140626"><ele>41.0</ele><time>2026-04-05T15:02:44.999Z</time></trkpt><trkpt lat="48.64445915416389" lon="-2.373675631691466"><ele>41.0</ele><time>2026-04-05T15:02:46.999Z</time></trkpt><trkpt lat="48.64436461188526" lon="-2.3737278908562995"><ele>41.4</ele><time>2026-04-05T15:02:48.999Z</time></trkpt><trkpt lat="48.644266280611056" lon="-2.373819486948215"><ele>41.8</ele><time>2026-04-05T15:02:51.999Z</time></trkpt><trkpt lat="48.64418977958971" lon="-2.373862921254086"><ele>42.199999999999996</ele><time>2026-04-05T15:02:52.999Z</time></trkpt><trkpt lat="48.64410594793258" lon="-2.3739334818966698"><ele>42.599999999999994</ele><time>2026-04-05T15:02:54.999Z</time></trkpt><trkpt lat="48.64401785334995" lon="-2.373995361961407"><ele>43.0</ele><time>2026-04-05T15:02:56.999Z</time></trkpt><trkpt lat="48.64395764991696" lon="-2.374030787814975"><ele>43.0</ele><time>2026-04-05T15:02:58.999Z</time></trkpt><trkpt lat="48.64387072941513" lon="-2.374088429477626"><ele>43.0</ele><time>2026-04-05T15:03:00.999Z</time></trkpt><trkpt lat="48.64381016431791" lon="-2.3741197727095003"><ele>43.0</ele><time>2026-04-05T15:03:02.999Z</time></trkpt><trkpt lat="48.643728714776266" lon="-2.3741689347641657"><ele>43.0</ele><time>2026-04-05T15:03:03.999Z</time></trkpt><trkpt lat="48.643643235995086" lon="-2.3742392671782206"><ele>43.0</ele><time>2026-04-05T15:03:05.999Z</time></trkpt><trkpt lat="48.643554261114886" lon="-2.3742899509319066"><ele>43.0</ele><time>2026-04-05T15:03:07.999Z</time></trkpt><trkpt lat="48.64347029716516" lon="-2.374347469961032"><ele>43.5</ele><time>2026-04-05T15:03:09.999Z</time></trkpt><trkpt lat="48.64340007896026" lon="-2.3744094052412215"><ele>44.0</ele><time>2026-04-05T15:03:11.999Z</time></trkpt><trkpt lat="48.6433261775364" lon="-2.374474663753766"><ele>44.5</ele><time>2026-04-05T15:03:14Z</time></trkpt><trkpt lat="48.64325264007668" lon="-2.374538654350512"><ele>45.0</ele><time>2026-04-05T15:03:16Z</time></trkpt><trkpt lat="48.64319077215099" lon="-2.3746003129471838"><ele>45.5</ele><time>2026-04-05T15:03:18Z</time></trkpt><trkpt lat="48.64311102611117" lon="-2.374658060090346"><ele>46.0</ele><time>2026-04-05T15:03:20Z</time></trkpt><trkpt lat="48.643018998400244" lon="-2.3746953983822086"><ele>46.0</ele><time>2026-04-05T15:03:22Z</time></trkpt><trkpt lat="48.64291617088382" lon="-2.374742804784267"><ele>46.0</ele><time>2026-04-05T15:03:24Z</time></trkpt><trkpt lat="48.64282939654261" lon="-2.3747551886440554"><ele>46.0</ele><time>2026-04-05T15:03:26Z</time></trkpt><trkpt lat="48.642757024505066" lon="-2.3747524441060794"><ele>46.0</ele><time>2026-04-05T15:03:27Z</time></trkpt><trkpt lat="48.6426530360436" lon="-2.3747580200588723"><ele>46.0</ele><time>2026-04-05T15:03:29Z</time></trkpt><trkpt lat="48.64250989235842" lon="-2.3747561029976674"><ele>46.199999999999996</ele><time>2026-04-05T15:03:32Z</time></trkpt><trkpt lat="48.64240262252193" lon="-2.374759875348292"><ele>46.4</ele><time>2026-04-05T15:03:34Z</time></trkpt><trkpt lat="48.642302400913344" lon="-2.374757642345173"><ele>46.6</ele><time>2026-04-05T15:03:36Z</time></trkpt><trkpt lat="48.642207637814515" lon="-2.3747840902387285"><ele>46.8</ele><time>2026-04-05T15:03:38Z</time></trkpt><trkpt lat="48.64210288355515" lon="-2.374789218892874"><ele>47.0</ele><time>2026-04-05T15:03:40Z</time></trkpt><trkpt lat="48.642007268054186" lon="-2.3747687952546874"><ele>47.2</ele><time>2026-04-05T15:03:42Z</time></trkpt><trkpt lat="48.641907877613946" lon="-2.3747740747615818"><ele>47.400000000000006</ele><time>2026-04-05T15:03:44Z</time></trkpt><trkpt lat="48.641807119028506" lon="-2.3747770077784205"><ele>47.599999999999994</ele><time>2026-04-05T15:03:46Z</time></trkpt><trkpt lat="48.64170586564783" lon="-2.3747865631439065"><ele>47.8</ele><time>2026-04-05T15:03:48Z</time></trkpt><trkpt lat="48.641606912993446" lon="-2.3748309299115826"><ele>48.0</ele><time>2026-04-05T15:03:50Z</time></trkpt><trkpt lat="48.641497816746856" lon="-2.374887614167537"><ele>48.0</ele><time>2026-04-05T15:03:52Z</time></trkpt><trkpt lat="48.641422147541924" lon="-2.3749944347293037"><ele>48.0</ele><time>2026-04-05T15:03:54Z</time></trkpt><trkpt lat="48.64133988932827" lon="-2.375070760493376"><ele>48.0</ele><time>2026-04-05T15:03:56Z</time></trkpt><trkpt lat="48.64127697570829" lon="-2.375156129401518"><ele>48.0</ele><time>2026-04-05T15:03:58Z</time></trkpt><trkpt lat="48.641206899533344" lon="-2.375260182265024"><ele>48.0</ele><time>2026-04-05T15:04:00Z</time></trkpt><trkpt lat="48.641137234602375" lon="-2.3753559972421336"><ele>48.166666666666664</ele><time>2026-04-05T15:04:02Z</time></trkpt><trkpt lat="48.641066845405525" lon="-2.375446846445873"><ele>48.33333333333333</ele><time>2026-04-05T15:04:04Z</time></trkpt><trkpt lat="48.641001730507945" lon="-2.3755267804350697"><ele>48.5</ele><time>2026-04-05T15:04:06Z</time></trkpt><trkpt lat="48.640942627679465" lon="-2.37559295420332"><ele>48.666666666666664</ele><time>2026-04-05T15:04:08Z</time></trkpt><trkpt lat="48.640889249532904" lon="-2.3756501339212885"><ele>48.83333333333333</ele><time>2026-04-05T15:04:10Z</time></trkpt><trkpt lat="48.64082930645689" lon="-2.3757091286457857"><ele>49.0</ele><time>2026-04-05T15:04:12Z</time></trkpt><trkpt lat="48.64076667652742" lon="-2.375767074137999"><ele>48.99999999999999</ele><time>2026-04-05T15:04:14Z</time></trkpt><trkpt lat="48.64070008346307" lon="-2.375831617879666"><ele>49.0</ele><time>2026-04-05T15:04:16Z</time></trkpt><trkpt lat="48.64063237259856" lon="-2.37590541454318"><ele>49.0</ele><time>2026-04-05T15:04:18Z</time></trkpt><trkpt lat="48.64056171024602" lon="-2.3759933799110073"><ele>49.0</ele><time>2026-04-05T15:04:20Z</time></trkpt><trkpt lat="48.64049036719145" lon="-2.376088405024147"><ele>48.99999999999999</ele><time>2026-04-05T15:04:22Z</time></trkpt><trkpt lat="48.64042700591487" lon="-2.3761977347714467"><ele>49.0</ele><time>2026-04-05T15:04:24Z</time></trkpt><trkpt lat="48.640364641139044" lon="-2.3762964343571653"><ele>49.0</ele><time>2026-04-05T15:04:26Z</time></trkpt><trkpt lat="48.6403345640014" lon="-2.3763933912937203"><ele>49.0</ele><time>2026-04-05T15:04:28Z</time></trkpt><trkpt lat="48.640381973916334" lon="-2.3765033242831373"><ele>49.0</ele><time>2026-04-05T15:04:29.999Z</time></trkpt><trkpt lat="48.64047047184672" lon="-2.376579942916515"><ele>49.0</ele><time>2026-04-05T15:04:31.999Z</time></trkpt><trkpt lat="48.64054804016728" lon="-2.376681971364503"><ele>49.0</ele><time>2026-04-05T15:04:33.999Z</time></trkpt><trkpt lat="48.640626559730364" lon="-2.3767856455714655"><ele>49.0</ele><time>2026-04-05T15:04:35.999Z</time></trkpt><trkpt lat="48.64070709832331" lon="-2.3768846903639864"><ele>49.0</ele><time>2026-04-05T15:04:37.999Z</time></trkpt><trkpt lat="48.640789912841456" lon="-2.3769934234337367"><ele>49.0</ele><time>2026-04-05T15:04:39.999Z</time></trkpt><trkpt lat="48.64087673509283" lon="-2.377100391071792"><ele>49.0</ele><time>2026-04-05T15:04:41.999Z</time></trkpt><trkpt lat="48.640963956121276" lon="-2.3772093391812965"><ele>49.0</ele><time>2026-04-05T15:04:43.999Z</time></trkpt><trkpt lat="48.641043448131285" lon="-2.377313163794169"><ele>48.800000000000004</ele><time>2026-04-05T15:04:45.999Z</time></trkpt><trkpt lat="48.64110414641403" lon="-2.377368945624007"><ele>48.6</ele><time>2026-04-05T15:04:47.999Z</time></trkpt><trkpt lat="48.64103258158753" lon="-2.377535380497303"><ele>48.4</ele><time>2026-04-05T15:04:48.999Z</time></trkpt><trkpt lat="48.64098022302434" lon="-2.377673606507584"><ele>48.2</ele><time>2026-04-05T15:04:50.999Z</time></trkpt><trkpt lat="48.64093675094289" lon="-2.377824601413656"><ele>48.0</ele><time>2026-04-05T15:04:52.999Z</time></trkpt><trkpt lat="48.64089215301857" lon="-2.377976460501101"><ele>48.2</ele><time>2026-04-05T15:04:54.999Z</time></trkpt><trkpt lat="48.64084463520512" lon="-2.3781272029953007"><ele>48.4</ele><time>2026-04-05T15:04:56.999Z</time></trkpt><trkpt lat="48.6407992546005" lon="-2.3782794514972396"><ele>48.6</ele><time>2026-04-05T15:04:58.999Z</time></trkpt><trkpt lat="48.64075213431364" lon="-2.3784301095007487"><ele>48.800000000000004</ele><time>2026-04-05T15:05:00.999Z</time></trkpt><trkpt lat="48.640708928582484" lon="-2.378581581526184"><ele>49.0</ele><time>2026-04-05T15:05:02.999Z</time></trkpt><trkpt lat="48.640662957679865" lon="-2.3787279396904775"><ele>48.75</ele><time>2026-04-05T15:05:04.999Z</time></trkpt><trkpt lat="48.64061655051008" lon="-2.3788770742258265"><ele>48.5</ele><time>2026-04-05T15:05:06.999Z</time></trkpt><trkpt lat="48.640570222961095" lon="-2.379022953734566"><ele>48.25</ele><time>2026-04-05T15:05:08.999Z</time></trkpt><trkpt lat="48.64050409689773" lon="-2.379227298162577"><ele>48.0</ele><time>2026-04-05T15:05:11.999Z</time></trkpt><trkpt lat="48.640447619339824" lon="-2.3793689232768878"><ele>48.0</ele><time>2026-04-05T15:05:13.999Z</time></trkpt><trkpt lat="48.64040846456109" lon="-2.3794524655387628"><ele>48.0</ele><time>2026-04-05T15:05:14.999Z</time></trkpt><trkpt lat="48.64035022752074" lon="-2.3795850877714386"><ele>48.0</ele><time>2026-04-05T15:05:16.999Z</time></trkpt><trkpt lat="48.640283578622245" lon="-2.3797208922530437"><ele>48.0</ele><time>2026-04-05T15:05:19Z</time></trkpt><trkpt lat="48.64023376957238" lon="-2.3798781626456904"><ele>48.0</ele><time>2026-04-05T15:05:21Z</time></trkpt><trkpt lat="48.64017493608718" lon="-2.380023310444786"><ele>47.8</ele><time>2026-04-05T15:05:23Z</time></trkpt><trkpt lat="48.640122745676095" lon="-2.380172542382849"><ele>47.599999999999994</ele><time>2026-04-05T15:05:25Z</time></trkpt><trkpt lat="48.640080462211" lon="-2.3803270578207902"><ele>47.400000000000006</ele><time>2026-04-05T15:05:27Z</time></trkpt><trkpt lat="48.64004212860397" lon="-2.380480019824004"><ele>47.2</ele><time>2026-04-05T15:05:29Z</time></trkpt><trkpt lat="48.64000711082953" lon="-2.3806410515846967"><ele>47.0</ele><time>2026-04-05T15:05:31Z</time></trkpt><trkpt lat="48.63995825479505" lon="-2.380802509495154"><ele>47.0</ele><time>2026-04-05T15:05:33Z</time></trkpt><trkpt lat="48.639928633671694" lon="-2.3809734906176403"><ele>47.0</ele><time>2026-04-05T15:05:35Z</time></trkpt><trkpt lat="48.63990997612681" lon="-2.3811472168717778"><ele>47.0</ele><time>2026-04-05T15:05:37Z</time></trkpt><trkpt lat="48.63989308594794" lon="-2.3813227655788456"><ele>47.0</ele><time>2026-04-05T15:05:39Z</time></trkpt><trkpt lat="48.63988605443458" lon="-2.3814995287180967"><ele>47.0</ele><time>2026-04-05T15:05:41Z</time></trkpt><trkpt lat="48.63989463614316" lon="-2.381685425804422"><ele>47.0</ele><time>2026-04-05T15:05:43Z</time></trkpt><trkpt lat="48.63988564331273" lon="-2.3818693181864607"><ele>47.0</ele><time>2026-04-05T15:05:45Z</time></trkpt><trkpt lat="48.63990385001538" lon="-2.382048546659311"><ele>47.0</ele><time>2026-04-05T15:05:47Z</time></trkpt><trkpt lat="48.63992660761761" lon="-2.382226317890685"><ele>47.0</ele><time>2026-04-05T15:05:49Z</time></trkpt><trkpt lat="48.639951714950485" lon="-2.382400554314183"><ele>47.0</ele><time>2026-04-05T15:05:51Z</time></trkpt><trkpt lat="48.63997592598056" lon="-2.382573243691013"><ele>47.0</ele><time>2026-04-05T15:05:53Z</time></trkpt><trkpt lat="48.639990468427776" lon="-2.3827424010953098"><ele>47.0</ele><time>2026-04-05T15:05:55Z</time></trkpt><trkpt lat="48.640003359456735" lon="-2.382911826310198"><ele>47.400000000000006</ele><time>2026-04-05T15:05:57Z</time></trkpt><trkpt lat="48.64000524079522" lon="-2.3830821040850747"><ele>47.800000000000004</ele><time>2026-04-05T15:05:59Z</time></trkpt><trkpt lat="48.63999977658441" lon="-2.3832452528358083"><ele>48.2</ele><time>2026-04-05T15:06:01Z</time></trkpt><trkpt lat="48.63999361572257" lon="-2.3834070241265204"><ele>48.6</ele><time>2026-04-05T15:06:03Z</time></trkpt><trkpt lat="48.63998890281611" lon="-2.383552647296951"><ele>49.0</ele><time>2026-04-05T15:06:05Z</time></trkpt><trkpt lat="48.64000048129141" lon="-2.383699205295549"><ele>49.0</ele><time>2026-04-05T15:06:08Z</time></trkpt><trkpt lat="48.640025059075796" lon="-2.3838061161708937"><ele>49.0</ele><time>2026-04-05T15:06:10Z</time></trkpt><trkpt lat="48.64009961918468" lon="-2.383926079467756"><ele>49.0</ele><time>2026-04-05T15:06:12Z</time></trkpt><trkpt lat="48.64018617939073" lon="-2.3839927529102085"><ele>49.0</ele><time>2026-04-05T15:06:14Z</time></trkpt><trkpt lat="48.64025655796631" lon="-2.384089760285694"><ele>49.0</ele><time>2026-04-05T15:06:16Z</time></trkpt><trkpt lat="48.6402863692994" lon="-2.3842330131370586"><ele>49.2</ele><time>2026-04-05T15:06:18Z</time></trkpt><trkpt lat="48.640295097470464" lon="-2.384385968050549"><ele>49.400000000000006</ele><time>2026-04-05T15:06:20Z</time></trkpt><trkpt lat="48.6402835824492" lon="-2.384545591800381"><ele>49.6</ele><time>2026-04-05T15:06:22Z</time></trkpt><trkpt lat="48.64027692149052" lon="-2.384673837593607"><ele>49.8</ele><time>2026-04-05T15:06:24Z</time></trkpt><trkpt lat="48.64025473924452" lon="-2.3847788446188547"><ele>50.0</ele><time>2026-04-05T15:06:26Z</time></trkpt><trkpt lat="48.64023186562541" lon="-2.3849075491876914"><ele>50.00000000000001</ele><time>2026-04-05T15:06:28Z</time></trkpt><trkpt lat="48.640236219631475" lon="-2.385092380519748"><ele>50.0</ele><time>2026-04-05T15:06:31Z</time></trkpt><trkpt lat="48.640259077505235" lon="-2.385217773784864"><ele>50.0</ele><time>2026-04-05T15:06:32Z</time></trkpt><trkpt lat="48.640311756540626" lon="-2.3853029946282023"><ele>50.0</ele><time>2026-04-05T15:06:34Z</time></trkpt><trkpt lat="48.640362602862616" lon="-2.385396248891549"><ele>50.00000000000001</ele><time>2026-04-05T15:06:36Z</time></trkpt><trkpt lat="48.64041989127216" lon="-2.385486003122915"><ele>50.0</ele><time>2026-04-05T15:06:38Z</time></trkpt><trkpt lat="48.640479236958654" lon="-2.3855768238257906"><ele>50.2</ele><time>2026-04-05T15:06:40Z</time></trkpt><trkpt lat="48.64053826244139" lon="-2.3856750626015675"><ele>50.4</ele><time>2026-04-05T15:06:42Z</time></trkpt><trkpt lat="48.64060536152845" lon="-2.3857887390956884"><ele>50.599999999999994</ele><time>2026-04-05T15:06:43.999Z</time></trkpt><trkpt lat="48.64067391177799" lon="-2.385905080919158"><ele>50.8</ele><time>2026-04-05T15:06:45.999Z</time></trkpt><trkpt lat="48.64073870074977" lon="-2.386018937265505"><ele>51.0</ele><time>2026-04-05T15:06:47.999Z</time></trkpt><trkpt lat="48.64080670776372" lon="-2.3861188296631326"><ele>51.0</ele><time>2026-04-05T15:06:49.999Z</time></trkpt><trkpt lat="48.640855464854866" lon="-2.386222262989059"><ele>51.0</ele><time>2026-04-05T15:06:51.999Z</time></trkpt><trkpt lat="48.640920717049504" lon="-2.386328365918951"><ele>51.0</ele><time>2026-04-05T15:06:53.999Z</time></trkpt><trkpt lat="48.640978126737735" lon="-2.3864388291943697"><ele>51.0</ele><time>2026-04-05T15:06:55.999Z</time></trkpt><trkpt lat="48.64106217680357" lon="-2.3865398662134862"><ele>51.0</ele><time>2026-04-05T15:06:57.999Z</time></trkpt><trkpt lat="48.64115543412109" lon="-2.3866417689437087"><ele>51.199999999999996</ele><time>2026-04-05T15:06:59.999Z</time></trkpt><trkpt lat="48.64123963280615" lon="-2.3867482528775223"><ele>51.4</ele><time>2026-04-05T15:07:01.999Z</time></trkpt><trkpt lat="48.64132665221316" lon="-2.3868520831397233"><ele>51.6</ele><time>2026-04-05T15:07:03.999Z</time></trkpt><trkpt lat="48.64141069087194" lon="-2.386958099691463"><ele>51.8</ele><time>2026-04-05T15:07:05.999Z</time></trkpt><trkpt lat="48.64149614983596" lon="-2.3870688714223514"><ele>52.0</ele><time>2026-04-05T15:07:07.999Z</time></trkpt><trkpt lat="48.64157829253623" lon="-2.387183931566491"><ele>52.0</ele><time>2026-04-05T15:07:09.999Z</time></trkpt><trkpt lat="48.64166249934807" lon="-2.387285614358637"><ele>52.0</ele><time>2026-04-05T15:07:11.999Z</time></trkpt><trkpt lat="48.64174216541966" lon="-2.3873944089324306"><ele>52.0</ele><time>2026-04-05T15:07:13.999Z</time></trkpt><trkpt lat="48.6418198693249" lon="-2.387503389971242"><ele>52.0</ele><time>2026-04-05T15:07:15.999Z</time></trkpt><trkpt lat="48.64191076632529" lon="-2.3876260574496344"><ele>52.0</ele><time>2026-04-05T15:07:18.999Z</time></trkpt><trkpt lat="48.64197015064909" lon="-2.387693969470064"><ele>51.99999999999999</ele><time>2026-04-05T15:07:19.999Z</time></trkpt><trkpt lat="48.64204438916035" lon="-2.387786625081042"><ele>52.0</ele><time>2026-04-05T15:07:21.999Z</time></trkpt><trkpt lat="48.64210290482708" lon="-2.3878364090123343"><ele>52.0</ele><time>2026-04-05T15:07:23.999Z</time></trkpt><trkpt lat="48.642171943197" lon="-2.38790887001366"><ele>52.0</ele><time>2026-04-05T15:07:25Z</time></trkpt><trkpt lat="48.64225648446931" lon="-2.3879797920681676"><ele>51.99999999999999</ele><time>2026-04-05T15:07:27Z</time></trkpt><trkpt lat="48.642325056776336" lon="-2.388070263752814"><ele>52.0</ele><time>2026-04-05T15:07:30Z</time></trkpt><trkpt lat="48.64238208458109" lon="-2.388152554765781"><ele>51.99999999999999</ele><time>2026-04-05T15:07:33Z</time></trkpt><trkpt lat="48.64243736283725" lon="-2.388220264613683"><ele>52.0</ele><time>2026-04-05T15:07:34Z</time></trkpt><trkpt lat="48.64250915355765" lon="-2.388296409793619"><ele>52.0</ele><time>2026-04-05T15:07:36Z</time></trkpt><trkpt lat="48.64257692504876" lon="-2.388380473798171"><ele>52.0</ele><time>2026-04-05T15:07:38Z</time></trkpt><trkpt lat="48.642641830851666" lon="-2.388461606722842"><ele>51.99999999999999</ele><time>2026-04-05T15:07:40Z</time></trkpt><trkpt lat="48.64271398441828" lon="-2.388533998309308"><ele>52.0</ele><time>2026-04-05T15:07:42Z</time></trkpt><trkpt lat="48.6427788214123" lon="-2.388610359315396"><ele>51.99999999999999</ele><time>2026-04-05T15:07:44Z</time></trkpt><trkpt lat="48.64283868595958" lon="-2.388691580774172"><ele>52.0</ele><time>2026-04-05T15:07:46Z</time></trkpt><trkpt lat="48.64287608901261" lon="-2.3887829854853297"><ele>52.0</ele><time>2026-04-05T15:07:49Z</time></trkpt><trkpt lat="48.64284667926895" lon="-2.388938970420044"><ele>52.0</ele><time>2026-04-05T15:07:52Z</time></trkpt><trkpt lat="48.64278635350395" lon="-2.3890109330127363"><ele>51.99999999999999</ele><time>2026-04-05T15:07:54Z</time></trkpt><trkpt lat="48.64273838302102" lon="-2.3891023906678983"><ele>52.0</ele><time>2026-04-05T15:07:56Z</time></trkpt><trkpt lat="48.64268629163869" lon="-2.3891976147940985"><ele>51.400000000000006</ele><time>2026-04-05T15:07:58Z</time></trkpt><trkpt lat="48.64261994106402" lon="-2.389301284793215"><ele>50.800000000000004</ele><time>2026-04-05T15:08:00Z</time></trkpt><trkpt lat="48.642559952853105" lon="-2.3894160665065445"><ele>50.2</ele><time>2026-04-05T15:08:02Z</time></trkpt><trkpt lat="48.64250008853839" lon="-2.389529111159728"><ele>49.6</ele><time>2026-04-05T15:08:04Z</time></trkpt><trkpt lat="48.64244150850352" lon="-2.38964622461999"><ele>49.0</ele><time>2026-04-05T15:08:06Z</time></trkpt><trkpt lat="48.6423777752924" lon="-2.3897673284544956"><ele>48.2</ele><time>2026-04-05T15:08:08Z</time></trkpt><trkpt lat="48.642315063197174" lon="-2.389876625895579"><ele>47.400000000000006</ele><time>2026-04-05T15:08:10Z</time></trkpt><trkpt lat="48.64224496130737" lon="-2.3899839929331708"><ele>46.6</ele><time>2026-04-05T15:08:12Z</time></trkpt><trkpt lat="48.64218215840326" lon="-2.3900976498321578"><ele>45.8</ele><time>2026-04-05T15:08:14Z</time></trkpt><trkpt lat="48.64210635001441" lon="-2.3902279471487535"><ele>45.0</ele><time>2026-04-05T15:08:16Z</time></trkpt><trkpt lat="48.64203068625311" lon="-2.3903630382400363"><ele>45.5</ele><time>2026-04-05T15:08:18Z</time></trkpt><trkpt lat="48.64195243656405" lon="-2.3904971448381644"><ele>46.0</ele><time>2026-04-05T15:08:20Z</time></trkpt><trkpt lat="48.641876312262674" lon="-2.390628703787701"><ele>46.5</ele><time>2026-04-05T15:08:22Z</time></trkpt><trkpt lat="48.641801008273156" lon="-2.3907566932388256"><ele>47.0</ele><time>2026-04-05T15:08:24Z</time></trkpt><trkpt lat="48.64172264493208" lon="-2.3908951771170344"><ele>47.0</ele><time>2026-04-05T15:08:26Z</time></trkpt><trkpt lat="48.64164715446657" lon="-2.3910450747912684"><ele>47.0</ele><time>2026-04-05T15:08:28Z</time></trkpt><trkpt lat="48.641570244154906" lon="-2.3911869979992733"><ele>47.0</ele><time>2026-04-05T15:08:30Z</time></trkpt><trkpt lat="48.64153019756429" lon="-2.391264717931499"><ele>47.0</ele><time>2026-04-05T15:08:31Z</time></trkpt><trkpt lat="48.641489125825174" lon="-2.391339977466828"><ele>47.0</ele><time>2026-04-05T15:08:32Z</time></trkpt><trkpt lat="48.64144417550603" lon="-2.3914208964886563"><ele>47.0</ele><time>2026-04-05T15:08:33Z</time></trkpt><trkpt lat="48.64139826973053" lon="-2.3915115382308696"><ele>46.666666666666664</ele><time>2026-04-05T15:08:34Z</time></trkpt><trkpt lat="48.64134935786307" lon="-2.391608756934615"><ele>46.33333333333333</ele><time>2026-04-05T15:08:35Z</time></trkpt><trkpt lat="48.64130108850643" lon="-2.3917089936535714"><ele>46.0</ele><time>2026-04-05T15:08:36Z</time></trkpt><trkpt lat="48.641249650314265" lon="-2.3918151235527447"><ele>45.666666666666664</ele><time>2026-04-05T15:08:37Z</time></trkpt><trkpt lat="48.64119431252646" lon="-2.391919007834006"><ele>45.333333333333336</ele><time>2026-04-05T15:08:37.999Z</time></trkpt><trkpt lat="48.64113602267194" lon="-2.39203126794656"><ele>45.0</ele><time>2026-04-05T15:08:38.999Z</time></trkpt><trkpt lat="48.64107998224002" lon="-2.3921433189839143"><ele>43.8</ele><time>2026-04-05T15:08:39.999Z</time></trkpt><trkpt lat="48.64102509626109" lon="-2.392261569952299"><ele>42.6</ele><time>2026-04-05T15:08:40.999Z</time></trkpt><trkpt lat="48.64097079196341" lon="-2.392386462312871"><ele>41.4</ele><time>2026-04-05T15:08:41.999Z</time></trkpt><trkpt lat="48.6409140898284" lon="-2.392514667411215"><ele>40.2</ele><time>2026-04-05T15:08:42.999Z</time></trkpt><trkpt lat="48.64085768620175" lon="-2.3926445117089643"><ele>39.0</ele><time>2026-04-05T15:08:43.999Z</time></trkpt><trkpt lat="48.64080449070839" lon="-2.392775660397297"><ele>39.0</ele><time>2026-04-05T15:08:44.999Z</time></trkpt><trkpt lat="48.64074808130364" lon="-2.3929087642770424"><ele>39.0</ele><time>2026-04-05T15:08:45.999Z</time></trkpt><trkpt lat="48.640690935694394" lon="-2.393053627264118"><ele>39.0</ele><time>2026-04-05T15:08:46.999Z</time></trkpt><trkpt lat="48.64063646363579" lon="-2.393191170629035"><ele>39.0</ele><time>2026-04-05T15:08:47.999Z</time></trkpt><trkpt lat="48.64059210456605" lon="-2.3933228509852924"><ele>39.0</ele><time>2026-04-05T15:08:48.999Z</time></trkpt><trkpt lat="48.64056200132513" lon="-2.3934475192086437"><ele>38.6</ele><time>2026-04-05T15:08:49.999Z</time></trkpt><trkpt lat="48.64053537065835" lon="-2.393556027791744"><ele>38.2</ele><time>2026-04-05T15:08:50.999Z</time></trkpt><trkpt lat="48.64051190164483" lon="-2.3936569908347507"><ele>37.800000000000004</ele><time>2026-04-05T15:08:51.999Z</time></trkpt><trkpt lat="48.64044254872465" lon="-2.3938046939837103"><ele>37.4</ele><time>2026-04-05T15:08:53.999Z</time></trkpt><trkpt lat="48.64033979432228" lon="-2.393911715489895"><ele>37.0</ele><time>2026-04-05T15:08:55.999Z</time></trkpt><trkpt lat="48.640282810422825" lon="-2.3939855337396247"><ele>37.833333333333336</ele><time>2026-04-05T15:08:57.999Z</time></trkpt><trkpt lat="48.6402409851136" lon="-2.3940942718303053"><ele>38.66666666666667</ele><time>2026-04-05T15:08:59.999Z</time></trkpt><trkpt lat="48.640210193465805" lon="-2.3942140847296742"><ele>39.5</ele><time>2026-04-05T15:09:01.999Z</time></trkpt><trkpt lat="48.64017112095598" lon="-2.3943351319734845"><ele>40.333333333333336</ele><time>2026-04-05T15:09:03.999Z</time></trkpt><trkpt lat="48.640109378319956" lon="-2.3944282461398556"><ele>41.166666666666664</ele><time>2026-04-05T15:09:05.999Z</time></trkpt><trkpt lat="48.64002550887204" lon="-2.3945023089555453"><ele>42.0</ele><time>2026-04-05T15:09:07.999Z</time></trkpt><trkpt lat="48.63993017983225" lon="-2.3945389239124037"><ele>42.0</ele><time>2026-04-05T15:09:09.999Z</time></trkpt><trkpt lat="48.639836958630305" lon="-2.394563962672713"><ele>42.0</ele><time>2026-04-05T15:09:11.999Z</time></trkpt><trkpt lat="48.639744824674395" lon="-2.394595389835756"><ele>42.0</ele><time>2026-04-05T15:09:13.999Z</time></trkpt><trkpt lat="48.639649533606786" lon="-2.3946271416776184"><ele>42.0</ele><time>2026-04-05T15:09:15.999Z</time></trkpt><trkpt lat="48.63955354983964" lon="-2.3946618701489415"><ele>42.0</ele><time>2026-04-05T15:09:17.999Z</time></trkpt><trkpt lat="48.63948539452524" lon="-2.394701427039581"><ele>42.333333333333336</ele><time>2026-04-05T15:09:18.999Z</time></trkpt><trkpt lat="48.639400693902374" lon="-2.39471072808152"><ele>42.666666666666664</ele><time>2026-04-05T15:09:20.999Z</time></trkpt><trkpt lat="48.63931636382894" lon="-2.39473990965221"><ele>43.0</ele><time>2026-04-05T15:09:22.999Z</time></trkpt><trkpt lat="48.639231003150066" lon="-2.394763935884871"><ele>43.33333333333333</ele><time>2026-04-05T15:09:26.999Z</time></trkpt><trkpt lat="48.639168931761894" lon="-2.394791591259629"><ele>43.666666666666664</ele><time>2026-04-05T15:09:28.999Z</time></trkpt><trkpt lat="48.639089940441664" lon="-2.3948109853366755"><ele>44.0</ele><time>2026-04-05T15:09:31Z</time></trkpt><trkpt lat="48.63899862982258" lon="-2.394867503248893"><ele>44.0</ele><time>2026-04-05T15:09:33Z</time></trkpt><trkpt lat="48.63893232844307" lon="-2.3948931316703574"><ele>44.0</ele><time>2026-04-05T15:09:35Z</time></trkpt><trkpt lat="48.638921076066" lon="-2.3950123792517353"><ele>44.0</ele><time>2026-04-05T15:09:36Z</time></trkpt><trkpt lat="48.63893437923841" lon="-2.395118023247276"><ele>44.0</ele><time>2026-04-05T15:09:38Z</time></trkpt><trkpt lat="48.63892348997941" lon="-2.395235373765894"><ele>44.0</ele><time>2026-04-05T15:09:40Z</time></trkpt><trkpt lat="48.638915057772145" lon="-2.395362497195919"><ele>44.0</ele><time>2026-04-05T15:09:42Z</time></trkpt><trkpt lat="48.638910588599174" lon="-2.395486554385599"><ele>44.400000000000006</ele><time>2026-04-05T15:09:44Z</time></trkpt><trkpt lat="48.63888502464987" lon="-2.3956213978400847"><ele>44.8</ele><time>2026-04-05T15:09:46Z</time></trkpt><trkpt lat="48.638852209084746" lon="-2.3957602635379174"><ele>45.2</ele><time>2026-04-05T15:09:48Z</time></trkpt><trkpt lat="48.638794347138656" lon="-2.395915294624573"><ele>45.599999999999994</ele><time>2026-04-05T15:09:52Z</time></trkpt><trkpt lat="48.63876216059848" lon="-2.3960119491416276"><ele>46.0</ele><time>2026-04-05T15:09:54Z</time></trkpt><trkpt lat="48.6387156910931" lon="-2.39610134669273"><ele>46.0</ele><time>2026-04-05T15:09:55Z</time></trkpt><trkpt lat="48.63867154101478" lon="-2.396247645855332"><ele>46.0</ele><time>2026-04-05T15:09:57Z</time></trkpt><trkpt lat="48.6386064685462" lon="-2.3963493172970725"><ele>46.0</ele><time>2026-04-05T15:09:59Z</time></trkpt><trkpt lat="48.63855752588861" lon="-2.396484049675848"><ele>46.0</ele><time>2026-04-05T15:10:01Z</time></trkpt><trkpt lat="48.638585071375665" lon="-2.3965956614854154"><ele>46.0</ele><time>2026-04-05T15:10:02Z</time></trkpt><trkpt lat="48.63862267517183" lon="-2.3967624028076138"><ele>45.599999999999994</ele><time>2026-04-05T15:10:04Z</time></trkpt><trkpt lat="48.63866735648598" lon="-2.3969359909633474"><ele>45.2</ele><time>2026-04-05T15:10:06Z</time></trkpt><trkpt lat="48.63868734096062" lon="-2.3970266795620963"><ele>44.8</ele><time>2026-04-05T15:10:07Z</time></trkpt><trkpt lat="48.63870217769165" lon="-2.3971239641181636"><ele>44.400000000000006</ele><time>2026-04-05T15:10:08Z</time></trkpt><trkpt lat="48.63874717386692" lon="-2.397316487327701"><ele>44.0</ele><time>2026-04-05T15:10:10Z</time></trkpt><trkpt lat="48.638764952979415" lon="-2.397422381873341"><ele>43.400000000000006</ele><time>2026-04-05T15:10:11Z</time></trkpt><trkpt lat="48.6387800341171" lon="-2.3975306891798587"><ele>42.8</ele><time>2026-04-05T15:10:12Z</time></trkpt><trkpt lat="48.63879207335216" lon="-2.3976431709174557"><ele>42.2</ele><time>2026-04-05T15:10:13Z</time></trkpt><trkpt lat="48.638802575414715" lon="-2.3977504172390414"><ele>41.599999999999994</ele><time>2026-04-05T15:10:14Z</time></trkpt><trkpt lat="48.63881792776633" lon="-2.3979374443796093"><ele>41.0</ele><time>2026-04-05T15:10:16Z</time></trkpt><trkpt lat="48.63884632277022" lon="-2.398094964548945"><ele>40.5</ele><time>2026-04-05T15:10:18Z</time></trkpt><trkpt lat="48.638859935876894" lon="-2.398243710634373"><ele>40.0</ele><time>2026-04-05T15:10:20Z</time></trkpt><trkpt lat="48.63887089110722" lon="-2.398381091551809"><ele>39.5</ele><time>2026-04-05T15:10:22Z</time></trkpt><trkpt lat="48.638878209826835" lon="-2.398495226697"><ele>39.0</ele><time>2026-04-05T15:10:24Z</time></trkpt><trkpt lat="48.6388722151321" lon="-2.398613819536629"><ele>38.5</ele><time>2026-04-05T15:10:26Z</time></trkpt><trkpt lat="48.63886762054815" lon="-2.398715776728236"><ele>38.0</ele><time>2026-04-05T15:10:28Z</time></trkpt><trkpt lat="48.63885491112388" lon="-2.3988184420493286"><ele>37.83333333333333</ele><time>2026-04-05T15:10:30Z</time></trkpt><trkpt lat="48.638795340101844" lon="-2.398907169550111"><ele>37.666666666666664</ele><time>2026-04-05T15:10:32Z</time></trkpt><trkpt lat="48.63873526215575" lon="-2.3989726646731193"><ele>37.5</ele><time>2026-04-05T15:10:34Z</time></trkpt><trkpt lat="48.6386628667426" lon="-2.3990383100384447"><ele>37.333333333333336</ele><time>2026-04-05T15:10:36Z</time></trkpt><trkpt lat="48.63858582610424" lon="-2.399116014750596"><ele>37.16666666666667</ele><time>2026-04-05T15:10:38Z</time></trkpt><trkpt lat="48.63850179394907" lon="-2.3992024468529363"><ele>37.0</ele><time>2026-04-05T15:10:40Z</time></trkpt><trkpt lat="48.63841170351628" lon="-2.399315052107482"><ele>37.5</ele><time>2026-04-05T15:10:41.999Z</time></trkpt><trkpt lat="48.63830026973166" lon="-2.399397347881334"><ele>38.0</ele><time>2026-04-05T15:10:43.999Z</time></trkpt><trkpt lat="48.638248334422016" lon="-2.3994541335262203"><ele>38.5</ele><time>2026-04-05T15:10:44.999Z</time></trkpt><trkpt lat="48.638189220407405" lon="-2.3995116644098147"><ele>39.0</ele><time>2026-04-05T15:10:45.999Z</time></trkpt><trkpt lat="48.63812723786564" lon="-2.399562784231176"><ele>39.5</ele><time>2026-04-05T15:10:46.999Z</time></trkpt><trkpt lat="48.63806390075153" lon="-2.399605564924765"><ele>40.0</ele><time>2026-04-05T15:10:47.999Z</time></trkpt><trkpt lat="48.637991572861495" lon="-2.3996394768856906"><ele>40.0</ele><time>2026-04-05T15:10:48.999Z</time></trkpt><trkpt lat="48.63791765043581" lon="-2.3996542831335925"><ele>40.0</ele><time>2026-04-05T15:10:49.999Z</time></trkpt><trkpt lat="48.63784990393807" lon="-2.399662595039557"><ele>40.0</ele><time>2026-04-05T15:10:50.999Z</time></trkpt><trkpt lat="48.63777754644981" lon="-2.399647727118922"><ele>40.0</ele><time>2026-04-05T15:10:51.999Z</time></trkpt><trkpt lat="48.6377100031085" lon="-2.399639522004369"><ele>40.0</ele><time>2026-04-05T15:10:52.999Z</time></trkpt><trkpt lat="48.63764806632693" lon="-2.3996176517562704"><ele>40.0</ele><time>2026-04-05T15:10:53.999Z</time></trkpt><trkpt lat="48.63754849450671" lon="-2.3995838445272915"><ele>40.0</ele><time>2026-04-05T15:10:55.999Z</time></trkpt><trkpt lat="48.63747165442169" lon="-2.3995832249736684"><ele>38.0</ele><time>2026-04-05T15:10:58.999Z</time></trkpt><trkpt lat="48.63744494725251" lon="-2.399735089217571"><ele>36.0</ele><time>2026-04-05T15:11:01.999Z</time></trkpt><trkpt lat="48.63749041694972" lon="-2.3998395628790288"><ele>34.0</ele><time>2026-04-05T15:11:03.999Z</time></trkpt><trkpt lat="48.63755729813634" lon="-2.3999142112612026"><ele>32.0</ele><time>2026-04-05T15:11:05.999Z</time></trkpt><trkpt lat="48.63763830226322" lon="-2.399988065268558"><ele>30.0</ele><time>2026-04-05T15:11:07.999Z</time></trkpt><trkpt lat="48.63773773580134" lon="-2.4000786318311866"><ele>30.0</ele><time>2026-04-05T15:11:09.999Z</time></trkpt><trkpt lat="48.63779248379437" lon="-2.4001324192258777"><ele>30.0</ele><time>2026-04-05T15:11:10.999Z</time></trkpt><trkpt lat="48.6378493180388" lon="-2.400186993666728"><ele>30.0</ele><time>2026-04-05T15:11:11.999Z</time></trkpt><trkpt lat="48.63791132792232" lon="-2.4002413582412334"><ele>30.0</ele><time>2026-04-05T15:11:12.999Z</time></trkpt><trkpt lat="48.63797290205705" lon="-2.400305519612486"><ele>30.0</ele><time>2026-04-05T15:11:13.999Z</time></trkpt><trkpt lat="48.63803644112134" lon="-2.400355704658322"><ele>30.0</ele><time>2026-04-05T15:11:14.999Z</time></trkpt><trkpt lat="48.638130412382324" lon="-2.40044710550402"><ele>28.833333333333332</ele><time>2026-04-05T15:11:16.999Z</time></trkpt><trkpt lat="48.63823802546205" lon="-2.400553669287708"><ele>27.666666666666668</ele><time>2026-04-05T15:11:18.999Z</time></trkpt><trkpt lat="48.63829532133492" lon="-2.4006126121642866"><ele>26.5</ele><time>2026-04-05T15:11:19.999Z</time></trkpt><trkpt lat="48.638358629758365" lon="-2.400665932360858"><ele>25.333333333333336</ele><time>2026-04-05T15:11:20.999Z</time></trkpt><trkpt lat="48.63842381512606" lon="-2.400723096398677"><ele>24.166666666666668</ele><time>2026-04-05T15:11:21.999Z</time></trkpt><trkpt lat="48.638490487050596" lon="-2.4007839457092315"><ele>23.0</ele><time>2026-04-05T15:11:22.999Z</time></trkpt><trkpt lat="48.63856566951329" lon="-2.400838501286623"><ele>23.0</ele><time>2026-04-05T15:11:23.999Z</time></trkpt><trkpt lat="48.63862989901598" lon="-2.400896797453263"><ele>23.0</ele><time>2026-04-05T15:11:24.999Z</time></trkpt><trkpt lat="48.63869378159592" lon="-2.4009542949144373"><ele>23.0</ele><time>2026-04-05T15:11:25.999Z</time></trkpt><trkpt lat="48.63876857511677" lon="-2.401020374932575"><ele>23.0</ele><time>2026-04-05T15:11:26.999Z</time></trkpt><trkpt lat="48.6388417792722" lon="-2.4010804146802207"><ele>23.0</ele><time>2026-04-05T15:11:27.999Z</time></trkpt><trkpt lat="48.638911572936024" lon="-2.401145835222092"><ele>23.0</ele><time>2026-04-05T15:11:28.999Z</time></trkpt><trkpt lat="48.63897262920313" lon="-2.4012053193762832"><ele>22.4</ele><time>2026-04-05T15:11:29.999Z</time></trkpt><trkpt lat="48.63902837913414" lon="-2.4012575620411605"><ele>21.799999999999997</ele><time>2026-04-05T15:11:30.999Z</time></trkpt><trkpt lat="48.63911469276239" lon="-2.4013406035390803"><ele>21.2</ele><time>2026-04-05T15:11:32.999Z</time></trkpt><trkpt lat="48.639168710627175" lon="-2.401391497168549"><ele>20.6</ele><time>2026-04-05T15:11:34.999Z</time></trkpt><trkpt lat="48.63908515182472" lon="-2.401566679011013"><ele>20.0</ele><time>2026-04-05T15:11:37Z</time></trkpt><trkpt lat="48.639021695045315" lon="-2.401657116006547"><ele>20.0</ele><time>2026-04-05T15:11:39Z</time></trkpt><trkpt lat="48.63896241513063" lon="-2.4017249354747254"><ele>20.0</ele><time>2026-04-05T15:11:41Z</time></trkpt><trkpt lat="48.63889019891487" lon="-2.4017868115027743"><ele>20.0</ele><time>2026-04-05T15:11:43Z</time></trkpt><trkpt lat="48.63883230743852" lon="-2.401853003406878"><ele>20.0</ele><time>2026-04-05T15:11:45Z</time></trkpt><trkpt lat="48.63876010643737" lon="-2.401908871946421"><ele>20.0</ele><time>2026-04-05T15:11:47Z</time></trkpt><trkpt lat="48.63867272621401" lon="-2.4019362976781315"><ele>20.0</ele><time>2026-04-05T15:11:49Z</time></trkpt><trkpt lat="48.638592213190925" lon="-2.4020122414035"><ele>20.0</ele><time>2026-04-05T15:11:51Z</time></trkpt><trkpt lat="48.63850666903421" lon="-2.4020750655949894"><ele>20.0</ele><time>2026-04-05T15:11:53Z</time></trkpt><trkpt lat="48.638416542242666" lon="-2.4021008531567944"><ele>20.0</ele><time>2026-04-05T15:11:55Z</time></trkpt><trkpt lat="48.638339926755854" lon="-2.4021373303274713"><ele>20.0</ele><time>2026-04-05T15:11:57Z</time></trkpt><trkpt lat="48.63826577851362" lon="-2.4021649826885927"><ele>20.0</ele><time>2026-04-05T15:11:59Z</time></trkpt><trkpt lat="48.63819345516632" lon="-2.402262167137784"><ele>20.0</ele><time>2026-04-05T15:12:01Z</time></trkpt><trkpt lat="48.63821383669715" lon="-2.402391000651536"><ele>19.6</ele><time>2026-04-05T15:12:03Z</time></trkpt><trkpt lat="48.63824544630866" lon="-2.4025209706455137"><ele>19.2</ele><time>2026-04-05T15:12:05Z</time></trkpt><trkpt lat="48.63829799967345" lon="-2.402648091411938"><ele>18.8</ele><time>2026-04-05T15:12:07Z</time></trkpt><trkpt lat="48.63836446694079" lon="-2.402791841654689"><ele>18.4</ele><time>2026-04-05T15:12:09Z</time></trkpt><trkpt lat="48.63843408765539" lon="-2.4029271610773395"><ele>18.0</ele><time>2026-04-05T15:12:11Z</time></trkpt><trkpt lat="48.63850360602821" lon="-2.403074227296403"><ele>17.8</ele><time>2026-04-05T15:12:13Z</time></trkpt><trkpt lat="48.63857307523781" lon="-2.403211155370882"><ele>17.6</ele><time>2026-04-05T15:12:15Z</time></trkpt><trkpt lat="48.63864199801217" lon="-2.403341894505411"><ele>17.4</ele><time>2026-04-05T15:12:17Z</time></trkpt><trkpt lat="48.63870767560107" lon="-2.4034693004770307"><ele>17.2</ele><time>2026-04-05T15:12:19Z</time></trkpt><trkpt lat="48.63876320707334" lon="-2.4035846419573335"><ele>17.0</ele><time>2026-04-05T15:12:21Z</time></trkpt><trkpt lat="48.63882088580211" lon="-2.403698313789966"><ele>16.8</ele><time>2026-04-05T15:12:23Z</time></trkpt><trkpt lat="48.6388781367568" lon="-2.4038099730989244"><ele>16.6</ele><time>2026-04-05T15:12:25Z</time></trkpt><trkpt lat="48.63893041528364" lon="-2.403912082919374"><ele>16.400000000000002</ele><time>2026-04-05T15:12:27Z</time></trkpt><trkpt lat="48.638978534051326" lon="-2.404023869792613"><ele>16.2</ele><time>2026-04-05T15:12:29Z</time></trkpt><trkpt lat="48.639035267226795" lon="-2.4041363164153537"><ele>16.0</ele><time>2026-04-05T15:12:31Z</time></trkpt><trkpt lat="48.639091741094475" lon="-2.4042427613690283"><ele>15.999999999999998</ele><time>2026-04-05T15:12:33Z</time></trkpt><trkpt lat="48.63914705159521" lon="-2.4043401925355363"><ele>16.0</ele><time>2026-04-05T15:12:35Z</time></trkpt><trkpt lat="48.63919410290847" lon="-2.404442076945657"><ele>16.0</ele><time>2026-04-05T15:12:37Z</time></trkpt><trkpt lat="48.63923941860035" lon="-2.4045262918559427"><ele>16.0</ele><time>2026-04-05T15:12:39Z</time></trkpt><trkpt lat="48.63928191647068" lon="-2.4046079746503133"><ele>15.999999999999998</ele><time>2026-04-05T15:12:41Z</time></trkpt><trkpt lat="48.63932748921471" lon="-2.4046962013145974"><ele>16.0</ele><time>2026-04-05T15:12:45Z</time></trkpt><trkpt lat="48.639360332039935" lon="-2.404797164744822"><ele>15.8</ele><time>2026-04-05T15:12:48Z</time></trkpt><trkpt lat="48.63937051341991" lon="-2.404948167496126"><ele>15.600000000000001</ele><time>2026-04-05T15:12:50.999Z</time></trkpt><trkpt lat="48.639373133635715" lon="-2.405075870341851"><ele>15.4</ele><time>2026-04-05T15:12:52.999Z</time></trkpt><trkpt lat="48.63936472341122" lon="-2.4052078006649986"><ele>15.2</ele><time>2026-04-05T15:12:54.999Z</time></trkpt><trkpt lat="48.63935746796905" lon="-2.405351697943785"><ele>15.0</ele><time>2026-04-05T15:12:56.999Z</time></trkpt><trkpt lat="48.639350695768485" lon="-2.405497695765822"><ele>14.6</ele><time>2026-04-05T15:12:58.999Z</time></trkpt><trkpt lat="48.639347209652044" lon="-2.405645561940961"><ele>14.2</ele><time>2026-04-05T15:13:00.999Z</time></trkpt><trkpt lat="48.6393391520967" lon="-2.40579124023895"><ele>13.8</ele><time>2026-04-05T15:13:02.999Z</time></trkpt><trkpt lat="48.63933555849151" lon="-2.405929845169775"><ele>13.4</ele><time>2026-04-05T15:13:04.999Z</time></trkpt><trkpt lat="48.6393324877137" lon="-2.406057931301227"><ele>13.0</ele><time>2026-04-05T15:13:06.999Z</time></trkpt><trkpt lat="48.6393215323986" lon="-2.4061893138144113"><ele>13.4</ele><time>2026-04-05T15:13:08.999Z</time></trkpt><trkpt lat="48.639316690570396" lon="-2.406333776716445"><ele>13.8</ele><time>2026-04-05T15:13:10.999Z</time></trkpt><trkpt lat="48.63929550156362" lon="-2.406467847265205"><ele>14.2</ele><time>2026-04-05T15:13:12.999Z</time></trkpt><trkpt lat="48.63929334115716" lon="-2.4066301069413054"><ele>14.6</ele><time>2026-04-05T15:13:14.999Z</time></trkpt><trkpt lat="48.63929340726295" lon="-2.406786767783313"><ele>15.0</ele><time>2026-04-05T15:13:16.999Z</time></trkpt><trkpt lat="48.63928680695108" lon="-2.4069382539430784"><ele>15.0</ele><time>2026-04-05T15:13:18.999Z</time></trkpt><trkpt lat="48.639297464853044" lon="-2.4070894802094833"><ele>15.0</ele><time>2026-04-05T15:13:20.999Z</time></trkpt><trkpt lat="48.63929250465103" lon="-2.4072348569484787"><ele>15.0</ele><time>2026-04-05T15:13:22.999Z</time></trkpt><trkpt lat="48.63928767668836" lon="-2.407376358023891"><ele>15.0</ele><time>2026-04-05T15:13:24.999Z</time></trkpt><trkpt lat="48.63928367491066" lon="-2.4074936446759096"><ele>15.0</ele><time>2026-04-05T15:13:26.999Z</time></trkpt><trkpt lat="48.639279774268736" lon="-2.407607967209916"><ele>15.0</ele><time>2026-04-05T15:13:28.999Z</time></trkpt><trkpt lat="48.63927586093063" lon="-2.407722661984095"><ele>15.0</ele><time>2026-04-05T15:13:31.999Z</time></trkpt><trkpt lat="48.63913274171171" lon="-2.4077443648483454"><ele>15.0</ele><time>2026-04-05T15:13:32.999Z</time></trkpt><trkpt lat="48.63904428458284" lon="-2.4077351191993266"><ele>15.0</ele><time>2026-04-05T15:13:35.999Z</time></trkpt><trkpt lat="48.63897845690187" lon="-2.4076527773524736"><ele>15.0</ele><time>2026-04-05T15:13:37.999Z</time></trkpt><trkpt lat="48.63889921246588" lon="-2.4075979809259325"><ele>15.0</ele><time>2026-04-05T15:13:39.999Z</time></trkpt><trkpt lat="48.63880910925454" lon="-2.407540142225642"><ele>15.0</ele><time>2026-04-05T15:13:41.999Z</time></trkpt><trkpt lat="48.6387154950998" lon="-2.407472991327858"><ele>15.0</ele><time>2026-04-05T15:13:44Z</time></trkpt><trkpt lat="48.63861426986797" lon="-2.4074210209865075"><ele>15.0</ele><time>2026-04-05T15:13:46Z</time></trkpt><trkpt lat="48.63851883221248" lon="-2.407359777747226"><ele>15.0</ele><time>2026-04-05T15:13:48Z</time></trkpt><trkpt lat="48.638424769169205" lon="-2.4073038866605656"><ele>15.0</ele><time>2026-04-05T15:13:50Z</time></trkpt><trkpt lat="48.638333864246654" lon="-2.4072389482656176"><ele>15.0</ele><time>2026-04-05T15:13:52Z</time></trkpt><trkpt lat="48.63824586116097" lon="-2.4071855956064434"><ele>15.0</ele><time>2026-04-05T15:13:54Z</time></trkpt><trkpt lat="48.63815526331027" lon="-2.40713906464459"><ele>15.0</ele><time>2026-04-05T15:13:56Z</time></trkpt><trkpt lat="48.63806732289852" lon="-2.4070856963357987"><ele>15.0</ele><time>2026-04-05T15:13:58Z</time></trkpt><trkpt lat="48.63797326309907" lon="-2.4070192958799224"><ele>15.0</ele><time>2026-04-05T15:14:00Z</time></trkpt><trkpt lat="48.63787880128138" lon="-2.4069502129361986"><ele>14.666666666666666</ele><time>2026-04-05T15:14:02Z</time></trkpt><trkpt lat="48.637787521431584" lon="-2.4068877340532886"><ele>14.333333333333332</ele><time>2026-04-05T15:14:04Z</time></trkpt><trkpt lat="48.637701744443575" lon="-2.406857070163415"><ele>14.0</ele><time>2026-04-05T15:14:06Z</time></trkpt><trkpt lat="48.63762891130847" lon="-2.4068087328343717"><ele>13.666666666666666</ele><time>2026-04-05T15:14:08Z</time></trkpt><trkpt lat="48.63755163843917" lon="-2.4068314161687483"><ele>13.333333333333332</ele><time>2026-04-05T15:14:10Z</time></trkpt><trkpt lat="48.63750001679707" lon="-2.406961849187228"><ele>13.0</ele><time>2026-04-05T15:14:12Z</time></trkpt><trkpt lat="48.63743448913448" lon="-2.407051398005453"><ele>12.999999999999998</ele><time>2026-04-05T15:14:14Z</time></trkpt><trkpt lat="48.637361547036384" lon="-2.4071296576023946"><ele>13.0</ele><time>2026-04-05T15:14:16Z</time></trkpt><trkpt lat="48.637295080284055" lon="-2.407211467790944"><ele>13.0</ele><time>2026-04-05T15:14:18Z</time></trkpt><trkpt lat="48.63726176754533" lon="-2.4073230635219978"><ele>13.0</ele><time>2026-04-05T15:14:20Z</time></trkpt><trkpt lat="48.637204982357545" lon="-2.4073843571381035"><ele>12.999999999999998</ele><time>2026-04-05T15:14:22Z</time></trkpt><trkpt lat="48.637135063470595" lon="-2.407447069015113"><ele>13.0</ele><time>2026-04-05T15:14:24Z</time></trkpt><trkpt lat="48.63706503920959" lon="-2.407510250213914"><ele>12.833333333333332</ele><time>2026-04-05T15:14:26Z</time></trkpt><trkpt lat="48.63699260027411" lon="-2.4075611359525912"><ele>12.666666666666666</ele><time>2026-04-05T15:14:28Z</time></trkpt><trkpt lat="48.63693006576252" lon="-2.4076390855332788"><ele>12.5</ele><time>2026-04-05T15:14:30Z</time></trkpt><trkpt lat="48.63686069912888" lon="-2.4077237882252844"><ele>12.333333333333332</ele><time>2026-04-05T15:14:32Z</time></trkpt><trkpt lat="48.63678875004794" lon="-2.40780320965688"><ele>12.166666666666666</ele><time>2026-04-05T15:14:34Z</time></trkpt><trkpt lat="48.636714835560575" lon="-2.4078867531962307"><ele>12.0</ele><time>2026-04-05T15:14:36Z</time></trkpt><trkpt lat="48.636630355960015" lon="-2.4079768051270163"><ele>11.6</ele><time>2026-04-05T15:14:38Z</time></trkpt><trkpt lat="48.63655256281507" lon="-2.4080697400464928"><ele>11.2</ele><time>2026-04-05T15:14:40Z</time></trkpt><trkpt lat="48.636471641020506" lon="-2.4081575839278773"><ele>10.8</ele><time>2026-04-05T15:14:42Z</time></trkpt><trkpt lat="48.63638656053301" lon="-2.408240858792626"><ele>10.4</ele><time>2026-04-05T15:14:44Z</time></trkpt><trkpt lat="48.636287382685374" lon="-2.408301838025469"><ele>10.0</ele><time>2026-04-05T15:14:46Z</time></trkpt><trkpt lat="48.636209366526714" lon="-2.4083853804946465"><ele>10.0</ele><time>2026-04-05T15:14:48Z</time></trkpt><trkpt lat="48.63613816119458" lon="-2.408461629686976"><ele>10.0</ele><time>2026-04-05T15:14:50Z</time></trkpt><trkpt lat="48.63606838673549" lon="-2.4085379492331636"><ele>10.0</ele><time>2026-04-05T15:14:52Z</time></trkpt><trkpt lat="48.63600421475834" lon="-2.4086096599348386"><ele>10.0</ele><time>2026-04-05T15:14:54Z</time></trkpt><trkpt lat="48.635934356505174" lon="-2.4086877249196026"><ele>10.0</ele><time>2026-04-05T15:14:57.999Z</time></trkpt><trkpt lat="48.635884298510916" lon="-2.408759630856563"><ele>10.0</ele><time>2026-04-05T15:14:59.999Z</time></trkpt><trkpt lat="48.63580547062808" lon="-2.4087824290201785"><ele>9.2</ele><time>2026-04-05T15:15:01.999Z</time></trkpt><trkpt lat="48.63573075139847" lon="-2.4088511997547117"><ele>8.4</ele><time>2026-04-05T15:15:03.999Z</time></trkpt><trkpt lat="48.63565737793348" lon="-2.4089327520825967"><ele>7.6</ele><time>2026-04-05T15:15:05.999Z</time></trkpt><trkpt lat="48.63558451945283" lon="-2.409026265616841"><ele>6.8</ele><time>2026-04-05T15:15:07.999Z</time></trkpt><trkpt lat="48.63550422596233" lon="-2.409120668298589"><ele>6.0</ele><time>2026-04-05T15:15:09.999Z</time></trkpt><trkpt lat="48.635431999709475" lon="-2.4092405300791313"><ele>6.0</ele><time>2026-04-05T15:15:11.999Z</time></trkpt><trkpt lat="48.635344322624434" lon="-2.4093299389407"><ele>6.0</ele><time>2026-04-05T15:15:13.999Z</time></trkpt><trkpt lat="48.63525607724122" lon="-2.409428140005126"><ele>6.0</ele><time>2026-04-05T15:15:15.999Z</time></trkpt><trkpt lat="48.635166493085386" lon="-2.409527670396769"><ele>6.0</ele><time>2026-04-05T15:15:17.999Z</time></trkpt><trkpt lat="48.635076471371924" lon="-2.4096270970395173"><ele>6.0</ele><time>2026-04-05T15:15:19.999Z</time></trkpt><trkpt lat="48.6349880472479" lon="-2.4097247591688755"><ele>6.0</ele><time>2026-04-05T15:15:21.999Z</time></trkpt><trkpt lat="48.634905803349355" lon="-2.4098155954220495"><ele>6.0</ele><time>2026-04-05T15:15:23.999Z</time></trkpt><trkpt lat="48.63482113371631" lon="-2.4099091108121558"><ele>6.0</ele><time>2026-04-05T15:15:25.999Z</time></trkpt><trkpt lat="48.63473154182308" lon="-2.4100067701924295"><ele>6.0</ele><time>2026-04-05T15:15:27.999Z</time></trkpt><trkpt lat="48.634654781815016" lon="-2.410085759687674"><ele>6.0</ele><time>2026-04-05T15:15:29.999Z</time></trkpt><trkpt lat="48.63458504501368" lon="-2.4101460405536805"><ele>6.0</ele><time>2026-04-05T15:15:31.999Z</time></trkpt><trkpt lat="48.63452244019513" lon="-2.410200261149763"><ele>6.0</ele><time>2026-04-05T15:15:34.999Z</time></trkpt><trkpt lat="48.63445390275664" lon="-2.4102589761726816"><ele>6.0</ele><time>2026-04-05T15:15:37.999Z</time></trkpt><trkpt lat="48.63438610692633" lon="-2.4103159502070635"><ele>6.0</ele><time>2026-04-05T15:15:40.999Z</time></trkpt><trkpt lat="48.6344949298158" lon="-2.410683224710091"><ele>6.0</ele><time>2026-04-05T15:15:42.999Z</time></trkpt><trkpt lat="48.63449602820733" lon="-2.4108131805725352"><ele>6.0</ele><time>2026-04-05T15:15:45.999Z</time></trkpt><trkpt lat="48.63444361402222" lon="-2.410971219452317"><ele>6.0</ele><time>2026-04-05T15:15:46.999Z</time></trkpt><trkpt lat="48.63436936580309" lon="-2.4110073352082146"><ele>6.0</ele><time>2026-04-05T15:15:47.999Z</time></trkpt><trkpt lat="48.63431269533354" lon="-2.4110882015687425"><ele>6.0</ele><time>2026-04-05T15:15:49Z</time></trkpt><trkpt lat="48.63422073918829" lon="-2.411205128848642"><ele>6.0</ele><time>2026-04-05T15:15:51Z</time></trkpt><trkpt lat="48.63416791030768" lon="-2.4112604962737922"><ele>6.0</ele><time>2026-04-05T15:15:52Z</time></trkpt><trkpt lat="48.634077068698346" lon="-2.4113880565379135"><ele>6.0</ele><time>2026-04-05T15:15:54Z</time></trkpt><trkpt lat="48.63399851694488" lon="-2.4114972756419784"><ele>6.0</ele><time>2026-04-05T15:15:56Z</time></trkpt><trkpt lat="48.6339034234648" lon="-2.411582784408777"><ele>6.0</ele><time>2026-04-05T15:15:58Z</time></trkpt><trkpt lat="48.633800715394116" lon="-2.4115514495973667"><ele>6.0</ele><time>2026-04-05T15:16:00Z</time></trkpt><trkpt lat="48.63370824974027" lon="-2.4114719420251065"><ele>6.0</ele><time>2026-04-05T15:16:02Z</time></trkpt><trkpt lat="48.633619736682746" lon="-2.411517595624037"><ele>6.0</ele><time>2026-04-05T15:16:05Z</time></trkpt><trkpt lat="48.633529700740745" lon="-2.411554476420301"><ele>6.0</ele><time>2026-04-05T15:16:07Z</time></trkpt><trkpt lat="48.633438999698996" lon="-2.4116174762862026"><ele>6.0</ele><time>2026-04-05T15:16:09Z</time></trkpt><trkpt lat="48.63337585870285" lon="-2.4115897427347286"><ele>6.0</ele><time>2026-04-05T15:16:10Z</time></trkpt><trkpt lat="48.6332893793032" lon="-2.411668133327211"><ele>6.0</ele><time>2026-04-05T15:16:12Z</time></trkpt><trkpt lat="48.63322003925962" lon="-2.411680384968656"><ele>6.0</ele><time>2026-04-05T15:16:13Z</time></trkpt><trkpt lat="48.63311615083132" lon="-2.4117057205209607"><ele>6.0</ele><time>2026-04-05T15:16:15Z</time></trkpt><trkpt lat="48.63301242545672" lon="-2.411710920035196"><ele>6.0</ele><time>2026-04-05T15:16:17Z</time></trkpt><trkpt lat="48.63293886668603" lon="-2.411680572547626"><ele>6.0</ele><time>2026-04-05T15:16:19Z</time></trkpt><trkpt lat="48.63285963337917" lon="-2.4116293351526736"><ele>6.0</ele><time>2026-04-05T15:16:22Z</time></trkpt><trkpt lat="48.63279788551303" lon="-2.4116569739269247"><ele>6.0</ele><time>2026-04-05T15:16:24Z</time></trkpt><trkpt lat="48.63272580868834" lon="-2.4117347802980196"><ele>6.0</ele><time>2026-04-05T15:16:26Z</time></trkpt><trkpt lat="48.63262647062291" lon="-2.411834442194732"><ele>6.0</ele><time>2026-04-05T15:16:28Z</time></trkpt><trkpt lat="48.632531576053665" lon="-2.411924807138815"><ele>6.5</ele><time>2026-04-05T15:16:30Z</time></trkpt><trkpt lat="48.632436734509355" lon="-2.4120371253540736"><ele>7.0</ele><time>2026-04-05T15:16:32Z</time></trkpt><trkpt lat="48.632344510745725" lon="-2.412157025649356"><ele>7.5</ele><time>2026-04-05T15:16:34Z</time></trkpt><trkpt lat="48.63225827452615" lon="-2.412287803633226"><ele>8.0</ele><time>2026-04-05T15:16:36Z</time></trkpt><trkpt lat="48.63218347910916" lon="-2.4124233089362788"><ele>8.0</ele><time>2026-04-05T15:16:38Z</time></trkpt><trkpt lat="48.632116714989586" lon="-2.412568746977753"><ele>8.0</ele><time>2026-04-05T15:16:40Z</time></trkpt><trkpt lat="48.632067228870746" lon="-2.4127291003165907"><ele>8.0</ele><time>2026-04-05T15:16:42Z</time></trkpt><trkpt lat="48.63202388458316" lon="-2.412885854777767"><ele>8.0</ele><time>2026-04-05T15:16:44Z</time></trkpt><trkpt lat="48.631982002314835" lon="-2.413042966062282"><ele>8.200000000000001</ele><time>2026-04-05T15:16:46Z</time></trkpt><trkpt lat="48.631954473918576" lon="-2.413201541319064"><ele>8.4</ele><time>2026-04-05T15:16:48Z</time></trkpt><trkpt lat="48.63193656199244" lon="-2.413343126191719"><ele>8.600000000000001</ele><time>2026-04-05T15:16:50Z</time></trkpt><trkpt lat="48.6319179339776" lon="-2.413489490777938"><ele>8.8</ele><time>2026-04-05T15:16:52Z</time></trkpt><trkpt lat="48.631913456580655" lon="-2.413638180477863"><ele>9.0</ele><time>2026-04-05T15:16:54Z</time></trkpt><trkpt lat="48.63192056915629" lon="-2.413802109538935"><ele>8.8</ele><time>2026-04-05T15:16:56Z</time></trkpt><trkpt lat="48.63193150742103" lon="-2.413976447304164"><ele>8.600000000000001</ele><time>2026-04-05T15:16:58Z</time></trkpt><trkpt lat="48.63194138750013" lon="-2.414145365336821"><ele>8.4</ele><time>2026-04-05T15:17:00Z</time></trkpt><trkpt lat="48.63195024624056" lon="-2.4142969692207417"><ele>8.200000000000001</ele><time>2026-04-05T15:17:02Z</time></trkpt><trkpt lat="48.63196398346547" lon="-2.4144432207910556"><ele>8.0</ele><time>2026-04-05T15:17:04Z</time></trkpt><trkpt lat="48.63198354737801" lon="-2.4145924479212995"><ele>7.4</ele><time>2026-04-05T15:17:06Z</time></trkpt><trkpt lat="48.63199629142508" lon="-2.4147012790085"><ele>6.800000000000001</ele><time>2026-04-05T15:17:08.999Z</time></trkpt><trkpt lat="48.63202430583104" lon="-2.414885167439279"><ele>6.2</ele><time>2026-04-05T15:17:09.999Z</time></trkpt><trkpt lat="48.632041681592206" lon="-2.41503824451764"><ele>5.6</ele><time>2026-04-05T15:17:11.999Z</time></trkpt><trkpt lat="48.63206410986949" lon="-2.41519583499033"><ele>5.0</ele><time>2026-04-05T15:17:13.999Z</time></trkpt><trkpt lat="48.63208728938139" lon="-2.415369872607816"><ele>5.4</ele><time>2026-04-05T15:17:15.999Z</time></trkpt><trkpt lat="48.63211088167861" lon="-2.415533992855623"><ele>5.8</ele><time>2026-04-05T15:17:17.999Z</time></trkpt><trkpt lat="48.63213746053144" lon="-2.4156954077696438"><ele>6.199999999999999</ele><time>2026-04-05T15:17:19.999Z</time></trkpt><trkpt lat="48.63217497246892" lon="-2.4158504914348464"><ele>6.6</ele><time>2026-04-05T15:17:21.999Z</time></trkpt><trkpt lat="48.63219741943558" lon="-2.4159777816538033"><ele>7.0</ele><time>2026-04-05T15:17:23.999Z</time></trkpt><trkpt lat="48.63219705289651" lon="-2.416113364264254"><ele>7.000000000000001</ele><time>2026-04-05T15:17:25.999Z</time></trkpt><trkpt lat="48.63222626084394" lon="-2.4162100111534897"><ele>7.0</ele><time>2026-04-05T15:17:27.999Z</time></trkpt><trkpt lat="48.63224083743045" lon="-2.4163153743588577"><ele>7.0</ele><time>2026-04-05T15:17:30.999Z</time></trkpt><trkpt lat="48.63226869393237" lon="-2.416416024833285"><ele>7.0</ele><time>2026-04-05T15:17:33.999Z</time></trkpt><trkpt lat="48.63230014808373" lon="-2.4165044361331827"><ele>7.000000000000001</ele><time>2026-04-05T15:17:36.999Z</time></trkpt><trkpt lat="48.63231608019614" lon="-2.416612424921119"><ele>7.0</ele><time>2026-04-05T15:17:38.999Z</time></trkpt><trkpt lat="48.63235577551738" lon="-2.41675224599273"><ele>6.8</ele><time>2026-04-05T15:17:40.999Z</time></trkpt><trkpt lat="48.632399977542" lon="-2.416885804930506"><ele>6.6</ele><time>2026-04-05T15:17:42.999Z</time></trkpt><trkpt lat="48.632439875279154" lon="-2.416998079212556"><ele>6.3999999999999995</ele><time>2026-04-05T15:17:44.999Z</time></trkpt><trkpt lat="48.632474602073735" lon="-2.4171194837485666"><ele>6.199999999999999</ele><time>2026-04-05T15:17:46.999Z</time></trkpt><trkpt lat="48.632515863617016" lon="-2.4172448683340346"><ele>6.0</ele><time>2026-04-05T15:17:48.999Z</time></trkpt><trkpt lat="48.63255331759093" lon="-2.4173732418258416"><ele>6.0</ele><time>2026-04-05T15:17:50.999Z</time></trkpt><trkpt lat="48.632592266336644" lon="-2.4174930909028913"><ele>6.0</ele><time>2026-04-05T15:17:52.999Z</time></trkpt><trkpt lat="48.63262711548931" lon="-2.4176038679781215"><ele>6.0</ele><time>2026-04-05T15:17:55Z</time></trkpt><trkpt lat="48.63266150760569" lon="-2.417721754887832"><ele>6.0</ele><time>2026-04-05T15:17:57Z</time></trkpt><trkpt lat="48.63269919127095" lon="-2.4178194574633616"><ele>6.0</ele><time>2026-04-05T15:17:59Z</time></trkpt><trkpt lat="48.63273616846012" lon="-2.4179342274328337"><ele>6.0</ele><time>2026-04-05T15:18:01Z</time></trkpt><trkpt lat="48.632766362075536" lon="-2.4180363978108455"><ele>5.7142857142857135</ele><time>2026-04-05T15:18:03Z</time></trkpt><trkpt lat="48.63279876708293" lon="-2.418141410886742"><ele>5.428571428571429</ele><time>2026-04-05T15:18:05Z</time></trkpt><trkpt lat="48.63282461431875" lon="-2.4182402316035354"><ele>5.142857142857142</ele><time>2026-04-05T15:18:07Z</time></trkpt><trkpt lat="48.632857268483406" lon="-2.418348867849055"><ele>4.857142857142857</ele><time>2026-04-05T15:18:09Z</time></trkpt><trkpt lat="48.63289617890437" lon="-2.418429437424039"><ele>4.571428571428571</ele><time>2026-04-05T15:18:11Z</time></trkpt><trkpt lat="48.632927366995176" lon="-2.4185239333711785"><ele>4.285714285714286</ele><time>2026-04-05T15:18:13Z</time></trkpt><trkpt lat="48.63295177470201" lon="-2.418612600103897"><ele>4.0</ele><time>2026-04-05T15:18:15Z</time></trkpt><trkpt lat="48.63298181407242" lon="-2.418699868334889"><ele>4.166666666666666</ele><time>2026-04-05T15:18:18Z</time></trkpt><trkpt lat="48.633020661865366" lon="-2.4188422013862816"><ele>4.333333333333333</ele><time>2026-04-05T15:18:21Z</time></trkpt><trkpt lat="48.633056015908345" lon="-2.418947772103233"><ele>4.5</ele><time>2026-04-05T15:18:23Z</time></trkpt><trkpt lat="48.63308466167012" lon="-2.419035092985021"><ele>4.666666666666667</ele><time>2026-04-05T15:18:25Z</time></trkpt><trkpt lat="48.633125718836794" lon="-2.4191666923065966"><ele>4.833333333333334</ele><time>2026-04-05T15:18:28Z</time></trkpt><trkpt lat="48.63315648711048" lon="-2.4192698549730327"><ele>5.0</ele><time>2026-04-05T15:18:31Z</time></trkpt><trkpt lat="48.6331942964255" lon="-2.4193856761025354"><ele>5.0</ele><time>2026-04-05T15:18:33Z</time></trkpt><trkpt lat="48.63322932529502" lon="-2.4194968621366577"><ele>5.0</ele><time>2026-04-05T15:18:36Z</time></trkpt><trkpt lat="48.63326883783067" lon="-2.419622580818077"><ele>5.0</ele><time>2026-04-05T15:18:39Z</time></trkpt><trkpt lat="48.63331138986603" lon="-2.4197477859534935"><ele>5.0</ele><time>2026-04-05T15:18:42Z</time></trkpt><trkpt lat="48.63334886949114" lon="-2.419860950578825"><ele>5.0</ele><time>2026-04-05T15:18:44Z</time></trkpt><trkpt lat="48.63338248618408" lon="-2.4199757768186734"><ele>5.0</ele><time>2026-04-05T15:18:47Z</time></trkpt><trkpt lat="48.63341563195239" lon="-2.420099428223252"><ele>5.833333333333334</ele><time>2026-04-05T15:18:49Z</time></trkpt><trkpt lat="48.633444659741556" lon="-2.4201943093766114"><ele>6.666666666666667</ele><time>2026-04-05T15:18:51Z</time></trkpt><trkpt lat="48.633476148334104" lon="-2.4202896838278183"><ele>7.5</ele><time>2026-04-05T15:18:53Z</time></trkpt><trkpt lat="48.63351036005994" lon="-2.4203866427470593"><ele>8.333333333333334</ele><time>2026-04-05T15:18:55Z</time></trkpt><trkpt lat="48.63354930714832" lon="-2.420494621077577"><ele>9.166666666666668</ele><time>2026-04-05T15:18:57Z</time></trkpt><trkpt lat="48.63357795479842" lon="-2.4206012063763174"><ele>10.0</ele><time>2026-04-05T15:18:59Z</time></trkpt><trkpt lat="48.63361184488081" lon="-2.4207249949308274"><ele>10.833333333333334</ele><time>2026-04-05T15:19:03Z</time></trkpt><trkpt lat="48.63365331764922" lon="-2.4208313219835125"><ele>11.666666666666668</ele><time>2026-04-05T15:19:06Z</time></trkpt><trkpt lat="48.63366576972666" lon="-2.4209487679896613"><ele>12.5</ele><time>2026-04-05T15:19:07.999Z</time></trkpt><trkpt lat="48.6336707689905" lon="-2.421062875556809"><ele>13.333333333333334</ele><time>2026-04-05T15:19:10.999Z</time></trkpt><trkpt lat="48.6336594455436" lon="-2.421197287548226"><ele>14.166666666666666</ele><time>2026-04-05T15:19:13.999Z</time></trkpt><trkpt lat="48.633661545958404" lon="-2.421299296211162"><ele>15.0</ele><time>2026-04-05T15:19:15.999Z</time></trkpt><trkpt lat="48.633666406598984" lon="-2.421456317162131"><ele>16.0</ele><time>2026-04-05T15:19:18.999Z</time></trkpt><trkpt lat="48.63365373163124" lon="-2.421558601364485"><ele>17.0</ele><time>2026-04-05T15:19:20.999Z</time></trkpt><trkpt lat="48.6336512059771" lon="-2.4216852814412637"><ele>18.0</ele><time>2026-04-05T15:19:22.999Z</time></trkpt><trkpt lat="48.6336432776258" lon="-2.4217876822286044"><ele>19.0</ele><time>2026-04-05T15:19:25.999Z</time></trkpt><trkpt lat="48.63366320869163" lon="-2.421921031174217"><ele>20.0</ele><time>2026-04-05T15:19:27.999Z</time></trkpt><trkpt lat="48.63364436702566" lon="-2.4220789704007863"><ele>21.0</ele><time>2026-04-05T15:19:30.999Z</time></trkpt><trkpt lat="48.633600191872645" lon="-2.422211870029493"><ele>23.166666666666668</ele><time>2026-04-05T15:19:32.999Z</time></trkpt><trkpt lat="48.63356272948324" lon="-2.4223119653373484"><ele>25.333333333333336</ele><time>2026-04-05T15:19:34.999Z</time></trkpt><trkpt lat="48.633522594465234" lon="-2.4224098914595724"><ele>27.5</ele><time>2026-04-05T15:19:36.999Z</time></trkpt><trkpt lat="48.63350323268645" lon="-2.422527294945072"><ele>29.666666666666668</ele><time>2026-04-05T15:19:38.999Z</time></trkpt><trkpt lat="48.63346386383943" lon="-2.422620149599679"><ele>31.833333333333336</ele><time>2026-04-05T15:19:40.999Z</time></trkpt><trkpt lat="48.633431741005026" lon="-2.4227360789917847"><ele>34.0</ele><time>2026-04-05T15:19:43.999Z</time></trkpt><trkpt lat="48.63340491895353" lon="-2.4228306024323167"><ele>34.0</ele><time>2026-04-05T15:19:45.999Z</time></trkpt><trkpt lat="48.63337173304456" lon="-2.4229578775406115"><ele>34.0</ele><time>2026-04-05T15:19:48.999Z</time></trkpt><trkpt lat="48.63334203674295" lon="-2.423042669849462"><ele>34.0</ele><time>2026-04-05T15:19:50.999Z</time></trkpt><trkpt lat="48.6332850187573" lon="-2.4231875215824603"><ele>34.0</ele><time>2026-04-05T15:19:53.999Z</time></trkpt><trkpt lat="48.633232323470246" lon="-2.4233077725885237"><ele>34.0</ele><time>2026-04-05T15:19:56.999Z</time></trkpt><trkpt lat="48.63318376709514" lon="-2.4234227843241127"><ele>34.0</ele><time>2026-04-05T15:19:59.999Z</time></trkpt><trkpt lat="48.63315084867723" lon="-2.423508116564397"><ele>34.0</ele><time>2026-04-05T15:20:03Z</time></trkpt><trkpt lat="48.633102864997504" lon="-2.4235790572741025"><ele>34.0</ele><time>2026-04-05T15:20:04Z</time></trkpt><trkpt lat="48.633075894218436" lon="-2.423677987770788"><ele>34.0</ele><time>2026-04-05T15:20:07Z</time></trkpt><trkpt lat="48.63306867712843" lon="-2.4238305545234167"><ele>34.0</ele><time>2026-04-05T15:20:10Z</time></trkpt><trkpt lat="48.63303143880739" lon="-2.423924424197652"><ele>34.0</ele><time>2026-04-05T15:20:12Z</time></trkpt><trkpt lat="48.632993317190426" lon="-2.4240391904113356"><ele>34.0</ele><time>2026-04-05T15:20:14Z</time></trkpt><trkpt lat="48.63297670365905" lon="-2.4241806759788784"><ele>34.0</ele><time>2026-04-05T15:20:17Z</time></trkpt><trkpt lat="48.632938663209785" lon="-2.424294061064095"><ele>34.0</ele><time>2026-04-05T15:20:19Z</time></trkpt><trkpt lat="48.632921745748256" lon="-2.4244048289198155"><ele>34.0</ele><time>2026-04-05T15:20:20Z</time></trkpt><trkpt lat="48.63291239296798" lon="-2.4245494542209824"><ele>34.0</ele><time>2026-04-05T15:20:22Z</time></trkpt><trkpt lat="48.632896664212595" lon="-2.424699523470987"><ele>34.6</ele><time>2026-04-05T15:20:24Z</time></trkpt><trkpt lat="48.632874136798435" lon="-2.4248252955190157"><ele>35.2</ele><time>2026-04-05T15:20:27Z</time></trkpt><trkpt lat="48.632866737913" lon="-2.4249459427722457"><ele>35.800000000000004</ele><time>2026-04-05T15:20:29Z</time></trkpt><trkpt lat="48.632861963633076" lon="-2.4250414374019096"><ele>36.4</ele><time>2026-04-05T15:20:31Z</time></trkpt><trkpt lat="48.63272688594193" lon="-2.425204260427295"><ele>37.0</ele><time>2026-04-05T15:20:32Z</time></trkpt><trkpt lat="48.63275101436911" lon="-2.42532964371572"><ele>37.333333333333336</ele><time>2026-04-05T15:20:34Z</time></trkpt><trkpt lat="48.63276169706058" lon="-2.425423900454773"><ele>37.66666666666667</ele><time>2026-04-05T15:20:36Z</time></trkpt><trkpt lat="48.63279515022699" lon="-2.4255170012156557"><ele>38.0</ele><time>2026-04-05T15:20:39Z</time></trkpt><trkpt lat="48.63281584394526" lon="-2.425610244267111"><ele>38.333333333333336</ele><time>2026-04-05T15:20:41Z</time></trkpt><trkpt lat="48.632865120755625" lon="-2.425760515318657"><ele>38.666666666666664</ele><time>2026-04-05T15:20:44Z</time></trkpt><trkpt lat="48.632910343568916" lon="-2.4258354587759494"><ele>39.0</ele><time>2026-04-05T15:20:46Z</time></trkpt><trkpt lat="48.63292561748865" lon="-2.4259664079708805"><ele>38.4</ele><time>2026-04-05T15:20:49Z</time></trkpt><trkpt lat="48.63296428145014" lon="-2.426054730012037"><ele>37.8</ele><time>2026-04-05T15:20:51Z</time></trkpt><trkpt lat="48.63300888181239" lon="-2.4261805957161124"><ele>37.2</ele><time>2026-04-05T15:20:53Z</time></trkpt><trkpt lat="48.63303343751044" lon="-2.426295568254361"><ele>36.6</ele><time>2026-04-05T15:20:55Z</time></trkpt><trkpt lat="48.6330701927188" lon="-2.426383720840878"><ele>36.0</ele><time>2026-04-05T15:20:57Z</time></trkpt><trkpt lat="48.63326106702373" lon="-2.4267028919168965"><ele>36.00000000000001</ele><time>2026-04-05T15:20:59Z</time></trkpt><trkpt lat="48.6332845942251" lon="-2.4268113941521032"><ele>36.0</ele><time>2026-04-05T15:21:01Z</time></trkpt><trkpt lat="48.6333086673124" lon="-2.426917613154323"><ele>36.0</ele><time>2026-04-05T15:21:03Z</time></trkpt><trkpt lat="48.63332675191026" lon="-2.427025170037352"><ele>36.0</ele><time>2026-04-05T15:21:05Z</time></trkpt><trkpt lat="48.63334312952558" lon="-2.427133347629244"><ele>36.0</ele><time>2026-04-05T15:21:07Z</time></trkpt><trkpt lat="48.633347125292275" lon="-2.4272344515485584"><ele>36.00000000000001</ele><time>2026-04-05T15:21:09Z</time></trkpt><trkpt lat="48.633345168764635" lon="-2.427348520664203"><ele>36.0</ele><time>2026-04-05T15:21:11Z</time></trkpt><trkpt lat="48.63334492099601" lon="-2.427451734106192"><ele>36.333333333333336</ele><time>2026-04-05T15:21:12.999Z</time></trkpt><trkpt lat="48.63333675116873" lon="-2.4275651075930793"><ele>36.666666666666664</ele><time>2026-04-05T15:21:14.999Z</time></trkpt><trkpt lat="48.63332530820458" lon="-2.42766939469406"><ele>37.0</ele><time>2026-04-05T15:21:16.999Z</time></trkpt><trkpt lat="48.63324534437674" lon="-2.427649936855283"><ele>37.33333333333333</ele><time>2026-04-05T15:21:17.999Z</time></trkpt><trkpt lat="48.63325538586427" lon="-2.4277677916053078"><ele>37.666666666666664</ele><time>2026-04-05T15:21:20.999Z</time></trkpt><trkpt lat="48.63323990583711" lon="-2.4278928716680137"><ele>38.0</ele><time>2026-04-05T15:21:23.999Z</time></trkpt><trkpt lat="48.633256104106415" lon="-2.4280381883508455"><ele>38.33333333333333</ele><time>2026-04-05T15:21:26.999Z</time></trkpt><trkpt lat="48.63327989842835" lon="-2.4281654978299936"><ele>38.666666666666664</ele><time>2026-04-05T15:21:29.999Z</time></trkpt><trkpt lat="48.63329447852781" lon="-2.428287111267761"><ele>39.0</ele><time>2026-04-05T15:21:31.999Z</time></trkpt><trkpt lat="48.63328351955416" lon="-2.4284401778356584"><ele>39.333333333333336</ele><time>2026-04-05T15:21:34.999Z</time></trkpt><trkpt lat="48.63329001397498" lon="-2.428560777337615"><ele>39.66666666666667</ele><time>2026-04-05T15:21:37.999Z</time></trkpt><trkpt lat="48.633288841496736" lon="-2.4286771383181893"><ele>40.0</ele><time>2026-04-05T15:21:39.999Z</time></trkpt><trkpt lat="48.633328026352984" lon="-2.428778774906736"><ele>40.66666666666667</ele><time>2026-04-05T15:21:41.999Z</time></trkpt><trkpt lat="48.6333177729801" lon="-2.4289436094506165"><ele>41.333333333333336</ele><time>2026-04-05T15:21:44.999Z</time></trkpt><trkpt lat="48.633318571562064" lon="-2.42905115656535"><ele>42.0</ele><time>2026-04-05T15:21:46.999Z</time></trkpt><trkpt lat="48.6333157088572" lon="-2.429181014874737"><ele>42.666666666666664</ele><time>2026-04-05T15:21:48.999Z</time></trkpt><trkpt lat="48.63331561701168" lon="-2.429298669397364"><ele>43.33333333333333</ele><time>2026-04-05T15:21:50.999Z</time></trkpt><trkpt lat="48.63332890281873" lon="-2.4294325996006467"><ele>44.0</ele><time>2026-04-05T15:21:52.999Z</time></trkpt><trkpt lat="48.633353069338376" lon="-2.429546184778512"><ele>44.142857142857146</ele><time>2026-04-05T15:21:55.999Z</time></trkpt><trkpt lat="48.63335356226245" lon="-2.4296497746662977"><ele>44.285714285714285</ele><time>2026-04-05T15:21:57.999Z</time></trkpt><trkpt lat="48.63337926318206" lon="-2.4297412713691187"><ele>44.42857142857143</ele><time>2026-04-05T15:21:59.999Z</time></trkpt><trkpt lat="48.63339033563771" lon="-2.4298642007207483"><ele>44.57142857142857</ele><time>2026-04-05T15:22:02.999Z</time></trkpt><trkpt lat="48.6334196530675" lon="-2.429970590716152"><ele>44.714285714285715</ele><time>2026-04-05T15:22:04.999Z</time></trkpt><trkpt lat="48.633429097510536" lon="-2.4300953405002663"><ele>44.857142857142854</ele><time>2026-04-05T15:22:07Z</time></trkpt><trkpt lat="48.63343597016753" lon="-2.43019968915996"><ele>45.0</ele><time>2026-04-05T15:22:09Z</time></trkpt><trkpt lat="48.63344737363497" lon="-2.430328686088691"><ele>45.0</ele><time>2026-04-05T15:22:11Z</time></trkpt><trkpt lat="48.63343770090099" lon="-2.4304596182168723"><ele>45.0</ele><time>2026-04-05T15:22:13Z</time></trkpt><trkpt lat="48.6334328727604" lon="-2.4305696675038537"><ele>45.0</ele><time>2026-04-05T15:22:15Z</time></trkpt><trkpt lat="48.633443996892574" lon="-2.4307168046006797"><ele>45.0</ele><time>2026-04-05T15:22:17Z</time></trkpt><trkpt lat="48.633426215382634" lon="-2.4308149319152617"><ele>45.0</ele><time>2026-04-05T15:22:19Z</time></trkpt><trkpt lat="48.63341203073686" lon="-2.430934710256704"><ele>45.0</ele><time>2026-04-05T15:22:21Z</time></trkpt><trkpt lat="48.63338872745252" lon="-2.431043079506194"><ele>45.14285714285714</ele><time>2026-04-05T15:22:23Z</time></trkpt><trkpt lat="48.6333683504834" lon="-2.4311422503858178"><ele>45.28571428571429</ele><time>2026-04-05T15:22:25Z</time></trkpt><trkpt lat="48.63337351731204" lon="-2.431243665422804"><ele>45.42857142857143</ele><time>2026-04-05T15:22:27Z</time></trkpt><trkpt lat="48.633350036895806" lon="-2.431341623426129"><ele>45.57142857142857</ele><time>2026-04-05T15:22:29Z</time></trkpt><trkpt lat="48.633333784393805" lon="-2.4314432906332613"><ele>45.71428571428571</ele><time>2026-04-05T15:22:31Z</time></trkpt><trkpt lat="48.633314360639424" lon="-2.4315698957000094"><ele>45.85714285714286</ele><time>2026-04-05T15:22:34Z</time></trkpt><trkpt lat="48.63329357003201" lon="-2.4316694502615785"><ele>46.0</ele><time>2026-04-05T15:22:36Z</time></trkpt><trkpt lat="48.633287188890606" lon="-2.4318105013316034"><ele>46.0</ele><time>2026-04-05T15:22:39Z</time></trkpt><trkpt lat="48.633236181453064" lon="-2.431877978469571"><ele>46.0</ele><time>2026-04-05T15:22:41Z</time></trkpt><trkpt lat="48.633218495877365" lon="-2.4319837162829483"><ele>46.0</ele><time>2026-04-05T15:22:43Z</time></trkpt><trkpt lat="48.6331826864909" lon="-2.4320800836904537"><ele>46.0</ele><time>2026-04-05T15:22:45Z</time></trkpt><trkpt lat="48.633149752480804" lon="-2.432161554462206"><ele>46.0</ele><time>2026-04-05T15:22:47Z</time></trkpt><trkpt lat="48.63308225640897" lon="-2.4322529332690257"><ele>46.0</ele><time>2026-04-05T15:22:49Z</time></trkpt><trkpt lat="48.63301103311237" lon="-2.432335894515133"><ele>46.0</ele><time>2026-04-05T15:22:51Z</time></trkpt><trkpt lat="48.632946401326734" lon="-2.432430257067836"><ele>46.0</ele><time>2026-04-05T15:22:53Z</time></trkpt><trkpt lat="48.63289153749797" lon="-2.432530053707824"><ele>46.0</ele><time>2026-04-05T15:22:55Z</time></trkpt><trkpt lat="48.632841914579025" lon="-2.43262253753328"><ele>46.0</ele><time>2026-04-05T15:22:57Z</time></trkpt><trkpt lat="48.632812598681866" lon="-2.4327181682484498"><ele>46.0</ele><time>2026-04-05T15:22:59Z</time></trkpt><trkpt lat="48.63276673827108" lon="-2.43282200667158"><ele>46.0</ele><time>2026-04-05T15:23:01Z</time></trkpt><trkpt lat="48.63271604472455" lon="-2.432929719019534"><ele>46.333333333333336</ele><time>2026-04-05T15:23:03Z</time></trkpt><trkpt lat="48.63266621298523" lon="-2.433060918608604"><ele>46.66666666666667</ele><time>2026-04-05T15:23:05Z</time></trkpt><trkpt lat="48.63261250691569" lon="-2.433200763987637"><ele>47.0</ele><time>2026-04-05T15:23:08Z</time></trkpt><trkpt lat="48.632567008461834" lon="-2.4333276560088732"><ele>47.333333333333336</ele><time>2026-04-05T15:23:11Z</time></trkpt><trkpt lat="48.63253126661802" lon="-2.4334295377284945"><ele>47.666666666666664</ele><time>2026-04-05T15:23:14Z</time></trkpt><trkpt lat="48.63250117539333" lon="-2.433525349639501"><ele>48.0</ele><time>2026-04-05T15:23:16Z</time></trkpt><trkpt lat="48.632482501473426" lon="-2.433647710350336"><ele>47.99999999999999</ele><time>2026-04-05T15:23:17.999Z</time></trkpt><trkpt lat="48.63245936052388" lon="-2.433754528790429"><ele>48.0</ele><time>2026-04-05T15:23:19.999Z</time></trkpt><trkpt lat="48.632443931048925" lon="-2.4338607826450427"><ele>48.0</ele><time>2026-04-05T15:23:21.999Z</time></trkpt><trkpt lat="48.63242929369613" lon="-2.433955291762101"><ele>48.0</ele><time>2026-04-05T15:23:23.999Z</time></trkpt><trkpt lat="48.63241366284243" lon="-2.434049053578014"><ele>48.0</ele><time>2026-04-05T15:23:25.999Z</time></trkpt><trkpt lat="48.63239804940299" lon="-2.434164947192092"><ele>47.99999999999999</ele><time>2026-04-05T15:23:28.999Z</time></trkpt><trkpt lat="48.632377851332265" lon="-2.434297851067604"><ele>48.0</ele><time>2026-04-05T15:23:31.999Z</time></trkpt><trkpt lat="48.63235632616162" lon="-2.4344394804998766"><ele>48.166666666666664</ele><time>2026-04-05T15:23:34.999Z</time></trkpt><trkpt lat="48.63233892881779" lon="-2.434553619391841"><ele>48.33333333333333</ele><time>2026-04-05T15:23:36.999Z</time></trkpt><trkpt lat="48.63231615316578" lon="-2.434677549809195"><ele>48.5</ele><time>2026-04-05T15:23:38.999Z</time></trkpt><trkpt lat="48.63230504511054" lon="-2.434820070192942"><ele>48.666666666666664</ele><time>2026-04-05T15:23:40.999Z</time></trkpt><trkpt lat="48.632283037385754" lon="-2.4349474400111935"><ele>48.83333333333333</ele><time>2026-04-05T15:23:42.999Z</time></trkpt><trkpt lat="48.6322611032044" lon="-2.4350856653488715"><ele>49.0</ele><time>2026-04-05T15:23:44.999Z</time></trkpt><trkpt lat="48.632245691663826" lon="-2.435229906038671"><ele>49.2</ele><time>2026-04-05T15:23:46.999Z</time></trkpt><trkpt lat="48.63222657036557" lon="-2.435395453322473"><ele>49.400000000000006</ele><time>2026-04-05T15:23:49.999Z</time></trkpt><trkpt lat="48.63221964155224" lon="-2.4355002027135333"><ele>49.6</ele><time>2026-04-05T15:23:51.999Z</time></trkpt><trkpt lat="48.63219578343463" lon="-2.4356222075369636"><ele>49.8</ele><time>2026-04-05T15:23:54.999Z</time></trkpt><trkpt lat="48.63218963302956" lon="-2.4358129486619338"><ele>50.0</ele><time>2026-04-05T15:23:57.999Z</time></trkpt><trkpt lat="48.632172420824496" lon="-2.4359411128163218"><ele>50.0</ele><time>2026-04-05T15:23:59.999Z</time></trkpt><trkpt lat="48.632165224588384" lon="-2.4360736610710365"><ele>50.0</ele><time>2026-04-05T15:24:01.999Z</time></trkpt><trkpt lat="48.63214406187918" lon="-2.4361856516595832"><ele>50.0</ele><time>2026-04-05T15:24:02.999Z</time></trkpt><trkpt lat="48.63213440925794" lon="-2.4363200834683503"><ele>50.0</ele><time>2026-04-05T15:24:04.999Z</time></trkpt><trkpt lat="48.63211074036643" lon="-2.4365109209802864"><ele>50.0</ele><time>2026-04-05T15:24:07.999Z</time></trkpt><trkpt lat="48.63210312166235" lon="-2.4366543263322966"><ele>50.4</ele><time>2026-04-05T15:24:10.999Z</time></trkpt><trkpt lat="48.63205289484718" lon="-2.4368591116995075"><ele>50.8</ele><time>2026-04-05T15:24:11.999Z</time></trkpt><trkpt lat="48.63202670121949" lon="-2.4369983471270813"><ele>51.2</ele><time>2026-04-05T15:24:14Z</time></trkpt><trkpt lat="48.632015916724555" lon="-2.437128527233718"><ele>51.6</ele><time>2026-04-05T15:24:16Z</time></trkpt><trkpt lat="48.63200007189939" lon="-2.437253633591292"><ele>52.0</ele><time>2026-04-05T15:24:18Z</time></trkpt><trkpt lat="48.63198487253938" lon="-2.4373945939051556"><ele>52.166666666666664</ele><time>2026-04-05T15:24:20Z</time></trkpt><trkpt lat="48.63197644444217" lon="-2.4375335800038305"><ele>52.33333333333333</ele><time>2026-04-05T15:24:22Z</time></trkpt><trkpt lat="48.63195746736889" lon="-2.4376667612826752"><ele>52.5</ele><time>2026-04-05T15:24:24Z</time></trkpt><trkpt lat="48.63194888118761" lon="-2.4377837746788376"><ele>52.66666666666667</ele><time>2026-04-05T15:24:26Z</time></trkpt><trkpt lat="48.631938650963825" lon="-2.4378780583685153"><ele>52.833333333333336</ele><time>2026-04-05T15:24:28Z</time></trkpt><trkpt lat="48.631918028152626" lon="-2.4380102898259586"><ele>53.0</ele><time>2026-04-05T15:24:34Z</time></trkpt><trkpt lat="48.63189267793838" lon="-2.4381091344734545"><ele>53.16666666666667</ele><time>2026-04-05T15:24:36Z</time></trkpt><trkpt lat="48.63188425063392" lon="-2.4382395266613863"><ele>53.333333333333336</ele><time>2026-04-05T15:24:38Z</time></trkpt><trkpt lat="48.63186687723964" lon="-2.438365378664306"><ele>53.5</ele><time>2026-04-05T15:24:40Z</time></trkpt><trkpt lat="48.63185341839011" lon="-2.438498436859416"><ele>53.66666666666667</ele><time>2026-04-05T15:24:42Z</time></trkpt><trkpt lat="48.63184397429575" lon="-2.4386321337761396"><ele>53.833333333333336</ele><time>2026-04-05T15:24:44Z</time></trkpt><trkpt lat="48.63183134580613" lon="-2.4387647288334984"><ele>54.0</ele><time>2026-04-05T15:24:46Z</time></trkpt><trkpt lat="48.63180984556515" lon="-2.4388979705145557"><ele>54.0</ele><time>2026-04-05T15:24:48Z</time></trkpt><trkpt lat="48.6317839982681" lon="-2.4390353476318363"><ele>54.00000000000001</ele><time>2026-04-05T15:24:50Z</time></trkpt><trkpt lat="48.6317631951211" lon="-2.439170900060126"><ele>54.00000000000001</ele><time>2026-04-05T15:24:52Z</time></trkpt><trkpt lat="48.631751675635094" lon="-2.439314395654445"><ele>54.0</ele><time>2026-04-05T15:24:54Z</time></trkpt><trkpt lat="48.63173089768845" lon="-2.439475501272886"><ele>54.0</ele><time>2026-04-05T15:24:57Z</time></trkpt><trkpt lat="48.63171219495131" lon="-2.439609453885156"><ele>53.800000000000004</ele><time>2026-04-05T15:25:00Z</time></trkpt><trkpt lat="48.63168548008534" lon="-2.439812666220707"><ele>53.60000000000001</ele><time>2026-04-05T15:25:02Z</time></trkpt><trkpt lat="48.631674019308676" lon="-2.439953113369064"><ele>53.4</ele><time>2026-04-05T15:25:04Z</time></trkpt><trkpt lat="48.631657124869676" lon="-2.4400759388835938"><ele>53.2</ele><time>2026-04-05T15:25:06Z</time></trkpt><trkpt lat="48.63164201013527" lon="-2.4402013257616817"><ele>53.0</ele><time>2026-04-05T15:25:08Z</time></trkpt><trkpt lat="48.63161859285385" lon="-2.4403081730651635"><ele>53.0</ele><time>2026-04-05T15:25:10Z</time></trkpt><trkpt lat="48.631609265849036" lon="-2.4404079970512744"><ele>53.0</ele><time>2026-04-05T15:25:12Z</time></trkpt><trkpt lat="48.63159464312722" lon="-2.440551326389467"><ele>53.0</ele><time>2026-04-05T15:25:14Z</time></trkpt><trkpt lat="48.63156441661637" lon="-2.440695433409327"><ele>53.0</ele><time>2026-04-05T15:25:16Z</time></trkpt><trkpt lat="48.631551676378145" lon="-2.440881991788204"><ele>53.0</ele><time>2026-04-05T15:25:18Z</time></trkpt><trkpt lat="48.63153574023251" lon="-2.441038070955513"><ele>53.00000000000001</ele><time>2026-04-05T15:25:20Z</time></trkpt><trkpt lat="48.631513294466565" lon="-2.4411940136849215"><ele>53.0</ele><time>2026-04-05T15:25:22Z</time></trkpt><trkpt lat="48.631492033361795" lon="-2.441361200847209"><ele>53.0</ele><time>2026-04-05T15:25:24Z</time></trkpt><trkpt lat="48.63147658793054" lon="-2.441454940137425"><ele>53.0</ele><time>2026-04-05T15:25:25Z</time></trkpt><trkpt lat="48.63146424782598" lon="-2.4415561084310524"><ele>53.00000000000001</ele><time>2026-04-05T15:25:26Z</time></trkpt><trkpt lat="48.63145141483194" lon="-2.4416531454862787"><ele>53.0</ele><time>2026-04-05T15:25:27Z</time></trkpt><trkpt lat="48.63144140284904" lon="-2.441749482162256"><ele>52.599999999999994</ele><time>2026-04-05T15:25:27.999Z</time></trkpt><trkpt lat="48.631428411266526" lon="-2.4418466655515236"><ele>52.199999999999996</ele><time>2026-04-05T15:25:28.999Z</time></trkpt><trkpt lat="48.63140458404402" lon="-2.4420360003582595"><ele>51.8</ele><time>2026-04-05T15:25:30.999Z</time></trkpt><trkpt lat="48.63140751510777" lon="-2.4421322707558364"><ele>51.4</ele><time>2026-04-05T15:25:31.999Z</time></trkpt><trkpt lat="48.63138570650758" lon="-2.4423121711142217"><ele>51.0</ele><time>2026-04-05T15:25:33.999Z</time></trkpt><trkpt lat="48.63135078055871" lon="-2.442478839867797"><ele>50.599999999999994</ele><time>2026-04-05T15:25:35.999Z</time></trkpt><trkpt lat="48.631349472855625" lon="-2.4426458094666397"><ele>50.2</ele><time>2026-04-05T15:25:37.999Z</time></trkpt><trkpt lat="48.63133520011056" lon="-2.442777390601474"><ele>49.8</ele><time>2026-04-05T15:25:39.999Z</time></trkpt><trkpt lat="48.63131869885961" lon="-2.4429246330598793"><ele>49.400000000000006</ele><time>2026-04-05T15:25:42.999Z</time></trkpt><trkpt lat="48.631289914838455" lon="-2.4430540380201893"><ele>49.0</ele><time>2026-04-05T15:25:44.999Z</time></trkpt><trkpt lat="48.63127129078786" lon="-2.4432097448299794"><ele>48.99999999999999</ele><time>2026-04-05T15:25:46.999Z</time></trkpt><trkpt lat="48.63124998055138" lon="-2.4433791420314335"><ele>49.0</ele><time>2026-04-05T15:25:48.999Z</time></trkpt><trkpt lat="48.63122366431816" lon="-2.4435641968754513"><ele>49.0</ele><time>2026-04-05T15:25:50.999Z</time></trkpt><trkpt lat="48.631212475701666" lon="-2.443660743406273"><ele>49.0</ele><time>2026-04-05T15:25:51.999Z</time></trkpt><trkpt lat="48.63120146485738" lon="-2.4437548407828618"><ele>48.99999999999999</ele><time>2026-04-05T15:25:52.999Z</time></trkpt><trkpt lat="48.631189514232716" lon="-2.443849946526008"><ele>49.0</ele><time>2026-04-05T15:25:53.999Z</time></trkpt><trkpt lat="48.631162724224694" lon="-2.444034605045376"><ele>49.0</ele><time>2026-04-05T15:25:55.999Z</time></trkpt><trkpt lat="48.631151364275674" lon="-2.4441287961909204"><ele>49.0</ele><time>2026-04-05T15:25:56.999Z</time></trkpt><trkpt lat="48.63113814083423" lon="-2.444224731442147"><ele>49.0</ele><time>2026-04-05T15:25:57.999Z</time></trkpt><trkpt lat="48.631141012806175" lon="-2.4443245589593845"><ele>49.0</ele><time>2026-04-05T15:25:58.999Z</time></trkpt><trkpt lat="48.631117883496515" lon="-2.4444185594297076"><ele>49.0</ele><time>2026-04-05T15:25:59.999Z</time></trkpt><trkpt lat="48.631107070906545" lon="-2.444518444464641"><ele>49.0</ele><time>2026-04-05T15:26:00.999Z</time></trkpt><trkpt lat="48.631097430040526" lon="-2.4446171051543266"><ele>49.0</ele><time>2026-04-05T15:26:01.999Z</time></trkpt><trkpt lat="48.63109919050017" lon="-2.444723074428061"><ele>48.57142857142857</ele><time>2026-04-05T15:26:02.999Z</time></trkpt><trkpt lat="48.631087311413836" lon="-2.4448199171808143"><ele>48.14285714285714</ele><time>2026-04-05T15:26:03.999Z</time></trkpt><trkpt lat="48.6310578188238" lon="-2.4449186231094453"><ele>47.714285714285715</ele><time>2026-04-05T15:26:04.999Z</time></trkpt><trkpt lat="48.63104818799599" lon="-2.445020380588815"><ele>47.285714285714285</ele><time>2026-04-05T15:26:05.999Z</time></trkpt><trkpt lat="48.63103311654486" lon="-2.445122785808973"><ele>46.857142857142854</ele><time>2026-04-05T15:26:06.999Z</time></trkpt><trkpt lat="48.63101818966785" lon="-2.4452197009264247"><ele>46.42857142857143</ele><time>2026-04-05T15:26:07.999Z</time></trkpt><trkpt lat="48.63100567367243" lon="-2.445325388415307"><ele>46.0</ele><time>2026-04-05T15:26:08.999Z</time></trkpt><trkpt lat="48.6309905007922" lon="-2.4454337627163905"><ele>45.714285714285715</ele><time>2026-04-05T15:26:09.999Z</time></trkpt><trkpt lat="48.63099196379524" lon="-2.445547125307936"><ele>45.42857142857142</ele><time>2026-04-05T15:26:10.999Z</time></trkpt><trkpt lat="48.63097880593918" lon="-2.4456556009790416"><ele>45.14285714285714</ele><time>2026-04-05T15:26:11.999Z</time></trkpt><trkpt lat="48.6309656478728" lon="-2.4457621724135667"><ele>44.85714285714286</ele><time>2026-04-05T15:26:12.999Z</time></trkpt><trkpt lat="48.63095262451101" lon="-2.4458676528253362"><ele>44.57142857142857</ele><time>2026-04-05T15:26:13.999Z</time></trkpt><trkpt lat="48.630923690875164" lon="-2.445966098519406"><ele>44.285714285714285</ele><time>2026-04-05T15:26:14.999Z</time></trkpt><trkpt lat="48.63091148978838" lon="-2.4460672513148696"><ele>44.0</ele><time>2026-04-05T15:26:15.999Z</time></trkpt><trkpt lat="48.63089928325778" lon="-2.4461691300436454"><ele>44.0</ele><time>2026-04-05T15:26:16.999Z</time></trkpt><trkpt lat="48.63090241888615" lon="-2.4462742844327288"><ele>44.0</ele><time>2026-04-05T15:26:17.999Z</time></trkpt><trkpt lat="48.63089025459059" lon="-2.4463728071803135"><ele>44.0</ele><time>2026-04-05T15:26:19Z</time></trkpt><trkpt lat="48.63087835919141" lon="-2.446469152855969"><ele>44.0</ele><time>2026-04-05T15:26:20Z</time></trkpt><trkpt lat="48.63086785889909" lon="-2.4465644510969446"><ele>44.0</ele><time>2026-04-05T15:26:21Z</time></trkpt><trkpt lat="48.630856164246694" lon="-2.4466640626254756"><ele>44.0</ele><time>2026-04-05T15:26:22Z</time></trkpt><trkpt lat="48.6308293838559" lon="-2.4467609696186443"><ele>44.0</ele><time>2026-04-05T15:26:23Z</time></trkpt><trkpt lat="48.63081724302444" lon="-2.4468629790363465"><ele>43.57142857142857</ele><time>2026-04-05T15:26:24Z</time></trkpt><trkpt lat="48.63080474296876" lon="-2.4469628290703045"><ele>43.14285714285714</ele><time>2026-04-05T15:26:25Z</time></trkpt><trkpt lat="48.63080895101804" lon="-2.4470662145998734"><ele>42.71428571428571</ele><time>2026-04-05T15:26:26Z</time></trkpt><trkpt lat="48.63079729827145" lon="-2.447165470409808"><ele>42.285714285714285</ele><time>2026-04-05T15:26:27Z</time></trkpt><trkpt lat="48.63076496817674" lon="-2.447262551730942"><ele>41.857142857142854</ele><time>2026-04-05T15:26:28Z</time></trkpt><trkpt lat="48.630755570454646" lon="-2.4473628379178014"><ele>41.42857142857142</ele><time>2026-04-05T15:26:29Z</time></trkpt><trkpt lat="48.630743778977354" lon="-2.44746018556958"><ele>41.0</ele><time>2026-04-05T15:26:30Z</time></trkpt><trkpt lat="48.63073097585909" lon="-2.447554663847907"><ele>41.0</ele><time>2026-04-05T15:26:31Z</time></trkpt><trkpt lat="48.63070767855288" lon="-2.447733269362397"><ele>41.0</ele><time>2026-04-05T15:26:33Z</time></trkpt><trkpt lat="48.630673241721986" lon="-2.447900883903485"><ele>41.0</ele><time>2026-04-05T15:26:35Z</time></trkpt><trkpt lat="48.63064415633069" lon="-2.448069126926826"><ele>41.0</ele><time>2026-04-05T15:26:37Z</time></trkpt><trkpt lat="48.630600623905885" lon="-2.448247237060396"><ele>40.5</ele><time>2026-04-05T15:26:39Z</time></trkpt><trkpt lat="48.63055384249475" lon="-2.448420878134902"><ele>40.0</ele><time>2026-04-05T15:26:41Z</time></trkpt><trkpt lat="48.63051382073882" lon="-2.4485944481211117"><ele>39.5</ele><time>2026-04-05T15:26:43Z</time></trkpt><trkpt lat="48.63045644584382" lon="-2.4487486891855"><ele>39.0</ele><time>2026-04-05T15:26:45Z</time></trkpt><trkpt lat="48.63040663501661" lon="-2.4489107416430644"><ele>39.0</ele><time>2026-04-05T15:26:47Z</time></trkpt><trkpt lat="48.63035423206763" lon="-2.4490689407001156"><ele>39.0</ele><time>2026-04-05T15:26:49Z</time></trkpt><trkpt lat="48.63030157026628" lon="-2.449212657835816"><ele>39.0</ele><time>2026-04-05T15:26:51Z</time></trkpt><trkpt lat="48.6302621736364" lon="-2.4493628617541408"><ele>39.0</ele><time>2026-04-05T15:26:53Z</time></trkpt><trkpt lat="48.63019896762028" lon="-2.449488753586502"><ele>39.0</ele><time>2026-04-05T15:26:55Z</time></trkpt><trkpt lat="48.63016132030012" lon="-2.449597601832149"><ele>38.4</ele><time>2026-04-05T15:26:57Z</time></trkpt><trkpt lat="48.63012594633058" lon="-2.4497263026491476"><ele>37.8</ele><time>2026-04-05T15:27:00Z</time></trkpt><trkpt lat="48.63010469210384" lon="-2.449848886132139"><ele>37.2</ele><time>2026-04-05T15:27:02Z</time></trkpt><trkpt lat="48.630077421954766" lon="-2.4499855442708967"><ele>36.6</ele><time>2026-04-05T15:27:04Z</time></trkpt><trkpt lat="48.630071272155604" lon="-2.450143578544383"><ele>36.0</ele><time>2026-04-05T15:27:06Z</time></trkpt><trkpt lat="48.63004797770959" lon="-2.450312558478302"><ele>36.0</ele><time>2026-04-05T15:27:08Z</time></trkpt><trkpt lat="48.63001364125546" lon="-2.450484541515974"><ele>36.0</ele><time>2026-04-05T15:27:10Z</time></trkpt><trkpt lat="48.63000398069678" lon="-2.4505794222778032"><ele>36.0</ele><time>2026-04-05T15:27:11Z</time></trkpt><trkpt lat="48.62998259478276" lon="-2.4507614136173976"><ele>36.0</ele><time>2026-04-05T15:27:13Z</time></trkpt><trkpt lat="48.629955772928156" lon="-2.450929686852451"><ele>36.0</ele><time>2026-04-05T15:27:15Z</time></trkpt><trkpt lat="48.629943792664726" lon="-2.451065038070646"><ele>36.00000000000001</ele><time>2026-04-05T15:27:17Z</time></trkpt><trkpt lat="48.62994922582723" lon="-2.4511663395385295"><ele>36.0</ele><time>2026-04-05T15:27:31.999Z</time></trkpt><trkpt lat="48.629912037483045" lon="-2.451253338126845"><ele>36.0</ele><time>2026-04-05T15:49:27Z</time></trkpt><trkpt lat="48.62990824616417" lon="-2.4513680741888755"><ele>36.0</ele><time>2026-04-05T15:49:34Z</time></trkpt><trkpt lat="48.629894489434335" lon="-2.4514678709085524"><ele>36.0</ele><time>2026-04-05T15:49:39Z</time></trkpt><trkpt lat="48.629900803139066" lon="-2.451564483780032"><ele>36.00000000000001</ele><time>2026-04-05T15:49:44Z</time></trkpt><trkpt lat="48.62988187217066" lon="-2.4516618848711595"><ele>36.0</ele><time>2026-04-05T15:49:50Z</time></trkpt><trkpt lat="48.629862371757476" lon="-2.4517538588438743"><ele>36.00000000000001</ele><time>2026-04-05T15:49:55Z</time></trkpt><trkpt lat="48.62983225697463" lon="-2.4518616344548874"><ele>36.0</ele><time>2026-04-05T15:50:01Z</time></trkpt><trkpt lat="48.62981921778148" lon="-2.451967731244723"><ele>36.0</ele><time>2026-04-05T15:50:07Z</time></trkpt><trkpt lat="48.62980327536745" lon="-2.4520630200028553"><ele>36.0</ele><time>2026-04-05T15:50:13Z</time></trkpt><trkpt lat="48.629795835738115" lon="-2.4521730871467806"><ele>36.0</ele><time>2026-04-05T15:50:18Z</time></trkpt><trkpt lat="48.62979505424191" lon="-2.4522748893282595"><ele>36.00000000000001</ele><time>2026-04-05T15:50:23Z</time></trkpt><trkpt lat="48.62979032695868" lon="-2.4523779452877137"><ele>36.0</ele><time>2026-04-05T15:50:29Z</time></trkpt><trkpt lat="48.62977828150373" lon="-2.452475493381918"><ele>35.0</ele><time>2026-04-05T15:50:34Z</time></trkpt><trkpt lat="48.62976524095258" lon="-2.4525854552635766"><ele>35.0</ele><time>2026-04-05T15:50:40Z</time></trkpt><trkpt lat="48.62974532247665" lon="-2.452684853275031"><ele>35.0</ele><time>2026-04-05T15:50:44.999Z</time></trkpt><trkpt lat="48.62973060906872" lon="-2.452796312453096"><ele>35.0</ele><time>2026-04-05T15:50:50.999Z</time></trkpt></trkseg></trk></gpx>